<?xml version="1.0" encoding="UTF-8" standalone="no" ?>
<gpx xmlns="http://www.topografix.com/GPX/1/1" xmlns:xsi="http://www.w3.org/2001/XMLSchema-instance" xsi:schemaLocation="http://www.topografix.com/GPX/1/1 http://www.topografix.com/GPX/1/1/gpx.xsd" version="1.1" creator="VisuGPX - https://www.visugpx.com">
  <metadata>
    <name>TV LEVENS St MICHEL</name>
    <desc><![CDATA[TRACE ETUDE
XXXXXXXXXXXXXXXXXXXXXXXXXXXXXXXXXXXXXXXXXXXXXXXXXXXXXXXXXXXXXXXXXXXXXXXXXXXXXXXXXXXXXXXXXXXXXXXXXXXXXXXXXX]]></desc>
  </metadata>
  <trk>
    <name><![CDATA[20180512095649-sKTlZ]]></name>
    <trkseg>
      <trkpt lat="44.07083" lon="7.22466">
        <ele>1496</ele>
        <time>2016-05-15T05:27:02.000Z</time>
      </trkpt>
      <trkpt lat="44.07082" lon="7.22468">
        <ele>1496</ele>
        <time>2016-05-15T05:27:07.000Z</time>
      </trkpt>
      <trkpt lat="44.07083" lon="7.22468">
        <ele>1496</ele>
        <time>2016-05-15T05:27:17.000Z</time>
      </trkpt>
      <trkpt lat="44.07082" lon="7.22468">
        <ele>1496</ele>
        <time>2016-05-15T05:27:27.000Z</time>
      </trkpt>
      <trkpt lat="44.07083" lon="7.22468">
        <ele>1496</ele>
        <time>2016-05-15T05:27:34.000Z</time>
      </trkpt>
      <trkpt lat="44.07082" lon="7.22467">
        <ele>1496</ele>
        <time>2016-05-15T05:27:42.000Z</time>
      </trkpt>
      <trkpt lat="44.07082" lon="7.22467">
        <ele>1496</ele>
        <time>2016-05-15T05:27:50.000Z</time>
      </trkpt>
      <trkpt lat="44.07082" lon="7.22467">
        <ele>1496</ele>
        <time>2016-05-15T05:27:57.000Z</time>
      </trkpt>
      <trkpt lat="44.07081" lon="7.22466">
        <ele>1496</ele>
        <time>2016-05-15T05:28:06.000Z</time>
      </trkpt>
      <trkpt lat="44.07081" lon="7.22466">
        <ele>1496</ele>
        <time>2016-05-15T05:28:14.000Z</time>
      </trkpt>
      <trkpt lat="44.07082" lon="7.22466">
        <ele>1496</ele>
        <time>2016-05-15T05:28:27.000Z</time>
      </trkpt>
      <trkpt lat="44.07084" lon="7.22465">
        <ele>1499</ele>
        <time>2016-05-15T05:28:38.000Z</time>
      </trkpt>
      <trkpt lat="44.07085" lon="7.22465">
        <ele>1499</ele>
        <time>2016-05-15T05:28:47.000Z</time>
      </trkpt>
      <trkpt lat="44.07084" lon="7.22464">
        <ele>1499</ele>
        <time>2016-05-15T05:28:54.000Z</time>
      </trkpt>
      <trkpt lat="44.07084" lon="7.22465">
        <ele>1499</ele>
        <time>2016-05-15T05:29:06.000Z</time>
      </trkpt>
      <trkpt lat="44.07085" lon="7.22465">
        <ele>1499</ele>
        <time>2016-05-15T05:29:14.000Z</time>
      </trkpt>
      <trkpt lat="44.07084" lon="7.22464">
        <ele>1499</ele>
        <time>2016-05-15T05:29:21.000Z</time>
      </trkpt>
      <trkpt lat="44.07084" lon="7.22464">
        <ele>1499</ele>
        <time>2016-05-15T05:29:30.000Z</time>
      </trkpt>
      <trkpt lat="44.07085" lon="7.22463">
        <ele>1499</ele>
        <time>2016-05-15T05:29:35.000Z</time>
      </trkpt>
      <trkpt lat="44.07086" lon="7.2246">
        <ele>1499</ele>
        <time>2016-05-15T05:29:39.000Z</time>
      </trkpt>
      <trkpt lat="44.07087" lon="7.22459">
        <ele>1500</ele>
        <time>2016-05-15T05:29:40.000Z</time>
      </trkpt>
      <trkpt lat="44.07084" lon="7.22449">
        <ele>1500</ele>
        <time>2016-05-15T05:29:45.000Z</time>
      </trkpt>
      <trkpt lat="44.07082" lon="7.22443">
        <ele>1497</ele>
        <time>2016-05-15T05:29:47.000Z</time>
      </trkpt>
      <trkpt lat="44.07079" lon="7.22438">
        <ele>1497</ele>
        <time>2016-05-15T05:29:49.000Z</time>
      </trkpt>
      <trkpt lat="44.07077" lon="7.22429">
        <ele>1497</ele>
        <time>2016-05-15T05:29:52.000Z</time>
      </trkpt>
      <trkpt lat="44.0708" lon="7.22415">
        <ele>1497</ele>
        <time>2016-05-15T05:29:56.000Z</time>
      </trkpt>
      <trkpt lat="44.07081" lon="7.22412">
        <ele>1498</ele>
        <time>2016-05-15T05:29:57.000Z</time>
      </trkpt>
      <trkpt lat="44.07086" lon="7.22392">
        <ele>1503</ele>
        <time>2016-05-15T05:30:03.000Z</time>
      </trkpt>
      <trkpt lat="44.07086" lon="7.22388">
        <ele>1504</ele>
        <time>2016-05-15T05:30:04.000Z</time>
      </trkpt>
      <trkpt lat="44.07089" lon="7.22367">
        <ele>1506</ele>
        <time>2016-05-15T05:30:10.000Z</time>
      </trkpt>
      <trkpt lat="44.07091" lon="7.22356">
        <ele>1506</ele>
        <time>2016-05-15T05:30:13.000Z</time>
      </trkpt>
      <trkpt lat="44.07093" lon="7.22338">
        <ele>1504</ele>
        <time>2016-05-15T05:30:18.000Z</time>
      </trkpt>
      <trkpt lat="44.07096" lon="7.22327">
        <ele>1505</ele>
        <time>2016-05-15T05:30:21.000Z</time>
      </trkpt>
      <trkpt lat="44.07098" lon="7.22315">
        <ele>1507</ele>
        <time>2016-05-15T05:30:24.000Z</time>
      </trkpt>
      <trkpt lat="44.071" lon="7.22293">
        <ele>1508</ele>
        <time>2016-05-15T05:30:30.000Z</time>
      </trkpt>
      <trkpt lat="44.07102" lon="7.22269">
        <ele>1507</ele>
        <time>2016-05-15T05:30:36.000Z</time>
      </trkpt>
      <trkpt lat="44.07102" lon="7.22256">
        <ele>1507</ele>
        <time>2016-05-15T05:30:39.000Z</time>
      </trkpt>
      <trkpt lat="44.071" lon="7.22239">
        <ele>1507</ele>
        <time>2016-05-15T05:30:43.000Z</time>
      </trkpt>
      <trkpt lat="44.07096" lon="7.22228">
        <ele>1508</ele>
        <time>2016-05-15T05:30:46.000Z</time>
      </trkpt>
      <trkpt lat="44.0709" lon="7.22217">
        <ele>1508</ele>
        <time>2016-05-15T05:30:51.000Z</time>
      </trkpt>
      <trkpt lat="44.0709" lon="7.22216">
        <ele>1508</ele>
        <time>2016-05-15T05:30:52.000Z</time>
      </trkpt>
      <trkpt lat="44.07089" lon="7.22216">
        <ele>1508</ele>
        <time>2016-05-15T05:30:59.000Z</time>
      </trkpt>
      <trkpt lat="44.0709" lon="7.22216">
        <ele>1508</ele>
        <time>2016-05-15T05:31:20.000Z</time>
      </trkpt>
      <trkpt lat="44.0709" lon="7.22218">
        <ele>1508</ele>
        <time>2016-05-15T05:31:31.000Z</time>
      </trkpt>
      <trkpt lat="44.07089" lon="7.22219">
        <ele>1508</ele>
        <time>2016-05-15T05:31:39.000Z</time>
      </trkpt>
      <trkpt lat="44.0709" lon="7.22219">
        <ele>1508</ele>
        <time>2016-05-15T05:31:45.000Z</time>
      </trkpt>
      <trkpt lat="44.07091" lon="7.22218">
        <ele>1508</ele>
        <time>2016-05-15T05:32:00.000Z</time>
      </trkpt>
      <trkpt lat="44.07095" lon="7.22217">
        <ele>1508</ele>
        <time>2016-05-15T05:32:10.000Z</time>
      </trkpt>
      <trkpt lat="44.07097" lon="7.22219">
        <ele>1508</ele>
        <time>2016-05-15T05:32:17.000Z</time>
      </trkpt>
      <trkpt lat="44.07097" lon="7.22222">
        <ele>1508</ele>
        <time>2016-05-15T05:32:23.000Z</time>
      </trkpt>
      <trkpt lat="44.07096" lon="7.22222">
        <ele>1508</ele>
        <time>2016-05-15T05:32:24.000Z</time>
      </trkpt>
      <trkpt lat="44.07096" lon="7.22223">
        <ele>1508</ele>
        <time>2016-05-15T05:32:30.000Z</time>
      </trkpt>
      <trkpt lat="44.07096" lon="7.22224">
        <ele>1508</ele>
        <time>2016-05-15T05:32:44.000Z</time>
      </trkpt>
      <trkpt lat="44.07095" lon="7.22226">
        <ele>1508</ele>
        <time>2016-05-15T05:32:50.000Z</time>
      </trkpt>
      <trkpt lat="44.07096" lon="7.22231">
        <ele>1508</ele>
        <time>2016-05-15T05:32:55.000Z</time>
      </trkpt>
      <trkpt lat="44.07099" lon="7.22239">
        <ele>1507</ele>
        <time>2016-05-15T05:33:00.000Z</time>
      </trkpt>
      <trkpt lat="44.07099" lon="7.22239">
        <ele>1507</ele>
        <time>2016-05-15T05:33:02.000Z</time>
      </trkpt>
      <trkpt lat="44.07099" lon="7.22241">
        <ele>1507</ele>
        <time>2016-05-15T05:33:13.000Z</time>
      </trkpt>
      <trkpt lat="44.07098" lon="7.22242">
        <ele>1507</ele>
        <time>2016-05-15T05:33:37.000Z</time>
      </trkpt>
      <trkpt lat="44.07097" lon="7.22243">
        <ele>1507</ele>
        <time>2016-05-15T05:34:04.000Z</time>
      </trkpt>
      <trkpt lat="44.07097" lon="7.22244">
        <ele>1507</ele>
        <time>2016-05-15T05:34:22.000Z</time>
      </trkpt>
      <trkpt lat="44.07096" lon="7.22244">
        <ele>1507</ele>
        <time>2016-05-15T05:34:46.000Z</time>
      </trkpt>
      <trkpt lat="44.07096" lon="7.22245">
        <ele>1507</ele>
        <time>2016-05-15T05:35:12.000Z</time>
      </trkpt>
      <trkpt lat="44.07096" lon="7.22245">
        <ele>1507</ele>
        <time>2016-05-15T05:35:35.000Z</time>
      </trkpt>
      <trkpt lat="44.07098" lon="7.22245">
        <ele>1507</ele>
        <time>2016-05-15T05:35:56.000Z</time>
      </trkpt>
      <trkpt lat="44.07102" lon="7.22245">
        <ele>1507</ele>
        <time>2016-05-15T05:36:17.000Z</time>
      </trkpt>
      <trkpt lat="44.07102" lon="7.22247">
        <ele>1507</ele>
        <time>2016-05-15T05:36:19.000Z</time>
      </trkpt>
      <trkpt lat="44.071" lon="7.22253">
        <ele>1507</ele>
        <time>2016-05-15T05:36:21.000Z</time>
      </trkpt>
      <trkpt lat="44.07098" lon="7.22261">
        <ele>1507</ele>
        <time>2016-05-15T05:36:24.000Z</time>
      </trkpt>
      <trkpt lat="44.07099" lon="7.22263">
        <ele>1507</ele>
        <time>2016-05-15T05:36:26.000Z</time>
      </trkpt>
      <trkpt lat="44.07098" lon="7.22265">
        <ele>1507</ele>
        <time>2016-05-15T05:36:27.000Z</time>
      </trkpt>
      <trkpt lat="44.07094" lon="7.22276">
        <ele>1507</ele>
        <time>2016-05-15T05:36:30.000Z</time>
      </trkpt>
      <trkpt lat="44.07092" lon="7.2228">
        <ele>1507</ele>
        <time>2016-05-15T05:36:31.000Z</time>
      </trkpt>
      <trkpt lat="44.07085" lon="7.22297">
        <ele>1507</ele>
        <time>2016-05-15T05:36:35.000Z</time>
      </trkpt>
      <trkpt lat="44.07081" lon="7.22316">
        <ele>1510</ele>
        <time>2016-05-15T05:36:39.000Z</time>
      </trkpt>
      <trkpt lat="44.07082" lon="7.22321">
        <ele>1508</ele>
        <time>2016-05-15T05:36:40.000Z</time>
      </trkpt>
      <trkpt lat="44.07083" lon="7.2233">
        <ele>1504</ele>
        <time>2016-05-15T05:36:42.000Z</time>
      </trkpt>
      <trkpt lat="44.07082" lon="7.22335">
        <ele>1503</ele>
        <time>2016-05-15T05:36:44.000Z</time>
      </trkpt>
      <trkpt lat="44.07081" lon="7.22336">
        <ele>1503</ele>
        <time>2016-05-15T05:36:45.000Z</time>
      </trkpt>
      <trkpt lat="44.0708" lon="7.22335">
        <ele>1503</ele>
        <time>2016-05-15T05:36:49.000Z</time>
      </trkpt>
      <trkpt lat="44.0708" lon="7.22335">
        <ele>1503</ele>
        <time>2016-05-15T05:36:56.000Z</time>
      </trkpt>
      <trkpt lat="44.07079" lon="7.22336">
        <ele>1504</ele>
        <time>2016-05-15T05:37:05.000Z</time>
      </trkpt>
      <trkpt lat="44.07077" lon="7.22337">
        <ele>1504</ele>
        <time>2016-05-15T05:37:13.000Z</time>
      </trkpt>
      <trkpt lat="44.07076" lon="7.22337">
        <ele>1504</ele>
        <time>2016-05-15T05:37:24.000Z</time>
      </trkpt>
      <trkpt lat="44.07076" lon="7.22339">
        <ele>1505</ele>
        <time>2016-05-15T05:37:35.000Z</time>
      </trkpt>
      <trkpt lat="44.07075" lon="7.22339">
        <ele>1505</ele>
        <time>2016-05-15T05:37:46.000Z</time>
      </trkpt>
      <trkpt lat="44.07074" lon="7.2234">
        <ele>1505</ele>
        <time>2016-05-15T05:37:58.000Z</time>
      </trkpt>
      <trkpt lat="44.07074" lon="7.2234">
        <ele>1505</ele>
        <time>2016-05-15T05:38:07.000Z</time>
      </trkpt>
      <trkpt lat="44.07074" lon="7.2234">
        <ele>1505</ele>
        <time>2016-05-15T05:38:21.000Z</time>
      </trkpt>
      <trkpt lat="44.07074" lon="7.2234">
        <ele>1505</ele>
        <time>2016-05-15T05:38:33.000Z</time>
      </trkpt>
      <trkpt lat="44.07074" lon="7.2234">
        <ele>1505</ele>
        <time>2016-05-15T05:38:45.000Z</time>
      </trkpt>
      <trkpt lat="44.07074" lon="7.2234">
        <ele>1505</ele>
        <time>2016-05-15T05:38:59.000Z</time>
      </trkpt>
      <trkpt lat="44.07073" lon="7.2234">
        <ele>1505</ele>
        <time>2016-05-15T05:39:13.000Z</time>
      </trkpt>
      <trkpt lat="44.07073" lon="7.22339">
        <ele>1505</ele>
        <time>2016-05-15T05:39:24.000Z</time>
      </trkpt>
      <trkpt lat="44.07072" lon="7.2234">
        <ele>1506</ele>
        <time>2016-05-15T05:39:32.000Z</time>
      </trkpt>
      <trkpt lat="44.07072" lon="7.2234">
        <ele>1506</ele>
        <time>2016-05-15T05:39:44.000Z</time>
      </trkpt>
      <trkpt lat="44.07072" lon="7.2234">
        <ele>1506</ele>
        <time>2016-05-15T05:39:55.000Z</time>
      </trkpt>
      <trkpt lat="44.07072" lon="7.22339">
        <ele>1505</ele>
        <time>2016-05-15T05:40:06.000Z</time>
      </trkpt>
      <trkpt lat="44.07072" lon="7.22338">
        <ele>1505</ele>
        <time>2016-05-15T05:40:15.000Z</time>
      </trkpt>
      <trkpt lat="44.07072" lon="7.22338">
        <ele>1505</ele>
        <time>2016-05-15T05:40:26.000Z</time>
      </trkpt>
      <trkpt lat="44.07073" lon="7.22337">
        <ele>1505</ele>
        <time>2016-05-15T05:40:37.000Z</time>
      </trkpt>
      <trkpt lat="44.07073" lon="7.22337">
        <ele>1505</ele>
        <time>2016-05-15T05:40:52.000Z</time>
      </trkpt>
      <trkpt lat="44.07074" lon="7.22336">
        <ele>1505</ele>
        <time>2016-05-15T05:41:09.000Z</time>
      </trkpt>
      <trkpt lat="44.07074" lon="7.22335">
        <ele>1505</ele>
        <time>2016-05-15T05:41:28.000Z</time>
      </trkpt>
      <trkpt lat="44.07075" lon="7.22335">
        <ele>1505</ele>
        <time>2016-05-15T05:41:44.000Z</time>
      </trkpt>
      <trkpt lat="44.07074" lon="7.22335">
        <ele>1505</ele>
        <time>2016-05-15T05:41:58.000Z</time>
      </trkpt>
      <trkpt lat="44.07073" lon="7.22335">
        <ele>1505</ele>
        <time>2016-05-15T05:42:11.000Z</time>
      </trkpt>
      <trkpt lat="44.07072" lon="7.22336">
        <ele>1505</ele>
        <time>2016-05-15T05:42:25.000Z</time>
      </trkpt>
      <trkpt lat="44.07072" lon="7.22337">
        <ele>1505</ele>
        <time>2016-05-15T05:42:35.000Z</time>
      </trkpt>
      <trkpt lat="44.07071" lon="7.22338">
        <ele>1506</ele>
        <time>2016-05-15T05:42:53.000Z</time>
      </trkpt>
      <trkpt lat="44.0707" lon="7.22339">
        <ele>1506</ele>
        <time>2016-05-15T05:43:07.000Z</time>
      </trkpt>
      <trkpt lat="44.0707" lon="7.2234">
        <ele>1506</ele>
        <time>2016-05-15T05:43:26.000Z</time>
      </trkpt>
      <trkpt lat="44.0707" lon="7.22341">
        <ele>1506</ele>
        <time>2016-05-15T05:43:35.000Z</time>
      </trkpt>
      <trkpt lat="44.07069" lon="7.22341">
        <ele>1506</ele>
        <time>2016-05-15T05:43:52.000Z</time>
      </trkpt>
      <trkpt lat="44.07069" lon="7.22341">
        <ele>1506</ele>
        <time>2016-05-15T05:44:02.000Z</time>
      </trkpt>
      <trkpt lat="44.0707" lon="7.22341">
        <ele>1506</ele>
        <time>2016-05-15T05:44:14.000Z</time>
      </trkpt>
      <trkpt lat="44.07072" lon="7.22342">
        <ele>1506</ele>
        <time>2016-05-15T05:44:28.000Z</time>
      </trkpt>
      <trkpt lat="44.07072" lon="7.22343">
        <ele>1506</ele>
        <time>2016-05-15T05:44:29.000Z</time>
      </trkpt>
      <trkpt lat="44.07071" lon="7.22352">
        <ele>1507</ele>
        <time>2016-05-15T05:44:32.000Z</time>
      </trkpt>
      <trkpt lat="44.07066" lon="7.2238">
        <ele>1507</ele>
        <time>2016-05-15T05:44:37.000Z</time>
      </trkpt>
      <trkpt lat="44.07065" lon="7.22387">
        <ele>1506</ele>
        <time>2016-05-15T05:44:38.000Z</time>
      </trkpt>
      <trkpt lat="44.07062" lon="7.22412">
        <ele>1504</ele>
        <time>2016-05-15T05:44:41.000Z</time>
      </trkpt>
      <trkpt lat="44.07061" lon="7.22421">
        <ele>1498</ele>
        <time>2016-05-15T05:44:42.000Z</time>
      </trkpt>
      <trkpt lat="44.07061" lon="7.22428">
        <ele>1498</ele>
        <time>2016-05-15T05:44:43.000Z</time>
      </trkpt>
      <trkpt lat="44.07062" lon="7.22436">
        <ele>1498</ele>
        <time>2016-05-15T05:44:44.000Z</time>
      </trkpt>
      <trkpt lat="44.07061" lon="7.22451">
        <ele>1498</ele>
        <time>2016-05-15T05:44:46.000Z</time>
      </trkpt>
      <trkpt lat="44.07061" lon="7.22458">
        <ele>1498</ele>
        <time>2016-05-15T05:44:47.000Z</time>
      </trkpt>
      <trkpt lat="44.07057" lon="7.22467">
        <ele>1497</ele>
        <time>2016-05-15T05:44:49.000Z</time>
      </trkpt>
      <trkpt lat="44.07055" lon="7.2247">
        <ele>1497</ele>
        <time>2016-05-15T05:44:50.000Z</time>
      </trkpt>
      <trkpt lat="44.07053" lon="7.22473">
        <ele>1497</ele>
        <time>2016-05-15T05:44:51.000Z</time>
      </trkpt>
      <trkpt lat="44.07047" lon="7.22476">
        <ele>1498</ele>
        <time>2016-05-15T05:44:53.000Z</time>
      </trkpt>
      <trkpt lat="44.07044" lon="7.22477">
        <ele>1498</ele>
        <time>2016-05-15T05:44:54.000Z</time>
      </trkpt>
      <trkpt lat="44.07042" lon="7.22478">
        <ele>1498</ele>
        <time>2016-05-15T05:44:55.000Z</time>
      </trkpt>
      <trkpt lat="44.07041" lon="7.22477">
        <ele>1498</ele>
        <time>2016-05-15T05:44:56.000Z</time>
      </trkpt>
      <trkpt lat="44.07039" lon="7.22479">
        <ele>1498</ele>
        <time>2016-05-15T05:44:58.000Z</time>
      </trkpt>
      <trkpt lat="44.07042" lon="7.2249">
        <ele>1498</ele>
        <time>2016-05-15T05:45:01.000Z</time>
      </trkpt>
      <trkpt lat="44.07047" lon="7.22503">
        <ele>1490</ele>
        <time>2016-05-15T05:45:03.000Z</time>
      </trkpt>
      <trkpt lat="44.07048" lon="7.2251">
        <ele>1489</ele>
        <time>2016-05-15T05:45:04.000Z</time>
      </trkpt>
      <trkpt lat="44.07049" lon="7.22516">
        <ele>1489</ele>
        <time>2016-05-15T05:45:05.000Z</time>
      </trkpt>
      <trkpt lat="44.07049" lon="7.22523">
        <ele>1489</ele>
        <time>2016-05-15T05:45:06.000Z</time>
      </trkpt>
      <trkpt lat="44.07046" lon="7.22536">
        <ele>1488</ele>
        <time>2016-05-15T05:45:08.000Z</time>
      </trkpt>
      <trkpt lat="44.07042" lon="7.22542">
        <ele>1488</ele>
        <time>2016-05-15T05:45:09.000Z</time>
      </trkpt>
      <trkpt lat="44.07038" lon="7.22546">
        <ele>1487</ele>
        <time>2016-05-15T05:45:10.000Z</time>
      </trkpt>
      <trkpt lat="44.07027" lon="7.22552">
        <ele>1487</ele>
        <time>2016-05-15T05:45:12.000Z</time>
      </trkpt>
      <trkpt lat="44.07022" lon="7.22554">
        <ele>1487</ele>
        <time>2016-05-15T05:45:13.000Z</time>
      </trkpt>
      <trkpt lat="44.07019" lon="7.22556">
        <ele>1486</ele>
        <time>2016-05-15T05:45:14.000Z</time>
      </trkpt>
      <trkpt lat="44.07017" lon="7.22559">
        <ele>1486</ele>
        <time>2016-05-15T05:45:15.000Z</time>
      </trkpt>
      <trkpt lat="44.07016" lon="7.22563">
        <ele>1485</ele>
        <time>2016-05-15T05:45:16.000Z</time>
      </trkpt>
      <trkpt lat="44.07022" lon="7.22573">
        <ele>1485</ele>
        <time>2016-05-15T05:45:18.000Z</time>
      </trkpt>
      <trkpt lat="44.0703" lon="7.22592">
        <ele>1478</ele>
        <time>2016-05-15T05:45:21.000Z</time>
      </trkpt>
      <trkpt lat="44.07031" lon="7.22598">
        <ele>1478</ele>
        <time>2016-05-15T05:45:22.000Z</time>
      </trkpt>
      <trkpt lat="44.07029" lon="7.22603">
        <ele>1478</ele>
        <time>2016-05-15T05:45:23.000Z</time>
      </trkpt>
      <trkpt lat="44.07025" lon="7.22606">
        <ele>1477</ele>
        <time>2016-05-15T05:45:24.000Z</time>
      </trkpt>
      <trkpt lat="44.07021" lon="7.22607">
        <ele>1477</ele>
        <time>2016-05-15T05:45:25.000Z</time>
      </trkpt>
      <trkpt lat="44.07016" lon="7.22608">
        <ele>1477</ele>
        <time>2016-05-15T05:45:27.000Z</time>
      </trkpt>
      <trkpt lat="44.07012" lon="7.22619">
        <ele>1476</ele>
        <time>2016-05-15T05:45:29.000Z</time>
      </trkpt>
      <trkpt lat="44.0701" lon="7.22627">
        <ele>1476</ele>
        <time>2016-05-15T05:45:30.000Z</time>
      </trkpt>
      <trkpt lat="44.07006" lon="7.22646">
        <ele>1473</ele>
        <time>2016-05-15T05:45:32.000Z</time>
      </trkpt>
      <trkpt lat="44.07001" lon="7.22669">
        <ele>1468</ele>
        <time>2016-05-15T05:45:34.000Z</time>
      </trkpt>
      <trkpt lat="44.06998" lon="7.22681">
        <ele>1469</ele>
        <time>2016-05-15T05:45:35.000Z</time>
      </trkpt>
      <trkpt lat="44.06992" lon="7.22704">
        <ele>1468</ele>
        <time>2016-05-15T05:45:37.000Z</time>
      </trkpt>
      <trkpt lat="44.06989" lon="7.22713">
        <ele>1467</ele>
        <time>2016-05-15T05:45:38.000Z</time>
      </trkpt>
      <trkpt lat="44.06985" lon="7.22721">
        <ele>1466</ele>
        <time>2016-05-15T05:45:39.000Z</time>
      </trkpt>
      <trkpt lat="44.06982" lon="7.22726">
        <ele>1466</ele>
        <time>2016-05-15T05:45:40.000Z</time>
      </trkpt>
      <trkpt lat="44.06979" lon="7.22732">
        <ele>1465</ele>
        <time>2016-05-15T05:45:41.000Z</time>
      </trkpt>
      <trkpt lat="44.06975" lon="7.22738">
        <ele>1465</ele>
        <time>2016-05-15T05:45:42.000Z</time>
      </trkpt>
      <trkpt lat="44.06971" lon="7.22744">
        <ele>1466</ele>
        <time>2016-05-15T05:45:43.000Z</time>
      </trkpt>
      <trkpt lat="44.06961" lon="7.22758">
        <ele>1456</ele>
        <time>2016-05-15T05:45:45.000Z</time>
      </trkpt>
      <trkpt lat="44.06952" lon="7.22774">
        <ele>1455</ele>
        <time>2016-05-15T05:45:47.000Z</time>
      </trkpt>
      <trkpt lat="44.06948" lon="7.22783">
        <ele>1455</ele>
        <time>2016-05-15T05:45:48.000Z</time>
      </trkpt>
      <trkpt lat="44.06941" lon="7.22798">
        <ele>1452</ele>
        <time>2016-05-15T05:45:50.000Z</time>
      </trkpt>
      <trkpt lat="44.06937" lon="7.22805">
        <ele>1451</ele>
        <time>2016-05-15T05:45:51.000Z</time>
      </trkpt>
      <trkpt lat="44.06928" lon="7.2282">
        <ele>1447</ele>
        <time>2016-05-15T05:45:53.000Z</time>
      </trkpt>
      <trkpt lat="44.06924" lon="7.22827">
        <ele>1445</ele>
        <time>2016-05-15T05:45:54.000Z</time>
      </trkpt>
      <trkpt lat="44.06919" lon="7.22833">
        <ele>1441</ele>
        <time>2016-05-15T05:45:55.000Z</time>
      </trkpt>
      <trkpt lat="44.06913" lon="7.22838">
        <ele>1439</ele>
        <time>2016-05-15T05:45:56.000Z</time>
      </trkpt>
      <trkpt lat="44.06901" lon="7.22846">
        <ele>1439</ele>
        <time>2016-05-15T05:45:58.000Z</time>
      </trkpt>
      <trkpt lat="44.06885" lon="7.22852">
        <ele>1438</ele>
        <time>2016-05-15T05:46:00.000Z</time>
      </trkpt>
      <trkpt lat="44.06878" lon="7.22853">
        <ele>1438</ele>
        <time>2016-05-15T05:46:01.000Z</time>
      </trkpt>
      <trkpt lat="44.06872" lon="7.22854">
        <ele>1438</ele>
        <time>2016-05-15T05:46:02.000Z</time>
      </trkpt>
      <trkpt lat="44.06867" lon="7.22854">
        <ele>1438</ele>
        <time>2016-05-15T05:46:03.000Z</time>
      </trkpt>
      <trkpt lat="44.06856" lon="7.22856">
        <ele>1439</ele>
        <time>2016-05-15T05:46:06.000Z</time>
      </trkpt>
      <trkpt lat="44.06852" lon="7.22856">
        <ele>1439</ele>
        <time>2016-05-15T05:46:07.000Z</time>
      </trkpt>
      <trkpt lat="44.06837" lon="7.22859">
        <ele>1439</ele>
        <time>2016-05-15T05:46:12.000Z</time>
      </trkpt>
      <trkpt lat="44.06834" lon="7.2286">
        <ele>1439</ele>
        <time>2016-05-15T05:46:13.000Z</time>
      </trkpt>
      <trkpt lat="44.06822" lon="7.22862">
        <ele>1443</ele>
        <time>2016-05-15T05:46:18.000Z</time>
      </trkpt>
      <trkpt lat="44.06804" lon="7.22864">
        <ele>1444</ele>
        <time>2016-05-15T05:46:24.000Z</time>
      </trkpt>
      <trkpt lat="44.06798" lon="7.22864">
        <ele>1445</ele>
        <time>2016-05-15T05:46:26.000Z</time>
      </trkpt>
      <trkpt lat="44.06786" lon="7.22861">
        <ele>1446</ele>
        <time>2016-05-15T05:46:30.000Z</time>
      </trkpt>
      <trkpt lat="44.06782" lon="7.22861">
        <ele>1446</ele>
        <time>2016-05-15T05:46:31.000Z</time>
      </trkpt>
      <trkpt lat="44.06764" lon="7.22853">
        <ele>1448</ele>
        <time>2016-05-15T05:46:36.000Z</time>
      </trkpt>
      <trkpt lat="44.06761" lon="7.22851">
        <ele>1448</ele>
        <time>2016-05-15T05:46:37.000Z</time>
      </trkpt>
      <trkpt lat="44.06745" lon="7.22841">
        <ele>1454</ele>
        <time>2016-05-15T05:46:42.000Z</time>
      </trkpt>
      <trkpt lat="44.06736" lon="7.22837">
        <ele>1455</ele>
        <time>2016-05-15T05:46:45.000Z</time>
      </trkpt>
      <trkpt lat="44.0673" lon="7.22833">
        <ele>1459</ele>
        <time>2016-05-15T05:46:47.000Z</time>
      </trkpt>
      <trkpt lat="44.06712" lon="7.22825">
        <ele>1462</ele>
        <time>2016-05-15T05:46:53.000Z</time>
      </trkpt>
      <trkpt lat="44.06701" lon="7.22818">
        <ele>1463</ele>
        <time>2016-05-15T05:46:58.000Z</time>
      </trkpt>
      <trkpt lat="44.06699" lon="7.22816">
        <ele>1463</ele>
        <time>2016-05-15T05:46:59.000Z</time>
      </trkpt>
      <trkpt lat="44.06687" lon="7.22811">
        <ele>1463</ele>
        <time>2016-05-15T05:47:04.000Z</time>
      </trkpt>
      <trkpt lat="44.06681" lon="7.22809">
        <ele>1464</ele>
        <time>2016-05-15T05:47:07.000Z</time>
      </trkpt>
      <trkpt lat="44.06677" lon="7.22807">
        <ele>1464</ele>
        <time>2016-05-15T05:47:09.000Z</time>
      </trkpt>
      <trkpt lat="44.06668" lon="7.22804">
        <ele>1464</ele>
        <time>2016-05-15T05:47:14.000Z</time>
      </trkpt>
      <trkpt lat="44.06667" lon="7.22804">
        <ele>1464</ele>
        <time>2016-05-15T05:47:15.000Z</time>
      </trkpt>
      <trkpt lat="44.06658" lon="7.22802">
        <ele>1468</ele>
        <time>2016-05-15T05:47:20.000Z</time>
      </trkpt>
      <trkpt lat="44.06653" lon="7.228">
        <ele>1468</ele>
        <time>2016-05-15T05:47:23.000Z</time>
      </trkpt>
      <trkpt lat="44.0665" lon="7.22798">
        <ele>1468</ele>
        <time>2016-05-15T05:47:25.000Z</time>
      </trkpt>
      <trkpt lat="44.06645" lon="7.22796">
        <ele>1469</ele>
        <time>2016-05-15T05:47:28.000Z</time>
      </trkpt>
      <trkpt lat="44.06641" lon="7.22794">
        <ele>1469</ele>
        <time>2016-05-15T05:47:30.000Z</time>
      </trkpt>
      <trkpt lat="44.06638" lon="7.22792">
        <ele>1470</ele>
        <time>2016-05-15T05:47:32.000Z</time>
      </trkpt>
      <trkpt lat="44.0663" lon="7.22788">
        <ele>1470</ele>
        <time>2016-05-15T05:47:37.000Z</time>
      </trkpt>
      <trkpt lat="44.06622" lon="7.22784">
        <ele>1470</ele>
        <time>2016-05-15T05:47:42.000Z</time>
      </trkpt>
      <trkpt lat="44.06619" lon="7.22782">
        <ele>1470</ele>
        <time>2016-05-15T05:47:44.000Z</time>
      </trkpt>
      <trkpt lat="44.06617" lon="7.2278">
        <ele>1471</ele>
        <time>2016-05-15T05:47:46.000Z</time>
      </trkpt>
      <trkpt lat="44.06612" lon="7.22776">
        <ele>1471</ele>
        <time>2016-05-15T05:47:50.000Z</time>
      </trkpt>
      <trkpt lat="44.0661" lon="7.22776">
        <ele>1471</ele>
        <time>2016-05-15T05:47:51.000Z</time>
      </trkpt>
      <trkpt lat="44.06606" lon="7.22773">
        <ele>1471</ele>
        <time>2016-05-15T05:47:54.000Z</time>
      </trkpt>
      <trkpt lat="44.06602" lon="7.2277">
        <ele>1470</ele>
        <time>2016-05-15T05:47:58.000Z</time>
      </trkpt>
      <trkpt lat="44.06597" lon="7.22768">
        <ele>1470</ele>
        <time>2016-05-15T05:48:01.000Z</time>
      </trkpt>
      <trkpt lat="44.06594" lon="7.22767">
        <ele>1470</ele>
        <time>2016-05-15T05:48:03.000Z</time>
      </trkpt>
      <trkpt lat="44.06586" lon="7.22763">
        <ele>1470</ele>
        <time>2016-05-15T05:48:09.000Z</time>
      </trkpt>
      <trkpt lat="44.0658" lon="7.2276">
        <ele>1475</ele>
        <time>2016-05-15T05:48:14.000Z</time>
      </trkpt>
      <trkpt lat="44.06576" lon="7.22759">
        <ele>1475</ele>
        <time>2016-05-15T05:48:17.000Z</time>
      </trkpt>
      <trkpt lat="44.06573" lon="7.22757">
        <ele>1476</ele>
        <time>2016-05-15T05:48:19.000Z</time>
      </trkpt>
      <trkpt lat="44.06567" lon="7.22754">
        <ele>1478</ele>
        <time>2016-05-15T05:48:24.000Z</time>
      </trkpt>
      <trkpt lat="44.06566" lon="7.22753">
        <ele>1478</ele>
        <time>2016-05-15T05:48:25.000Z</time>
      </trkpt>
      <trkpt lat="44.0656" lon="7.22749">
        <ele>1476</ele>
        <time>2016-05-15T05:48:30.000Z</time>
      </trkpt>
      <trkpt lat="44.06556" lon="7.22746">
        <ele>1476</ele>
        <time>2016-05-15T05:48:33.000Z</time>
      </trkpt>
      <trkpt lat="44.06553" lon="7.22745">
        <ele>1477</ele>
        <time>2016-05-15T05:48:35.000Z</time>
      </trkpt>
      <trkpt lat="44.06549" lon="7.22738">
        <ele>1478</ele>
        <time>2016-05-15T05:48:40.000Z</time>
      </trkpt>
      <trkpt lat="44.06547" lon="7.22736">
        <ele>1478</ele>
        <time>2016-05-15T05:48:41.000Z</time>
      </trkpt>
      <trkpt lat="44.06541" lon="7.22723">
        <ele>1479</ele>
        <time>2016-05-15T05:48:47.000Z</time>
      </trkpt>
      <trkpt lat="44.06539" lon="7.22718">
        <ele>1479</ele>
        <time>2016-05-15T05:48:49.000Z</time>
      </trkpt>
      <trkpt lat="44.06537" lon="7.22717">
        <ele>1479</ele>
        <time>2016-05-15T05:48:50.000Z</time>
      </trkpt>
      <trkpt lat="44.06532" lon="7.22711">
        <ele>1479</ele>
        <time>2016-05-15T05:48:53.000Z</time>
      </trkpt>
      <trkpt lat="44.06528" lon="7.22706">
        <ele>1479</ele>
        <time>2016-05-15T05:48:55.000Z</time>
      </trkpt>
      <trkpt lat="44.06515" lon="7.22694">
        <ele>1479</ele>
        <time>2016-05-15T05:49:02.000Z</time>
      </trkpt>
      <trkpt lat="44.06513" lon="7.22692">
        <ele>1479</ele>
        <time>2016-05-15T05:49:03.000Z</time>
      </trkpt>
      <trkpt lat="44.06501" lon="7.22678">
        <ele>1477</ele>
        <time>2016-05-15T05:49:10.000Z</time>
      </trkpt>
      <trkpt lat="44.06494" lon="7.22669">
        <ele>1480</ele>
        <time>2016-05-15T05:49:14.000Z</time>
      </trkpt>
      <trkpt lat="44.06488" lon="7.22658">
        <ele>1482</ele>
        <time>2016-05-15T05:49:19.000Z</time>
      </trkpt>
      <trkpt lat="44.06479" lon="7.22641">
        <ele>1486</ele>
        <time>2016-05-15T05:49:28.000Z</time>
      </trkpt>
      <trkpt lat="44.06476" lon="7.22635">
        <ele>1487</ele>
        <time>2016-05-15T05:49:32.000Z</time>
      </trkpt>
      <trkpt lat="44.06476" lon="7.22631">
        <ele>1487</ele>
        <time>2016-05-15T05:49:34.000Z</time>
      </trkpt>
      <trkpt lat="44.06475" lon="7.22628">
        <ele>1488</ele>
        <time>2016-05-15T05:49:36.000Z</time>
      </trkpt>
      <trkpt lat="44.06473" lon="7.22621">
        <ele>1488</ele>
        <time>2016-05-15T05:49:40.000Z</time>
      </trkpt>
      <trkpt lat="44.06471" lon="7.22615">
        <ele>1489</ele>
        <time>2016-05-15T05:49:43.000Z</time>
      </trkpt>
      <trkpt lat="44.0647" lon="7.22614">
        <ele>1489</ele>
        <time>2016-05-15T05:49:44.000Z</time>
      </trkpt>
      <trkpt lat="44.06469" lon="7.22608">
        <ele>1489</ele>
        <time>2016-05-15T05:49:47.000Z</time>
      </trkpt>
      <trkpt lat="44.06466" lon="7.22602">
        <ele>1489</ele>
        <time>2016-05-15T05:49:51.000Z</time>
      </trkpt>
      <trkpt lat="44.06464" lon="7.22595">
        <ele>1490</ele>
        <time>2016-05-15T05:49:55.000Z</time>
      </trkpt>
      <trkpt lat="44.06462" lon="7.22589">
        <ele>1490</ele>
        <time>2016-05-15T05:49:59.000Z</time>
      </trkpt>
      <trkpt lat="44.06461" lon="7.22587">
        <ele>1490</ele>
        <time>2016-05-15T05:50:01.000Z</time>
      </trkpt>
      <trkpt lat="44.06459" lon="7.22583">
        <ele>1497</ele>
        <time>2016-05-15T05:50:04.000Z</time>
      </trkpt>
      <trkpt lat="44.06456" lon="7.22576">
        <ele>1497</ele>
        <time>2016-05-15T05:50:09.000Z</time>
      </trkpt>
      <trkpt lat="44.06455" lon="7.22575">
        <ele>1497</ele>
        <time>2016-05-15T05:50:10.000Z</time>
      </trkpt>
      <trkpt lat="44.06452" lon="7.22569">
        <ele>1498</ele>
        <time>2016-05-15T05:50:14.000Z</time>
      </trkpt>
      <trkpt lat="44.06449" lon="7.22562">
        <ele>1498</ele>
        <time>2016-05-15T05:50:19.000Z</time>
      </trkpt>
      <trkpt lat="44.06448" lon="7.22559">
        <ele>1498</ele>
        <time>2016-05-15T05:50:21.000Z</time>
      </trkpt>
      <trkpt lat="44.06446" lon="7.22555">
        <ele>1499</ele>
        <time>2016-05-15T05:50:24.000Z</time>
      </trkpt>
      <trkpt lat="44.06443" lon="7.22546">
        <ele>1500</ele>
        <time>2016-05-15T05:50:29.000Z</time>
      </trkpt>
      <trkpt lat="44.06439" lon="7.22536">
        <ele>1500</ele>
        <time>2016-05-15T05:50:35.000Z</time>
      </trkpt>
      <trkpt lat="44.06436" lon="7.2253">
        <ele>1501</ele>
        <time>2016-05-15T05:50:39.000Z</time>
      </trkpt>
      <trkpt lat="44.06433" lon="7.22525">
        <ele>1501</ele>
        <time>2016-05-15T05:50:42.000Z</time>
      </trkpt>
      <trkpt lat="44.06428" lon="7.22518">
        <ele>1502</ele>
        <time>2016-05-15T05:50:47.000Z</time>
      </trkpt>
      <trkpt lat="44.06425" lon="7.22513">
        <ele>1503</ele>
        <time>2016-05-15T05:50:50.000Z</time>
      </trkpt>
      <trkpt lat="44.06422" lon="7.22504">
        <ele>1504</ele>
        <time>2016-05-15T05:50:55.000Z</time>
      </trkpt>
      <trkpt lat="44.06421" lon="7.22502">
        <ele>1504</ele>
        <time>2016-05-15T05:50:56.000Z</time>
      </trkpt>
      <trkpt lat="44.06417" lon="7.22492">
        <ele>1508</ele>
        <time>2016-05-15T05:51:02.000Z</time>
      </trkpt>
      <trkpt lat="44.06415" lon="7.22488">
        <ele>1509</ele>
        <time>2016-05-15T05:51:04.000Z</time>
      </trkpt>
      <trkpt lat="44.06412" lon="7.22481">
        <ele>1511</ele>
        <time>2016-05-15T05:51:08.000Z</time>
      </trkpt>
      <trkpt lat="44.0641" lon="7.22476">
        <ele>1512</ele>
        <time>2016-05-15T05:51:11.000Z</time>
      </trkpt>
      <trkpt lat="44.06408" lon="7.22468">
        <ele>1513</ele>
        <time>2016-05-15T05:51:15.000Z</time>
      </trkpt>
      <trkpt lat="44.06405" lon="7.22457">
        <ele>1514</ele>
        <time>2016-05-15T05:51:21.000Z</time>
      </trkpt>
      <trkpt lat="44.06402" lon="7.22447">
        <ele>1515</ele>
        <time>2016-05-15T05:51:26.000Z</time>
      </trkpt>
      <trkpt lat="44.06399" lon="7.22434">
        <ele>1515</ele>
        <time>2016-05-15T05:51:33.000Z</time>
      </trkpt>
      <trkpt lat="44.06396" lon="7.22424">
        <ele>1516</ele>
        <time>2016-05-15T05:51:38.000Z</time>
      </trkpt>
      <trkpt lat="44.06394" lon="7.22417">
        <ele>1516</ele>
        <time>2016-05-15T05:51:42.000Z</time>
      </trkpt>
      <trkpt lat="44.06393" lon="7.22415">
        <ele>1523</ele>
        <time>2016-05-15T05:51:43.000Z</time>
      </trkpt>
      <trkpt lat="44.06391" lon="7.22406">
        <ele>1524</ele>
        <time>2016-05-15T05:51:48.000Z</time>
      </trkpt>
      <trkpt lat="44.0639" lon="7.22401">
        <ele>1525</ele>
        <time>2016-05-15T05:51:51.000Z</time>
      </trkpt>
      <trkpt lat="44.0639" lon="7.22399">
        <ele>1525</ele>
        <time>2016-05-15T05:51:52.000Z</time>
      </trkpt>
      <trkpt lat="44.06388" lon="7.2239">
        <ele>1526</ele>
        <time>2016-05-15T05:51:57.000Z</time>
      </trkpt>
      <trkpt lat="44.06387" lon="7.22383">
        <ele>1527</ele>
        <time>2016-05-15T05:52:01.000Z</time>
      </trkpt>
      <trkpt lat="44.06386" lon="7.22374">
        <ele>1528</ele>
        <time>2016-05-15T05:52:06.000Z</time>
      </trkpt>
      <trkpt lat="44.06385" lon="7.22373">
        <ele>1528</ele>
        <time>2016-05-15T05:52:07.000Z</time>
      </trkpt>
      <trkpt lat="44.06385" lon="7.22369">
        <ele>1529</ele>
        <time>2016-05-15T05:52:09.000Z</time>
      </trkpt>
      <trkpt lat="44.06384" lon="7.22368">
        <ele>1529</ele>
        <time>2016-05-15T05:52:10.000Z</time>
      </trkpt>
      <trkpt lat="44.06383" lon="7.22361">
        <ele>1530</ele>
        <time>2016-05-15T05:52:14.000Z</time>
      </trkpt>
      <trkpt lat="44.06382" lon="7.22359">
        <ele>1530</ele>
        <time>2016-05-15T05:52:15.000Z</time>
      </trkpt>
      <trkpt lat="44.06381" lon="7.22355">
        <ele>1530</ele>
        <time>2016-05-15T05:52:18.000Z</time>
      </trkpt>
      <trkpt lat="44.06379" lon="7.22348">
        <ele>1531</ele>
        <time>2016-05-15T05:52:22.000Z</time>
      </trkpt>
      <trkpt lat="44.06379" lon="7.22347">
        <ele>1531</ele>
        <time>2016-05-15T05:52:23.000Z</time>
      </trkpt>
      <trkpt lat="44.06378" lon="7.22339">
        <ele>1531</ele>
        <time>2016-05-15T05:52:28.000Z</time>
      </trkpt>
      <trkpt lat="44.06377" lon="7.22337">
        <ele>1531</ele>
        <time>2016-05-15T05:52:29.000Z</time>
      </trkpt>
      <trkpt lat="44.06377" lon="7.22336">
        <ele>1531</ele>
        <time>2016-05-15T05:52:30.000Z</time>
      </trkpt>
      <trkpt lat="44.06376" lon="7.22333">
        <ele>1539</ele>
        <time>2016-05-15T05:52:32.000Z</time>
      </trkpt>
      <trkpt lat="44.06375" lon="7.22327">
        <ele>1539</ele>
        <time>2016-05-15T05:52:36.000Z</time>
      </trkpt>
      <trkpt lat="44.06374" lon="7.22325">
        <ele>1539</ele>
        <time>2016-05-15T05:52:37.000Z</time>
      </trkpt>
      <trkpt lat="44.06372" lon="7.22316">
        <ele>1540</ele>
        <time>2016-05-15T05:52:43.000Z</time>
      </trkpt>
      <trkpt lat="44.06371" lon="7.22311">
        <ele>1540</ele>
        <time>2016-05-15T05:52:46.000Z</time>
      </trkpt>
      <trkpt lat="44.0637" lon="7.22308">
        <ele>1540</ele>
        <time>2016-05-15T05:52:48.000Z</time>
      </trkpt>
      <trkpt lat="44.06368" lon="7.22298">
        <ele>1541</ele>
        <time>2016-05-15T05:52:54.000Z</time>
      </trkpt>
      <trkpt lat="44.06367" lon="7.22297">
        <ele>1541</ele>
        <time>2016-05-15T05:52:55.000Z</time>
      </trkpt>
      <trkpt lat="44.06365" lon="7.22289">
        <ele>1541</ele>
        <time>2016-05-15T05:53:00.000Z</time>
      </trkpt>
      <trkpt lat="44.06364" lon="7.22285">
        <ele>1541</ele>
        <time>2016-05-15T05:53:02.000Z</time>
      </trkpt>
      <trkpt lat="44.06362" lon="7.2228">
        <ele>1542</ele>
        <time>2016-05-15T05:53:05.000Z</time>
      </trkpt>
      <trkpt lat="44.06361" lon="7.22272">
        <ele>1542</ele>
        <time>2016-05-15T05:53:10.000Z</time>
      </trkpt>
      <trkpt lat="44.0636" lon="7.2227">
        <ele>1542</ele>
        <time>2016-05-15T05:53:11.000Z</time>
      </trkpt>
      <trkpt lat="44.06358" lon="7.22261">
        <ele>1542</ele>
        <time>2016-05-15T05:53:17.000Z</time>
      </trkpt>
      <trkpt lat="44.06357" lon="7.22258">
        <ele>1543</ele>
        <time>2016-05-15T05:53:19.000Z</time>
      </trkpt>
      <trkpt lat="44.06355" lon="7.2225">
        <ele>1543</ele>
        <time>2016-05-15T05:53:24.000Z</time>
      </trkpt>
      <trkpt lat="44.06354" lon="7.22244">
        <ele>1547</ele>
        <time>2016-05-15T05:53:28.000Z</time>
      </trkpt>
      <trkpt lat="44.06353" lon="7.22242">
        <ele>1547</ele>
        <time>2016-05-15T05:53:29.000Z</time>
      </trkpt>
      <trkpt lat="44.06351" lon="7.22235">
        <ele>1547</ele>
        <time>2016-05-15T05:53:34.000Z</time>
      </trkpt>
      <trkpt lat="44.0635" lon="7.22231">
        <ele>1547</ele>
        <time>2016-05-15T05:53:36.000Z</time>
      </trkpt>
      <trkpt lat="44.06349" lon="7.22226">
        <ele>1548</ele>
        <time>2016-05-15T05:53:39.000Z</time>
      </trkpt>
      <trkpt lat="44.06347" lon="7.2222">
        <ele>1548</ele>
        <time>2016-05-15T05:53:43.000Z</time>
      </trkpt>
      <trkpt lat="44.06347" lon="7.22218">
        <ele>1548</ele>
        <time>2016-05-15T05:53:44.000Z</time>
      </trkpt>
      <trkpt lat="44.06346" lon="7.2221">
        <ele>1548</ele>
        <time>2016-05-15T05:53:49.000Z</time>
      </trkpt>
      <trkpt lat="44.06345" lon="7.22204">
        <ele>1548</ele>
        <time>2016-05-15T05:53:53.000Z</time>
      </trkpt>
      <trkpt lat="44.06345" lon="7.22202">
        <ele>1548</ele>
        <time>2016-05-15T05:53:54.000Z</time>
      </trkpt>
      <trkpt lat="44.06344" lon="7.22194">
        <ele>1549</ele>
        <time>2016-05-15T05:53:59.000Z</time>
      </trkpt>
      <trkpt lat="44.06343" lon="7.22187">
        <ele>1549</ele>
        <time>2016-05-15T05:54:03.000Z</time>
      </trkpt>
      <trkpt lat="44.06343" lon="7.22186">
        <ele>1549</ele>
        <time>2016-05-15T05:54:04.000Z</time>
      </trkpt>
      <trkpt lat="44.06342" lon="7.22177">
        <ele>1549</ele>
        <time>2016-05-15T05:54:09.000Z</time>
      </trkpt>
      <trkpt lat="44.06342" lon="7.22176">
        <ele>1549</ele>
        <time>2016-05-15T05:54:10.000Z</time>
      </trkpt>
      <trkpt lat="44.06342" lon="7.22171">
        <ele>1548</ele>
        <time>2016-05-15T05:54:13.000Z</time>
      </trkpt>
      <trkpt lat="44.06341" lon="7.22162">
        <ele>1551</ele>
        <time>2016-05-15T05:54:18.000Z</time>
      </trkpt>
      <trkpt lat="44.06338" lon="7.22155">
        <ele>1552</ele>
        <time>2016-05-15T05:54:23.000Z</time>
      </trkpt>
      <trkpt lat="44.06338" lon="7.22152">
        <ele>1553</ele>
        <time>2016-05-15T05:54:25.000Z</time>
      </trkpt>
      <trkpt lat="44.06338" lon="7.22148">
        <ele>1554</ele>
        <time>2016-05-15T05:54:27.000Z</time>
      </trkpt>
      <trkpt lat="44.06337" lon="7.22141">
        <ele>1555</ele>
        <time>2016-05-15T05:54:31.000Z</time>
      </trkpt>
      <trkpt lat="44.06337" lon="7.2214">
        <ele>1555</ele>
        <time>2016-05-15T05:54:32.000Z</time>
      </trkpt>
      <trkpt lat="44.06336" lon="7.22134">
        <ele>1556</ele>
        <time>2016-05-15T05:54:35.000Z</time>
      </trkpt>
      <trkpt lat="44.06335" lon="7.22127">
        <ele>1556</ele>
        <time>2016-05-15T05:54:40.000Z</time>
      </trkpt>
      <trkpt lat="44.06334" lon="7.22123">
        <ele>1557</ele>
        <time>2016-05-15T05:54:42.000Z</time>
      </trkpt>
      <trkpt lat="44.06334" lon="7.22118">
        <ele>1557</ele>
        <time>2016-05-15T05:54:45.000Z</time>
      </trkpt>
      <trkpt lat="44.06333" lon="7.22115">
        <ele>1561</ele>
        <time>2016-05-15T05:54:49.000Z</time>
      </trkpt>
      <trkpt lat="44.06333" lon="7.22114">
        <ele>1561</ele>
        <time>2016-05-15T05:54:50.000Z</time>
      </trkpt>
      <trkpt lat="44.06332" lon="7.22105">
        <ele>1561</ele>
        <time>2016-05-15T05:54:58.000Z</time>
      </trkpt>
      <trkpt lat="44.06331" lon="7.221">
        <ele>1561</ele>
        <time>2016-05-15T05:55:04.000Z</time>
      </trkpt>
      <trkpt lat="44.0633" lon="7.22096">
        <ele>1560</ele>
        <time>2016-05-15T05:55:08.000Z</time>
      </trkpt>
      <trkpt lat="44.06329" lon="7.22095">
        <ele>1560</ele>
        <time>2016-05-15T05:55:09.000Z</time>
      </trkpt>
      <trkpt lat="44.06329" lon="7.22091">
        <ele>1559</ele>
        <time>2016-05-15T05:55:14.000Z</time>
      </trkpt>
      <trkpt lat="44.06328" lon="7.22088">
        <ele>1559</ele>
        <time>2016-05-15T05:55:17.000Z</time>
      </trkpt>
      <trkpt lat="44.06328" lon="7.22086">
        <ele>1559</ele>
        <time>2016-05-15T05:55:19.000Z</time>
      </trkpt>
      <trkpt lat="44.06327" lon="7.22083">
        <ele>1562</ele>
        <time>2016-05-15T05:55:23.000Z</time>
      </trkpt>
      <trkpt lat="44.06326" lon="7.22082">
        <ele>1563</ele>
        <time>2016-05-15T05:55:24.000Z</time>
      </trkpt>
      <trkpt lat="44.06326" lon="7.22081">
        <ele>1563</ele>
        <time>2016-05-15T05:55:25.000Z</time>
      </trkpt>
      <trkpt lat="44.06324" lon="7.22078">
        <ele>1565</ele>
        <time>2016-05-15T05:55:28.000Z</time>
      </trkpt>
      <trkpt lat="44.06322" lon="7.22075">
        <ele>1566</ele>
        <time>2016-05-15T05:55:32.000Z</time>
      </trkpt>
      <trkpt lat="44.0632" lon="7.22075">
        <ele>1567</ele>
        <time>2016-05-15T05:55:34.000Z</time>
      </trkpt>
      <trkpt lat="44.06319" lon="7.22075">
        <ele>1568</ele>
        <time>2016-05-15T05:55:35.000Z</time>
      </trkpt>
      <trkpt lat="44.06318" lon="7.22076">
        <ele>1568</ele>
        <time>2016-05-15T05:55:38.000Z</time>
      </trkpt>
      <trkpt lat="44.06317" lon="7.22076">
        <ele>1568</ele>
        <time>2016-05-15T05:55:39.000Z</time>
      </trkpt>
      <trkpt lat="44.06313" lon="7.2208">
        <ele>1569</ele>
        <time>2016-05-15T05:55:43.000Z</time>
      </trkpt>
      <trkpt lat="44.0631" lon="7.22083">
        <ele>1570</ele>
        <time>2016-05-15T05:55:45.000Z</time>
      </trkpt>
      <trkpt lat="44.06304" lon="7.22095">
        <ele>1564</ele>
        <time>2016-05-15T05:55:52.000Z</time>
      </trkpt>
      <trkpt lat="44.06296" lon="7.22106">
        <ele>1566</ele>
        <time>2016-05-15T05:56:00.000Z</time>
      </trkpt>
      <trkpt lat="44.06295" lon="7.22109">
        <ele>1566</ele>
        <time>2016-05-15T05:56:02.000Z</time>
      </trkpt>
      <trkpt lat="44.06292" lon="7.22113">
        <ele>1566</ele>
        <time>2016-05-15T05:56:05.000Z</time>
      </trkpt>
      <trkpt lat="44.06288" lon="7.22119">
        <ele>1567</ele>
        <time>2016-05-15T05:56:10.000Z</time>
      </trkpt>
      <trkpt lat="44.06284" lon="7.22128">
        <ele>1567</ele>
        <time>2016-05-15T05:56:16.000Z</time>
      </trkpt>
      <trkpt lat="44.0628" lon="7.22136">
        <ele>1567</ele>
        <time>2016-05-15T05:56:21.000Z</time>
      </trkpt>
      <trkpt lat="44.06278" lon="7.22139">
        <ele>1568</ele>
        <time>2016-05-15T05:56:24.000Z</time>
      </trkpt>
      <trkpt lat="44.06277" lon="7.2214">
        <ele>1568</ele>
        <time>2016-05-15T05:56:25.000Z</time>
      </trkpt>
      <trkpt lat="44.06274" lon="7.22145">
        <ele>1568</ele>
        <time>2016-05-15T05:56:29.000Z</time>
      </trkpt>
      <trkpt lat="44.06273" lon="7.22146">
        <ele>1569</ele>
        <time>2016-05-15T05:56:30.000Z</time>
      </trkpt>
      <trkpt lat="44.06272" lon="7.22148">
        <ele>1569</ele>
        <time>2016-05-15T05:56:31.000Z</time>
      </trkpt>
      <trkpt lat="44.06271" lon="7.2215">
        <ele>1569</ele>
        <time>2016-05-15T05:56:33.000Z</time>
      </trkpt>
      <trkpt lat="44.06267" lon="7.22157">
        <ele>1570</ele>
        <time>2016-05-15T05:56:38.000Z</time>
      </trkpt>
      <trkpt lat="44.06266" lon="7.22159">
        <ele>1571</ele>
        <time>2016-05-15T05:56:40.000Z</time>
      </trkpt>
      <trkpt lat="44.06264" lon="7.22162">
        <ele>1572</ele>
        <time>2016-05-15T05:56:42.000Z</time>
      </trkpt>
      <trkpt lat="44.06261" lon="7.22169">
        <ele>1571</ele>
        <time>2016-05-15T05:56:47.000Z</time>
      </trkpt>
      <trkpt lat="44.06261" lon="7.2217">
        <ele>1571</ele>
        <time>2016-05-15T05:56:48.000Z</time>
      </trkpt>
      <trkpt lat="44.06257" lon="7.22176">
        <ele>1571</ele>
        <time>2016-05-15T05:56:52.000Z</time>
      </trkpt>
      <trkpt lat="44.06254" lon="7.22181">
        <ele>1570</ele>
        <time>2016-05-15T05:56:56.000Z</time>
      </trkpt>
      <trkpt lat="44.06251" lon="7.22186">
        <ele>1569</ele>
        <time>2016-05-15T05:57:00.000Z</time>
      </trkpt>
      <trkpt lat="44.06248" lon="7.22191">
        <ele>1584</ele>
        <time>2016-05-15T05:57:04.000Z</time>
      </trkpt>
      <trkpt lat="44.06247" lon="7.22192">
        <ele>1585</ele>
        <time>2016-05-15T05:57:05.000Z</time>
      </trkpt>
      <trkpt lat="44.06242" lon="7.222">
        <ele>1586</ele>
        <time>2016-05-15T05:57:11.000Z</time>
      </trkpt>
      <trkpt lat="44.0624" lon="7.22204">
        <ele>1586</ele>
        <time>2016-05-15T05:57:14.000Z</time>
      </trkpt>
      <trkpt lat="44.06239" lon="7.22205">
        <ele>1586</ele>
        <time>2016-05-15T05:57:15.000Z</time>
      </trkpt>
      <trkpt lat="44.06235" lon="7.22212">
        <ele>1586</ele>
        <time>2016-05-15T05:57:20.000Z</time>
      </trkpt>
      <trkpt lat="44.06234" lon="7.22214">
        <ele>1586</ele>
        <time>2016-05-15T05:57:22.000Z</time>
      </trkpt>
      <trkpt lat="44.0623" lon="7.22219">
        <ele>1586</ele>
        <time>2016-05-15T05:57:26.000Z</time>
      </trkpt>
      <trkpt lat="44.06227" lon="7.22225">
        <ele>1586</ele>
        <time>2016-05-15T05:57:31.000Z</time>
      </trkpt>
      <trkpt lat="44.06226" lon="7.22226">
        <ele>1586</ele>
        <time>2016-05-15T05:57:32.000Z</time>
      </trkpt>
      <trkpt lat="44.06222" lon="7.22233">
        <ele>1587</ele>
        <time>2016-05-15T05:57:37.000Z</time>
      </trkpt>
      <trkpt lat="44.06219" lon="7.22236">
        <ele>1587</ele>
        <time>2016-05-15T05:57:40.000Z</time>
      </trkpt>
      <trkpt lat="44.06216" lon="7.2224">
        <ele>1587</ele>
        <time>2016-05-15T05:57:43.000Z</time>
      </trkpt>
      <trkpt lat="44.0621" lon="7.22248">
        <ele>1589</ele>
        <time>2016-05-15T05:57:50.000Z</time>
      </trkpt>
      <trkpt lat="44.06209" lon="7.22249">
        <ele>1589</ele>
        <time>2016-05-15T05:57:51.000Z</time>
      </trkpt>
      <trkpt lat="44.06203" lon="7.22254">
        <ele>1582</ele>
        <time>2016-05-15T05:57:56.000Z</time>
      </trkpt>
      <trkpt lat="44.06196" lon="7.2226">
        <ele>1584</ele>
        <time>2016-05-15T05:58:02.000Z</time>
      </trkpt>
      <trkpt lat="44.06189" lon="7.22264">
        <ele>1585</ele>
        <time>2016-05-15T05:58:08.000Z</time>
      </trkpt>
      <trkpt lat="44.06182" lon="7.22268">
        <ele>1586</ele>
        <time>2016-05-15T05:58:12.000Z</time>
      </trkpt>
      <trkpt lat="44.06177" lon="7.22269">
        <ele>1586</ele>
        <time>2016-05-15T05:58:14.000Z</time>
      </trkpt>
      <trkpt lat="44.06168" lon="7.22273">
        <ele>1586</ele>
        <time>2016-05-15T05:58:19.000Z</time>
      </trkpt>
      <trkpt lat="44.06167" lon="7.22273">
        <ele>1586</ele>
        <time>2016-05-15T05:58:20.000Z</time>
      </trkpt>
      <trkpt lat="44.06156" lon="7.22278">
        <ele>1599</ele>
        <time>2016-05-15T05:58:26.000Z</time>
      </trkpt>
      <trkpt lat="44.0615" lon="7.2228">
        <ele>1599</ele>
        <time>2016-05-15T05:58:30.000Z</time>
      </trkpt>
      <trkpt lat="44.06145" lon="7.22281">
        <ele>1599</ele>
        <time>2016-05-15T05:58:33.000Z</time>
      </trkpt>
      <trkpt lat="44.06137" lon="7.22285">
        <ele>1600</ele>
        <time>2016-05-15T05:58:38.000Z</time>
      </trkpt>
      <trkpt lat="44.06135" lon="7.22286">
        <ele>1600</ele>
        <time>2016-05-15T05:58:39.000Z</time>
      </trkpt>
      <trkpt lat="44.06127" lon="7.22291">
        <ele>1601</ele>
        <time>2016-05-15T05:58:44.000Z</time>
      </trkpt>
      <trkpt lat="44.0612" lon="7.22297">
        <ele>1601</ele>
        <time>2016-05-15T05:58:49.000Z</time>
      </trkpt>
      <trkpt lat="44.06113" lon="7.22304">
        <ele>1601</ele>
        <time>2016-05-15T05:58:54.000Z</time>
      </trkpt>
      <trkpt lat="44.06107" lon="7.22311">
        <ele>1602</ele>
        <time>2016-05-15T05:58:58.000Z</time>
      </trkpt>
      <trkpt lat="44.06101" lon="7.22324">
        <ele>1602</ele>
        <time>2016-05-15T05:59:04.000Z</time>
      </trkpt>
      <trkpt lat="44.06097" lon="7.22332">
        <ele>1602</ele>
        <time>2016-05-15T05:59:07.000Z</time>
      </trkpt>
      <trkpt lat="44.06094" lon="7.22339">
        <ele>1598</ele>
        <time>2016-05-15T05:59:10.000Z</time>
      </trkpt>
      <trkpt lat="44.06091" lon="7.22355">
        <ele>1596</ele>
        <time>2016-05-15T05:59:15.000Z</time>
      </trkpt>
      <trkpt lat="44.06087" lon="7.22366">
        <ele>1595</ele>
        <time>2016-05-15T05:59:19.000Z</time>
      </trkpt>
      <trkpt lat="44.06083" lon="7.22375">
        <ele>1614</ele>
        <time>2016-05-15T05:59:23.000Z</time>
      </trkpt>
      <trkpt lat="44.06081" lon="7.22381">
        <ele>1614</ele>
        <time>2016-05-15T05:59:25.000Z</time>
      </trkpt>
      <trkpt lat="44.06076" lon="7.22396">
        <ele>1612</ele>
        <time>2016-05-15T05:59:31.000Z</time>
      </trkpt>
      <trkpt lat="44.06075" lon="7.22399">
        <ele>1612</ele>
        <time>2016-05-15T05:59:32.000Z</time>
      </trkpt>
      <trkpt lat="44.06072" lon="7.22411">
        <ele>1610</ele>
        <time>2016-05-15T05:59:37.000Z</time>
      </trkpt>
      <trkpt lat="44.06069" lon="7.22421">
        <ele>1611</ele>
        <time>2016-05-15T05:59:41.000Z</time>
      </trkpt>
      <trkpt lat="44.06068" lon="7.22424">
        <ele>1612</ele>
        <time>2016-05-15T05:59:42.000Z</time>
      </trkpt>
      <trkpt lat="44.06066" lon="7.22435">
        <ele>1614</ele>
        <time>2016-05-15T05:59:47.000Z</time>
      </trkpt>
      <trkpt lat="44.06063" lon="7.22446">
        <ele>1615</ele>
        <time>2016-05-15T05:59:51.000Z</time>
      </trkpt>
      <trkpt lat="44.06062" lon="7.22453">
        <ele>1616</ele>
        <time>2016-05-15T05:59:54.000Z</time>
      </trkpt>
      <trkpt lat="44.06059" lon="7.22465">
        <ele>1616</ele>
        <time>2016-05-15T05:59:59.000Z</time>
      </trkpt>
      <trkpt lat="44.06058" lon="7.22468">
        <ele>1616</ele>
        <time>2016-05-15T06:00:00.000Z</time>
      </trkpt>
      <trkpt lat="44.06054" lon="7.22483">
        <ele>1616</ele>
        <time>2016-05-15T06:00:06.000Z</time>
      </trkpt>
      <trkpt lat="44.06051" lon="7.22497">
        <ele>1617</ele>
        <time>2016-05-15T06:00:11.000Z</time>
      </trkpt>
      <trkpt lat="44.0605" lon="7.22505">
        <ele>1618</ele>
        <time>2016-05-15T06:00:14.000Z</time>
      </trkpt>
      <trkpt lat="44.06046" lon="7.22528">
        <ele>1620</ele>
        <time>2016-05-15T06:00:22.000Z</time>
      </trkpt>
      <trkpt lat="44.06043" lon="7.22551">
        <ele>1621</ele>
        <time>2016-05-15T06:00:30.000Z</time>
      </trkpt>
      <trkpt lat="44.06043" lon="7.22559">
        <ele>1621</ele>
        <time>2016-05-15T06:00:33.000Z</time>
      </trkpt>
      <trkpt lat="44.06043" lon="7.2257">
        <ele>1621</ele>
        <time>2016-05-15T06:00:37.000Z</time>
      </trkpt>
      <trkpt lat="44.06042" lon="7.22585">
        <ele>1626</ele>
        <time>2016-05-15T06:00:43.000Z</time>
      </trkpt>
      <trkpt lat="44.06041" lon="7.22603">
        <ele>1627</ele>
        <time>2016-05-15T06:00:50.000Z</time>
      </trkpt>
      <trkpt lat="44.06041" lon="7.22612">
        <ele>1627</ele>
        <time>2016-05-15T06:00:54.000Z</time>
      </trkpt>
      <trkpt lat="44.06041" lon="7.22623">
        <ele>1628</ele>
        <time>2016-05-15T06:00:59.000Z</time>
      </trkpt>
      <trkpt lat="44.06041" lon="7.22625">
        <ele>1628</ele>
        <time>2016-05-15T06:01:00.000Z</time>
      </trkpt>
      <trkpt lat="44.06041" lon="7.22635">
        <ele>1628</ele>
        <time>2016-05-15T06:01:05.000Z</time>
      </trkpt>
      <trkpt lat="44.0604" lon="7.2264">
        <ele>1629</ele>
        <time>2016-05-15T06:01:07.000Z</time>
      </trkpt>
      <trkpt lat="44.0604" lon="7.22644">
        <ele>1629</ele>
        <time>2016-05-15T06:01:09.000Z</time>
      </trkpt>
      <trkpt lat="44.06041" lon="7.22657">
        <ele>1629</ele>
        <time>2016-05-15T06:01:15.000Z</time>
      </trkpt>
      <trkpt lat="44.06041" lon="7.22661">
        <ele>1630</ele>
        <time>2016-05-15T06:01:17.000Z</time>
      </trkpt>
      <trkpt lat="44.0604" lon="7.22667">
        <ele>1635</ele>
        <time>2016-05-15T06:01:20.000Z</time>
      </trkpt>
      <trkpt lat="44.0604" lon="7.22679">
        <ele>1635</ele>
        <time>2016-05-15T06:01:26.000Z</time>
      </trkpt>
      <trkpt lat="44.06039" lon="7.22681">
        <ele>1635</ele>
        <time>2016-05-15T06:01:27.000Z</time>
      </trkpt>
      <trkpt lat="44.0604" lon="7.22693">
        <ele>1635</ele>
        <time>2016-05-15T06:01:33.000Z</time>
      </trkpt>
      <trkpt lat="44.06039" lon="7.22697">
        <ele>1635</ele>
        <time>2016-05-15T06:01:35.000Z</time>
      </trkpt>
      <trkpt lat="44.06041" lon="7.22705">
        <ele>1635</ele>
        <time>2016-05-15T06:01:39.000Z</time>
      </trkpt>
      <trkpt lat="44.06043" lon="7.22715">
        <ele>1635</ele>
        <time>2016-05-15T06:01:44.000Z</time>
      </trkpt>
      <trkpt lat="44.06044" lon="7.22726">
        <ele>1635</ele>
        <time>2016-05-15T06:01:50.000Z</time>
      </trkpt>
      <trkpt lat="44.06044" lon="7.22731">
        <ele>1636</ele>
        <time>2016-05-15T06:01:53.000Z</time>
      </trkpt>
      <trkpt lat="44.06044" lon="7.2274">
        <ele>1636</ele>
        <time>2016-05-15T06:01:56.000Z</time>
      </trkpt>
      <trkpt lat="44.06044" lon="7.22751">
        <ele>1638</ele>
        <time>2016-05-15T06:02:01.000Z</time>
      </trkpt>
      <trkpt lat="44.06044" lon="7.22753">
        <ele>1638</ele>
        <time>2016-05-15T06:02:02.000Z</time>
      </trkpt>
      <trkpt lat="44.06045" lon="7.22759">
        <ele>1638</ele>
        <time>2016-05-15T06:02:05.000Z</time>
      </trkpt>
      <trkpt lat="44.06045" lon="7.22772">
        <ele>1638</ele>
        <time>2016-05-15T06:02:11.000Z</time>
      </trkpt>
      <trkpt lat="44.06045" lon="7.22779">
        <ele>1638</ele>
        <time>2016-05-15T06:02:14.000Z</time>
      </trkpt>
      <trkpt lat="44.06045" lon="7.22785">
        <ele>1638</ele>
        <time>2016-05-15T06:02:17.000Z</time>
      </trkpt>
      <trkpt lat="44.06045" lon="7.22796">
        <ele>1639</ele>
        <time>2016-05-15T06:02:23.000Z</time>
      </trkpt>
      <trkpt lat="44.06046" lon="7.22798">
        <ele>1639</ele>
        <time>2016-05-15T06:02:24.000Z</time>
      </trkpt>
      <trkpt lat="44.06046" lon="7.22806">
        <ele>1639</ele>
        <time>2016-05-15T06:02:29.000Z</time>
      </trkpt>
      <trkpt lat="44.06045" lon="7.2281">
        <ele>1639</ele>
        <time>2016-05-15T06:02:31.000Z</time>
      </trkpt>
      <trkpt lat="44.06042" lon="7.22811">
        <ele>1639</ele>
        <time>2016-05-15T06:02:34.000Z</time>
      </trkpt>
      <trkpt lat="44.06039" lon="7.22809">
        <ele>1639</ele>
        <time>2016-05-15T06:02:37.000Z</time>
      </trkpt>
      <trkpt lat="44.06039" lon="7.2281">
        <ele>1639</ele>
        <time>2016-05-15T06:02:38.000Z</time>
      </trkpt>
      <trkpt lat="44.06039" lon="7.22809">
        <ele>1639</ele>
        <time>2016-05-15T06:02:42.000Z</time>
      </trkpt>
      <trkpt lat="44.06036" lon="7.22807">
        <ele>1639</ele>
        <time>2016-05-15T06:02:49.000Z</time>
      </trkpt>
      <trkpt lat="44.06035" lon="7.22806">
        <ele>1639</ele>
        <time>2016-05-15T06:02:50.000Z</time>
      </trkpt>
      <trkpt lat="44.0603" lon="7.22801">
        <ele>1639</ele>
        <time>2016-05-15T06:02:56.000Z</time>
      </trkpt>
      <trkpt lat="44.06028" lon="7.228">
        <ele>1639</ele>
        <time>2016-05-15T06:02:58.000Z</time>
      </trkpt>
      <trkpt lat="44.06024" lon="7.22795">
        <ele>1639</ele>
        <time>2016-05-15T06:03:04.000Z</time>
      </trkpt>
      <trkpt lat="44.0602" lon="7.22791">
        <ele>1640</ele>
        <time>2016-05-15T06:03:09.000Z</time>
      </trkpt>
      <trkpt lat="44.06017" lon="7.22788">
        <ele>1640</ele>
        <time>2016-05-15T06:03:13.000Z</time>
      </trkpt>
      <trkpt lat="44.06016" lon="7.22787">
        <ele>1640</ele>
        <time>2016-05-15T06:03:14.000Z</time>
      </trkpt>
      <trkpt lat="44.06013" lon="7.22783">
        <ele>1640</ele>
        <time>2016-05-15T06:03:19.000Z</time>
      </trkpt>
      <trkpt lat="44.06011" lon="7.2278">
        <ele>1641</ele>
        <time>2016-05-15T06:03:23.000Z</time>
      </trkpt>
      <trkpt lat="44.06008" lon="7.22776">
        <ele>1641</ele>
        <time>2016-05-15T06:03:27.000Z</time>
      </trkpt>
      <trkpt lat="44.06005" lon="7.22772">
        <ele>1642</ele>
        <time>2016-05-15T06:03:31.000Z</time>
      </trkpt>
      <trkpt lat="44.06004" lon="7.22771">
        <ele>1642</ele>
        <time>2016-05-15T06:03:32.000Z</time>
      </trkpt>
      <trkpt lat="44.06001" lon="7.22766">
        <ele>1643</ele>
        <time>2016-05-15T06:03:37.000Z</time>
      </trkpt>
      <trkpt lat="44.05998" lon="7.22759">
        <ele>1644</ele>
        <time>2016-05-15T06:03:42.000Z</time>
      </trkpt>
      <trkpt lat="44.05997" lon="7.22756">
        <ele>1645</ele>
        <time>2016-05-15T06:03:46.000Z</time>
      </trkpt>
      <trkpt lat="44.05996" lon="7.22754">
        <ele>1645</ele>
        <time>2016-05-15T06:03:48.000Z</time>
      </trkpt>
      <trkpt lat="44.05994" lon="7.2275">
        <ele>1647</ele>
        <time>2016-05-15T06:03:51.000Z</time>
      </trkpt>
      <trkpt lat="44.05991" lon="7.22743">
        <ele>1648</ele>
        <time>2016-05-15T06:03:55.000Z</time>
      </trkpt>
      <trkpt lat="44.05989" lon="7.22739">
        <ele>1649</ele>
        <time>2016-05-15T06:03:57.000Z</time>
      </trkpt>
      <trkpt lat="44.05985" lon="7.22731">
        <ele>1649</ele>
        <time>2016-05-15T06:04:02.000Z</time>
      </trkpt>
      <trkpt lat="44.05984" lon="7.2273">
        <ele>1649</ele>
        <time>2016-05-15T06:04:03.000Z</time>
      </trkpt>
      <trkpt lat="44.05979" lon="7.22723">
        <ele>1650</ele>
        <time>2016-05-15T06:04:08.000Z</time>
      </trkpt>
      <trkpt lat="44.05977" lon="7.22718">
        <ele>1650</ele>
        <time>2016-05-15T06:04:11.000Z</time>
      </trkpt>
      <trkpt lat="44.05975" lon="7.22715">
        <ele>1650</ele>
        <time>2016-05-15T06:04:13.000Z</time>
      </trkpt>
      <trkpt lat="44.05972" lon="7.22708">
        <ele>1650</ele>
        <time>2016-05-15T06:04:17.000Z</time>
      </trkpt>
      <trkpt lat="44.05971" lon="7.22707">
        <ele>1650</ele>
        <time>2016-05-15T06:04:18.000Z</time>
      </trkpt>
      <trkpt lat="44.05966" lon="7.22698">
        <ele>1651</ele>
        <time>2016-05-15T06:04:24.000Z</time>
      </trkpt>
      <trkpt lat="44.05965" lon="7.22696">
        <ele>1651</ele>
        <time>2016-05-15T06:04:25.000Z</time>
      </trkpt>
      <trkpt lat="44.05962" lon="7.22691">
        <ele>1651</ele>
        <time>2016-05-15T06:04:29.000Z</time>
      </trkpt>
      <trkpt lat="44.05958" lon="7.22683">
        <ele>1652</ele>
        <time>2016-05-15T06:04:34.000Z</time>
      </trkpt>
      <trkpt lat="44.0595" lon="7.22675">
        <ele>1653</ele>
        <time>2016-05-15T06:04:41.000Z</time>
      </trkpt>
      <trkpt lat="44.05949" lon="7.22674">
        <ele>1654</ele>
        <time>2016-05-15T06:04:42.000Z</time>
      </trkpt>
      <trkpt lat="44.05943" lon="7.22669">
        <ele>1655</ele>
        <time>2016-05-15T06:04:47.000Z</time>
      </trkpt>
      <trkpt lat="44.05941" lon="7.22668">
        <ele>1655</ele>
        <time>2016-05-15T06:04:49.000Z</time>
      </trkpt>
      <trkpt lat="44.05937" lon="7.22666">
        <ele>1657</ele>
        <time>2016-05-15T06:04:53.000Z</time>
      </trkpt>
      <trkpt lat="44.0593" lon="7.22664">
        <ele>1659</ele>
        <time>2016-05-15T06:04:58.000Z</time>
      </trkpt>
      <trkpt lat="44.05929" lon="7.22663">
        <ele>1659</ele>
        <time>2016-05-15T06:04:59.000Z</time>
      </trkpt>
      <trkpt lat="44.05926" lon="7.22661">
        <ele>1659</ele>
        <time>2016-05-15T06:05:02.000Z</time>
      </trkpt>
      <trkpt lat="44.0592" lon="7.22657">
        <ele>1660</ele>
        <time>2016-05-15T06:05:06.000Z</time>
      </trkpt>
      <trkpt lat="44.05919" lon="7.22657">
        <ele>1660</ele>
        <time>2016-05-15T06:05:07.000Z</time>
      </trkpt>
      <trkpt lat="44.05918" lon="7.22656">
        <ele>1660</ele>
        <time>2016-05-15T06:05:09.000Z</time>
      </trkpt>
      <trkpt lat="44.05911" lon="7.2265">
        <ele>1661</ele>
        <time>2016-05-15T06:05:15.000Z</time>
      </trkpt>
      <trkpt lat="44.0591" lon="7.22649">
        <ele>1661</ele>
        <time>2016-05-15T06:05:16.000Z</time>
      </trkpt>
      <trkpt lat="44.05901" lon="7.22635">
        <ele>1660</ele>
        <time>2016-05-15T06:05:25.000Z</time>
      </trkpt>
      <trkpt lat="44.05892" lon="7.22619">
        <ele>1660</ele>
        <time>2016-05-15T06:05:34.000Z</time>
      </trkpt>
      <trkpt lat="44.05891" lon="7.22618">
        <ele>1660</ele>
        <time>2016-05-15T06:05:35.000Z</time>
      </trkpt>
      <trkpt lat="44.05886" lon="7.22606">
        <ele>1661</ele>
        <time>2016-05-15T06:05:41.000Z</time>
      </trkpt>
      <trkpt lat="44.05883" lon="7.22598">
        <ele>1661</ele>
        <time>2016-05-15T06:05:45.000Z</time>
      </trkpt>
      <trkpt lat="44.05878" lon="7.22587">
        <ele>1661</ele>
        <time>2016-05-15T06:05:51.000Z</time>
      </trkpt>
      <trkpt lat="44.05873" lon="7.22577">
        <ele>1668</ele>
        <time>2016-05-15T06:05:56.000Z</time>
      </trkpt>
      <trkpt lat="44.05871" lon="7.22574">
        <ele>1668</ele>
        <time>2016-05-15T06:05:58.000Z</time>
      </trkpt>
      <trkpt lat="44.05863" lon="7.22559">
        <ele>1669</ele>
        <time>2016-05-15T06:06:06.000Z</time>
      </trkpt>
      <trkpt lat="44.05862" lon="7.22556">
        <ele>1669</ele>
        <time>2016-05-15T06:06:07.000Z</time>
      </trkpt>
      <trkpt lat="44.05856" lon="7.22544">
        <ele>1671</ele>
        <time>2016-05-15T06:06:14.000Z</time>
      </trkpt>
      <trkpt lat="44.05849" lon="7.22533">
        <ele>1672</ele>
        <time>2016-05-15T06:06:20.000Z</time>
      </trkpt>
      <trkpt lat="44.05849" lon="7.22532">
        <ele>1673</ele>
        <time>2016-05-15T06:06:21.000Z</time>
      </trkpt>
      <trkpt lat="44.05845" lon="7.22525">
        <ele>1674</ele>
        <time>2016-05-15T06:06:25.000Z</time>
      </trkpt>
      <trkpt lat="44.05844" lon="7.22522">
        <ele>1675</ele>
        <time>2016-05-15T06:06:27.000Z</time>
      </trkpt>
      <trkpt lat="44.05841" lon="7.22517">
        <ele>1676</ele>
        <time>2016-05-15T06:06:30.000Z</time>
      </trkpt>
      <trkpt lat="44.05837" lon="7.2251">
        <ele>1679</ele>
        <time>2016-05-15T06:06:35.000Z</time>
      </trkpt>
      <trkpt lat="44.05834" lon="7.22499">
        <ele>1684</ele>
        <time>2016-05-15T06:06:40.000Z</time>
      </trkpt>
      <trkpt lat="44.05833" lon="7.22494">
        <ele>1684</ele>
        <time>2016-05-15T06:06:42.000Z</time>
      </trkpt>
      <trkpt lat="44.05832" lon="7.22487">
        <ele>1684</ele>
        <time>2016-05-15T06:06:45.000Z</time>
      </trkpt>
      <trkpt lat="44.05831" lon="7.22484">
        <ele>1684</ele>
        <time>2016-05-15T06:06:47.000Z</time>
      </trkpt>
      <trkpt lat="44.05832" lon="7.22482">
        <ele>1684</ele>
        <time>2016-05-15T06:06:48.000Z</time>
      </trkpt>
      <trkpt lat="44.0583" lon="7.22476">
        <ele>1685</ele>
        <time>2016-05-15T06:06:52.000Z</time>
      </trkpt>
      <trkpt lat="44.05829" lon="7.22472">
        <ele>1685</ele>
        <time>2016-05-15T06:06:54.000Z</time>
      </trkpt>
      <trkpt lat="44.05829" lon="7.2247">
        <ele>1685</ele>
        <time>2016-05-15T06:06:55.000Z</time>
      </trkpt>
      <trkpt lat="44.05829" lon="7.22468">
        <ele>1685</ele>
        <time>2016-05-15T06:06:56.000Z</time>
      </trkpt>
      <trkpt lat="44.05829" lon="7.2246">
        <ele>1686</ele>
        <time>2016-05-15T06:07:01.000Z</time>
      </trkpt>
      <trkpt lat="44.0583" lon="7.22454">
        <ele>1687</ele>
        <time>2016-05-15T06:07:05.000Z</time>
      </trkpt>
      <trkpt lat="44.05829" lon="7.22453">
        <ele>1687</ele>
        <time>2016-05-15T06:07:06.000Z</time>
      </trkpt>
      <trkpt lat="44.05829" lon="7.22451">
        <ele>1687</ele>
        <time>2016-05-15T06:07:07.000Z</time>
      </trkpt>
      <trkpt lat="44.0583" lon="7.22444">
        <ele>1688</ele>
        <time>2016-05-15T06:07:11.000Z</time>
      </trkpt>
      <trkpt lat="44.05831" lon="7.22436">
        <ele>1689</ele>
        <time>2016-05-15T06:07:16.000Z</time>
      </trkpt>
      <trkpt lat="44.05831" lon="7.2243">
        <ele>1690</ele>
        <time>2016-05-15T06:07:19.000Z</time>
      </trkpt>
      <trkpt lat="44.05833" lon="7.22422">
        <ele>1692</ele>
        <time>2016-05-15T06:07:24.000Z</time>
      </trkpt>
      <trkpt lat="44.05833" lon="7.22421">
        <ele>1692</ele>
        <time>2016-05-15T06:07:25.000Z</time>
      </trkpt>
      <trkpt lat="44.05834" lon="7.22414">
        <ele>1693</ele>
        <time>2016-05-15T06:07:29.000Z</time>
      </trkpt>
      <trkpt lat="44.05836" lon="7.22405">
        <ele>1691</ele>
        <time>2016-05-15T06:07:35.000Z</time>
      </trkpt>
      <trkpt lat="44.05836" lon="7.22402">
        <ele>1691</ele>
        <time>2016-05-15T06:07:37.000Z</time>
      </trkpt>
      <trkpt lat="44.05837" lon="7.22394">
        <ele>1691</ele>
        <time>2016-05-15T06:07:42.000Z</time>
      </trkpt>
      <trkpt lat="44.05838" lon="7.22392">
        <ele>1691</ele>
        <time>2016-05-15T06:07:43.000Z</time>
      </trkpt>
      <trkpt lat="44.05839" lon="7.22386">
        <ele>1691</ele>
        <time>2016-05-15T06:07:47.000Z</time>
      </trkpt>
      <trkpt lat="44.05841" lon="7.22376">
        <ele>1692</ele>
        <time>2016-05-15T06:07:53.000Z</time>
      </trkpt>
      <trkpt lat="44.05843" lon="7.22365">
        <ele>1694</ele>
        <time>2016-05-15T06:07:59.000Z</time>
      </trkpt>
      <trkpt lat="44.05843" lon="7.22361">
        <ele>1695</ele>
        <time>2016-05-15T06:08:01.000Z</time>
      </trkpt>
      <trkpt lat="44.05843" lon="7.22356">
        <ele>1696</ele>
        <time>2016-05-15T06:08:04.000Z</time>
      </trkpt>
      <trkpt lat="44.05844" lon="7.22346">
        <ele>1699</ele>
        <time>2016-05-15T06:08:10.000Z</time>
      </trkpt>
      <trkpt lat="44.05844" lon="7.22342">
        <ele>1700</ele>
        <time>2016-05-15T06:08:12.000Z</time>
      </trkpt>
      <trkpt lat="44.05845" lon="7.22335">
        <ele>1701</ele>
        <time>2016-05-15T06:08:16.000Z</time>
      </trkpt>
      <trkpt lat="44.05846" lon="7.22326">
        <ele>1704</ele>
        <time>2016-05-15T06:08:21.000Z</time>
      </trkpt>
      <trkpt lat="44.05847" lon="7.22325">
        <ele>1704</ele>
        <time>2016-05-15T06:08:22.000Z</time>
      </trkpt>
      <trkpt lat="44.05847" lon="7.22316">
        <ele>1703</ele>
        <time>2016-05-15T06:08:27.000Z</time>
      </trkpt>
      <trkpt lat="44.05848" lon="7.22311">
        <ele>1703</ele>
        <time>2016-05-15T06:08:30.000Z</time>
      </trkpt>
      <trkpt lat="44.05849" lon="7.22305">
        <ele>1702</ele>
        <time>2016-05-15T06:08:34.000Z</time>
      </trkpt>
      <trkpt lat="44.0585" lon="7.22294">
        <ele>1703</ele>
        <time>2016-05-15T06:08:40.000Z</time>
      </trkpt>
      <trkpt lat="44.05852" lon="7.22281">
        <ele>1704</ele>
        <time>2016-05-15T06:08:47.000Z</time>
      </trkpt>
      <trkpt lat="44.05852" lon="7.22277">
        <ele>1704</ele>
        <time>2016-05-15T06:08:49.000Z</time>
      </trkpt>
      <trkpt lat="44.05853" lon="7.22269">
        <ele>1705</ele>
        <time>2016-05-15T06:08:53.000Z</time>
      </trkpt>
      <trkpt lat="44.05854" lon="7.22266">
        <ele>1705</ele>
        <time>2016-05-15T06:08:55.000Z</time>
      </trkpt>
      <trkpt lat="44.05855" lon="7.22257">
        <ele>1706</ele>
        <time>2016-05-15T06:09:00.000Z</time>
      </trkpt>
      <trkpt lat="44.05855" lon="7.22247">
        <ele>1714</ele>
        <time>2016-05-15T06:09:05.000Z</time>
      </trkpt>
      <trkpt lat="44.05857" lon="7.22239">
        <ele>1713</ele>
        <time>2016-05-15T06:09:09.000Z</time>
      </trkpt>
      <trkpt lat="44.05858" lon="7.22233">
        <ele>1713</ele>
        <time>2016-05-15T06:09:12.000Z</time>
      </trkpt>
      <trkpt lat="44.05858" lon="7.22227">
        <ele>1713</ele>
        <time>2016-05-15T06:09:15.000Z</time>
      </trkpt>
      <trkpt lat="44.0586" lon="7.22217">
        <ele>1714</ele>
        <time>2016-05-15T06:09:20.000Z</time>
      </trkpt>
      <trkpt lat="44.0586" lon="7.22215">
        <ele>1714</ele>
        <time>2016-05-15T06:09:21.000Z</time>
      </trkpt>
      <trkpt lat="44.05862" lon="7.22201">
        <ele>1715</ele>
        <time>2016-05-15T06:09:28.000Z</time>
      </trkpt>
      <trkpt lat="44.05863" lon="7.22199">
        <ele>1715</ele>
        <time>2016-05-15T06:09:29.000Z</time>
      </trkpt>
      <trkpt lat="44.05863" lon="7.22192">
        <ele>1716</ele>
        <time>2016-05-15T06:09:33.000Z</time>
      </trkpt>
      <trkpt lat="44.05865" lon="7.22183">
        <ele>1716</ele>
        <time>2016-05-15T06:09:38.000Z</time>
      </trkpt>
      <trkpt lat="44.05866" lon="7.2218">
        <ele>1716</ele>
        <time>2016-05-15T06:09:40.000Z</time>
      </trkpt>
      <trkpt lat="44.05868" lon="7.22172">
        <ele>1716</ele>
        <time>2016-05-15T06:09:45.000Z</time>
      </trkpt>
      <trkpt lat="44.05869" lon="7.22169">
        <ele>1716</ele>
        <time>2016-05-15T06:09:47.000Z</time>
      </trkpt>
      <trkpt lat="44.05871" lon="7.22162">
        <ele>1725</ele>
        <time>2016-05-15T06:09:52.000Z</time>
      </trkpt>
      <trkpt lat="44.05872" lon="7.22159">
        <ele>1725</ele>
        <time>2016-05-15T06:09:54.000Z</time>
      </trkpt>
      <trkpt lat="44.05875" lon="7.22152">
        <ele>1725</ele>
        <time>2016-05-15T06:09:59.000Z</time>
      </trkpt>
      <trkpt lat="44.05876" lon="7.22146">
        <ele>1726</ele>
        <time>2016-05-15T06:10:03.000Z</time>
      </trkpt>
      <trkpt lat="44.05877" lon="7.22143">
        <ele>1726</ele>
        <time>2016-05-15T06:10:05.000Z</time>
      </trkpt>
      <trkpt lat="44.05881" lon="7.22131">
        <ele>1726</ele>
        <time>2016-05-15T06:10:13.000Z</time>
      </trkpt>
      <trkpt lat="44.05883" lon="7.22124">
        <ele>1727</ele>
        <time>2016-05-15T06:10:18.000Z</time>
      </trkpt>
      <trkpt lat="44.05886" lon="7.2212">
        <ele>1727</ele>
        <time>2016-05-15T06:10:21.000Z</time>
      </trkpt>
      <trkpt lat="44.05887" lon="7.22116">
        <ele>1727</ele>
        <time>2016-05-15T06:10:24.000Z</time>
      </trkpt>
      <trkpt lat="44.0589" lon="7.22105">
        <ele>1727</ele>
        <time>2016-05-15T06:10:31.000Z</time>
      </trkpt>
      <trkpt lat="44.0589" lon="7.22103">
        <ele>1728</ele>
        <time>2016-05-15T06:10:32.000Z</time>
      </trkpt>
      <trkpt lat="44.05893" lon="7.22093">
        <ele>1728</ele>
        <time>2016-05-15T06:10:38.000Z</time>
      </trkpt>
      <trkpt lat="44.05895" lon="7.22087">
        <ele>1728</ele>
        <time>2016-05-15T06:10:41.000Z</time>
      </trkpt>
      <trkpt lat="44.05895" lon="7.22086">
        <ele>1728</ele>
        <time>2016-05-15T06:10:42.000Z</time>
      </trkpt>
      <trkpt lat="44.05895" lon="7.22078">
        <ele>1736</ele>
        <time>2016-05-15T06:10:47.000Z</time>
      </trkpt>
      <trkpt lat="44.05895" lon="7.22076">
        <ele>1736</ele>
        <time>2016-05-15T06:10:48.000Z</time>
      </trkpt>
      <trkpt lat="44.0589" lon="7.2207">
        <ele>1738</ele>
        <time>2016-05-15T06:10:53.000Z</time>
      </trkpt>
      <trkpt lat="44.05889" lon="7.2207">
        <ele>1738</ele>
        <time>2016-05-15T06:10:54.000Z</time>
      </trkpt>
      <trkpt lat="44.05883" lon="7.22077">
        <ele>1738</ele>
        <time>2016-05-15T06:11:00.000Z</time>
      </trkpt>
      <trkpt lat="44.0588" lon="7.22082">
        <ele>1739</ele>
        <time>2016-05-15T06:11:03.000Z</time>
      </trkpt>
      <trkpt lat="44.05875" lon="7.2209">
        <ele>1730</ele>
        <time>2016-05-15T06:11:09.000Z</time>
      </trkpt>
      <trkpt lat="44.05874" lon="7.22092">
        <ele>1730</ele>
        <time>2016-05-15T06:11:11.000Z</time>
      </trkpt>
      <trkpt lat="44.05869" lon="7.22097">
        <ele>1731</ele>
        <time>2016-05-15T06:11:16.000Z</time>
      </trkpt>
      <trkpt lat="44.05867" lon="7.221">
        <ele>1731</ele>
        <time>2016-05-15T06:11:18.000Z</time>
      </trkpt>
      <trkpt lat="44.05859" lon="7.22108">
        <ele>1731</ele>
        <time>2016-05-15T06:11:27.000Z</time>
      </trkpt>
      <trkpt lat="44.05849" lon="7.22117">
        <ele>1731</ele>
        <time>2016-05-15T06:11:35.000Z</time>
      </trkpt>
      <trkpt lat="44.05848" lon="7.22118">
        <ele>1731</ele>
        <time>2016-05-15T06:11:36.000Z</time>
      </trkpt>
      <trkpt lat="44.05839" lon="7.22123">
        <ele>1731</ele>
        <time>2016-05-15T06:11:43.000Z</time>
      </trkpt>
      <trkpt lat="44.05838" lon="7.22125">
        <ele>1731</ele>
        <time>2016-05-15T06:11:44.000Z</time>
      </trkpt>
      <trkpt lat="44.05831" lon="7.22131">
        <ele>1739</ele>
        <time>2016-05-15T06:11:50.000Z</time>
      </trkpt>
      <trkpt lat="44.05825" lon="7.22135">
        <ele>1739</ele>
        <time>2016-05-15T06:11:54.000Z</time>
      </trkpt>
      <trkpt lat="44.05819" lon="7.2214">
        <ele>1738</ele>
        <time>2016-05-15T06:11:59.000Z</time>
      </trkpt>
      <trkpt lat="44.05813" lon="7.22144">
        <ele>1738</ele>
        <time>2016-05-15T06:12:03.000Z</time>
      </trkpt>
      <trkpt lat="44.05806" lon="7.2215">
        <ele>1739</ele>
        <time>2016-05-15T06:12:08.000Z</time>
      </trkpt>
      <trkpt lat="44.05803" lon="7.22152">
        <ele>1739</ele>
        <time>2016-05-15T06:12:10.000Z</time>
      </trkpt>
      <trkpt lat="44.05798" lon="7.22157">
        <ele>1739</ele>
        <time>2016-05-15T06:12:15.000Z</time>
      </trkpt>
      <trkpt lat="44.05794" lon="7.22162">
        <ele>1739</ele>
        <time>2016-05-15T06:12:19.000Z</time>
      </trkpt>
      <trkpt lat="44.05792" lon="7.22166">
        <ele>1740</ele>
        <time>2016-05-15T06:12:22.000Z</time>
      </trkpt>
      <trkpt lat="44.05786" lon="7.2217">
        <ele>1734</ele>
        <time>2016-05-15T06:12:27.000Z</time>
      </trkpt>
      <trkpt lat="44.05784" lon="7.22171">
        <ele>1735</ele>
        <time>2016-05-15T06:12:29.000Z</time>
      </trkpt>
      <trkpt lat="44.05778" lon="7.22171">
        <ele>1736</ele>
        <time>2016-05-15T06:12:35.000Z</time>
      </trkpt>
      <trkpt lat="44.05777" lon="7.2217">
        <ele>1736</ele>
        <time>2016-05-15T06:12:36.000Z</time>
      </trkpt>
      <trkpt lat="44.05774" lon="7.22164">
        <ele>1742</ele>
        <time>2016-05-15T06:12:41.000Z</time>
      </trkpt>
      <trkpt lat="44.05773" lon="7.2216">
        <ele>1742</ele>
        <time>2016-05-15T06:12:43.000Z</time>
      </trkpt>
      <trkpt lat="44.05772" lon="7.22149">
        <ele>1742</ele>
        <time>2016-05-15T06:12:49.000Z</time>
      </trkpt>
      <trkpt lat="44.05772" lon="7.22146">
        <ele>1742</ele>
        <time>2016-05-15T06:12:50.000Z</time>
      </trkpt>
      <trkpt lat="44.05772" lon="7.22137">
        <ele>1742</ele>
        <time>2016-05-15T06:12:55.000Z</time>
      </trkpt>
      <trkpt lat="44.05772" lon="7.22132">
        <ele>1742</ele>
        <time>2016-05-15T06:12:58.000Z</time>
      </trkpt>
      <trkpt lat="44.05772" lon="7.2213">
        <ele>1742</ele>
        <time>2016-05-15T06:12:59.000Z</time>
      </trkpt>
      <trkpt lat="44.05772" lon="7.22126">
        <ele>1742</ele>
        <time>2016-05-15T06:13:02.000Z</time>
      </trkpt>
      <trkpt lat="44.0577" lon="7.2212">
        <ele>1742</ele>
        <time>2016-05-15T06:13:06.000Z</time>
      </trkpt>
      <trkpt lat="44.0577" lon="7.22119">
        <ele>1743</ele>
        <time>2016-05-15T06:13:07.000Z</time>
      </trkpt>
      <trkpt lat="44.05769" lon="7.22116">
        <ele>1743</ele>
        <time>2016-05-15T06:13:09.000Z</time>
      </trkpt>
      <trkpt lat="44.0577" lon="7.22113">
        <ele>1743</ele>
        <time>2016-05-15T06:13:11.000Z</time>
      </trkpt>
      <trkpt lat="44.05771" lon="7.22111">
        <ele>1743</ele>
        <time>2016-05-15T06:13:12.000Z</time>
      </trkpt>
      <trkpt lat="44.05771" lon="7.22109">
        <ele>1743</ele>
        <time>2016-05-15T06:13:13.000Z</time>
      </trkpt>
      <trkpt lat="44.05772" lon="7.22106">
        <ele>1743</ele>
        <time>2016-05-15T06:13:15.000Z</time>
      </trkpt>
      <trkpt lat="44.05774" lon="7.221">
        <ele>1743</ele>
        <time>2016-05-15T06:13:19.000Z</time>
      </trkpt>
      <trkpt lat="44.05776" lon="7.22093">
        <ele>1743</ele>
        <time>2016-05-15T06:13:24.000Z</time>
      </trkpt>
      <trkpt lat="44.05778" lon="7.22087">
        <ele>1743</ele>
        <time>2016-05-15T06:13:28.000Z</time>
      </trkpt>
      <trkpt lat="44.05779" lon="7.22084">
        <ele>1743</ele>
        <time>2016-05-15T06:13:30.000Z</time>
      </trkpt>
      <trkpt lat="44.05781" lon="7.22075">
        <ele>1748</ele>
        <time>2016-05-15T06:13:36.000Z</time>
      </trkpt>
      <trkpt lat="44.05781" lon="7.22074">
        <ele>1748</ele>
        <time>2016-05-15T06:13:37.000Z</time>
      </trkpt>
      <trkpt lat="44.05784" lon="7.22067">
        <ele>1749</ele>
        <time>2016-05-15T06:13:42.000Z</time>
      </trkpt>
      <trkpt lat="44.05785" lon="7.22064">
        <ele>1749</ele>
        <time>2016-05-15T06:13:44.000Z</time>
      </trkpt>
      <trkpt lat="44.05787" lon="7.22056">
        <ele>1749</ele>
        <time>2016-05-15T06:13:49.000Z</time>
      </trkpt>
      <trkpt lat="44.05789" lon="7.22049">
        <ele>1749</ele>
        <time>2016-05-15T06:13:53.000Z</time>
      </trkpt>
      <trkpt lat="44.0579" lon="7.22046">
        <ele>1749</ele>
        <time>2016-05-15T06:13:55.000Z</time>
      </trkpt>
      <trkpt lat="44.05792" lon="7.22032">
        <ele>1750</ele>
        <time>2016-05-15T06:14:01.000Z</time>
      </trkpt>
      <trkpt lat="44.05793" lon="7.22031">
        <ele>1750</ele>
        <time>2016-05-15T06:14:02.000Z</time>
      </trkpt>
      <trkpt lat="44.05792" lon="7.22022">
        <ele>1751</ele>
        <time>2016-05-15T06:14:06.000Z</time>
      </trkpt>
      <trkpt lat="44.05792" lon="7.22017">
        <ele>1751</ele>
        <time>2016-05-15T06:14:08.000Z</time>
      </trkpt>
      <trkpt lat="44.05792" lon="7.21991">
        <ele>1755</ele>
        <time>2016-05-15T06:14:14.000Z</time>
      </trkpt>
      <trkpt lat="44.05787" lon="7.21948">
        <ele>1755</ele>
        <time>2016-05-15T06:14:21.000Z</time>
      </trkpt>
      <trkpt lat="44.05785" lon="7.21921">
        <ele>1755</ele>
        <time>2016-05-15T06:14:24.000Z</time>
      </trkpt>
      <trkpt lat="44.05781" lon="7.21901">
        <ele>1759</ele>
        <time>2016-05-15T06:14:26.000Z</time>
      </trkpt>
      <trkpt lat="44.05779" lon="7.21892">
        <ele>1760</ele>
        <time>2016-05-15T06:14:27.000Z</time>
      </trkpt>
      <trkpt lat="44.05776" lon="7.21882">
        <ele>1760</ele>
        <time>2016-05-15T06:14:28.000Z</time>
      </trkpt>
      <trkpt lat="44.05768" lon="7.21863">
        <ele>1761</ele>
        <time>2016-05-15T06:14:30.000Z</time>
      </trkpt>
      <trkpt lat="44.05764" lon="7.21854">
        <ele>1760</ele>
        <time>2016-05-15T06:14:31.000Z</time>
      </trkpt>
      <trkpt lat="44.05759" lon="7.21845">
        <ele>1759</ele>
        <time>2016-05-15T06:14:32.000Z</time>
      </trkpt>
      <trkpt lat="44.05754" lon="7.21837">
        <ele>1757</ele>
        <time>2016-05-15T06:14:33.000Z</time>
      </trkpt>
      <trkpt lat="44.05744" lon="7.21822">
        <ele>1751</ele>
        <time>2016-05-15T06:14:35.000Z</time>
      </trkpt>
      <trkpt lat="44.05739" lon="7.21814">
        <ele>1749</ele>
        <time>2016-05-15T06:14:36.000Z</time>
      </trkpt>
      <trkpt lat="44.05731" lon="7.21796">
        <ele>1747</ele>
        <time>2016-05-15T06:14:38.000Z</time>
      </trkpt>
      <trkpt lat="44.05723" lon="7.2178">
        <ele>1747</ele>
        <time>2016-05-15T06:14:40.000Z</time>
      </trkpt>
      <trkpt lat="44.05717" lon="7.21775">
        <ele>1746</ele>
        <time>2016-05-15T06:14:41.000Z</time>
      </trkpt>
      <trkpt lat="44.05705" lon="7.21762">
        <ele>1745</ele>
        <time>2016-05-15T06:14:43.000Z</time>
      </trkpt>
      <trkpt lat="44.05685" lon="7.21746">
        <ele>1743</ele>
        <time>2016-05-15T06:14:46.000Z</time>
      </trkpt>
      <trkpt lat="44.05672" lon="7.21737">
        <ele>1742</ele>
        <time>2016-05-15T06:14:48.000Z</time>
      </trkpt>
      <trkpt lat="44.05666" lon="7.21728">
        <ele>1735</ele>
        <time>2016-05-15T06:14:49.000Z</time>
      </trkpt>
      <trkpt lat="44.05661" lon="7.21719">
        <ele>1734</ele>
        <time>2016-05-15T06:14:50.000Z</time>
      </trkpt>
      <trkpt lat="44.05657" lon="7.2171">
        <ele>1734</ele>
        <time>2016-05-15T06:14:51.000Z</time>
      </trkpt>
      <trkpt lat="44.05654" lon="7.21701">
        <ele>1734</ele>
        <time>2016-05-15T06:14:52.000Z</time>
      </trkpt>
      <trkpt lat="44.05652" lon="7.21694">
        <ele>1734</ele>
        <time>2016-05-15T06:14:53.000Z</time>
      </trkpt>
      <trkpt lat="44.05649" lon="7.21686">
        <ele>1735</ele>
        <time>2016-05-15T06:14:54.000Z</time>
      </trkpt>
      <trkpt lat="44.05646" lon="7.21678">
        <ele>1735</ele>
        <time>2016-05-15T06:14:55.000Z</time>
      </trkpt>
      <trkpt lat="44.05643" lon="7.21671">
        <ele>1735</ele>
        <time>2016-05-15T06:14:56.000Z</time>
      </trkpt>
      <trkpt lat="44.0564" lon="7.21665">
        <ele>1737</ele>
        <time>2016-05-15T06:14:57.000Z</time>
      </trkpt>
      <trkpt lat="44.05637" lon="7.2166">
        <ele>1737</ele>
        <time>2016-05-15T06:14:58.000Z</time>
      </trkpt>
      <trkpt lat="44.05628" lon="7.21649">
        <ele>1736</ele>
        <time>2016-05-15T06:15:00.000Z</time>
      </trkpt>
      <trkpt lat="44.05617" lon="7.21639">
        <ele>1736</ele>
        <time>2016-05-15T06:15:02.000Z</time>
      </trkpt>
      <trkpt lat="44.05611" lon="7.21636">
        <ele>1736</ele>
        <time>2016-05-15T06:15:03.000Z</time>
      </trkpt>
      <trkpt lat="44.05604" lon="7.21635">
        <ele>1736</ele>
        <time>2016-05-15T06:15:04.000Z</time>
      </trkpt>
      <trkpt lat="44.05597" lon="7.21635">
        <ele>1735</ele>
        <time>2016-05-15T06:15:05.000Z</time>
      </trkpt>
      <trkpt lat="44.05586" lon="7.21634">
        <ele>1735</ele>
        <time>2016-05-15T06:15:07.000Z</time>
      </trkpt>
      <trkpt lat="44.05582" lon="7.21631">
        <ele>1733</ele>
        <time>2016-05-15T06:15:10.000Z</time>
      </trkpt>
      <trkpt lat="44.05582" lon="7.21631">
        <ele>1733</ele>
        <time>2016-05-15T06:15:14.000Z</time>
      </trkpt>
      <trkpt lat="44.0558" lon="7.2163">
        <ele>1734</ele>
        <time>2016-05-15T06:15:16.000Z</time>
      </trkpt>
      <trkpt lat="44.05576" lon="7.21628">
        <ele>1734</ele>
        <time>2016-05-15T06:15:23.000Z</time>
      </trkpt>
      <trkpt lat="44.0557" lon="7.21626">
        <ele>1734</ele>
        <time>2016-05-15T06:15:28.000Z</time>
      </trkpt>
      <trkpt lat="44.0556" lon="7.21622">
        <ele>1734</ele>
        <time>2016-05-15T06:15:33.000Z</time>
      </trkpt>
      <trkpt lat="44.05546" lon="7.21622">
        <ele>1733</ele>
        <time>2016-05-15T06:15:36.000Z</time>
      </trkpt>
      <trkpt lat="44.05542" lon="7.2162">
        <ele>1733</ele>
        <time>2016-05-15T06:15:37.000Z</time>
      </trkpt>
      <trkpt lat="44.05536" lon="7.21619">
        <ele>1733</ele>
        <time>2016-05-15T06:15:38.000Z</time>
      </trkpt>
      <trkpt lat="44.05525" lon="7.21617">
        <ele>1733</ele>
        <time>2016-05-15T06:15:40.000Z</time>
      </trkpt>
      <trkpt lat="44.05514" lon="7.21615">
        <ele>1733</ele>
        <time>2016-05-15T06:15:42.000Z</time>
      </trkpt>
      <trkpt lat="44.05499" lon="7.21613">
        <ele>1728</ele>
        <time>2016-05-15T06:15:45.000Z</time>
      </trkpt>
      <trkpt lat="44.05483" lon="7.2161">
        <ele>1727</ele>
        <time>2016-05-15T06:15:49.000Z</time>
      </trkpt>
      <trkpt lat="44.05454" lon="7.21605">
        <ele>1725</ele>
        <time>2016-05-15T06:15:56.000Z</time>
      </trkpt>
      <trkpt lat="44.05432" lon="7.21602">
        <ele>1724</ele>
        <time>2016-05-15T06:16:00.000Z</time>
      </trkpt>
      <trkpt lat="44.05427" lon="7.21602">
        <ele>1724</ele>
        <time>2016-05-15T06:16:01.000Z</time>
      </trkpt>
      <trkpt lat="44.05417" lon="7.216">
        <ele>1725</ele>
        <time>2016-05-15T06:16:03.000Z</time>
      </trkpt>
      <trkpt lat="44.05411" lon="7.21598">
        <ele>1719</ele>
        <time>2016-05-15T06:16:04.000Z</time>
      </trkpt>
      <trkpt lat="44.05403" lon="7.21594">
        <ele>1718</ele>
        <time>2016-05-15T06:16:06.000Z</time>
      </trkpt>
      <trkpt lat="44.054" lon="7.21592">
        <ele>1717</ele>
        <time>2016-05-15T06:16:07.000Z</time>
      </trkpt>
      <trkpt lat="44.05387" lon="7.21582">
        <ele>1721</ele>
        <time>2016-05-15T06:16:11.000Z</time>
      </trkpt>
      <trkpt lat="44.05376" lon="7.21575">
        <ele>1719</ele>
        <time>2016-05-15T06:16:14.000Z</time>
      </trkpt>
      <trkpt lat="44.0537" lon="7.21573">
        <ele>1718</ele>
        <time>2016-05-15T06:16:16.000Z</time>
      </trkpt>
      <trkpt lat="44.05364" lon="7.21569">
        <ele>1717</ele>
        <time>2016-05-15T06:16:18.000Z</time>
      </trkpt>
      <trkpt lat="44.05358" lon="7.21564">
        <ele>1716</ele>
        <time>2016-05-15T06:16:20.000Z</time>
      </trkpt>
      <trkpt lat="44.05354" lon="7.21557">
        <ele>1716</ele>
        <time>2016-05-15T06:16:22.000Z</time>
      </trkpt>
      <trkpt lat="44.0535" lon="7.21549">
        <ele>1717</ele>
        <time>2016-05-15T06:16:24.000Z</time>
      </trkpt>
      <trkpt lat="44.05348" lon="7.21545">
        <ele>1717</ele>
        <time>2016-05-15T06:16:25.000Z</time>
      </trkpt>
      <trkpt lat="44.05344" lon="7.21537">
        <ele>1717</ele>
        <time>2016-05-15T06:16:28.000Z</time>
      </trkpt>
      <trkpt lat="44.05343" lon="7.21534">
        <ele>1717</ele>
        <time>2016-05-15T06:16:29.000Z</time>
      </trkpt>
      <trkpt lat="44.05341" lon="7.21529">
        <ele>1716</ele>
        <time>2016-05-15T06:16:30.000Z</time>
      </trkpt>
      <trkpt lat="44.05336" lon="7.21521">
        <ele>1715</ele>
        <time>2016-05-15T06:16:32.000Z</time>
      </trkpt>
      <trkpt lat="44.05334" lon="7.21517">
        <ele>1715</ele>
        <time>2016-05-15T06:16:33.000Z</time>
      </trkpt>
      <trkpt lat="44.05333" lon="7.21514">
        <ele>1703</ele>
        <time>2016-05-15T06:16:34.000Z</time>
      </trkpt>
      <trkpt lat="44.05322" lon="7.21491">
        <ele>1704</ele>
        <time>2016-05-15T06:16:40.000Z</time>
      </trkpt>
      <trkpt lat="44.05314" lon="7.21473">
        <ele>1700</ele>
        <time>2016-05-15T06:16:44.000Z</time>
      </trkpt>
      <trkpt lat="44.05312" lon="7.21469">
        <ele>1700</ele>
        <time>2016-05-15T06:16:45.000Z</time>
      </trkpt>
      <trkpt lat="44.05312" lon="7.21466">
        <ele>1700</ele>
        <time>2016-05-15T06:16:46.000Z</time>
      </trkpt>
      <trkpt lat="44.05311" lon="7.2146">
        <ele>1700</ele>
        <time>2016-05-15T06:16:48.000Z</time>
      </trkpt>
      <trkpt lat="44.05311" lon="7.21458">
        <ele>1700</ele>
        <time>2016-05-15T06:16:49.000Z</time>
      </trkpt>
      <trkpt lat="44.05312" lon="7.21457">
        <ele>1700</ele>
        <time>2016-05-15T06:16:50.000Z</time>
      </trkpt>
      <trkpt lat="44.05312" lon="7.21451">
        <ele>1700</ele>
        <time>2016-05-15T06:16:53.000Z</time>
      </trkpt>
      <trkpt lat="44.05312" lon="7.21448">
        <ele>1701</ele>
        <time>2016-05-15T06:16:54.000Z</time>
      </trkpt>
      <trkpt lat="44.05314" lon="7.21439">
        <ele>1702</ele>
        <time>2016-05-15T06:16:59.000Z</time>
      </trkpt>
      <trkpt lat="44.05311" lon="7.21425">
        <ele>1703</ele>
        <time>2016-05-15T06:17:03.000Z</time>
      </trkpt>
      <trkpt lat="44.05304" lon="7.21405">
        <ele>1706</ele>
        <time>2016-05-15T06:17:09.000Z</time>
      </trkpt>
      <trkpt lat="44.05304" lon="7.21393">
        <ele>1706</ele>
        <time>2016-05-15T06:17:14.000Z</time>
      </trkpt>
      <trkpt lat="44.05303" lon="7.21383">
        <ele>1706</ele>
        <time>2016-05-15T06:17:19.000Z</time>
      </trkpt>
      <trkpt lat="44.05301" lon="7.21367">
        <ele>1706</ele>
        <time>2016-05-15T06:17:27.000Z</time>
      </trkpt>
      <trkpt lat="44.05298" lon="7.21353">
        <ele>1707</ele>
        <time>2016-05-15T06:17:34.000Z</time>
      </trkpt>
      <trkpt lat="44.05298" lon="7.2135">
        <ele>1707</ele>
        <time>2016-05-15T06:17:35.000Z</time>
      </trkpt>
      <trkpt lat="44.05296" lon="7.21333">
        <ele>1711</ele>
        <time>2016-05-15T06:17:41.000Z</time>
      </trkpt>
      <trkpt lat="44.05296" lon="7.2133">
        <ele>1711</ele>
        <time>2016-05-15T06:17:44.000Z</time>
      </trkpt>
      <trkpt lat="44.05296" lon="7.21328">
        <ele>1711</ele>
        <time>2016-05-15T06:17:45.000Z</time>
      </trkpt>
      <trkpt lat="44.05293" lon="7.21316">
        <ele>1711</ele>
        <time>2016-05-15T06:17:50.000Z</time>
      </trkpt>
      <trkpt lat="44.05285" lon="7.21298">
        <ele>1710</ele>
        <time>2016-05-15T06:17:57.000Z</time>
      </trkpt>
      <trkpt lat="44.05278" lon="7.21287">
        <ele>1710</ele>
        <time>2016-05-15T06:18:03.000Z</time>
      </trkpt>
      <trkpt lat="44.05276" lon="7.21284">
        <ele>1710</ele>
        <time>2016-05-15T06:18:05.000Z</time>
      </trkpt>
      <trkpt lat="44.0527" lon="7.21276">
        <ele>1710</ele>
        <time>2016-05-15T06:18:09.000Z</time>
      </trkpt>
      <trkpt lat="44.05265" lon="7.21265">
        <ele>1711</ele>
        <time>2016-05-15T06:18:14.000Z</time>
      </trkpt>
      <trkpt lat="44.05263" lon="7.21262">
        <ele>1711</ele>
        <time>2016-05-15T06:18:16.000Z</time>
      </trkpt>
      <trkpt lat="44.05261" lon="7.2126">
        <ele>1711</ele>
        <time>2016-05-15T06:18:18.000Z</time>
      </trkpt>
      <trkpt lat="44.05256" lon="7.21253">
        <ele>1711</ele>
        <time>2016-05-15T06:18:23.000Z</time>
      </trkpt>
      <trkpt lat="44.05253" lon="7.21247">
        <ele>1710</ele>
        <time>2016-05-15T06:18:26.000Z</time>
      </trkpt>
      <trkpt lat="44.05248" lon="7.21241">
        <ele>1710</ele>
        <time>2016-05-15T06:18:29.000Z</time>
      </trkpt>
      <trkpt lat="44.05246" lon="7.2124">
        <ele>1709</ele>
        <time>2016-05-15T06:18:30.000Z</time>
      </trkpt>
      <trkpt lat="44.05236" lon="7.2123">
        <ele>1708</ele>
        <time>2016-05-15T06:18:35.000Z</time>
      </trkpt>
      <trkpt lat="44.05233" lon="7.21226">
        <ele>1708</ele>
        <time>2016-05-15T06:18:37.000Z</time>
      </trkpt>
      <trkpt lat="44.05228" lon="7.2122">
        <ele>1708</ele>
        <time>2016-05-15T06:18:40.000Z</time>
      </trkpt>
      <trkpt lat="44.05217" lon="7.21205">
        <ele>1708</ele>
        <time>2016-05-15T06:18:46.000Z</time>
      </trkpt>
      <trkpt lat="44.05211" lon="7.21187">
        <ele>1708</ele>
        <time>2016-05-15T06:18:52.000Z</time>
      </trkpt>
      <trkpt lat="44.05208" lon="7.21164">
        <ele>1711</ele>
        <time>2016-05-15T06:18:57.000Z</time>
      </trkpt>
      <trkpt lat="44.05207" lon="7.21147">
        <ele>1711</ele>
        <time>2016-05-15T06:19:02.000Z</time>
      </trkpt>
      <trkpt lat="44.05207" lon="7.21142">
        <ele>1711</ele>
        <time>2016-05-15T06:19:05.000Z</time>
      </trkpt>
      <trkpt lat="44.05206" lon="7.21139">
        <ele>1711</ele>
        <time>2016-05-15T06:19:07.000Z</time>
      </trkpt>
      <trkpt lat="44.05206" lon="7.21137">
        <ele>1711</ele>
        <time>2016-05-15T06:19:09.000Z</time>
      </trkpt>
      <trkpt lat="44.05203" lon="7.21129">
        <ele>1712</ele>
        <time>2016-05-15T06:19:12.000Z</time>
      </trkpt>
      <trkpt lat="44.052" lon="7.21122">
        <ele>1713</ele>
        <time>2016-05-15T06:19:15.000Z</time>
      </trkpt>
      <trkpt lat="44.05199" lon="7.2112">
        <ele>1713</ele>
        <time>2016-05-15T06:19:16.000Z</time>
      </trkpt>
      <trkpt lat="44.05198" lon="7.21115">
        <ele>1713</ele>
        <time>2016-05-15T06:19:19.000Z</time>
      </trkpt>
      <trkpt lat="44.05197" lon="7.21113">
        <ele>1713</ele>
        <time>2016-05-15T06:19:21.000Z</time>
      </trkpt>
      <trkpt lat="44.05195" lon="7.21106">
        <ele>1714</ele>
        <time>2016-05-15T06:19:26.000Z</time>
      </trkpt>
      <trkpt lat="44.05187" lon="7.21097">
        <ele>1718</ele>
        <time>2016-05-15T06:19:30.000Z</time>
      </trkpt>
      <trkpt lat="44.05184" lon="7.21092">
        <ele>1720</ele>
        <time>2016-05-15T06:19:34.000Z</time>
      </trkpt>
      <trkpt lat="44.05184" lon="7.21088">
        <ele>1720</ele>
        <time>2016-05-15T06:19:37.000Z</time>
      </trkpt>
      <trkpt lat="44.05184" lon="7.21087">
        <ele>1720</ele>
        <time>2016-05-15T06:19:38.000Z</time>
      </trkpt>
      <trkpt lat="44.0518" lon="7.2107">
        <ele>1722</ele>
        <time>2016-05-15T06:19:42.000Z</time>
      </trkpt>
      <trkpt lat="44.05183" lon="7.21059">
        <ele>1719</ele>
        <time>2016-05-15T06:19:45.000Z</time>
      </trkpt>
      <trkpt lat="44.05185" lon="7.21052">
        <ele>1719</ele>
        <time>2016-05-15T06:19:47.000Z</time>
      </trkpt>
      <trkpt lat="44.05186" lon="7.21043">
        <ele>1718</ele>
        <time>2016-05-15T06:19:49.000Z</time>
      </trkpt>
      <trkpt lat="44.05194" lon="7.21031">
        <ele>1717</ele>
        <time>2016-05-15T06:19:53.000Z</time>
      </trkpt>
      <trkpt lat="44.05196" lon="7.21029">
        <ele>1717</ele>
        <time>2016-05-15T06:19:54.000Z</time>
      </trkpt>
      <trkpt lat="44.05202" lon="7.21022">
        <ele>1715</ele>
        <time>2016-05-15T06:19:58.000Z</time>
      </trkpt>
      <trkpt lat="44.05205" lon="7.21017">
        <ele>1715</ele>
        <time>2016-05-15T06:20:00.000Z</time>
      </trkpt>
      <trkpt lat="44.05209" lon="7.21006">
        <ele>1713</ele>
        <time>2016-05-15T06:20:03.000Z</time>
      </trkpt>
      <trkpt lat="44.05209" lon="7.21002">
        <ele>1713</ele>
        <time>2016-05-15T06:20:04.000Z</time>
      </trkpt>
      <trkpt lat="44.05209" lon="7.20992">
        <ele>1717</ele>
        <time>2016-05-15T06:20:07.000Z</time>
      </trkpt>
      <trkpt lat="44.05209" lon="7.20988">
        <ele>1717</ele>
        <time>2016-05-15T06:20:08.000Z</time>
      </trkpt>
      <trkpt lat="44.05204" lon="7.20975">
        <ele>1719</ele>
        <time>2016-05-15T06:20:12.000Z</time>
      </trkpt>
      <trkpt lat="44.05201" lon="7.20965">
        <ele>1721</ele>
        <time>2016-05-15T06:20:15.000Z</time>
      </trkpt>
      <trkpt lat="44.05202" lon="7.20961">
        <ele>1720</ele>
        <time>2016-05-15T06:20:16.000Z</time>
      </trkpt>
      <trkpt lat="44.05201" lon="7.20958">
        <ele>1721</ele>
        <time>2016-05-15T06:20:17.000Z</time>
      </trkpt>
      <trkpt lat="44.05195" lon="7.20952">
        <ele>1723</ele>
        <time>2016-05-15T06:20:20.000Z</time>
      </trkpt>
      <trkpt lat="44.05198" lon="7.20946">
        <ele>1723</ele>
        <time>2016-05-15T06:20:23.000Z</time>
      </trkpt>
      <trkpt lat="44.05202" lon="7.20941">
        <ele>1722</ele>
        <time>2016-05-15T06:20:25.000Z</time>
      </trkpt>
      <trkpt lat="44.05202" lon="7.20939">
        <ele>1722</ele>
        <time>2016-05-15T06:20:26.000Z</time>
      </trkpt>
      <trkpt lat="44.05202" lon="7.20935">
        <ele>1722</ele>
        <time>2016-05-15T06:20:27.000Z</time>
      </trkpt>
      <trkpt lat="44.05205" lon="7.20924">
        <ele>1722</ele>
        <time>2016-05-15T06:20:30.000Z</time>
      </trkpt>
      <trkpt lat="44.05208" lon="7.20918">
        <ele>1720</ele>
        <time>2016-05-15T06:20:32.000Z</time>
      </trkpt>
      <trkpt lat="44.05213" lon="7.20903">
        <ele>1727</ele>
        <time>2016-05-15T06:20:37.000Z</time>
      </trkpt>
      <trkpt lat="44.05211" lon="7.20901">
        <ele>1728</ele>
        <time>2016-05-15T06:20:39.000Z</time>
      </trkpt>
      <trkpt lat="44.05213" lon="7.209">
        <ele>1727</ele>
        <time>2016-05-15T06:20:41.000Z</time>
      </trkpt>
      <trkpt lat="44.0522" lon="7.20896">
        <ele>1725</ele>
        <time>2016-05-15T06:20:46.000Z</time>
      </trkpt>
      <trkpt lat="44.05219" lon="7.20897">
        <ele>1725</ele>
        <time>2016-05-15T06:20:47.000Z</time>
      </trkpt>
      <trkpt lat="44.05224" lon="7.20892">
        <ele>1724</ele>
        <time>2016-05-15T06:20:50.000Z</time>
      </trkpt>
      <trkpt lat="44.05225" lon="7.20889">
        <ele>1724</ele>
        <time>2016-05-15T06:20:51.000Z</time>
      </trkpt>
      <trkpt lat="44.05228" lon="7.20885">
        <ele>1724</ele>
        <time>2016-05-15T06:20:53.000Z</time>
      </trkpt>
      <trkpt lat="44.05231" lon="7.20884">
        <ele>1724</ele>
        <time>2016-05-15T06:20:54.000Z</time>
      </trkpt>
      <trkpt lat="44.05238" lon="7.20884">
        <ele>1722</ele>
        <time>2016-05-15T06:20:56.000Z</time>
      </trkpt>
      <trkpt lat="44.05249" lon="7.20882">
        <ele>1721</ele>
        <time>2016-05-15T06:20:58.000Z</time>
      </trkpt>
      <trkpt lat="44.05258" lon="7.20881">
        <ele>1692</ele>
        <time>2016-05-15T06:21:00.000Z</time>
      </trkpt>
      <trkpt lat="44.05262" lon="7.2088">
        <ele>1691</ele>
        <time>2016-05-15T06:21:03.000Z</time>
      </trkpt>
      <trkpt lat="44.05265" lon="7.2088">
        <ele>1690</ele>
        <time>2016-05-15T06:21:04.000Z</time>
      </trkpt>
      <trkpt lat="44.05269" lon="7.2088">
        <ele>1690</ele>
        <time>2016-05-15T06:21:08.000Z</time>
      </trkpt>
      <trkpt lat="44.05271" lon="7.20879">
        <ele>1689</ele>
        <time>2016-05-15T06:21:09.000Z</time>
      </trkpt>
      <trkpt lat="44.05276" lon="7.20875">
        <ele>1688</ele>
        <time>2016-05-15T06:21:14.000Z</time>
      </trkpt>
      <trkpt lat="44.05278" lon="7.20871">
        <ele>1688</ele>
        <time>2016-05-15T06:21:15.000Z</time>
      </trkpt>
      <trkpt lat="44.0528" lon="7.20864">
        <ele>1689</ele>
        <time>2016-05-15T06:21:17.000Z</time>
      </trkpt>
      <trkpt lat="44.0528" lon="7.20839">
        <ele>1692</ele>
        <time>2016-05-15T06:21:24.000Z</time>
      </trkpt>
      <trkpt lat="44.05278" lon="7.20805">
        <ele>1697</ele>
        <time>2016-05-15T06:21:32.000Z</time>
      </trkpt>
      <trkpt lat="44.05278" lon="7.20778">
        <ele>1699</ele>
        <time>2016-05-15T06:21:37.000Z</time>
      </trkpt>
      <trkpt lat="44.05278" lon="7.20766">
        <ele>1700</ele>
        <time>2016-05-15T06:21:39.000Z</time>
      </trkpt>
      <trkpt lat="44.0528" lon="7.20748">
        <ele>1703</ele>
        <time>2016-05-15T06:21:42.000Z</time>
      </trkpt>
      <trkpt lat="44.05282" lon="7.20735">
        <ele>1701</ele>
        <time>2016-05-15T06:21:44.000Z</time>
      </trkpt>
      <trkpt lat="44.05292" lon="7.20711">
        <ele>1697</ele>
        <time>2016-05-15T06:21:48.000Z</time>
      </trkpt>
      <trkpt lat="44.05301" lon="7.20699">
        <ele>1694</ele>
        <time>2016-05-15T06:21:50.000Z</time>
      </trkpt>
      <trkpt lat="44.05304" lon="7.20693">
        <ele>1693</ele>
        <time>2016-05-15T06:21:51.000Z</time>
      </trkpt>
      <trkpt lat="44.05311" lon="7.20681">
        <ele>1689</ele>
        <time>2016-05-15T06:21:53.000Z</time>
      </trkpt>
      <trkpt lat="44.05314" lon="7.20669">
        <ele>1687</ele>
        <time>2016-05-15T06:21:55.000Z</time>
      </trkpt>
      <trkpt lat="44.05314" lon="7.20662">
        <ele>1684</ele>
        <time>2016-05-15T06:21:56.000Z</time>
      </trkpt>
      <trkpt lat="44.05311" lon="7.20644">
        <ele>1687</ele>
        <time>2016-05-15T06:21:59.000Z</time>
      </trkpt>
      <trkpt lat="44.05308" lon="7.20638">
        <ele>1688</ele>
        <time>2016-05-15T06:22:00.000Z</time>
      </trkpt>
      <trkpt lat="44.05306" lon="7.20633">
        <ele>1688</ele>
        <time>2016-05-15T06:22:01.000Z</time>
      </trkpt>
      <trkpt lat="44.05301" lon="7.20623">
        <ele>1689</ele>
        <time>2016-05-15T06:22:03.000Z</time>
      </trkpt>
      <trkpt lat="44.05298" lon="7.20619">
        <ele>1689</ele>
        <time>2016-05-15T06:22:04.000Z</time>
      </trkpt>
      <trkpt lat="44.05295" lon="7.20615">
        <ele>1690</ele>
        <time>2016-05-15T06:22:05.000Z</time>
      </trkpt>
      <trkpt lat="44.05283" lon="7.20603">
        <ele>1692</ele>
        <time>2016-05-15T06:22:09.000Z</time>
      </trkpt>
      <trkpt lat="44.0528" lon="7.206">
        <ele>1693</ele>
        <time>2016-05-15T06:22:10.000Z</time>
      </trkpt>
      <trkpt lat="44.05266" lon="7.20583">
        <ele>1688</ele>
        <time>2016-05-15T06:22:15.000Z</time>
      </trkpt>
      <trkpt lat="44.05258" lon="7.20573">
        <ele>1689</ele>
        <time>2016-05-15T06:22:18.000Z</time>
      </trkpt>
      <trkpt lat="44.05253" lon="7.2057">
        <ele>1689</ele>
        <time>2016-05-15T06:22:19.000Z</time>
      </trkpt>
      <trkpt lat="44.0524" lon="7.20555">
        <ele>1701</ele>
        <time>2016-05-15T06:22:23.000Z</time>
      </trkpt>
      <trkpt lat="44.05235" lon="7.2055">
        <ele>1701</ele>
        <time>2016-05-15T06:22:24.000Z</time>
      </trkpt>
      <trkpt lat="44.05228" lon="7.2054">
        <ele>1700</ele>
        <time>2016-05-15T06:22:26.000Z</time>
      </trkpt>
      <trkpt lat="44.05215" lon="7.20527">
        <ele>1700</ele>
        <time>2016-05-15T06:22:29.000Z</time>
      </trkpt>
      <trkpt lat="44.05204" lon="7.20513">
        <ele>1701</ele>
        <time>2016-05-15T06:22:32.000Z</time>
      </trkpt>
      <trkpt lat="44.05201" lon="7.20509">
        <ele>1701</ele>
        <time>2016-05-15T06:22:33.000Z</time>
      </trkpt>
      <trkpt lat="44.05195" lon="7.20498">
        <ele>1685</ele>
        <time>2016-05-15T06:22:35.000Z</time>
      </trkpt>
      <trkpt lat="44.05191" lon="7.20495">
        <ele>1687</ele>
        <time>2016-05-15T06:22:36.000Z</time>
      </trkpt>
      <trkpt lat="44.05185" lon="7.20489">
        <ele>1688</ele>
        <time>2016-05-15T06:22:38.000Z</time>
      </trkpt>
      <trkpt lat="44.05174" lon="7.20483">
        <ele>1690</ele>
        <time>2016-05-15T06:22:41.000Z</time>
      </trkpt>
      <trkpt lat="44.05172" lon="7.20479">
        <ele>1689</ele>
        <time>2016-05-15T06:22:42.000Z</time>
      </trkpt>
      <trkpt lat="44.05169" lon="7.20476">
        <ele>1688</ele>
        <time>2016-05-15T06:22:43.000Z</time>
      </trkpt>
      <trkpt lat="44.0516" lon="7.20466">
        <ele>1706</ele>
        <time>2016-05-15T06:22:46.000Z</time>
      </trkpt>
      <trkpt lat="44.05154" lon="7.2046">
        <ele>1706</ele>
        <time>2016-05-15T06:22:48.000Z</time>
      </trkpt>
      <trkpt lat="44.05152" lon="7.20455">
        <ele>1705</ele>
        <time>2016-05-15T06:22:49.000Z</time>
      </trkpt>
      <trkpt lat="44.0515" lon="7.20441">
        <ele>1702</ele>
        <time>2016-05-15T06:22:51.000Z</time>
      </trkpt>
      <trkpt lat="44.05151" lon="7.20428">
        <ele>1697</ele>
        <time>2016-05-15T06:22:53.000Z</time>
      </trkpt>
      <trkpt lat="44.0515" lon="7.20422">
        <ele>1696</ele>
        <time>2016-05-15T06:22:54.000Z</time>
      </trkpt>
      <trkpt lat="44.05146" lon="7.20412">
        <ele>1687</ele>
        <time>2016-05-15T06:22:56.000Z</time>
      </trkpt>
      <trkpt lat="44.05141" lon="7.204">
        <ele>1688</ele>
        <time>2016-05-15T06:22:58.000Z</time>
      </trkpt>
      <trkpt lat="44.05137" lon="7.20387">
        <ele>1689</ele>
        <time>2016-05-15T06:23:00.000Z</time>
      </trkpt>
      <trkpt lat="44.05136" lon="7.20381">
        <ele>1689</ele>
        <time>2016-05-15T06:23:01.000Z</time>
      </trkpt>
      <trkpt lat="44.05132" lon="7.20357">
        <ele>1687</ele>
        <time>2016-05-15T06:23:05.000Z</time>
      </trkpt>
      <trkpt lat="44.05131" lon="7.20351">
        <ele>1687</ele>
        <time>2016-05-15T06:23:06.000Z</time>
      </trkpt>
      <trkpt lat="44.05128" lon="7.20329">
        <ele>1678</ele>
        <time>2016-05-15T06:23:10.000Z</time>
      </trkpt>
      <trkpt lat="44.05124" lon="7.20317">
        <ele>1679</ele>
        <time>2016-05-15T06:23:12.000Z</time>
      </trkpt>
      <trkpt lat="44.0512" lon="7.20305">
        <ele>1679</ele>
        <time>2016-05-15T06:23:14.000Z</time>
      </trkpt>
      <trkpt lat="44.05118" lon="7.20298">
        <ele>1679</ele>
        <time>2016-05-15T06:23:15.000Z</time>
      </trkpt>
      <trkpt lat="44.05107" lon="7.2026">
        <ele>1682</ele>
        <time>2016-05-15T06:23:20.000Z</time>
      </trkpt>
      <trkpt lat="44.05104" lon="7.20252">
        <ele>1684</ele>
        <time>2016-05-15T06:23:21.000Z</time>
      </trkpt>
      <trkpt lat="44.05095" lon="7.20229">
        <ele>1677</ele>
        <time>2016-05-15T06:23:24.000Z</time>
      </trkpt>
      <trkpt lat="44.05088" lon="7.20205">
        <ele>1674</ele>
        <time>2016-05-15T06:23:27.000Z</time>
      </trkpt>
      <trkpt lat="44.05087" lon="7.20196">
        <ele>1674</ele>
        <time>2016-05-15T06:23:28.000Z</time>
      </trkpt>
      <trkpt lat="44.05083" lon="7.20169">
        <ele>1687</ele>
        <time>2016-05-15T06:23:31.000Z</time>
      </trkpt>
      <trkpt lat="44.05081" lon="7.2016">
        <ele>1688</ele>
        <time>2016-05-15T06:23:32.000Z</time>
      </trkpt>
      <trkpt lat="44.05067" lon="7.20111">
        <ele>1692</ele>
        <time>2016-05-15T06:23:38.000Z</time>
      </trkpt>
      <trkpt lat="44.05066" lon="7.20102">
        <ele>1690</ele>
        <time>2016-05-15T06:23:39.000Z</time>
      </trkpt>
      <trkpt lat="44.05063" lon="7.20075">
        <ele>1685</ele>
        <time>2016-05-15T06:23:42.000Z</time>
      </trkpt>
      <trkpt lat="44.05062" lon="7.20056">
        <ele>1687</ele>
        <time>2016-05-15T06:23:44.000Z</time>
      </trkpt>
      <trkpt lat="44.05062" lon="7.20046">
        <ele>1688</ele>
        <time>2016-05-15T06:23:45.000Z</time>
      </trkpt>
      <trkpt lat="44.05063" lon="7.20025">
        <ele>1686</ele>
        <time>2016-05-15T06:23:47.000Z</time>
      </trkpt>
      <trkpt lat="44.05064" lon="7.20004">
        <ele>1683</ele>
        <time>2016-05-15T06:23:49.000Z</time>
      </trkpt>
      <trkpt lat="44.05064" lon="7.19962">
        <ele>1688</ele>
        <time>2016-05-15T06:23:53.000Z</time>
      </trkpt>
      <trkpt lat="44.05065" lon="7.19951">
        <ele>1687</ele>
        <time>2016-05-15T06:23:54.000Z</time>
      </trkpt>
      <trkpt lat="44.05065" lon="7.19939">
        <ele>1686</ele>
        <time>2016-05-15T06:23:55.000Z</time>
      </trkpt>
      <trkpt lat="44.05066" lon="7.19928">
        <ele>1684</ele>
        <time>2016-05-15T06:23:56.000Z</time>
      </trkpt>
      <trkpt lat="44.05065" lon="7.1989">
        <ele>1689</ele>
        <time>2016-05-15T06:24:00.000Z</time>
      </trkpt>
      <trkpt lat="44.05065" lon="7.19874">
        <ele>1690</ele>
        <time>2016-05-15T06:24:01.000Z</time>
      </trkpt>
      <trkpt lat="44.05066" lon="7.19863">
        <ele>1689</ele>
        <time>2016-05-15T06:24:02.000Z</time>
      </trkpt>
      <trkpt lat="44.05067" lon="7.19841">
        <ele>1685</ele>
        <time>2016-05-15T06:24:04.000Z</time>
      </trkpt>
      <trkpt lat="44.05068" lon="7.19831">
        <ele>1685</ele>
        <time>2016-05-15T06:24:05.000Z</time>
      </trkpt>
      <trkpt lat="44.05074" lon="7.198">
        <ele>1691</ele>
        <time>2016-05-15T06:24:08.000Z</time>
      </trkpt>
      <trkpt lat="44.05075" lon="7.19789">
        <ele>1691</ele>
        <time>2016-05-15T06:24:09.000Z</time>
      </trkpt>
      <trkpt lat="44.05074" lon="7.19758">
        <ele>1684</ele>
        <time>2016-05-15T06:24:12.000Z</time>
      </trkpt>
      <trkpt lat="44.05072" lon="7.1975">
        <ele>1685</ele>
        <time>2016-05-15T06:24:13.000Z</time>
      </trkpt>
      <trkpt lat="44.0507" lon="7.19734">
        <ele>1691</ele>
        <time>2016-05-15T06:24:15.000Z</time>
      </trkpt>
      <trkpt lat="44.05072" lon="7.19726">
        <ele>1693</ele>
        <time>2016-05-15T06:24:16.000Z</time>
      </trkpt>
      <trkpt lat="44.05074" lon="7.19719">
        <ele>1694</ele>
        <time>2016-05-15T06:24:17.000Z</time>
      </trkpt>
      <trkpt lat="44.05078" lon="7.19707">
        <ele>1695</ele>
        <time>2016-05-15T06:24:19.000Z</time>
      </trkpt>
      <trkpt lat="44.05085" lon="7.19693">
        <ele>1661</ele>
        <time>2016-05-15T06:24:21.000Z</time>
      </trkpt>
      <trkpt lat="44.05088" lon="7.19685">
        <ele>1663</ele>
        <time>2016-05-15T06:24:22.000Z</time>
      </trkpt>
      <trkpt lat="44.0509" lon="7.19677">
        <ele>1666</ele>
        <time>2016-05-15T06:24:23.000Z</time>
      </trkpt>
      <trkpt lat="44.05098" lon="7.19639">
        <ele>1659</ele>
        <time>2016-05-15T06:24:27.000Z</time>
      </trkpt>
      <trkpt lat="44.05093" lon="7.196">
        <ele>1664</ele>
        <time>2016-05-15T06:24:31.000Z</time>
      </trkpt>
      <trkpt lat="44.0509" lon="7.19567">
        <ele>1662</ele>
        <time>2016-05-15T06:24:34.000Z</time>
      </trkpt>
      <trkpt lat="44.05088" lon="7.19544">
        <ele>1655</ele>
        <time>2016-05-15T06:24:36.000Z</time>
      </trkpt>
      <trkpt lat="44.05086" lon="7.1951">
        <ele>1660</ele>
        <time>2016-05-15T06:24:39.000Z</time>
      </trkpt>
      <trkpt lat="44.05084" lon="7.19502">
        <ele>1666</ele>
        <time>2016-05-15T06:24:40.000Z</time>
      </trkpt>
      <trkpt lat="44.05082" lon="7.19495">
        <ele>1672</ele>
        <time>2016-05-15T06:24:41.000Z</time>
      </trkpt>
      <trkpt lat="44.05078" lon="7.19488">
        <ele>1676</ele>
        <time>2016-05-15T06:24:42.000Z</time>
      </trkpt>
      <trkpt lat="44.05073" lon="7.1948">
        <ele>1679</ele>
        <time>2016-05-15T06:24:44.000Z</time>
      </trkpt>
      <trkpt lat="44.05072" lon="7.19478">
        <ele>1679</ele>
        <time>2016-05-15T06:24:45.000Z</time>
      </trkpt>
      <trkpt lat="44.05069" lon="7.19475">
        <ele>1680</ele>
        <time>2016-05-15T06:24:47.000Z</time>
      </trkpt>
      <trkpt lat="44.05067" lon="7.19472">
        <ele>1681</ele>
        <time>2016-05-15T06:24:49.000Z</time>
      </trkpt>
      <trkpt lat="44.05066" lon="7.1947">
        <ele>1681</ele>
        <time>2016-05-15T06:24:50.000Z</time>
      </trkpt>
      <trkpt lat="44.05065" lon="7.19467">
        <ele>1681</ele>
        <time>2016-05-15T06:24:52.000Z</time>
      </trkpt>
      <trkpt lat="44.05064" lon="7.19465">
        <ele>1681</ele>
        <time>2016-05-15T06:24:53.000Z</time>
      </trkpt>
      <trkpt lat="44.05062" lon="7.19463">
        <ele>1682</ele>
        <time>2016-05-15T06:24:55.000Z</time>
      </trkpt>
      <trkpt lat="44.05059" lon="7.19458">
        <ele>1682</ele>
        <time>2016-05-15T06:24:59.000Z</time>
      </trkpt>
      <trkpt lat="44.05058" lon="7.19456">
        <ele>1682</ele>
        <time>2016-05-15T06:25:00.000Z</time>
      </trkpt>
      <trkpt lat="44.05054" lon="7.19453">
        <ele>1683</ele>
        <time>2016-05-15T06:25:03.000Z</time>
      </trkpt>
      <trkpt lat="44.05053" lon="7.19452">
        <ele>1683</ele>
        <time>2016-05-15T06:25:04.000Z</time>
      </trkpt>
      <trkpt lat="44.0505" lon="7.19448">
        <ele>1684</ele>
        <time>2016-05-15T06:25:07.000Z</time>
      </trkpt>
      <trkpt lat="44.05048" lon="7.19445">
        <ele>1684</ele>
        <time>2016-05-15T06:25:10.000Z</time>
      </trkpt>
      <trkpt lat="44.05045" lon="7.19441">
        <ele>1685</ele>
        <time>2016-05-15T06:25:13.000Z</time>
      </trkpt>
      <trkpt lat="44.0504" lon="7.19433">
        <ele>1686</ele>
        <time>2016-05-15T06:25:18.000Z</time>
      </trkpt>
      <trkpt lat="44.05034" lon="7.19422">
        <ele>1689</ele>
        <time>2016-05-15T06:25:24.000Z</time>
      </trkpt>
      <trkpt lat="44.05033" lon="7.1942">
        <ele>1689</ele>
        <time>2016-05-15T06:25:25.000Z</time>
      </trkpt>
      <trkpt lat="44.05032" lon="7.19418">
        <ele>1690</ele>
        <time>2016-05-15T06:25:26.000Z</time>
      </trkpt>
      <trkpt lat="44.05031" lon="7.19415">
        <ele>1680</ele>
        <time>2016-05-15T06:25:28.000Z</time>
      </trkpt>
      <trkpt lat="44.05029" lon="7.19412">
        <ele>1681</ele>
        <time>2016-05-15T06:25:30.000Z</time>
      </trkpt>
      <trkpt lat="44.05028" lon="7.19411">
        <ele>1682</ele>
        <time>2016-05-15T06:25:31.000Z</time>
      </trkpt>
      <trkpt lat="44.05028" lon="7.19409">
        <ele>1682</ele>
        <time>2016-05-15T06:25:32.000Z</time>
      </trkpt>
      <trkpt lat="44.05024" lon="7.19405">
        <ele>1684</ele>
        <time>2016-05-15T06:25:36.000Z</time>
      </trkpt>
      <trkpt lat="44.05021" lon="7.19401">
        <ele>1684</ele>
        <time>2016-05-15T06:25:39.000Z</time>
      </trkpt>
      <trkpt lat="44.05017" lon="7.19396">
        <ele>1685</ele>
        <time>2016-05-15T06:25:43.000Z</time>
      </trkpt>
      <trkpt lat="44.05016" lon="7.19393">
        <ele>1685</ele>
        <time>2016-05-15T06:25:45.000Z</time>
      </trkpt>
      <trkpt lat="44.05013" lon="7.19389">
        <ele>1684</ele>
        <time>2016-05-15T06:25:48.000Z</time>
      </trkpt>
      <trkpt lat="44.0501" lon="7.19385">
        <ele>1684</ele>
        <time>2016-05-15T06:25:51.000Z</time>
      </trkpt>
      <trkpt lat="44.05007" lon="7.1938">
        <ele>1684</ele>
        <time>2016-05-15T06:25:54.000Z</time>
      </trkpt>
      <trkpt lat="44.05002" lon="7.19371">
        <ele>1684</ele>
        <time>2016-05-15T06:25:59.000Z</time>
      </trkpt>
      <trkpt lat="44.05002" lon="7.1937">
        <ele>1684</ele>
        <time>2016-05-15T06:26:00.000Z</time>
      </trkpt>
      <trkpt lat="44.04999" lon="7.1936">
        <ele>1723</ele>
        <time>2016-05-15T06:26:05.000Z</time>
      </trkpt>
      <trkpt lat="44.04998" lon="7.19356">
        <ele>1722</ele>
        <time>2016-05-15T06:26:07.000Z</time>
      </trkpt>
      <trkpt lat="44.04995" lon="7.19346">
        <ele>1717</ele>
        <time>2016-05-15T06:26:13.000Z</time>
      </trkpt>
      <trkpt lat="44.04994" lon="7.19345">
        <ele>1717</ele>
        <time>2016-05-15T06:26:14.000Z</time>
      </trkpt>
      <trkpt lat="44.04994" lon="7.19338">
        <ele>1712</ele>
        <time>2016-05-15T06:26:18.000Z</time>
      </trkpt>
      <trkpt lat="44.04994" lon="7.1933">
        <ele>1709</ele>
        <time>2016-05-15T06:26:22.000Z</time>
      </trkpt>
      <trkpt lat="44.04993" lon="7.19326">
        <ele>1712</ele>
        <time>2016-05-15T06:26:24.000Z</time>
      </trkpt>
      <trkpt lat="44.04992" lon="7.19318">
        <ele>1716</ele>
        <time>2016-05-15T06:26:28.000Z</time>
      </trkpt>
      <trkpt lat="44.0499" lon="7.19316">
        <ele>1718</ele>
        <time>2016-05-15T06:26:30.000Z</time>
      </trkpt>
      <trkpt lat="44.04989" lon="7.1931">
        <ele>1720</ele>
        <time>2016-05-15T06:26:33.000Z</time>
      </trkpt>
      <trkpt lat="44.04988" lon="7.19306">
        <ele>1721</ele>
        <time>2016-05-15T06:26:35.000Z</time>
      </trkpt>
      <trkpt lat="44.04986" lon="7.19297">
        <ele>1722</ele>
        <time>2016-05-15T06:26:40.000Z</time>
      </trkpt>
      <trkpt lat="44.04986" lon="7.19295">
        <ele>1722</ele>
        <time>2016-05-15T06:26:42.000Z</time>
      </trkpt>
      <trkpt lat="44.04984" lon="7.19288">
        <ele>1722</ele>
        <time>2016-05-15T06:26:46.000Z</time>
      </trkpt>
      <trkpt lat="44.04983" lon="7.19286">
        <ele>1722</ele>
        <time>2016-05-15T06:26:47.000Z</time>
      </trkpt>
      <trkpt lat="44.04979" lon="7.19278">
        <ele>1722</ele>
        <time>2016-05-15T06:26:52.000Z</time>
      </trkpt>
      <trkpt lat="44.04978" lon="7.19275">
        <ele>1722</ele>
        <time>2016-05-15T06:26:54.000Z</time>
      </trkpt>
      <trkpt lat="44.04976" lon="7.19272">
        <ele>1722</ele>
        <time>2016-05-15T06:26:56.000Z</time>
      </trkpt>
      <trkpt lat="44.04975" lon="7.1927">
        <ele>1722</ele>
        <time>2016-05-15T06:26:57.000Z</time>
      </trkpt>
      <trkpt lat="44.04972" lon="7.19267">
        <ele>1723</ele>
        <time>2016-05-15T06:27:00.000Z</time>
      </trkpt>
      <trkpt lat="44.04971" lon="7.19263">
        <ele>1723</ele>
        <time>2016-05-15T06:27:03.000Z</time>
      </trkpt>
      <trkpt lat="44.0497" lon="7.19257">
        <ele>1723</ele>
        <time>2016-05-15T06:27:08.000Z</time>
      </trkpt>
      <trkpt lat="44.04968" lon="7.19253">
        <ele>1724</ele>
        <time>2016-05-15T06:27:13.000Z</time>
      </trkpt>
      <trkpt lat="44.04966" lon="7.1925">
        <ele>1720</ele>
        <time>2016-05-15T06:27:19.000Z</time>
      </trkpt>
      <trkpt lat="44.04964" lon="7.19247">
        <ele>1721</ele>
        <time>2016-05-15T06:27:22.000Z</time>
      </trkpt>
      <trkpt lat="44.04962" lon="7.19245">
        <ele>1722</ele>
        <time>2016-05-15T06:27:25.000Z</time>
      </trkpt>
      <trkpt lat="44.04962" lon="7.19245">
        <ele>1722</ele>
        <time>2016-05-15T06:27:27.000Z</time>
      </trkpt>
      <trkpt lat="44.04962" lon="7.19243">
        <ele>1722</ele>
        <time>2016-05-15T06:27:31.000Z</time>
      </trkpt>
      <trkpt lat="44.0496" lon="7.1924">
        <ele>1723</ele>
        <time>2016-05-15T06:27:34.000Z</time>
      </trkpt>
      <trkpt lat="44.04958" lon="7.19237">
        <ele>1724</ele>
        <time>2016-05-15T06:27:37.000Z</time>
      </trkpt>
      <trkpt lat="44.04957" lon="7.19237">
        <ele>1725</ele>
        <time>2016-05-15T06:27:38.000Z</time>
      </trkpt>
      <trkpt lat="44.04956" lon="7.19235">
        <ele>1725</ele>
        <time>2016-05-15T06:27:40.000Z</time>
      </trkpt>
      <trkpt lat="44.04955" lon="7.19233">
        <ele>1726</ele>
        <time>2016-05-15T06:27:43.000Z</time>
      </trkpt>
      <trkpt lat="44.04954" lon="7.1923">
        <ele>1726</ele>
        <time>2016-05-15T06:27:47.000Z</time>
      </trkpt>
      <trkpt lat="44.04953" lon="7.19226">
        <ele>1726</ele>
        <time>2016-05-15T06:27:50.000Z</time>
      </trkpt>
      <trkpt lat="44.04951" lon="7.19223">
        <ele>1727</ele>
        <time>2016-05-15T06:27:54.000Z</time>
      </trkpt>
      <trkpt lat="44.0495" lon="7.19222">
        <ele>1727</ele>
        <time>2016-05-15T06:27:55.000Z</time>
      </trkpt>
      <trkpt lat="44.04947" lon="7.19217">
        <ele>1728</ele>
        <time>2016-05-15T06:28:00.000Z</time>
      </trkpt>
      <trkpt lat="44.04948" lon="7.19218">
        <ele>1728</ele>
        <time>2016-05-15T06:28:01.000Z</time>
      </trkpt>
      <trkpt lat="44.04946" lon="7.19214">
        <ele>1728</ele>
        <time>2016-05-15T06:28:07.000Z</time>
      </trkpt>
      <trkpt lat="44.04945" lon="7.19214">
        <ele>1728</ele>
        <time>2016-05-15T06:28:08.000Z</time>
      </trkpt>
      <trkpt lat="44.04943" lon="7.1921">
        <ele>1729</ele>
        <time>2016-05-15T06:28:11.000Z</time>
      </trkpt>
      <trkpt lat="44.04941" lon="7.19205">
        <ele>1729</ele>
        <time>2016-05-15T06:28:14.000Z</time>
      </trkpt>
      <trkpt lat="44.04938" lon="7.19198">
        <ele>1730</ele>
        <time>2016-05-15T06:28:18.000Z</time>
      </trkpt>
      <trkpt lat="44.04937" lon="7.19195">
        <ele>1731</ele>
        <time>2016-05-15T06:28:20.000Z</time>
      </trkpt>
      <trkpt lat="44.04936" lon="7.19191">
        <ele>1731</ele>
        <time>2016-05-15T06:28:22.000Z</time>
      </trkpt>
      <trkpt lat="44.04934" lon="7.19183">
        <ele>1734</ele>
        <time>2016-05-15T06:28:27.000Z</time>
      </trkpt>
      <trkpt lat="44.04932" lon="7.19179">
        <ele>1736</ele>
        <time>2016-05-15T06:28:29.000Z</time>
      </trkpt>
      <trkpt lat="44.04929" lon="7.1917">
        <ele>1740</ele>
        <time>2016-05-15T06:28:34.000Z</time>
      </trkpt>
      <trkpt lat="44.04928" lon="7.19167">
        <ele>1741</ele>
        <time>2016-05-15T06:28:36.000Z</time>
      </trkpt>
      <trkpt lat="44.04927" lon="7.19163">
        <ele>1738</ele>
        <time>2016-05-15T06:28:39.000Z</time>
      </trkpt>
      <trkpt lat="44.04925" lon="7.19156">
        <ele>1736</ele>
        <time>2016-05-15T06:28:43.000Z</time>
      </trkpt>
      <trkpt lat="44.04924" lon="7.19155">
        <ele>1736</ele>
        <time>2016-05-15T06:28:44.000Z</time>
      </trkpt>
      <trkpt lat="44.04921" lon="7.1915">
        <ele>1734</ele>
        <time>2016-05-15T06:28:47.000Z</time>
      </trkpt>
      <trkpt lat="44.04917" lon="7.19145">
        <ele>1732</ele>
        <time>2016-05-15T06:28:51.000Z</time>
      </trkpt>
      <trkpt lat="44.04917" lon="7.19144">
        <ele>1732</ele>
        <time>2016-05-15T06:28:52.000Z</time>
      </trkpt>
      <trkpt lat="44.04914" lon="7.19138">
        <ele>1754</ele>
        <time>2016-05-15T06:28:56.000Z</time>
      </trkpt>
      <trkpt lat="44.04912" lon="7.19133">
        <ele>1754</ele>
        <time>2016-05-15T06:29:00.000Z</time>
      </trkpt>
      <trkpt lat="44.04909" lon="7.19129">
        <ele>1754</ele>
        <time>2016-05-15T06:29:03.000Z</time>
      </trkpt>
      <trkpt lat="44.04908" lon="7.19128">
        <ele>1754</ele>
        <time>2016-05-15T06:29:04.000Z</time>
      </trkpt>
      <trkpt lat="44.04905" lon="7.19122">
        <ele>1753</ele>
        <time>2016-05-15T06:29:08.000Z</time>
      </trkpt>
      <trkpt lat="44.04904" lon="7.19121">
        <ele>1753</ele>
        <time>2016-05-15T06:29:09.000Z</time>
      </trkpt>
      <trkpt lat="44.049" lon="7.19115">
        <ele>1753</ele>
        <time>2016-05-15T06:29:13.000Z</time>
      </trkpt>
      <trkpt lat="44.04899" lon="7.19114">
        <ele>1753</ele>
        <time>2016-05-15T06:29:14.000Z</time>
      </trkpt>
      <trkpt lat="44.04898" lon="7.19113">
        <ele>1753</ele>
        <time>2016-05-15T06:29:15.000Z</time>
      </trkpt>
      <trkpt lat="44.04897" lon="7.19112">
        <ele>1753</ele>
        <time>2016-05-15T06:29:16.000Z</time>
      </trkpt>
      <trkpt lat="44.04896" lon="7.19108">
        <ele>1753</ele>
        <time>2016-05-15T06:29:19.000Z</time>
      </trkpt>
      <trkpt lat="44.04894" lon="7.19107">
        <ele>1753</ele>
        <time>2016-05-15T06:29:20.000Z</time>
      </trkpt>
      <trkpt lat="44.04893" lon="7.19106">
        <ele>1753</ele>
        <time>2016-05-15T06:29:21.000Z</time>
      </trkpt>
      <trkpt lat="44.04889" lon="7.19099">
        <ele>1753</ele>
        <time>2016-05-15T06:29:25.000Z</time>
      </trkpt>
      <trkpt lat="44.04888" lon="7.19097">
        <ele>1753</ele>
        <time>2016-05-15T06:29:27.000Z</time>
      </trkpt>
      <trkpt lat="44.04884" lon="7.19089">
        <ele>1753</ele>
        <time>2016-05-15T06:29:32.000Z</time>
      </trkpt>
      <trkpt lat="44.04884" lon="7.19086">
        <ele>1753</ele>
        <time>2016-05-15T06:29:34.000Z</time>
      </trkpt>
      <trkpt lat="44.04881" lon="7.19079">
        <ele>1746</ele>
        <time>2016-05-15T06:29:38.000Z</time>
      </trkpt>
      <trkpt lat="44.0488" lon="7.19074">
        <ele>1746</ele>
        <time>2016-05-15T06:29:41.000Z</time>
      </trkpt>
      <trkpt lat="44.04879" lon="7.19066">
        <ele>1746</ele>
        <time>2016-05-15T06:29:45.000Z</time>
      </trkpt>
      <trkpt lat="44.04878" lon="7.19061">
        <ele>1746</ele>
        <time>2016-05-15T06:29:48.000Z</time>
      </trkpt>
      <trkpt lat="44.04876" lon="7.19056">
        <ele>1746</ele>
        <time>2016-05-15T06:29:51.000Z</time>
      </trkpt>
      <trkpt lat="44.04876" lon="7.19051">
        <ele>1745</ele>
        <time>2016-05-15T06:29:54.000Z</time>
      </trkpt>
      <trkpt lat="44.04877" lon="7.19044">
        <ele>1745</ele>
        <time>2016-05-15T06:29:58.000Z</time>
      </trkpt>
      <trkpt lat="44.04877" lon="7.19041">
        <ele>1745</ele>
        <time>2016-05-15T06:30:00.000Z</time>
      </trkpt>
      <trkpt lat="44.04878" lon="7.19034">
        <ele>1744</ele>
        <time>2016-05-15T06:30:04.000Z</time>
      </trkpt>
      <trkpt lat="44.04879" lon="7.19033">
        <ele>1744</ele>
        <time>2016-05-15T06:30:06.000Z</time>
      </trkpt>
      <trkpt lat="44.04885" lon="7.19022">
        <ele>1743</ele>
        <time>2016-05-15T06:30:11.000Z</time>
      </trkpt>
      <trkpt lat="44.04886" lon="7.1902">
        <ele>1743</ele>
        <time>2016-05-15T06:30:12.000Z</time>
      </trkpt>
      <trkpt lat="44.04888" lon="7.19016">
        <ele>1742</ele>
        <time>2016-05-15T06:30:14.000Z</time>
      </trkpt>
      <trkpt lat="44.04894" lon="7.19012">
        <ele>1741</ele>
        <time>2016-05-15T06:30:16.000Z</time>
      </trkpt>
      <trkpt lat="44.04904" lon="7.19002">
        <ele>1739</ele>
        <time>2016-05-15T06:30:21.000Z</time>
      </trkpt>
      <trkpt lat="44.04906" lon="7.19">
        <ele>1738</ele>
        <time>2016-05-15T06:30:22.000Z</time>
      </trkpt>
      <trkpt lat="44.0491" lon="7.18996">
        <ele>1735</ele>
        <time>2016-05-15T06:30:24.000Z</time>
      </trkpt>
      <trkpt lat="44.04914" lon="7.18993">
        <ele>1735</ele>
        <time>2016-05-15T06:30:26.000Z</time>
      </trkpt>
      <trkpt lat="44.04915" lon="7.18989">
        <ele>1735</ele>
        <time>2016-05-15T06:30:28.000Z</time>
      </trkpt>
      <trkpt lat="44.0492" lon="7.18982">
        <ele>1726</ele>
        <time>2016-05-15T06:30:32.000Z</time>
      </trkpt>
      <trkpt lat="44.04921" lon="7.1898">
        <ele>1726</ele>
        <time>2016-05-15T06:30:33.000Z</time>
      </trkpt>
      <trkpt lat="44.04923" lon="7.18972">
        <ele>1724</ele>
        <time>2016-05-15T06:30:38.000Z</time>
      </trkpt>
      <trkpt lat="44.04924" lon="7.18969">
        <ele>1723</ele>
        <time>2016-05-15T06:30:40.000Z</time>
      </trkpt>
      <trkpt lat="44.04926" lon="7.18963">
        <ele>1723</ele>
        <time>2016-05-15T06:30:43.000Z</time>
      </trkpt>
      <trkpt lat="44.04928" lon="7.1896">
        <ele>1723</ele>
        <time>2016-05-15T06:30:45.000Z</time>
      </trkpt>
      <trkpt lat="44.04929" lon="7.18958">
        <ele>1722</ele>
        <time>2016-05-15T06:30:46.000Z</time>
      </trkpt>
      <trkpt lat="44.04929" lon="7.18955">
        <ele>1722</ele>
        <time>2016-05-15T06:30:48.000Z</time>
      </trkpt>
      <trkpt lat="44.04929" lon="7.18951">
        <ele>1723</ele>
        <time>2016-05-15T06:30:50.000Z</time>
      </trkpt>
      <trkpt lat="44.04929" lon="7.18949">
        <ele>1723</ele>
        <time>2016-05-15T06:30:51.000Z</time>
      </trkpt>
      <trkpt lat="44.04931" lon="7.18944">
        <ele>1723</ele>
        <time>2016-05-15T06:30:54.000Z</time>
      </trkpt>
      <trkpt lat="44.04931" lon="7.18942">
        <ele>1723</ele>
        <time>2016-05-15T06:30:55.000Z</time>
      </trkpt>
      <trkpt lat="44.0493" lon="7.18939">
        <ele>1724</ele>
        <time>2016-05-15T06:30:57.000Z</time>
      </trkpt>
      <trkpt lat="44.04932" lon="7.18935">
        <ele>1724</ele>
        <time>2016-05-15T06:31:00.000Z</time>
      </trkpt>
      <trkpt lat="44.04934" lon="7.1893">
        <ele>1724</ele>
        <time>2016-05-15T06:31:03.000Z</time>
      </trkpt>
      <trkpt lat="44.04935" lon="7.18925">
        <ele>1725</ele>
        <time>2016-05-15T06:31:06.000Z</time>
      </trkpt>
      <trkpt lat="44.04937" lon="7.18922">
        <ele>1724</ele>
        <time>2016-05-15T06:31:08.000Z</time>
      </trkpt>
      <trkpt lat="44.04938" lon="7.18913">
        <ele>1727</ele>
        <time>2016-05-15T06:31:13.000Z</time>
      </trkpt>
      <trkpt lat="44.04938" lon="7.18909">
        <ele>1727</ele>
        <time>2016-05-15T06:31:15.000Z</time>
      </trkpt>
      <trkpt lat="44.04937" lon="7.18899">
        <ele>1726</ele>
        <time>2016-05-15T06:31:20.000Z</time>
      </trkpt>
      <trkpt lat="44.04937" lon="7.18895">
        <ele>1726</ele>
        <time>2016-05-15T06:31:22.000Z</time>
      </trkpt>
      <trkpt lat="44.04937" lon="7.18879">
        <ele>1726</ele>
        <time>2016-05-15T06:31:28.000Z</time>
      </trkpt>
      <trkpt lat="44.04937" lon="7.18877">
        <ele>1726</ele>
        <time>2016-05-15T06:31:29.000Z</time>
      </trkpt>
      <trkpt lat="44.04934" lon="7.18869">
        <ele>1726</ele>
        <time>2016-05-15T06:31:34.000Z</time>
      </trkpt>
      <trkpt lat="44.04933" lon="7.18868">
        <ele>1726</ele>
        <time>2016-05-15T06:31:35.000Z</time>
      </trkpt>
      <trkpt lat="44.04931" lon="7.18869">
        <ele>1726</ele>
        <time>2016-05-15T06:31:37.000Z</time>
      </trkpt>
      <trkpt lat="44.0493" lon="7.1887">
        <ele>1726</ele>
        <time>2016-05-15T06:31:38.000Z</time>
      </trkpt>
      <trkpt lat="44.04928" lon="7.18872">
        <ele>1726</ele>
        <time>2016-05-15T06:31:40.000Z</time>
      </trkpt>
      <trkpt lat="44.04918" lon="7.18888">
        <ele>1727</ele>
        <time>2016-05-15T06:31:51.000Z</time>
      </trkpt>
      <trkpt lat="44.04915" lon="7.18892">
        <ele>1731</ele>
        <time>2016-05-15T06:31:55.000Z</time>
      </trkpt>
      <trkpt lat="44.04912" lon="7.18898">
        <ele>1731</ele>
        <time>2016-05-15T06:31:59.000Z</time>
      </trkpt>
      <trkpt lat="44.04911" lon="7.18899">
        <ele>1731</ele>
        <time>2016-05-15T06:32:00.000Z</time>
      </trkpt>
      <trkpt lat="44.04909" lon="7.18906">
        <ele>1732</ele>
        <time>2016-05-15T06:32:05.000Z</time>
      </trkpt>
      <trkpt lat="44.04908" lon="7.18907">
        <ele>1732</ele>
        <time>2016-05-15T06:32:06.000Z</time>
      </trkpt>
      <trkpt lat="44.04908" lon="7.1891">
        <ele>1732</ele>
        <time>2016-05-15T06:32:08.000Z</time>
      </trkpt>
      <trkpt lat="44.04907" lon="7.18913">
        <ele>1732</ele>
        <time>2016-05-15T06:32:11.000Z</time>
      </trkpt>
      <trkpt lat="44.04906" lon="7.18915">
        <ele>1732</ele>
        <time>2016-05-15T06:32:12.000Z</time>
      </trkpt>
      <trkpt lat="44.04904" lon="7.1892">
        <ele>1734</ele>
        <time>2016-05-15T06:32:16.000Z</time>
      </trkpt>
      <trkpt lat="44.04902" lon="7.18923">
        <ele>1734</ele>
        <time>2016-05-15T06:32:19.000Z</time>
      </trkpt>
      <trkpt lat="44.04899" lon="7.18927">
        <ele>1734</ele>
        <time>2016-05-15T06:32:22.000Z</time>
      </trkpt>
      <trkpt lat="44.04895" lon="7.18931">
        <ele>1735</ele>
        <time>2016-05-15T06:32:26.000Z</time>
      </trkpt>
      <trkpt lat="44.04894" lon="7.18931">
        <ele>1735</ele>
        <time>2016-05-15T06:32:27.000Z</time>
      </trkpt>
      <trkpt lat="44.04888" lon="7.1894">
        <ele>1735</ele>
        <time>2016-05-15T06:32:34.000Z</time>
      </trkpt>
      <trkpt lat="44.04888" lon="7.1894">
        <ele>1735</ele>
        <time>2016-05-15T06:32:35.000Z</time>
      </trkpt>
      <trkpt lat="44.04882" lon="7.18948">
        <ele>1735</ele>
        <time>2016-05-15T06:32:41.000Z</time>
      </trkpt>
      <trkpt lat="44.0488" lon="7.18952">
        <ele>1735</ele>
        <time>2016-05-15T06:32:43.000Z</time>
      </trkpt>
      <trkpt lat="44.04876" lon="7.18963">
        <ele>1736</ele>
        <time>2016-05-15T06:32:49.000Z</time>
      </trkpt>
      <trkpt lat="44.04877" lon="7.1897">
        <ele>1736</ele>
        <time>2016-05-15T06:32:53.000Z</time>
      </trkpt>
      <trkpt lat="44.04877" lon="7.18972">
        <ele>1736</ele>
        <time>2016-05-15T06:32:54.000Z</time>
      </trkpt>
      <trkpt lat="44.04878" lon="7.18973">
        <ele>1736</ele>
        <time>2016-05-15T06:32:55.000Z</time>
      </trkpt>
      <trkpt lat="44.04877" lon="7.18984">
        <ele>1737</ele>
        <time>2016-05-15T06:33:02.000Z</time>
      </trkpt>
      <trkpt lat="44.04877" lon="7.18985">
        <ele>1737</ele>
        <time>2016-05-15T06:33:03.000Z</time>
      </trkpt>
      <trkpt lat="44.04873" lon="7.18992">
        <ele>1737</ele>
        <time>2016-05-15T06:33:09.000Z</time>
      </trkpt>
      <trkpt lat="44.04872" lon="7.18997">
        <ele>1737</ele>
        <time>2016-05-15T06:33:12.000Z</time>
      </trkpt>
      <trkpt lat="44.04871" lon="7.19004">
        <ele>1743</ele>
        <time>2016-05-15T06:33:16.000Z</time>
      </trkpt>
      <trkpt lat="44.04871" lon="7.19007">
        <ele>1743</ele>
        <time>2016-05-15T06:33:18.000Z</time>
      </trkpt>
      <trkpt lat="44.04867" lon="7.19014">
        <ele>1744</ele>
        <time>2016-05-15T06:33:23.000Z</time>
      </trkpt>
      <trkpt lat="44.04867" lon="7.19015">
        <ele>1744</ele>
        <time>2016-05-15T06:33:24.000Z</time>
      </trkpt>
      <trkpt lat="44.04867" lon="7.19023">
        <ele>1744</ele>
        <time>2016-05-15T06:33:30.000Z</time>
      </trkpt>
      <trkpt lat="44.04867" lon="7.19026">
        <ele>1744</ele>
        <time>2016-05-15T06:33:31.000Z</time>
      </trkpt>
      <trkpt lat="44.04866" lon="7.1903">
        <ele>1745</ele>
        <time>2016-05-15T06:33:33.000Z</time>
      </trkpt>
      <trkpt lat="44.04865" lon="7.19032">
        <ele>1745</ele>
        <time>2016-05-15T06:33:35.000Z</time>
      </trkpt>
      <trkpt lat="44.04865" lon="7.19032">
        <ele>1745</ele>
        <time>2016-05-15T06:33:36.000Z</time>
      </trkpt>
      <trkpt lat="44.04863" lon="7.19035">
        <ele>1745</ele>
        <time>2016-05-15T06:33:41.000Z</time>
      </trkpt>
      <trkpt lat="44.04862" lon="7.19038">
        <ele>1745</ele>
        <time>2016-05-15T06:33:44.000Z</time>
      </trkpt>
      <trkpt lat="44.04862" lon="7.19039">
        <ele>1746</ele>
        <time>2016-05-15T06:33:45.000Z</time>
      </trkpt>
      <trkpt lat="44.04862" lon="7.19041">
        <ele>1746</ele>
        <time>2016-05-15T06:33:47.000Z</time>
      </trkpt>
      <trkpt lat="44.04863" lon="7.19047">
        <ele>1746</ele>
        <time>2016-05-15T06:33:53.000Z</time>
      </trkpt>
      <trkpt lat="44.04863" lon="7.19055">
        <ele>1747</ele>
        <time>2016-05-15T06:34:01.000Z</time>
      </trkpt>
      <trkpt lat="44.04863" lon="7.19056">
        <ele>1747</ele>
        <time>2016-05-15T06:34:02.000Z</time>
      </trkpt>
      <trkpt lat="44.04863" lon="7.19058">
        <ele>1747</ele>
        <time>2016-05-15T06:34:04.000Z</time>
      </trkpt>
      <trkpt lat="44.04864" lon="7.19058">
        <ele>1747</ele>
        <time>2016-05-15T06:34:05.000Z</time>
      </trkpt>
      <trkpt lat="44.04864" lon="7.19064">
        <ele>1748</ele>
        <time>2016-05-15T06:34:10.000Z</time>
      </trkpt>
      <trkpt lat="44.04864" lon="7.19064">
        <ele>1748</ele>
        <time>2016-05-15T06:34:11.000Z</time>
      </trkpt>
      <trkpt lat="44.04862" lon="7.19067">
        <ele>1748</ele>
        <time>2016-05-15T06:34:15.000Z</time>
      </trkpt>
      <trkpt lat="44.04862" lon="7.19068">
        <ele>1748</ele>
        <time>2016-05-15T06:34:16.000Z</time>
      </trkpt>
      <trkpt lat="44.04861" lon="7.19069">
        <ele>1748</ele>
        <time>2016-05-15T06:34:17.000Z</time>
      </trkpt>
      <trkpt lat="44.04859" lon="7.19072">
        <ele>1749</ele>
        <time>2016-05-15T06:34:22.000Z</time>
      </trkpt>
      <trkpt lat="44.04859" lon="7.19074">
        <ele>1749</ele>
        <time>2016-05-15T06:34:24.000Z</time>
      </trkpt>
      <trkpt lat="44.04858" lon="7.19079">
        <ele>1750</ele>
        <time>2016-05-15T06:34:30.000Z</time>
      </trkpt>
      <trkpt lat="44.04857" lon="7.19081">
        <ele>1750</ele>
        <time>2016-05-15T06:34:32.000Z</time>
      </trkpt>
      <trkpt lat="44.04855" lon="7.19086">
        <ele>1757</ele>
        <time>2016-05-15T06:34:37.000Z</time>
      </trkpt>
      <trkpt lat="44.04855" lon="7.19088">
        <ele>1757</ele>
        <time>2016-05-15T06:34:40.000Z</time>
      </trkpt>
      <trkpt lat="44.04854" lon="7.19091">
        <ele>1757</ele>
        <time>2016-05-15T06:34:43.000Z</time>
      </trkpt>
      <trkpt lat="44.04852" lon="7.19095">
        <ele>1758</ele>
        <time>2016-05-15T06:34:48.000Z</time>
      </trkpt>
      <trkpt lat="44.04852" lon="7.19097">
        <ele>1758</ele>
        <time>2016-05-15T06:34:51.000Z</time>
      </trkpt>
      <trkpt lat="44.04852" lon="7.19101">
        <ele>1758</ele>
        <time>2016-05-15T06:34:56.000Z</time>
      </trkpt>
      <trkpt lat="44.04851" lon="7.19102">
        <ele>1758</ele>
        <time>2016-05-15T06:34:57.000Z</time>
      </trkpt>
      <trkpt lat="44.0485" lon="7.19106">
        <ele>1758</ele>
        <time>2016-05-15T06:35:03.000Z</time>
      </trkpt>
      <trkpt lat="44.0485" lon="7.19107">
        <ele>1758</ele>
        <time>2016-05-15T06:35:04.000Z</time>
      </trkpt>
      <trkpt lat="44.0485" lon="7.19109">
        <ele>1758</ele>
        <time>2016-05-15T06:35:09.000Z</time>
      </trkpt>
      <trkpt lat="44.0485" lon="7.19111">
        <ele>1758</ele>
        <time>2016-05-15T06:35:11.000Z</time>
      </trkpt>
      <trkpt lat="44.04849" lon="7.19114">
        <ele>1759</ele>
        <time>2016-05-15T06:35:15.000Z</time>
      </trkpt>
      <trkpt lat="44.04848" lon="7.19117">
        <ele>1759</ele>
        <time>2016-05-15T06:35:20.000Z</time>
      </trkpt>
      <trkpt lat="44.04848" lon="7.19117">
        <ele>1759</ele>
        <time>2016-05-15T06:35:21.000Z</time>
      </trkpt>
      <trkpt lat="44.04848" lon="7.19122">
        <ele>1760</ele>
        <time>2016-05-15T06:35:26.000Z</time>
      </trkpt>
      <trkpt lat="44.04849" lon="7.19123">
        <ele>1760</ele>
        <time>2016-05-15T06:35:28.000Z</time>
      </trkpt>
      <trkpt lat="44.04849" lon="7.19126">
        <ele>1760</ele>
        <time>2016-05-15T06:35:32.000Z</time>
      </trkpt>
      <trkpt lat="44.04849" lon="7.19127">
        <ele>1760</ele>
        <time>2016-05-15T06:35:35.000Z</time>
      </trkpt>
      <trkpt lat="44.04848" lon="7.1913">
        <ele>1761</ele>
        <time>2016-05-15T06:35:39.000Z</time>
      </trkpt>
      <trkpt lat="44.04848" lon="7.1913">
        <ele>1761</ele>
        <time>2016-05-15T06:35:40.000Z</time>
      </trkpt>
      <trkpt lat="44.04848" lon="7.19133">
        <ele>1761</ele>
        <time>2016-05-15T06:35:44.000Z</time>
      </trkpt>
      <trkpt lat="44.04847" lon="7.19135">
        <ele>1762</ele>
        <time>2016-05-15T06:35:46.000Z</time>
      </trkpt>
      <trkpt lat="44.04847" lon="7.19139">
        <ele>1762</ele>
        <time>2016-05-15T06:35:51.000Z</time>
      </trkpt>
      <trkpt lat="44.04848" lon="7.19141">
        <ele>1763</ele>
        <time>2016-05-15T06:35:53.000Z</time>
      </trkpt>
      <trkpt lat="44.0485" lon="7.19146">
        <ele>1763</ele>
        <time>2016-05-15T06:35:57.000Z</time>
      </trkpt>
      <trkpt lat="44.04851" lon="7.19148">
        <ele>1764</ele>
        <time>2016-05-15T06:35:59.000Z</time>
      </trkpt>
      <trkpt lat="44.04854" lon="7.19157">
        <ele>1764</ele>
        <time>2016-05-15T06:36:07.000Z</time>
      </trkpt>
      <trkpt lat="44.04855" lon="7.19161">
        <ele>1765</ele>
        <time>2016-05-15T06:36:11.000Z</time>
      </trkpt>
      <trkpt lat="44.04856" lon="7.19164">
        <ele>1764</ele>
        <time>2016-05-15T06:36:14.000Z</time>
      </trkpt>
      <trkpt lat="44.04854" lon="7.19167">
        <ele>1771</ele>
        <time>2016-05-15T06:36:19.000Z</time>
      </trkpt>
      <trkpt lat="44.04854" lon="7.19168">
        <ele>1771</ele>
        <time>2016-05-15T06:36:20.000Z</time>
      </trkpt>
      <trkpt lat="44.04852" lon="7.19171">
        <ele>1772</ele>
        <time>2016-05-15T06:36:25.000Z</time>
      </trkpt>
      <trkpt lat="44.04852" lon="7.19173">
        <ele>1772</ele>
        <time>2016-05-15T06:36:27.000Z</time>
      </trkpt>
      <trkpt lat="44.0485" lon="7.19176">
        <ele>1772</ele>
        <time>2016-05-15T06:36:31.000Z</time>
      </trkpt>
      <trkpt lat="44.04849" lon="7.19178">
        <ele>1772</ele>
        <time>2016-05-15T06:36:33.000Z</time>
      </trkpt>
      <trkpt lat="44.04849" lon="7.19179">
        <ele>1772</ele>
        <time>2016-05-15T06:36:34.000Z</time>
      </trkpt>
      <trkpt lat="44.04847" lon="7.19184">
        <ele>1772</ele>
        <time>2016-05-15T06:36:39.000Z</time>
      </trkpt>
      <trkpt lat="44.04846" lon="7.19188">
        <ele>1772</ele>
        <time>2016-05-15T06:36:43.000Z</time>
      </trkpt>
      <trkpt lat="44.04846" lon="7.1919">
        <ele>1772</ele>
        <time>2016-05-15T06:36:45.000Z</time>
      </trkpt>
      <trkpt lat="44.04844" lon="7.19194">
        <ele>1772</ele>
        <time>2016-05-15T06:36:49.000Z</time>
      </trkpt>
      <trkpt lat="44.04843" lon="7.192">
        <ele>1773</ele>
        <time>2016-05-15T06:36:55.000Z</time>
      </trkpt>
      <trkpt lat="44.04843" lon="7.19202">
        <ele>1773</ele>
        <time>2016-05-15T06:36:57.000Z</time>
      </trkpt>
      <trkpt lat="44.04843" lon="7.19206">
        <ele>1773</ele>
        <time>2016-05-15T06:37:02.000Z</time>
      </trkpt>
      <trkpt lat="44.04843" lon="7.19208">
        <ele>1773</ele>
        <time>2016-05-15T06:37:05.000Z</time>
      </trkpt>
      <trkpt lat="44.04843" lon="7.1921">
        <ele>1773</ele>
        <time>2016-05-15T06:37:10.000Z</time>
      </trkpt>
      <trkpt lat="44.04843" lon="7.19211">
        <ele>1774</ele>
        <time>2016-05-15T06:37:13.000Z</time>
      </trkpt>
      <trkpt lat="44.04844" lon="7.19212">
        <ele>1774</ele>
        <time>2016-05-15T06:37:16.000Z</time>
      </trkpt>
      <trkpt lat="44.04843" lon="7.19216">
        <ele>1774</ele>
        <time>2016-05-15T06:37:20.000Z</time>
      </trkpt>
      <trkpt lat="44.04842" lon="7.1922">
        <ele>1775</ele>
        <time>2016-05-15T06:37:25.000Z</time>
      </trkpt>
      <trkpt lat="44.04842" lon="7.19223">
        <ele>1775</ele>
        <time>2016-05-15T06:37:29.000Z</time>
      </trkpt>
      <trkpt lat="44.04842" lon="7.19224">
        <ele>1776</ele>
        <time>2016-05-15T06:37:30.000Z</time>
      </trkpt>
      <trkpt lat="44.04842" lon="7.19231">
        <ele>1777</ele>
        <time>2016-05-15T06:37:38.000Z</time>
      </trkpt>
      <trkpt lat="44.04842" lon="7.19235">
        <ele>1778</ele>
        <time>2016-05-15T06:37:42.000Z</time>
      </trkpt>
      <trkpt lat="44.04842" lon="7.19236">
        <ele>1779</ele>
        <time>2016-05-15T06:37:44.000Z</time>
      </trkpt>
      <trkpt lat="44.04842" lon="7.19239">
        <ele>1779</ele>
        <time>2016-05-15T06:37:47.000Z</time>
      </trkpt>
      <trkpt lat="44.04843" lon="7.19244">
        <ele>1780</ele>
        <time>2016-05-15T06:37:53.000Z</time>
      </trkpt>
      <trkpt lat="44.04843" lon="7.1925">
        <ele>1781</ele>
        <time>2016-05-15T06:37:59.000Z</time>
      </trkpt>
      <trkpt lat="44.04844" lon="7.19252">
        <ele>1784</ele>
        <time>2016-05-15T06:38:01.000Z</time>
      </trkpt>
      <trkpt lat="44.04844" lon="7.19261">
        <ele>1783</ele>
        <time>2016-05-15T06:38:08.000Z</time>
      </trkpt>
      <trkpt lat="44.04845" lon="7.19263">
        <ele>1783</ele>
        <time>2016-05-15T06:38:09.000Z</time>
      </trkpt>
      <trkpt lat="44.04844" lon="7.19271">
        <ele>1782</ele>
        <time>2016-05-15T06:38:16.000Z</time>
      </trkpt>
      <trkpt lat="44.04845" lon="7.19279">
        <ele>1782</ele>
        <time>2016-05-15T06:38:22.000Z</time>
      </trkpt>
      <trkpt lat="44.04846" lon="7.19282">
        <ele>1782</ele>
        <time>2016-05-15T06:38:24.000Z</time>
      </trkpt>
      <trkpt lat="44.04846" lon="7.19287">
        <ele>1782</ele>
        <time>2016-05-15T06:38:27.000Z</time>
      </trkpt>
      <trkpt lat="44.04846" lon="7.1929">
        <ele>1782</ele>
        <time>2016-05-15T06:38:29.000Z</time>
      </trkpt>
      <trkpt lat="44.04846" lon="7.19294">
        <ele>1782</ele>
        <time>2016-05-15T06:38:31.000Z</time>
      </trkpt>
      <trkpt lat="44.04845" lon="7.19298">
        <ele>1783</ele>
        <time>2016-05-15T06:38:35.000Z</time>
      </trkpt>
      <trkpt lat="44.04844" lon="7.193">
        <ele>1783</ele>
        <time>2016-05-15T06:38:36.000Z</time>
      </trkpt>
      <trkpt lat="44.04845" lon="7.1931">
        <ele>1784</ele>
        <time>2016-05-15T06:38:40.000Z</time>
      </trkpt>
      <trkpt lat="44.04844" lon="7.19317">
        <ele>1786</ele>
        <time>2016-05-15T06:38:42.000Z</time>
      </trkpt>
      <trkpt lat="44.0484" lon="7.19334">
        <ele>1793</ele>
        <time>2016-05-15T06:38:48.000Z</time>
      </trkpt>
      <trkpt lat="44.0484" lon="7.19347">
        <ele>1791</ele>
        <time>2016-05-15T06:38:53.000Z</time>
      </trkpt>
      <trkpt lat="44.04841" lon="7.19358">
        <ele>1790</ele>
        <time>2016-05-15T06:38:59.000Z</time>
      </trkpt>
      <trkpt lat="44.04842" lon="7.19366">
        <ele>1790</ele>
        <time>2016-05-15T06:39:04.000Z</time>
      </trkpt>
      <trkpt lat="44.04841" lon="7.19366">
        <ele>1790</ele>
        <time>2016-05-15T06:39:05.000Z</time>
      </trkpt>
      <trkpt lat="44.04842" lon="7.19368">
        <ele>1790</ele>
        <time>2016-05-15T06:39:06.000Z</time>
      </trkpt>
      <trkpt lat="44.04843" lon="7.1937">
        <ele>1790</ele>
        <time>2016-05-15T06:39:08.000Z</time>
      </trkpt>
      <trkpt lat="44.04843" lon="7.19373">
        <ele>1790</ele>
        <time>2016-05-15T06:39:10.000Z</time>
      </trkpt>
      <trkpt lat="44.04843" lon="7.19374">
        <ele>1790</ele>
        <time>2016-05-15T06:39:11.000Z</time>
      </trkpt>
      <trkpt lat="44.04844" lon="7.19382">
        <ele>1791</ele>
        <time>2016-05-15T06:39:16.000Z</time>
      </trkpt>
      <trkpt lat="44.04845" lon="7.19388">
        <ele>1791</ele>
        <time>2016-05-15T06:39:20.000Z</time>
      </trkpt>
      <trkpt lat="44.04846" lon="7.19391">
        <ele>1792</ele>
        <time>2016-05-15T06:39:23.000Z</time>
      </trkpt>
      <trkpt lat="44.04847" lon="7.19396">
        <ele>1792</ele>
        <time>2016-05-15T06:39:28.000Z</time>
      </trkpt>
      <trkpt lat="44.04847" lon="7.19399">
        <ele>1793</ele>
        <time>2016-05-15T06:39:30.000Z</time>
      </trkpt>
      <trkpt lat="44.04847" lon="7.19406">
        <ele>1794</ele>
        <time>2016-05-15T06:39:36.000Z</time>
      </trkpt>
      <trkpt lat="44.04848" lon="7.19406">
        <ele>1794</ele>
        <time>2016-05-15T06:39:37.000Z</time>
      </trkpt>
      <trkpt lat="44.04851" lon="7.19415">
        <ele>1794</ele>
        <time>2016-05-15T06:39:44.000Z</time>
      </trkpt>
      <trkpt lat="44.04852" lon="7.19416">
        <ele>1794</ele>
        <time>2016-05-15T06:39:45.000Z</time>
      </trkpt>
      <trkpt lat="44.04854" lon="7.19425">
        <ele>1797</ele>
        <time>2016-05-15T06:39:51.000Z</time>
      </trkpt>
      <trkpt lat="44.04854" lon="7.19427">
        <ele>1797</ele>
        <time>2016-05-15T06:39:52.000Z</time>
      </trkpt>
      <trkpt lat="44.04857" lon="7.19436">
        <ele>1796</ele>
        <time>2016-05-15T06:39:59.000Z</time>
      </trkpt>
      <trkpt lat="44.04857" lon="7.19437">
        <ele>1796</ele>
        <time>2016-05-15T06:40:00.000Z</time>
      </trkpt>
      <trkpt lat="44.04857" lon="7.19438">
        <ele>1796</ele>
        <time>2016-05-15T06:40:01.000Z</time>
      </trkpt>
      <trkpt lat="44.04859" lon="7.19445">
        <ele>1796</ele>
        <time>2016-05-15T06:40:07.000Z</time>
      </trkpt>
      <trkpt lat="44.0486" lon="7.19447">
        <ele>1796</ele>
        <time>2016-05-15T06:40:09.000Z</time>
      </trkpt>
      <trkpt lat="44.04862" lon="7.19451">
        <ele>1796</ele>
        <time>2016-05-15T06:40:14.000Z</time>
      </trkpt>
      <trkpt lat="44.04862" lon="7.19454">
        <ele>1796</ele>
        <time>2016-05-15T06:40:17.000Z</time>
      </trkpt>
      <trkpt lat="44.04862" lon="7.19456">
        <ele>1796</ele>
        <time>2016-05-15T06:40:19.000Z</time>
      </trkpt>
      <trkpt lat="44.04862" lon="7.19459">
        <ele>1796</ele>
        <time>2016-05-15T06:40:22.000Z</time>
      </trkpt>
      <trkpt lat="44.04862" lon="7.1946">
        <ele>1796</ele>
        <time>2016-05-15T06:40:23.000Z</time>
      </trkpt>
      <trkpt lat="44.04862" lon="7.19463">
        <ele>1796</ele>
        <time>2016-05-15T06:40:25.000Z</time>
      </trkpt>
      <trkpt lat="44.04862" lon="7.19468">
        <ele>1797</ele>
        <time>2016-05-15T06:40:29.000Z</time>
      </trkpt>
      <trkpt lat="44.04861" lon="7.19474">
        <ele>1797</ele>
        <time>2016-05-15T06:40:33.000Z</time>
      </trkpt>
      <trkpt lat="44.04861" lon="7.19481">
        <ele>1798</ele>
        <time>2016-05-15T06:40:39.000Z</time>
      </trkpt>
      <trkpt lat="44.04861" lon="7.19484">
        <ele>1798</ele>
        <time>2016-05-15T06:40:42.000Z</time>
      </trkpt>
      <trkpt lat="44.04861" lon="7.19485">
        <ele>1798</ele>
        <time>2016-05-15T06:40:43.000Z</time>
      </trkpt>
      <trkpt lat="44.0486" lon="7.19492">
        <ele>1799</ele>
        <time>2016-05-15T06:40:49.000Z</time>
      </trkpt>
      <trkpt lat="44.0486" lon="7.19496">
        <ele>1799</ele>
        <time>2016-05-15T06:40:53.000Z</time>
      </trkpt>
      <trkpt lat="44.04859" lon="7.19498">
        <ele>1799</ele>
        <time>2016-05-15T06:40:54.000Z</time>
      </trkpt>
      <trkpt lat="44.04855" lon="7.19514">
        <ele>1805</ele>
        <time>2016-05-15T06:41:01.000Z</time>
      </trkpt>
      <trkpt lat="44.04855" lon="7.19527">
        <ele>1805</ele>
        <time>2016-05-15T06:41:07.000Z</time>
      </trkpt>
      <trkpt lat="44.04855" lon="7.19529">
        <ele>1805</ele>
        <time>2016-05-15T06:41:08.000Z</time>
      </trkpt>
      <trkpt lat="44.04856" lon="7.19533">
        <ele>1805</ele>
        <time>2016-05-15T06:41:11.000Z</time>
      </trkpt>
      <trkpt lat="44.04856" lon="7.19533">
        <ele>1805</ele>
        <time>2016-05-15T06:41:12.000Z</time>
      </trkpt>
      <trkpt lat="44.04856" lon="7.19535">
        <ele>1805</ele>
        <time>2016-05-15T06:41:13.000Z</time>
      </trkpt>
      <trkpt lat="44.04856" lon="7.19541">
        <ele>1805</ele>
        <time>2016-05-15T06:41:18.000Z</time>
      </trkpt>
      <trkpt lat="44.04856" lon="7.19543">
        <ele>1806</ele>
        <time>2016-05-15T06:41:19.000Z</time>
      </trkpt>
      <trkpt lat="44.04855" lon="7.19551">
        <ele>1806</ele>
        <time>2016-05-15T06:41:25.000Z</time>
      </trkpt>
      <trkpt lat="44.04855" lon="7.19556">
        <ele>1807</ele>
        <time>2016-05-15T06:41:28.000Z</time>
      </trkpt>
      <trkpt lat="44.04854" lon="7.19562">
        <ele>1807</ele>
        <time>2016-05-15T06:41:32.000Z</time>
      </trkpt>
      <trkpt lat="44.04854" lon="7.19569">
        <ele>1808</ele>
        <time>2016-05-15T06:41:37.000Z</time>
      </trkpt>
      <trkpt lat="44.04853" lon="7.19574">
        <ele>1809</ele>
        <time>2016-05-15T06:41:42.000Z</time>
      </trkpt>
      <trkpt lat="44.04852" lon="7.19575">
        <ele>1809</ele>
        <time>2016-05-15T06:41:43.000Z</time>
      </trkpt>
      <trkpt lat="44.04852" lon="7.19576">
        <ele>1809</ele>
        <time>2016-05-15T06:41:44.000Z</time>
      </trkpt>
      <trkpt lat="44.0485" lon="7.19585">
        <ele>1813</ele>
        <time>2016-05-15T06:41:49.000Z</time>
      </trkpt>
      <trkpt lat="44.04852" lon="7.19601">
        <ele>1813</ele>
        <time>2016-05-15T06:41:56.000Z</time>
      </trkpt>
      <trkpt lat="44.04853" lon="7.19617">
        <ele>1813</ele>
        <time>2016-05-15T06:42:03.000Z</time>
      </trkpt>
      <trkpt lat="44.04853" lon="7.1962">
        <ele>1813</ele>
        <time>2016-05-15T06:42:04.000Z</time>
      </trkpt>
      <trkpt lat="44.04849" lon="7.19641">
        <ele>1815</ele>
        <time>2016-05-15T06:42:12.000Z</time>
      </trkpt>
      <trkpt lat="44.04843" lon="7.19663">
        <ele>1821</ele>
        <time>2016-05-15T06:42:21.000Z</time>
      </trkpt>
      <trkpt lat="44.04842" lon="7.19665">
        <ele>1822</ele>
        <time>2016-05-15T06:42:22.000Z</time>
      </trkpt>
      <trkpt lat="44.0484" lon="7.19679">
        <ele>1822</ele>
        <time>2016-05-15T06:42:29.000Z</time>
      </trkpt>
      <trkpt lat="44.04839" lon="7.19682">
        <ele>1821</ele>
        <time>2016-05-15T06:42:31.000Z</time>
      </trkpt>
      <trkpt lat="44.04838" lon="7.19685">
        <ele>1821</ele>
        <time>2016-05-15T06:42:33.000Z</time>
      </trkpt>
      <trkpt lat="44.04835" lon="7.19693">
        <ele>1821</ele>
        <time>2016-05-15T06:42:38.000Z</time>
      </trkpt>
      <trkpt lat="44.04834" lon="7.19695">
        <ele>1821</ele>
        <time>2016-05-15T06:42:40.000Z</time>
      </trkpt>
      <trkpt lat="44.0483" lon="7.19703">
        <ele>1826</ele>
        <time>2016-05-15T06:42:45.000Z</time>
      </trkpt>
      <trkpt lat="44.04827" lon="7.19707">
        <ele>1826</ele>
        <time>2016-05-15T06:42:48.000Z</time>
      </trkpt>
      <trkpt lat="44.04824" lon="7.19711">
        <ele>1827</ele>
        <time>2016-05-15T06:42:51.000Z</time>
      </trkpt>
      <trkpt lat="44.04821" lon="7.19718">
        <ele>1827</ele>
        <time>2016-05-15T06:42:55.000Z</time>
      </trkpt>
      <trkpt lat="44.04817" lon="7.19727">
        <ele>1828</ele>
        <time>2016-05-15T06:43:00.000Z</time>
      </trkpt>
      <trkpt lat="44.04814" lon="7.19733">
        <ele>1829</ele>
        <time>2016-05-15T06:43:04.000Z</time>
      </trkpt>
      <trkpt lat="44.04813" lon="7.19737">
        <ele>1829</ele>
        <time>2016-05-15T06:43:07.000Z</time>
      </trkpt>
      <trkpt lat="44.0481" lon="7.19745">
        <ele>1829</ele>
        <time>2016-05-15T06:43:12.000Z</time>
      </trkpt>
      <trkpt lat="44.04809" lon="7.19746">
        <ele>1829</ele>
        <time>2016-05-15T06:43:13.000Z</time>
      </trkpt>
      <trkpt lat="44.04808" lon="7.19749">
        <ele>1829</ele>
        <time>2016-05-15T06:43:17.000Z</time>
      </trkpt>
      <trkpt lat="44.04808" lon="7.1975">
        <ele>1829</ele>
        <time>2016-05-15T06:43:18.000Z</time>
      </trkpt>
      <trkpt lat="44.04806" lon="7.19757">
        <ele>1839</ele>
        <time>2016-05-15T06:43:25.000Z</time>
      </trkpt>
      <trkpt lat="44.04805" lon="7.19758">
        <ele>1839</ele>
        <time>2016-05-15T06:43:26.000Z</time>
      </trkpt>
      <trkpt lat="44.04803" lon="7.19764">
        <ele>1839</ele>
        <time>2016-05-15T06:43:31.000Z</time>
      </trkpt>
      <trkpt lat="44.04801" lon="7.19766">
        <ele>1839</ele>
        <time>2016-05-15T06:43:33.000Z</time>
      </trkpt>
      <trkpt lat="44.04799" lon="7.19767">
        <ele>1839</ele>
        <time>2016-05-15T06:43:36.000Z</time>
      </trkpt>
      <trkpt lat="44.04799" lon="7.19768">
        <ele>1840</ele>
        <time>2016-05-15T06:43:37.000Z</time>
      </trkpt>
      <trkpt lat="44.04796" lon="7.19771">
        <ele>1840</ele>
        <time>2016-05-15T06:43:41.000Z</time>
      </trkpt>
      <trkpt lat="44.04796" lon="7.19771">
        <ele>1840</ele>
        <time>2016-05-15T06:43:42.000Z</time>
      </trkpt>
      <trkpt lat="44.04792" lon="7.19775">
        <ele>1840</ele>
        <time>2016-05-15T06:43:48.000Z</time>
      </trkpt>
      <trkpt lat="44.04792" lon="7.19776">
        <ele>1840</ele>
        <time>2016-05-15T06:43:50.000Z</time>
      </trkpt>
      <trkpt lat="44.0479" lon="7.19778">
        <ele>1840</ele>
        <time>2016-05-15T06:43:53.000Z</time>
      </trkpt>
      <trkpt lat="44.04787" lon="7.19783">
        <ele>1841</ele>
        <time>2016-05-15T06:43:59.000Z</time>
      </trkpt>
      <trkpt lat="44.04783" lon="7.19788">
        <ele>1841</ele>
        <time>2016-05-15T06:44:06.000Z</time>
      </trkpt>
      <trkpt lat="44.04782" lon="7.1979">
        <ele>1842</ele>
        <time>2016-05-15T06:44:10.000Z</time>
      </trkpt>
      <trkpt lat="44.04779" lon="7.19793">
        <ele>1842</ele>
        <time>2016-05-15T06:44:14.000Z</time>
      </trkpt>
      <trkpt lat="44.04779" lon="7.19794">
        <ele>1842</ele>
        <time>2016-05-15T06:44:16.000Z</time>
      </trkpt>
      <trkpt lat="44.04776" lon="7.19797">
        <ele>1843</ele>
        <time>2016-05-15T06:44:21.000Z</time>
      </trkpt>
      <trkpt lat="44.04773" lon="7.19801">
        <ele>1844</ele>
        <time>2016-05-15T06:44:28.000Z</time>
      </trkpt>
      <trkpt lat="44.0477" lon="7.19804">
        <ele>1845</ele>
        <time>2016-05-15T06:44:33.000Z</time>
      </trkpt>
      <trkpt lat="44.04769" lon="7.19804">
        <ele>1845</ele>
        <time>2016-05-15T06:44:35.000Z</time>
      </trkpt>
      <trkpt lat="44.04767" lon="7.19806">
        <ele>1846</ele>
        <time>2016-05-15T06:44:39.000Z</time>
      </trkpt>
      <trkpt lat="44.04765" lon="7.19807">
        <ele>1846</ele>
        <time>2016-05-15T06:44:41.000Z</time>
      </trkpt>
      <trkpt lat="44.04761" lon="7.1981">
        <ele>1847</ele>
        <time>2016-05-15T06:44:47.000Z</time>
      </trkpt>
      <trkpt lat="44.04759" lon="7.19811">
        <ele>1848</ele>
        <time>2016-05-15T06:44:50.000Z</time>
      </trkpt>
      <trkpt lat="44.04759" lon="7.19812">
        <ele>1848</ele>
        <time>2016-05-15T06:44:51.000Z</time>
      </trkpt>
      <trkpt lat="44.04756" lon="7.19815">
        <ele>1849</ele>
        <time>2016-05-15T06:44:57.000Z</time>
      </trkpt>
      <trkpt lat="44.04753" lon="7.19816">
        <ele>1850</ele>
        <time>2016-05-15T06:45:00.000Z</time>
      </trkpt>
      <trkpt lat="44.04752" lon="7.19818">
        <ele>1851</ele>
        <time>2016-05-15T06:45:03.000Z</time>
      </trkpt>
      <trkpt lat="44.04751" lon="7.19819">
        <ele>1852</ele>
        <time>2016-05-15T06:45:04.000Z</time>
      </trkpt>
      <trkpt lat="44.04749" lon="7.1982">
        <ele>1848</ele>
        <time>2016-05-15T06:45:07.000Z</time>
      </trkpt>
      <trkpt lat="44.04746" lon="7.19821">
        <ele>1848</ele>
        <time>2016-05-15T06:45:10.000Z</time>
      </trkpt>
      <trkpt lat="44.04742" lon="7.19825">
        <ele>1849</ele>
        <time>2016-05-15T06:45:17.000Z</time>
      </trkpt>
      <trkpt lat="44.04738" lon="7.19828">
        <ele>1848</ele>
        <time>2016-05-15T06:45:23.000Z</time>
      </trkpt>
      <trkpt lat="44.04737" lon="7.1983">
        <ele>1848</ele>
        <time>2016-05-15T06:45:26.000Z</time>
      </trkpt>
      <trkpt lat="44.04736" lon="7.19831">
        <ele>1847</ele>
        <time>2016-05-15T06:45:28.000Z</time>
      </trkpt>
      <trkpt lat="44.04733" lon="7.19834">
        <ele>1859</ele>
        <time>2016-05-15T06:45:33.000Z</time>
      </trkpt>
      <trkpt lat="44.0473" lon="7.19837">
        <ele>1859</ele>
        <time>2016-05-15T06:45:39.000Z</time>
      </trkpt>
      <trkpt lat="44.04729" lon="7.19837">
        <ele>1858</ele>
        <time>2016-05-15T06:45:40.000Z</time>
      </trkpt>
      <trkpt lat="44.04727" lon="7.19841">
        <ele>1858</ele>
        <time>2016-05-15T06:45:46.000Z</time>
      </trkpt>
      <trkpt lat="44.04726" lon="7.19844">
        <ele>1858</ele>
        <time>2016-05-15T06:45:50.000Z</time>
      </trkpt>
      <trkpt lat="44.04725" lon="7.19847">
        <ele>1858</ele>
        <time>2016-05-15T06:45:53.000Z</time>
      </trkpt>
      <trkpt lat="44.04724" lon="7.19851">
        <ele>1859</ele>
        <time>2016-05-15T06:45:58.000Z</time>
      </trkpt>
      <trkpt lat="44.04723" lon="7.19853">
        <ele>1859</ele>
        <time>2016-05-15T06:46:01.000Z</time>
      </trkpt>
      <trkpt lat="44.04722" lon="7.19858">
        <ele>1859</ele>
        <time>2016-05-15T06:46:07.000Z</time>
      </trkpt>
      <trkpt lat="44.04721" lon="7.19859">
        <ele>1859</ele>
        <time>2016-05-15T06:46:08.000Z</time>
      </trkpt>
      <trkpt lat="44.0472" lon="7.19863">
        <ele>1859</ele>
        <time>2016-05-15T06:46:13.000Z</time>
      </trkpt>
      <trkpt lat="44.04718" lon="7.19866">
        <ele>1859</ele>
        <time>2016-05-15T06:46:16.000Z</time>
      </trkpt>
      <trkpt lat="44.04714" lon="7.19873">
        <ele>1860</ele>
        <time>2016-05-15T06:46:23.000Z</time>
      </trkpt>
      <trkpt lat="44.04711" lon="7.19882">
        <ele>1861</ele>
        <time>2016-05-15T06:46:30.000Z</time>
      </trkpt>
      <trkpt lat="44.04709" lon="7.19887">
        <ele>1861</ele>
        <time>2016-05-15T06:46:35.000Z</time>
      </trkpt>
      <trkpt lat="44.04707" lon="7.19891">
        <ele>1861</ele>
        <time>2016-05-15T06:46:38.000Z</time>
      </trkpt>
      <trkpt lat="44.04705" lon="7.19894">
        <ele>1861</ele>
        <time>2016-05-15T06:46:44.000Z</time>
      </trkpt>
      <trkpt lat="44.04702" lon="7.19901">
        <ele>1861</ele>
        <time>2016-05-15T06:46:51.000Z</time>
      </trkpt>
      <trkpt lat="44.04702" lon="7.19902">
        <ele>1861</ele>
        <time>2016-05-15T06:46:56.000Z</time>
      </trkpt>
      <trkpt lat="44.04702" lon="7.19902">
        <ele>1861</ele>
        <time>2016-05-15T06:46:58.000Z</time>
      </trkpt>
      <trkpt lat="44.04701" lon="7.19901">
        <ele>1861</ele>
        <time>2016-05-15T06:47:18.000Z</time>
      </trkpt>
      <trkpt lat="44.04699" lon="7.19907">
        <ele>1860</ele>
        <time>2016-05-15T06:47:24.000Z</time>
      </trkpt>
      <trkpt lat="44.04698" lon="7.1991">
        <ele>1860</ele>
        <time>2016-05-15T06:47:27.000Z</time>
      </trkpt>
      <trkpt lat="44.04695" lon="7.19914">
        <ele>1860</ele>
        <time>2016-05-15T06:47:30.000Z</time>
      </trkpt>
      <trkpt lat="44.04694" lon="7.19918">
        <ele>1871</ele>
        <time>2016-05-15T06:47:33.000Z</time>
      </trkpt>
      <trkpt lat="44.04694" lon="7.19922">
        <ele>1871</ele>
        <time>2016-05-15T06:47:37.000Z</time>
      </trkpt>
      <trkpt lat="44.04693" lon="7.19926">
        <ele>1871</ele>
        <time>2016-05-15T06:47:40.000Z</time>
      </trkpt>
      <trkpt lat="44.04692" lon="7.19934">
        <ele>1872</ele>
        <time>2016-05-15T06:47:46.000Z</time>
      </trkpt>
      <trkpt lat="44.04691" lon="7.19936">
        <ele>1872</ele>
        <time>2016-05-15T06:47:48.000Z</time>
      </trkpt>
      <trkpt lat="44.04688" lon="7.19946">
        <ele>1873</ele>
        <time>2016-05-15T06:47:54.000Z</time>
      </trkpt>
      <trkpt lat="44.04683" lon="7.19959">
        <ele>1875</ele>
        <time>2016-05-15T06:48:03.000Z</time>
      </trkpt>
      <trkpt lat="44.04681" lon="7.19966">
        <ele>1875</ele>
        <time>2016-05-15T06:48:08.000Z</time>
      </trkpt>
      <trkpt lat="44.04679" lon="7.19972">
        <ele>1875</ele>
        <time>2016-05-15T06:48:12.000Z</time>
      </trkpt>
      <trkpt lat="44.04675" lon="7.19982">
        <ele>1875</ele>
        <time>2016-05-15T06:48:19.000Z</time>
      </trkpt>
      <trkpt lat="44.04673" lon="7.19996">
        <ele>1874</ele>
        <time>2016-05-15T06:48:27.000Z</time>
      </trkpt>
      <trkpt lat="44.04669" lon="7.20008">
        <ele>1877</ele>
        <time>2016-05-15T06:48:34.000Z</time>
      </trkpt>
      <trkpt lat="44.04668" lon="7.20017">
        <ele>1880</ele>
        <time>2016-05-15T06:48:39.000Z</time>
      </trkpt>
      <trkpt lat="44.04666" lon="7.20025">
        <ele>1865</ele>
        <time>2016-05-15T06:48:44.000Z</time>
      </trkpt>
      <trkpt lat="44.04665" lon="7.20035">
        <ele>1865</ele>
        <time>2016-05-15T06:48:52.000Z</time>
      </trkpt>
      <trkpt lat="44.04665" lon="7.20036">
        <ele>1865</ele>
        <time>2016-05-15T06:48:53.000Z</time>
      </trkpt>
      <trkpt lat="44.04665" lon="7.20038">
        <ele>1865</ele>
        <time>2016-05-15T06:48:54.000Z</time>
      </trkpt>
      <trkpt lat="44.04665" lon="7.20044">
        <ele>1866</ele>
        <time>2016-05-15T06:48:57.000Z</time>
      </trkpt>
      <trkpt lat="44.04663" lon="7.20059">
        <ele>1870</ele>
        <time>2016-05-15T06:49:03.000Z</time>
      </trkpt>
      <trkpt lat="44.04663" lon="7.20064">
        <ele>1872</ele>
        <time>2016-05-15T06:49:05.000Z</time>
      </trkpt>
      <trkpt lat="44.04657" lon="7.20091">
        <ele>1882</ele>
        <time>2016-05-15T06:49:13.000Z</time>
      </trkpt>
      <trkpt lat="44.04651" lon="7.20114">
        <ele>1879</ele>
        <time>2016-05-15T06:49:20.000Z</time>
      </trkpt>
      <trkpt lat="44.04643" lon="7.20127">
        <ele>1878</ele>
        <time>2016-05-15T06:49:26.000Z</time>
      </trkpt>
      <trkpt lat="44.04641" lon="7.20129">
        <ele>1878</ele>
        <time>2016-05-15T06:49:27.000Z</time>
      </trkpt>
      <trkpt lat="44.04634" lon="7.20143">
        <ele>1878</ele>
        <time>2016-05-15T06:49:34.000Z</time>
      </trkpt>
      <trkpt lat="44.04628" lon="7.20152">
        <ele>1878</ele>
        <time>2016-05-15T06:49:39.000Z</time>
      </trkpt>
      <trkpt lat="44.04621" lon="7.20161">
        <ele>1876</ele>
        <time>2016-05-15T06:49:44.000Z</time>
      </trkpt>
      <trkpt lat="44.0462" lon="7.20162">
        <ele>1876</ele>
        <time>2016-05-15T06:49:45.000Z</time>
      </trkpt>
      <trkpt lat="44.04609" lon="7.20175">
        <ele>1889</ele>
        <time>2016-05-15T06:49:53.000Z</time>
      </trkpt>
      <trkpt lat="44.04605" lon="7.2018">
        <ele>1889</ele>
        <time>2016-05-15T06:49:57.000Z</time>
      </trkpt>
      <trkpt lat="44.04603" lon="7.20184">
        <ele>1889</ele>
        <time>2016-05-15T06:50:00.000Z</time>
      </trkpt>
      <trkpt lat="44.04603" lon="7.20184">
        <ele>1889</ele>
        <time>2016-05-15T06:50:02.000Z</time>
      </trkpt>
      <trkpt lat="44.04601" lon="7.20186">
        <ele>1889</ele>
        <time>2016-05-15T06:50:05.000Z</time>
      </trkpt>
      <trkpt lat="44.04598" lon="7.2019">
        <ele>1890</ele>
        <time>2016-05-15T06:50:11.000Z</time>
      </trkpt>
      <trkpt lat="44.04597" lon="7.20191">
        <ele>1890</ele>
        <time>2016-05-15T06:50:12.000Z</time>
      </trkpt>
      <trkpt lat="44.04594" lon="7.20195">
        <ele>1891</ele>
        <time>2016-05-15T06:50:18.000Z</time>
      </trkpt>
      <trkpt lat="44.04592" lon="7.20198">
        <ele>1892</ele>
        <time>2016-05-15T06:50:22.000Z</time>
      </trkpt>
      <trkpt lat="44.0459" lon="7.20202">
        <ele>1893</ele>
        <time>2016-05-15T06:50:27.000Z</time>
      </trkpt>
      <trkpt lat="44.04588" lon="7.20205">
        <ele>1894</ele>
        <time>2016-05-15T06:50:31.000Z</time>
      </trkpt>
      <trkpt lat="44.04586" lon="7.20207">
        <ele>1895</ele>
        <time>2016-05-15T06:50:34.000Z</time>
      </trkpt>
      <trkpt lat="44.04586" lon="7.20208">
        <ele>1895</ele>
        <time>2016-05-15T06:50:37.000Z</time>
      </trkpt>
      <trkpt lat="44.04583" lon="7.20209">
        <ele>1878</ele>
        <time>2016-05-15T06:50:43.000Z</time>
      </trkpt>
      <trkpt lat="44.04577" lon="7.20214">
        <ele>1879</ele>
        <time>2016-05-15T06:50:48.000Z</time>
      </trkpt>
      <trkpt lat="44.04568" lon="7.2022">
        <ele>1880</ele>
        <time>2016-05-15T06:50:53.000Z</time>
      </trkpt>
      <trkpt lat="44.04556" lon="7.2023">
        <ele>1880</ele>
        <time>2016-05-15T06:50:57.000Z</time>
      </trkpt>
      <trkpt lat="44.0455" lon="7.20233">
        <ele>1879</ele>
        <time>2016-05-15T06:50:59.000Z</time>
      </trkpt>
      <trkpt lat="44.04539" lon="7.20239">
        <ele>1877</ele>
        <time>2016-05-15T06:51:03.000Z</time>
      </trkpt>
      <trkpt lat="44.04532" lon="7.20243">
        <ele>1875</ele>
        <time>2016-05-15T06:51:05.000Z</time>
      </trkpt>
      <trkpt lat="44.04513" lon="7.20262">
        <ele>1889</ele>
        <time>2016-05-15T06:51:11.000Z</time>
      </trkpt>
      <trkpt lat="44.04496" lon="7.20282">
        <ele>1872</ele>
        <time>2016-05-15T06:51:17.000Z</time>
      </trkpt>
      <trkpt lat="44.04484" lon="7.20306">
        <ele>1876</ele>
        <time>2016-05-15T06:51:22.000Z</time>
      </trkpt>
      <trkpt lat="44.04483" lon="7.2031">
        <ele>1877</ele>
        <time>2016-05-15T06:51:23.000Z</time>
      </trkpt>
      <trkpt lat="44.04482" lon="7.20319">
        <ele>1880</ele>
        <time>2016-05-15T06:51:27.000Z</time>
      </trkpt>
      <trkpt lat="44.0448" lon="7.20322">
        <ele>1880</ele>
        <time>2016-05-15T06:51:31.000Z</time>
      </trkpt>
      <trkpt lat="44.04477" lon="7.2033">
        <ele>1880</ele>
        <time>2016-05-15T06:51:37.000Z</time>
      </trkpt>
      <trkpt lat="44.04476" lon="7.2033">
        <ele>1880</ele>
        <time>2016-05-15T06:51:38.000Z</time>
      </trkpt>
      <trkpt lat="44.04475" lon="7.20332">
        <ele>1880</ele>
        <time>2016-05-15T06:51:39.000Z</time>
      </trkpt>
      <trkpt lat="44.04473" lon="7.20334">
        <ele>1897</ele>
        <time>2016-05-15T06:51:40.000Z</time>
      </trkpt>
      <trkpt lat="44.04468" lon="7.20337">
        <ele>1896</ele>
        <time>2016-05-15T06:51:42.000Z</time>
      </trkpt>
      <trkpt lat="44.04461" lon="7.2035">
        <ele>1896</ele>
        <time>2016-05-15T06:51:47.000Z</time>
      </trkpt>
      <trkpt lat="44.04451" lon="7.20359">
        <ele>1894</ele>
        <time>2016-05-15T06:51:52.000Z</time>
      </trkpt>
      <trkpt lat="44.04439" lon="7.20371">
        <ele>1894</ele>
        <time>2016-05-15T06:51:59.000Z</time>
      </trkpt>
      <trkpt lat="44.04433" lon="7.20377">
        <ele>1895</ele>
        <time>2016-05-15T06:52:03.000Z</time>
      </trkpt>
      <trkpt lat="44.04429" lon="7.2038">
        <ele>1895</ele>
        <time>2016-05-15T06:52:06.000Z</time>
      </trkpt>
      <trkpt lat="44.04427" lon="7.20383">
        <ele>1896</ele>
        <time>2016-05-15T06:52:08.000Z</time>
      </trkpt>
      <trkpt lat="44.04419" lon="7.20391">
        <ele>1897</ele>
        <time>2016-05-15T06:52:13.000Z</time>
      </trkpt>
      <trkpt lat="44.04416" lon="7.20394">
        <ele>1883</ele>
        <time>2016-05-15T06:52:15.000Z</time>
      </trkpt>
      <trkpt lat="44.04403" lon="7.20405">
        <ele>1885</ele>
        <time>2016-05-15T06:52:22.000Z</time>
      </trkpt>
      <trkpt lat="44.04383" lon="7.20419">
        <ele>1901</ele>
        <time>2016-05-15T06:52:31.000Z</time>
      </trkpt>
      <trkpt lat="44.04375" lon="7.20424">
        <ele>1900</ele>
        <time>2016-05-15T06:52:35.000Z</time>
      </trkpt>
      <trkpt lat="44.04363" lon="7.20432">
        <ele>1899</ele>
        <time>2016-05-15T06:52:41.000Z</time>
      </trkpt>
      <trkpt lat="44.04359" lon="7.20434">
        <ele>1898</ele>
        <time>2016-05-15T06:52:43.000Z</time>
      </trkpt>
      <trkpt lat="44.04353" lon="7.20438">
        <ele>1897</ele>
        <time>2016-05-15T06:52:47.000Z</time>
      </trkpt>
      <trkpt lat="44.0435" lon="7.20441">
        <ele>1898</ele>
        <time>2016-05-15T06:52:49.000Z</time>
      </trkpt>
      <trkpt lat="44.04339" lon="7.20444">
        <ele>1897</ele>
        <time>2016-05-15T06:52:55.000Z</time>
      </trkpt>
      <trkpt lat="44.04338" lon="7.20445">
        <ele>1897</ele>
        <time>2016-05-15T06:52:56.000Z</time>
      </trkpt>
      <trkpt lat="44.04331" lon="7.20448">
        <ele>1892</ele>
        <time>2016-05-15T06:53:02.000Z</time>
      </trkpt>
      <trkpt lat="44.0433" lon="7.20449">
        <ele>1893</ele>
        <time>2016-05-15T06:53:03.000Z</time>
      </trkpt>
      <trkpt lat="44.04326" lon="7.20451">
        <ele>1894</ele>
        <time>2016-05-15T06:53:09.000Z</time>
      </trkpt>
      <trkpt lat="44.04325" lon="7.20451">
        <ele>1894</ele>
        <time>2016-05-15T06:53:14.000Z</time>
      </trkpt>
      <trkpt lat="44.04322" lon="7.20451">
        <ele>1894</ele>
        <time>2016-05-15T06:53:20.000Z</time>
      </trkpt>
      <trkpt lat="44.04321" lon="7.20453">
        <ele>1894</ele>
        <time>2016-05-15T06:53:24.000Z</time>
      </trkpt>
      <trkpt lat="44.04315" lon="7.20458">
        <ele>1896</ele>
        <time>2016-05-15T06:53:30.000Z</time>
      </trkpt>
      <trkpt lat="44.04314" lon="7.20459">
        <ele>1896</ele>
        <time>2016-05-15T06:53:31.000Z</time>
      </trkpt>
      <trkpt lat="44.04314" lon="7.20459">
        <ele>1896</ele>
        <time>2016-05-15T06:53:35.000Z</time>
      </trkpt>
      <trkpt lat="44.04309" lon="7.20462">
        <ele>1897</ele>
        <time>2016-05-15T06:53:42.000Z</time>
      </trkpt>
      <trkpt lat="44.04305" lon="7.20465">
        <ele>1898</ele>
        <time>2016-05-15T06:53:45.000Z</time>
      </trkpt>
      <trkpt lat="44.04297" lon="7.2047">
        <ele>1899</ele>
        <time>2016-05-15T06:53:50.000Z</time>
      </trkpt>
      <trkpt lat="44.04294" lon="7.20472">
        <ele>1899</ele>
        <time>2016-05-15T06:53:52.000Z</time>
      </trkpt>
      <trkpt lat="44.04286" lon="7.20477">
        <ele>1901</ele>
        <time>2016-05-15T06:53:58.000Z</time>
      </trkpt>
      <trkpt lat="44.04276" lon="7.20481">
        <ele>1902</ele>
        <time>2016-05-15T06:54:05.000Z</time>
      </trkpt>
      <trkpt lat="44.04271" lon="7.20482">
        <ele>1903</ele>
        <time>2016-05-15T06:54:09.000Z</time>
      </trkpt>
      <trkpt lat="44.04262" lon="7.20484">
        <ele>1906</ele>
        <time>2016-05-15T06:54:15.000Z</time>
      </trkpt>
      <trkpt lat="44.04261" lon="7.20484">
        <ele>1906</ele>
        <time>2016-05-15T06:54:16.000Z</time>
      </trkpt>
      <trkpt lat="44.04249" lon="7.20481">
        <ele>1909</ele>
        <time>2016-05-15T06:54:23.000Z</time>
      </trkpt>
      <trkpt lat="44.04246" lon="7.20481">
        <ele>1909</ele>
        <time>2016-05-15T06:54:25.000Z</time>
      </trkpt>
      <trkpt lat="44.04238" lon="7.20479">
        <ele>1907</ele>
        <time>2016-05-15T06:54:30.000Z</time>
      </trkpt>
      <trkpt lat="44.04236" lon="7.20478">
        <ele>1907</ele>
        <time>2016-05-15T06:54:32.000Z</time>
      </trkpt>
      <trkpt lat="44.0423" lon="7.20476">
        <ele>1906</ele>
        <time>2016-05-15T06:54:36.000Z</time>
      </trkpt>
      <trkpt lat="44.04221" lon="7.20474">
        <ele>1905</ele>
        <time>2016-05-15T06:54:42.000Z</time>
      </trkpt>
      <trkpt lat="44.04202" lon="7.20471">
        <ele>1905</ele>
        <time>2016-05-15T06:54:53.000Z</time>
      </trkpt>
      <trkpt lat="44.04195" lon="7.20472">
        <ele>1906</ele>
        <time>2016-05-15T06:54:57.000Z</time>
      </trkpt>
      <trkpt lat="44.04183" lon="7.20476">
        <ele>1908</ele>
        <time>2016-05-15T06:55:05.000Z</time>
      </trkpt>
      <trkpt lat="44.04178" lon="7.20478">
        <ele>1909</ele>
        <time>2016-05-15T06:55:08.000Z</time>
      </trkpt>
      <trkpt lat="44.04171" lon="7.2048">
        <ele>1911</ele>
        <time>2016-05-15T06:55:13.000Z</time>
      </trkpt>
      <trkpt lat="44.04167" lon="7.20482">
        <ele>1912</ele>
        <time>2016-05-15T06:55:16.000Z</time>
      </trkpt>
      <trkpt lat="44.04158" lon="7.20487">
        <ele>1918</ele>
        <time>2016-05-15T06:55:22.000Z</time>
      </trkpt>
      <trkpt lat="44.0415" lon="7.20488">
        <ele>1918</ele>
        <time>2016-05-15T06:55:27.000Z</time>
      </trkpt>
      <trkpt lat="44.04149" lon="7.20488">
        <ele>1918</ele>
        <time>2016-05-15T06:55:28.000Z</time>
      </trkpt>
      <trkpt lat="44.04144" lon="7.20487">
        <ele>1917</ele>
        <time>2016-05-15T06:55:32.000Z</time>
      </trkpt>
      <trkpt lat="44.04138" lon="7.20486">
        <ele>1917</ele>
        <time>2016-05-15T06:55:36.000Z</time>
      </trkpt>
      <trkpt lat="44.04134" lon="7.20484">
        <ele>1917</ele>
        <time>2016-05-15T06:55:39.000Z</time>
      </trkpt>
      <trkpt lat="44.04124" lon="7.20481">
        <ele>1917</ele>
        <time>2016-05-15T06:55:45.000Z</time>
      </trkpt>
      <trkpt lat="44.04117" lon="7.20482">
        <ele>1919</ele>
        <time>2016-05-15T06:55:49.000Z</time>
      </trkpt>
      <trkpt lat="44.04111" lon="7.20483">
        <ele>1920</ele>
        <time>2016-05-15T06:55:53.000Z</time>
      </trkpt>
      <trkpt lat="44.04096" lon="7.20487">
        <ele>1926</ele>
        <time>2016-05-15T06:56:01.000Z</time>
      </trkpt>
      <trkpt lat="44.04093" lon="7.20487">
        <ele>1927</ele>
        <time>2016-05-15T06:56:03.000Z</time>
      </trkpt>
      <trkpt lat="44.04085" lon="7.20483">
        <ele>1926</ele>
        <time>2016-05-15T06:56:07.000Z</time>
      </trkpt>
      <trkpt lat="44.0407" lon="7.20472">
        <ele>1934</ele>
        <time>2016-05-15T06:56:15.000Z</time>
      </trkpt>
      <trkpt lat="44.04069" lon="7.20471">
        <ele>1934</ele>
        <time>2016-05-15T06:56:16.000Z</time>
      </trkpt>
      <trkpt lat="44.04066" lon="7.2047">
        <ele>1934</ele>
        <time>2016-05-15T06:56:17.000Z</time>
      </trkpt>
      <trkpt lat="44.04063" lon="7.20467">
        <ele>1933</ele>
        <time>2016-05-15T06:56:20.000Z</time>
      </trkpt>
      <trkpt lat="44.04063" lon="7.20468">
        <ele>1934</ele>
        <time>2016-05-15T06:56:25.000Z</time>
      </trkpt>
      <trkpt lat="44.04062" lon="7.20467">
        <ele>1934</ele>
        <time>2016-05-15T06:56:26.000Z</time>
      </trkpt>
      <trkpt lat="44.04059" lon="7.20466">
        <ele>1934</ele>
        <time>2016-05-15T06:56:31.000Z</time>
      </trkpt>
      <trkpt lat="44.04054" lon="7.20464">
        <ele>1934</ele>
        <time>2016-05-15T06:56:38.000Z</time>
      </trkpt>
      <trkpt lat="44.04054" lon="7.20464">
        <ele>1934</ele>
        <time>2016-05-15T06:56:39.000Z</time>
      </trkpt>
      <trkpt lat="44.04051" lon="7.20463">
        <ele>1934</ele>
        <time>2016-05-15T06:56:46.000Z</time>
      </trkpt>
      <trkpt lat="44.0405" lon="7.20462">
        <ele>1934</ele>
        <time>2016-05-15T06:56:47.000Z</time>
      </trkpt>
      <trkpt lat="44.04049" lon="7.20462">
        <ele>1934</ele>
        <time>2016-05-15T06:56:52.000Z</time>
      </trkpt>
      <trkpt lat="44.04049" lon="7.20462">
        <ele>1934</ele>
        <time>2016-05-15T06:56:53.000Z</time>
      </trkpt>
      <trkpt lat="44.04047" lon="7.2046">
        <ele>1934</ele>
        <time>2016-05-15T06:56:58.000Z</time>
      </trkpt>
      <trkpt lat="44.04044" lon="7.20461">
        <ele>1935</ele>
        <time>2016-05-15T06:57:02.000Z</time>
      </trkpt>
      <trkpt lat="44.04044" lon="7.2046">
        <ele>1935</ele>
        <time>2016-05-15T06:57:03.000Z</time>
      </trkpt>
      <trkpt lat="44.04043" lon="7.2046">
        <ele>1935</ele>
        <time>2016-05-15T06:57:05.000Z</time>
      </trkpt>
      <trkpt lat="44.04041" lon="7.20459">
        <ele>1935</ele>
        <time>2016-05-15T06:57:08.000Z</time>
      </trkpt>
      <trkpt lat="44.04039" lon="7.20458">
        <ele>1935</ele>
        <time>2016-05-15T06:57:12.000Z</time>
      </trkpt>
      <trkpt lat="44.04038" lon="7.20458">
        <ele>1935</ele>
        <time>2016-05-15T06:57:13.000Z</time>
      </trkpt>
      <trkpt lat="44.04035" lon="7.20458">
        <ele>1936</ele>
        <time>2016-05-15T06:57:18.000Z</time>
      </trkpt>
      <trkpt lat="44.04034" lon="7.20457">
        <ele>1936</ele>
        <time>2016-05-15T06:57:19.000Z</time>
      </trkpt>
      <trkpt lat="44.04032" lon="7.20456">
        <ele>1936</ele>
        <time>2016-05-15T06:57:24.000Z</time>
      </trkpt>
      <trkpt lat="44.04031" lon="7.20455">
        <ele>1936</ele>
        <time>2016-05-15T06:57:26.000Z</time>
      </trkpt>
      <trkpt lat="44.04029" lon="7.20454">
        <ele>1936</ele>
        <time>2016-05-15T06:57:32.000Z</time>
      </trkpt>
      <trkpt lat="44.04028" lon="7.20453">
        <ele>1936</ele>
        <time>2016-05-15T06:57:33.000Z</time>
      </trkpt>
      <trkpt lat="44.04026" lon="7.20452">
        <ele>1936</ele>
        <time>2016-05-15T06:57:38.000Z</time>
      </trkpt>
      <trkpt lat="44.04025" lon="7.20452">
        <ele>1936</ele>
        <time>2016-05-15T06:57:39.000Z</time>
      </trkpt>
      <trkpt lat="44.04022" lon="7.2045">
        <ele>1936</ele>
        <time>2016-05-15T06:57:45.000Z</time>
      </trkpt>
      <trkpt lat="44.04022" lon="7.20449">
        <ele>1936</ele>
        <time>2016-05-15T06:57:47.000Z</time>
      </trkpt>
      <trkpt lat="44.04017" lon="7.20448">
        <ele>1937</ele>
        <time>2016-05-15T06:57:54.000Z</time>
      </trkpt>
      <trkpt lat="44.04016" lon="7.20448">
        <ele>1937</ele>
        <time>2016-05-15T06:57:55.000Z</time>
      </trkpt>
      <trkpt lat="44.04014" lon="7.20446">
        <ele>1937</ele>
        <time>2016-05-15T06:57:59.000Z</time>
      </trkpt>
      <trkpt lat="44.04013" lon="7.20446">
        <ele>1937</ele>
        <time>2016-05-15T06:58:02.000Z</time>
      </trkpt>
      <trkpt lat="44.04011" lon="7.20445">
        <ele>1937</ele>
        <time>2016-05-15T06:58:05.000Z</time>
      </trkpt>
      <trkpt lat="44.04009" lon="7.20444">
        <ele>1937</ele>
        <time>2016-05-15T06:58:09.000Z</time>
      </trkpt>
      <trkpt lat="44.04007" lon="7.20444">
        <ele>1937</ele>
        <time>2016-05-15T06:58:11.000Z</time>
      </trkpt>
      <trkpt lat="44.04003" lon="7.20443">
        <ele>1937</ele>
        <time>2016-05-15T06:58:17.000Z</time>
      </trkpt>
      <trkpt lat="44.03999" lon="7.2044">
        <ele>1945</ele>
        <time>2016-05-15T06:58:24.000Z</time>
      </trkpt>
      <trkpt lat="44.03998" lon="7.20439">
        <ele>1944</ele>
        <time>2016-05-15T06:58:26.000Z</time>
      </trkpt>
      <trkpt lat="44.03995" lon="7.20439">
        <ele>1944</ele>
        <time>2016-05-15T06:58:31.000Z</time>
      </trkpt>
      <trkpt lat="44.03994" lon="7.20438">
        <ele>1944</ele>
        <time>2016-05-15T06:58:33.000Z</time>
      </trkpt>
      <trkpt lat="44.03991" lon="7.20437">
        <ele>1944</ele>
        <time>2016-05-15T06:58:38.000Z</time>
      </trkpt>
      <trkpt lat="44.0399" lon="7.20437">
        <ele>1944</ele>
        <time>2016-05-15T06:58:39.000Z</time>
      </trkpt>
      <trkpt lat="44.03986" lon="7.20435">
        <ele>1944</ele>
        <time>2016-05-15T06:58:45.000Z</time>
      </trkpt>
      <trkpt lat="44.03985" lon="7.20435">
        <ele>1944</ele>
        <time>2016-05-15T06:58:46.000Z</time>
      </trkpt>
      <trkpt lat="44.03983" lon="7.20433">
        <ele>1944</ele>
        <time>2016-05-15T06:58:52.000Z</time>
      </trkpt>
      <trkpt lat="44.03979" lon="7.20431">
        <ele>1944</ele>
        <time>2016-05-15T06:58:59.000Z</time>
      </trkpt>
      <trkpt lat="44.03974" lon="7.20429">
        <ele>1945</ele>
        <time>2016-05-15T06:59:05.000Z</time>
      </trkpt>
      <trkpt lat="44.03972" lon="7.20428">
        <ele>1945</ele>
        <time>2016-05-15T06:59:07.000Z</time>
      </trkpt>
      <trkpt lat="44.03967" lon="7.20425">
        <ele>1945</ele>
        <time>2016-05-15T06:59:13.000Z</time>
      </trkpt>
      <trkpt lat="44.03965" lon="7.20424">
        <ele>1945</ele>
        <time>2016-05-15T06:59:15.000Z</time>
      </trkpt>
      <trkpt lat="44.03962" lon="7.20422">
        <ele>1945</ele>
        <time>2016-05-15T06:59:19.000Z</time>
      </trkpt>
      <trkpt lat="44.03959" lon="7.2042">
        <ele>1945</ele>
        <time>2016-05-15T06:59:22.000Z</time>
      </trkpt>
      <trkpt lat="44.03954" lon="7.20419">
        <ele>1945</ele>
        <time>2016-05-15T06:59:27.000Z</time>
      </trkpt>
      <trkpt lat="44.03952" lon="7.20419">
        <ele>1945</ele>
        <time>2016-05-15T06:59:29.000Z</time>
      </trkpt>
      <trkpt lat="44.03947" lon="7.20419">
        <ele>1945</ele>
        <time>2016-05-15T06:59:35.000Z</time>
      </trkpt>
      <trkpt lat="44.03945" lon="7.2042">
        <ele>1946</ele>
        <time>2016-05-15T06:59:38.000Z</time>
      </trkpt>
      <trkpt lat="44.03942" lon="7.20422">
        <ele>1946</ele>
        <time>2016-05-15T06:59:41.000Z</time>
      </trkpt>
      <trkpt lat="44.03938" lon="7.20428">
        <ele>1946</ele>
        <time>2016-05-15T06:59:47.000Z</time>
      </trkpt>
      <trkpt lat="44.03935" lon="7.20435">
        <ele>1946</ele>
        <time>2016-05-15T06:59:54.000Z</time>
      </trkpt>
      <trkpt lat="44.03934" lon="7.20436">
        <ele>1946</ele>
        <time>2016-05-15T06:59:55.000Z</time>
      </trkpt>
      <trkpt lat="44.03933" lon="7.20441">
        <ele>1947</ele>
        <time>2016-05-15T06:59:58.000Z</time>
      </trkpt>
      <trkpt lat="44.03929" lon="7.20458">
        <ele>1949</ele>
        <time>2016-05-15T07:00:05.000Z</time>
      </trkpt>
      <trkpt lat="44.03929" lon="7.20463">
        <ele>1950</ele>
        <time>2016-05-15T07:00:07.000Z</time>
      </trkpt>
      <trkpt lat="44.03925" lon="7.20494">
        <ele>1954</ele>
        <time>2016-05-15T07:00:16.000Z</time>
      </trkpt>
      <trkpt lat="44.03922" lon="7.20513">
        <ele>1962</ele>
        <time>2016-05-15T07:00:21.000Z</time>
      </trkpt>
      <trkpt lat="44.0391" lon="7.20537">
        <ele>1950</ele>
        <time>2016-05-15T07:00:27.000Z</time>
      </trkpt>
      <trkpt lat="44.03907" lon="7.20541">
        <ele>1950</ele>
        <time>2016-05-15T07:00:28.000Z</time>
      </trkpt>
      <trkpt lat="44.03898" lon="7.20557">
        <ele>1951</ele>
        <time>2016-05-15T07:00:32.000Z</time>
      </trkpt>
      <trkpt lat="44.0389" lon="7.2057">
        <ele>1951</ele>
        <time>2016-05-15T07:00:35.000Z</time>
      </trkpt>
      <trkpt lat="44.03888" lon="7.20575">
        <ele>1951</ele>
        <time>2016-05-15T07:00:36.000Z</time>
      </trkpt>
      <trkpt lat="44.03878" lon="7.20592">
        <ele>1958</ele>
        <time>2016-05-15T07:00:40.000Z</time>
      </trkpt>
      <trkpt lat="44.03871" lon="7.20611">
        <ele>1958</ele>
        <time>2016-05-15T07:00:45.000Z</time>
      </trkpt>
      <trkpt lat="44.03867" lon="7.2062">
        <ele>1958</ele>
        <time>2016-05-15T07:00:49.000Z</time>
      </trkpt>
      <trkpt lat="44.03859" lon="7.20633">
        <ele>1957</ele>
        <time>2016-05-15T07:00:56.000Z</time>
      </trkpt>
      <trkpt lat="44.03858" lon="7.20637">
        <ele>1957</ele>
        <time>2016-05-15T07:00:59.000Z</time>
      </trkpt>
      <trkpt lat="44.03858" lon="7.20636">
        <ele>1957</ele>
        <time>2016-05-15T07:01:00.000Z</time>
      </trkpt>
      <trkpt lat="44.03858" lon="7.20637">
        <ele>1957</ele>
        <time>2016-05-15T07:01:01.000Z</time>
      </trkpt>
      <trkpt lat="44.03855" lon="7.20645">
        <ele>1957</ele>
        <time>2016-05-15T07:01:07.000Z</time>
      </trkpt>
      <trkpt lat="44.03855" lon="7.20646">
        <ele>1957</ele>
        <time>2016-05-15T07:01:08.000Z</time>
      </trkpt>
      <trkpt lat="44.03853" lon="7.20653">
        <ele>1957</ele>
        <time>2016-05-15T07:01:13.000Z</time>
      </trkpt>
      <trkpt lat="44.03852" lon="7.20657">
        <ele>1956</ele>
        <time>2016-05-15T07:01:15.000Z</time>
      </trkpt>
      <trkpt lat="44.03851" lon="7.20662">
        <ele>1956</ele>
        <time>2016-05-15T07:01:20.000Z</time>
      </trkpt>
      <trkpt lat="44.03851" lon="7.20664">
        <ele>1956</ele>
        <time>2016-05-15T07:01:22.000Z</time>
      </trkpt>
      <trkpt lat="44.03849" lon="7.20668">
        <ele>1963</ele>
        <time>2016-05-15T07:01:27.000Z</time>
      </trkpt>
      <trkpt lat="44.03849" lon="7.20669">
        <ele>1963</ele>
        <time>2016-05-15T07:01:28.000Z</time>
      </trkpt>
      <trkpt lat="44.03847" lon="7.20677">
        <ele>1964</ele>
        <time>2016-05-15T07:01:35.000Z</time>
      </trkpt>
      <trkpt lat="44.03844" lon="7.20683">
        <ele>1965</ele>
        <time>2016-05-15T07:01:41.000Z</time>
      </trkpt>
      <trkpt lat="44.03844" lon="7.20684">
        <ele>1966</ele>
        <time>2016-05-15T07:01:42.000Z</time>
      </trkpt>
      <trkpt lat="44.03841" lon="7.20689">
        <ele>1967</ele>
        <time>2016-05-15T07:01:49.000Z</time>
      </trkpt>
      <trkpt lat="44.03839" lon="7.20694">
        <ele>1968</ele>
        <time>2016-05-15T07:01:52.000Z</time>
      </trkpt>
      <trkpt lat="44.03838" lon="7.20697">
        <ele>1969</ele>
        <time>2016-05-15T07:01:55.000Z</time>
      </trkpt>
      <trkpt lat="44.03834" lon="7.20705">
        <ele>1971</ele>
        <time>2016-05-15T07:02:01.000Z</time>
      </trkpt>
      <trkpt lat="44.03832" lon="7.20708">
        <ele>1947</ele>
        <time>2016-05-15T07:02:04.000Z</time>
      </trkpt>
      <trkpt lat="44.03832" lon="7.2071">
        <ele>1947</ele>
        <time>2016-05-15T07:02:06.000Z</time>
      </trkpt>
      <trkpt lat="44.03831" lon="7.20713">
        <ele>1948</ele>
        <time>2016-05-15T07:02:11.000Z</time>
      </trkpt>
      <trkpt lat="44.0383" lon="7.20716">
        <ele>1949</ele>
        <time>2016-05-15T07:02:13.000Z</time>
      </trkpt>
      <trkpt lat="44.0383" lon="7.20717">
        <ele>1949</ele>
        <time>2016-05-15T07:02:17.000Z</time>
      </trkpt>
      <trkpt lat="44.03827" lon="7.20728">
        <ele>1952</ele>
        <time>2016-05-15T07:02:22.000Z</time>
      </trkpt>
      <trkpt lat="44.03825" lon="7.20739">
        <ele>1957</ele>
        <time>2016-05-15T07:02:28.000Z</time>
      </trkpt>
      <trkpt lat="44.03822" lon="7.20756">
        <ele>1968</ele>
        <time>2016-05-15T07:02:35.000Z</time>
      </trkpt>
      <trkpt lat="44.03821" lon="7.20758">
        <ele>1967</ele>
        <time>2016-05-15T07:02:36.000Z</time>
      </trkpt>
      <trkpt lat="44.03815" lon="7.2077">
        <ele>1966</ele>
        <time>2016-05-15T07:02:43.000Z</time>
      </trkpt>
      <trkpt lat="44.03814" lon="7.20773">
        <ele>1966</ele>
        <time>2016-05-15T07:02:45.000Z</time>
      </trkpt>
      <trkpt lat="44.03808" lon="7.20788">
        <ele>1966</ele>
        <time>2016-05-15T07:02:53.000Z</time>
      </trkpt>
      <trkpt lat="44.03807" lon="7.2079">
        <ele>1967</ele>
        <time>2016-05-15T07:02:54.000Z</time>
      </trkpt>
      <trkpt lat="44.03795" lon="7.20812">
        <ele>1967</ele>
        <time>2016-05-15T07:03:04.000Z</time>
      </trkpt>
      <trkpt lat="44.03785" lon="7.20828">
        <ele>1966</ele>
        <time>2016-05-15T07:03:11.000Z</time>
      </trkpt>
      <trkpt lat="44.03774" lon="7.20848">
        <ele>1983</ele>
        <time>2016-05-15T07:03:19.000Z</time>
      </trkpt>
      <trkpt lat="44.03767" lon="7.20861">
        <ele>1986</ele>
        <time>2016-05-15T07:03:24.000Z</time>
      </trkpt>
      <trkpt lat="44.03766" lon="7.20863">
        <ele>1986</ele>
        <time>2016-05-15T07:03:25.000Z</time>
      </trkpt>
      <trkpt lat="44.03758" lon="7.20876">
        <ele>1990</ele>
        <time>2016-05-15T07:03:31.000Z</time>
      </trkpt>
      <trkpt lat="44.03758" lon="7.20876">
        <ele>1990</ele>
        <time>2016-05-15T07:03:32.000Z</time>
      </trkpt>
      <trkpt lat="44.03751" lon="7.20883">
        <ele>1991</ele>
        <time>2016-05-15T07:03:38.000Z</time>
      </trkpt>
      <trkpt lat="44.03749" lon="7.20885">
        <ele>1978</ele>
        <time>2016-05-15T07:03:40.000Z</time>
      </trkpt>
      <trkpt lat="44.03743" lon="7.20889">
        <ele>1979</ele>
        <time>2016-05-15T07:03:44.000Z</time>
      </trkpt>
      <trkpt lat="44.03737" lon="7.20893">
        <ele>1980</ele>
        <time>2016-05-15T07:03:48.000Z</time>
      </trkpt>
      <trkpt lat="44.03735" lon="7.20894">
        <ele>1980</ele>
        <time>2016-05-15T07:03:49.000Z</time>
      </trkpt>
      <trkpt lat="44.03729" lon="7.20895">
        <ele>1979</ele>
        <time>2016-05-15T07:03:53.000Z</time>
      </trkpt>
      <trkpt lat="44.03726" lon="7.20895">
        <ele>1978</ele>
        <time>2016-05-15T07:03:55.000Z</time>
      </trkpt>
      <trkpt lat="44.0372" lon="7.20893">
        <ele>1976</ele>
        <time>2016-05-15T07:03:59.000Z</time>
      </trkpt>
      <trkpt lat="44.03707" lon="7.20888">
        <ele>1973</ele>
        <time>2016-05-15T07:04:06.000Z</time>
      </trkpt>
      <trkpt lat="44.037" lon="7.20888">
        <ele>1972</ele>
        <time>2016-05-15T07:04:09.000Z</time>
      </trkpt>
      <trkpt lat="44.03694" lon="7.20892">
        <ele>1972</ele>
        <time>2016-05-15T07:04:12.000Z</time>
      </trkpt>
      <trkpt lat="44.0368" lon="7.20902">
        <ele>1975</ele>
        <time>2016-05-15T07:04:17.000Z</time>
      </trkpt>
      <trkpt lat="44.03676" lon="7.20903">
        <ele>1975</ele>
        <time>2016-05-15T07:04:18.000Z</time>
      </trkpt>
      <trkpt lat="44.03662" lon="7.20906">
        <ele>1967</ele>
        <time>2016-05-15T07:04:21.000Z</time>
      </trkpt>
      <trkpt lat="44.03649" lon="7.20908">
        <ele>1960</ele>
        <time>2016-05-15T07:04:24.000Z</time>
      </trkpt>
      <trkpt lat="44.03642" lon="7.20907">
        <ele>1956</ele>
        <time>2016-05-15T07:04:26.000Z</time>
      </trkpt>
      <trkpt lat="44.03632" lon="7.20914">
        <ele>1953</ele>
        <time>2016-05-15T07:04:30.000Z</time>
      </trkpt>
      <trkpt lat="44.03618" lon="7.20921">
        <ele>1976</ele>
        <time>2016-05-15T07:04:35.000Z</time>
      </trkpt>
      <trkpt lat="44.03611" lon="7.20926">
        <ele>1974</ele>
        <time>2016-05-15T07:04:37.000Z</time>
      </trkpt>
      <trkpt lat="44.03609" lon="7.20929">
        <ele>1974</ele>
        <time>2016-05-15T07:04:38.000Z</time>
      </trkpt>
      <trkpt lat="44.03608" lon="7.20932">
        <ele>1974</ele>
        <time>2016-05-15T07:04:39.000Z</time>
      </trkpt>
      <trkpt lat="44.03607" lon="7.20938">
        <ele>1976</ele>
        <time>2016-05-15T07:04:41.000Z</time>
      </trkpt>
      <trkpt lat="44.03606" lon="7.20945">
        <ele>1978</ele>
        <time>2016-05-15T07:04:45.000Z</time>
      </trkpt>
      <trkpt lat="44.03604" lon="7.20953">
        <ele>1980</ele>
        <time>2016-05-15T07:04:52.000Z</time>
      </trkpt>
      <trkpt lat="44.03604" lon="7.20958">
        <ele>1982</ele>
        <time>2016-05-15T07:04:56.000Z</time>
      </trkpt>
      <trkpt lat="44.03603" lon="7.20968">
        <ele>1985</ele>
        <time>2016-05-15T07:05:01.000Z</time>
      </trkpt>
      <trkpt lat="44.03602" lon="7.2097">
        <ele>1986</ele>
        <time>2016-05-15T07:05:02.000Z</time>
      </trkpt>
      <trkpt lat="44.03594" lon="7.20979">
        <ele>1987</ele>
        <time>2016-05-15T07:05:08.000Z</time>
      </trkpt>
      <trkpt lat="44.03586" lon="7.20988">
        <ele>1989</ele>
        <time>2016-05-15T07:05:13.000Z</time>
      </trkpt>
      <trkpt lat="44.03582" lon="7.20993">
        <ele>1982</ele>
        <time>2016-05-15T07:05:17.000Z</time>
      </trkpt>
      <trkpt lat="44.03575" lon="7.20996">
        <ele>1980</ele>
        <time>2016-05-15T07:05:21.000Z</time>
      </trkpt>
      <trkpt lat="44.03569" lon="7.20999">
        <ele>1975</ele>
        <time>2016-05-15T07:05:28.000Z</time>
      </trkpt>
      <trkpt lat="44.03569" lon="7.20999">
        <ele>1975</ele>
        <time>2016-05-15T07:05:34.000Z</time>
      </trkpt>
      <trkpt lat="44.03569" lon="7.21">
        <ele>1975</ele>
        <time>2016-05-15T07:05:35.000Z</time>
      </trkpt>
      <trkpt lat="44.03565" lon="7.21001">
        <ele>1994</ele>
        <time>2016-05-15T07:05:40.000Z</time>
      </trkpt>
      <trkpt lat="44.03562" lon="7.21001">
        <ele>1994</ele>
        <time>2016-05-15T07:05:43.000Z</time>
      </trkpt>
      <trkpt lat="44.0356" lon="7.21002">
        <ele>1994</ele>
        <time>2016-05-15T07:05:46.000Z</time>
      </trkpt>
      <trkpt lat="44.03556" lon="7.21007">
        <ele>1994</ele>
        <time>2016-05-15T07:05:51.000Z</time>
      </trkpt>
      <trkpt lat="44.03545" lon="7.21019">
        <ele>1995</ele>
        <time>2016-05-15T07:05:58.000Z</time>
      </trkpt>
      <trkpt lat="44.03545" lon="7.2102">
        <ele>1995</ele>
        <time>2016-05-15T07:05:59.000Z</time>
      </trkpt>
      <trkpt lat="44.0354" lon="7.21023">
        <ele>1995</ele>
        <time>2016-05-15T07:06:02.000Z</time>
      </trkpt>
      <trkpt lat="44.03538" lon="7.21023">
        <ele>1994</ele>
        <time>2016-05-15T07:06:06.000Z</time>
      </trkpt>
      <trkpt lat="44.03537" lon="7.21024">
        <ele>1994</ele>
        <time>2016-05-15T07:06:09.000Z</time>
      </trkpt>
      <trkpt lat="44.03533" lon="7.21025">
        <ele>1993</ele>
        <time>2016-05-15T07:06:11.000Z</time>
      </trkpt>
      <trkpt lat="44.03523" lon="7.21028">
        <ele>1992</ele>
        <time>2016-05-15T07:06:17.000Z</time>
      </trkpt>
      <trkpt lat="44.03518" lon="7.21031">
        <ele>1992</ele>
        <time>2016-05-15T07:06:20.000Z</time>
      </trkpt>
      <trkpt lat="44.0351" lon="7.21038">
        <ele>1994</ele>
        <time>2016-05-15T07:06:24.000Z</time>
      </trkpt>
      <trkpt lat="44.03498" lon="7.21043">
        <ele>1982</ele>
        <time>2016-05-15T07:06:30.000Z</time>
      </trkpt>
      <trkpt lat="44.03486" lon="7.21052">
        <ele>1986</ele>
        <time>2016-05-15T07:06:37.000Z</time>
      </trkpt>
      <trkpt lat="44.03477" lon="7.21056">
        <ele>1986</ele>
        <time>2016-05-15T07:06:43.000Z</time>
      </trkpt>
      <trkpt lat="44.03473" lon="7.21058">
        <ele>1986</ele>
        <time>2016-05-15T07:06:46.000Z</time>
      </trkpt>
      <trkpt lat="44.03471" lon="7.21061">
        <ele>1987</ele>
        <time>2016-05-15T07:06:51.000Z</time>
      </trkpt>
      <trkpt lat="44.03468" lon="7.21062">
        <ele>1986</ele>
        <time>2016-05-15T07:06:56.000Z</time>
      </trkpt>
      <trkpt lat="44.03467" lon="7.21063">
        <ele>1987</ele>
        <time>2016-05-15T07:06:58.000Z</time>
      </trkpt>
      <trkpt lat="44.03463" lon="7.21066">
        <ele>1987</ele>
        <time>2016-05-15T07:07:05.000Z</time>
      </trkpt>
      <trkpt lat="44.03462" lon="7.21067">
        <ele>1987</ele>
        <time>2016-05-15T07:07:06.000Z</time>
      </trkpt>
      <trkpt lat="44.03458" lon="7.21069">
        <ele>1986</ele>
        <time>2016-05-15T07:07:11.000Z</time>
      </trkpt>
      <trkpt lat="44.03457" lon="7.21069">
        <ele>1986</ele>
        <time>2016-05-15T07:07:13.000Z</time>
      </trkpt>
      <trkpt lat="44.03453" lon="7.21071">
        <ele>1986</ele>
        <time>2016-05-15T07:07:18.000Z</time>
      </trkpt>
      <trkpt lat="44.0345" lon="7.21072">
        <ele>1986</ele>
        <time>2016-05-15T07:07:22.000Z</time>
      </trkpt>
      <trkpt lat="44.03448" lon="7.21072">
        <ele>1986</ele>
        <time>2016-05-15T07:07:24.000Z</time>
      </trkpt>
      <trkpt lat="44.03446" lon="7.21073">
        <ele>1986</ele>
        <time>2016-05-15T07:07:26.000Z</time>
      </trkpt>
      <trkpt lat="44.03443" lon="7.21076">
        <ele>1987</ele>
        <time>2016-05-15T07:07:30.000Z</time>
      </trkpt>
      <trkpt lat="44.03443" lon="7.21077">
        <ele>1987</ele>
        <time>2016-05-15T07:07:31.000Z</time>
      </trkpt>
      <trkpt lat="44.03433" lon="7.21083">
        <ele>1989</ele>
        <time>2016-05-15T07:07:40.000Z</time>
      </trkpt>
      <trkpt lat="44.03427" lon="7.21088">
        <ele>2010</ele>
        <time>2016-05-15T07:07:47.000Z</time>
      </trkpt>
      <trkpt lat="44.03426" lon="7.21089">
        <ele>2009</ele>
        <time>2016-05-15T07:07:48.000Z</time>
      </trkpt>
      <trkpt lat="44.03421" lon="7.2109">
        <ele>2007</ele>
        <time>2016-05-15T07:07:53.000Z</time>
      </trkpt>
      <trkpt lat="44.03418" lon="7.21092">
        <ele>2008</ele>
        <time>2016-05-15T07:07:56.000Z</time>
      </trkpt>
      <trkpt lat="44.03413" lon="7.21095">
        <ele>2007</ele>
        <time>2016-05-15T07:08:02.000Z</time>
      </trkpt>
      <trkpt lat="44.03412" lon="7.21095">
        <ele>2007</ele>
        <time>2016-05-15T07:08:03.000Z</time>
      </trkpt>
      <trkpt lat="44.03405" lon="7.21097">
        <ele>2010</ele>
        <time>2016-05-15T07:08:09.000Z</time>
      </trkpt>
      <trkpt lat="44.034" lon="7.21099">
        <ele>2012</ele>
        <time>2016-05-15T07:08:15.000Z</time>
      </trkpt>
      <trkpt lat="44.03397" lon="7.21101">
        <ele>2014</ele>
        <time>2016-05-15T07:08:20.000Z</time>
      </trkpt>
      <trkpt lat="44.03395" lon="7.21102">
        <ele>2014</ele>
        <time>2016-05-15T07:08:23.000Z</time>
      </trkpt>
      <trkpt lat="44.03391" lon="7.21104">
        <ele>2015</ele>
        <time>2016-05-15T07:08:27.000Z</time>
      </trkpt>
      <trkpt lat="44.03388" lon="7.21106">
        <ele>2016</ele>
        <time>2016-05-15T07:08:31.000Z</time>
      </trkpt>
      <trkpt lat="44.03387" lon="7.21107">
        <ele>2017</ele>
        <time>2016-05-15T07:08:33.000Z</time>
      </trkpt>
      <trkpt lat="44.03382" lon="7.21111">
        <ele>2018</ele>
        <time>2016-05-15T07:08:39.000Z</time>
      </trkpt>
      <trkpt lat="44.0338" lon="7.21112">
        <ele>2018</ele>
        <time>2016-05-15T07:08:41.000Z</time>
      </trkpt>
      <trkpt lat="44.03376" lon="7.21117">
        <ele>2020</ele>
        <time>2016-05-15T07:08:46.000Z</time>
      </trkpt>
      <trkpt lat="44.03371" lon="7.21117">
        <ele>2019</ele>
        <time>2016-05-15T07:08:50.000Z</time>
      </trkpt>
      <trkpt lat="44.03369" lon="7.21118">
        <ele>2020</ele>
        <time>2016-05-15T07:08:51.000Z</time>
      </trkpt>
      <trkpt lat="44.03356" lon="7.2112">
        <ele>2019</ele>
        <time>2016-05-15T07:08:58.000Z</time>
      </trkpt>
      <trkpt lat="44.03347" lon="7.21118">
        <ele>2018</ele>
        <time>2016-05-15T07:09:03.000Z</time>
      </trkpt>
      <trkpt lat="44.03342" lon="7.21117">
        <ele>2017</ele>
        <time>2016-05-15T07:09:05.000Z</time>
      </trkpt>
      <trkpt lat="44.03332" lon="7.21112">
        <ele>2005</ele>
        <time>2016-05-15T07:09:10.000Z</time>
      </trkpt>
      <trkpt lat="44.03331" lon="7.21111">
        <ele>2005</ele>
        <time>2016-05-15T07:09:11.000Z</time>
      </trkpt>
      <trkpt lat="44.03323" lon="7.21107">
        <ele>2004</ele>
        <time>2016-05-15T07:09:15.000Z</time>
      </trkpt>
      <trkpt lat="44.03323" lon="7.21105">
        <ele>2003</ele>
        <time>2016-05-15T07:09:16.000Z</time>
      </trkpt>
      <trkpt lat="44.03316" lon="7.211">
        <ele>2002</ele>
        <time>2016-05-15T07:09:20.000Z</time>
      </trkpt>
      <trkpt lat="44.03312" lon="7.211">
        <ele>2002</ele>
        <time>2016-05-15T07:09:22.000Z</time>
      </trkpt>
      <trkpt lat="44.03301" lon="7.21099">
        <ele>2002</ele>
        <time>2016-05-15T07:09:26.000Z</time>
      </trkpt>
      <trkpt lat="44.03287" lon="7.21103">
        <ele>2001</ele>
        <time>2016-05-15T07:09:32.000Z</time>
      </trkpt>
      <trkpt lat="44.03273" lon="7.21112">
        <ele>2001</ele>
        <time>2016-05-15T07:09:36.000Z</time>
      </trkpt>
      <trkpt lat="44.03261" lon="7.21118">
        <ele>2002</ele>
        <time>2016-05-15T07:09:40.000Z</time>
      </trkpt>
      <trkpt lat="44.0326" lon="7.2112">
        <ele>2002</ele>
        <time>2016-05-15T07:09:41.000Z</time>
      </trkpt>
      <trkpt lat="44.03256" lon="7.21122">
        <ele>2002</ele>
        <time>2016-05-15T07:09:44.000Z</time>
      </trkpt>
      <trkpt lat="44.03249" lon="7.21129">
        <ele>1985</ele>
        <time>2016-05-15T07:09:49.000Z</time>
      </trkpt>
      <trkpt lat="44.03248" lon="7.21131">
        <ele>1986</ele>
        <time>2016-05-15T07:09:50.000Z</time>
      </trkpt>
      <trkpt lat="44.03237" lon="7.21152">
        <ele>1992</ele>
        <time>2016-05-15T07:09:57.000Z</time>
      </trkpt>
      <trkpt lat="44.03227" lon="7.21169">
        <ele>1996</ele>
        <time>2016-05-15T07:10:00.000Z</time>
      </trkpt>
      <trkpt lat="44.03221" lon="7.2118">
        <ele>1993</ele>
        <time>2016-05-15T07:10:02.000Z</time>
      </trkpt>
      <trkpt lat="44.03218" lon="7.21185">
        <ele>1991</ele>
        <time>2016-05-15T07:10:03.000Z</time>
      </trkpt>
      <trkpt lat="44.03213" lon="7.21198">
        <ele>1989</ele>
        <time>2016-05-15T07:10:05.000Z</time>
      </trkpt>
      <trkpt lat="44.03207" lon="7.21209">
        <ele>1988</ele>
        <time>2016-05-15T07:10:07.000Z</time>
      </trkpt>
      <trkpt lat="44.03205" lon="7.21223">
        <ele>1987</ele>
        <time>2016-05-15T07:10:09.000Z</time>
      </trkpt>
      <trkpt lat="44.03204" lon="7.21238">
        <ele>1987</ele>
        <time>2016-05-15T07:10:11.000Z</time>
      </trkpt>
      <trkpt lat="44.03204" lon="7.21248">
        <ele>1987</ele>
        <time>2016-05-15T07:10:12.000Z</time>
      </trkpt>
      <trkpt lat="44.03207" lon="7.21262">
        <ele>1987</ele>
        <time>2016-05-15T07:10:14.000Z</time>
      </trkpt>
      <trkpt lat="44.03207" lon="7.21268">
        <ele>1986</ele>
        <time>2016-05-15T07:10:15.000Z</time>
      </trkpt>
      <trkpt lat="44.03209" lon="7.21275">
        <ele>1987</ele>
        <time>2016-05-15T07:10:16.000Z</time>
      </trkpt>
      <trkpt lat="44.03211" lon="7.2129">
        <ele>1987</ele>
        <time>2016-05-15T07:10:18.000Z</time>
      </trkpt>
      <trkpt lat="44.03212" lon="7.21298">
        <ele>1987</ele>
        <time>2016-05-15T07:10:19.000Z</time>
      </trkpt>
      <trkpt lat="44.03212" lon="7.21304">
        <ele>1986</ele>
        <time>2016-05-15T07:10:20.000Z</time>
      </trkpt>
      <trkpt lat="44.03212" lon="7.21314">
        <ele>1986</ele>
        <time>2016-05-15T07:10:22.000Z</time>
      </trkpt>
      <trkpt lat="44.03213" lon="7.21327">
        <ele>1987</ele>
        <time>2016-05-15T07:10:24.000Z</time>
      </trkpt>
      <trkpt lat="44.03214" lon="7.21335">
        <ele>1978</ele>
        <time>2016-05-15T07:10:25.000Z</time>
      </trkpt>
      <trkpt lat="44.03214" lon="7.21343">
        <ele>1978</ele>
        <time>2016-05-15T07:10:26.000Z</time>
      </trkpt>
      <trkpt lat="44.03215" lon="7.21359">
        <ele>1976</ele>
        <time>2016-05-15T07:10:28.000Z</time>
      </trkpt>
      <trkpt lat="44.03215" lon="7.21367">
        <ele>1975</ele>
        <time>2016-05-15T07:10:29.000Z</time>
      </trkpt>
      <trkpt lat="44.03215" lon="7.21373">
        <ele>1974</ele>
        <time>2016-05-15T07:10:30.000Z</time>
      </trkpt>
      <trkpt lat="44.03215" lon="7.21377">
        <ele>1974</ele>
        <time>2016-05-15T07:10:31.000Z</time>
      </trkpt>
      <trkpt lat="44.03215" lon="7.21386">
        <ele>1973</ele>
        <time>2016-05-15T07:10:33.000Z</time>
      </trkpt>
      <trkpt lat="44.03214" lon="7.21404">
        <ele>1971</ele>
        <time>2016-05-15T07:10:36.000Z</time>
      </trkpt>
      <trkpt lat="44.03211" lon="7.21422">
        <ele>1958</ele>
        <time>2016-05-15T07:10:39.000Z</time>
      </trkpt>
      <trkpt lat="44.03211" lon="7.21427">
        <ele>1958</ele>
        <time>2016-05-15T07:10:40.000Z</time>
      </trkpt>
      <trkpt lat="44.0321" lon="7.21433">
        <ele>1957</ele>
        <time>2016-05-15T07:10:41.000Z</time>
      </trkpt>
      <trkpt lat="44.0321" lon="7.2144">
        <ele>1956</ele>
        <time>2016-05-15T07:10:42.000Z</time>
      </trkpt>
      <trkpt lat="44.03211" lon="7.21454">
        <ele>1955</ele>
        <time>2016-05-15T07:10:44.000Z</time>
      </trkpt>
      <trkpt lat="44.03212" lon="7.21461">
        <ele>1954</ele>
        <time>2016-05-15T07:10:45.000Z</time>
      </trkpt>
      <trkpt lat="44.03213" lon="7.21467">
        <ele>1954</ele>
        <time>2016-05-15T07:10:46.000Z</time>
      </trkpt>
      <trkpt lat="44.03214" lon="7.21473">
        <ele>1953</ele>
        <time>2016-05-15T07:10:47.000Z</time>
      </trkpt>
      <trkpt lat="44.03215" lon="7.21487">
        <ele>1952</ele>
        <time>2016-05-15T07:10:49.000Z</time>
      </trkpt>
      <trkpt lat="44.03212" lon="7.21492">
        <ele>1951</ele>
        <time>2016-05-15T07:10:50.000Z</time>
      </trkpt>
      <trkpt lat="44.03205" lon="7.21504">
        <ele>1942</ele>
        <time>2016-05-15T07:10:52.000Z</time>
      </trkpt>
      <trkpt lat="44.03202" lon="7.2151">
        <ele>1942</ele>
        <time>2016-05-15T07:10:53.000Z</time>
      </trkpt>
      <trkpt lat="44.03198" lon="7.21515">
        <ele>1941</ele>
        <time>2016-05-15T07:10:54.000Z</time>
      </trkpt>
      <trkpt lat="44.03191" lon="7.21522">
        <ele>1941</ele>
        <time>2016-05-15T07:10:56.000Z</time>
      </trkpt>
      <trkpt lat="44.03189" lon="7.21526">
        <ele>1941</ele>
        <time>2016-05-15T07:10:57.000Z</time>
      </trkpt>
      <trkpt lat="44.03187" lon="7.2153">
        <ele>1941</ele>
        <time>2016-05-15T07:10:58.000Z</time>
      </trkpt>
      <trkpt lat="44.03187" lon="7.21535">
        <ele>1941</ele>
        <time>2016-05-15T07:10:59.000Z</time>
      </trkpt>
      <trkpt lat="44.03186" lon="7.2154">
        <ele>1942</ele>
        <time>2016-05-15T07:11:00.000Z</time>
      </trkpt>
      <trkpt lat="44.03184" lon="7.21544">
        <ele>1942</ele>
        <time>2016-05-15T07:11:01.000Z</time>
      </trkpt>
      <trkpt lat="44.03176" lon="7.21552">
        <ele>1943</ele>
        <time>2016-05-15T07:11:05.000Z</time>
      </trkpt>
      <trkpt lat="44.03173" lon="7.21554">
        <ele>1943</ele>
        <time>2016-05-15T07:11:06.000Z</time>
      </trkpt>
      <trkpt lat="44.03161" lon="7.21567">
        <ele>1938</ele>
        <time>2016-05-15T07:11:12.000Z</time>
      </trkpt>
      <trkpt lat="44.03153" lon="7.21576">
        <ele>1938</ele>
        <time>2016-05-15T07:11:18.000Z</time>
      </trkpt>
      <trkpt lat="44.03147" lon="7.21581">
        <ele>1936</ele>
        <time>2016-05-15T07:11:24.000Z</time>
      </trkpt>
      <trkpt lat="44.03135" lon="7.21589">
        <ele>1946</ele>
        <time>2016-05-15T07:11:29.000Z</time>
      </trkpt>
      <trkpt lat="44.03117" lon="7.21605">
        <ele>1944</ele>
        <time>2016-05-15T07:11:34.000Z</time>
      </trkpt>
      <trkpt lat="44.0311" lon="7.21612">
        <ele>1944</ele>
        <time>2016-05-15T07:11:36.000Z</time>
      </trkpt>
      <trkpt lat="44.03103" lon="7.21619">
        <ele>1945</ele>
        <time>2016-05-15T07:11:38.000Z</time>
      </trkpt>
      <trkpt lat="44.031" lon="7.21623">
        <ele>1946</ele>
        <time>2016-05-15T07:11:39.000Z</time>
      </trkpt>
      <trkpt lat="44.03096" lon="7.21627">
        <ele>1947</ele>
        <time>2016-05-15T07:11:40.000Z</time>
      </trkpt>
      <trkpt lat="44.03093" lon="7.21631">
        <ele>1948</ele>
        <time>2016-05-15T07:11:41.000Z</time>
      </trkpt>
      <trkpt lat="44.03089" lon="7.21634">
        <ele>1949</ele>
        <time>2016-05-15T07:11:42.000Z</time>
      </trkpt>
      <trkpt lat="44.03086" lon="7.21637">
        <ele>1950</ele>
        <time>2016-05-15T07:11:43.000Z</time>
      </trkpt>
      <trkpt lat="44.03081" lon="7.2164">
        <ele>1934</ele>
        <time>2016-05-15T07:11:44.000Z</time>
      </trkpt>
      <trkpt lat="44.03076" lon="7.21641">
        <ele>1934</ele>
        <time>2016-05-15T07:11:45.000Z</time>
      </trkpt>
      <trkpt lat="44.03071" lon="7.21642">
        <ele>1933</ele>
        <time>2016-05-15T07:11:46.000Z</time>
      </trkpt>
      <trkpt lat="44.03067" lon="7.21643">
        <ele>1932</ele>
        <time>2016-05-15T07:11:47.000Z</time>
      </trkpt>
      <trkpt lat="44.03061" lon="7.21644">
        <ele>1930</ele>
        <time>2016-05-15T07:11:48.000Z</time>
      </trkpt>
      <trkpt lat="44.03055" lon="7.21646">
        <ele>1928</ele>
        <time>2016-05-15T07:11:49.000Z</time>
      </trkpt>
      <trkpt lat="44.03045" lon="7.21648">
        <ele>1925</ele>
        <time>2016-05-15T07:11:51.000Z</time>
      </trkpt>
      <trkpt lat="44.0304" lon="7.2165">
        <ele>1924</ele>
        <time>2016-05-15T07:11:52.000Z</time>
      </trkpt>
      <trkpt lat="44.03033" lon="7.21658">
        <ele>1923</ele>
        <time>2016-05-15T07:11:54.000Z</time>
      </trkpt>
      <trkpt lat="44.0303" lon="7.21663">
        <ele>1922</ele>
        <time>2016-05-15T07:11:55.000Z</time>
      </trkpt>
      <trkpt lat="44.03028" lon="7.21666">
        <ele>1922</ele>
        <time>2016-05-15T07:11:56.000Z</time>
      </trkpt>
      <trkpt lat="44.03026" lon="7.2167">
        <ele>1945</ele>
        <time>2016-05-15T07:11:57.000Z</time>
      </trkpt>
      <trkpt lat="44.03023" lon="7.21682">
        <ele>1946</ele>
        <time>2016-05-15T07:12:00.000Z</time>
      </trkpt>
      <trkpt lat="44.03018" lon="7.21696">
        <ele>1950</ele>
        <time>2016-05-15T07:12:04.000Z</time>
      </trkpt>
      <trkpt lat="44.03018" lon="7.21697">
        <ele>1951</ele>
        <time>2016-05-15T07:12:05.000Z</time>
      </trkpt>
      <trkpt lat="44.03016" lon="7.21701">
        <ele>1952</ele>
        <time>2016-05-15T07:12:10.000Z</time>
      </trkpt>
      <trkpt lat="44.03011" lon="7.21704">
        <ele>1952</ele>
        <time>2016-05-15T07:12:16.000Z</time>
      </trkpt>
      <trkpt lat="44.03008" lon="7.21708">
        <ele>1953</ele>
        <time>2016-05-15T07:12:21.000Z</time>
      </trkpt>
      <trkpt lat="44.03007" lon="7.21709">
        <ele>1953</ele>
        <time>2016-05-15T07:12:23.000Z</time>
      </trkpt>
      <trkpt lat="44.03006" lon="7.2171">
        <ele>1954</ele>
        <time>2016-05-15T07:12:24.000Z</time>
      </trkpt>
      <trkpt lat="44.03006" lon="7.2171">
        <ele>1954</ele>
        <time>2016-05-15T07:12:26.000Z</time>
      </trkpt>
      <trkpt lat="44.03005" lon="7.21711">
        <ele>1954</ele>
        <time>2016-05-15T07:12:28.000Z</time>
      </trkpt>
      <trkpt lat="44.03001" lon="7.21717">
        <ele>1956</ele>
        <time>2016-05-15T07:12:34.000Z</time>
      </trkpt>
      <trkpt lat="44.03" lon="7.21718">
        <ele>1956</ele>
        <time>2016-05-15T07:12:35.000Z</time>
      </trkpt>
      <trkpt lat="44.02997" lon="7.21722">
        <ele>1937</ele>
        <time>2016-05-15T07:12:41.000Z</time>
      </trkpt>
      <trkpt lat="44.02995" lon="7.21722">
        <ele>1937</ele>
        <time>2016-05-15T07:12:43.000Z</time>
      </trkpt>
      <trkpt lat="44.02994" lon="7.21721">
        <ele>1936</ele>
        <time>2016-05-15T07:12:44.000Z</time>
      </trkpt>
      <trkpt lat="44.02991" lon="7.2172">
        <ele>1935</ele>
        <time>2016-05-15T07:12:48.000Z</time>
      </trkpt>
      <trkpt lat="44.0299" lon="7.2172">
        <ele>1935</ele>
        <time>2016-05-15T07:12:49.000Z</time>
      </trkpt>
      <trkpt lat="44.02984" lon="7.21719">
        <ele>1933</ele>
        <time>2016-05-15T07:12:56.000Z</time>
      </trkpt>
      <trkpt lat="44.02979" lon="7.21719">
        <ele>1932</ele>
        <time>2016-05-15T07:13:02.000Z</time>
      </trkpt>
      <trkpt lat="44.02973" lon="7.21725">
        <ele>1933</ele>
        <time>2016-05-15T07:13:09.000Z</time>
      </trkpt>
      <trkpt lat="44.02968" lon="7.2173">
        <ele>1933</ele>
        <time>2016-05-15T07:13:15.000Z</time>
      </trkpt>
      <trkpt lat="44.02967" lon="7.21732">
        <ele>1933</ele>
        <time>2016-05-15T07:13:17.000Z</time>
      </trkpt>
      <trkpt lat="44.02964" lon="7.21735">
        <ele>1933</ele>
        <time>2016-05-15T07:13:20.000Z</time>
      </trkpt>
      <trkpt lat="44.02963" lon="7.21735">
        <ele>1933</ele>
        <time>2016-05-15T07:13:21.000Z</time>
      </trkpt>
      <trkpt lat="44.02961" lon="7.21737">
        <ele>1933</ele>
        <time>2016-05-15T07:13:24.000Z</time>
      </trkpt>
      <trkpt lat="44.02958" lon="7.2174">
        <ele>1932</ele>
        <time>2016-05-15T07:13:26.000Z</time>
      </trkpt>
      <trkpt lat="44.02953" lon="7.21745">
        <ele>1932</ele>
        <time>2016-05-15T07:13:28.000Z</time>
      </trkpt>
      <trkpt lat="44.02947" lon="7.21751">
        <ele>1953</ele>
        <time>2016-05-15T07:13:30.000Z</time>
      </trkpt>
      <trkpt lat="44.02943" lon="7.21751">
        <ele>1952</ele>
        <time>2016-05-15T07:13:31.000Z</time>
      </trkpt>
      <trkpt lat="44.02939" lon="7.21751">
        <ele>1950</ele>
        <time>2016-05-15T07:13:32.000Z</time>
      </trkpt>
      <trkpt lat="44.02935" lon="7.21752">
        <ele>1948</ele>
        <time>2016-05-15T07:13:33.000Z</time>
      </trkpt>
      <trkpt lat="44.02925" lon="7.21753">
        <ele>1942</ele>
        <time>2016-05-15T07:13:35.000Z</time>
      </trkpt>
      <trkpt lat="44.02919" lon="7.21753">
        <ele>1937</ele>
        <time>2016-05-15T07:13:37.000Z</time>
      </trkpt>
      <trkpt lat="44.02919" lon="7.21754">
        <ele>1938</ele>
        <time>2016-05-15T07:13:38.000Z</time>
      </trkpt>
      <trkpt lat="44.02916" lon="7.21755">
        <ele>1931</ele>
        <time>2016-05-15T07:13:43.000Z</time>
      </trkpt>
      <trkpt lat="44.02913" lon="7.21754">
        <ele>1931</ele>
        <time>2016-05-15T07:13:47.000Z</time>
      </trkpt>
      <trkpt lat="44.02911" lon="7.21754">
        <ele>1930</ele>
        <time>2016-05-15T07:13:49.000Z</time>
      </trkpt>
      <trkpt lat="44.02909" lon="7.21753">
        <ele>1930</ele>
        <time>2016-05-15T07:13:52.000Z</time>
      </trkpt>
      <trkpt lat="44.02905" lon="7.21753">
        <ele>1929</ele>
        <time>2016-05-15T07:13:55.000Z</time>
      </trkpt>
      <trkpt lat="44.02902" lon="7.21753">
        <ele>1928</ele>
        <time>2016-05-15T07:13:58.000Z</time>
      </trkpt>
      <trkpt lat="44.02899" lon="7.21755">
        <ele>1927</ele>
        <time>2016-05-15T07:14:03.000Z</time>
      </trkpt>
      <trkpt lat="44.02898" lon="7.21758">
        <ele>1926</ele>
        <time>2016-05-15T07:14:06.000Z</time>
      </trkpt>
      <trkpt lat="44.02897" lon="7.21763">
        <ele>1926</ele>
        <time>2016-05-15T07:14:08.000Z</time>
      </trkpt>
      <trkpt lat="44.02893" lon="7.21773">
        <ele>1925</ele>
        <time>2016-05-15T07:14:13.000Z</time>
      </trkpt>
      <trkpt lat="44.02891" lon="7.21779">
        <ele>1925</ele>
        <time>2016-05-15T07:14:16.000Z</time>
      </trkpt>
      <trkpt lat="44.02891" lon="7.21778">
        <ele>1925</ele>
        <time>2016-05-15T07:14:17.000Z</time>
      </trkpt>
      <trkpt lat="44.02892" lon="7.21781">
        <ele>1926</ele>
        <time>2016-05-15T07:14:19.000Z</time>
      </trkpt>
      <trkpt lat="44.0289" lon="7.21795">
        <ele>1928</ele>
        <time>2016-05-15T07:14:27.000Z</time>
      </trkpt>
      <trkpt lat="44.02891" lon="7.21806">
        <ele>1930</ele>
        <time>2016-05-15T07:14:35.000Z</time>
      </trkpt>
      <trkpt lat="44.0289" lon="7.21809">
        <ele>1931</ele>
        <time>2016-05-15T07:14:39.000Z</time>
      </trkpt>
      <trkpt lat="44.02883" lon="7.21823">
        <ele>1931</ele>
        <time>2016-05-15T07:14:44.000Z</time>
      </trkpt>
      <trkpt lat="44.02874" lon="7.21833">
        <ele>1928</ele>
        <time>2016-05-15T07:14:48.000Z</time>
      </trkpt>
      <trkpt lat="44.02872" lon="7.21837">
        <ele>1944</ele>
        <time>2016-05-15T07:14:49.000Z</time>
      </trkpt>
      <trkpt lat="44.02866" lon="7.21841">
        <ele>1942</ele>
        <time>2016-05-15T07:14:51.000Z</time>
      </trkpt>
      <trkpt lat="44.02857" lon="7.21846">
        <ele>1939</ele>
        <time>2016-05-15T07:14:54.000Z</time>
      </trkpt>
      <trkpt lat="44.02856" lon="7.21846">
        <ele>1938</ele>
        <time>2016-05-15T07:14:55.000Z</time>
      </trkpt>
      <trkpt lat="44.02851" lon="7.21848">
        <ele>1937</ele>
        <time>2016-05-15T07:14:57.000Z</time>
      </trkpt>
      <trkpt lat="44.02848" lon="7.2185">
        <ele>1936</ele>
        <time>2016-05-15T07:14:58.000Z</time>
      </trkpt>
      <trkpt lat="44.02836" lon="7.21856">
        <ele>1935</ele>
        <time>2016-05-15T07:15:02.000Z</time>
      </trkpt>
      <trkpt lat="44.02833" lon="7.21857">
        <ele>1912</ele>
        <time>2016-05-15T07:15:03.000Z</time>
      </trkpt>
      <trkpt lat="44.02823" lon="7.21868">
        <ele>1912</ele>
        <time>2016-05-15T07:15:07.000Z</time>
      </trkpt>
      <trkpt lat="44.02813" lon="7.21884">
        <ele>1913</ele>
        <time>2016-05-15T07:15:12.000Z</time>
      </trkpt>
      <trkpt lat="44.0281" lon="7.21892">
        <ele>1914</ele>
        <time>2016-05-15T07:15:14.000Z</time>
      </trkpt>
      <trkpt lat="44.02805" lon="7.21909">
        <ele>1916</ele>
        <time>2016-05-15T07:15:18.000Z</time>
      </trkpt>
      <trkpt lat="44.02802" lon="7.21917">
        <ele>1929</ele>
        <time>2016-05-15T07:15:20.000Z</time>
      </trkpt>
      <trkpt lat="44.02796" lon="7.21931">
        <ele>1927</ele>
        <time>2016-05-15T07:15:24.000Z</time>
      </trkpt>
      <trkpt lat="44.02789" lon="7.21944">
        <ele>1926</ele>
        <time>2016-05-15T07:15:28.000Z</time>
      </trkpt>
      <trkpt lat="44.02784" lon="7.21957">
        <ele>1926</ele>
        <time>2016-05-15T07:15:30.000Z</time>
      </trkpt>
      <trkpt lat="44.02778" lon="7.21964">
        <ele>1926</ele>
        <time>2016-05-15T07:15:32.000Z</time>
      </trkpt>
      <trkpt lat="44.02775" lon="7.21969">
        <ele>1926</ele>
        <time>2016-05-15T07:15:33.000Z</time>
      </trkpt>
      <trkpt lat="44.02772" lon="7.21975">
        <ele>1926</ele>
        <time>2016-05-15T07:15:34.000Z</time>
      </trkpt>
      <trkpt lat="44.02764" lon="7.21988">
        <ele>1925</ele>
        <time>2016-05-15T07:15:36.000Z</time>
      </trkpt>
      <trkpt lat="44.02759" lon="7.21994">
        <ele>1924</ele>
        <time>2016-05-15T07:15:37.000Z</time>
      </trkpt>
      <trkpt lat="44.02754" lon="7.22">
        <ele>1922</ele>
        <time>2016-05-15T07:15:38.000Z</time>
      </trkpt>
      <trkpt lat="44.02748" lon="7.22005">
        <ele>1920</ele>
        <time>2016-05-15T07:15:39.000Z</time>
      </trkpt>
      <trkpt lat="44.02743" lon="7.2201">
        <ele>1919</ele>
        <time>2016-05-15T07:15:40.000Z</time>
      </trkpt>
      <trkpt lat="44.02733" lon="7.22021">
        <ele>1917</ele>
        <time>2016-05-15T07:15:42.000Z</time>
      </trkpt>
      <trkpt lat="44.02722" lon="7.22035">
        <ele>1916</ele>
        <time>2016-05-15T07:15:45.000Z</time>
      </trkpt>
      <trkpt lat="44.02719" lon="7.22039">
        <ele>1916</ele>
        <time>2016-05-15T07:15:46.000Z</time>
      </trkpt>
      <trkpt lat="44.027" lon="7.22064">
        <ele>1914</ele>
        <time>2016-05-15T07:15:51.000Z</time>
      </trkpt>
      <trkpt lat="44.02698" lon="7.2207">
        <ele>1913</ele>
        <time>2016-05-15T07:15:52.000Z</time>
      </trkpt>
      <trkpt lat="44.02696" lon="7.22075">
        <ele>1913</ele>
        <time>2016-05-15T07:15:53.000Z</time>
      </trkpt>
      <trkpt lat="44.02693" lon="7.22089">
        <ele>1916</ele>
        <time>2016-05-15T07:15:55.000Z</time>
      </trkpt>
      <trkpt lat="44.02692" lon="7.22102">
        <ele>1917</ele>
        <time>2016-05-15T07:15:57.000Z</time>
      </trkpt>
      <trkpt lat="44.02692" lon="7.22118">
        <ele>1918</ele>
        <time>2016-05-15T07:15:59.000Z</time>
      </trkpt>
      <trkpt lat="44.02691" lon="7.22127">
        <ele>1918</ele>
        <time>2016-05-15T07:16:00.000Z</time>
      </trkpt>
      <trkpt lat="44.0269" lon="7.22135">
        <ele>1917</ele>
        <time>2016-05-15T07:16:01.000Z</time>
      </trkpt>
      <trkpt lat="44.02687" lon="7.22142">
        <ele>1916</ele>
        <time>2016-05-15T07:16:02.000Z</time>
      </trkpt>
      <trkpt lat="44.02685" lon="7.22147">
        <ele>1915</ele>
        <time>2016-05-15T07:16:03.000Z</time>
      </trkpt>
      <trkpt lat="44.02683" lon="7.22154">
        <ele>1914</ele>
        <time>2016-05-15T07:16:04.000Z</time>
      </trkpt>
      <trkpt lat="44.0268" lon="7.22167">
        <ele>1908</ele>
        <time>2016-05-15T07:16:06.000Z</time>
      </trkpt>
      <trkpt lat="44.02679" lon="7.22173">
        <ele>1908</ele>
        <time>2016-05-15T07:16:07.000Z</time>
      </trkpt>
      <trkpt lat="44.0268" lon="7.22179">
        <ele>1909</ele>
        <time>2016-05-15T07:16:08.000Z</time>
      </trkpt>
      <trkpt lat="44.02682" lon="7.22197">
        <ele>1909</ele>
        <time>2016-05-15T07:16:11.000Z</time>
      </trkpt>
      <trkpt lat="44.02686" lon="7.22223">
        <ele>1908</ele>
        <time>2016-05-15T07:16:15.000Z</time>
      </trkpt>
      <trkpt lat="44.02685" lon="7.2223">
        <ele>1908</ele>
        <time>2016-05-15T07:16:16.000Z</time>
      </trkpt>
      <trkpt lat="44.02685" lon="7.22236">
        <ele>1907</ele>
        <time>2016-05-15T07:16:17.000Z</time>
      </trkpt>
      <trkpt lat="44.02681" lon="7.2225">
        <ele>1903</ele>
        <time>2016-05-15T07:16:20.000Z</time>
      </trkpt>
      <trkpt lat="44.02678" lon="7.22258">
        <ele>1903</ele>
        <time>2016-05-15T07:16:22.000Z</time>
      </trkpt>
      <trkpt lat="44.02673" lon="7.22267">
        <ele>1903</ele>
        <time>2016-05-15T07:16:25.000Z</time>
      </trkpt>
      <trkpt lat="44.02671" lon="7.22271">
        <ele>1903</ele>
        <time>2016-05-15T07:16:26.000Z</time>
      </trkpt>
      <trkpt lat="44.0266" lon="7.22294">
        <ele>1908</ele>
        <time>2016-05-15T07:16:32.000Z</time>
      </trkpt>
      <trkpt lat="44.02655" lon="7.22303">
        <ele>1909</ele>
        <time>2016-05-15T07:16:34.000Z</time>
      </trkpt>
      <trkpt lat="44.02648" lon="7.22315">
        <ele>1911</ele>
        <time>2016-05-15T07:16:37.000Z</time>
      </trkpt>
      <trkpt lat="44.02632" lon="7.2233">
        <ele>1911</ele>
        <time>2016-05-15T07:16:43.000Z</time>
      </trkpt>
      <trkpt lat="44.0262" lon="7.22337">
        <ele>1924</ele>
        <time>2016-05-15T07:16:48.000Z</time>
      </trkpt>
      <trkpt lat="44.02618" lon="7.22339">
        <ele>1924</ele>
        <time>2016-05-15T07:16:49.000Z</time>
      </trkpt>
      <trkpt lat="44.02611" lon="7.22343">
        <ele>1924</ele>
        <time>2016-05-15T07:16:53.000Z</time>
      </trkpt>
      <trkpt lat="44.0261" lon="7.22344">
        <ele>1924</ele>
        <time>2016-05-15T07:16:54.000Z</time>
      </trkpt>
      <trkpt lat="44.02601" lon="7.22347">
        <ele>1924</ele>
        <time>2016-05-15T07:16:59.000Z</time>
      </trkpt>
      <trkpt lat="44.02598" lon="7.22349">
        <ele>1924</ele>
        <time>2016-05-15T07:17:01.000Z</time>
      </trkpt>
      <trkpt lat="44.02592" lon="7.22353">
        <ele>1924</ele>
        <time>2016-05-15T07:17:05.000Z</time>
      </trkpt>
      <trkpt lat="44.0259" lon="7.22353">
        <ele>1924</ele>
        <time>2016-05-15T07:17:06.000Z</time>
      </trkpt>
      <trkpt lat="44.02586" lon="7.22356">
        <ele>1925</ele>
        <time>2016-05-15T07:17:09.000Z</time>
      </trkpt>
      <trkpt lat="44.02582" lon="7.2236">
        <ele>1923</ele>
        <time>2016-05-15T07:17:12.000Z</time>
      </trkpt>
      <trkpt lat="44.02581" lon="7.22361">
        <ele>1923</ele>
        <time>2016-05-15T07:17:13.000Z</time>
      </trkpt>
      <trkpt lat="44.0258" lon="7.22361">
        <ele>1923</ele>
        <time>2016-05-15T07:17:16.000Z</time>
      </trkpt>
      <trkpt lat="44.02578" lon="7.22363">
        <ele>1923</ele>
        <time>2016-05-15T07:17:21.000Z</time>
      </trkpt>
      <trkpt lat="44.02575" lon="7.22363">
        <ele>1923</ele>
        <time>2016-05-15T07:17:24.000Z</time>
      </trkpt>
      <trkpt lat="44.02573" lon="7.22364">
        <ele>1923</ele>
        <time>2016-05-15T07:17:26.000Z</time>
      </trkpt>
      <trkpt lat="44.02571" lon="7.22366">
        <ele>1923</ele>
        <time>2016-05-15T07:17:29.000Z</time>
      </trkpt>
      <trkpt lat="44.0257" lon="7.22366">
        <ele>1923</ele>
        <time>2016-05-15T07:17:31.000Z</time>
      </trkpt>
      <trkpt lat="44.02569" lon="7.22366">
        <ele>1923</ele>
        <time>2016-05-15T07:17:32.000Z</time>
      </trkpt>
      <trkpt lat="44.02567" lon="7.22368">
        <ele>1924</ele>
        <time>2016-05-15T07:17:35.000Z</time>
      </trkpt>
      <trkpt lat="44.02565" lon="7.22371">
        <ele>1924</ele>
        <time>2016-05-15T07:17:38.000Z</time>
      </trkpt>
      <trkpt lat="44.02563" lon="7.22371">
        <ele>1924</ele>
        <time>2016-05-15T07:17:39.000Z</time>
      </trkpt>
      <trkpt lat="44.0256" lon="7.22374">
        <ele>1924</ele>
        <time>2016-05-15T07:17:43.000Z</time>
      </trkpt>
      <trkpt lat="44.02559" lon="7.22375">
        <ele>1924</ele>
        <time>2016-05-15T07:17:44.000Z</time>
      </trkpt>
      <trkpt lat="44.02559" lon="7.22375">
        <ele>1924</ele>
        <time>2016-05-15T07:17:46.000Z</time>
      </trkpt>
      <trkpt lat="44.02556" lon="7.22376">
        <ele>1924</ele>
        <time>2016-05-15T07:17:48.000Z</time>
      </trkpt>
      <trkpt lat="44.02552" lon="7.22379">
        <ele>1924</ele>
        <time>2016-05-15T07:17:52.000Z</time>
      </trkpt>
      <trkpt lat="44.02552" lon="7.2238">
        <ele>1924</ele>
        <time>2016-05-15T07:17:53.000Z</time>
      </trkpt>
      <trkpt lat="44.02545" lon="7.22384">
        <ele>1924</ele>
        <time>2016-05-15T07:17:59.000Z</time>
      </trkpt>
      <trkpt lat="44.02541" lon="7.22386">
        <ele>1924</ele>
        <time>2016-05-15T07:18:03.000Z</time>
      </trkpt>
      <trkpt lat="44.02537" lon="7.22389">
        <ele>1924</ele>
        <time>2016-05-15T07:18:08.000Z</time>
      </trkpt>
      <trkpt lat="44.02533" lon="7.22393">
        <ele>1924</ele>
        <time>2016-05-15T07:18:12.000Z</time>
      </trkpt>
      <trkpt lat="44.0253" lon="7.22396">
        <ele>1924</ele>
        <time>2016-05-15T07:18:15.000Z</time>
      </trkpt>
      <trkpt lat="44.02525" lon="7.224">
        <ele>1923</ele>
        <time>2016-05-15T07:18:20.000Z</time>
      </trkpt>
      <trkpt lat="44.02524" lon="7.22401">
        <ele>1923</ele>
        <time>2016-05-15T07:18:22.000Z</time>
      </trkpt>
      <trkpt lat="44.02519" lon="7.22407">
        <ele>1923</ele>
        <time>2016-05-15T07:18:28.000Z</time>
      </trkpt>
      <trkpt lat="44.02518" lon="7.22408">
        <ele>1923</ele>
        <time>2016-05-15T07:18:29.000Z</time>
      </trkpt>
      <trkpt lat="44.02513" lon="7.22414">
        <ele>1923</ele>
        <time>2016-05-15T07:18:35.000Z</time>
      </trkpt>
      <trkpt lat="44.02512" lon="7.22416">
        <ele>1923</ele>
        <time>2016-05-15T07:18:37.000Z</time>
      </trkpt>
      <trkpt lat="44.02509" lon="7.22419">
        <ele>1928</ele>
        <time>2016-05-15T07:18:40.000Z</time>
      </trkpt>
      <trkpt lat="44.02509" lon="7.22421">
        <ele>1928</ele>
        <time>2016-05-15T07:18:41.000Z</time>
      </trkpt>
      <trkpt lat="44.02508" lon="7.22422">
        <ele>1928</ele>
        <time>2016-05-15T07:18:42.000Z</time>
      </trkpt>
      <trkpt lat="44.02505" lon="7.22432">
        <ele>1930</ele>
        <time>2016-05-15T07:18:49.000Z</time>
      </trkpt>
      <trkpt lat="44.02504" lon="7.2244">
        <ele>1932</ele>
        <time>2016-05-15T07:18:54.000Z</time>
      </trkpt>
      <trkpt lat="44.02504" lon="7.22446">
        <ele>1934</ele>
        <time>2016-05-15T07:18:57.000Z</time>
      </trkpt>
      <trkpt lat="44.02503" lon="7.22451">
        <ele>1934</ele>
        <time>2016-05-15T07:19:00.000Z</time>
      </trkpt>
      <trkpt lat="44.02503" lon="7.22462">
        <ele>1935</ele>
        <time>2016-05-15T07:19:06.000Z</time>
      </trkpt>
      <trkpt lat="44.02503" lon="7.22466">
        <ele>1936</ele>
        <time>2016-05-15T07:19:12.000Z</time>
      </trkpt>
      <trkpt lat="44.02503" lon="7.22474">
        <ele>1936</ele>
        <time>2016-05-15T07:19:18.000Z</time>
      </trkpt>
      <trkpt lat="44.02503" lon="7.22482">
        <ele>1936</ele>
        <time>2016-05-15T07:19:21.000Z</time>
      </trkpt>
      <trkpt lat="44.02503" lon="7.22495">
        <ele>1934</ele>
        <time>2016-05-15T07:19:26.000Z</time>
      </trkpt>
      <trkpt lat="44.02503" lon="7.22501">
        <ele>1935</ele>
        <time>2016-05-15T07:19:28.000Z</time>
      </trkpt>
      <trkpt lat="44.02502" lon="7.22514">
        <ele>1938</ele>
        <time>2016-05-15T07:19:33.000Z</time>
      </trkpt>
      <trkpt lat="44.02502" lon="7.22523">
        <ele>1940</ele>
        <time>2016-05-15T07:19:37.000Z</time>
      </trkpt>
      <trkpt lat="44.02501" lon="7.22531">
        <ele>1941</ele>
        <time>2016-05-15T07:19:40.000Z</time>
      </trkpt>
      <trkpt lat="44.025" lon="7.22536">
        <ele>1925</ele>
        <time>2016-05-15T07:19:42.000Z</time>
      </trkpt>
      <trkpt lat="44.02498" lon="7.2255">
        <ele>1926</ele>
        <time>2016-05-15T07:19:48.000Z</time>
      </trkpt>
      <trkpt lat="44.02498" lon="7.22557">
        <ele>1927</ele>
        <time>2016-05-15T07:19:51.000Z</time>
      </trkpt>
      <trkpt lat="44.02496" lon="7.22568">
        <ele>1931</ele>
        <time>2016-05-15T07:19:57.000Z</time>
      </trkpt>
      <trkpt lat="44.02496" lon="7.22569">
        <ele>1931</ele>
        <time>2016-05-15T07:19:58.000Z</time>
      </trkpt>
      <trkpt lat="44.02495" lon="7.2257">
        <ele>1932</ele>
        <time>2016-05-15T07:20:02.000Z</time>
      </trkpt>
      <trkpt lat="44.02494" lon="7.22571">
        <ele>1932</ele>
        <time>2016-05-15T07:20:03.000Z</time>
      </trkpt>
      <trkpt lat="44.02492" lon="7.22578">
        <ele>1934</ele>
        <time>2016-05-15T07:20:08.000Z</time>
      </trkpt>
      <trkpt lat="44.02489" lon="7.22589">
        <ele>1935</ele>
        <time>2016-05-15T07:20:13.000Z</time>
      </trkpt>
      <trkpt lat="44.02488" lon="7.22593">
        <ele>1934</ele>
        <time>2016-05-15T07:20:15.000Z</time>
      </trkpt>
      <trkpt lat="44.02485" lon="7.226">
        <ele>1932</ele>
        <time>2016-05-15T07:20:19.000Z</time>
      </trkpt>
      <trkpt lat="44.02483" lon="7.22606">
        <ele>1931</ele>
        <time>2016-05-15T07:20:23.000Z</time>
      </trkpt>
      <trkpt lat="44.02483" lon="7.22608">
        <ele>1931</ele>
        <time>2016-05-15T07:20:24.000Z</time>
      </trkpt>
      <trkpt lat="44.02479" lon="7.2262">
        <ele>1930</ele>
        <time>2016-05-15T07:20:30.000Z</time>
      </trkpt>
      <trkpt lat="44.02476" lon="7.2263">
        <ele>1929</ele>
        <time>2016-05-15T07:20:35.000Z</time>
      </trkpt>
      <trkpt lat="44.02475" lon="7.22637">
        <ele>1930</ele>
        <time>2016-05-15T07:20:38.000Z</time>
      </trkpt>
      <trkpt lat="44.02473" lon="7.22646">
        <ele>1930</ele>
        <time>2016-05-15T07:20:42.000Z</time>
      </trkpt>
      <trkpt lat="44.02471" lon="7.22661">
        <ele>1930</ele>
        <time>2016-05-15T07:20:48.000Z</time>
      </trkpt>
      <trkpt lat="44.02468" lon="7.2268">
        <ele>1930</ele>
        <time>2016-05-15T07:20:56.000Z</time>
      </trkpt>
      <trkpt lat="44.02465" lon="7.22694">
        <ele>1929</ele>
        <time>2016-05-15T07:21:02.000Z</time>
      </trkpt>
      <trkpt lat="44.02464" lon="7.22699">
        <ele>1929</ele>
        <time>2016-05-15T07:21:04.000Z</time>
      </trkpt>
      <trkpt lat="44.02457" lon="7.22718">
        <ele>1928</ele>
        <time>2016-05-15T07:21:11.000Z</time>
      </trkpt>
      <trkpt lat="44.02449" lon="7.22733">
        <ele>1929</ele>
        <time>2016-05-15T07:21:14.000Z</time>
      </trkpt>
      <trkpt lat="44.02445" lon="7.22742">
        <ele>1929</ele>
        <time>2016-05-15T07:21:16.000Z</time>
      </trkpt>
      <trkpt lat="44.02439" lon="7.22752">
        <ele>1929</ele>
        <time>2016-05-15T07:21:18.000Z</time>
      </trkpt>
      <trkpt lat="44.02434" lon="7.22763">
        <ele>1930</ele>
        <time>2016-05-15T07:21:20.000Z</time>
      </trkpt>
      <trkpt lat="44.02425" lon="7.22774">
        <ele>1930</ele>
        <time>2016-05-15T07:21:23.000Z</time>
      </trkpt>
      <trkpt lat="44.02411" lon="7.22787">
        <ele>1927</ele>
        <time>2016-05-15T07:21:29.000Z</time>
      </trkpt>
      <trkpt lat="44.02397" lon="7.22801">
        <ele>1927</ele>
        <time>2016-05-15T07:21:35.000Z</time>
      </trkpt>
      <trkpt lat="44.02396" lon="7.22807">
        <ele>1927</ele>
        <time>2016-05-15T07:21:39.000Z</time>
      </trkpt>
      <trkpt lat="44.02396" lon="7.22807">
        <ele>1927</ele>
        <time>2016-05-15T07:21:40.000Z</time>
      </trkpt>
      <trkpt lat="44.02395" lon="7.2281">
        <ele>1928</ele>
        <time>2016-05-15T07:21:42.000Z</time>
      </trkpt>
      <trkpt lat="44.02396" lon="7.22813">
        <ele>1928</ele>
        <time>2016-05-15T07:21:44.000Z</time>
      </trkpt>
      <trkpt lat="44.02394" lon="7.22816">
        <ele>1928</ele>
        <time>2016-05-15T07:21:47.000Z</time>
      </trkpt>
      <trkpt lat="44.02394" lon="7.2282">
        <ele>1929</ele>
        <time>2016-05-15T07:21:50.000Z</time>
      </trkpt>
      <trkpt lat="44.02394" lon="7.22821">
        <ele>1929</ele>
        <time>2016-05-15T07:21:51.000Z</time>
      </trkpt>
      <trkpt lat="44.02393" lon="7.22822">
        <ele>1929</ele>
        <time>2016-05-15T07:21:52.000Z</time>
      </trkpt>
      <trkpt lat="44.02393" lon="7.22827">
        <ele>1930</ele>
        <time>2016-05-15T07:21:57.000Z</time>
      </trkpt>
      <trkpt lat="44.02392" lon="7.2284">
        <ele>1936</ele>
        <time>2016-05-15T07:22:03.000Z</time>
      </trkpt>
      <trkpt lat="44.0239" lon="7.22851">
        <ele>1935</ele>
        <time>2016-05-15T07:22:08.000Z</time>
      </trkpt>
      <trkpt lat="44.02384" lon="7.2287">
        <ele>1934</ele>
        <time>2016-05-15T07:22:15.000Z</time>
      </trkpt>
      <trkpt lat="44.02383" lon="7.22873">
        <ele>1934</ele>
        <time>2016-05-15T07:22:16.000Z</time>
      </trkpt>
      <trkpt lat="44.02379" lon="7.22879">
        <ele>1934</ele>
        <time>2016-05-15T07:22:19.000Z</time>
      </trkpt>
      <trkpt lat="44.02377" lon="7.22882">
        <ele>1934</ele>
        <time>2016-05-15T07:22:21.000Z</time>
      </trkpt>
      <trkpt lat="44.02373" lon="7.22888">
        <ele>1934</ele>
        <time>2016-05-15T07:22:24.000Z</time>
      </trkpt>
      <trkpt lat="44.02366" lon="7.22897">
        <ele>1935</ele>
        <time>2016-05-15T07:22:29.000Z</time>
      </trkpt>
      <trkpt lat="44.02356" lon="7.22908">
        <ele>1936</ele>
        <time>2016-05-15T07:22:36.000Z</time>
      </trkpt>
      <trkpt lat="44.02353" lon="7.2291">
        <ele>1936</ele>
        <time>2016-05-15T07:22:38.000Z</time>
      </trkpt>
      <trkpt lat="44.02346" lon="7.22915">
        <ele>1938</ele>
        <time>2016-05-15T07:22:41.000Z</time>
      </trkpt>
      <trkpt lat="44.02339" lon="7.22926">
        <ele>1937</ele>
        <time>2016-05-15T07:22:45.000Z</time>
      </trkpt>
      <trkpt lat="44.02337" lon="7.22929">
        <ele>1937</ele>
        <time>2016-05-15T07:22:46.000Z</time>
      </trkpt>
      <trkpt lat="44.02321" lon="7.22942">
        <ele>1932</ele>
        <time>2016-05-15T07:22:52.000Z</time>
      </trkpt>
      <trkpt lat="44.02305" lon="7.22961">
        <ele>1930</ele>
        <time>2016-05-15T07:22:58.000Z</time>
      </trkpt>
      <trkpt lat="44.02304" lon="7.22966">
        <ele>1930</ele>
        <time>2016-05-15T07:22:59.000Z</time>
      </trkpt>
      <trkpt lat="44.023" lon="7.22987">
        <ele>1931</ele>
        <time>2016-05-15T07:23:02.000Z</time>
      </trkpt>
      <trkpt lat="44.02297" lon="7.22992">
        <ele>1931</ele>
        <time>2016-05-15T07:23:03.000Z</time>
      </trkpt>
      <trkpt lat="44.02291" lon="7.23006">
        <ele>1929</ele>
        <time>2016-05-15T07:23:06.000Z</time>
      </trkpt>
      <trkpt lat="44.02283" lon="7.23025">
        <ele>1928</ele>
        <time>2016-05-15T07:23:10.000Z</time>
      </trkpt>
      <trkpt lat="44.0228" lon="7.23029">
        <ele>1928</ele>
        <time>2016-05-15T07:23:11.000Z</time>
      </trkpt>
      <trkpt lat="44.02264" lon="7.23048">
        <ele>1929</ele>
        <time>2016-05-15T07:23:16.000Z</time>
      </trkpt>
      <trkpt lat="44.02262" lon="7.2305">
        <ele>1929</ele>
        <time>2016-05-15T07:23:17.000Z</time>
      </trkpt>
      <trkpt lat="44.02247" lon="7.2306">
        <ele>1929</ele>
        <time>2016-05-15T07:23:22.000Z</time>
      </trkpt>
      <trkpt lat="44.0224" lon="7.23065">
        <ele>1929</ele>
        <time>2016-05-15T07:23:24.000Z</time>
      </trkpt>
      <trkpt lat="44.02236" lon="7.23067">
        <ele>1929</ele>
        <time>2016-05-15T07:23:25.000Z</time>
      </trkpt>
      <trkpt lat="44.02228" lon="7.23073">
        <ele>1929</ele>
        <time>2016-05-15T07:23:27.000Z</time>
      </trkpt>
      <trkpt lat="44.02223" lon="7.23075">
        <ele>1928</ele>
        <time>2016-05-15T07:23:28.000Z</time>
      </trkpt>
      <trkpt lat="44.02211" lon="7.23082">
        <ele>1927</ele>
        <time>2016-05-15T07:23:30.000Z</time>
      </trkpt>
      <trkpt lat="44.02205" lon="7.23085">
        <ele>1928</ele>
        <time>2016-05-15T07:23:31.000Z</time>
      </trkpt>
      <trkpt lat="44.02199" lon="7.23088">
        <ele>1928</ele>
        <time>2016-05-15T07:23:32.000Z</time>
      </trkpt>
      <trkpt lat="44.0219" lon="7.23091">
        <ele>1928</ele>
        <time>2016-05-15T07:23:34.000Z</time>
      </trkpt>
      <trkpt lat="44.02186" lon="7.2309">
        <ele>1928</ele>
        <time>2016-05-15T07:23:35.000Z</time>
      </trkpt>
      <trkpt lat="44.02182" lon="7.23091">
        <ele>1928</ele>
        <time>2016-05-15T07:23:36.000Z</time>
      </trkpt>
      <trkpt lat="44.02169" lon="7.23096">
        <ele>1928</ele>
        <time>2016-05-15T07:23:40.000Z</time>
      </trkpt>
      <trkpt lat="44.02154" lon="7.23103">
        <ele>1927</ele>
        <time>2016-05-15T07:23:45.000Z</time>
      </trkpt>
      <trkpt lat="44.02142" lon="7.23109">
        <ele>1927</ele>
        <time>2016-05-15T07:23:49.000Z</time>
      </trkpt>
      <trkpt lat="44.02128" lon="7.2311">
        <ele>1926</ele>
        <time>2016-05-15T07:23:52.000Z</time>
      </trkpt>
      <trkpt lat="44.02119" lon="7.2311">
        <ele>1926</ele>
        <time>2016-05-15T07:23:54.000Z</time>
      </trkpt>
      <trkpt lat="44.02103" lon="7.23122">
        <ele>1927</ele>
        <time>2016-05-15T07:23:58.000Z</time>
      </trkpt>
      <trkpt lat="44.02098" lon="7.23124">
        <ele>1927</ele>
        <time>2016-05-15T07:23:59.000Z</time>
      </trkpt>
      <trkpt lat="44.0209" lon="7.23128">
        <ele>1928</ele>
        <time>2016-05-15T07:24:01.000Z</time>
      </trkpt>
      <trkpt lat="44.02087" lon="7.23129">
        <ele>1928</ele>
        <time>2016-05-15T07:24:02.000Z</time>
      </trkpt>
      <trkpt lat="44.02084" lon="7.23129">
        <ele>1928</ele>
        <time>2016-05-15T07:24:03.000Z</time>
      </trkpt>
      <trkpt lat="44.0208" lon="7.23128">
        <ele>1923</ele>
        <time>2016-05-15T07:24:04.000Z</time>
      </trkpt>
      <trkpt lat="44.02072" lon="7.23129">
        <ele>1923</ele>
        <time>2016-05-15T07:24:06.000Z</time>
      </trkpt>
      <trkpt lat="44.02068" lon="7.23131">
        <ele>1923</ele>
        <time>2016-05-15T07:24:07.000Z</time>
      </trkpt>
      <trkpt lat="44.02056" lon="7.23139">
        <ele>1923</ele>
        <time>2016-05-15T07:24:10.000Z</time>
      </trkpt>
      <trkpt lat="44.02044" lon="7.2315">
        <ele>1924</ele>
        <time>2016-05-15T07:24:13.000Z</time>
      </trkpt>
      <trkpt lat="44.02041" lon="7.23153">
        <ele>1924</ele>
        <time>2016-05-15T07:24:14.000Z</time>
      </trkpt>
      <trkpt lat="44.02036" lon="7.23155">
        <ele>1924</ele>
        <time>2016-05-15T07:24:15.000Z</time>
      </trkpt>
      <trkpt lat="44.02029" lon="7.2316">
        <ele>1925</ele>
        <time>2016-05-15T07:24:17.000Z</time>
      </trkpt>
      <trkpt lat="44.02017" lon="7.23169">
        <ele>1934</ele>
        <time>2016-05-15T07:24:20.000Z</time>
      </trkpt>
      <trkpt lat="44.02013" lon="7.2317">
        <ele>1934</ele>
        <time>2016-05-15T07:24:21.000Z</time>
      </trkpt>
      <trkpt lat="44.02008" lon="7.23173">
        <ele>1934</ele>
        <time>2016-05-15T07:24:22.000Z</time>
      </trkpt>
      <trkpt lat="44.02" lon="7.23175">
        <ele>1933</ele>
        <time>2016-05-15T07:24:24.000Z</time>
      </trkpt>
      <trkpt lat="44.01997" lon="7.23176">
        <ele>1936</ele>
        <time>2016-05-15T07:24:25.000Z</time>
      </trkpt>
      <trkpt lat="44.01993" lon="7.23177">
        <ele>1937</ele>
        <time>2016-05-15T07:24:26.000Z</time>
      </trkpt>
      <trkpt lat="44.01975" lon="7.23176">
        <ele>1940</ele>
        <time>2016-05-15T07:24:31.000Z</time>
      </trkpt>
      <trkpt lat="44.01969" lon="7.23177">
        <ele>1940</ele>
        <time>2016-05-15T07:24:35.000Z</time>
      </trkpt>
      <trkpt lat="44.01967" lon="7.23178">
        <ele>1941</ele>
        <time>2016-05-15T07:24:36.000Z</time>
      </trkpt>
      <trkpt lat="44.01965" lon="7.23179">
        <ele>1941</ele>
        <time>2016-05-15T07:24:38.000Z</time>
      </trkpt>
      <trkpt lat="44.01961" lon="7.23179">
        <ele>1941</ele>
        <time>2016-05-15T07:24:40.000Z</time>
      </trkpt>
      <trkpt lat="44.01958" lon="7.23179">
        <ele>1941</ele>
        <time>2016-05-15T07:24:41.000Z</time>
      </trkpt>
      <trkpt lat="44.01956" lon="7.2318">
        <ele>1941</ele>
        <time>2016-05-15T07:24:42.000Z</time>
      </trkpt>
      <trkpt lat="44.01945" lon="7.2318">
        <ele>1941</ele>
        <time>2016-05-15T07:24:47.000Z</time>
      </trkpt>
      <trkpt lat="44.01943" lon="7.23181">
        <ele>1941</ele>
        <time>2016-05-15T07:24:48.000Z</time>
      </trkpt>
      <trkpt lat="44.01934" lon="7.23181">
        <ele>1940</ele>
        <time>2016-05-15T07:24:52.000Z</time>
      </trkpt>
      <trkpt lat="44.0193" lon="7.23181">
        <ele>1940</ele>
        <time>2016-05-15T07:24:54.000Z</time>
      </trkpt>
      <trkpt lat="44.01925" lon="7.23182">
        <ele>1939</ele>
        <time>2016-05-15T07:24:58.000Z</time>
      </trkpt>
      <trkpt lat="44.01923" lon="7.23182">
        <ele>1939</ele>
        <time>2016-05-15T07:24:59.000Z</time>
      </trkpt>
      <trkpt lat="44.01915" lon="7.23182">
        <ele>1943</ele>
        <time>2016-05-15T07:25:04.000Z</time>
      </trkpt>
      <trkpt lat="44.01909" lon="7.23183">
        <ele>1945</ele>
        <time>2016-05-15T07:25:08.000Z</time>
      </trkpt>
      <trkpt lat="44.01906" lon="7.23183">
        <ele>1945</ele>
        <time>2016-05-15T07:25:09.000Z</time>
      </trkpt>
      <trkpt lat="44.01899" lon="7.23183">
        <ele>1947</ele>
        <time>2016-05-15T07:25:13.000Z</time>
      </trkpt>
      <trkpt lat="44.01892" lon="7.23181">
        <ele>1948</ele>
        <time>2016-05-15T07:25:17.000Z</time>
      </trkpt>
      <trkpt lat="44.01889" lon="7.2318">
        <ele>1948</ele>
        <time>2016-05-15T07:25:19.000Z</time>
      </trkpt>
      <trkpt lat="44.01885" lon="7.23178">
        <ele>1949</ele>
        <time>2016-05-15T07:25:22.000Z</time>
      </trkpt>
      <trkpt lat="44.01881" lon="7.23178">
        <ele>1949</ele>
        <time>2016-05-15T07:25:24.000Z</time>
      </trkpt>
      <trkpt lat="44.01872" lon="7.23177">
        <ele>1950</ele>
        <time>2016-05-15T07:25:29.000Z</time>
      </trkpt>
      <trkpt lat="44.01866" lon="7.23178">
        <ele>1950</ele>
        <time>2016-05-15T07:25:32.000Z</time>
      </trkpt>
      <trkpt lat="44.01852" lon="7.23182">
        <ele>1950</ele>
        <time>2016-05-15T07:25:39.000Z</time>
      </trkpt>
      <trkpt lat="44.01845" lon="7.23184">
        <ele>1950</ele>
        <time>2016-05-15T07:25:43.000Z</time>
      </trkpt>
      <trkpt lat="44.01842" lon="7.23184">
        <ele>1949</ele>
        <time>2016-05-15T07:25:45.000Z</time>
      </trkpt>
      <trkpt lat="44.01837" lon="7.23183">
        <ele>1948</ele>
        <time>2016-05-15T07:25:48.000Z</time>
      </trkpt>
      <trkpt lat="44.01833" lon="7.23181">
        <ele>1952</ele>
        <time>2016-05-15T07:25:50.000Z</time>
      </trkpt>
      <trkpt lat="44.01821" lon="7.2318">
        <ele>1954</ele>
        <time>2016-05-15T07:25:56.000Z</time>
      </trkpt>
      <trkpt lat="44.0181" lon="7.2318">
        <ele>1958</ele>
        <time>2016-05-15T07:26:02.000Z</time>
      </trkpt>
      <trkpt lat="44.01801" lon="7.23178">
        <ele>1960</ele>
        <time>2016-05-15T07:26:07.000Z</time>
      </trkpt>
      <trkpt lat="44.01797" lon="7.23177">
        <ele>1960</ele>
        <time>2016-05-15T07:26:09.000Z</time>
      </trkpt>
      <trkpt lat="44.01792" lon="7.23175">
        <ele>1960</ele>
        <time>2016-05-15T07:26:13.000Z</time>
      </trkpt>
      <trkpt lat="44.01788" lon="7.23175">
        <ele>1961</ele>
        <time>2016-05-15T07:26:16.000Z</time>
      </trkpt>
      <trkpt lat="44.01787" lon="7.23175">
        <ele>1961</ele>
        <time>2016-05-15T07:26:17.000Z</time>
      </trkpt>
      <trkpt lat="44.01779" lon="7.23173">
        <ele>1960</ele>
        <time>2016-05-15T07:26:22.000Z</time>
      </trkpt>
      <trkpt lat="44.01775" lon="7.23172">
        <ele>1960</ele>
        <time>2016-05-15T07:26:24.000Z</time>
      </trkpt>
      <trkpt lat="44.0177" lon="7.23172">
        <ele>1959</ele>
        <time>2016-05-15T07:26:27.000Z</time>
      </trkpt>
      <trkpt lat="44.01759" lon="7.23173">
        <ele>1956</ele>
        <time>2016-05-15T07:26:33.000Z</time>
      </trkpt>
      <trkpt lat="44.01757" lon="7.23173">
        <ele>1955</ele>
        <time>2016-05-15T07:26:34.000Z</time>
      </trkpt>
      <trkpt lat="44.01753" lon="7.23173">
        <ele>1954</ele>
        <time>2016-05-15T07:26:37.000Z</time>
      </trkpt>
      <trkpt lat="44.01745" lon="7.23173">
        <ele>1957</ele>
        <time>2016-05-15T07:26:41.000Z</time>
      </trkpt>
      <trkpt lat="44.01737" lon="7.23172">
        <ele>1961</ele>
        <time>2016-05-15T07:26:44.000Z</time>
      </trkpt>
      <trkpt lat="44.0172" lon="7.23171">
        <ele>1967</ele>
        <time>2016-05-15T07:26:50.000Z</time>
      </trkpt>
      <trkpt lat="44.01695" lon="7.23173">
        <ele>1968</ele>
        <time>2016-05-15T07:26:57.000Z</time>
      </trkpt>
      <trkpt lat="44.01684" lon="7.23179">
        <ele>1968</ele>
        <time>2016-05-15T07:27:00.000Z</time>
      </trkpt>
      <trkpt lat="44.01678" lon="7.23178">
        <ele>1966</ele>
        <time>2016-05-15T07:27:02.000Z</time>
      </trkpt>
      <trkpt lat="44.01676" lon="7.23176">
        <ele>1965</ele>
        <time>2016-05-15T07:27:03.000Z</time>
      </trkpt>
      <trkpt lat="44.01673" lon="7.23175">
        <ele>1963</ele>
        <time>2016-05-15T07:27:04.000Z</time>
      </trkpt>
      <trkpt lat="44.01664" lon="7.23172">
        <ele>1964</ele>
        <time>2016-05-15T07:27:08.000Z</time>
      </trkpt>
      <trkpt lat="44.01662" lon="7.23172">
        <ele>1965</ele>
        <time>2016-05-15T07:27:09.000Z</time>
      </trkpt>
      <trkpt lat="44.01654" lon="7.2317">
        <ele>1970</ele>
        <time>2016-05-15T07:27:14.000Z</time>
      </trkpt>
      <trkpt lat="44.01649" lon="7.2317">
        <ele>1974</ele>
        <time>2016-05-15T07:27:17.000Z</time>
      </trkpt>
      <trkpt lat="44.01646" lon="7.2317">
        <ele>1975</ele>
        <time>2016-05-15T07:27:19.000Z</time>
      </trkpt>
      <trkpt lat="44.01644" lon="7.2317">
        <ele>1976</ele>
        <time>2016-05-15T07:27:21.000Z</time>
      </trkpt>
      <trkpt lat="44.0164" lon="7.2317">
        <ele>1978</ele>
        <time>2016-05-15T07:27:24.000Z</time>
      </trkpt>
      <trkpt lat="44.01638" lon="7.2317">
        <ele>1979</ele>
        <time>2016-05-15T07:27:25.000Z</time>
      </trkpt>
      <trkpt lat="44.01633" lon="7.23172">
        <ele>1981</ele>
        <time>2016-05-15T07:27:29.000Z</time>
      </trkpt>
      <trkpt lat="44.01632" lon="7.23172">
        <ele>1981</ele>
        <time>2016-05-15T07:27:31.000Z</time>
      </trkpt>
      <trkpt lat="44.01627" lon="7.23173">
        <ele>1983</ele>
        <time>2016-05-15T07:27:34.000Z</time>
      </trkpt>
      <trkpt lat="44.01624" lon="7.23173">
        <ele>1984</ele>
        <time>2016-05-15T07:27:36.000Z</time>
      </trkpt>
      <trkpt lat="44.01622" lon="7.23175">
        <ele>1984</ele>
        <time>2016-05-15T07:27:39.000Z</time>
      </trkpt>
      <trkpt lat="44.01622" lon="7.23175">
        <ele>1984</ele>
        <time>2016-05-15T07:27:41.000Z</time>
      </trkpt>
      <trkpt lat="44.01614" lon="7.23175">
        <ele>1986</ele>
        <time>2016-05-15T07:27:48.000Z</time>
      </trkpt>
      <trkpt lat="44.01609" lon="7.23173">
        <ele>1986</ele>
        <time>2016-05-15T07:27:54.000Z</time>
      </trkpt>
      <trkpt lat="44.01608" lon="7.23172">
        <ele>1986</ele>
        <time>2016-05-15T07:27:55.000Z</time>
      </trkpt>
      <trkpt lat="44.01604" lon="7.2317">
        <ele>1986</ele>
        <time>2016-05-15T07:27:59.000Z</time>
      </trkpt>
      <trkpt lat="44.016" lon="7.23168">
        <ele>1986</ele>
        <time>2016-05-15T07:28:02.000Z</time>
      </trkpt>
      <trkpt lat="44.01596" lon="7.23167">
        <ele>1985</ele>
        <time>2016-05-15T07:28:05.000Z</time>
      </trkpt>
      <trkpt lat="44.0159" lon="7.23164">
        <ele>1975</ele>
        <time>2016-05-15T07:28:11.000Z</time>
      </trkpt>
      <trkpt lat="44.01589" lon="7.2316">
        <ele>1973</ele>
        <time>2016-05-15T07:28:17.000Z</time>
      </trkpt>
      <trkpt lat="44.01588" lon="7.23159">
        <ele>1973</ele>
        <time>2016-05-15T07:28:18.000Z</time>
      </trkpt>
      <trkpt lat="44.01587" lon="7.23156">
        <ele>1971</ele>
        <time>2016-05-15T07:28:24.000Z</time>
      </trkpt>
      <trkpt lat="44.01585" lon="7.23154">
        <ele>1970</ele>
        <time>2016-05-15T07:28:27.000Z</time>
      </trkpt>
      <trkpt lat="44.01584" lon="7.23151">
        <ele>1968</ele>
        <time>2016-05-15T07:28:30.000Z</time>
      </trkpt>
      <trkpt lat="44.01584" lon="7.23152">
        <ele>1968</ele>
        <time>2016-05-15T07:28:31.000Z</time>
      </trkpt>
      <trkpt lat="44.01583" lon="7.23149">
        <ele>1983</ele>
        <time>2016-05-15T07:28:33.000Z</time>
      </trkpt>
      <trkpt lat="44.0158" lon="7.23145">
        <ele>1983</ele>
        <time>2016-05-15T07:28:37.000Z</time>
      </trkpt>
      <trkpt lat="44.01576" lon="7.23141">
        <ele>1983</ele>
        <time>2016-05-15T07:28:42.000Z</time>
      </trkpt>
      <trkpt lat="44.01574" lon="7.23139">
        <ele>1983</ele>
        <time>2016-05-15T07:28:44.000Z</time>
      </trkpt>
      <trkpt lat="44.01573" lon="7.23138">
        <ele>1983</ele>
        <time>2016-05-15T07:28:45.000Z</time>
      </trkpt>
      <trkpt lat="44.01569" lon="7.23135">
        <ele>1983</ele>
        <time>2016-05-15T07:28:49.000Z</time>
      </trkpt>
      <trkpt lat="44.01568" lon="7.23135">
        <ele>1983</ele>
        <time>2016-05-15T07:28:50.000Z</time>
      </trkpt>
      <trkpt lat="44.01567" lon="7.23134">
        <ele>1983</ele>
        <time>2016-05-15T07:28:51.000Z</time>
      </trkpt>
      <trkpt lat="44.01565" lon="7.23134">
        <ele>1983</ele>
        <time>2016-05-15T07:28:53.000Z</time>
      </trkpt>
      <trkpt lat="44.01562" lon="7.23133">
        <ele>1983</ele>
        <time>2016-05-15T07:28:56.000Z</time>
      </trkpt>
      <trkpt lat="44.01561" lon="7.23133">
        <ele>1984</ele>
        <time>2016-05-15T07:28:57.000Z</time>
      </trkpt>
      <trkpt lat="44.01556" lon="7.23131">
        <ele>1984</ele>
        <time>2016-05-15T07:29:03.000Z</time>
      </trkpt>
      <trkpt lat="44.01556" lon="7.23131">
        <ele>1984</ele>
        <time>2016-05-15T07:29:04.000Z</time>
      </trkpt>
      <trkpt lat="44.01554" lon="7.2313">
        <ele>1984</ele>
        <time>2016-05-15T07:29:07.000Z</time>
      </trkpt>
      <trkpt lat="44.01551" lon="7.23128">
        <ele>1985</ele>
        <time>2016-05-15T07:29:11.000Z</time>
      </trkpt>
      <trkpt lat="44.0155" lon="7.23128">
        <ele>1985</ele>
        <time>2016-05-15T07:29:12.000Z</time>
      </trkpt>
      <trkpt lat="44.01545" lon="7.23127">
        <ele>1986</ele>
        <time>2016-05-15T07:29:18.000Z</time>
      </trkpt>
      <trkpt lat="44.0154" lon="7.23126">
        <ele>1987</ele>
        <time>2016-05-15T07:29:24.000Z</time>
      </trkpt>
      <trkpt lat="44.0154" lon="7.23125">
        <ele>1987</ele>
        <time>2016-05-15T07:29:25.000Z</time>
      </trkpt>
      <trkpt lat="44.01536" lon="7.23122">
        <ele>1987</ele>
        <time>2016-05-15T07:29:29.000Z</time>
      </trkpt>
      <trkpt lat="44.01534" lon="7.23121">
        <ele>1988</ele>
        <time>2016-05-15T07:29:32.000Z</time>
      </trkpt>
      <trkpt lat="44.01531" lon="7.2312">
        <ele>1988</ele>
        <time>2016-05-15T07:29:35.000Z</time>
      </trkpt>
      <trkpt lat="44.01528" lon="7.23116">
        <ele>1988</ele>
        <time>2016-05-15T07:29:40.000Z</time>
      </trkpt>
      <trkpt lat="44.01526" lon="7.23114">
        <ele>1989</ele>
        <time>2016-05-15T07:29:43.000Z</time>
      </trkpt>
      <trkpt lat="44.01524" lon="7.23111">
        <ele>1989</ele>
        <time>2016-05-15T07:29:47.000Z</time>
      </trkpt>
      <trkpt lat="44.01521" lon="7.23105">
        <ele>1989</ele>
        <time>2016-05-15T07:29:53.000Z</time>
      </trkpt>
      <trkpt lat="44.0152" lon="7.23105">
        <ele>1989</ele>
        <time>2016-05-15T07:29:54.000Z</time>
      </trkpt>
      <trkpt lat="44.01517" lon="7.23102">
        <ele>1990</ele>
        <time>2016-05-15T07:30:01.000Z</time>
      </trkpt>
      <trkpt lat="44.01516" lon="7.23101">
        <ele>1990</ele>
        <time>2016-05-15T07:30:02.000Z</time>
      </trkpt>
      <trkpt lat="44.01515" lon="7.23097">
        <ele>1990</ele>
        <time>2016-05-15T07:30:07.000Z</time>
      </trkpt>
      <trkpt lat="44.01515" lon="7.23096">
        <ele>1990</ele>
        <time>2016-05-15T07:30:08.000Z</time>
      </trkpt>
      <trkpt lat="44.01513" lon="7.23092">
        <ele>1991</ele>
        <time>2016-05-15T07:30:15.000Z</time>
      </trkpt>
      <trkpt lat="44.01512" lon="7.23091">
        <ele>1991</ele>
        <time>2016-05-15T07:30:17.000Z</time>
      </trkpt>
      <trkpt lat="44.01511" lon="7.23086">
        <ele>1991</ele>
        <time>2016-05-15T07:30:22.000Z</time>
      </trkpt>
      <trkpt lat="44.01511" lon="7.23083">
        <ele>1981</ele>
        <time>2016-05-15T07:30:25.000Z</time>
      </trkpt>
      <trkpt lat="44.0151" lon="7.23079">
        <ele>1981</ele>
        <time>2016-05-15T07:30:29.000Z</time>
      </trkpt>
      <trkpt lat="44.01507" lon="7.23078">
        <ele>1983</ele>
        <time>2016-05-15T07:30:32.000Z</time>
      </trkpt>
      <trkpt lat="44.01498" lon="7.23075">
        <ele>1994</ele>
        <time>2016-05-15T07:30:37.000Z</time>
      </trkpt>
      <trkpt lat="44.01491" lon="7.23074">
        <ele>1994</ele>
        <time>2016-05-15T07:30:42.000Z</time>
      </trkpt>
      <trkpt lat="44.0148" lon="7.2307">
        <ele>1993</ele>
        <time>2016-05-15T07:30:48.000Z</time>
      </trkpt>
      <trkpt lat="44.01477" lon="7.23069">
        <ele>1994</ele>
        <time>2016-05-15T07:30:50.000Z</time>
      </trkpt>
      <trkpt lat="44.01473" lon="7.23066">
        <ele>1994</ele>
        <time>2016-05-15T07:30:54.000Z</time>
      </trkpt>
      <trkpt lat="44.01469" lon="7.23065">
        <ele>1994</ele>
        <time>2016-05-15T07:30:59.000Z</time>
      </trkpt>
      <trkpt lat="44.01464" lon="7.23063">
        <ele>1994</ele>
        <time>2016-05-15T07:31:03.000Z</time>
      </trkpt>
      <trkpt lat="44.0146" lon="7.23059">
        <ele>1995</ele>
        <time>2016-05-15T07:31:07.000Z</time>
      </trkpt>
      <trkpt lat="44.01454" lon="7.23053">
        <ele>1995</ele>
        <time>2016-05-15T07:31:12.000Z</time>
      </trkpt>
      <trkpt lat="44.01453" lon="7.23051">
        <ele>1995</ele>
        <time>2016-05-15T07:31:14.000Z</time>
      </trkpt>
      <trkpt lat="44.01448" lon="7.23046">
        <ele>1995</ele>
        <time>2016-05-15T07:31:18.000Z</time>
      </trkpt>
      <trkpt lat="44.01447" lon="7.23045">
        <ele>1995</ele>
        <time>2016-05-15T07:31:19.000Z</time>
      </trkpt>
      <trkpt lat="44.01443" lon="7.23042">
        <ele>1995</ele>
        <time>2016-05-15T07:31:23.000Z</time>
      </trkpt>
      <trkpt lat="44.01442" lon="7.23041">
        <ele>1995</ele>
        <time>2016-05-15T07:31:24.000Z</time>
      </trkpt>
      <trkpt lat="44.01436" lon="7.23036">
        <ele>1995</ele>
        <time>2016-05-15T07:31:29.000Z</time>
      </trkpt>
      <trkpt lat="44.01434" lon="7.23035">
        <ele>1995</ele>
        <time>2016-05-15T07:31:31.000Z</time>
      </trkpt>
      <trkpt lat="44.01426" lon="7.23027">
        <ele>1995</ele>
        <time>2016-05-15T07:31:37.000Z</time>
      </trkpt>
      <trkpt lat="44.01417" lon="7.23015">
        <ele>1996</ele>
        <time>2016-05-15T07:31:43.000Z</time>
      </trkpt>
      <trkpt lat="44.01413" lon="7.23007">
        <ele>2000</ele>
        <time>2016-05-15T07:31:48.000Z</time>
      </trkpt>
      <trkpt lat="44.0141" lon="7.23001">
        <ele>2000</ele>
        <time>2016-05-15T07:31:53.000Z</time>
      </trkpt>
      <trkpt lat="44.01406" lon="7.22993">
        <ele>1992</ele>
        <time>2016-05-15T07:32:00.000Z</time>
      </trkpt>
      <trkpt lat="44.01406" lon="7.22988">
        <ele>1991</ele>
        <time>2016-05-15T07:32:04.000Z</time>
      </trkpt>
      <trkpt lat="44.01406" lon="7.22987">
        <ele>1991</ele>
        <time>2016-05-15T07:32:05.000Z</time>
      </trkpt>
      <trkpt lat="44.01405" lon="7.22986">
        <ele>1991</ele>
        <time>2016-05-15T07:32:06.000Z</time>
      </trkpt>
      <trkpt lat="44.01405" lon="7.22984">
        <ele>1990</ele>
        <time>2016-05-15T07:32:07.000Z</time>
      </trkpt>
      <trkpt lat="44.01404" lon="7.22977">
        <ele>1988</ele>
        <time>2016-05-15T07:32:12.000Z</time>
      </trkpt>
      <trkpt lat="44.01402" lon="7.22975">
        <ele>1988</ele>
        <time>2016-05-15T07:32:14.000Z</time>
      </trkpt>
      <trkpt lat="44.01402" lon="7.22973">
        <ele>1987</ele>
        <time>2016-05-15T07:32:15.000Z</time>
      </trkpt>
      <trkpt lat="44.014" lon="7.2297">
        <ele>1986</ele>
        <time>2016-05-15T07:32:17.000Z</time>
      </trkpt>
      <trkpt lat="44.01399" lon="7.22968">
        <ele>1986</ele>
        <time>2016-05-15T07:32:19.000Z</time>
      </trkpt>
      <trkpt lat="44.01395" lon="7.22966">
        <ele>1985</ele>
        <time>2016-05-15T07:32:21.000Z</time>
      </trkpt>
      <trkpt lat="44.0138" lon="7.22963">
        <ele>1985</ele>
        <time>2016-05-15T07:32:27.000Z</time>
      </trkpt>
      <trkpt lat="44.01372" lon="7.22961">
        <ele>1985</ele>
        <time>2016-05-15T07:32:31.000Z</time>
      </trkpt>
      <trkpt lat="44.01367" lon="7.2296">
        <ele>1985</ele>
        <time>2016-05-15T07:32:35.000Z</time>
      </trkpt>
      <trkpt lat="44.01365" lon="7.22958">
        <ele>1984</ele>
        <time>2016-05-15T07:32:38.000Z</time>
      </trkpt>
      <trkpt lat="44.01362" lon="7.22957">
        <ele>1984</ele>
        <time>2016-05-15T07:32:40.000Z</time>
      </trkpt>
      <trkpt lat="44.01361" lon="7.22958">
        <ele>1984</ele>
        <time>2016-05-15T07:32:41.000Z</time>
      </trkpt>
      <trkpt lat="44.0136" lon="7.22959">
        <ele>1985</ele>
        <time>2016-05-15T07:32:43.000Z</time>
      </trkpt>
      <trkpt lat="44.01359" lon="7.22959">
        <ele>1985</ele>
        <time>2016-05-15T07:32:45.000Z</time>
      </trkpt>
      <trkpt lat="44.01358" lon="7.2296">
        <ele>1985</ele>
        <time>2016-05-15T07:32:46.000Z</time>
      </trkpt>
      <trkpt lat="44.01356" lon="7.22962">
        <ele>1985</ele>
        <time>2016-05-15T07:32:49.000Z</time>
      </trkpt>
      <trkpt lat="44.01348" lon="7.22968">
        <ele>1987</ele>
        <time>2016-05-15T07:32:54.000Z</time>
      </trkpt>
      <trkpt lat="44.01333" lon="7.2297">
        <ele>1988</ele>
        <time>2016-05-15T07:32:59.000Z</time>
      </trkpt>
      <trkpt lat="44.01328" lon="7.22971">
        <ele>1989</ele>
        <time>2016-05-15T07:33:01.000Z</time>
      </trkpt>
      <trkpt lat="44.01323" lon="7.22971">
        <ele>1988</ele>
        <time>2016-05-15T07:33:03.000Z</time>
      </trkpt>
      <trkpt lat="44.01319" lon="7.22973">
        <ele>1989</ele>
        <time>2016-05-15T07:33:04.000Z</time>
      </trkpt>
      <trkpt lat="44.0131" lon="7.22973">
        <ele>1988</ele>
        <time>2016-05-15T07:33:07.000Z</time>
      </trkpt>
      <trkpt lat="44.01307" lon="7.22973">
        <ele>1988</ele>
        <time>2016-05-15T07:33:08.000Z</time>
      </trkpt>
      <trkpt lat="44.01292" lon="7.22969">
        <ele>1986</ele>
        <time>2016-05-15T07:33:13.000Z</time>
      </trkpt>
      <trkpt lat="44.01291" lon="7.22968">
        <ele>1986</ele>
        <time>2016-05-15T07:33:14.000Z</time>
      </trkpt>
      <trkpt lat="44.01284" lon="7.22965">
        <ele>1985</ele>
        <time>2016-05-15T07:33:17.000Z</time>
      </trkpt>
      <trkpt lat="44.01278" lon="7.2296">
        <ele>1985</ele>
        <time>2016-05-15T07:33:19.000Z</time>
      </trkpt>
      <trkpt lat="44.0127" lon="7.22956">
        <ele>1984</ele>
        <time>2016-05-15T07:33:22.000Z</time>
      </trkpt>
      <trkpt lat="44.01267" lon="7.22956">
        <ele>1984</ele>
        <time>2016-05-15T07:33:23.000Z</time>
      </trkpt>
      <trkpt lat="44.0126" lon="7.22952">
        <ele>1983</ele>
        <time>2016-05-15T07:33:26.000Z</time>
      </trkpt>
      <trkpt lat="44.01259" lon="7.22952">
        <ele>1983</ele>
        <time>2016-05-15T07:33:27.000Z</time>
      </trkpt>
      <trkpt lat="44.0125" lon="7.2295">
        <ele>1983</ele>
        <time>2016-05-15T07:33:31.000Z</time>
      </trkpt>
      <trkpt lat="44.01247" lon="7.22949">
        <ele>1980</ele>
        <time>2016-05-15T07:33:32.000Z</time>
      </trkpt>
      <trkpt lat="44.01243" lon="7.22951">
        <ele>1980</ele>
        <time>2016-05-15T07:33:34.000Z</time>
      </trkpt>
      <trkpt lat="44.01241" lon="7.22954">
        <ele>1980</ele>
        <time>2016-05-15T07:33:36.000Z</time>
      </trkpt>
      <trkpt lat="44.0124" lon="7.22955">
        <ele>1980</ele>
        <time>2016-05-15T07:33:37.000Z</time>
      </trkpt>
      <trkpt lat="44.01238" lon="7.22957">
        <ele>1980</ele>
        <time>2016-05-15T07:33:38.000Z</time>
      </trkpt>
      <trkpt lat="44.01234" lon="7.22958">
        <ele>1980</ele>
        <time>2016-05-15T07:33:40.000Z</time>
      </trkpt>
      <trkpt lat="44.01226" lon="7.2295">
        <ele>1980</ele>
        <time>2016-05-15T07:33:43.000Z</time>
      </trkpt>
      <trkpt lat="44.01219" lon="7.22947">
        <ele>1979</ele>
        <time>2016-05-15T07:33:45.000Z</time>
      </trkpt>
      <trkpt lat="44.01212" lon="7.22942">
        <ele>1979</ele>
        <time>2016-05-15T07:33:47.000Z</time>
      </trkpt>
      <trkpt lat="44.01208" lon="7.22938">
        <ele>1979</ele>
        <time>2016-05-15T07:33:48.000Z</time>
      </trkpt>
      <trkpt lat="44.01204" lon="7.22934">
        <ele>1979</ele>
        <time>2016-05-15T07:33:49.000Z</time>
      </trkpt>
      <trkpt lat="44.01201" lon="7.22931">
        <ele>1979</ele>
        <time>2016-05-15T07:33:50.000Z</time>
      </trkpt>
      <trkpt lat="44.01196" lon="7.22928">
        <ele>1979</ele>
        <time>2016-05-15T07:33:51.000Z</time>
      </trkpt>
      <trkpt lat="44.01193" lon="7.22928">
        <ele>1978</ele>
        <time>2016-05-15T07:33:52.000Z</time>
      </trkpt>
      <trkpt lat="44.01191" lon="7.22926">
        <ele>1978</ele>
        <time>2016-05-15T07:33:53.000Z</time>
      </trkpt>
      <trkpt lat="44.0119" lon="7.22926">
        <ele>1978</ele>
        <time>2016-05-15T07:33:55.000Z</time>
      </trkpt>
      <trkpt lat="44.01184" lon="7.22927">
        <ele>1978</ele>
        <time>2016-05-15T07:34:01.000Z</time>
      </trkpt>
      <trkpt lat="44.01178" lon="7.22924">
        <ele>1978</ele>
        <time>2016-05-15T07:34:07.000Z</time>
      </trkpt>
      <trkpt lat="44.01177" lon="7.22923">
        <ele>1978</ele>
        <time>2016-05-15T07:34:08.000Z</time>
      </trkpt>
      <trkpt lat="44.01171" lon="7.2292">
        <ele>1978</ele>
        <time>2016-05-15T07:34:11.000Z</time>
      </trkpt>
      <trkpt lat="44.01169" lon="7.22919">
        <ele>1978</ele>
        <time>2016-05-15T07:34:12.000Z</time>
      </trkpt>
      <trkpt lat="44.01157" lon="7.22911">
        <ele>1976</ele>
        <time>2016-05-15T07:34:16.000Z</time>
      </trkpt>
      <trkpt lat="44.01144" lon="7.22905">
        <ele>1974</ele>
        <time>2016-05-15T07:34:20.000Z</time>
      </trkpt>
      <trkpt lat="44.01142" lon="7.22901">
        <ele>1973</ele>
        <time>2016-05-15T07:34:21.000Z</time>
      </trkpt>
      <trkpt lat="44.01133" lon="7.22894">
        <ele>1973</ele>
        <time>2016-05-15T07:34:24.000Z</time>
      </trkpt>
      <trkpt lat="44.01119" lon="7.22892">
        <ele>1973</ele>
        <time>2016-05-15T07:34:28.000Z</time>
      </trkpt>
      <trkpt lat="44.01091" lon="7.22894">
        <ele>1974</ele>
        <time>2016-05-15T07:34:34.000Z</time>
      </trkpt>
      <trkpt lat="44.01087" lon="7.22894">
        <ele>1974</ele>
        <time>2016-05-15T07:34:35.000Z</time>
      </trkpt>
      <trkpt lat="44.01078" lon="7.2289">
        <ele>1976</ele>
        <time>2016-05-15T07:34:37.000Z</time>
      </trkpt>
      <trkpt lat="44.01076" lon="7.22887">
        <ele>1976</ele>
        <time>2016-05-15T07:34:38.000Z</time>
      </trkpt>
      <trkpt lat="44.01073" lon="7.22883">
        <ele>1976</ele>
        <time>2016-05-15T07:34:39.000Z</time>
      </trkpt>
      <trkpt lat="44.01066" lon="7.22881">
        <ele>1976</ele>
        <time>2016-05-15T07:34:41.000Z</time>
      </trkpt>
      <trkpt lat="44.01061" lon="7.2288">
        <ele>1976</ele>
        <time>2016-05-15T07:34:42.000Z</time>
      </trkpt>
      <trkpt lat="44.01052" lon="7.22879">
        <ele>1976</ele>
        <time>2016-05-15T07:34:44.000Z</time>
      </trkpt>
      <trkpt lat="44.01048" lon="7.22878">
        <ele>1976</ele>
        <time>2016-05-15T07:34:45.000Z</time>
      </trkpt>
      <trkpt lat="44.0104" lon="7.22876">
        <ele>1976</ele>
        <time>2016-05-15T07:34:47.000Z</time>
      </trkpt>
      <trkpt lat="44.01037" lon="7.22877">
        <ele>1976</ele>
        <time>2016-05-15T07:34:48.000Z</time>
      </trkpt>
      <trkpt lat="44.01032" lon="7.22886">
        <ele>1976</ele>
        <time>2016-05-15T07:34:52.000Z</time>
      </trkpt>
      <trkpt lat="44.01025" lon="7.229">
        <ele>1976</ele>
        <time>2016-05-15T07:34:58.000Z</time>
      </trkpt>
      <trkpt lat="44.01016" lon="7.22901">
        <ele>1976</ele>
        <time>2016-05-15T07:35:02.000Z</time>
      </trkpt>
      <trkpt lat="44.01012" lon="7.22899">
        <ele>1976</ele>
        <time>2016-05-15T07:35:04.000Z</time>
      </trkpt>
      <trkpt lat="44.01009" lon="7.22897">
        <ele>1976</ele>
        <time>2016-05-15T07:35:05.000Z</time>
      </trkpt>
      <trkpt lat="44.01003" lon="7.22893">
        <ele>1976</ele>
        <time>2016-05-15T07:35:08.000Z</time>
      </trkpt>
      <trkpt lat="44.00992" lon="7.2289">
        <ele>1972</ele>
        <time>2016-05-15T07:35:13.000Z</time>
      </trkpt>
      <trkpt lat="44.00988" lon="7.22892">
        <ele>1972</ele>
        <time>2016-05-15T07:35:16.000Z</time>
      </trkpt>
      <trkpt lat="44.00982" lon="7.22891">
        <ele>1971</ele>
        <time>2016-05-15T07:35:18.000Z</time>
      </trkpt>
      <trkpt lat="44.00972" lon="7.22881">
        <ele>1971</ele>
        <time>2016-05-15T07:35:22.000Z</time>
      </trkpt>
      <trkpt lat="44.00965" lon="7.22869">
        <ele>1971</ele>
        <time>2016-05-15T07:35:27.000Z</time>
      </trkpt>
      <trkpt lat="44.00963" lon="7.22868">
        <ele>1970</ele>
        <time>2016-05-15T07:35:28.000Z</time>
      </trkpt>
      <trkpt lat="44.00951" lon="7.22861">
        <ele>1970</ele>
        <time>2016-05-15T07:35:32.000Z</time>
      </trkpt>
      <trkpt lat="44.00943" lon="7.22855">
        <ele>1970</ele>
        <time>2016-05-15T07:35:34.000Z</time>
      </trkpt>
      <trkpt lat="44.00935" lon="7.22848">
        <ele>1970</ele>
        <time>2016-05-15T07:35:36.000Z</time>
      </trkpt>
      <trkpt lat="44.00933" lon="7.22843">
        <ele>1970</ele>
        <time>2016-05-15T07:35:37.000Z</time>
      </trkpt>
      <trkpt lat="44.0093" lon="7.22838">
        <ele>1970</ele>
        <time>2016-05-15T07:35:38.000Z</time>
      </trkpt>
      <trkpt lat="44.00925" lon="7.22834">
        <ele>1970</ele>
        <time>2016-05-15T07:35:40.000Z</time>
      </trkpt>
      <trkpt lat="44.0092" lon="7.2283">
        <ele>1970</ele>
        <time>2016-05-15T07:35:42.000Z</time>
      </trkpt>
      <trkpt lat="44.00923" lon="7.22823">
        <ele>1970</ele>
        <time>2016-05-15T07:35:44.000Z</time>
      </trkpt>
      <trkpt lat="44.00924" lon="7.22818">
        <ele>1970</ele>
        <time>2016-05-15T07:35:45.000Z</time>
      </trkpt>
      <trkpt lat="44.00921" lon="7.22807">
        <ele>1970</ele>
        <time>2016-05-15T07:35:48.000Z</time>
      </trkpt>
      <trkpt lat="44.00919" lon="7.22804">
        <ele>1970</ele>
        <time>2016-05-15T07:35:49.000Z</time>
      </trkpt>
      <trkpt lat="44.00911" lon="7.22791">
        <ele>1963</ele>
        <time>2016-05-15T07:35:52.000Z</time>
      </trkpt>
      <trkpt lat="44.009" lon="7.22766">
        <ele>1963</ele>
        <time>2016-05-15T07:35:57.000Z</time>
      </trkpt>
      <trkpt lat="44.00886" lon="7.22743">
        <ele>1961</ele>
        <time>2016-05-15T07:36:03.000Z</time>
      </trkpt>
      <trkpt lat="44.00884" lon="7.22743">
        <ele>1961</ele>
        <time>2016-05-15T07:36:04.000Z</time>
      </trkpt>
      <trkpt lat="44.00879" lon="7.22742">
        <ele>1960</ele>
        <time>2016-05-15T07:36:06.000Z</time>
      </trkpt>
      <trkpt lat="44.00877" lon="7.22738">
        <ele>1960</ele>
        <time>2016-05-15T07:36:07.000Z</time>
      </trkpt>
      <trkpt lat="44.00872" lon="7.22729">
        <ele>1959</ele>
        <time>2016-05-15T07:36:09.000Z</time>
      </trkpt>
      <trkpt lat="44.00866" lon="7.22723">
        <ele>1959</ele>
        <time>2016-05-15T07:36:11.000Z</time>
      </trkpt>
      <trkpt lat="44.00863" lon="7.2272">
        <ele>1958</ele>
        <time>2016-05-15T07:36:12.000Z</time>
      </trkpt>
      <trkpt lat="44.0086" lon="7.22718">
        <ele>1958</ele>
        <time>2016-05-15T07:36:13.000Z</time>
      </trkpt>
      <trkpt lat="44.00857" lon="7.22718">
        <ele>1958</ele>
        <time>2016-05-15T07:36:14.000Z</time>
      </trkpt>
      <trkpt lat="44.00854" lon="7.22715">
        <ele>1958</ele>
        <time>2016-05-15T07:36:15.000Z</time>
      </trkpt>
      <trkpt lat="44.0085" lon="7.22713">
        <ele>1957</ele>
        <time>2016-05-15T07:36:16.000Z</time>
      </trkpt>
      <trkpt lat="44.00847" lon="7.22709">
        <ele>1957</ele>
        <time>2016-05-15T07:36:17.000Z</time>
      </trkpt>
      <trkpt lat="44.00842" lon="7.22704">
        <ele>1957</ele>
        <time>2016-05-15T07:36:18.000Z</time>
      </trkpt>
      <trkpt lat="44.00835" lon="7.22696">
        <ele>1956</ele>
        <time>2016-05-15T07:36:20.000Z</time>
      </trkpt>
      <trkpt lat="44.00831" lon="7.22693">
        <ele>1946</ele>
        <time>2016-05-15T07:36:21.000Z</time>
      </trkpt>
      <trkpt lat="44.00826" lon="7.22691">
        <ele>1946</ele>
        <time>2016-05-15T07:36:22.000Z</time>
      </trkpt>
      <trkpt lat="44.00822" lon="7.2269">
        <ele>1946</ele>
        <time>2016-05-15T07:36:23.000Z</time>
      </trkpt>
      <trkpt lat="44.00815" lon="7.22687">
        <ele>1945</ele>
        <time>2016-05-15T07:36:24.000Z</time>
      </trkpt>
      <trkpt lat="44.0081" lon="7.22684">
        <ele>1944</ele>
        <time>2016-05-15T07:36:25.000Z</time>
      </trkpt>
      <trkpt lat="44.00805" lon="7.22681">
        <ele>1944</ele>
        <time>2016-05-15T07:36:26.000Z</time>
      </trkpt>
      <trkpt lat="44.00802" lon="7.22679">
        <ele>1943</ele>
        <time>2016-05-15T07:36:27.000Z</time>
      </trkpt>
      <trkpt lat="44.008" lon="7.22677">
        <ele>1943</ele>
        <time>2016-05-15T07:36:28.000Z</time>
      </trkpt>
      <trkpt lat="44.00798" lon="7.22677">
        <ele>1943</ele>
        <time>2016-05-15T07:36:29.000Z</time>
      </trkpt>
      <trkpt lat="44.00796" lon="7.22677">
        <ele>1942</ele>
        <time>2016-05-15T07:36:30.000Z</time>
      </trkpt>
      <trkpt lat="44.00795" lon="7.22677">
        <ele>1942</ele>
        <time>2016-05-15T07:36:31.000Z</time>
      </trkpt>
      <trkpt lat="44.00793" lon="7.22678">
        <ele>1942</ele>
        <time>2016-05-15T07:36:32.000Z</time>
      </trkpt>
      <trkpt lat="44.0079" lon="7.22677">
        <ele>1941</ele>
        <time>2016-05-15T07:36:33.000Z</time>
      </trkpt>
      <trkpt lat="44.00787" lon="7.22674">
        <ele>1941</ele>
        <time>2016-05-15T07:36:35.000Z</time>
      </trkpt>
      <trkpt lat="44.00784" lon="7.22674">
        <ele>1940</ele>
        <time>2016-05-15T07:36:36.000Z</time>
      </trkpt>
      <trkpt lat="44.0078" lon="7.22674">
        <ele>1940</ele>
        <time>2016-05-15T07:36:37.000Z</time>
      </trkpt>
      <trkpt lat="44.00772" lon="7.22673">
        <ele>1938</ele>
        <time>2016-05-15T07:36:39.000Z</time>
      </trkpt>
      <trkpt lat="44.00769" lon="7.22674">
        <ele>1938</ele>
        <time>2016-05-15T07:36:40.000Z</time>
      </trkpt>
      <trkpt lat="44.00766" lon="7.22672">
        <ele>1937</ele>
        <time>2016-05-15T07:36:41.000Z</time>
      </trkpt>
      <trkpt lat="44.00762" lon="7.22671">
        <ele>1936</ele>
        <time>2016-05-15T07:36:42.000Z</time>
      </trkpt>
      <trkpt lat="44.00759" lon="7.22667">
        <ele>1935</ele>
        <time>2016-05-15T07:36:43.000Z</time>
      </trkpt>
      <trkpt lat="44.0075" lon="7.22661">
        <ele>1931</ele>
        <time>2016-05-15T07:36:45.000Z</time>
      </trkpt>
      <trkpt lat="44.00745" lon="7.22659">
        <ele>1927</ele>
        <time>2016-05-15T07:36:46.000Z</time>
      </trkpt>
      <trkpt lat="44.00741" lon="7.22656">
        <ele>1925</ele>
        <time>2016-05-15T07:36:47.000Z</time>
      </trkpt>
      <trkpt lat="44.00734" lon="7.22653">
        <ele>1922</ele>
        <time>2016-05-15T07:36:49.000Z</time>
      </trkpt>
      <trkpt lat="44.00733" lon="7.22651">
        <ele>1922</ele>
        <time>2016-05-15T07:36:50.000Z</time>
      </trkpt>
      <trkpt lat="44.00731" lon="7.22649">
        <ele>1921</ele>
        <time>2016-05-15T07:36:51.000Z</time>
      </trkpt>
      <trkpt lat="44.0073" lon="7.22647">
        <ele>1920</ele>
        <time>2016-05-15T07:36:53.000Z</time>
      </trkpt>
      <trkpt lat="44.00732" lon="7.22646">
        <ele>1921</ele>
        <time>2016-05-15T07:36:54.000Z</time>
      </trkpt>
      <trkpt lat="44.00732" lon="7.22646">
        <ele>1921</ele>
        <time>2016-05-15T07:36:55.000Z</time>
      </trkpt>
      <trkpt lat="44.00732" lon="7.22646">
        <ele>1921</ele>
        <time>2016-05-15T07:36:56.000Z</time>
      </trkpt>
      <trkpt lat="44.00732" lon="7.22645">
        <ele>1920</ele>
        <time>2016-05-15T07:36:58.000Z</time>
      </trkpt>
      <trkpt lat="44.00733" lon="7.22645">
        <ele>1921</ele>
        <time>2016-05-15T07:37:00.000Z</time>
      </trkpt>
      <trkpt lat="44.00735" lon="7.22644">
        <ele>1921</ele>
        <time>2016-05-15T07:37:02.000Z</time>
      </trkpt>
      <trkpt lat="44.00737" lon="7.22642">
        <ele>1920</ele>
        <time>2016-05-15T07:37:05.000Z</time>
      </trkpt>
      <trkpt lat="44.00739" lon="7.2264">
        <ele>1920</ele>
        <time>2016-05-15T07:37:06.000Z</time>
      </trkpt>
      <trkpt lat="44.00742" lon="7.22638">
        <ele>1920</ele>
        <time>2016-05-15T07:37:08.000Z</time>
      </trkpt>
      <trkpt lat="44.00746" lon="7.22636">
        <ele>1920</ele>
        <time>2016-05-15T07:37:10.000Z</time>
      </trkpt>
      <trkpt lat="44.0075" lon="7.2263">
        <ele>1927</ele>
        <time>2016-05-15T07:37:12.000Z</time>
      </trkpt>
      <trkpt lat="44.00756" lon="7.22623">
        <ele>1926</ele>
        <time>2016-05-15T07:37:14.000Z</time>
      </trkpt>
      <trkpt lat="44.00759" lon="7.2262">
        <ele>1925</ele>
        <time>2016-05-15T07:37:15.000Z</time>
      </trkpt>
      <trkpt lat="44.00766" lon="7.22614">
        <ele>1924</ele>
        <time>2016-05-15T07:37:17.000Z</time>
      </trkpt>
      <trkpt lat="44.00773" lon="7.22604">
        <ele>1923</ele>
        <time>2016-05-15T07:37:19.000Z</time>
      </trkpt>
      <trkpt lat="44.00776" lon="7.22599">
        <ele>1923</ele>
        <time>2016-05-15T07:37:20.000Z</time>
      </trkpt>
      <trkpt lat="44.00778" lon="7.22595">
        <ele>1923</ele>
        <time>2016-05-15T07:37:21.000Z</time>
      </trkpt>
      <trkpt lat="44.00781" lon="7.22587">
        <ele>1923</ele>
        <time>2016-05-15T07:37:23.000Z</time>
      </trkpt>
      <trkpt lat="44.00784" lon="7.2258">
        <ele>1898</ele>
        <time>2016-05-15T07:37:25.000Z</time>
      </trkpt>
      <trkpt lat="44.00786" lon="7.22577">
        <ele>1898</ele>
        <time>2016-05-15T07:37:27.000Z</time>
      </trkpt>
      <trkpt lat="44.00786" lon="7.22578">
        <ele>1898</ele>
        <time>2016-05-15T07:37:28.000Z</time>
      </trkpt>
      <trkpt lat="44.00784" lon="7.22577">
        <ele>1898</ele>
        <time>2016-05-15T07:37:30.000Z</time>
      </trkpt>
      <trkpt lat="44.00783" lon="7.22577">
        <ele>1898</ele>
        <time>2016-05-15T07:37:31.000Z</time>
      </trkpt>
      <trkpt lat="44.00783" lon="7.22578">
        <ele>1898</ele>
        <time>2016-05-15T07:37:32.000Z</time>
      </trkpt>
      <trkpt lat="44.00781" lon="7.22579">
        <ele>1898</ele>
        <time>2016-05-15T07:37:35.000Z</time>
      </trkpt>
      <trkpt lat="44.00778" lon="7.2258">
        <ele>1899</ele>
        <time>2016-05-15T07:37:37.000Z</time>
      </trkpt>
      <trkpt lat="44.00772" lon="7.2258">
        <ele>1899</ele>
        <time>2016-05-15T07:37:39.000Z</time>
      </trkpt>
      <trkpt lat="44.00769" lon="7.2258">
        <ele>1900</ele>
        <time>2016-05-15T07:37:40.000Z</time>
      </trkpt>
      <trkpt lat="44.00765" lon="7.2258">
        <ele>1901</ele>
        <time>2016-05-15T07:37:41.000Z</time>
      </trkpt>
      <trkpt lat="44.00762" lon="7.2258">
        <ele>1902</ele>
        <time>2016-05-15T07:37:42.000Z</time>
      </trkpt>
      <trkpt lat="44.00758" lon="7.22582">
        <ele>1904</ele>
        <time>2016-05-15T07:37:43.000Z</time>
      </trkpt>
      <trkpt lat="44.00754" lon="7.22582">
        <ele>1907</ele>
        <time>2016-05-15T07:37:44.000Z</time>
      </trkpt>
      <trkpt lat="44.00747" lon="7.22578">
        <ele>1905</ele>
        <time>2016-05-15T07:37:46.000Z</time>
      </trkpt>
      <trkpt lat="44.00744" lon="7.22576">
        <ele>1902</ele>
        <time>2016-05-15T07:37:47.000Z</time>
      </trkpt>
      <trkpt lat="44.00741" lon="7.22575">
        <ele>1901</ele>
        <time>2016-05-15T07:37:48.000Z</time>
      </trkpt>
      <trkpt lat="44.0074" lon="7.22573">
        <ele>1900</ele>
        <time>2016-05-15T07:37:49.000Z</time>
      </trkpt>
      <trkpt lat="44.00738" lon="7.22571">
        <ele>1898</ele>
        <time>2016-05-15T07:37:50.000Z</time>
      </trkpt>
      <trkpt lat="44.00735" lon="7.22569">
        <ele>1897</ele>
        <time>2016-05-15T07:37:51.000Z</time>
      </trkpt>
      <trkpt lat="44.00731" lon="7.22565">
        <ele>1894</ele>
        <time>2016-05-15T07:37:53.000Z</time>
      </trkpt>
      <trkpt lat="44.00728" lon="7.22562">
        <ele>1893</ele>
        <time>2016-05-15T07:37:55.000Z</time>
      </trkpt>
      <trkpt lat="44.00726" lon="7.2256">
        <ele>1892</ele>
        <time>2016-05-15T07:37:57.000Z</time>
      </trkpt>
      <trkpt lat="44.00724" lon="7.2256">
        <ele>1892</ele>
        <time>2016-05-15T07:37:58.000Z</time>
      </trkpt>
      <trkpt lat="44.00722" lon="7.22561">
        <ele>1892</ele>
        <time>2016-05-15T07:37:59.000Z</time>
      </trkpt>
      <trkpt lat="44.00718" lon="7.22562">
        <ele>1892</ele>
        <time>2016-05-15T07:38:01.000Z</time>
      </trkpt>
      <trkpt lat="44.00715" lon="7.22561">
        <ele>1891</ele>
        <time>2016-05-15T07:38:02.000Z</time>
      </trkpt>
      <trkpt lat="44.00712" lon="7.22561">
        <ele>1891</ele>
        <time>2016-05-15T07:38:03.000Z</time>
      </trkpt>
      <trkpt lat="44.00705" lon="7.22558">
        <ele>1891</ele>
        <time>2016-05-15T07:38:05.000Z</time>
      </trkpt>
      <trkpt lat="44.00698" lon="7.22551">
        <ele>1889</ele>
        <time>2016-05-15T07:38:07.000Z</time>
      </trkpt>
      <trkpt lat="44.00693" lon="7.22549">
        <ele>1889</ele>
        <time>2016-05-15T07:38:09.000Z</time>
      </trkpt>
      <trkpt lat="44.00685" lon="7.22547">
        <ele>1888</ele>
        <time>2016-05-15T07:38:12.000Z</time>
      </trkpt>
      <trkpt lat="44.0068" lon="7.22544">
        <ele>1888</ele>
        <time>2016-05-15T07:38:13.000Z</time>
      </trkpt>
      <trkpt lat="44.00676" lon="7.2254">
        <ele>1886</ele>
        <time>2016-05-15T07:38:14.000Z</time>
      </trkpt>
      <trkpt lat="44.0067" lon="7.22533">
        <ele>1884</ele>
        <time>2016-05-15T07:38:16.000Z</time>
      </trkpt>
      <trkpt lat="44.00668" lon="7.22531">
        <ele>1883</ele>
        <time>2016-05-15T07:38:17.000Z</time>
      </trkpt>
      <trkpt lat="44.00668" lon="7.22527">
        <ele>1882</ele>
        <time>2016-05-15T07:38:18.000Z</time>
      </trkpt>
      <trkpt lat="44.00667" lon="7.22526">
        <ele>1881</ele>
        <time>2016-05-15T07:38:19.000Z</time>
      </trkpt>
      <trkpt lat="44.00666" lon="7.22524">
        <ele>1883</ele>
        <time>2016-05-15T07:38:20.000Z</time>
      </trkpt>
      <trkpt lat="44.00666" lon="7.22524">
        <ele>1883</ele>
        <time>2016-05-15T07:38:21.000Z</time>
      </trkpt>
      <trkpt lat="44.00664" lon="7.22519">
        <ele>1881</ele>
        <time>2016-05-15T07:38:24.000Z</time>
      </trkpt>
      <trkpt lat="44.00661" lon="7.22514">
        <ele>1879</ele>
        <time>2016-05-15T07:38:26.000Z</time>
      </trkpt>
      <trkpt lat="44.00659" lon="7.22509">
        <ele>1877</ele>
        <time>2016-05-15T07:38:29.000Z</time>
      </trkpt>
      <trkpt lat="44.00656" lon="7.22499">
        <ele>1865</ele>
        <time>2016-05-15T07:38:34.000Z</time>
      </trkpt>
      <trkpt lat="44.00655" lon="7.22498">
        <ele>1864</ele>
        <time>2016-05-15T07:38:35.000Z</time>
      </trkpt>
      <trkpt lat="44.00653" lon="7.22497">
        <ele>1864</ele>
        <time>2016-05-15T07:38:39.000Z</time>
      </trkpt>
      <trkpt lat="44.00652" lon="7.22497">
        <ele>1864</ele>
        <time>2016-05-15T07:38:40.000Z</time>
      </trkpt>
      <trkpt lat="44.00642" lon="7.22496">
        <ele>1862</ele>
        <time>2016-05-15T07:38:44.000Z</time>
      </trkpt>
      <trkpt lat="44.00639" lon="7.22496">
        <ele>1862</ele>
        <time>2016-05-15T07:38:45.000Z</time>
      </trkpt>
      <trkpt lat="44.00635" lon="7.22495">
        <ele>1862</ele>
        <time>2016-05-15T07:38:47.000Z</time>
      </trkpt>
      <trkpt lat="44.00631" lon="7.22496">
        <ele>1862</ele>
        <time>2016-05-15T07:38:48.000Z</time>
      </trkpt>
      <trkpt lat="44.00627" lon="7.22495">
        <ele>1862</ele>
        <time>2016-05-15T07:38:49.000Z</time>
      </trkpt>
      <trkpt lat="44.00619" lon="7.22494">
        <ele>1863</ele>
        <time>2016-05-15T07:38:51.000Z</time>
      </trkpt>
      <trkpt lat="44.00615" lon="7.22493">
        <ele>1864</ele>
        <time>2016-05-15T07:38:52.000Z</time>
      </trkpt>
      <trkpt lat="44.00612" lon="7.22491">
        <ele>1864</ele>
        <time>2016-05-15T07:38:53.000Z</time>
      </trkpt>
      <trkpt lat="44.00609" lon="7.22487">
        <ele>1864</ele>
        <time>2016-05-15T07:38:54.000Z</time>
      </trkpt>
      <trkpt lat="44.00605" lon="7.22482">
        <ele>1864</ele>
        <time>2016-05-15T07:38:56.000Z</time>
      </trkpt>
      <trkpt lat="44.00602" lon="7.22475">
        <ele>1862</ele>
        <time>2016-05-15T07:38:58.000Z</time>
      </trkpt>
      <trkpt lat="44.00599" lon="7.22472">
        <ele>1862</ele>
        <time>2016-05-15T07:38:59.000Z</time>
      </trkpt>
      <trkpt lat="44.00599" lon="7.2247">
        <ele>1861</ele>
        <time>2016-05-15T07:39:00.000Z</time>
      </trkpt>
      <trkpt lat="44.00595" lon="7.22466">
        <ele>1860</ele>
        <time>2016-05-15T07:39:02.000Z</time>
      </trkpt>
      <trkpt lat="44.00594" lon="7.22463">
        <ele>1859</ele>
        <time>2016-05-15T07:39:04.000Z</time>
      </trkpt>
      <trkpt lat="44.00595" lon="7.22464">
        <ele>1860</ele>
        <time>2016-05-15T07:39:05.000Z</time>
      </trkpt>
      <trkpt lat="44.00595" lon="7.22461">
        <ele>1859</ele>
        <time>2016-05-15T07:39:06.000Z</time>
      </trkpt>
      <trkpt lat="44.00593" lon="7.22457">
        <ele>1858</ele>
        <time>2016-05-15T07:39:08.000Z</time>
      </trkpt>
      <trkpt lat="44.0059" lon="7.22454">
        <ele>1857</ele>
        <time>2016-05-15T07:39:11.000Z</time>
      </trkpt>
      <trkpt lat="44.00587" lon="7.2245">
        <ele>1856</ele>
        <time>2016-05-15T07:39:13.000Z</time>
      </trkpt>
      <trkpt lat="44.00587" lon="7.22449">
        <ele>1855</ele>
        <time>2016-05-15T07:39:14.000Z</time>
      </trkpt>
      <trkpt lat="44.00584" lon="7.22445">
        <ele>1854</ele>
        <time>2016-05-15T07:39:19.000Z</time>
      </trkpt>
      <trkpt lat="44.00577" lon="7.2244">
        <ele>1860</ele>
        <time>2016-05-15T07:39:23.000Z</time>
      </trkpt>
      <trkpt lat="44.00575" lon="7.22439">
        <ele>1859</ele>
        <time>2016-05-15T07:39:24.000Z</time>
      </trkpt>
      <trkpt lat="44.00573" lon="7.22438">
        <ele>1859</ele>
        <time>2016-05-15T07:39:28.000Z</time>
      </trkpt>
      <trkpt lat="44.00573" lon="7.22435">
        <ele>1858</ele>
        <time>2016-05-15T07:39:36.000Z</time>
      </trkpt>
      <trkpt lat="44.00575" lon="7.22433">
        <ele>1857</ele>
        <time>2016-05-15T07:39:43.000Z</time>
      </trkpt>
      <trkpt lat="44.00578" lon="7.22433">
        <ele>1856</ele>
        <time>2016-05-15T07:39:46.000Z</time>
      </trkpt>
      <trkpt lat="44.00582" lon="7.22432">
        <ele>1855</ele>
        <time>2016-05-15T07:39:50.000Z</time>
      </trkpt>
      <trkpt lat="44.00583" lon="7.22431">
        <ele>1855</ele>
        <time>2016-05-15T07:39:54.000Z</time>
      </trkpt>
      <trkpt lat="44.00583" lon="7.22431">
        <ele>1855</ele>
        <time>2016-05-15T07:39:55.000Z</time>
      </trkpt>
      <trkpt lat="44.00582" lon="7.2243">
        <ele>1854</ele>
        <time>2016-05-15T07:39:56.000Z</time>
      </trkpt>
      <trkpt lat="44.00582" lon="7.2243">
        <ele>1854</ele>
        <time>2016-05-15T07:39:58.000Z</time>
      </trkpt>
      <trkpt lat="44.00576" lon="7.22424">
        <ele>1852</ele>
        <time>2016-05-15T07:40:01.000Z</time>
      </trkpt>
      <trkpt lat="44.00575" lon="7.22423">
        <ele>1852</ele>
        <time>2016-05-15T07:40:02.000Z</time>
      </trkpt>
      <trkpt lat="44.00567" lon="7.22421">
        <ele>1856</ele>
        <time>2016-05-15T07:40:05.000Z</time>
      </trkpt>
      <trkpt lat="44.00565" lon="7.2242">
        <ele>1856</ele>
        <time>2016-05-15T07:40:06.000Z</time>
      </trkpt>
      <trkpt lat="44.0056" lon="7.2242">
        <ele>1858</ele>
        <time>2016-05-15T07:40:08.000Z</time>
      </trkpt>
      <trkpt lat="44.00556" lon="7.22419">
        <ele>1859</ele>
        <time>2016-05-15T07:40:10.000Z</time>
      </trkpt>
      <trkpt lat="44.00553" lon="7.2242">
        <ele>1860</ele>
        <time>2016-05-15T07:40:11.000Z</time>
      </trkpt>
      <trkpt lat="44.00544" lon="7.22418">
        <ele>1861</ele>
        <time>2016-05-15T07:40:14.000Z</time>
      </trkpt>
      <trkpt lat="44.00539" lon="7.22416">
        <ele>1838</ele>
        <time>2016-05-15T07:40:16.000Z</time>
      </trkpt>
      <trkpt lat="44.00538" lon="7.22413">
        <ele>1838</ele>
        <time>2016-05-15T07:40:18.000Z</time>
      </trkpt>
      <trkpt lat="44.00534" lon="7.22406">
        <ele>1838</ele>
        <time>2016-05-15T07:40:21.000Z</time>
      </trkpt>
      <trkpt lat="44.00533" lon="7.22403">
        <ele>1837</ele>
        <time>2016-05-15T07:40:22.000Z</time>
      </trkpt>
      <trkpt lat="44.00528" lon="7.22399">
        <ele>1838</ele>
        <time>2016-05-15T07:40:25.000Z</time>
      </trkpt>
      <trkpt lat="44.00523" lon="7.22395">
        <ele>1838</ele>
        <time>2016-05-15T07:40:27.000Z</time>
      </trkpt>
      <trkpt lat="44.00522" lon="7.22395">
        <ele>1838</ele>
        <time>2016-05-15T07:40:28.000Z</time>
      </trkpt>
      <trkpt lat="44.00514" lon="7.22389">
        <ele>1837</ele>
        <time>2016-05-15T07:40:32.000Z</time>
      </trkpt>
      <trkpt lat="44.00494" lon="7.22381">
        <ele>1849</ele>
        <time>2016-05-15T07:40:37.000Z</time>
      </trkpt>
      <trkpt lat="44.00491" lon="7.22379">
        <ele>1849</ele>
        <time>2016-05-15T07:40:38.000Z</time>
      </trkpt>
      <trkpt lat="44.00487" lon="7.22371">
        <ele>1847</ele>
        <time>2016-05-15T07:40:40.000Z</time>
      </trkpt>
      <trkpt lat="44.00482" lon="7.22367">
        <ele>1846</ele>
        <time>2016-05-15T07:40:43.000Z</time>
      </trkpt>
      <trkpt lat="44.0048" lon="7.22364">
        <ele>1846</ele>
        <time>2016-05-15T07:40:44.000Z</time>
      </trkpt>
      <trkpt lat="44.00478" lon="7.22361">
        <ele>1845</ele>
        <time>2016-05-15T07:40:46.000Z</time>
      </trkpt>
      <trkpt lat="44.00476" lon="7.22357">
        <ele>1845</ele>
        <time>2016-05-15T07:40:48.000Z</time>
      </trkpt>
      <trkpt lat="44.00476" lon="7.22353">
        <ele>1844</ele>
        <time>2016-05-15T07:40:49.000Z</time>
      </trkpt>
      <trkpt lat="44.00477" lon="7.22345">
        <ele>1841</ele>
        <time>2016-05-15T07:40:51.000Z</time>
      </trkpt>
      <trkpt lat="44.00478" lon="7.22342">
        <ele>1840</ele>
        <time>2016-05-15T07:40:52.000Z</time>
      </trkpt>
      <trkpt lat="44.00481" lon="7.22334">
        <ele>1837</ele>
        <time>2016-05-15T07:40:55.000Z</time>
      </trkpt>
      <trkpt lat="44.0048" lon="7.22327">
        <ele>1820</ele>
        <time>2016-05-15T07:40:57.000Z</time>
      </trkpt>
      <trkpt lat="44.00479" lon="7.22324">
        <ele>1820</ele>
        <time>2016-05-15T07:40:59.000Z</time>
      </trkpt>
      <trkpt lat="44.00477" lon="7.22319">
        <ele>1820</ele>
        <time>2016-05-15T07:41:01.000Z</time>
      </trkpt>
      <trkpt lat="44.00476" lon="7.22314">
        <ele>1819</ele>
        <time>2016-05-15T07:41:03.000Z</time>
      </trkpt>
      <trkpt lat="44.00474" lon="7.22306">
        <ele>1819</ele>
        <time>2016-05-15T07:41:05.000Z</time>
      </trkpt>
      <trkpt lat="44.00472" lon="7.22301">
        <ele>1818</ele>
        <time>2016-05-15T07:41:06.000Z</time>
      </trkpt>
      <trkpt lat="44.00472" lon="7.22298">
        <ele>1817</ele>
        <time>2016-05-15T07:41:07.000Z</time>
      </trkpt>
      <trkpt lat="44.00471" lon="7.2229">
        <ele>1816</ele>
        <time>2016-05-15T07:41:09.000Z</time>
      </trkpt>
      <trkpt lat="44.0047" lon="7.22287">
        <ele>1815</ele>
        <time>2016-05-15T07:41:10.000Z</time>
      </trkpt>
      <trkpt lat="44.00469" lon="7.22284">
        <ele>1815</ele>
        <time>2016-05-15T07:41:11.000Z</time>
      </trkpt>
      <trkpt lat="44.00467" lon="7.22281">
        <ele>1814</ele>
        <time>2016-05-15T07:41:12.000Z</time>
      </trkpt>
      <trkpt lat="44.00464" lon="7.22278">
        <ele>1815</ele>
        <time>2016-05-15T07:41:13.000Z</time>
      </trkpt>
      <trkpt lat="44.00459" lon="7.22272">
        <ele>1815</ele>
        <time>2016-05-15T07:41:15.000Z</time>
      </trkpt>
      <trkpt lat="44.00457" lon="7.22267">
        <ele>1814</ele>
        <time>2016-05-15T07:41:16.000Z</time>
      </trkpt>
      <trkpt lat="44.00455" lon="7.22264">
        <ele>1814</ele>
        <time>2016-05-15T07:41:17.000Z</time>
      </trkpt>
      <trkpt lat="44.00453" lon="7.2226">
        <ele>1814</ele>
        <time>2016-05-15T07:41:19.000Z</time>
      </trkpt>
      <trkpt lat="44.00452" lon="7.22256">
        <ele>1814</ele>
        <time>2016-05-15T07:41:21.000Z</time>
      </trkpt>
      <trkpt lat="44.00452" lon="7.22255">
        <ele>1814</ele>
        <time>2016-05-15T07:41:23.000Z</time>
      </trkpt>
      <trkpt lat="44.0045" lon="7.22254">
        <ele>1814</ele>
        <time>2016-05-15T07:41:26.000Z</time>
      </trkpt>
      <trkpt lat="44.00449" lon="7.22252">
        <ele>1815</ele>
        <time>2016-05-15T07:41:27.000Z</time>
      </trkpt>
      <trkpt lat="44.00444" lon="7.22243">
        <ele>1795</ele>
        <time>2016-05-15T07:41:32.000Z</time>
      </trkpt>
      <trkpt lat="44.00434" lon="7.22233">
        <ele>1797</ele>
        <time>2016-05-15T07:41:37.000Z</time>
      </trkpt>
      <trkpt lat="44.0043" lon="7.22231">
        <ele>1798</ele>
        <time>2016-05-15T07:41:39.000Z</time>
      </trkpt>
      <trkpt lat="44.00427" lon="7.22227">
        <ele>1797</ele>
        <time>2016-05-15T07:41:41.000Z</time>
      </trkpt>
      <trkpt lat="44.00423" lon="7.22225">
        <ele>1796</ele>
        <time>2016-05-15T07:41:42.000Z</time>
      </trkpt>
      <trkpt lat="44.00418" lon="7.22219">
        <ele>1794</ele>
        <time>2016-05-15T07:41:44.000Z</time>
      </trkpt>
      <trkpt lat="44.00415" lon="7.22217">
        <ele>1801</ele>
        <time>2016-05-15T07:41:45.000Z</time>
      </trkpt>
      <trkpt lat="44.0041" lon="7.22212">
        <ele>1799</ele>
        <time>2016-05-15T07:41:48.000Z</time>
      </trkpt>
      <trkpt lat="44.00409" lon="7.2221">
        <ele>1799</ele>
        <time>2016-05-15T07:41:49.000Z</time>
      </trkpt>
      <trkpt lat="44.00408" lon="7.22208">
        <ele>1798</ele>
        <time>2016-05-15T07:41:50.000Z</time>
      </trkpt>
      <trkpt lat="44.00405" lon="7.22203">
        <ele>1796</ele>
        <time>2016-05-15T07:41:52.000Z</time>
      </trkpt>
      <trkpt lat="44.00401" lon="7.22198">
        <ele>1795</ele>
        <time>2016-05-15T07:41:54.000Z</time>
      </trkpt>
      <trkpt lat="44.00397" lon="7.22198">
        <ele>1795</ele>
        <time>2016-05-15T07:41:56.000Z</time>
      </trkpt>
      <trkpt lat="44.00395" lon="7.22198">
        <ele>1795</ele>
        <time>2016-05-15T07:41:58.000Z</time>
      </trkpt>
      <trkpt lat="44.00393" lon="7.22195">
        <ele>1795</ele>
        <time>2016-05-15T07:42:00.000Z</time>
      </trkpt>
      <trkpt lat="44.0039" lon="7.22193">
        <ele>1794</ele>
        <time>2016-05-15T07:42:01.000Z</time>
      </trkpt>
      <trkpt lat="44.00389" lon="7.22192">
        <ele>1794</ele>
        <time>2016-05-15T07:42:02.000Z</time>
      </trkpt>
      <trkpt lat="44.00386" lon="7.22192">
        <ele>1794</ele>
        <time>2016-05-15T07:42:04.000Z</time>
      </trkpt>
      <trkpt lat="44.00384" lon="7.22191">
        <ele>1794</ele>
        <time>2016-05-15T07:42:05.000Z</time>
      </trkpt>
      <trkpt lat="44.00382" lon="7.2219">
        <ele>1794</ele>
        <time>2016-05-15T07:42:06.000Z</time>
      </trkpt>
      <trkpt lat="44.00382" lon="7.2219">
        <ele>1794</ele>
        <time>2016-05-15T07:42:08.000Z</time>
      </trkpt>
      <trkpt lat="44.0038" lon="7.22189">
        <ele>1793</ele>
        <time>2016-05-15T07:42:09.000Z</time>
      </trkpt>
      <trkpt lat="44.0038" lon="7.22187">
        <ele>1793</ele>
        <time>2016-05-15T07:42:10.000Z</time>
      </trkpt>
      <trkpt lat="44.00382" lon="7.2218">
        <ele>1792</ele>
        <time>2016-05-15T07:42:13.000Z</time>
      </trkpt>
      <trkpt lat="44.00383" lon="7.22171">
        <ele>1791</ele>
        <time>2016-05-15T07:42:15.000Z</time>
      </trkpt>
      <trkpt lat="44.00384" lon="7.22165">
        <ele>1773</ele>
        <time>2016-05-15T07:42:16.000Z</time>
      </trkpt>
      <trkpt lat="44.00385" lon="7.22158">
        <ele>1773</ele>
        <time>2016-05-15T07:42:18.000Z</time>
      </trkpt>
      <trkpt lat="44.00384" lon="7.22155">
        <ele>1772</ele>
        <time>2016-05-15T07:42:19.000Z</time>
      </trkpt>
      <trkpt lat="44.00383" lon="7.22154">
        <ele>1772</ele>
        <time>2016-05-15T07:42:20.000Z</time>
      </trkpt>
      <trkpt lat="44.00379" lon="7.22153">
        <ele>1772</ele>
        <time>2016-05-15T07:42:22.000Z</time>
      </trkpt>
      <trkpt lat="44.00373" lon="7.22153">
        <ele>1771</ele>
        <time>2016-05-15T07:42:24.000Z</time>
      </trkpt>
      <trkpt lat="44.00369" lon="7.22152">
        <ele>1771</ele>
        <time>2016-05-15T07:42:25.000Z</time>
      </trkpt>
      <trkpt lat="44.00366" lon="7.22148">
        <ele>1771</ele>
        <time>2016-05-15T07:42:27.000Z</time>
      </trkpt>
      <trkpt lat="44.00367" lon="7.22145">
        <ele>1770</ele>
        <time>2016-05-15T07:42:28.000Z</time>
      </trkpt>
      <trkpt lat="44.00368" lon="7.22144">
        <ele>1770</ele>
        <time>2016-05-15T07:42:29.000Z</time>
      </trkpt>
      <trkpt lat="44.00367" lon="7.22141">
        <ele>1770</ele>
        <time>2016-05-15T07:42:31.000Z</time>
      </trkpt>
      <trkpt lat="44.00366" lon="7.22139">
        <ele>1770</ele>
        <time>2016-05-15T07:42:32.000Z</time>
      </trkpt>
      <trkpt lat="44.00367" lon="7.22135">
        <ele>1769</ele>
        <time>2016-05-15T07:42:33.000Z</time>
      </trkpt>
      <trkpt lat="44.00369" lon="7.22129">
        <ele>1768</ele>
        <time>2016-05-15T07:42:35.000Z</time>
      </trkpt>
      <trkpt lat="44.00368" lon="7.22127">
        <ele>1768</ele>
        <time>2016-05-15T07:42:36.000Z</time>
      </trkpt>
      <trkpt lat="44.00366" lon="7.22125">
        <ele>1767</ele>
        <time>2016-05-15T07:42:37.000Z</time>
      </trkpt>
      <trkpt lat="44.00363" lon="7.22123">
        <ele>1767</ele>
        <time>2016-05-15T07:42:38.000Z</time>
      </trkpt>
      <trkpt lat="44.00362" lon="7.22122">
        <ele>1767</ele>
        <time>2016-05-15T07:42:39.000Z</time>
      </trkpt>
      <trkpt lat="44.00361" lon="7.22119">
        <ele>1766</ele>
        <time>2016-05-15T07:42:41.000Z</time>
      </trkpt>
      <trkpt lat="44.00362" lon="7.22116">
        <ele>1766</ele>
        <time>2016-05-15T07:42:42.000Z</time>
      </trkpt>
      <trkpt lat="44.00361" lon="7.22108">
        <ele>1764</ele>
        <time>2016-05-15T07:42:44.000Z</time>
      </trkpt>
      <trkpt lat="44.0036" lon="7.22106">
        <ele>1764</ele>
        <time>2016-05-15T07:42:45.000Z</time>
      </trkpt>
      <trkpt lat="44.00361" lon="7.22108">
        <ele>1764</ele>
        <time>2016-05-15T07:42:46.000Z</time>
      </trkpt>
      <trkpt lat="44.00359" lon="7.22106">
        <ele>1764</ele>
        <time>2016-05-15T07:42:47.000Z</time>
      </trkpt>
      <trkpt lat="44.00358" lon="7.22104">
        <ele>1763</ele>
        <time>2016-05-15T07:42:48.000Z</time>
      </trkpt>
      <trkpt lat="44.00357" lon="7.22103">
        <ele>1763</ele>
        <time>2016-05-15T07:42:49.000Z</time>
      </trkpt>
      <trkpt lat="44.00357" lon="7.22103">
        <ele>1763</ele>
        <time>2016-05-15T07:42:51.000Z</time>
      </trkpt>
      <trkpt lat="44.00357" lon="7.22102">
        <ele>1763</ele>
        <time>2016-05-15T07:42:53.000Z</time>
      </trkpt>
      <trkpt lat="44.00358" lon="7.22098">
        <ele>1762</ele>
        <time>2016-05-15T07:42:58.000Z</time>
      </trkpt>
      <trkpt lat="44.00359" lon="7.22094">
        <ele>1762</ele>
        <time>2016-05-15T07:43:03.000Z</time>
      </trkpt>
      <trkpt lat="44.00359" lon="7.22093">
        <ele>1762</ele>
        <time>2016-05-15T07:43:04.000Z</time>
      </trkpt>
      <trkpt lat="44.00357" lon="7.22092">
        <ele>1762</ele>
        <time>2016-05-15T07:43:08.000Z</time>
      </trkpt>
      <trkpt lat="44.00355" lon="7.2209">
        <ele>1761</ele>
        <time>2016-05-15T07:43:11.000Z</time>
      </trkpt>
      <trkpt lat="44.00352" lon="7.22089">
        <ele>1760</ele>
        <time>2016-05-15T07:43:15.000Z</time>
      </trkpt>
      <trkpt lat="44.0035" lon="7.22088">
        <ele>1760</ele>
        <time>2016-05-15T07:43:17.000Z</time>
      </trkpt>
      <trkpt lat="44.00348" lon="7.22086">
        <ele>1759</ele>
        <time>2016-05-15T07:43:19.000Z</time>
      </trkpt>
      <trkpt lat="44.00346" lon="7.22085">
        <ele>1758</ele>
        <time>2016-05-15T07:43:22.000Z</time>
      </trkpt>
      <trkpt lat="44.00345" lon="7.22084">
        <ele>1758</ele>
        <time>2016-05-15T07:43:23.000Z</time>
      </trkpt>
      <trkpt lat="44.00344" lon="7.22083">
        <ele>1749</ele>
        <time>2016-05-15T07:43:25.000Z</time>
      </trkpt>
      <trkpt lat="44.00344" lon="7.22084">
        <ele>1758</ele>
        <time>2016-05-15T07:43:28.000Z</time>
      </trkpt>
      <trkpt lat="44.0034" lon="7.22083">
        <ele>1750</ele>
        <time>2016-05-15T07:43:33.000Z</time>
      </trkpt>
      <trkpt lat="44.0034" lon="7.22082">
        <ele>1750</ele>
        <time>2016-05-15T07:43:36.000Z</time>
      </trkpt>
      <trkpt lat="44.00336" lon="7.22083">
        <ele>1752</ele>
        <time>2016-05-15T07:43:39.000Z</time>
      </trkpt>
      <trkpt lat="44.00333" lon="7.22082">
        <ele>1752</ele>
        <time>2016-05-15T07:43:40.000Z</time>
      </trkpt>
      <trkpt lat="44.00332" lon="7.22078">
        <ele>1748</ele>
        <time>2016-05-15T07:43:43.000Z</time>
      </trkpt>
      <trkpt lat="44.00333" lon="7.22074">
        <ele>1746</ele>
        <time>2016-05-15T07:43:45.000Z</time>
      </trkpt>
      <trkpt lat="44.00333" lon="7.22069">
        <ele>1743</ele>
        <time>2016-05-15T07:43:46.000Z</time>
      </trkpt>
      <trkpt lat="44.00335" lon="7.22067">
        <ele>1747</ele>
        <time>2016-05-15T07:43:48.000Z</time>
      </trkpt>
      <trkpt lat="44.00337" lon="7.22063">
        <ele>1745</ele>
        <time>2016-05-15T07:43:50.000Z</time>
      </trkpt>
      <trkpt lat="44.00337" lon="7.2206">
        <ele>1745</ele>
        <time>2016-05-15T07:43:51.000Z</time>
      </trkpt>
      <trkpt lat="44.00337" lon="7.22057">
        <ele>1744</ele>
        <time>2016-05-15T07:43:52.000Z</time>
      </trkpt>
      <trkpt lat="44.00337" lon="7.22054">
        <ele>1743</ele>
        <time>2016-05-15T07:43:53.000Z</time>
      </trkpt>
      <trkpt lat="44.00339" lon="7.22047">
        <ele>1742</ele>
        <time>2016-05-15T07:43:55.000Z</time>
      </trkpt>
      <trkpt lat="44.00339" lon="7.22043">
        <ele>1741</ele>
        <time>2016-05-15T07:43:57.000Z</time>
      </trkpt>
      <trkpt lat="44.00338" lon="7.22039">
        <ele>1740</ele>
        <time>2016-05-15T07:43:59.000Z</time>
      </trkpt>
      <trkpt lat="44.00336" lon="7.22032">
        <ele>1739</ele>
        <time>2016-05-15T07:44:02.000Z</time>
      </trkpt>
      <trkpt lat="44.00339" lon="7.22021">
        <ele>1736</ele>
        <time>2016-05-15T07:44:04.000Z</time>
      </trkpt>
      <trkpt lat="44.0034" lon="7.22018">
        <ele>1736</ele>
        <time>2016-05-15T07:44:05.000Z</time>
      </trkpt>
      <trkpt lat="44.00338" lon="7.22015">
        <ele>1735</ele>
        <time>2016-05-15T07:44:06.000Z</time>
      </trkpt>
      <trkpt lat="44.00332" lon="7.22014">
        <ele>1731</ele>
        <time>2016-05-15T07:44:08.000Z</time>
      </trkpt>
      <trkpt lat="44.00328" lon="7.22013">
        <ele>1731</ele>
        <time>2016-05-15T07:44:09.000Z</time>
      </trkpt>
      <trkpt lat="44.00321" lon="7.22016">
        <ele>1731</ele>
        <time>2016-05-15T07:44:11.000Z</time>
      </trkpt>
      <trkpt lat="44.00316" lon="7.22016">
        <ele>1730</ele>
        <time>2016-05-15T07:44:12.000Z</time>
      </trkpt>
      <trkpt lat="44.00312" lon="7.22018">
        <ele>1730</ele>
        <time>2016-05-15T07:44:13.000Z</time>
      </trkpt>
      <trkpt lat="44.00301" lon="7.22022">
        <ele>1729</ele>
        <time>2016-05-15T07:44:15.000Z</time>
      </trkpt>
      <trkpt lat="44.00296" lon="7.22025">
        <ele>1729</ele>
        <time>2016-05-15T07:44:16.000Z</time>
      </trkpt>
      <trkpt lat="44.00292" lon="7.22027">
        <ele>1728</ele>
        <time>2016-05-15T07:44:17.000Z</time>
      </trkpt>
      <trkpt lat="44.00281" lon="7.2203">
        <ele>1727</ele>
        <time>2016-05-15T07:44:19.000Z</time>
      </trkpt>
      <trkpt lat="44.00278" lon="7.22034">
        <ele>1727</ele>
        <time>2016-05-15T07:44:20.000Z</time>
      </trkpt>
      <trkpt lat="44.0027" lon="7.22037">
        <ele>1726</ele>
        <time>2016-05-15T07:44:21.000Z</time>
      </trkpt>
      <trkpt lat="44.00261" lon="7.22044">
        <ele>1726</ele>
        <time>2016-05-15T07:44:23.000Z</time>
      </trkpt>
      <trkpt lat="44.00257" lon="7.22046">
        <ele>1726</ele>
        <time>2016-05-15T07:44:24.000Z</time>
      </trkpt>
      <trkpt lat="44.00254" lon="7.2205">
        <ele>1726</ele>
        <time>2016-05-15T07:44:25.000Z</time>
      </trkpt>
      <trkpt lat="44.00251" lon="7.22053">
        <ele>1727</ele>
        <time>2016-05-15T07:44:26.000Z</time>
      </trkpt>
      <trkpt lat="44.00247" lon="7.22061">
        <ele>1709</ele>
        <time>2016-05-15T07:44:28.000Z</time>
      </trkpt>
      <trkpt lat="44.00243" lon="7.22075">
        <ele>1715</ele>
        <time>2016-05-15T07:44:30.000Z</time>
      </trkpt>
      <trkpt lat="44.00236" lon="7.22087">
        <ele>1719</ele>
        <time>2016-05-15T07:44:32.000Z</time>
      </trkpt>
      <trkpt lat="44.00227" lon="7.22095">
        <ele>1716</ele>
        <time>2016-05-15T07:44:34.000Z</time>
      </trkpt>
      <trkpt lat="44.00224" lon="7.221">
        <ele>1714</ele>
        <time>2016-05-15T07:44:35.000Z</time>
      </trkpt>
      <trkpt lat="44.00217" lon="7.2211">
        <ele>1713</ele>
        <time>2016-05-15T07:44:37.000Z</time>
      </trkpt>
      <trkpt lat="44.00217" lon="7.22114">
        <ele>1713</ele>
        <time>2016-05-15T07:44:38.000Z</time>
      </trkpt>
      <trkpt lat="44.00215" lon="7.22119">
        <ele>1713</ele>
        <time>2016-05-15T07:44:39.000Z</time>
      </trkpt>
      <trkpt lat="44.00213" lon="7.22125">
        <ele>1713</ele>
        <time>2016-05-15T07:44:40.000Z</time>
      </trkpt>
      <trkpt lat="44.0021" lon="7.22131">
        <ele>1712</ele>
        <time>2016-05-15T07:44:41.000Z</time>
      </trkpt>
      <trkpt lat="44.00209" lon="7.22137">
        <ele>1713</ele>
        <time>2016-05-15T07:44:42.000Z</time>
      </trkpt>
      <trkpt lat="44.00206" lon="7.22149">
        <ele>1712</ele>
        <time>2016-05-15T07:44:45.000Z</time>
      </trkpt>
      <trkpt lat="44.00201" lon="7.22174">
        <ele>1720</ele>
        <time>2016-05-15T07:44:50.000Z</time>
      </trkpt>
      <trkpt lat="44.00201" lon="7.22183">
        <ele>1721</ele>
        <time>2016-05-15T07:44:51.000Z</time>
      </trkpt>
      <trkpt lat="44.002" lon="7.2219">
        <ele>1721</ele>
        <time>2016-05-15T07:44:52.000Z</time>
      </trkpt>
      <trkpt lat="44.00199" lon="7.22196">
        <ele>1722</ele>
        <time>2016-05-15T07:44:53.000Z</time>
      </trkpt>
      <trkpt lat="44.00197" lon="7.22204">
        <ele>1722</ele>
        <time>2016-05-15T07:44:54.000Z</time>
      </trkpt>
      <trkpt lat="44.00191" lon="7.22215">
        <ele>1721</ele>
        <time>2016-05-15T07:44:56.000Z</time>
      </trkpt>
      <trkpt lat="44.0019" lon="7.22221">
        <ele>1721</ele>
        <time>2016-05-15T07:44:57.000Z</time>
      </trkpt>
      <trkpt lat="44.0018" lon="7.22231">
        <ele>1717</ele>
        <time>2016-05-15T07:45:01.000Z</time>
      </trkpt>
      <trkpt lat="44.00175" lon="7.2224">
        <ele>1713</ele>
        <time>2016-05-15T07:45:05.000Z</time>
      </trkpt>
      <trkpt lat="44.00172" lon="7.22255">
        <ele>1714</ele>
        <time>2016-05-15T07:45:10.000Z</time>
      </trkpt>
      <trkpt lat="44.00173" lon="7.22264">
        <ele>1721</ele>
        <time>2016-05-15T07:45:13.000Z</time>
      </trkpt>
      <trkpt lat="44.00173" lon="7.2227">
        <ele>1725</ele>
        <time>2016-05-15T07:45:15.000Z</time>
      </trkpt>
      <trkpt lat="44.00169" lon="7.22283">
        <ele>1729</ele>
        <time>2016-05-15T07:45:19.000Z</time>
      </trkpt>
      <trkpt lat="44.00166" lon="7.22299">
        <ele>1691</ele>
        <time>2016-05-15T07:45:23.000Z</time>
      </trkpt>
      <trkpt lat="44.00161" lon="7.22312">
        <ele>1695</ele>
        <time>2016-05-15T07:45:27.000Z</time>
      </trkpt>
      <trkpt lat="44.00158" lon="7.22313">
        <ele>1695</ele>
        <time>2016-05-15T07:45:28.000Z</time>
      </trkpt>
      <trkpt lat="44.00156" lon="7.22318">
        <ele>1697</ele>
        <time>2016-05-15T07:45:30.000Z</time>
      </trkpt>
      <trkpt lat="44.00154" lon="7.2232">
        <ele>1697</ele>
        <time>2016-05-15T07:45:31.000Z</time>
      </trkpt>
      <trkpt lat="44.00155" lon="7.22324">
        <ele>1700</ele>
        <time>2016-05-15T07:45:32.000Z</time>
      </trkpt>
      <trkpt lat="44.00157" lon="7.22333">
        <ele>1706</ele>
        <time>2016-05-15T07:45:35.000Z</time>
      </trkpt>
      <trkpt lat="44.00159" lon="7.22338">
        <ele>1710</ele>
        <time>2016-05-15T07:45:37.000Z</time>
      </trkpt>
      <trkpt lat="44.00159" lon="7.22345">
        <ele>1706</ele>
        <time>2016-05-15T07:45:40.000Z</time>
      </trkpt>
      <trkpt lat="44.00159" lon="7.2235">
        <ele>1704</ele>
        <time>2016-05-15T07:45:42.000Z</time>
      </trkpt>
      <trkpt lat="44.00159" lon="7.2236">
        <ele>1701</ele>
        <time>2016-05-15T07:45:47.000Z</time>
      </trkpt>
      <trkpt lat="44.0016" lon="7.22367">
        <ele>1700</ele>
        <time>2016-05-15T07:45:50.000Z</time>
      </trkpt>
      <trkpt lat="44.00159" lon="7.22378">
        <ele>1700</ele>
        <time>2016-05-15T07:45:55.000Z</time>
      </trkpt>
      <trkpt lat="44.00159" lon="7.2238">
        <ele>1701</ele>
        <time>2016-05-15T07:45:56.000Z</time>
      </trkpt>
      <trkpt lat="44.00161" lon="7.22394">
        <ele>1706</ele>
        <time>2016-05-15T07:46:04.000Z</time>
      </trkpt>
      <trkpt lat="44.00161" lon="7.22395">
        <ele>1706</ele>
        <time>2016-05-15T07:46:08.000Z</time>
      </trkpt>
      <trkpt lat="44.00161" lon="7.22395">
        <ele>1706</ele>
        <time>2016-05-15T07:46:09.000Z</time>
      </trkpt>
      <trkpt lat="44.00159" lon="7.224">
        <ele>1708</ele>
        <time>2016-05-15T07:46:15.000Z</time>
      </trkpt>
      <trkpt lat="44.00158" lon="7.22407">
        <ele>1712</ele>
        <time>2016-05-15T07:46:22.000Z</time>
      </trkpt>
      <trkpt lat="44.00158" lon="7.22408">
        <ele>1713</ele>
        <time>2016-05-15T07:46:23.000Z</time>
      </trkpt>
      <trkpt lat="44.00157" lon="7.22409">
        <ele>1713</ele>
        <time>2016-05-15T07:46:24.000Z</time>
      </trkpt>
      <trkpt lat="44.00156" lon="7.22415">
        <ele>1714</ele>
        <time>2016-05-15T07:46:29.000Z</time>
      </trkpt>
      <trkpt lat="44.00156" lon="7.22418">
        <ele>1720</ele>
        <time>2016-05-15T07:46:31.000Z</time>
      </trkpt>
      <trkpt lat="44.00153" lon="7.22426">
        <ele>1717</ele>
        <time>2016-05-15T07:46:37.000Z</time>
      </trkpt>
      <trkpt lat="44.00146" lon="7.22434">
        <ele>1713</ele>
        <time>2016-05-15T07:46:45.000Z</time>
      </trkpt>
      <trkpt lat="44.00145" lon="7.22437">
        <ele>1712</ele>
        <time>2016-05-15T07:46:47.000Z</time>
      </trkpt>
      <trkpt lat="44.00143" lon="7.22441">
        <ele>1711</ele>
        <time>2016-05-15T07:46:50.000Z</time>
      </trkpt>
      <trkpt lat="44.00143" lon="7.22444">
        <ele>1711</ele>
        <time>2016-05-15T07:46:52.000Z</time>
      </trkpt>
      <trkpt lat="44.00143" lon="7.22452">
        <ele>1712</ele>
        <time>2016-05-15T07:46:58.000Z</time>
      </trkpt>
      <trkpt lat="44.00144" lon="7.22456">
        <ele>1713</ele>
        <time>2016-05-15T07:47:01.000Z</time>
      </trkpt>
      <trkpt lat="44.00145" lon="7.2246">
        <ele>1714</ele>
        <time>2016-05-15T07:47:04.000Z</time>
      </trkpt>
      <trkpt lat="44.00145" lon="7.22462">
        <ele>1714</ele>
        <time>2016-05-15T07:47:05.000Z</time>
      </trkpt>
      <trkpt lat="44.00145" lon="7.22469">
        <ele>1716</ele>
        <time>2016-05-15T07:47:10.000Z</time>
      </trkpt>
      <trkpt lat="44.00144" lon="7.22471">
        <ele>1716</ele>
        <time>2016-05-15T07:47:12.000Z</time>
      </trkpt>
      <trkpt lat="44.00141" lon="7.22474">
        <ele>1715</ele>
        <time>2016-05-15T07:47:16.000Z</time>
      </trkpt>
      <trkpt lat="44.00141" lon="7.22473">
        <ele>1715</ele>
        <time>2016-05-15T07:47:17.000Z</time>
      </trkpt>
      <trkpt lat="44.00137" lon="7.22479">
        <ele>1715</ele>
        <time>2016-05-15T07:47:22.000Z</time>
      </trkpt>
      <trkpt lat="44.00133" lon="7.22485">
        <ele>1713</ele>
        <time>2016-05-15T07:47:25.000Z</time>
      </trkpt>
      <trkpt lat="44.00133" lon="7.22491">
        <ele>1714</ele>
        <time>2016-05-15T07:47:27.000Z</time>
      </trkpt>
      <trkpt lat="44.00134" lon="7.22502">
        <ele>1725</ele>
        <time>2016-05-15T07:47:32.000Z</time>
      </trkpt>
      <trkpt lat="44.00135" lon="7.22517">
        <ele>1725</ele>
        <time>2016-05-15T07:47:38.000Z</time>
      </trkpt>
      <trkpt lat="44.00135" lon="7.22521">
        <ele>1725</ele>
        <time>2016-05-15T07:47:40.000Z</time>
      </trkpt>
      <trkpt lat="44.00135" lon="7.22528">
        <ele>1724</ele>
        <time>2016-05-15T07:47:43.000Z</time>
      </trkpt>
      <trkpt lat="44.00136" lon="7.22535">
        <ele>1725</ele>
        <time>2016-05-15T07:47:46.000Z</time>
      </trkpt>
      <trkpt lat="44.00137" lon="7.2254">
        <ele>1725</ele>
        <time>2016-05-15T07:47:48.000Z</time>
      </trkpt>
      <trkpt lat="44.00138" lon="7.22546">
        <ele>1726</ele>
        <time>2016-05-15T07:47:53.000Z</time>
      </trkpt>
      <trkpt lat="44.00137" lon="7.22559">
        <ele>1727</ele>
        <time>2016-05-15T07:47:59.000Z</time>
      </trkpt>
      <trkpt lat="44.00134" lon="7.22582">
        <ele>1727</ele>
        <time>2016-05-15T07:48:05.000Z</time>
      </trkpt>
      <trkpt lat="44.00128" lon="7.22617">
        <ele>1733</ele>
        <time>2016-05-15T07:48:11.000Z</time>
      </trkpt>
      <trkpt lat="44.00125" lon="7.22624">
        <ele>1732</ele>
        <time>2016-05-15T07:48:12.000Z</time>
      </trkpt>
      <trkpt lat="44.00115" lon="7.22639">
        <ele>1731</ele>
        <time>2016-05-15T07:48:15.000Z</time>
      </trkpt>
      <trkpt lat="44.00112" lon="7.22643">
        <ele>1730</ele>
        <time>2016-05-15T07:48:16.000Z</time>
      </trkpt>
      <trkpt lat="44.00101" lon="7.22662">
        <ele>1726</ele>
        <time>2016-05-15T07:48:20.000Z</time>
      </trkpt>
      <trkpt lat="44.00098" lon="7.22668">
        <ele>1731</ele>
        <time>2016-05-15T07:48:21.000Z</time>
      </trkpt>
      <trkpt lat="44.00093" lon="7.22679">
        <ele>1731</ele>
        <time>2016-05-15T07:48:23.000Z</time>
      </trkpt>
      <trkpt lat="44.00087" lon="7.22697">
        <ele>1737</ele>
        <time>2016-05-15T07:48:26.000Z</time>
      </trkpt>
      <trkpt lat="44.00085" lon="7.22704">
        <ele>1738</ele>
        <time>2016-05-15T07:48:27.000Z</time>
      </trkpt>
      <trkpt lat="44.00084" lon="7.22711">
        <ele>1739</ele>
        <time>2016-05-15T07:48:28.000Z</time>
      </trkpt>
      <trkpt lat="44.00084" lon="7.22725">
        <ele>1740</ele>
        <time>2016-05-15T07:48:30.000Z</time>
      </trkpt>
      <trkpt lat="44.00083" lon="7.22732">
        <ele>1718</ele>
        <time>2016-05-15T07:48:31.000Z</time>
      </trkpt>
      <trkpt lat="44.00081" lon="7.22737">
        <ele>1721</ele>
        <time>2016-05-15T07:48:32.000Z</time>
      </trkpt>
      <trkpt lat="44.00074" lon="7.22745">
        <ele>1723</ele>
        <time>2016-05-15T07:48:34.000Z</time>
      </trkpt>
      <trkpt lat="44.00068" lon="7.22752">
        <ele>1726</ele>
        <time>2016-05-15T07:48:36.000Z</time>
      </trkpt>
      <trkpt lat="44.00064" lon="7.22754">
        <ele>1725</ele>
        <time>2016-05-15T07:48:37.000Z</time>
      </trkpt>
      <trkpt lat="44.00061" lon="7.22756">
        <ele>1724</ele>
        <time>2016-05-15T07:48:38.000Z</time>
      </trkpt>
      <trkpt lat="44.00051" lon="7.22763">
        <ele>1720</ele>
        <time>2016-05-15T07:48:41.000Z</time>
      </trkpt>
      <trkpt lat="44.00042" lon="7.22768">
        <ele>1717</ele>
        <time>2016-05-15T07:48:43.000Z</time>
      </trkpt>
      <trkpt lat="44.00046" lon="7.22781">
        <ele>1719</ele>
        <time>2016-05-15T07:48:45.000Z</time>
      </trkpt>
      <trkpt lat="44.00047" lon="7.22787">
        <ele>1720</ele>
        <time>2016-05-15T07:48:46.000Z</time>
      </trkpt>
      <trkpt lat="44.0005" lon="7.22811">
        <ele>1722</ele>
        <time>2016-05-15T07:48:50.000Z</time>
      </trkpt>
      <trkpt lat="44.0005" lon="7.22822">
        <ele>1723</ele>
        <time>2016-05-15T07:48:52.000Z</time>
      </trkpt>
      <trkpt lat="44.0005" lon="7.22827">
        <ele>1724</ele>
        <time>2016-05-15T07:48:53.000Z</time>
      </trkpt>
      <trkpt lat="44.00054" lon="7.22842">
        <ele>1730</ele>
        <time>2016-05-15T07:48:56.000Z</time>
      </trkpt>
      <trkpt lat="44.00059" lon="7.2286">
        <ele>1731</ele>
        <time>2016-05-15T07:49:00.000Z</time>
      </trkpt>
      <trkpt lat="44.00062" lon="7.22876">
        <ele>1731</ele>
        <time>2016-05-15T07:49:05.000Z</time>
      </trkpt>
      <trkpt lat="44.00062" lon="7.22879">
        <ele>1731</ele>
        <time>2016-05-15T07:49:08.000Z</time>
      </trkpt>
      <trkpt lat="44.00062" lon="7.22879">
        <ele>1731</ele>
        <time>2016-05-15T07:49:09.000Z</time>
      </trkpt>
      <trkpt lat="44.0006" lon="7.22885">
        <ele>1731</ele>
        <time>2016-05-15T07:49:15.000Z</time>
      </trkpt>
      <trkpt lat="44.00061" lon="7.22888">
        <ele>1732</ele>
        <time>2016-05-15T07:49:16.000Z</time>
      </trkpt>
      <trkpt lat="44.00062" lon="7.22906">
        <ele>1734</ele>
        <time>2016-05-15T07:49:21.000Z</time>
      </trkpt>
      <trkpt lat="44.0006" lon="7.22926">
        <ele>1738</ele>
        <time>2016-05-15T07:49:25.000Z</time>
      </trkpt>
      <trkpt lat="44.00059" lon="7.2293">
        <ele>1738</ele>
        <time>2016-05-15T07:49:26.000Z</time>
      </trkpt>
      <trkpt lat="44.00047" lon="7.22946">
        <ele>1736</ele>
        <time>2016-05-15T07:49:30.000Z</time>
      </trkpt>
      <trkpt lat="44.00044" lon="7.2295">
        <ele>1736</ele>
        <time>2016-05-15T07:49:31.000Z</time>
      </trkpt>
      <trkpt lat="44.00037" lon="7.22958">
        <ele>1736</ele>
        <time>2016-05-15T07:49:33.000Z</time>
      </trkpt>
      <trkpt lat="44.00023" lon="7.22977">
        <ele>1735</ele>
        <time>2016-05-15T07:49:37.000Z</time>
      </trkpt>
      <trkpt lat="44.00011" lon="7.22993">
        <ele>1734</ele>
        <time>2016-05-15T07:49:40.000Z</time>
      </trkpt>
      <trkpt lat="44.00001" lon="7.23003">
        <ele>1734</ele>
        <time>2016-05-15T07:49:42.000Z</time>
      </trkpt>
      <trkpt lat="43.99992" lon="7.23012">
        <ele>1732</ele>
        <time>2016-05-15T07:49:44.000Z</time>
      </trkpt>
      <trkpt lat="43.9998" lon="7.23028">
        <ele>1733</ele>
        <time>2016-05-15T07:49:47.000Z</time>
      </trkpt>
      <trkpt lat="43.99975" lon="7.23033">
        <ele>1733</ele>
        <time>2016-05-15T07:49:48.000Z</time>
      </trkpt>
      <trkpt lat="43.99953" lon="7.23055">
        <ele>1732</ele>
        <time>2016-05-15T07:49:52.000Z</time>
      </trkpt>
      <trkpt lat="43.99927" lon="7.23091">
        <ele>1736</ele>
        <time>2016-05-15T07:49:57.000Z</time>
      </trkpt>
      <trkpt lat="43.99914" lon="7.23106">
        <ele>1727</ele>
        <time>2016-05-15T07:49:59.000Z</time>
      </trkpt>
      <trkpt lat="43.99907" lon="7.23113">
        <ele>1727</ele>
        <time>2016-05-15T07:50:00.000Z</time>
      </trkpt>
      <trkpt lat="43.99901" lon="7.23119">
        <ele>1726</ele>
        <time>2016-05-15T07:50:01.000Z</time>
      </trkpt>
      <trkpt lat="43.99886" lon="7.23131">
        <ele>1726</ele>
        <time>2016-05-15T07:50:03.000Z</time>
      </trkpt>
      <trkpt lat="43.99883" lon="7.23132">
        <ele>1725</ele>
        <time>2016-05-15T07:50:04.000Z</time>
      </trkpt>
      <trkpt lat="43.99871" lon="7.23139">
        <ele>1724</ele>
        <time>2016-05-15T07:50:05.000Z</time>
      </trkpt>
      <trkpt lat="43.9986" lon="7.23148">
        <ele>1722</ele>
        <time>2016-05-15T07:50:07.000Z</time>
      </trkpt>
      <trkpt lat="43.99854" lon="7.23153">
        <ele>1721</ele>
        <time>2016-05-15T07:50:08.000Z</time>
      </trkpt>
      <trkpt lat="43.99846" lon="7.23159">
        <ele>1719</ele>
        <time>2016-05-15T07:50:09.000Z</time>
      </trkpt>
      <trkpt lat="43.99838" lon="7.23175">
        <ele>1718</ele>
        <time>2016-05-15T07:50:11.000Z</time>
      </trkpt>
      <trkpt lat="43.99837" lon="7.23187">
        <ele>1720</ele>
        <time>2016-05-15T07:50:12.000Z</time>
      </trkpt>
      <trkpt lat="43.99838" lon="7.23197">
        <ele>1721</ele>
        <time>2016-05-15T07:50:13.000Z</time>
      </trkpt>
      <trkpt lat="43.99847" lon="7.2322">
        <ele>1721</ele>
        <time>2016-05-15T07:50:15.000Z</time>
      </trkpt>
      <trkpt lat="43.99851" lon="7.23231">
        <ele>1720</ele>
        <time>2016-05-15T07:50:16.000Z</time>
      </trkpt>
      <trkpt lat="43.99855" lon="7.23242">
        <ele>1719</ele>
        <time>2016-05-15T07:50:17.000Z</time>
      </trkpt>
      <trkpt lat="43.99857" lon="7.23253">
        <ele>1715</ele>
        <time>2016-05-15T07:50:18.000Z</time>
      </trkpt>
      <trkpt lat="43.99861" lon="7.23266">
        <ele>1716</ele>
        <time>2016-05-15T07:50:19.000Z</time>
      </trkpt>
      <trkpt lat="43.99864" lon="7.23277">
        <ele>1717</ele>
        <time>2016-05-15T07:50:20.000Z</time>
      </trkpt>
      <trkpt lat="43.99866" lon="7.23288">
        <ele>1716</ele>
        <time>2016-05-15T07:50:21.000Z</time>
      </trkpt>
      <trkpt lat="43.99869" lon="7.233">
        <ele>1716</ele>
        <time>2016-05-15T07:50:22.000Z</time>
      </trkpt>
      <trkpt lat="43.99875" lon="7.23323">
        <ele>1716</ele>
        <time>2016-05-15T07:50:24.000Z</time>
      </trkpt>
      <trkpt lat="43.99879" lon="7.23335">
        <ele>1708</ele>
        <time>2016-05-15T07:50:25.000Z</time>
      </trkpt>
      <trkpt lat="43.99882" lon="7.23347">
        <ele>1709</ele>
        <time>2016-05-15T07:50:26.000Z</time>
      </trkpt>
      <trkpt lat="43.99889" lon="7.23373">
        <ele>1708</ele>
        <time>2016-05-15T07:50:28.000Z</time>
      </trkpt>
      <trkpt lat="43.99894" lon="7.23402">
        <ele>1707</ele>
        <time>2016-05-15T07:50:30.000Z</time>
      </trkpt>
      <trkpt lat="43.99897" lon="7.23417">
        <ele>1704</ele>
        <time>2016-05-15T07:50:31.000Z</time>
      </trkpt>
      <trkpt lat="43.99898" lon="7.23431">
        <ele>1703</ele>
        <time>2016-05-15T07:50:32.000Z</time>
      </trkpt>
      <trkpt lat="43.99898" lon="7.23445">
        <ele>1701</ele>
        <time>2016-05-15T07:50:33.000Z</time>
      </trkpt>
      <trkpt lat="43.99899" lon="7.23459">
        <ele>1701</ele>
        <time>2016-05-15T07:50:34.000Z</time>
      </trkpt>
      <trkpt lat="43.99899" lon="7.23472">
        <ele>1701</ele>
        <time>2016-05-15T07:50:35.000Z</time>
      </trkpt>
      <trkpt lat="43.99898" lon="7.23487">
        <ele>1702</ele>
        <time>2016-05-15T07:50:36.000Z</time>
      </trkpt>
      <trkpt lat="43.99895" lon="7.23501">
        <ele>1701</ele>
        <time>2016-05-15T07:50:37.000Z</time>
      </trkpt>
      <trkpt lat="43.99893" lon="7.23514">
        <ele>1699</ele>
        <time>2016-05-15T07:50:38.000Z</time>
      </trkpt>
      <trkpt lat="43.99887" lon="7.23527">
        <ele>1697</ele>
        <time>2016-05-15T07:50:39.000Z</time>
      </trkpt>
      <trkpt lat="43.99884" lon="7.23541">
        <ele>1696</ele>
        <time>2016-05-15T07:50:40.000Z</time>
      </trkpt>
      <trkpt lat="43.99881" lon="7.23553">
        <ele>1695</ele>
        <time>2016-05-15T07:50:41.000Z</time>
      </trkpt>
      <trkpt lat="43.99878" lon="7.23564">
        <ele>1695</ele>
        <time>2016-05-15T07:50:42.000Z</time>
      </trkpt>
      <trkpt lat="43.99876" lon="7.23572">
        <ele>1694</ele>
        <time>2016-05-15T07:50:43.000Z</time>
      </trkpt>
      <trkpt lat="43.99873" lon="7.2358">
        <ele>1694</ele>
        <time>2016-05-15T07:50:44.000Z</time>
      </trkpt>
      <trkpt lat="43.9987" lon="7.23586">
        <ele>1688</ele>
        <time>2016-05-15T07:50:45.000Z</time>
      </trkpt>
      <trkpt lat="43.99864" lon="7.23596">
        <ele>1687</ele>
        <time>2016-05-15T07:50:47.000Z</time>
      </trkpt>
      <trkpt lat="43.99862" lon="7.236">
        <ele>1686</ele>
        <time>2016-05-15T07:50:48.000Z</time>
      </trkpt>
      <trkpt lat="43.99857" lon="7.23607">
        <ele>1686</ele>
        <time>2016-05-15T07:50:51.000Z</time>
      </trkpt>
      <trkpt lat="43.99856" lon="7.23607">
        <ele>1686</ele>
        <time>2016-05-15T07:50:52.000Z</time>
      </trkpt>
      <trkpt lat="43.99857" lon="7.23607">
        <ele>1686</ele>
        <time>2016-05-15T07:50:53.000Z</time>
      </trkpt>
      <trkpt lat="43.99857" lon="7.23609">
        <ele>1686</ele>
        <time>2016-05-15T07:50:55.000Z</time>
      </trkpt>
      <trkpt lat="43.9986" lon="7.23606">
        <ele>1686</ele>
        <time>2016-05-15T07:51:02.000Z</time>
      </trkpt>
      <trkpt lat="43.99862" lon="7.23604">
        <ele>1686</ele>
        <time>2016-05-15T07:51:05.000Z</time>
      </trkpt>
      <trkpt lat="43.99865" lon="7.236">
        <ele>1687</ele>
        <time>2016-05-15T07:51:10.000Z</time>
      </trkpt>
      <trkpt lat="43.99867" lon="7.236">
        <ele>1687</ele>
        <time>2016-05-15T07:51:11.000Z</time>
      </trkpt>
      <trkpt lat="43.99867" lon="7.236">
        <ele>1687</ele>
        <time>2016-05-15T07:51:13.000Z</time>
      </trkpt>
      <trkpt lat="43.99867" lon="7.236">
        <ele>1687</ele>
        <time>2016-05-15T07:51:21.000Z</time>
      </trkpt>
      <trkpt lat="43.99864" lon="7.23599">
        <ele>1687</ele>
        <time>2016-05-15T07:51:32.000Z</time>
      </trkpt>
      <trkpt lat="43.99864" lon="7.23597">
        <ele>1687</ele>
        <time>2016-05-15T07:51:40.000Z</time>
      </trkpt>
      <trkpt lat="43.99863" lon="7.23601">
        <ele>1686</ele>
        <time>2016-05-15T07:51:48.000Z</time>
      </trkpt>
      <trkpt lat="43.99864" lon="7.23602">
        <ele>1687</ele>
        <time>2016-05-15T07:51:53.000Z</time>
      </trkpt>
      <trkpt lat="43.99864" lon="7.236">
        <ele>1687</ele>
        <time>2016-05-15T07:51:57.000Z</time>
      </trkpt>
      <trkpt lat="43.99863" lon="7.23598">
        <ele>1687</ele>
        <time>2016-05-15T07:52:03.000Z</time>
      </trkpt>
      <trkpt lat="43.99863" lon="7.23599">
        <ele>1687</ele>
        <time>2016-05-15T07:52:13.000Z</time>
      </trkpt>
      <trkpt lat="43.99863" lon="7.23599">
        <ele>1687</ele>
        <time>2016-05-15T07:52:24.000Z</time>
      </trkpt>
      <trkpt lat="43.99863" lon="7.236">
        <ele>1687</ele>
        <time>2016-05-15T07:52:27.000Z</time>
      </trkpt>
      <trkpt lat="43.99862" lon="7.23606">
        <ele>1686</ele>
        <time>2016-05-15T07:52:32.000Z</time>
      </trkpt>
      <trkpt lat="43.99861" lon="7.23607">
        <ele>1686</ele>
        <time>2016-05-15T07:52:33.000Z</time>
      </trkpt>
      <trkpt lat="43.99859" lon="7.23609">
        <ele>1686</ele>
        <time>2016-05-15T07:52:40.000Z</time>
      </trkpt>
      <trkpt lat="43.99858" lon="7.23609">
        <ele>1686</ele>
        <time>2016-05-15T07:52:48.000Z</time>
      </trkpt>
      <trkpt lat="43.99857" lon="7.2361">
        <ele>1686</ele>
        <time>2016-05-15T07:52:59.000Z</time>
      </trkpt>
      <trkpt lat="43.99857" lon="7.23609">
        <ele>1686</ele>
        <time>2016-05-15T07:53:08.000Z</time>
      </trkpt>
      <trkpt lat="43.99856" lon="7.2361">
        <ele>1686</ele>
        <time>2016-05-15T07:53:14.000Z</time>
      </trkpt>
      <trkpt lat="43.99854" lon="7.23607">
        <ele>1686</ele>
        <time>2016-05-15T07:53:21.000Z</time>
      </trkpt>
      <trkpt lat="43.99853" lon="7.23605">
        <ele>1686</ele>
        <time>2016-05-15T07:53:22.000Z</time>
      </trkpt>
      <trkpt lat="43.99854" lon="7.23596">
        <ele>1686</ele>
        <time>2016-05-15T07:53:26.000Z</time>
      </trkpt>
      <trkpt lat="43.99853" lon="7.23595">
        <ele>1686</ele>
        <time>2016-05-15T07:53:27.000Z</time>
      </trkpt>
      <trkpt lat="43.99849" lon="7.23596">
        <ele>1685</ele>
        <time>2016-05-15T07:53:30.000Z</time>
      </trkpt>
      <trkpt lat="43.99848" lon="7.23593">
        <ele>1685</ele>
        <time>2016-05-15T07:53:32.000Z</time>
      </trkpt>
      <trkpt lat="43.99847" lon="7.23586">
        <ele>1685</ele>
        <time>2016-05-15T07:53:34.000Z</time>
      </trkpt>
      <trkpt lat="43.99848" lon="7.23582">
        <ele>1688</ele>
        <time>2016-05-15T07:53:35.000Z</time>
      </trkpt>
      <trkpt lat="43.99845" lon="7.23572">
        <ele>1689</ele>
        <time>2016-05-15T07:53:38.000Z</time>
      </trkpt>
      <trkpt lat="43.99844" lon="7.23569">
        <ele>1689</ele>
        <time>2016-05-15T07:53:39.000Z</time>
      </trkpt>
      <trkpt lat="43.99844" lon="7.23568">
        <ele>1689</ele>
        <time>2016-05-15T07:53:40.000Z</time>
      </trkpt>
      <trkpt lat="43.99842" lon="7.23567">
        <ele>1689</ele>
        <time>2016-05-15T07:53:41.000Z</time>
      </trkpt>
      <trkpt lat="43.99841" lon="7.23566">
        <ele>1689</ele>
        <time>2016-05-15T07:53:42.000Z</time>
      </trkpt>
      <trkpt lat="43.99837" lon="7.23567">
        <ele>1688</ele>
        <time>2016-05-15T07:53:44.000Z</time>
      </trkpt>
      <trkpt lat="43.99832" lon="7.23566">
        <ele>1677</ele>
        <time>2016-05-15T07:53:46.000Z</time>
      </trkpt>
      <trkpt lat="43.99832" lon="7.23566">
        <ele>1677</ele>
        <time>2016-05-15T07:53:47.000Z</time>
      </trkpt>
      <trkpt lat="43.99829" lon="7.23564">
        <ele>1677</ele>
        <time>2016-05-15T07:53:48.000Z</time>
      </trkpt>
      <trkpt lat="43.99825" lon="7.23563">
        <ele>1676</ele>
        <time>2016-05-15T07:53:50.000Z</time>
      </trkpt>
      <trkpt lat="43.99825" lon="7.23563">
        <ele>1676</ele>
        <time>2016-05-15T07:53:51.000Z</time>
      </trkpt>
      <trkpt lat="43.99819" lon="7.23565">
        <ele>1676</ele>
        <time>2016-05-15T07:53:53.000Z</time>
      </trkpt>
      <trkpt lat="43.99817" lon="7.23567">
        <ele>1676</ele>
        <time>2016-05-15T07:53:54.000Z</time>
      </trkpt>
      <trkpt lat="43.99814" lon="7.23567">
        <ele>1675</ele>
        <time>2016-05-15T07:53:55.000Z</time>
      </trkpt>
      <trkpt lat="43.99806" lon="7.23572">
        <ele>1674</ele>
        <time>2016-05-15T07:53:58.000Z</time>
      </trkpt>
      <trkpt lat="43.99803" lon="7.23574">
        <ele>1673</ele>
        <time>2016-05-15T07:54:00.000Z</time>
      </trkpt>
      <trkpt lat="43.99798" lon="7.23577">
        <ele>1673</ele>
        <time>2016-05-15T07:54:02.000Z</time>
      </trkpt>
      <trkpt lat="43.99796" lon="7.23576">
        <ele>1672</ele>
        <time>2016-05-15T07:54:03.000Z</time>
      </trkpt>
      <trkpt lat="43.99794" lon="7.23572">
        <ele>1672</ele>
        <time>2016-05-15T07:54:05.000Z</time>
      </trkpt>
      <trkpt lat="43.99795" lon="7.23568">
        <ele>1672</ele>
        <time>2016-05-15T07:54:06.000Z</time>
      </trkpt>
      <trkpt lat="43.99799" lon="7.23561">
        <ele>1672</ele>
        <time>2016-05-15T07:54:08.000Z</time>
      </trkpt>
      <trkpt lat="43.998" lon="7.23559">
        <ele>1672</ele>
        <time>2016-05-15T07:54:09.000Z</time>
      </trkpt>
      <trkpt lat="43.998" lon="7.23554">
        <ele>1672</ele>
        <time>2016-05-15T07:54:11.000Z</time>
      </trkpt>
      <trkpt lat="43.998" lon="7.2355">
        <ele>1671</ele>
        <time>2016-05-15T07:54:13.000Z</time>
      </trkpt>
      <trkpt lat="43.99797" lon="7.23552">
        <ele>1671</ele>
        <time>2016-05-15T07:54:16.000Z</time>
      </trkpt>
      <trkpt lat="43.99792" lon="7.23556">
        <ele>1671</ele>
        <time>2016-05-15T07:54:19.000Z</time>
      </trkpt>
      <trkpt lat="43.99787" lon="7.23554">
        <ele>1670</ele>
        <time>2016-05-15T07:54:20.000Z</time>
      </trkpt>
      <trkpt lat="43.99782" lon="7.23553">
        <ele>1669</ele>
        <time>2016-05-15T07:54:21.000Z</time>
      </trkpt>
      <trkpt lat="43.99778" lon="7.23553">
        <ele>1669</ele>
        <time>2016-05-15T07:54:23.000Z</time>
      </trkpt>
      <trkpt lat="43.99774" lon="7.23552">
        <ele>1668</ele>
        <time>2016-05-15T07:54:24.000Z</time>
      </trkpt>
      <trkpt lat="43.99771" lon="7.23551">
        <ele>1668</ele>
        <time>2016-05-15T07:54:25.000Z</time>
      </trkpt>
      <trkpt lat="43.9976" lon="7.23548">
        <ele>1667</ele>
        <time>2016-05-15T07:54:28.000Z</time>
      </trkpt>
      <trkpt lat="43.99757" lon="7.23544">
        <ele>1666</ele>
        <time>2016-05-15T07:54:30.000Z</time>
      </trkpt>
      <trkpt lat="43.99757" lon="7.23543">
        <ele>1666</ele>
        <time>2016-05-15T07:54:31.000Z</time>
      </trkpt>
      <trkpt lat="43.99757" lon="7.2354">
        <ele>1665</ele>
        <time>2016-05-15T07:54:32.000Z</time>
      </trkpt>
      <trkpt lat="43.99758" lon="7.23537">
        <ele>1665</ele>
        <time>2016-05-15T07:54:34.000Z</time>
      </trkpt>
      <trkpt lat="43.99756" lon="7.23535">
        <ele>1664</ele>
        <time>2016-05-15T07:54:36.000Z</time>
      </trkpt>
      <trkpt lat="43.99755" lon="7.23534">
        <ele>1664</ele>
        <time>2016-05-15T07:54:37.000Z</time>
      </trkpt>
      <trkpt lat="43.99753" lon="7.23532">
        <ele>1663</ele>
        <time>2016-05-15T07:54:39.000Z</time>
      </trkpt>
      <trkpt lat="43.99752" lon="7.23528">
        <ele>1662</ele>
        <time>2016-05-15T07:54:41.000Z</time>
      </trkpt>
      <trkpt lat="43.99756" lon="7.23519">
        <ele>1660</ele>
        <time>2016-05-15T07:54:44.000Z</time>
      </trkpt>
      <trkpt lat="43.99755" lon="7.23518">
        <ele>1660</ele>
        <time>2016-05-15T07:54:45.000Z</time>
      </trkpt>
      <trkpt lat="43.99753" lon="7.23517">
        <ele>1659</ele>
        <time>2016-05-15T07:54:47.000Z</time>
      </trkpt>
      <trkpt lat="43.99752" lon="7.23519">
        <ele>1660</ele>
        <time>2016-05-15T07:54:48.000Z</time>
      </trkpt>
      <trkpt lat="43.99746" lon="7.2352">
        <ele>1648</ele>
        <time>2016-05-15T07:54:50.000Z</time>
      </trkpt>
      <trkpt lat="43.99744" lon="7.23521">
        <ele>1648</ele>
        <time>2016-05-15T07:54:51.000Z</time>
      </trkpt>
      <trkpt lat="43.99742" lon="7.23518">
        <ele>1648</ele>
        <time>2016-05-15T07:54:53.000Z</time>
      </trkpt>
      <trkpt lat="43.99743" lon="7.23512">
        <ele>1648</ele>
        <time>2016-05-15T07:54:55.000Z</time>
      </trkpt>
      <trkpt lat="43.99743" lon="7.23506">
        <ele>1648</ele>
        <time>2016-05-15T07:54:57.000Z</time>
      </trkpt>
      <trkpt lat="43.99741" lon="7.23505">
        <ele>1648</ele>
        <time>2016-05-15T07:54:59.000Z</time>
      </trkpt>
      <trkpt lat="43.9974" lon="7.23507">
        <ele>1648</ele>
        <time>2016-05-15T07:55:00.000Z</time>
      </trkpt>
      <trkpt lat="43.99735" lon="7.23506">
        <ele>1647</ele>
        <time>2016-05-15T07:55:02.000Z</time>
      </trkpt>
      <trkpt lat="43.99732" lon="7.23509">
        <ele>1647</ele>
        <time>2016-05-15T07:55:04.000Z</time>
      </trkpt>
      <trkpt lat="43.99729" lon="7.23507">
        <ele>1647</ele>
        <time>2016-05-15T07:55:06.000Z</time>
      </trkpt>
      <trkpt lat="43.99723" lon="7.23504">
        <ele>1646</ele>
        <time>2016-05-15T07:55:09.000Z</time>
      </trkpt>
      <trkpt lat="43.99723" lon="7.23501">
        <ele>1645</ele>
        <time>2016-05-15T07:55:10.000Z</time>
      </trkpt>
      <trkpt lat="43.99726" lon="7.23495">
        <ele>1639</ele>
        <time>2016-05-15T07:55:12.000Z</time>
      </trkpt>
      <trkpt lat="43.99726" lon="7.23492">
        <ele>1638</ele>
        <time>2016-05-15T07:55:14.000Z</time>
      </trkpt>
      <trkpt lat="43.99723" lon="7.23487">
        <ele>1637</ele>
        <time>2016-05-15T07:55:16.000Z</time>
      </trkpt>
      <trkpt lat="43.99721" lon="7.23487">
        <ele>1637</ele>
        <time>2016-05-15T07:55:17.000Z</time>
      </trkpt>
      <trkpt lat="43.99718" lon="7.23486">
        <ele>1636</ele>
        <time>2016-05-15T07:55:18.000Z</time>
      </trkpt>
      <trkpt lat="43.99715" lon="7.23485">
        <ele>1635</ele>
        <time>2016-05-15T07:55:19.000Z</time>
      </trkpt>
      <trkpt lat="43.99713" lon="7.23487">
        <ele>1635</ele>
        <time>2016-05-15T07:55:20.000Z</time>
      </trkpt>
      <trkpt lat="43.99707" lon="7.23487">
        <ele>1634</ele>
        <time>2016-05-15T07:55:22.000Z</time>
      </trkpt>
      <trkpt lat="43.99702" lon="7.23488">
        <ele>1633</ele>
        <time>2016-05-15T07:55:24.000Z</time>
      </trkpt>
      <trkpt lat="43.997" lon="7.23491">
        <ele>1632</ele>
        <time>2016-05-15T07:55:25.000Z</time>
      </trkpt>
      <trkpt lat="43.99697" lon="7.23492">
        <ele>1631</ele>
        <time>2016-05-15T07:55:27.000Z</time>
      </trkpt>
      <trkpt lat="43.99697" lon="7.23488">
        <ele>1631</ele>
        <time>2016-05-15T07:55:29.000Z</time>
      </trkpt>
      <trkpt lat="43.99697" lon="7.23487">
        <ele>1631</ele>
        <time>2016-05-15T07:55:30.000Z</time>
      </trkpt>
      <trkpt lat="43.99697" lon="7.23484">
        <ele>1632</ele>
        <time>2016-05-15T07:55:32.000Z</time>
      </trkpt>
      <trkpt lat="43.99695" lon="7.23483">
        <ele>1631</ele>
        <time>2016-05-15T07:55:33.000Z</time>
      </trkpt>
      <trkpt lat="43.99688" lon="7.23487">
        <ele>1630</ele>
        <time>2016-05-15T07:55:36.000Z</time>
      </trkpt>
      <trkpt lat="43.99686" lon="7.23488">
        <ele>1629</ele>
        <time>2016-05-15T07:55:37.000Z</time>
      </trkpt>
      <trkpt lat="43.99681" lon="7.23487">
        <ele>1628</ele>
        <time>2016-05-15T07:55:39.000Z</time>
      </trkpt>
      <trkpt lat="43.99681" lon="7.23485">
        <ele>1628</ele>
        <time>2016-05-15T07:55:40.000Z</time>
      </trkpt>
      <trkpt lat="43.99683" lon="7.23475">
        <ele>1629</ele>
        <time>2016-05-15T07:55:42.000Z</time>
      </trkpt>
      <trkpt lat="43.99685" lon="7.23472">
        <ele>1630</ele>
        <time>2016-05-15T07:55:43.000Z</time>
      </trkpt>
      <trkpt lat="43.99685" lon="7.23469">
        <ele>1630</ele>
        <time>2016-05-15T07:55:44.000Z</time>
      </trkpt>
      <trkpt lat="43.99682" lon="7.23469">
        <ele>1629</ele>
        <time>2016-05-15T07:55:46.000Z</time>
      </trkpt>
      <trkpt lat="43.99672" lon="7.23474">
        <ele>1628</ele>
        <time>2016-05-15T07:55:50.000Z</time>
      </trkpt>
      <trkpt lat="43.9967" lon="7.23477">
        <ele>1628</ele>
        <time>2016-05-15T07:55:52.000Z</time>
      </trkpt>
      <trkpt lat="43.99665" lon="7.2348">
        <ele>1616</ele>
        <time>2016-05-15T07:55:54.000Z</time>
      </trkpt>
      <trkpt lat="43.99661" lon="7.23481">
        <ele>1616</ele>
        <time>2016-05-15T07:55:55.000Z</time>
      </trkpt>
      <trkpt lat="43.99656" lon="7.23484">
        <ele>1616</ele>
        <time>2016-05-15T07:55:57.000Z</time>
      </trkpt>
      <trkpt lat="43.99654" lon="7.23483">
        <ele>1615</ele>
        <time>2016-05-15T07:55:58.000Z</time>
      </trkpt>
      <trkpt lat="43.99653" lon="7.23482">
        <ele>1615</ele>
        <time>2016-05-15T07:55:59.000Z</time>
      </trkpt>
      <trkpt lat="43.99655" lon="7.23476">
        <ele>1614</ele>
        <time>2016-05-15T07:56:01.000Z</time>
      </trkpt>
      <trkpt lat="43.99654" lon="7.23471">
        <ele>1613</ele>
        <time>2016-05-15T07:56:03.000Z</time>
      </trkpt>
      <trkpt lat="43.99654" lon="7.23467">
        <ele>1613</ele>
        <time>2016-05-15T07:56:05.000Z</time>
      </trkpt>
      <trkpt lat="43.99654" lon="7.23468">
        <ele>1613</ele>
        <time>2016-05-15T07:56:06.000Z</time>
      </trkpt>
      <trkpt lat="43.99651" lon="7.23467">
        <ele>1613</ele>
        <time>2016-05-15T07:56:07.000Z</time>
      </trkpt>
      <trkpt lat="43.99649" lon="7.23468">
        <ele>1613</ele>
        <time>2016-05-15T07:56:08.000Z</time>
      </trkpt>
      <trkpt lat="43.99644" lon="7.2347">
        <ele>1612</ele>
        <time>2016-05-15T07:56:10.000Z</time>
      </trkpt>
      <trkpt lat="43.9964" lon="7.23471">
        <ele>1612</ele>
        <time>2016-05-15T07:56:12.000Z</time>
      </trkpt>
      <trkpt lat="43.99637" lon="7.23468">
        <ele>1611</ele>
        <time>2016-05-15T07:56:13.000Z</time>
      </trkpt>
      <trkpt lat="43.99633" lon="7.23463">
        <ele>1610</ele>
        <time>2016-05-15T07:56:16.000Z</time>
      </trkpt>
      <trkpt lat="43.99631" lon="7.23461">
        <ele>1610</ele>
        <time>2016-05-15T07:56:18.000Z</time>
      </trkpt>
      <trkpt lat="43.99628" lon="7.23459">
        <ele>1610</ele>
        <time>2016-05-15T07:56:20.000Z</time>
      </trkpt>
      <trkpt lat="43.99627" lon="7.23458">
        <ele>1609</ele>
        <time>2016-05-15T07:56:21.000Z</time>
      </trkpt>
      <trkpt lat="43.99629" lon="7.23454">
        <ele>1609</ele>
        <time>2016-05-15T07:56:23.000Z</time>
      </trkpt>
      <trkpt lat="43.99631" lon="7.23453">
        <ele>1610</ele>
        <time>2016-05-15T07:56:24.000Z</time>
      </trkpt>
      <trkpt lat="43.99633" lon="7.23452">
        <ele>1610</ele>
        <time>2016-05-15T07:56:25.000Z</time>
      </trkpt>
      <trkpt lat="43.99638" lon="7.23443">
        <ele>1610</ele>
        <time>2016-05-15T07:56:29.000Z</time>
      </trkpt>
      <trkpt lat="43.99638" lon="7.23437">
        <ele>1610</ele>
        <time>2016-05-15T07:56:31.000Z</time>
      </trkpt>
      <trkpt lat="43.99629" lon="7.2343">
        <ele>1608</ele>
        <time>2016-05-15T07:56:35.000Z</time>
      </trkpt>
      <trkpt lat="43.99624" lon="7.23429">
        <ele>1607</ele>
        <time>2016-05-15T07:56:37.000Z</time>
      </trkpt>
      <trkpt lat="43.99615" lon="7.23427">
        <ele>1605</ele>
        <time>2016-05-15T07:56:39.000Z</time>
      </trkpt>
      <trkpt lat="43.9961" lon="7.23426">
        <ele>1604</ele>
        <time>2016-05-15T07:56:40.000Z</time>
      </trkpt>
      <trkpt lat="43.99606" lon="7.23426">
        <ele>1603</ele>
        <time>2016-05-15T07:56:41.000Z</time>
      </trkpt>
      <trkpt lat="43.99603" lon="7.23426">
        <ele>1602</ele>
        <time>2016-05-15T07:56:42.000Z</time>
      </trkpt>
      <trkpt lat="43.99596" lon="7.23424">
        <ele>1600</ele>
        <time>2016-05-15T07:56:44.000Z</time>
      </trkpt>
      <trkpt lat="43.99587" lon="7.23421">
        <ele>1596</ele>
        <time>2016-05-15T07:56:46.000Z</time>
      </trkpt>
      <trkpt lat="43.99578" lon="7.23422">
        <ele>1593</ele>
        <time>2016-05-15T07:56:48.000Z</time>
      </trkpt>
      <trkpt lat="43.99568" lon="7.23424">
        <ele>1593</ele>
        <time>2016-05-15T07:56:50.000Z</time>
      </trkpt>
      <trkpt lat="43.99564" lon="7.23426">
        <ele>1593</ele>
        <time>2016-05-15T07:56:51.000Z</time>
      </trkpt>
      <trkpt lat="43.9956" lon="7.23426">
        <ele>1593</ele>
        <time>2016-05-15T07:56:52.000Z</time>
      </trkpt>
      <trkpt lat="43.99559" lon="7.23416">
        <ele>1589</ele>
        <time>2016-05-15T07:56:54.000Z</time>
      </trkpt>
      <trkpt lat="43.99566" lon="7.23407">
        <ele>1590</ele>
        <time>2016-05-15T07:56:56.000Z</time>
      </trkpt>
      <trkpt lat="43.99569" lon="7.23401">
        <ele>1590</ele>
        <time>2016-05-15T07:56:57.000Z</time>
      </trkpt>
      <trkpt lat="43.99564" lon="7.23383">
        <ele>1590</ele>
        <time>2016-05-15T07:57:00.000Z</time>
      </trkpt>
      <trkpt lat="43.99544" lon="7.23374">
        <ele>1588</ele>
        <time>2016-05-15T07:57:03.000Z</time>
      </trkpt>
      <trkpt lat="43.99535" lon="7.2337">
        <ele>1588</ele>
        <time>2016-05-15T07:57:04.000Z</time>
      </trkpt>
      <trkpt lat="43.99516" lon="7.23362">
        <ele>1587</ele>
        <time>2016-05-15T07:57:06.000Z</time>
      </trkpt>
      <trkpt lat="43.995" lon="7.23354">
        <ele>1579</ele>
        <time>2016-05-15T07:57:08.000Z</time>
      </trkpt>
      <trkpt lat="43.99487" lon="7.23346">
        <ele>1579</ele>
        <time>2016-05-15T07:57:10.000Z</time>
      </trkpt>
      <trkpt lat="43.99482" lon="7.23344">
        <ele>1578</ele>
        <time>2016-05-15T07:57:11.000Z</time>
      </trkpt>
      <trkpt lat="43.99478" lon="7.23342">
        <ele>1577</ele>
        <time>2016-05-15T07:57:12.000Z</time>
      </trkpt>
      <trkpt lat="43.99471" lon="7.23338">
        <ele>1576</ele>
        <time>2016-05-15T07:57:14.000Z</time>
      </trkpt>
      <trkpt lat="43.99466" lon="7.23335">
        <ele>1575</ele>
        <time>2016-05-15T07:57:16.000Z</time>
      </trkpt>
      <trkpt lat="43.99459" lon="7.23332">
        <ele>1578</ele>
        <time>2016-05-15T07:57:18.000Z</time>
      </trkpt>
      <trkpt lat="43.99455" lon="7.23332">
        <ele>1577</ele>
        <time>2016-05-15T07:57:19.000Z</time>
      </trkpt>
      <trkpt lat="43.99447" lon="7.23329">
        <ele>1575</ele>
        <time>2016-05-15T07:57:21.000Z</time>
      </trkpt>
      <trkpt lat="43.99437" lon="7.23326">
        <ele>1572</ele>
        <time>2016-05-15T07:57:23.000Z</time>
      </trkpt>
      <trkpt lat="43.99434" lon="7.23323">
        <ele>1572</ele>
        <time>2016-05-15T07:57:24.000Z</time>
      </trkpt>
      <trkpt lat="43.99429" lon="7.23322">
        <ele>1570</ele>
        <time>2016-05-15T07:57:25.000Z</time>
      </trkpt>
      <trkpt lat="43.99422" lon="7.23315">
        <ele>1571</ele>
        <time>2016-05-15T07:57:27.000Z</time>
      </trkpt>
      <trkpt lat="43.99416" lon="7.2331">
        <ele>1558</ele>
        <time>2016-05-15T07:57:29.000Z</time>
      </trkpt>
      <trkpt lat="43.99413" lon="7.23307">
        <ele>1558</ele>
        <time>2016-05-15T07:57:30.000Z</time>
      </trkpt>
      <trkpt lat="43.99407" lon="7.23301">
        <ele>1557</ele>
        <time>2016-05-15T07:57:32.000Z</time>
      </trkpt>
      <trkpt lat="43.99403" lon="7.233">
        <ele>1557</ele>
        <time>2016-05-15T07:57:33.000Z</time>
      </trkpt>
      <trkpt lat="43.99399" lon="7.23295">
        <ele>1557</ele>
        <time>2016-05-15T07:57:35.000Z</time>
      </trkpt>
      <trkpt lat="43.99396" lon="7.23293">
        <ele>1556</ele>
        <time>2016-05-15T07:57:36.000Z</time>
      </trkpt>
      <trkpt lat="43.99392" lon="7.23292">
        <ele>1556</ele>
        <time>2016-05-15T07:57:38.000Z</time>
      </trkpt>
      <trkpt lat="43.99392" lon="7.23291">
        <ele>1556</ele>
        <time>2016-05-15T07:57:39.000Z</time>
      </trkpt>
      <trkpt lat="43.99391" lon="7.2329">
        <ele>1556</ele>
        <time>2016-05-15T07:57:40.000Z</time>
      </trkpt>
      <trkpt lat="43.99389" lon="7.23289">
        <ele>1556</ele>
        <time>2016-05-15T07:57:41.000Z</time>
      </trkpt>
      <trkpt lat="43.99389" lon="7.23287">
        <ele>1556</ele>
        <time>2016-05-15T07:57:42.000Z</time>
      </trkpt>
      <trkpt lat="43.99385" lon="7.23283">
        <ele>1555</ele>
        <time>2016-05-15T07:57:44.000Z</time>
      </trkpt>
      <trkpt lat="43.99377" lon="7.23276">
        <ele>1554</ele>
        <time>2016-05-15T07:57:48.000Z</time>
      </trkpt>
      <trkpt lat="43.9937" lon="7.23272">
        <ele>1552</ele>
        <time>2016-05-15T07:57:50.000Z</time>
      </trkpt>
      <trkpt lat="43.99366" lon="7.23269">
        <ele>1551</ele>
        <time>2016-05-15T07:57:51.000Z</time>
      </trkpt>
      <trkpt lat="43.99361" lon="7.23266">
        <ele>1550</ele>
        <time>2016-05-15T07:57:53.000Z</time>
      </trkpt>
      <trkpt lat="43.99356" lon="7.23263">
        <ele>1548</ele>
        <time>2016-05-15T07:57:54.000Z</time>
      </trkpt>
      <trkpt lat="43.99352" lon="7.23261">
        <ele>1546</ele>
        <time>2016-05-15T07:57:55.000Z</time>
      </trkpt>
      <trkpt lat="43.99349" lon="7.2326">
        <ele>1545</ele>
        <time>2016-05-15T07:57:56.000Z</time>
      </trkpt>
      <trkpt lat="43.99346" lon="7.23258">
        <ele>1544</ele>
        <time>2016-05-15T07:57:57.000Z</time>
      </trkpt>
      <trkpt lat="43.99344" lon="7.23256">
        <ele>1543</ele>
        <time>2016-05-15T07:57:58.000Z</time>
      </trkpt>
      <trkpt lat="43.9934" lon="7.2325">
        <ele>1541</ele>
        <time>2016-05-15T07:57:59.000Z</time>
      </trkpt>
      <trkpt lat="43.99332" lon="7.23238">
        <ele>1533</ele>
        <time>2016-05-15T07:58:01.000Z</time>
      </trkpt>
      <trkpt lat="43.99324" lon="7.23228">
        <ele>1532</ele>
        <time>2016-05-15T07:58:03.000Z</time>
      </trkpt>
      <trkpt lat="43.99317" lon="7.23221">
        <ele>1531</ele>
        <time>2016-05-15T07:58:05.000Z</time>
      </trkpt>
      <trkpt lat="43.99315" lon="7.2322">
        <ele>1531</ele>
        <time>2016-05-15T07:58:06.000Z</time>
      </trkpt>
      <trkpt lat="43.99311" lon="7.23218">
        <ele>1531</ele>
        <time>2016-05-15T07:58:08.000Z</time>
      </trkpt>
      <trkpt lat="43.99305" lon="7.23215">
        <ele>1530</ele>
        <time>2016-05-15T07:58:10.000Z</time>
      </trkpt>
      <trkpt lat="43.99301" lon="7.23214">
        <ele>1529</ele>
        <time>2016-05-15T07:58:11.000Z</time>
      </trkpt>
      <trkpt lat="43.99297" lon="7.23211">
        <ele>1529</ele>
        <time>2016-05-15T07:58:12.000Z</time>
      </trkpt>
      <trkpt lat="43.99294" lon="7.23209">
        <ele>1529</ele>
        <time>2016-05-15T07:58:14.000Z</time>
      </trkpt>
      <trkpt lat="43.99292" lon="7.23208">
        <ele>1528</ele>
        <time>2016-05-15T07:58:15.000Z</time>
      </trkpt>
      <trkpt lat="43.99289" lon="7.23207">
        <ele>1528</ele>
        <time>2016-05-15T07:58:16.000Z</time>
      </trkpt>
      <trkpt lat="43.99286" lon="7.23205">
        <ele>1528</ele>
        <time>2016-05-15T07:58:18.000Z</time>
      </trkpt>
      <trkpt lat="43.99282" lon="7.23203">
        <ele>1527</ele>
        <time>2016-05-15T07:58:20.000Z</time>
      </trkpt>
      <trkpt lat="43.99279" lon="7.23201">
        <ele>1527</ele>
        <time>2016-05-15T07:58:21.000Z</time>
      </trkpt>
      <trkpt lat="43.99275" lon="7.23197">
        <ele>1526</ele>
        <time>2016-05-15T07:58:23.000Z</time>
      </trkpt>
      <trkpt lat="43.99273" lon="7.23196">
        <ele>1526</ele>
        <time>2016-05-15T07:58:24.000Z</time>
      </trkpt>
      <trkpt lat="43.99272" lon="7.23197">
        <ele>1526</ele>
        <time>2016-05-15T07:58:25.000Z</time>
      </trkpt>
      <trkpt lat="43.99271" lon="7.23197">
        <ele>1526</ele>
        <time>2016-05-15T07:58:27.000Z</time>
      </trkpt>
      <trkpt lat="43.99266" lon="7.23198">
        <ele>1525</ele>
        <time>2016-05-15T07:58:30.000Z</time>
      </trkpt>
      <trkpt lat="43.99264" lon="7.23197">
        <ele>1525</ele>
        <time>2016-05-15T07:58:31.000Z</time>
      </trkpt>
      <trkpt lat="43.99257" lon="7.23195">
        <ele>1524</ele>
        <time>2016-05-15T07:58:34.000Z</time>
      </trkpt>
      <trkpt lat="43.99254" lon="7.23193">
        <ele>1524</ele>
        <time>2016-05-15T07:58:36.000Z</time>
      </trkpt>
      <trkpt lat="43.99251" lon="7.23192">
        <ele>1523</ele>
        <time>2016-05-15T07:58:37.000Z</time>
      </trkpt>
      <trkpt lat="43.99247" lon="7.23191">
        <ele>1509</ele>
        <time>2016-05-15T07:58:38.000Z</time>
      </trkpt>
      <trkpt lat="43.99236" lon="7.23188">
        <ele>1509</ele>
        <time>2016-05-15T07:58:40.000Z</time>
      </trkpt>
      <trkpt lat="43.99223" lon="7.2318">
        <ele>1507</ele>
        <time>2016-05-15T07:58:42.000Z</time>
      </trkpt>
      <trkpt lat="43.99217" lon="7.23175">
        <ele>1506</ele>
        <time>2016-05-15T07:58:43.000Z</time>
      </trkpt>
      <trkpt lat="43.9921" lon="7.23169">
        <ele>1504</ele>
        <time>2016-05-15T07:58:44.000Z</time>
      </trkpt>
      <trkpt lat="43.992" lon="7.23162">
        <ele>1509</ele>
        <time>2016-05-15T07:58:46.000Z</time>
      </trkpt>
      <trkpt lat="43.99195" lon="7.23161">
        <ele>1508</ele>
        <time>2016-05-15T07:58:48.000Z</time>
      </trkpt>
      <trkpt lat="43.99194" lon="7.23163">
        <ele>1507</ele>
        <time>2016-05-15T07:58:49.000Z</time>
      </trkpt>
      <trkpt lat="43.99192" lon="7.23163">
        <ele>1507</ele>
        <time>2016-05-15T07:58:50.000Z</time>
      </trkpt>
      <trkpt lat="43.99192" lon="7.23163">
        <ele>1507</ele>
        <time>2016-05-15T07:58:52.000Z</time>
      </trkpt>
      <trkpt lat="43.99189" lon="7.23164">
        <ele>1506</ele>
        <time>2016-05-15T07:58:53.000Z</time>
      </trkpt>
      <trkpt lat="43.99189" lon="7.23165">
        <ele>1506</ele>
        <time>2016-05-15T07:58:54.000Z</time>
      </trkpt>
      <trkpt lat="43.99185" lon="7.23169">
        <ele>1499</ele>
        <time>2016-05-15T07:58:57.000Z</time>
      </trkpt>
      <trkpt lat="43.99183" lon="7.23169">
        <ele>1498</ele>
        <time>2016-05-15T07:58:58.000Z</time>
      </trkpt>
      <trkpt lat="43.9918" lon="7.23169">
        <ele>1497</ele>
        <time>2016-05-15T07:58:59.000Z</time>
      </trkpt>
      <trkpt lat="43.99174" lon="7.23169">
        <ele>1496</ele>
        <time>2016-05-15T07:59:01.000Z</time>
      </trkpt>
      <trkpt lat="43.99169" lon="7.23169">
        <ele>1494</ele>
        <time>2016-05-15T07:59:03.000Z</time>
      </trkpt>
      <trkpt lat="43.99163" lon="7.23172">
        <ele>1490</ele>
        <time>2016-05-15T07:59:05.000Z</time>
      </trkpt>
      <trkpt lat="43.99157" lon="7.23171">
        <ele>1489</ele>
        <time>2016-05-15T07:59:07.000Z</time>
      </trkpt>
      <trkpt lat="43.99146" lon="7.23172">
        <ele>1486</ele>
        <time>2016-05-15T07:59:10.000Z</time>
      </trkpt>
      <trkpt lat="43.99142" lon="7.23175">
        <ele>1485</ele>
        <time>2016-05-15T07:59:12.000Z</time>
      </trkpt>
      <trkpt lat="43.99137" lon="7.23176">
        <ele>1484</ele>
        <time>2016-05-15T07:59:13.000Z</time>
      </trkpt>
      <trkpt lat="43.99129" lon="7.23175">
        <ele>1483</ele>
        <time>2016-05-15T07:59:15.000Z</time>
      </trkpt>
      <trkpt lat="43.99123" lon="7.23176">
        <ele>1482</ele>
        <time>2016-05-15T07:59:17.000Z</time>
      </trkpt>
      <trkpt lat="43.99115" lon="7.23181">
        <ele>1481</ele>
        <time>2016-05-15T07:59:19.000Z</time>
      </trkpt>
      <trkpt lat="43.99102" lon="7.23184">
        <ele>1480</ele>
        <time>2016-05-15T07:59:22.000Z</time>
      </trkpt>
      <trkpt lat="43.99098" lon="7.23184">
        <ele>1479</ele>
        <time>2016-05-15T07:59:23.000Z</time>
      </trkpt>
      <trkpt lat="43.99094" lon="7.23186">
        <ele>1479</ele>
        <time>2016-05-15T07:59:24.000Z</time>
      </trkpt>
      <trkpt lat="43.99072" lon="7.23193">
        <ele>1469</ele>
        <time>2016-05-15T07:59:29.000Z</time>
      </trkpt>
      <trkpt lat="43.9906" lon="7.2319">
        <ele>1469</ele>
        <time>2016-05-15T07:59:33.000Z</time>
      </trkpt>
      <trkpt lat="43.99058" lon="7.23187">
        <ele>1469</ele>
        <time>2016-05-15T07:59:34.000Z</time>
      </trkpt>
      <trkpt lat="43.99051" lon="7.23182">
        <ele>1468</ele>
        <time>2016-05-15T07:59:37.000Z</time>
      </trkpt>
      <trkpt lat="43.99047" lon="7.23181">
        <ele>1468</ele>
        <time>2016-05-15T07:59:39.000Z</time>
      </trkpt>
      <trkpt lat="43.99045" lon="7.23178">
        <ele>1467</ele>
        <time>2016-05-15T07:59:40.000Z</time>
      </trkpt>
      <trkpt lat="43.99046" lon="7.23176">
        <ele>1468</ele>
        <time>2016-05-15T07:59:41.000Z</time>
      </trkpt>
      <trkpt lat="43.99049" lon="7.23171">
        <ele>1468</ele>
        <time>2016-05-15T07:59:43.000Z</time>
      </trkpt>
      <trkpt lat="43.99051" lon="7.23169">
        <ele>1468</ele>
        <time>2016-05-15T07:59:44.000Z</time>
      </trkpt>
      <trkpt lat="43.99052" lon="7.23166">
        <ele>1465</ele>
        <time>2016-05-15T07:59:45.000Z</time>
      </trkpt>
      <trkpt lat="43.99054" lon="7.23164">
        <ele>1465</ele>
        <time>2016-05-15T07:59:46.000Z</time>
      </trkpt>
      <trkpt lat="43.99053" lon="7.23162">
        <ele>1465</ele>
        <time>2016-05-15T07:59:47.000Z</time>
      </trkpt>
      <trkpt lat="43.99052" lon="7.2316">
        <ele>1465</ele>
        <time>2016-05-15T07:59:48.000Z</time>
      </trkpt>
      <trkpt lat="43.9905" lon="7.23158">
        <ele>1464</ele>
        <time>2016-05-15T07:59:49.000Z</time>
      </trkpt>
      <trkpt lat="43.99045" lon="7.23156">
        <ele>1463</ele>
        <time>2016-05-15T07:59:51.000Z</time>
      </trkpt>
      <trkpt lat="43.99045" lon="7.23158">
        <ele>1463</ele>
        <time>2016-05-15T07:59:52.000Z</time>
      </trkpt>
      <trkpt lat="43.99039" lon="7.23163">
        <ele>1462</ele>
        <time>2016-05-15T07:59:56.000Z</time>
      </trkpt>
      <trkpt lat="43.99037" lon="7.23163">
        <ele>1462</ele>
        <time>2016-05-15T07:59:57.000Z</time>
      </trkpt>
      <trkpt lat="43.99033" lon="7.23163">
        <ele>1462</ele>
        <time>2016-05-15T07:59:59.000Z</time>
      </trkpt>
      <trkpt lat="43.99033" lon="7.23162">
        <ele>1462</ele>
        <time>2016-05-15T08:00:01.000Z</time>
      </trkpt>
      <trkpt lat="43.99033" lon="7.23161">
        <ele>1461</ele>
        <time>2016-05-15T08:00:03.000Z</time>
      </trkpt>
      <trkpt lat="43.99031" lon="7.2316">
        <ele>1461</ele>
        <time>2016-05-15T08:00:09.000Z</time>
      </trkpt>
      <trkpt lat="43.9903" lon="7.23158">
        <ele>1461</ele>
        <time>2016-05-15T08:00:12.000Z</time>
      </trkpt>
      <trkpt lat="43.99029" lon="7.23158">
        <ele>1461</ele>
        <time>2016-05-15T08:00:14.000Z</time>
      </trkpt>
      <trkpt lat="43.99028" lon="7.23158">
        <ele>1461</ele>
        <time>2016-05-15T08:00:20.000Z</time>
      </trkpt>
      <trkpt lat="43.99028" lon="7.23158">
        <ele>1461</ele>
        <time>2016-05-15T08:00:31.000Z</time>
      </trkpt>
      <trkpt lat="43.99025" lon="7.23159">
        <ele>1461</ele>
        <time>2016-05-15T08:00:35.000Z</time>
      </trkpt>
      <trkpt lat="43.9902" lon="7.2316">
        <ele>1460</ele>
        <time>2016-05-15T08:00:38.000Z</time>
      </trkpt>
      <trkpt lat="43.99014" lon="7.23157">
        <ele>1460</ele>
        <time>2016-05-15T08:00:41.000Z</time>
      </trkpt>
      <trkpt lat="43.99015" lon="7.23153">
        <ele>1460</ele>
        <time>2016-05-15T08:00:42.000Z</time>
      </trkpt>
      <trkpt lat="43.99016" lon="7.23151">
        <ele>1459</ele>
        <time>2016-05-15T08:00:43.000Z</time>
      </trkpt>
      <trkpt lat="43.9902" lon="7.23149">
        <ele>1460</ele>
        <time>2016-05-15T08:00:45.000Z</time>
      </trkpt>
      <trkpt lat="43.99022" lon="7.23146">
        <ele>1459</ele>
        <time>2016-05-15T08:00:46.000Z</time>
      </trkpt>
      <trkpt lat="43.9902" lon="7.23145">
        <ele>1459</ele>
        <time>2016-05-15T08:00:47.000Z</time>
      </trkpt>
      <trkpt lat="43.99017" lon="7.23143">
        <ele>1459</ele>
        <time>2016-05-15T08:00:49.000Z</time>
      </trkpt>
      <trkpt lat="43.99013" lon="7.23142">
        <ele>1458</ele>
        <time>2016-05-15T08:00:52.000Z</time>
      </trkpt>
      <trkpt lat="43.99011" lon="7.2314">
        <ele>1458</ele>
        <time>2016-05-15T08:00:53.000Z</time>
      </trkpt>
      <trkpt lat="43.99006" lon="7.23139">
        <ele>1457</ele>
        <time>2016-05-15T08:00:55.000Z</time>
      </trkpt>
      <trkpt lat="43.99005" lon="7.23139">
        <ele>1457</ele>
        <time>2016-05-15T08:00:56.000Z</time>
      </trkpt>
      <trkpt lat="43.99004" lon="7.23138">
        <ele>1457</ele>
        <time>2016-05-15T08:00:57.000Z</time>
      </trkpt>
      <trkpt lat="43.99003" lon="7.23138">
        <ele>1457</ele>
        <time>2016-05-15T08:00:58.000Z</time>
      </trkpt>
      <trkpt lat="43.98998" lon="7.23137">
        <ele>1442</ele>
        <time>2016-05-15T08:01:00.000Z</time>
      </trkpt>
      <trkpt lat="43.98993" lon="7.23135">
        <ele>1441</ele>
        <time>2016-05-15T08:01:01.000Z</time>
      </trkpt>
      <trkpt lat="43.98988" lon="7.23132">
        <ele>1439</ele>
        <time>2016-05-15T08:01:02.000Z</time>
      </trkpt>
      <trkpt lat="43.98983" lon="7.23131">
        <ele>1438</ele>
        <time>2016-05-15T08:01:03.000Z</time>
      </trkpt>
      <trkpt lat="43.98976" lon="7.23131">
        <ele>1437</ele>
        <time>2016-05-15T08:01:05.000Z</time>
      </trkpt>
      <trkpt lat="43.98969" lon="7.23136">
        <ele>1437</ele>
        <time>2016-05-15T08:01:07.000Z</time>
      </trkpt>
      <trkpt lat="43.9897" lon="7.23139">
        <ele>1438</ele>
        <time>2016-05-15T08:01:08.000Z</time>
      </trkpt>
      <trkpt lat="43.98968" lon="7.23141">
        <ele>1438</ele>
        <time>2016-05-15T08:01:09.000Z</time>
      </trkpt>
      <trkpt lat="43.98965" lon="7.2314">
        <ele>1437</ele>
        <time>2016-05-15T08:01:11.000Z</time>
      </trkpt>
      <trkpt lat="43.98964" lon="7.2314">
        <ele>1437</ele>
        <time>2016-05-15T08:01:15.000Z</time>
      </trkpt>
      <trkpt lat="43.98962" lon="7.23139">
        <ele>1436</ele>
        <time>2016-05-15T08:01:17.000Z</time>
      </trkpt>
      <trkpt lat="43.9896" lon="7.2314">
        <ele>1436</ele>
        <time>2016-05-15T08:01:18.000Z</time>
      </trkpt>
      <trkpt lat="43.98959" lon="7.23138">
        <ele>1435</ele>
        <time>2016-05-15T08:01:20.000Z</time>
      </trkpt>
      <trkpt lat="43.98958" lon="7.23138">
        <ele>1435</ele>
        <time>2016-05-15T08:01:21.000Z</time>
      </trkpt>
      <trkpt lat="43.98958" lon="7.23138">
        <ele>1435</ele>
        <time>2016-05-15T08:01:22.000Z</time>
      </trkpt>
      <trkpt lat="43.98957" lon="7.23139">
        <ele>1435</ele>
        <time>2016-05-15T08:01:26.000Z</time>
      </trkpt>
      <trkpt lat="43.98952" lon="7.23144">
        <ele>1435</ele>
        <time>2016-05-15T08:01:31.000Z</time>
      </trkpt>
      <trkpt lat="43.98948" lon="7.23146">
        <ele>1435</ele>
        <time>2016-05-15T08:01:34.000Z</time>
      </trkpt>
      <trkpt lat="43.98946" lon="7.23145">
        <ele>1434</ele>
        <time>2016-05-15T08:01:35.000Z</time>
      </trkpt>
      <trkpt lat="43.98944" lon="7.23146">
        <ele>1434</ele>
        <time>2016-05-15T08:01:36.000Z</time>
      </trkpt>
      <trkpt lat="43.98942" lon="7.23146">
        <ele>1434</ele>
        <time>2016-05-15T08:01:38.000Z</time>
      </trkpt>
      <trkpt lat="43.98941" lon="7.23144">
        <ele>1434</ele>
        <time>2016-05-15T08:01:39.000Z</time>
      </trkpt>
      <trkpt lat="43.98941" lon="7.23145">
        <ele>1434</ele>
        <time>2016-05-15T08:01:40.000Z</time>
      </trkpt>
      <trkpt lat="43.98939" lon="7.23144">
        <ele>1433</ele>
        <time>2016-05-15T08:01:41.000Z</time>
      </trkpt>
      <trkpt lat="43.98935" lon="7.23145">
        <ele>1433</ele>
        <time>2016-05-15T08:01:43.000Z</time>
      </trkpt>
      <trkpt lat="43.98933" lon="7.23145">
        <ele>1433</ele>
        <time>2016-05-15T08:01:44.000Z</time>
      </trkpt>
      <trkpt lat="43.98929" lon="7.23147">
        <ele>1433</ele>
        <time>2016-05-15T08:01:46.000Z</time>
      </trkpt>
      <trkpt lat="43.98928" lon="7.2315">
        <ele>1433</ele>
        <time>2016-05-15T08:01:47.000Z</time>
      </trkpt>
      <trkpt lat="43.98926" lon="7.23151">
        <ele>1433</ele>
        <time>2016-05-15T08:01:48.000Z</time>
      </trkpt>
      <trkpt lat="43.98916" lon="7.23154">
        <ele>1423</ele>
        <time>2016-05-15T08:01:51.000Z</time>
      </trkpt>
      <trkpt lat="43.98907" lon="7.23156">
        <ele>1422</ele>
        <time>2016-05-15T08:01:54.000Z</time>
      </trkpt>
      <trkpt lat="43.98904" lon="7.23156">
        <ele>1420</ele>
        <time>2016-05-15T08:01:55.000Z</time>
      </trkpt>
      <trkpt lat="43.98902" lon="7.23156">
        <ele>1420</ele>
        <time>2016-05-15T08:01:56.000Z</time>
      </trkpt>
      <trkpt lat="43.989" lon="7.23154">
        <ele>1418</ele>
        <time>2016-05-15T08:01:57.000Z</time>
      </trkpt>
      <trkpt lat="43.98895" lon="7.23152">
        <ele>1416</ele>
        <time>2016-05-15T08:01:59.000Z</time>
      </trkpt>
      <trkpt lat="43.98888" lon="7.23148">
        <ele>1413</ele>
        <time>2016-05-15T08:02:02.000Z</time>
      </trkpt>
      <trkpt lat="43.98885" lon="7.23149">
        <ele>1413</ele>
        <time>2016-05-15T08:02:03.000Z</time>
      </trkpt>
      <trkpt lat="43.98874" lon="7.23154">
        <ele>1411</ele>
        <time>2016-05-15T08:02:07.000Z</time>
      </trkpt>
      <trkpt lat="43.98871" lon="7.23155">
        <ele>1410</ele>
        <time>2016-05-15T08:02:08.000Z</time>
      </trkpt>
      <trkpt lat="43.9886" lon="7.23156">
        <ele>1408</ele>
        <time>2016-05-15T08:02:12.000Z</time>
      </trkpt>
      <trkpt lat="43.98854" lon="7.23158">
        <ele>1407</ele>
        <time>2016-05-15T08:02:14.000Z</time>
      </trkpt>
      <trkpt lat="43.98853" lon="7.23157">
        <ele>1407</ele>
        <time>2016-05-15T08:02:15.000Z</time>
      </trkpt>
      <trkpt lat="43.98852" lon="7.23156">
        <ele>1407</ele>
        <time>2016-05-15T08:02:16.000Z</time>
      </trkpt>
      <trkpt lat="43.98853" lon="7.23155">
        <ele>1407</ele>
        <time>2016-05-15T08:02:17.000Z</time>
      </trkpt>
      <trkpt lat="43.98854" lon="7.23154">
        <ele>1407</ele>
        <time>2016-05-15T08:02:18.000Z</time>
      </trkpt>
      <trkpt lat="43.98855" lon="7.23151">
        <ele>1407</ele>
        <time>2016-05-15T08:02:21.000Z</time>
      </trkpt>
      <trkpt lat="43.98852" lon="7.2315">
        <ele>1407</ele>
        <time>2016-05-15T08:02:22.000Z</time>
      </trkpt>
      <trkpt lat="43.98847" lon="7.2315">
        <ele>1406</ele>
        <time>2016-05-15T08:02:25.000Z</time>
      </trkpt>
      <trkpt lat="43.98844" lon="7.23148">
        <ele>1406</ele>
        <time>2016-05-15T08:02:27.000Z</time>
      </trkpt>
      <trkpt lat="43.98841" lon="7.2315">
        <ele>1406</ele>
        <time>2016-05-15T08:02:29.000Z</time>
      </trkpt>
      <trkpt lat="43.98839" lon="7.23151">
        <ele>1406</ele>
        <time>2016-05-15T08:02:30.000Z</time>
      </trkpt>
      <trkpt lat="43.98835" lon="7.23158">
        <ele>1406</ele>
        <time>2016-05-15T08:02:33.000Z</time>
      </trkpt>
      <trkpt lat="43.98833" lon="7.23159">
        <ele>1399</ele>
        <time>2016-05-15T08:02:34.000Z</time>
      </trkpt>
      <trkpt lat="43.98831" lon="7.23161">
        <ele>1400</ele>
        <time>2016-05-15T08:02:35.000Z</time>
      </trkpt>
      <trkpt lat="43.98828" lon="7.23163">
        <ele>1400</ele>
        <time>2016-05-15T08:02:37.000Z</time>
      </trkpt>
      <trkpt lat="43.98827" lon="7.23163">
        <ele>1399</ele>
        <time>2016-05-15T08:02:38.000Z</time>
      </trkpt>
      <trkpt lat="43.98825" lon="7.23164">
        <ele>1398</ele>
        <time>2016-05-15T08:02:40.000Z</time>
      </trkpt>
      <trkpt lat="43.98821" lon="7.23166">
        <ele>1395</ele>
        <time>2016-05-15T08:02:42.000Z</time>
      </trkpt>
      <trkpt lat="43.98816" lon="7.23171">
        <ele>1396</ele>
        <time>2016-05-15T08:02:44.000Z</time>
      </trkpt>
      <trkpt lat="43.98813" lon="7.23167">
        <ele>1395</ele>
        <time>2016-05-15T08:02:46.000Z</time>
      </trkpt>
      <trkpt lat="43.98814" lon="7.23164">
        <ele>1391</ele>
        <time>2016-05-15T08:02:47.000Z</time>
      </trkpt>
      <trkpt lat="43.98815" lon="7.23162">
        <ele>1392</ele>
        <time>2016-05-15T08:02:49.000Z</time>
      </trkpt>
      <trkpt lat="43.98815" lon="7.23161">
        <ele>1391</ele>
        <time>2016-05-15T08:02:50.000Z</time>
      </trkpt>
      <trkpt lat="43.98814" lon="7.2316">
        <ele>1391</ele>
        <time>2016-05-15T08:02:52.000Z</time>
      </trkpt>
      <trkpt lat="43.98812" lon="7.2316">
        <ele>1390</ele>
        <time>2016-05-15T08:02:53.000Z</time>
      </trkpt>
      <trkpt lat="43.98811" lon="7.2316">
        <ele>1389</ele>
        <time>2016-05-15T08:02:54.000Z</time>
      </trkpt>
      <trkpt lat="43.9881" lon="7.23158">
        <ele>1389</ele>
        <time>2016-05-15T08:02:58.000Z</time>
      </trkpt>
      <trkpt lat="43.98805" lon="7.23157">
        <ele>1387</ele>
        <time>2016-05-15T08:03:03.000Z</time>
      </trkpt>
      <trkpt lat="43.98803" lon="7.23157">
        <ele>1386</ele>
        <time>2016-05-15T08:03:07.000Z</time>
      </trkpt>
      <trkpt lat="43.98801" lon="7.23157">
        <ele>1385</ele>
        <time>2016-05-15T08:03:09.000Z</time>
      </trkpt>
      <trkpt lat="43.988" lon="7.23157">
        <ele>1385</ele>
        <time>2016-05-15T08:03:13.000Z</time>
      </trkpt>
      <trkpt lat="43.98799" lon="7.23156">
        <ele>1385</ele>
        <time>2016-05-15T08:03:15.000Z</time>
      </trkpt>
      <trkpt lat="43.98798" lon="7.23153">
        <ele>1384</ele>
        <time>2016-05-15T08:03:16.000Z</time>
      </trkpt>
      <trkpt lat="43.98798" lon="7.23153">
        <ele>1384</ele>
        <time>2016-05-15T08:03:17.000Z</time>
      </trkpt>
      <trkpt lat="43.98798" lon="7.23152">
        <ele>1384</ele>
        <time>2016-05-15T08:03:20.000Z</time>
      </trkpt>
      <trkpt lat="43.98797" lon="7.23148">
        <ele>1383</ele>
        <time>2016-05-15T08:03:22.000Z</time>
      </trkpt>
      <trkpt lat="43.98796" lon="7.23146">
        <ele>1382</ele>
        <time>2016-05-15T08:03:26.000Z</time>
      </trkpt>
      <trkpt lat="43.98792" lon="7.23149">
        <ele>1382</ele>
        <time>2016-05-15T08:03:31.000Z</time>
      </trkpt>
      <trkpt lat="43.98792" lon="7.23149">
        <ele>1382</ele>
        <time>2016-05-15T08:03:34.000Z</time>
      </trkpt>
      <trkpt lat="43.98791" lon="7.23148">
        <ele>1382</ele>
        <time>2016-05-15T08:03:38.000Z</time>
      </trkpt>
      <trkpt lat="43.98789" lon="7.23145">
        <ele>1381</ele>
        <time>2016-05-15T08:03:42.000Z</time>
      </trkpt>
      <trkpt lat="43.9879" lon="7.23144">
        <ele>1381</ele>
        <time>2016-05-15T08:03:43.000Z</time>
      </trkpt>
      <trkpt lat="43.9879" lon="7.23143">
        <ele>1381</ele>
        <time>2016-05-15T08:03:46.000Z</time>
      </trkpt>
      <trkpt lat="43.9879" lon="7.2314">
        <ele>1380</ele>
        <time>2016-05-15T08:03:48.000Z</time>
      </trkpt>
      <trkpt lat="43.9879" lon="7.23139">
        <ele>1380</ele>
        <time>2016-05-15T08:03:52.000Z</time>
      </trkpt>
      <trkpt lat="43.98791" lon="7.23137">
        <ele>1380</ele>
        <time>2016-05-15T08:03:54.000Z</time>
      </trkpt>
      <trkpt lat="43.98792" lon="7.23133">
        <ele>1380</ele>
        <time>2016-05-15T08:03:58.000Z</time>
      </trkpt>
      <trkpt lat="43.98792" lon="7.23133">
        <ele>1380</ele>
        <time>2016-05-15T08:03:59.000Z</time>
      </trkpt>
      <trkpt lat="43.98791" lon="7.23134">
        <ele>1380</ele>
        <time>2016-05-15T08:04:02.000Z</time>
      </trkpt>
      <trkpt lat="43.98792" lon="7.23134">
        <ele>1380</ele>
        <time>2016-05-15T08:04:03.000Z</time>
      </trkpt>
      <trkpt lat="43.98791" lon="7.23132">
        <ele>1379</ele>
        <time>2016-05-15T08:04:08.000Z</time>
      </trkpt>
      <trkpt lat="43.98787" lon="7.23132">
        <ele>1379</ele>
        <time>2016-05-15T08:04:10.000Z</time>
      </trkpt>
      <trkpt lat="43.98785" lon="7.23133">
        <ele>1378</ele>
        <time>2016-05-15T08:04:11.000Z</time>
      </trkpt>
      <trkpt lat="43.98781" lon="7.23136">
        <ele>1378</ele>
        <time>2016-05-15T08:04:15.000Z</time>
      </trkpt>
      <trkpt lat="43.9878" lon="7.23136">
        <ele>1378</ele>
        <time>2016-05-15T08:04:16.000Z</time>
      </trkpt>
      <trkpt lat="43.98779" lon="7.23138">
        <ele>1378</ele>
        <time>2016-05-15T08:04:18.000Z</time>
      </trkpt>
      <trkpt lat="43.98777" lon="7.23139">
        <ele>1378</ele>
        <time>2016-05-15T08:04:20.000Z</time>
      </trkpt>
      <trkpt lat="43.98774" lon="7.23139">
        <ele>1378</ele>
        <time>2016-05-15T08:04:22.000Z</time>
      </trkpt>
      <trkpt lat="43.98772" lon="7.23139">
        <ele>1377</ele>
        <time>2016-05-15T08:04:24.000Z</time>
      </trkpt>
      <trkpt lat="43.98771" lon="7.23139">
        <ele>1377</ele>
        <time>2016-05-15T08:04:25.000Z</time>
      </trkpt>
      <trkpt lat="43.98768" lon="7.2314">
        <ele>1377</ele>
        <time>2016-05-15T08:04:26.000Z</time>
      </trkpt>
      <trkpt lat="43.98765" lon="7.23141">
        <ele>1377</ele>
        <time>2016-05-15T08:04:28.000Z</time>
      </trkpt>
      <trkpt lat="43.98762" lon="7.23144">
        <ele>1377</ele>
        <time>2016-05-15T08:04:30.000Z</time>
      </trkpt>
      <trkpt lat="43.98755" lon="7.23148">
        <ele>1377</ele>
        <time>2016-05-15T08:04:34.000Z</time>
      </trkpt>
      <trkpt lat="43.98751" lon="7.23149">
        <ele>1377</ele>
        <time>2016-05-15T08:04:36.000Z</time>
      </trkpt>
      <trkpt lat="43.98747" lon="7.23154">
        <ele>1366</ele>
        <time>2016-05-15T08:04:38.000Z</time>
      </trkpt>
      <trkpt lat="43.98741" lon="7.23159">
        <ele>1367</ele>
        <time>2016-05-15T08:04:40.000Z</time>
      </trkpt>
      <trkpt lat="43.98738" lon="7.23161">
        <ele>1366</ele>
        <time>2016-05-15T08:04:41.000Z</time>
      </trkpt>
      <trkpt lat="43.98731" lon="7.23167">
        <ele>1369</ele>
        <time>2016-05-15T08:04:44.000Z</time>
      </trkpt>
      <trkpt lat="43.98729" lon="7.2317">
        <ele>1369</ele>
        <time>2016-05-15T08:04:45.000Z</time>
      </trkpt>
      <trkpt lat="43.98719" lon="7.23173">
        <ele>1366</ele>
        <time>2016-05-15T08:04:48.000Z</time>
      </trkpt>
      <trkpt lat="43.98717" lon="7.23175">
        <ele>1365</ele>
        <time>2016-05-15T08:04:49.000Z</time>
      </trkpt>
      <trkpt lat="43.98715" lon="7.23178">
        <ele>1365</ele>
        <time>2016-05-15T08:04:50.000Z</time>
      </trkpt>
      <trkpt lat="43.98711" lon="7.23181">
        <ele>1364</ele>
        <time>2016-05-15T08:04:52.000Z</time>
      </trkpt>
      <trkpt lat="43.9871" lon="7.23182">
        <ele>1364</ele>
        <time>2016-05-15T08:04:53.000Z</time>
      </trkpt>
      <trkpt lat="43.98708" lon="7.23188">
        <ele>1363</ele>
        <time>2016-05-15T08:04:55.000Z</time>
      </trkpt>
      <trkpt lat="43.98704" lon="7.23194">
        <ele>1362</ele>
        <time>2016-05-15T08:04:57.000Z</time>
      </trkpt>
      <trkpt lat="43.98697" lon="7.23196">
        <ele>1362</ele>
        <time>2016-05-15T08:04:59.000Z</time>
      </trkpt>
      <trkpt lat="43.98692" lon="7.23198">
        <ele>1361</ele>
        <time>2016-05-15T08:05:00.000Z</time>
      </trkpt>
      <trkpt lat="43.98687" lon="7.23201">
        <ele>1360</ele>
        <time>2016-05-15T08:05:01.000Z</time>
      </trkpt>
      <trkpt lat="43.98682" lon="7.23203">
        <ele>1360</ele>
        <time>2016-05-15T08:05:02.000Z</time>
      </trkpt>
      <trkpt lat="43.98677" lon="7.23204">
        <ele>1360</ele>
        <time>2016-05-15T08:05:03.000Z</time>
      </trkpt>
      <trkpt lat="43.98673" lon="7.23206">
        <ele>1359</ele>
        <time>2016-05-15T08:05:04.000Z</time>
      </trkpt>
      <trkpt lat="43.98663" lon="7.23209">
        <ele>1351</ele>
        <time>2016-05-15T08:05:06.000Z</time>
      </trkpt>
      <trkpt lat="43.98659" lon="7.23211">
        <ele>1351</ele>
        <time>2016-05-15T08:05:07.000Z</time>
      </trkpt>
      <trkpt lat="43.98652" lon="7.23213">
        <ele>1351</ele>
        <time>2016-05-15T08:05:09.000Z</time>
      </trkpt>
      <trkpt lat="43.98642" lon="7.23217">
        <ele>1350</ele>
        <time>2016-05-15T08:05:13.000Z</time>
      </trkpt>
      <trkpt lat="43.98638" lon="7.23219">
        <ele>1350</ele>
        <time>2016-05-15T08:05:15.000Z</time>
      </trkpt>
      <trkpt lat="43.98627" lon="7.23224">
        <ele>1350</ele>
        <time>2016-05-15T08:05:19.000Z</time>
      </trkpt>
      <trkpt lat="43.98617" lon="7.23228">
        <ele>1350</ele>
        <time>2016-05-15T08:05:23.000Z</time>
      </trkpt>
      <trkpt lat="43.98611" lon="7.23232">
        <ele>1350</ele>
        <time>2016-05-15T08:05:25.000Z</time>
      </trkpt>
      <trkpt lat="43.98603" lon="7.23235">
        <ele>1351</ele>
        <time>2016-05-15T08:05:29.000Z</time>
      </trkpt>
      <trkpt lat="43.986" lon="7.23236">
        <ele>1351</ele>
        <time>2016-05-15T08:05:31.000Z</time>
      </trkpt>
      <trkpt lat="43.986" lon="7.23237">
        <ele>1351</ele>
        <time>2016-05-15T08:05:34.000Z</time>
      </trkpt>
      <trkpt lat="43.98599" lon="7.23237">
        <ele>1351</ele>
        <time>2016-05-15T08:05:35.000Z</time>
      </trkpt>
      <trkpt lat="43.98598" lon="7.23238">
        <ele>1351</ele>
        <time>2016-05-15T08:05:41.000Z</time>
      </trkpt>
      <trkpt lat="43.98596" lon="7.23239">
        <ele>1351</ele>
        <time>2016-05-15T08:05:44.000Z</time>
      </trkpt>
      <trkpt lat="43.98594" lon="7.23239">
        <ele>1351</ele>
        <time>2016-05-15T08:05:46.000Z</time>
      </trkpt>
      <trkpt lat="43.98591" lon="7.2324">
        <ele>1352</ele>
        <time>2016-05-15T08:05:49.000Z</time>
      </trkpt>
      <trkpt lat="43.98589" lon="7.23242">
        <ele>1352</ele>
        <time>2016-05-15T08:05:50.000Z</time>
      </trkpt>
      <trkpt lat="43.98579" lon="7.23255">
        <ele>1354</ele>
        <time>2016-05-15T08:05:53.000Z</time>
      </trkpt>
      <trkpt lat="43.98576" lon="7.23256">
        <ele>1354</ele>
        <time>2016-05-15T08:05:54.000Z</time>
      </trkpt>
      <trkpt lat="43.98573" lon="7.23259">
        <ele>1355</ele>
        <time>2016-05-15T08:05:56.000Z</time>
      </trkpt>
      <trkpt lat="43.98564" lon="7.23271">
        <ele>1355</ele>
        <time>2016-05-15T08:06:00.000Z</time>
      </trkpt>
      <trkpt lat="43.9855" lon="7.23281">
        <ele>1356</ele>
        <time>2016-05-15T08:06:03.000Z</time>
      </trkpt>
      <trkpt lat="43.98545" lon="7.23284">
        <ele>1356</ele>
        <time>2016-05-15T08:06:04.000Z</time>
      </trkpt>
      <trkpt lat="43.98533" lon="7.233">
        <ele>1357</ele>
        <time>2016-05-15T08:06:09.000Z</time>
      </trkpt>
      <trkpt lat="43.98529" lon="7.23314">
        <ele>1357</ele>
        <time>2016-05-15T08:06:14.000Z</time>
      </trkpt>
      <trkpt lat="43.98524" lon="7.23325">
        <ele>1359</ele>
        <time>2016-05-15T08:06:17.000Z</time>
      </trkpt>
      <trkpt lat="43.9852" lon="7.2333">
        <ele>1360</ele>
        <time>2016-05-15T08:06:19.000Z</time>
      </trkpt>
      <trkpt lat="43.98514" lon="7.23335">
        <ele>1358</ele>
        <time>2016-05-15T08:06:21.000Z</time>
      </trkpt>
      <trkpt lat="43.98505" lon="7.23343">
        <ele>1360</ele>
        <time>2016-05-15T08:06:25.000Z</time>
      </trkpt>
      <trkpt lat="43.98492" lon="7.23353">
        <ele>1371</ele>
        <time>2016-05-15T08:06:29.000Z</time>
      </trkpt>
      <trkpt lat="43.98486" lon="7.2336">
        <ele>1372</ele>
        <time>2016-05-15T08:06:33.000Z</time>
      </trkpt>
      <trkpt lat="43.98486" lon="7.23361">
        <ele>1372</ele>
        <time>2016-05-15T08:06:34.000Z</time>
      </trkpt>
      <trkpt lat="43.98484" lon="7.23363">
        <ele>1373</ele>
        <time>2016-05-15T08:06:36.000Z</time>
      </trkpt>
      <trkpt lat="43.98483" lon="7.23364">
        <ele>1373</ele>
        <time>2016-05-15T08:06:37.000Z</time>
      </trkpt>
      <trkpt lat="43.98481" lon="7.23367">
        <ele>1373</ele>
        <time>2016-05-15T08:06:39.000Z</time>
      </trkpt>
      <trkpt lat="43.9848" lon="7.23369">
        <ele>1373</ele>
        <time>2016-05-15T08:06:42.000Z</time>
      </trkpt>
      <trkpt lat="43.9848" lon="7.23369">
        <ele>1373</ele>
        <time>2016-05-15T08:06:43.000Z</time>
      </trkpt>
      <trkpt lat="43.98479" lon="7.23375">
        <ele>1373</ele>
        <time>2016-05-15T08:06:47.000Z</time>
      </trkpt>
      <trkpt lat="43.98477" lon="7.23378">
        <ele>1373</ele>
        <time>2016-05-15T08:06:50.000Z</time>
      </trkpt>
      <trkpt lat="43.98473" lon="7.23382">
        <ele>1373</ele>
        <time>2016-05-15T08:06:54.000Z</time>
      </trkpt>
      <trkpt lat="43.98473" lon="7.23383">
        <ele>1373</ele>
        <time>2016-05-15T08:06:57.000Z</time>
      </trkpt>
      <trkpt lat="43.9847" lon="7.23385">
        <ele>1374</ele>
        <time>2016-05-15T08:07:00.000Z</time>
      </trkpt>
      <trkpt lat="43.98467" lon="7.23389">
        <ele>1374</ele>
        <time>2016-05-15T08:07:04.000Z</time>
      </trkpt>
      <trkpt lat="43.98466" lon="7.23391">
        <ele>1374</ele>
        <time>2016-05-15T08:07:06.000Z</time>
      </trkpt>
      <trkpt lat="43.98464" lon="7.23392">
        <ele>1374</ele>
        <time>2016-05-15T08:07:08.000Z</time>
      </trkpt>
      <trkpt lat="43.98464" lon="7.23394">
        <ele>1374</ele>
        <time>2016-05-15T08:07:10.000Z</time>
      </trkpt>
      <trkpt lat="43.98464" lon="7.23393">
        <ele>1374</ele>
        <time>2016-05-15T08:07:11.000Z</time>
      </trkpt>
      <trkpt lat="43.98462" lon="7.23397">
        <ele>1375</ele>
        <time>2016-05-15T08:07:15.000Z</time>
      </trkpt>
      <trkpt lat="43.9846" lon="7.23399">
        <ele>1375</ele>
        <time>2016-05-15T08:07:18.000Z</time>
      </trkpt>
      <trkpt lat="43.98459" lon="7.23402">
        <ele>1375</ele>
        <time>2016-05-15T08:07:21.000Z</time>
      </trkpt>
      <trkpt lat="43.98458" lon="7.23403">
        <ele>1375</ele>
        <time>2016-05-15T08:07:24.000Z</time>
      </trkpt>
      <trkpt lat="43.98455" lon="7.23406">
        <ele>1376</ele>
        <time>2016-05-15T08:07:26.000Z</time>
      </trkpt>
      <trkpt lat="43.98452" lon="7.23411">
        <ele>1377</ele>
        <time>2016-05-15T08:07:30.000Z</time>
      </trkpt>
      <trkpt lat="43.98452" lon="7.23412">
        <ele>1377</ele>
        <time>2016-05-15T08:07:31.000Z</time>
      </trkpt>
      <trkpt lat="43.98451" lon="7.23412">
        <ele>1377</ele>
        <time>2016-05-15T08:07:32.000Z</time>
      </trkpt>
      <trkpt lat="43.98451" lon="7.23413">
        <ele>1377</ele>
        <time>2016-05-15T08:07:35.000Z</time>
      </trkpt>
      <trkpt lat="43.98449" lon="7.23418">
        <ele>1371</ele>
        <time>2016-05-15T08:07:39.000Z</time>
      </trkpt>
      <trkpt lat="43.98449" lon="7.2342">
        <ele>1371</ele>
        <time>2016-05-15T08:07:40.000Z</time>
      </trkpt>
      <trkpt lat="43.98448" lon="7.2342">
        <ele>1371</ele>
        <time>2016-05-15T08:07:41.000Z</time>
      </trkpt>
      <trkpt lat="43.98444" lon="7.23427">
        <ele>1372</ele>
        <time>2016-05-15T08:07:45.000Z</time>
      </trkpt>
      <trkpt lat="43.98442" lon="7.2343">
        <ele>1372</ele>
        <time>2016-05-15T08:07:47.000Z</time>
      </trkpt>
      <trkpt lat="43.98439" lon="7.23436">
        <ele>1372</ele>
        <time>2016-05-15T08:07:51.000Z</time>
      </trkpt>
      <trkpt lat="43.98435" lon="7.23443">
        <ele>1372</ele>
        <time>2016-05-15T08:07:55.000Z</time>
      </trkpt>
      <trkpt lat="43.98435" lon="7.23444">
        <ele>1371</ele>
        <time>2016-05-15T08:07:56.000Z</time>
      </trkpt>
      <trkpt lat="43.98433" lon="7.23451">
        <ele>1371</ele>
        <time>2016-05-15T08:07:59.000Z</time>
      </trkpt>
      <trkpt lat="43.98431" lon="7.23454">
        <ele>1370</ele>
        <time>2016-05-15T08:08:01.000Z</time>
      </trkpt>
      <trkpt lat="43.98424" lon="7.23462">
        <ele>1370</ele>
        <time>2016-05-15T08:08:07.000Z</time>
      </trkpt>
      <trkpt lat="43.98423" lon="7.23464">
        <ele>1370</ele>
        <time>2016-05-15T08:08:08.000Z</time>
      </trkpt>
      <trkpt lat="43.98412" lon="7.23472">
        <ele>1385</ele>
        <time>2016-05-15T08:08:13.000Z</time>
      </trkpt>
      <trkpt lat="43.98399" lon="7.23477">
        <ele>1385</ele>
        <time>2016-05-15T08:08:16.000Z</time>
      </trkpt>
      <trkpt lat="43.98387" lon="7.23485">
        <ele>1387</ele>
        <time>2016-05-15T08:08:20.000Z</time>
      </trkpt>
      <trkpt lat="43.98368" lon="7.23501">
        <ele>1376</ele>
        <time>2016-05-15T08:08:26.000Z</time>
      </trkpt>
      <trkpt lat="43.98355" lon="7.23513">
        <ele>1378</ele>
        <time>2016-05-15T08:08:31.000Z</time>
      </trkpt>
      <trkpt lat="43.98339" lon="7.23527">
        <ele>1377</ele>
        <time>2016-05-15T08:08:36.000Z</time>
      </trkpt>
      <trkpt lat="43.98323" lon="7.23537">
        <ele>1385</ele>
        <time>2016-05-15T08:08:41.000Z</time>
      </trkpt>
      <trkpt lat="43.9831" lon="7.23542">
        <ele>1385</ele>
        <time>2016-05-15T08:08:44.000Z</time>
      </trkpt>
      <trkpt lat="43.98299" lon="7.23547">
        <ele>1385</ele>
        <time>2016-05-15T08:08:46.000Z</time>
      </trkpt>
      <trkpt lat="43.98279" lon="7.2356">
        <ele>1384</ele>
        <time>2016-05-15T08:08:51.000Z</time>
      </trkpt>
      <trkpt lat="43.98273" lon="7.23563">
        <ele>1384</ele>
        <time>2016-05-15T08:08:52.000Z</time>
      </trkpt>
      <trkpt lat="43.98264" lon="7.23569">
        <ele>1383</ele>
        <time>2016-05-15T08:08:54.000Z</time>
      </trkpt>
      <trkpt lat="43.98246" lon="7.23581">
        <ele>1381</ele>
        <time>2016-05-15T08:08:59.000Z</time>
      </trkpt>
      <trkpt lat="43.98231" lon="7.23588">
        <ele>1372</ele>
        <time>2016-05-15T08:09:03.000Z</time>
      </trkpt>
      <trkpt lat="43.98221" lon="7.23593">
        <ele>1370</ele>
        <time>2016-05-15T08:09:07.000Z</time>
      </trkpt>
      <trkpt lat="43.98221" lon="7.23593">
        <ele>1370</ele>
        <time>2016-05-15T08:09:08.000Z</time>
      </trkpt>
      <trkpt lat="43.98214" lon="7.23595">
        <ele>1370</ele>
        <time>2016-05-15T08:09:10.000Z</time>
      </trkpt>
      <trkpt lat="43.98206" lon="7.23596">
        <ele>1370</ele>
        <time>2016-05-15T08:09:14.000Z</time>
      </trkpt>
      <trkpt lat="43.98203" lon="7.23595">
        <ele>1370</ele>
        <time>2016-05-15T08:09:15.000Z</time>
      </trkpt>
      <trkpt lat="43.98192" lon="7.23595">
        <ele>1372</ele>
        <time>2016-05-15T08:09:20.000Z</time>
      </trkpt>
      <trkpt lat="43.9819" lon="7.23594">
        <ele>1372</ele>
        <time>2016-05-15T08:09:21.000Z</time>
      </trkpt>
      <trkpt lat="43.98185" lon="7.23592">
        <ele>1374</ele>
        <time>2016-05-15T08:09:24.000Z</time>
      </trkpt>
      <trkpt lat="43.98177" lon="7.23587">
        <ele>1377</ele>
        <time>2016-05-15T08:09:28.000Z</time>
      </trkpt>
      <trkpt lat="43.98173" lon="7.23582">
        <ele>1386</ele>
        <time>2016-05-15T08:09:30.000Z</time>
      </trkpt>
      <trkpt lat="43.98164" lon="7.23573">
        <ele>1386</ele>
        <time>2016-05-15T08:09:34.000Z</time>
      </trkpt>
      <trkpt lat="43.98154" lon="7.23567">
        <ele>1387</ele>
        <time>2016-05-15T08:09:38.000Z</time>
      </trkpt>
      <trkpt lat="43.98152" lon="7.23568">
        <ele>1387</ele>
        <time>2016-05-15T08:09:39.000Z</time>
      </trkpt>
      <trkpt lat="43.98126" lon="7.23563">
        <ele>1386</ele>
        <time>2016-05-15T08:09:48.000Z</time>
      </trkpt>
      <trkpt lat="43.98118" lon="7.23559">
        <ele>1386</ele>
        <time>2016-05-15T08:09:51.000Z</time>
      </trkpt>
      <trkpt lat="43.98114" lon="7.23556">
        <ele>1386</ele>
        <time>2016-05-15T08:09:53.000Z</time>
      </trkpt>
      <trkpt lat="43.98102" lon="7.23551">
        <ele>1386</ele>
        <time>2016-05-15T08:09:58.000Z</time>
      </trkpt>
      <trkpt lat="43.98099" lon="7.2355">
        <ele>1386</ele>
        <time>2016-05-15T08:09:59.000Z</time>
      </trkpt>
      <trkpt lat="43.98082" lon="7.23539">
        <ele>1377</ele>
        <time>2016-05-15T08:10:06.000Z</time>
      </trkpt>
      <trkpt lat="43.98066" lon="7.2352">
        <ele>1381</ele>
        <time>2016-05-15T08:10:13.000Z</time>
      </trkpt>
      <trkpt lat="43.98055" lon="7.2351">
        <ele>1380</ele>
        <time>2016-05-15T08:10:18.000Z</time>
      </trkpt>
      <trkpt lat="43.98045" lon="7.235">
        <ele>1378</ele>
        <time>2016-05-15T08:10:23.000Z</time>
      </trkpt>
      <trkpt lat="43.98035" lon="7.23491">
        <ele>1392</ele>
        <time>2016-05-15T08:10:29.000Z</time>
      </trkpt>
      <trkpt lat="43.98034" lon="7.23491">
        <ele>1392</ele>
        <time>2016-05-15T08:10:30.000Z</time>
      </trkpt>
      <trkpt lat="43.98031" lon="7.2349">
        <ele>1391</ele>
        <time>2016-05-15T08:10:31.000Z</time>
      </trkpt>
      <trkpt lat="43.98028" lon="7.23488">
        <ele>1391</ele>
        <time>2016-05-15T08:10:33.000Z</time>
      </trkpt>
      <trkpt lat="43.98017" lon="7.23481">
        <ele>1390</ele>
        <time>2016-05-15T08:10:38.000Z</time>
      </trkpt>
      <trkpt lat="43.98005" lon="7.23471">
        <ele>1391</ele>
        <time>2016-05-15T08:10:44.000Z</time>
      </trkpt>
      <trkpt lat="43.98" lon="7.23469">
        <ele>1385</ele>
        <time>2016-05-15T08:10:46.000Z</time>
      </trkpt>
      <trkpt lat="43.97989" lon="7.23463">
        <ele>1386</ele>
        <time>2016-05-15T08:10:50.000Z</time>
      </trkpt>
      <trkpt lat="43.97985" lon="7.23458">
        <ele>1387</ele>
        <time>2016-05-15T08:10:53.000Z</time>
      </trkpt>
      <trkpt lat="43.97983" lon="7.23456">
        <ele>1387</ele>
        <time>2016-05-15T08:10:54.000Z</time>
      </trkpt>
      <trkpt lat="43.9798" lon="7.23452">
        <ele>1388</ele>
        <time>2016-05-15T08:10:57.000Z</time>
      </trkpt>
      <trkpt lat="43.97976" lon="7.23448">
        <ele>1388</ele>
        <time>2016-05-15T08:11:00.000Z</time>
      </trkpt>
      <trkpt lat="43.97975" lon="7.23446">
        <ele>1389</ele>
        <time>2016-05-15T08:11:01.000Z</time>
      </trkpt>
      <trkpt lat="43.97971" lon="7.23441">
        <ele>1389</ele>
        <time>2016-05-15T08:11:04.000Z</time>
      </trkpt>
      <trkpt lat="43.97969" lon="7.2344">
        <ele>1389</ele>
        <time>2016-05-15T08:11:05.000Z</time>
      </trkpt>
      <trkpt lat="43.9796" lon="7.23437">
        <ele>1389</ele>
        <time>2016-05-15T08:11:09.000Z</time>
      </trkpt>
      <trkpt lat="43.97949" lon="7.23433">
        <ele>1388</ele>
        <time>2016-05-15T08:11:14.000Z</time>
      </trkpt>
      <trkpt lat="43.97944" lon="7.23432">
        <ele>1388</ele>
        <time>2016-05-15T08:11:16.000Z</time>
      </trkpt>
      <trkpt lat="43.97939" lon="7.23431">
        <ele>1389</ele>
        <time>2016-05-15T08:11:18.000Z</time>
      </trkpt>
      <trkpt lat="43.9793" lon="7.2343">
        <ele>1389</ele>
        <time>2016-05-15T08:11:23.000Z</time>
      </trkpt>
      <trkpt lat="43.9792" lon="7.23432">
        <ele>1389</ele>
        <time>2016-05-15T08:11:28.000Z</time>
      </trkpt>
      <trkpt lat="43.97914" lon="7.23431">
        <ele>1392</ele>
        <time>2016-05-15T08:11:32.000Z</time>
      </trkpt>
      <trkpt lat="43.97914" lon="7.23431">
        <ele>1392</ele>
        <time>2016-05-15T08:11:33.000Z</time>
      </trkpt>
      <trkpt lat="43.97905" lon="7.23434">
        <ele>1392</ele>
        <time>2016-05-15T08:11:37.000Z</time>
      </trkpt>
      <trkpt lat="43.97898" lon="7.23437">
        <ele>1392</ele>
        <time>2016-05-15T08:11:41.000Z</time>
      </trkpt>
      <trkpt lat="43.97896" lon="7.23438">
        <ele>1392</ele>
        <time>2016-05-15T08:11:42.000Z</time>
      </trkpt>
      <trkpt lat="43.97892" lon="7.23441">
        <ele>1391</ele>
        <time>2016-05-15T08:11:45.000Z</time>
      </trkpt>
      <trkpt lat="43.97882" lon="7.23447">
        <ele>1392</ele>
        <time>2016-05-15T08:11:49.000Z</time>
      </trkpt>
      <trkpt lat="43.97878" lon="7.23449">
        <ele>1392</ele>
        <time>2016-05-15T08:11:51.000Z</time>
      </trkpt>
      <trkpt lat="43.97876" lon="7.2345">
        <ele>1392</ele>
        <time>2016-05-15T08:11:53.000Z</time>
      </trkpt>
      <trkpt lat="43.97868" lon="7.23452">
        <ele>1393</ele>
        <time>2016-05-15T08:11:57.000Z</time>
      </trkpt>
      <trkpt lat="43.97866" lon="7.23453">
        <ele>1393</ele>
        <time>2016-05-15T08:11:58.000Z</time>
      </trkpt>
      <trkpt lat="43.97862" lon="7.23454">
        <ele>1393</ele>
        <time>2016-05-15T08:12:00.000Z</time>
      </trkpt>
      <trkpt lat="43.97856" lon="7.23458">
        <ele>1393</ele>
        <time>2016-05-15T08:12:04.000Z</time>
      </trkpt>
      <trkpt lat="43.97856" lon="7.23459">
        <ele>1393</ele>
        <time>2016-05-15T08:12:05.000Z</time>
      </trkpt>
      <trkpt lat="43.97854" lon="7.2346">
        <ele>1393</ele>
        <time>2016-05-15T08:12:06.000Z</time>
      </trkpt>
      <trkpt lat="43.97847" lon="7.23465">
        <ele>1393</ele>
        <time>2016-05-15T08:12:09.000Z</time>
      </trkpt>
      <trkpt lat="43.97841" lon="7.23469">
        <ele>1392</ele>
        <time>2016-05-15T08:12:13.000Z</time>
      </trkpt>
      <trkpt lat="43.97838" lon="7.23471">
        <ele>1392</ele>
        <time>2016-05-15T08:12:14.000Z</time>
      </trkpt>
      <trkpt lat="43.97828" lon="7.23477">
        <ele>1403</ele>
        <time>2016-05-15T08:12:17.000Z</time>
      </trkpt>
      <trkpt lat="43.97819" lon="7.23485">
        <ele>1402</ele>
        <time>2016-05-15T08:12:21.000Z</time>
      </trkpt>
      <trkpt lat="43.97815" lon="7.23486">
        <ele>1403</ele>
        <time>2016-05-15T08:12:22.000Z</time>
      </trkpt>
      <trkpt lat="43.97805" lon="7.2349">
        <ele>1405</ele>
        <time>2016-05-15T08:12:25.000Z</time>
      </trkpt>
      <trkpt lat="43.97788" lon="7.235">
        <ele>1394</ele>
        <time>2016-05-15T08:12:31.000Z</time>
      </trkpt>
      <trkpt lat="43.97783" lon="7.23501">
        <ele>1396</ele>
        <time>2016-05-15T08:12:32.000Z</time>
      </trkpt>
      <trkpt lat="43.97776" lon="7.23503">
        <ele>1398</ele>
        <time>2016-05-15T08:12:34.000Z</time>
      </trkpt>
      <trkpt lat="43.97762" lon="7.23514">
        <ele>1401</ele>
        <time>2016-05-15T08:12:39.000Z</time>
      </trkpt>
      <trkpt lat="43.97753" lon="7.23524">
        <ele>1399</ele>
        <time>2016-05-15T08:12:43.000Z</time>
      </trkpt>
      <trkpt lat="43.97751" lon="7.23527">
        <ele>1398</ele>
        <time>2016-05-15T08:12:44.000Z</time>
      </trkpt>
      <trkpt lat="43.97746" lon="7.23537">
        <ele>1417</ele>
        <time>2016-05-15T08:12:48.000Z</time>
      </trkpt>
      <trkpt lat="43.97744" lon="7.23539">
        <ele>1417</ele>
        <time>2016-05-15T08:12:49.000Z</time>
      </trkpt>
      <trkpt lat="43.97743" lon="7.23542">
        <ele>1417</ele>
        <time>2016-05-15T08:12:50.000Z</time>
      </trkpt>
      <trkpt lat="43.97742" lon="7.23545">
        <ele>1416</ele>
        <time>2016-05-15T08:12:52.000Z</time>
      </trkpt>
      <trkpt lat="43.97739" lon="7.2355">
        <ele>1416</ele>
        <time>2016-05-15T08:12:54.000Z</time>
      </trkpt>
      <trkpt lat="43.97738" lon="7.23553">
        <ele>1415</ele>
        <time>2016-05-15T08:12:56.000Z</time>
      </trkpt>
      <trkpt lat="43.97737" lon="7.23555">
        <ele>1415</ele>
        <time>2016-05-15T08:12:57.000Z</time>
      </trkpt>
      <trkpt lat="43.97735" lon="7.23561">
        <ele>1414</ele>
        <time>2016-05-15T08:13:00.000Z</time>
      </trkpt>
      <trkpt lat="43.97734" lon="7.23565">
        <ele>1413</ele>
        <time>2016-05-15T08:13:03.000Z</time>
      </trkpt>
      <trkpt lat="43.9773" lon="7.23572">
        <ele>1412</ele>
        <time>2016-05-15T08:13:07.000Z</time>
      </trkpt>
      <trkpt lat="43.9773" lon="7.23573">
        <ele>1412</ele>
        <time>2016-05-15T08:13:08.000Z</time>
      </trkpt>
      <trkpt lat="43.97726" lon="7.23581">
        <ele>1413</ele>
        <time>2016-05-15T08:13:12.000Z</time>
      </trkpt>
      <trkpt lat="43.97726" lon="7.23583">
        <ele>1413</ele>
        <time>2016-05-15T08:13:13.000Z</time>
      </trkpt>
      <trkpt lat="43.97722" lon="7.23587">
        <ele>1405</ele>
        <time>2016-05-15T08:13:17.000Z</time>
      </trkpt>
      <trkpt lat="43.97721" lon="7.23588">
        <ele>1405</ele>
        <time>2016-05-15T08:13:18.000Z</time>
      </trkpt>
      <trkpt lat="43.97719" lon="7.23594">
        <ele>1406</ele>
        <time>2016-05-15T08:13:22.000Z</time>
      </trkpt>
      <trkpt lat="43.97717" lon="7.23597">
        <ele>1407</ele>
        <time>2016-05-15T08:13:24.000Z</time>
      </trkpt>
      <trkpt lat="43.97715" lon="7.23601">
        <ele>1407</ele>
        <time>2016-05-15T08:13:27.000Z</time>
      </trkpt>
      <trkpt lat="43.97712" lon="7.23604">
        <ele>1408</ele>
        <time>2016-05-15T08:13:30.000Z</time>
      </trkpt>
      <trkpt lat="43.97711" lon="7.23606">
        <ele>1408</ele>
        <time>2016-05-15T08:13:31.000Z</time>
      </trkpt>
      <trkpt lat="43.97711" lon="7.23607">
        <ele>1408</ele>
        <time>2016-05-15T08:13:35.000Z</time>
      </trkpt>
      <trkpt lat="43.97711" lon="7.23608">
        <ele>1408</ele>
        <time>2016-05-15T08:13:36.000Z</time>
      </trkpt>
      <trkpt lat="43.97711" lon="7.23609">
        <ele>1408</ele>
        <time>2016-05-15T08:13:42.000Z</time>
      </trkpt>
      <trkpt lat="43.9771" lon="7.23612">
        <ele>1408</ele>
        <time>2016-05-15T08:13:47.000Z</time>
      </trkpt>
      <trkpt lat="43.97709" lon="7.23614">
        <ele>1408</ele>
        <time>2016-05-15T08:13:49.000Z</time>
      </trkpt>
      <trkpt lat="43.97705" lon="7.2362">
        <ele>1408</ele>
        <time>2016-05-15T08:13:53.000Z</time>
      </trkpt>
      <trkpt lat="43.97705" lon="7.23622">
        <ele>1408</ele>
        <time>2016-05-15T08:13:54.000Z</time>
      </trkpt>
      <trkpt lat="43.97697" lon="7.2363">
        <ele>1409</ele>
        <time>2016-05-15T08:13:59.000Z</time>
      </trkpt>
      <trkpt lat="43.97696" lon="7.23634">
        <ele>1409</ele>
        <time>2016-05-15T08:14:03.000Z</time>
      </trkpt>
      <trkpt lat="43.97691" lon="7.23641">
        <ele>1409</ele>
        <time>2016-05-15T08:14:08.000Z</time>
      </trkpt>
      <trkpt lat="43.97688" lon="7.23644">
        <ele>1410</ele>
        <time>2016-05-15T08:14:10.000Z</time>
      </trkpt>
      <trkpt lat="43.97686" lon="7.23648">
        <ele>1410</ele>
        <time>2016-05-15T08:14:13.000Z</time>
      </trkpt>
      <trkpt lat="43.97685" lon="7.2365">
        <ele>1410</ele>
        <time>2016-05-15T08:14:14.000Z</time>
      </trkpt>
      <trkpt lat="43.97682" lon="7.23653">
        <ele>1411</ele>
        <time>2016-05-15T08:14:17.000Z</time>
      </trkpt>
      <trkpt lat="43.97682" lon="7.23655">
        <ele>1411</ele>
        <time>2016-05-15T08:14:18.000Z</time>
      </trkpt>
      <trkpt lat="43.97678" lon="7.23661">
        <ele>1413</ele>
        <time>2016-05-15T08:14:22.000Z</time>
      </trkpt>
      <trkpt lat="43.97673" lon="7.23664">
        <ele>1414</ele>
        <time>2016-05-15T08:14:25.000Z</time>
      </trkpt>
      <trkpt lat="43.97671" lon="7.23666">
        <ele>1415</ele>
        <time>2016-05-15T08:14:28.000Z</time>
      </trkpt>
      <trkpt lat="43.97669" lon="7.23667">
        <ele>1414</ele>
        <time>2016-05-15T08:14:30.000Z</time>
      </trkpt>
      <trkpt lat="43.97665" lon="7.2367">
        <ele>1414</ele>
        <time>2016-05-15T08:14:34.000Z</time>
      </trkpt>
      <trkpt lat="43.97662" lon="7.2367">
        <ele>1413</ele>
        <time>2016-05-15T08:14:36.000Z</time>
      </trkpt>
      <trkpt lat="43.9766" lon="7.23671">
        <ele>1412</ele>
        <time>2016-05-15T08:14:38.000Z</time>
      </trkpt>
      <trkpt lat="43.97657" lon="7.23672">
        <ele>1411</ele>
        <time>2016-05-15T08:14:41.000Z</time>
      </trkpt>
      <trkpt lat="43.97652" lon="7.23671">
        <ele>1409</ele>
        <time>2016-05-15T08:14:45.000Z</time>
      </trkpt>
      <trkpt lat="43.9765" lon="7.23671">
        <ele>1409</ele>
        <time>2016-05-15T08:14:47.000Z</time>
      </trkpt>
      <trkpt lat="43.97638" lon="7.23665">
        <ele>1426</ele>
        <time>2016-05-15T08:14:54.000Z</time>
      </trkpt>
      <trkpt lat="43.97628" lon="7.2366">
        <ele>1427</ele>
        <time>2016-05-15T08:14:59.000Z</time>
      </trkpt>
      <trkpt lat="43.97624" lon="7.23658">
        <ele>1428</ele>
        <time>2016-05-15T08:15:01.000Z</time>
      </trkpt>
      <trkpt lat="43.97618" lon="7.23657">
        <ele>1428</ele>
        <time>2016-05-15T08:15:03.000Z</time>
      </trkpt>
      <trkpt lat="43.97602" lon="7.23654">
        <ele>1427</ele>
        <time>2016-05-15T08:15:08.000Z</time>
      </trkpt>
      <trkpt lat="43.97597" lon="7.23654">
        <ele>1426</ele>
        <time>2016-05-15T08:15:10.000Z</time>
      </trkpt>
      <trkpt lat="43.97594" lon="7.23657">
        <ele>1425</ele>
        <time>2016-05-15T08:15:11.000Z</time>
      </trkpt>
      <trkpt lat="43.97584" lon="7.23664">
        <ele>1420</ele>
        <time>2016-05-15T08:15:14.000Z</time>
      </trkpt>
      <trkpt lat="43.97582" lon="7.23665">
        <ele>1420</ele>
        <time>2016-05-15T08:15:15.000Z</time>
      </trkpt>
      <trkpt lat="43.97577" lon="7.23668">
        <ele>1414</ele>
        <time>2016-05-15T08:15:17.000Z</time>
      </trkpt>
      <trkpt lat="43.97574" lon="7.23669">
        <ele>1412</ele>
        <time>2016-05-15T08:15:18.000Z</time>
      </trkpt>
      <trkpt lat="43.97569" lon="7.23671">
        <ele>1410</ele>
        <time>2016-05-15T08:15:20.000Z</time>
      </trkpt>
      <trkpt lat="43.97561" lon="7.23671">
        <ele>1408</ele>
        <time>2016-05-15T08:15:23.000Z</time>
      </trkpt>
      <trkpt lat="43.97552" lon="7.23671">
        <ele>1407</ele>
        <time>2016-05-15T08:15:27.000Z</time>
      </trkpt>
      <trkpt lat="43.97545" lon="7.23671">
        <ele>1406</ele>
        <time>2016-05-15T08:15:29.000Z</time>
      </trkpt>
      <trkpt lat="43.9754" lon="7.23671">
        <ele>1407</ele>
        <time>2016-05-15T08:15:31.000Z</time>
      </trkpt>
      <trkpt lat="43.9753" lon="7.23674">
        <ele>1407</ele>
        <time>2016-05-15T08:15:34.000Z</time>
      </trkpt>
      <trkpt lat="43.97527" lon="7.23676">
        <ele>1408</ele>
        <time>2016-05-15T08:15:35.000Z</time>
      </trkpt>
      <trkpt lat="43.97519" lon="7.23679">
        <ele>1409</ele>
        <time>2016-05-15T08:15:38.000Z</time>
      </trkpt>
      <trkpt lat="43.97512" lon="7.23681">
        <ele>1410</ele>
        <time>2016-05-15T08:15:40.000Z</time>
      </trkpt>
      <trkpt lat="43.97502" lon="7.23687">
        <ele>1409</ele>
        <time>2016-05-15T08:15:45.000Z</time>
      </trkpt>
      <trkpt lat="43.97492" lon="7.23689">
        <ele>1412</ele>
        <time>2016-05-15T08:15:48.000Z</time>
      </trkpt>
      <trkpt lat="43.97486" lon="7.2369">
        <ele>1412</ele>
        <time>2016-05-15T08:15:50.000Z</time>
      </trkpt>
      <trkpt lat="43.97476" lon="7.23694">
        <ele>1411</ele>
        <time>2016-05-15T08:15:53.000Z</time>
      </trkpt>
      <trkpt lat="43.97461" lon="7.23698">
        <ele>1410</ele>
        <time>2016-05-15T08:15:58.000Z</time>
      </trkpt>
      <trkpt lat="43.97455" lon="7.23699">
        <ele>1411</ele>
        <time>2016-05-15T08:16:01.000Z</time>
      </trkpt>
      <trkpt lat="43.97454" lon="7.237">
        <ele>1410</ele>
        <time>2016-05-15T08:16:03.000Z</time>
      </trkpt>
      <trkpt lat="43.97448" lon="7.23702">
        <ele>1410</ele>
        <time>2016-05-15T08:16:08.000Z</time>
      </trkpt>
      <trkpt lat="43.97436" lon="7.23708">
        <ele>1410</ele>
        <time>2016-05-15T08:16:13.000Z</time>
      </trkpt>
      <trkpt lat="43.9742" lon="7.23715">
        <ele>1409</ele>
        <time>2016-05-15T08:16:19.000Z</time>
      </trkpt>
      <trkpt lat="43.97414" lon="7.23718">
        <ele>1417</ele>
        <time>2016-05-15T08:16:22.000Z</time>
      </trkpt>
      <trkpt lat="43.97409" lon="7.23719">
        <ele>1417</ele>
        <time>2016-05-15T08:16:25.000Z</time>
      </trkpt>
      <trkpt lat="43.97399" lon="7.23721">
        <ele>1417</ele>
        <time>2016-05-15T08:16:29.000Z</time>
      </trkpt>
      <trkpt lat="43.97389" lon="7.23721">
        <ele>1418</ele>
        <time>2016-05-15T08:16:32.000Z</time>
      </trkpt>
      <trkpt lat="43.97382" lon="7.23721">
        <ele>1419</ele>
        <time>2016-05-15T08:16:34.000Z</time>
      </trkpt>
      <trkpt lat="43.97377" lon="7.2372">
        <ele>1420</ele>
        <time>2016-05-15T08:16:37.000Z</time>
      </trkpt>
      <trkpt lat="43.97375" lon="7.2372">
        <ele>1420</ele>
        <time>2016-05-15T08:16:38.000Z</time>
      </trkpt>
      <trkpt lat="43.9737" lon="7.23721">
        <ele>1420</ele>
        <time>2016-05-15T08:16:40.000Z</time>
      </trkpt>
      <trkpt lat="43.97368" lon="7.23724">
        <ele>1420</ele>
        <time>2016-05-15T08:16:42.000Z</time>
      </trkpt>
      <trkpt lat="43.97366" lon="7.23725">
        <ele>1420</ele>
        <time>2016-05-15T08:16:44.000Z</time>
      </trkpt>
      <trkpt lat="43.97365" lon="7.23725">
        <ele>1420</ele>
        <time>2016-05-15T08:16:48.000Z</time>
      </trkpt>
      <trkpt lat="43.97361" lon="7.23727">
        <ele>1420</ele>
        <time>2016-05-15T08:16:51.000Z</time>
      </trkpt>
      <trkpt lat="43.97357" lon="7.23728">
        <ele>1420</ele>
        <time>2016-05-15T08:16:53.000Z</time>
      </trkpt>
      <trkpt lat="43.97355" lon="7.23729">
        <ele>1420</ele>
        <time>2016-05-15T08:16:54.000Z</time>
      </trkpt>
      <trkpt lat="43.97349" lon="7.23735">
        <ele>1419</ele>
        <time>2016-05-15T08:16:58.000Z</time>
      </trkpt>
      <trkpt lat="43.97345" lon="7.23738">
        <ele>1418</ele>
        <time>2016-05-15T08:17:01.000Z</time>
      </trkpt>
      <trkpt lat="43.97341" lon="7.23739">
        <ele>1417</ele>
        <time>2016-05-15T08:17:04.000Z</time>
      </trkpt>
      <trkpt lat="43.97339" lon="7.23739">
        <ele>1417</ele>
        <time>2016-05-15T08:17:07.000Z</time>
      </trkpt>
      <trkpt lat="43.97336" lon="7.23739">
        <ele>1417</ele>
        <time>2016-05-15T08:17:10.000Z</time>
      </trkpt>
      <trkpt lat="43.97331" lon="7.23739">
        <ele>1426</ele>
        <time>2016-05-15T08:17:16.000Z</time>
      </trkpt>
      <trkpt lat="43.97331" lon="7.2374">
        <ele>1425</ele>
        <time>2016-05-15T08:17:17.000Z</time>
      </trkpt>
      <trkpt lat="43.97324" lon="7.23744">
        <ele>1426</ele>
        <time>2016-05-15T08:17:23.000Z</time>
      </trkpt>
      <trkpt lat="43.97318" lon="7.2375">
        <ele>1430</ele>
        <time>2016-05-15T08:17:27.000Z</time>
      </trkpt>
      <trkpt lat="43.97316" lon="7.23751">
        <ele>1419</ele>
        <time>2016-05-15T08:17:29.000Z</time>
      </trkpt>
      <trkpt lat="43.97308" lon="7.23758">
        <ele>1421</ele>
        <time>2016-05-15T08:17:34.000Z</time>
      </trkpt>
      <trkpt lat="43.97307" lon="7.2376">
        <ele>1421</ele>
        <time>2016-05-15T08:17:35.000Z</time>
      </trkpt>
      <trkpt lat="43.97305" lon="7.23765">
        <ele>1421</ele>
        <time>2016-05-15T08:17:37.000Z</time>
      </trkpt>
      <trkpt lat="43.97306" lon="7.23769">
        <ele>1421</ele>
        <time>2016-05-15T08:17:38.000Z</time>
      </trkpt>
      <trkpt lat="43.97304" lon="7.23778">
        <ele>1420</ele>
        <time>2016-05-15T08:17:40.000Z</time>
      </trkpt>
      <trkpt lat="43.97302" lon="7.2379">
        <ele>1419</ele>
        <time>2016-05-15T08:17:42.000Z</time>
      </trkpt>
      <trkpt lat="43.97297" lon="7.23804">
        <ele>1417</ele>
        <time>2016-05-15T08:17:44.000Z</time>
      </trkpt>
      <trkpt lat="43.97291" lon="7.23818">
        <ele>1417</ele>
        <time>2016-05-15T08:17:46.000Z</time>
      </trkpt>
      <trkpt lat="43.97285" lon="7.2383">
        <ele>1418</ele>
        <time>2016-05-15T08:17:48.000Z</time>
      </trkpt>
      <trkpt lat="43.97282" lon="7.23835">
        <ele>1400</ele>
        <time>2016-05-15T08:17:49.000Z</time>
      </trkpt>
      <trkpt lat="43.97281" lon="7.23839">
        <ele>1400</ele>
        <time>2016-05-15T08:17:50.000Z</time>
      </trkpt>
      <trkpt lat="43.97274" lon="7.23849">
        <ele>1401</ele>
        <time>2016-05-15T08:17:53.000Z</time>
      </trkpt>
      <trkpt lat="43.97268" lon="7.23854">
        <ele>1402</ele>
        <time>2016-05-15T08:17:55.000Z</time>
      </trkpt>
      <trkpt lat="43.97265" lon="7.23857">
        <ele>1402</ele>
        <time>2016-05-15T08:17:56.000Z</time>
      </trkpt>
      <trkpt lat="43.97261" lon="7.2386">
        <ele>1401</ele>
        <time>2016-05-15T08:17:57.000Z</time>
      </trkpt>
      <trkpt lat="43.97256" lon="7.23862">
        <ele>1401</ele>
        <time>2016-05-15T08:17:58.000Z</time>
      </trkpt>
      <trkpt lat="43.97253" lon="7.23866">
        <ele>1400</ele>
        <time>2016-05-15T08:17:59.000Z</time>
      </trkpt>
      <trkpt lat="43.97242" lon="7.23874">
        <ele>1415</ele>
        <time>2016-05-15T08:18:02.000Z</time>
      </trkpt>
      <trkpt lat="43.97239" lon="7.23876">
        <ele>1414</ele>
        <time>2016-05-15T08:18:03.000Z</time>
      </trkpt>
      <trkpt lat="43.9723" lon="7.23883">
        <ele>1413</ele>
        <time>2016-05-15T08:18:06.000Z</time>
      </trkpt>
      <trkpt lat="43.97218" lon="7.23897">
        <ele>1412</ele>
        <time>2016-05-15T08:18:11.000Z</time>
      </trkpt>
      <trkpt lat="43.97209" lon="7.23906">
        <ele>1412</ele>
        <time>2016-05-15T08:18:14.000Z</time>
      </trkpt>
      <trkpt lat="43.97207" lon="7.23909">
        <ele>1412</ele>
        <time>2016-05-15T08:18:15.000Z</time>
      </trkpt>
      <trkpt lat="43.9719" lon="7.23918">
        <ele>1393</ele>
        <time>2016-05-15T08:18:20.000Z</time>
      </trkpt>
      <trkpt lat="43.97177" lon="7.23924">
        <ele>1399</ele>
        <time>2016-05-15T08:18:24.000Z</time>
      </trkpt>
      <trkpt lat="43.97169" lon="7.23926">
        <ele>1401</ele>
        <time>2016-05-15T08:18:26.000Z</time>
      </trkpt>
      <trkpt lat="43.97164" lon="7.23927">
        <ele>1403</ele>
        <time>2016-05-15T08:18:28.000Z</time>
      </trkpt>
      <trkpt lat="43.97156" lon="7.2393">
        <ele>1399</ele>
        <time>2016-05-15T08:18:33.000Z</time>
      </trkpt>
      <trkpt lat="43.97144" lon="7.23933">
        <ele>1394</ele>
        <time>2016-05-15T08:18:38.000Z</time>
      </trkpt>
      <trkpt lat="43.97135" lon="7.23934">
        <ele>1392</ele>
        <time>2016-05-15T08:18:42.000Z</time>
      </trkpt>
      <trkpt lat="43.97132" lon="7.23935">
        <ele>1391</ele>
        <time>2016-05-15T08:18:43.000Z</time>
      </trkpt>
      <trkpt lat="43.97128" lon="7.23935">
        <ele>1391</ele>
        <time>2016-05-15T08:18:45.000Z</time>
      </trkpt>
      <trkpt lat="43.97127" lon="7.23935">
        <ele>1391</ele>
        <time>2016-05-15T08:18:48.000Z</time>
      </trkpt>
      <trkpt lat="43.97124" lon="7.23935">
        <ele>1390</ele>
        <time>2016-05-15T08:18:50.000Z</time>
      </trkpt>
      <trkpt lat="43.97121" lon="7.23934">
        <ele>1390</ele>
        <time>2016-05-15T08:18:52.000Z</time>
      </trkpt>
      <trkpt lat="43.97114" lon="7.23932">
        <ele>1390</ele>
        <time>2016-05-15T08:18:58.000Z</time>
      </trkpt>
      <trkpt lat="43.97113" lon="7.23931">
        <ele>1390</ele>
        <time>2016-05-15T08:19:00.000Z</time>
      </trkpt>
      <trkpt lat="43.97112" lon="7.23931">
        <ele>1390</ele>
        <time>2016-05-15T08:19:02.000Z</time>
      </trkpt>
      <trkpt lat="43.97112" lon="7.23931">
        <ele>1390</ele>
        <time>2016-05-15T08:19:03.000Z</time>
      </trkpt>
      <trkpt lat="43.97112" lon="7.23931">
        <ele>1390</ele>
        <time>2016-05-15T08:19:05.000Z</time>
      </trkpt>
      <trkpt lat="43.97109" lon="7.23929">
        <ele>1391</ele>
        <time>2016-05-15T08:19:07.000Z</time>
      </trkpt>
      <trkpt lat="43.97107" lon="7.23928">
        <ele>1391</ele>
        <time>2016-05-15T08:19:08.000Z</time>
      </trkpt>
      <trkpt lat="43.97102" lon="7.23921">
        <ele>1392</ele>
        <time>2016-05-15T08:19:12.000Z</time>
      </trkpt>
      <trkpt lat="43.97102" lon="7.23922">
        <ele>1392</ele>
        <time>2016-05-15T08:19:13.000Z</time>
      </trkpt>
      <trkpt lat="43.97099" lon="7.23917">
        <ele>1393</ele>
        <time>2016-05-15T08:19:16.000Z</time>
      </trkpt>
      <trkpt lat="43.97096" lon="7.23907">
        <ele>1409</ele>
        <time>2016-05-15T08:19:23.000Z</time>
      </trkpt>
      <trkpt lat="43.97095" lon="7.23908">
        <ele>1408</ele>
        <time>2016-05-15T08:19:24.000Z</time>
      </trkpt>
      <trkpt lat="43.9709" lon="7.23903">
        <ele>1409</ele>
        <time>2016-05-15T08:19:27.000Z</time>
      </trkpt>
      <trkpt lat="43.97088" lon="7.23896">
        <ele>1412</ele>
        <time>2016-05-15T08:19:30.000Z</time>
      </trkpt>
      <trkpt lat="43.97084" lon="7.23891">
        <ele>1413</ele>
        <time>2016-05-15T08:19:33.000Z</time>
      </trkpt>
      <trkpt lat="43.9708" lon="7.23887">
        <ele>1397</ele>
        <time>2016-05-15T08:19:36.000Z</time>
      </trkpt>
      <trkpt lat="43.97076" lon="7.23883">
        <ele>1397</ele>
        <time>2016-05-15T08:19:39.000Z</time>
      </trkpt>
      <trkpt lat="43.97073" lon="7.23878">
        <ele>1398</ele>
        <time>2016-05-15T08:19:43.000Z</time>
      </trkpt>
      <trkpt lat="43.97073" lon="7.23876">
        <ele>1398</ele>
        <time>2016-05-15T08:19:45.000Z</time>
      </trkpt>
      <trkpt lat="43.97071" lon="7.23873">
        <ele>1399</ele>
        <time>2016-05-15T08:19:48.000Z</time>
      </trkpt>
      <trkpt lat="43.9707" lon="7.23873">
        <ele>1399</ele>
        <time>2016-05-15T08:19:49.000Z</time>
      </trkpt>
      <trkpt lat="43.97068" lon="7.2387">
        <ele>1399</ele>
        <time>2016-05-15T08:19:51.000Z</time>
      </trkpt>
      <trkpt lat="43.97065" lon="7.23862">
        <ele>1401</ele>
        <time>2016-05-15T08:19:55.000Z</time>
      </trkpt>
      <trkpt lat="43.9706" lon="7.23852">
        <ele>1402</ele>
        <time>2016-05-15T08:19:59.000Z</time>
      </trkpt>
      <trkpt lat="43.97059" lon="7.2385">
        <ele>1403</ele>
        <time>2016-05-15T08:20:00.000Z</time>
      </trkpt>
      <trkpt lat="43.97053" lon="7.23837">
        <ele>1402</ele>
        <time>2016-05-15T08:20:06.000Z</time>
      </trkpt>
      <trkpt lat="43.97052" lon="7.23836">
        <ele>1402</ele>
        <time>2016-05-15T08:20:08.000Z</time>
      </trkpt>
      <trkpt lat="43.97047" lon="7.23837">
        <ele>1400</ele>
        <time>2016-05-15T08:20:10.000Z</time>
      </trkpt>
      <trkpt lat="43.97037" lon="7.2384">
        <ele>1396</ele>
        <time>2016-05-15T08:20:14.000Z</time>
      </trkpt>
      <trkpt lat="43.97035" lon="7.23839">
        <ele>1395</ele>
        <time>2016-05-15T08:20:15.000Z</time>
      </trkpt>
      <trkpt lat="43.97034" lon="7.23837">
        <ele>1395</ele>
        <time>2016-05-15T08:20:16.000Z</time>
      </trkpt>
      <trkpt lat="43.97029" lon="7.23836">
        <ele>1393</ele>
        <time>2016-05-15T08:20:18.000Z</time>
      </trkpt>
      <trkpt lat="43.97026" lon="7.23834">
        <ele>1393</ele>
        <time>2016-05-15T08:20:19.000Z</time>
      </trkpt>
      <trkpt lat="43.97008" lon="7.23824">
        <ele>1402</ele>
        <time>2016-05-15T08:20:26.000Z</time>
      </trkpt>
      <trkpt lat="43.97004" lon="7.2382">
        <ele>1404</ele>
        <time>2016-05-15T08:20:28.000Z</time>
      </trkpt>
      <trkpt lat="43.96999" lon="7.23816">
        <ele>1393</ele>
        <time>2016-05-15T08:20:31.000Z</time>
      </trkpt>
      <trkpt lat="43.96994" lon="7.23807">
        <ele>1396</ele>
        <time>2016-05-15T08:20:35.000Z</time>
      </trkpt>
      <trkpt lat="43.96992" lon="7.23806">
        <ele>1396</ele>
        <time>2016-05-15T08:20:36.000Z</time>
      </trkpt>
      <trkpt lat="43.96988" lon="7.23799">
        <ele>1398</ele>
        <time>2016-05-15T08:20:40.000Z</time>
      </trkpt>
      <trkpt lat="43.96985" lon="7.23794">
        <ele>1399</ele>
        <time>2016-05-15T08:20:46.000Z</time>
      </trkpt>
      <trkpt lat="43.96985" lon="7.23795">
        <ele>1399</ele>
        <time>2016-05-15T08:20:47.000Z</time>
      </trkpt>
      <trkpt lat="43.96981" lon="7.2379">
        <ele>1400</ele>
        <time>2016-05-15T08:20:52.000Z</time>
      </trkpt>
      <trkpt lat="43.96978" lon="7.23787">
        <ele>1401</ele>
        <time>2016-05-15T08:20:55.000Z</time>
      </trkpt>
      <trkpt lat="43.96975" lon="7.23783">
        <ele>1402</ele>
        <time>2016-05-15T08:20:58.000Z</time>
      </trkpt>
      <trkpt lat="43.96972" lon="7.23782">
        <ele>1402</ele>
        <time>2016-05-15T08:21:02.000Z</time>
      </trkpt>
      <trkpt lat="43.96971" lon="7.23781">
        <ele>1402</ele>
        <time>2016-05-15T08:21:03.000Z</time>
      </trkpt>
      <trkpt lat="43.96962" lon="7.23777">
        <ele>1401</ele>
        <time>2016-05-15T08:21:08.000Z</time>
      </trkpt>
      <trkpt lat="43.96951" lon="7.2377">
        <ele>1401</ele>
        <time>2016-05-15T08:21:14.000Z</time>
      </trkpt>
      <trkpt lat="43.96942" lon="7.2376">
        <ele>1402</ele>
        <time>2016-05-15T08:21:19.000Z</time>
      </trkpt>
      <trkpt lat="43.9694" lon="7.23759">
        <ele>1403</ele>
        <time>2016-05-15T08:21:20.000Z</time>
      </trkpt>
      <trkpt lat="43.96935" lon="7.23757">
        <ele>1403</ele>
        <time>2016-05-15T08:21:22.000Z</time>
      </trkpt>
      <trkpt lat="43.96924" lon="7.23755">
        <ele>1405</ele>
        <time>2016-05-15T08:21:26.000Z</time>
      </trkpt>
      <trkpt lat="43.96909" lon="7.23755">
        <ele>1403</ele>
        <time>2016-05-15T08:21:31.000Z</time>
      </trkpt>
      <trkpt lat="43.96897" lon="7.23755">
        <ele>1399</ele>
        <time>2016-05-15T08:21:35.000Z</time>
      </trkpt>
      <trkpt lat="43.96879" lon="7.23754">
        <ele>1397</ele>
        <time>2016-05-15T08:21:41.000Z</time>
      </trkpt>
      <trkpt lat="43.96876" lon="7.23753">
        <ele>1398</ele>
        <time>2016-05-15T08:21:43.000Z</time>
      </trkpt>
      <trkpt lat="43.9687" lon="7.23753">
        <ele>1398</ele>
        <time>2016-05-15T08:21:47.000Z</time>
      </trkpt>
      <trkpt lat="43.96863" lon="7.23753">
        <ele>1399</ele>
        <time>2016-05-15T08:21:52.000Z</time>
      </trkpt>
      <trkpt lat="43.96857" lon="7.23753">
        <ele>1400</ele>
        <time>2016-05-15T08:21:57.000Z</time>
      </trkpt>
      <trkpt lat="43.96855" lon="7.23753">
        <ele>1401</ele>
        <time>2016-05-15T08:21:59.000Z</time>
      </trkpt>
      <trkpt lat="43.96852" lon="7.23754">
        <ele>1402</ele>
        <time>2016-05-15T08:22:02.000Z</time>
      </trkpt>
      <trkpt lat="43.96846" lon="7.23754">
        <ele>1404</ele>
        <time>2016-05-15T08:22:05.000Z</time>
      </trkpt>
      <trkpt lat="43.96837" lon="7.23754">
        <ele>1409</ele>
        <time>2016-05-15T08:22:11.000Z</time>
      </trkpt>
      <trkpt lat="43.96836" lon="7.23754">
        <ele>1409</ele>
        <time>2016-05-15T08:22:12.000Z</time>
      </trkpt>
      <trkpt lat="43.96829" lon="7.23755">
        <ele>1409</ele>
        <time>2016-05-15T08:22:17.000Z</time>
      </trkpt>
      <trkpt lat="43.96819" lon="7.23755">
        <ele>1406</ele>
        <time>2016-05-15T08:22:23.000Z</time>
      </trkpt>
      <trkpt lat="43.96815" lon="7.23755">
        <ele>1405</ele>
        <time>2016-05-15T08:22:26.000Z</time>
      </trkpt>
      <trkpt lat="43.96811" lon="7.23755">
        <ele>1404</ele>
        <time>2016-05-15T08:22:29.000Z</time>
      </trkpt>
      <trkpt lat="43.96805" lon="7.23755">
        <ele>1403</ele>
        <time>2016-05-15T08:22:32.000Z</time>
      </trkpt>
      <trkpt lat="43.96799" lon="7.23756">
        <ele>1403</ele>
        <time>2016-05-15T08:22:35.000Z</time>
      </trkpt>
      <trkpt lat="43.9679" lon="7.23758">
        <ele>1402</ele>
        <time>2016-05-15T08:22:39.000Z</time>
      </trkpt>
      <trkpt lat="43.96773" lon="7.23762">
        <ele>1403</ele>
        <time>2016-05-15T08:22:45.000Z</time>
      </trkpt>
      <trkpt lat="43.96762" lon="7.23764">
        <ele>1405</ele>
        <time>2016-05-15T08:22:50.000Z</time>
      </trkpt>
      <trkpt lat="43.96746" lon="7.23768">
        <ele>1407</ele>
        <time>2016-05-15T08:22:55.000Z</time>
      </trkpt>
      <trkpt lat="43.96724" lon="7.23769">
        <ele>1406</ele>
        <time>2016-05-15T08:23:01.000Z</time>
      </trkpt>
      <trkpt lat="43.96709" lon="7.23769">
        <ele>1406</ele>
        <time>2016-05-15T08:23:04.000Z</time>
      </trkpt>
      <trkpt lat="43.96705" lon="7.23768">
        <ele>1406</ele>
        <time>2016-05-15T08:23:05.000Z</time>
      </trkpt>
      <trkpt lat="43.96698" lon="7.23768">
        <ele>1406</ele>
        <time>2016-05-15T08:23:07.000Z</time>
      </trkpt>
      <trkpt lat="43.96694" lon="7.23769">
        <ele>1406</ele>
        <time>2016-05-15T08:23:08.000Z</time>
      </trkpt>
      <trkpt lat="43.96679" lon="7.23779">
        <ele>1406</ele>
        <time>2016-05-15T08:23:13.000Z</time>
      </trkpt>
      <trkpt lat="43.96668" lon="7.23779">
        <ele>1406</ele>
        <time>2016-05-15T08:23:17.000Z</time>
      </trkpt>
      <trkpt lat="43.96659" lon="7.23782">
        <ele>1408</ele>
        <time>2016-05-15T08:23:20.000Z</time>
      </trkpt>
      <trkpt lat="43.96656" lon="7.23782">
        <ele>1408</ele>
        <time>2016-05-15T08:23:21.000Z</time>
      </trkpt>
      <trkpt lat="43.96643" lon="7.23781">
        <ele>1408</ele>
        <time>2016-05-15T08:23:26.000Z</time>
      </trkpt>
      <trkpt lat="43.9664" lon="7.23781">
        <ele>1408</ele>
        <time>2016-05-15T08:23:27.000Z</time>
      </trkpt>
      <trkpt lat="43.96631" lon="7.2378">
        <ele>1409</ele>
        <time>2016-05-15T08:23:31.000Z</time>
      </trkpt>
      <trkpt lat="43.96623" lon="7.23783">
        <ele>1409</ele>
        <time>2016-05-15T08:23:35.000Z</time>
      </trkpt>
      <trkpt lat="43.96615" lon="7.23782">
        <ele>1409</ele>
        <time>2016-05-15T08:23:40.000Z</time>
      </trkpt>
      <trkpt lat="43.96614" lon="7.23782">
        <ele>1409</ele>
        <time>2016-05-15T08:23:41.000Z</time>
      </trkpt>
      <trkpt lat="43.96607" lon="7.23785">
        <ele>1409</ele>
        <time>2016-05-15T08:23:46.000Z</time>
      </trkpt>
      <trkpt lat="43.96605" lon="7.23785">
        <ele>1409</ele>
        <time>2016-05-15T08:23:48.000Z</time>
      </trkpt>
      <trkpt lat="43.96599" lon="7.23786">
        <ele>1409</ele>
        <time>2016-05-15T08:23:52.000Z</time>
      </trkpt>
      <trkpt lat="43.96595" lon="7.23785">
        <ele>1409</ele>
        <time>2016-05-15T08:23:54.000Z</time>
      </trkpt>
      <trkpt lat="43.96586" lon="7.23786">
        <ele>1409</ele>
        <time>2016-05-15T08:23:59.000Z</time>
      </trkpt>
      <trkpt lat="43.96583" lon="7.23787">
        <ele>1410</ele>
        <time>2016-05-15T08:24:01.000Z</time>
      </trkpt>
      <trkpt lat="43.96581" lon="7.23788">
        <ele>1410</ele>
        <time>2016-05-15T08:24:02.000Z</time>
      </trkpt>
      <trkpt lat="43.96578" lon="7.23789">
        <ele>1410</ele>
        <time>2016-05-15T08:24:04.000Z</time>
      </trkpt>
      <trkpt lat="43.96573" lon="7.2379">
        <ele>1411</ele>
        <time>2016-05-15T08:24:08.000Z</time>
      </trkpt>
      <trkpt lat="43.96564" lon="7.23793">
        <ele>1411</ele>
        <time>2016-05-15T08:24:13.000Z</time>
      </trkpt>
      <trkpt lat="43.96563" lon="7.23794">
        <ele>1411</ele>
        <time>2016-05-15T08:24:14.000Z</time>
      </trkpt>
      <trkpt lat="43.96556" lon="7.23796">
        <ele>1411</ele>
        <time>2016-05-15T08:24:19.000Z</time>
      </trkpt>
      <trkpt lat="43.96551" lon="7.23798">
        <ele>1411</ele>
        <time>2016-05-15T08:24:22.000Z</time>
      </trkpt>
      <trkpt lat="43.96536" lon="7.23804">
        <ele>1411</ele>
        <time>2016-05-15T08:24:28.000Z</time>
      </trkpt>
      <trkpt lat="43.96526" lon="7.23809">
        <ele>1412</ele>
        <time>2016-05-15T08:24:32.000Z</time>
      </trkpt>
      <trkpt lat="43.96518" lon="7.23816">
        <ele>1412</ele>
        <time>2016-05-15T08:24:36.000Z</time>
      </trkpt>
      <trkpt lat="43.96509" lon="7.23821">
        <ele>1413</ele>
        <time>2016-05-15T08:24:40.000Z</time>
      </trkpt>
      <trkpt lat="43.96499" lon="7.23829">
        <ele>1415</ele>
        <time>2016-05-15T08:24:45.000Z</time>
      </trkpt>
      <trkpt lat="43.96496" lon="7.2383">
        <ele>1415</ele>
        <time>2016-05-15T08:24:46.000Z</time>
      </trkpt>
      <trkpt lat="43.96487" lon="7.23839">
        <ele>1413</ele>
        <time>2016-05-15T08:24:50.000Z</time>
      </trkpt>
      <trkpt lat="43.96468" lon="7.23856">
        <ele>1412</ele>
        <time>2016-05-15T08:24:55.000Z</time>
      </trkpt>
      <trkpt lat="43.96449" lon="7.23867">
        <ele>1412</ele>
        <time>2016-05-15T08:24:59.000Z</time>
      </trkpt>
      <trkpt lat="43.96443" lon="7.23871">
        <ele>1412</ele>
        <time>2016-05-15T08:25:01.000Z</time>
      </trkpt>
      <trkpt lat="43.9644" lon="7.23873">
        <ele>1412</ele>
        <time>2016-05-15T08:25:02.000Z</time>
      </trkpt>
      <trkpt lat="43.96433" lon="7.23876">
        <ele>1411</ele>
        <time>2016-05-15T08:25:04.000Z</time>
      </trkpt>
      <trkpt lat="43.96423" lon="7.23882">
        <ele>1411</ele>
        <time>2016-05-15T08:25:06.000Z</time>
      </trkpt>
      <trkpt lat="43.96413" lon="7.23886">
        <ele>1416</ele>
        <time>2016-05-15T08:25:08.000Z</time>
      </trkpt>
      <trkpt lat="43.96404" lon="7.2389">
        <ele>1416</ele>
        <time>2016-05-15T08:25:10.000Z</time>
      </trkpt>
      <trkpt lat="43.964" lon="7.23893">
        <ele>1415</ele>
        <time>2016-05-15T08:25:11.000Z</time>
      </trkpt>
      <trkpt lat="43.96395" lon="7.23896">
        <ele>1415</ele>
        <time>2016-05-15T08:25:12.000Z</time>
      </trkpt>
      <trkpt lat="43.96382" lon="7.23903">
        <ele>1416</ele>
        <time>2016-05-15T08:25:14.000Z</time>
      </trkpt>
      <trkpt lat="43.96375" lon="7.23906">
        <ele>1417</ele>
        <time>2016-05-15T08:25:15.000Z</time>
      </trkpt>
      <trkpt lat="43.96363" lon="7.23912">
        <ele>1417</ele>
        <time>2016-05-15T08:25:17.000Z</time>
      </trkpt>
      <trkpt lat="43.96344" lon="7.2392">
        <ele>1407</ele>
        <time>2016-05-15T08:25:20.000Z</time>
      </trkpt>
      <trkpt lat="43.96322" lon="7.23932">
        <ele>1413</ele>
        <time>2016-05-15T08:25:24.000Z</time>
      </trkpt>
      <trkpt lat="43.96313" lon="7.23936">
        <ele>1413</ele>
        <time>2016-05-15T08:25:26.000Z</time>
      </trkpt>
      <trkpt lat="43.96308" lon="7.23939">
        <ele>1413</ele>
        <time>2016-05-15T08:25:27.000Z</time>
      </trkpt>
      <trkpt lat="43.96299" lon="7.23948">
        <ele>1413</ele>
        <time>2016-05-15T08:25:30.000Z</time>
      </trkpt>
      <trkpt lat="43.96286" lon="7.23963">
        <ele>1412</ele>
        <time>2016-05-15T08:25:34.000Z</time>
      </trkpt>
      <trkpt lat="43.96277" lon="7.2397">
        <ele>1412</ele>
        <time>2016-05-15T08:25:36.000Z</time>
      </trkpt>
      <trkpt lat="43.96265" lon="7.23979">
        <ele>1411</ele>
        <time>2016-05-15T08:25:39.000Z</time>
      </trkpt>
      <trkpt lat="43.96259" lon="7.23984">
        <ele>1411</ele>
        <time>2016-05-15T08:25:41.000Z</time>
      </trkpt>
      <trkpt lat="43.96238" lon="7.24004">
        <ele>1407</ele>
        <time>2016-05-15T08:25:46.000Z</time>
      </trkpt>
      <trkpt lat="43.96212" lon="7.24023">
        <ele>1407</ele>
        <time>2016-05-15T08:25:52.000Z</time>
      </trkpt>
      <trkpt lat="43.96209" lon="7.24028">
        <ele>1407</ele>
        <time>2016-05-15T08:25:53.000Z</time>
      </trkpt>
      <trkpt lat="43.96203" lon="7.24043">
        <ele>1405</ele>
        <time>2016-05-15T08:25:55.000Z</time>
      </trkpt>
      <trkpt lat="43.96198" lon="7.2405">
        <ele>1404</ele>
        <time>2016-05-15T08:25:56.000Z</time>
      </trkpt>
      <trkpt lat="43.96186" lon="7.24059">
        <ele>1404</ele>
        <time>2016-05-15T08:25:58.000Z</time>
      </trkpt>
      <trkpt lat="43.96175" lon="7.24062">
        <ele>1404</ele>
        <time>2016-05-15T08:26:00.000Z</time>
      </trkpt>
      <trkpt lat="43.96172" lon="7.24064">
        <ele>1404</ele>
        <time>2016-05-15T08:26:01.000Z</time>
      </trkpt>
      <trkpt lat="43.96153" lon="7.24076">
        <ele>1411</ele>
        <time>2016-05-15T08:26:07.000Z</time>
      </trkpt>
      <trkpt lat="43.96144" lon="7.24081">
        <ele>1413</ele>
        <time>2016-05-15T08:26:10.000Z</time>
      </trkpt>
      <trkpt lat="43.96137" lon="7.24082">
        <ele>1415</ele>
        <time>2016-05-15T08:26:12.000Z</time>
      </trkpt>
      <trkpt lat="43.96132" lon="7.24087">
        <ele>1402</ele>
        <time>2016-05-15T08:26:14.000Z</time>
      </trkpt>
      <trkpt lat="43.96125" lon="7.24095">
        <ele>1402</ele>
        <time>2016-05-15T08:26:17.000Z</time>
      </trkpt>
      <trkpt lat="43.96112" lon="7.24102">
        <ele>1404</ele>
        <time>2016-05-15T08:26:21.000Z</time>
      </trkpt>
      <trkpt lat="43.9611" lon="7.24107">
        <ele>1403</ele>
        <time>2016-05-15T08:26:23.000Z</time>
      </trkpt>
      <trkpt lat="43.96108" lon="7.2411">
        <ele>1403</ele>
        <time>2016-05-15T08:26:25.000Z</time>
      </trkpt>
      <trkpt lat="43.96098" lon="7.24124">
        <ele>1402</ele>
        <time>2016-05-15T08:26:30.000Z</time>
      </trkpt>
      <trkpt lat="43.96092" lon="7.24137">
        <ele>1400</ele>
        <time>2016-05-15T08:26:34.000Z</time>
      </trkpt>
      <trkpt lat="43.9609" lon="7.24139">
        <ele>1400</ele>
        <time>2016-05-15T08:26:35.000Z</time>
      </trkpt>
      <trkpt lat="43.9608" lon="7.24159">
        <ele>1403</ele>
        <time>2016-05-15T08:26:40.000Z</time>
      </trkpt>
      <trkpt lat="43.96074" lon="7.24172">
        <ele>1399</ele>
        <time>2016-05-15T08:26:44.000Z</time>
      </trkpt>
      <trkpt lat="43.96064" lon="7.24188">
        <ele>1400</ele>
        <time>2016-05-15T08:26:48.000Z</time>
      </trkpt>
      <trkpt lat="43.96059" lon="7.24195">
        <ele>1400</ele>
        <time>2016-05-15T08:26:49.000Z</time>
      </trkpt>
      <trkpt lat="43.96057" lon="7.24205">
        <ele>1400</ele>
        <time>2016-05-15T08:26:51.000Z</time>
      </trkpt>
      <trkpt lat="43.96046" lon="7.24216">
        <ele>1400</ele>
        <time>2016-05-15T08:26:54.000Z</time>
      </trkpt>
      <trkpt lat="43.96043" lon="7.24218">
        <ele>1400</ele>
        <time>2016-05-15T08:26:55.000Z</time>
      </trkpt>
      <trkpt lat="43.96032" lon="7.24227">
        <ele>1401</ele>
        <time>2016-05-15T08:26:58.000Z</time>
      </trkpt>
      <trkpt lat="43.96009" lon="7.24245">
        <ele>1402</ele>
        <time>2016-05-15T08:27:04.000Z</time>
      </trkpt>
      <trkpt lat="43.95998" lon="7.24262">
        <ele>1402</ele>
        <time>2016-05-15T08:27:08.000Z</time>
      </trkpt>
      <trkpt lat="43.95981" lon="7.24272">
        <ele>1401</ele>
        <time>2016-05-15T08:27:12.000Z</time>
      </trkpt>
      <trkpt lat="43.95972" lon="7.24275">
        <ele>1402</ele>
        <time>2016-05-15T08:27:14.000Z</time>
      </trkpt>
      <trkpt lat="43.95958" lon="7.2428">
        <ele>1402</ele>
        <time>2016-05-15T08:27:17.000Z</time>
      </trkpt>
      <trkpt lat="43.95953" lon="7.24282">
        <ele>1403</ele>
        <time>2016-05-15T08:27:18.000Z</time>
      </trkpt>
      <trkpt lat="43.95939" lon="7.24292">
        <ele>1403</ele>
        <time>2016-05-15T08:27:22.000Z</time>
      </trkpt>
      <trkpt lat="43.95928" lon="7.24294">
        <ele>1403</ele>
        <time>2016-05-15T08:27:27.000Z</time>
      </trkpt>
      <trkpt lat="43.95916" lon="7.24298">
        <ele>1410</ele>
        <time>2016-05-15T08:27:33.000Z</time>
      </trkpt>
      <trkpt lat="43.95914" lon="7.24298">
        <ele>1410</ele>
        <time>2016-05-15T08:27:34.000Z</time>
      </trkpt>
      <trkpt lat="43.95907" lon="7.24299">
        <ele>1410</ele>
        <time>2016-05-15T08:27:38.000Z</time>
      </trkpt>
      <trkpt lat="43.95904" lon="7.243">
        <ele>1410</ele>
        <time>2016-05-15T08:27:40.000Z</time>
      </trkpt>
      <trkpt lat="43.95902" lon="7.24302">
        <ele>1410</ele>
        <time>2016-05-15T08:27:42.000Z</time>
      </trkpt>
      <trkpt lat="43.959" lon="7.24303">
        <ele>1410</ele>
        <time>2016-05-15T08:27:44.000Z</time>
      </trkpt>
      <trkpt lat="43.95896" lon="7.24305">
        <ele>1410</ele>
        <time>2016-05-15T08:27:47.000Z</time>
      </trkpt>
      <trkpt lat="43.95889" lon="7.24311">
        <ele>1410</ele>
        <time>2016-05-15T08:27:51.000Z</time>
      </trkpt>
      <trkpt lat="43.95888" lon="7.24311">
        <ele>1410</ele>
        <time>2016-05-15T08:27:52.000Z</time>
      </trkpt>
      <trkpt lat="43.95883" lon="7.24311">
        <ele>1410</ele>
        <time>2016-05-15T08:27:56.000Z</time>
      </trkpt>
      <trkpt lat="43.95881" lon="7.24312">
        <ele>1410</ele>
        <time>2016-05-15T08:27:58.000Z</time>
      </trkpt>
      <trkpt lat="43.95877" lon="7.24313">
        <ele>1411</ele>
        <time>2016-05-15T08:28:01.000Z</time>
      </trkpt>
      <trkpt lat="43.95873" lon="7.24315">
        <ele>1411</ele>
        <time>2016-05-15T08:28:04.000Z</time>
      </trkpt>
      <trkpt lat="43.95865" lon="7.24317">
        <ele>1411</ele>
        <time>2016-05-15T08:28:11.000Z</time>
      </trkpt>
      <trkpt lat="43.95863" lon="7.24317">
        <ele>1411</ele>
        <time>2016-05-15T08:28:13.000Z</time>
      </trkpt>
      <trkpt lat="43.9586" lon="7.24318">
        <ele>1411</ele>
        <time>2016-05-15T08:28:17.000Z</time>
      </trkpt>
      <trkpt lat="43.95851" lon="7.2432">
        <ele>1411</ele>
        <time>2016-05-15T08:28:23.000Z</time>
      </trkpt>
      <trkpt lat="43.95838" lon="7.24318">
        <ele>1410</ele>
        <time>2016-05-15T08:28:29.000Z</time>
      </trkpt>
      <trkpt lat="43.95834" lon="7.24319">
        <ele>1410</ele>
        <time>2016-05-15T08:28:31.000Z</time>
      </trkpt>
      <trkpt lat="43.95821" lon="7.24319">
        <ele>1414</ele>
        <time>2016-05-15T08:28:37.000Z</time>
      </trkpt>
      <trkpt lat="43.95817" lon="7.24319">
        <ele>1414</ele>
        <time>2016-05-15T08:28:39.000Z</time>
      </trkpt>
      <trkpt lat="43.95805" lon="7.24318">
        <ele>1415</ele>
        <time>2016-05-15T08:28:45.000Z</time>
      </trkpt>
      <trkpt lat="43.95803" lon="7.24318">
        <ele>1416</ele>
        <time>2016-05-15T08:28:46.000Z</time>
      </trkpt>
      <trkpt lat="43.95794" lon="7.24316">
        <ele>1416</ele>
        <time>2016-05-15T08:28:51.000Z</time>
      </trkpt>
      <trkpt lat="43.95781" lon="7.24311">
        <ele>1417</ele>
        <time>2016-05-15T08:28:57.000Z</time>
      </trkpt>
      <trkpt lat="43.9577" lon="7.24303">
        <ele>1417</ele>
        <time>2016-05-15T08:29:02.000Z</time>
      </trkpt>
      <trkpt lat="43.9576" lon="7.24301">
        <ele>1418</ele>
        <time>2016-05-15T08:29:07.000Z</time>
      </trkpt>
      <trkpt lat="43.95756" lon="7.24301">
        <ele>1418</ele>
        <time>2016-05-15T08:29:09.000Z</time>
      </trkpt>
      <trkpt lat="43.95755" lon="7.24299">
        <ele>1418</ele>
        <time>2016-05-15T08:29:10.000Z</time>
      </trkpt>
      <trkpt lat="43.95752" lon="7.24297">
        <ele>1418</ele>
        <time>2016-05-15T08:29:12.000Z</time>
      </trkpt>
      <trkpt lat="43.95747" lon="7.24295">
        <ele>1417</ele>
        <time>2016-05-15T08:29:15.000Z</time>
      </trkpt>
      <trkpt lat="43.95743" lon="7.24295">
        <ele>1417</ele>
        <time>2016-05-15T08:29:17.000Z</time>
      </trkpt>
      <trkpt lat="43.95728" lon="7.24292">
        <ele>1417</ele>
        <time>2016-05-15T08:29:23.000Z</time>
      </trkpt>
      <trkpt lat="43.95718" lon="7.24291">
        <ele>1416</ele>
        <time>2016-05-15T08:29:29.000Z</time>
      </trkpt>
      <trkpt lat="43.95716" lon="7.2429">
        <ele>1416</ele>
        <time>2016-05-15T08:29:30.000Z</time>
      </trkpt>
      <trkpt lat="43.95707" lon="7.24284">
        <ele>1417</ele>
        <time>2016-05-15T08:29:34.000Z</time>
      </trkpt>
      <trkpt lat="43.95702" lon="7.24283">
        <ele>1417</ele>
        <time>2016-05-15T08:29:37.000Z</time>
      </trkpt>
      <trkpt lat="43.95698" lon="7.24281">
        <ele>1417</ele>
        <time>2016-05-15T08:29:39.000Z</time>
      </trkpt>
      <trkpt lat="43.95693" lon="7.2428">
        <ele>1417</ele>
        <time>2016-05-15T08:29:41.000Z</time>
      </trkpt>
      <trkpt lat="43.9568" lon="7.24274">
        <ele>1418</ele>
        <time>2016-05-15T08:29:47.000Z</time>
      </trkpt>
      <trkpt lat="43.95675" lon="7.24272">
        <ele>1418</ele>
        <time>2016-05-15T08:29:49.000Z</time>
      </trkpt>
      <trkpt lat="43.95666" lon="7.24265">
        <ele>1419</ele>
        <time>2016-05-15T08:29:54.000Z</time>
      </trkpt>
      <trkpt lat="43.95661" lon="7.24262">
        <ele>1419</ele>
        <time>2016-05-15T08:29:57.000Z</time>
      </trkpt>
      <trkpt lat="43.95653" lon="7.24257">
        <ele>1419</ele>
        <time>2016-05-15T08:30:01.000Z</time>
      </trkpt>
      <trkpt lat="43.95651" lon="7.24255">
        <ele>1419</ele>
        <time>2016-05-15T08:30:02.000Z</time>
      </trkpt>
      <trkpt lat="43.95642" lon="7.24249">
        <ele>1431</ele>
        <time>2016-05-15T08:30:08.000Z</time>
      </trkpt>
      <trkpt lat="43.9564" lon="7.24247">
        <ele>1432</ele>
        <time>2016-05-15T08:30:10.000Z</time>
      </trkpt>
      <trkpt lat="43.95635" lon="7.24244">
        <ele>1433</ele>
        <time>2016-05-15T08:30:14.000Z</time>
      </trkpt>
      <trkpt lat="43.95626" lon="7.24239">
        <ele>1433</ele>
        <time>2016-05-15T08:30:20.000Z</time>
      </trkpt>
      <trkpt lat="43.95623" lon="7.24237">
        <ele>1433</ele>
        <time>2016-05-15T08:30:22.000Z</time>
      </trkpt>
      <trkpt lat="43.95613" lon="7.24232">
        <ele>1433</ele>
        <time>2016-05-15T08:30:28.000Z</time>
      </trkpt>
      <trkpt lat="43.95612" lon="7.24231">
        <ele>1434</ele>
        <time>2016-05-15T08:30:29.000Z</time>
      </trkpt>
      <trkpt lat="43.95608" lon="7.24226">
        <ele>1434</ele>
        <time>2016-05-15T08:30:33.000Z</time>
      </trkpt>
      <trkpt lat="43.95605" lon="7.24223">
        <ele>1434</ele>
        <time>2016-05-15T08:30:35.000Z</time>
      </trkpt>
      <trkpt lat="43.95604" lon="7.2422">
        <ele>1435</ele>
        <time>2016-05-15T08:30:37.000Z</time>
      </trkpt>
      <trkpt lat="43.95603" lon="7.2422">
        <ele>1435</ele>
        <time>2016-05-15T08:30:40.000Z</time>
      </trkpt>
      <trkpt lat="43.95601" lon="7.24219">
        <ele>1435</ele>
        <time>2016-05-15T08:30:42.000Z</time>
      </trkpt>
      <trkpt lat="43.95599" lon="7.24218">
        <ele>1435</ele>
        <time>2016-05-15T08:30:44.000Z</time>
      </trkpt>
      <trkpt lat="43.95598" lon="7.24217">
        <ele>1435</ele>
        <time>2016-05-15T08:30:45.000Z</time>
      </trkpt>
      <trkpt lat="43.95597" lon="7.24217">
        <ele>1435</ele>
        <time>2016-05-15T08:30:46.000Z</time>
      </trkpt>
      <trkpt lat="43.95597" lon="7.24216">
        <ele>1436</ele>
        <time>2016-05-15T08:30:47.000Z</time>
      </trkpt>
      <trkpt lat="43.95596" lon="7.24216">
        <ele>1436</ele>
        <time>2016-05-15T08:30:51.000Z</time>
      </trkpt>
      <trkpt lat="43.95589" lon="7.24215">
        <ele>1436</ele>
        <time>2016-05-15T08:30:57.000Z</time>
      </trkpt>
      <trkpt lat="43.95578" lon="7.24213">
        <ele>1438</ele>
        <time>2016-05-15T08:31:03.000Z</time>
      </trkpt>
      <trkpt lat="43.95577" lon="7.24212">
        <ele>1439</ele>
        <time>2016-05-15T08:31:04.000Z</time>
      </trkpt>
      <trkpt lat="43.95568" lon="7.2421">
        <ele>1439</ele>
        <time>2016-05-15T08:31:10.000Z</time>
      </trkpt>
      <trkpt lat="43.95566" lon="7.2421">
        <ele>1440</ele>
        <time>2016-05-15T08:31:11.000Z</time>
      </trkpt>
      <trkpt lat="43.95556" lon="7.24206">
        <ele>1441</ele>
        <time>2016-05-15T08:31:19.000Z</time>
      </trkpt>
      <trkpt lat="43.95553" lon="7.24205">
        <ele>1441</ele>
        <time>2016-05-15T08:31:21.000Z</time>
      </trkpt>
      <trkpt lat="43.95549" lon="7.24204">
        <ele>1441</ele>
        <time>2016-05-15T08:31:24.000Z</time>
      </trkpt>
      <trkpt lat="43.9554" lon="7.24201">
        <ele>1442</ele>
        <time>2016-05-15T08:31:29.000Z</time>
      </trkpt>
      <trkpt lat="43.95537" lon="7.242">
        <ele>1442</ele>
        <time>2016-05-15T08:31:31.000Z</time>
      </trkpt>
      <trkpt lat="43.95529" lon="7.24197">
        <ele>1443</ele>
        <time>2016-05-15T08:31:37.000Z</time>
      </trkpt>
      <trkpt lat="43.95528" lon="7.24197">
        <ele>1443</ele>
        <time>2016-05-15T08:31:38.000Z</time>
      </trkpt>
      <trkpt lat="43.95523" lon="7.24195">
        <ele>1443</ele>
        <time>2016-05-15T08:31:42.000Z</time>
      </trkpt>
      <trkpt lat="43.95521" lon="7.24194">
        <ele>1443</ele>
        <time>2016-05-15T08:31:44.000Z</time>
      </trkpt>
      <trkpt lat="43.95522" lon="7.24194">
        <ele>1443</ele>
        <time>2016-05-15T08:31:45.000Z</time>
      </trkpt>
      <trkpt lat="43.9552" lon="7.24193">
        <ele>1444</ele>
        <time>2016-05-15T08:31:48.000Z</time>
      </trkpt>
      <trkpt lat="43.95515" lon="7.24192">
        <ele>1444</ele>
        <time>2016-05-15T08:31:54.000Z</time>
      </trkpt>
      <trkpt lat="43.95512" lon="7.24192">
        <ele>1444</ele>
        <time>2016-05-15T08:31:57.000Z</time>
      </trkpt>
      <trkpt lat="43.9551" lon="7.24191">
        <ele>1444</ele>
        <time>2016-05-15T08:32:00.000Z</time>
      </trkpt>
      <trkpt lat="43.95509" lon="7.24191">
        <ele>1444</ele>
        <time>2016-05-15T08:32:04.000Z</time>
      </trkpt>
      <trkpt lat="43.95505" lon="7.24193">
        <ele>1444</ele>
        <time>2016-05-15T08:32:08.000Z</time>
      </trkpt>
      <trkpt lat="43.95504" lon="7.24193">
        <ele>1444</ele>
        <time>2016-05-15T08:32:11.000Z</time>
      </trkpt>
      <trkpt lat="43.95498" lon="7.24194">
        <ele>1454</ele>
        <time>2016-05-15T08:32:15.000Z</time>
      </trkpt>
      <trkpt lat="43.95498" lon="7.24194">
        <ele>1454</ele>
        <time>2016-05-15T08:32:16.000Z</time>
      </trkpt>
      <trkpt lat="43.95497" lon="7.24195">
        <ele>1454</ele>
        <time>2016-05-15T08:32:17.000Z</time>
      </trkpt>
      <trkpt lat="43.95496" lon="7.24197">
        <ele>1454</ele>
        <time>2016-05-15T08:32:24.000Z</time>
      </trkpt>
      <trkpt lat="43.95495" lon="7.24197">
        <ele>1455</ele>
        <time>2016-05-15T08:32:30.000Z</time>
      </trkpt>
      <trkpt lat="43.95494" lon="7.24196">
        <ele>1455</ele>
        <time>2016-05-15T08:32:36.000Z</time>
      </trkpt>
      <trkpt lat="43.95493" lon="7.24196">
        <ele>1455</ele>
        <time>2016-05-15T08:32:37.000Z</time>
      </trkpt>
      <trkpt lat="43.95487" lon="7.24195">
        <ele>1455</ele>
        <time>2016-05-15T08:32:43.000Z</time>
      </trkpt>
      <trkpt lat="43.95484" lon="7.24194">
        <ele>1456</ele>
        <time>2016-05-15T08:32:48.000Z</time>
      </trkpt>
      <trkpt lat="43.95482" lon="7.24195">
        <ele>1456</ele>
        <time>2016-05-15T08:32:51.000Z</time>
      </trkpt>
      <trkpt lat="43.95481" lon="7.24196">
        <ele>1456</ele>
        <time>2016-05-15T08:32:53.000Z</time>
      </trkpt>
      <trkpt lat="43.9548" lon="7.24197">
        <ele>1456</ele>
        <time>2016-05-15T08:32:55.000Z</time>
      </trkpt>
      <trkpt lat="43.95479" lon="7.24198">
        <ele>1456</ele>
        <time>2016-05-15T08:32:58.000Z</time>
      </trkpt>
      <trkpt lat="43.95477" lon="7.24198">
        <ele>1457</ele>
        <time>2016-05-15T08:33:01.000Z</time>
      </trkpt>
      <trkpt lat="43.95476" lon="7.24197">
        <ele>1457</ele>
        <time>2016-05-15T08:33:02.000Z</time>
      </trkpt>
      <trkpt lat="43.95473" lon="7.24196">
        <ele>1457</ele>
        <time>2016-05-15T08:33:09.000Z</time>
      </trkpt>
      <trkpt lat="43.95472" lon="7.24195">
        <ele>1457</ele>
        <time>2016-05-15T08:33:10.000Z</time>
      </trkpt>
      <trkpt lat="43.9547" lon="7.24194">
        <ele>1458</ele>
        <time>2016-05-15T08:33:15.000Z</time>
      </trkpt>
      <trkpt lat="43.95468" lon="7.24194">
        <ele>1458</ele>
        <time>2016-05-15T08:33:17.000Z</time>
      </trkpt>
      <trkpt lat="43.95464" lon="7.24193">
        <ele>1459</ele>
        <time>2016-05-15T08:33:22.000Z</time>
      </trkpt>
      <trkpt lat="43.95464" lon="7.24193">
        <ele>1459</ele>
        <time>2016-05-15T08:33:23.000Z</time>
      </trkpt>
      <trkpt lat="43.95461" lon="7.24194">
        <ele>1459</ele>
        <time>2016-05-15T08:33:29.000Z</time>
      </trkpt>
      <trkpt lat="43.95461" lon="7.24196">
        <ele>1459</ele>
        <time>2016-05-15T08:33:30.000Z</time>
      </trkpt>
      <trkpt lat="43.9546" lon="7.24197">
        <ele>1459</ele>
        <time>2016-05-15T08:33:32.000Z</time>
      </trkpt>
      <trkpt lat="43.95459" lon="7.24198">
        <ele>1459</ele>
        <time>2016-05-15T08:33:35.000Z</time>
      </trkpt>
      <trkpt lat="43.95459" lon="7.24198">
        <ele>1459</ele>
        <time>2016-05-15T08:33:36.000Z</time>
      </trkpt>
      <trkpt lat="43.95456" lon="7.24199">
        <ele>1460</ele>
        <time>2016-05-15T08:33:41.000Z</time>
      </trkpt>
      <trkpt lat="43.95455" lon="7.24199">
        <ele>1460</ele>
        <time>2016-05-15T08:33:42.000Z</time>
      </trkpt>
      <trkpt lat="43.95451" lon="7.242">
        <ele>1461</ele>
        <time>2016-05-15T08:33:46.000Z</time>
      </trkpt>
      <trkpt lat="43.9545" lon="7.24202">
        <ele>1461</ele>
        <time>2016-05-15T08:33:48.000Z</time>
      </trkpt>
      <trkpt lat="43.95448" lon="7.24205">
        <ele>1461</ele>
        <time>2016-05-15T08:33:54.000Z</time>
      </trkpt>
      <trkpt lat="43.95444" lon="7.24207">
        <ele>1461</ele>
        <time>2016-05-15T08:33:58.000Z</time>
      </trkpt>
      <trkpt lat="43.95444" lon="7.24207">
        <ele>1461</ele>
        <time>2016-05-15T08:34:00.000Z</time>
      </trkpt>
      <trkpt lat="43.95441" lon="7.2421">
        <ele>1462</ele>
        <time>2016-05-15T08:34:04.000Z</time>
      </trkpt>
      <trkpt lat="43.9544" lon="7.24212">
        <ele>1462</ele>
        <time>2016-05-15T08:34:07.000Z</time>
      </trkpt>
      <trkpt lat="43.9544" lon="7.24213">
        <ele>1462</ele>
        <time>2016-05-15T08:34:10.000Z</time>
      </trkpt>
      <trkpt lat="43.95439" lon="7.24215">
        <ele>1462</ele>
        <time>2016-05-15T08:34:14.000Z</time>
      </trkpt>
      <trkpt lat="43.95439" lon="7.24216">
        <ele>1462</ele>
        <time>2016-05-15T08:34:16.000Z</time>
      </trkpt>
      <trkpt lat="43.95438" lon="7.24216">
        <ele>1462</ele>
        <time>2016-05-15T08:34:17.000Z</time>
      </trkpt>
      <trkpt lat="43.95438" lon="7.24216">
        <ele>1462</ele>
        <time>2016-05-15T08:34:19.000Z</time>
      </trkpt>
      <trkpt lat="43.95438" lon="7.24217">
        <ele>1462</ele>
        <time>2016-05-15T08:34:21.000Z</time>
      </trkpt>
      <trkpt lat="43.95436" lon="7.24219">
        <ele>1462</ele>
        <time>2016-05-15T08:34:25.000Z</time>
      </trkpt>
      <trkpt lat="43.95435" lon="7.2422">
        <ele>1463</ele>
        <time>2016-05-15T08:34:27.000Z</time>
      </trkpt>
      <trkpt lat="43.95434" lon="7.2422">
        <ele>1463</ele>
        <time>2016-05-15T08:34:32.000Z</time>
      </trkpt>
      <trkpt lat="43.95432" lon="7.24219">
        <ele>1463</ele>
        <time>2016-05-15T08:34:33.000Z</time>
      </trkpt>
      <trkpt lat="43.95432" lon="7.24219">
        <ele>1463</ele>
        <time>2016-05-15T08:34:36.000Z</time>
      </trkpt>
      <trkpt lat="43.95432" lon="7.2422">
        <ele>1463</ele>
        <time>2016-05-15T08:34:38.000Z</time>
      </trkpt>
      <trkpt lat="43.95431" lon="7.24221">
        <ele>1463</ele>
        <time>2016-05-15T08:34:41.000Z</time>
      </trkpt>
      <trkpt lat="43.95429" lon="7.24223">
        <ele>1464</ele>
        <time>2016-05-15T08:34:45.000Z</time>
      </trkpt>
      <trkpt lat="43.95427" lon="7.24225">
        <ele>1464</ele>
        <time>2016-05-15T08:34:48.000Z</time>
      </trkpt>
      <trkpt lat="43.95426" lon="7.24226">
        <ele>1464</ele>
        <time>2016-05-15T08:34:51.000Z</time>
      </trkpt>
      <trkpt lat="43.95423" lon="7.24229">
        <ele>1465</ele>
        <time>2016-05-15T08:34:56.000Z</time>
      </trkpt>
      <trkpt lat="43.9542" lon="7.24232">
        <ele>1465</ele>
        <time>2016-05-15T08:35:01.000Z</time>
      </trkpt>
      <trkpt lat="43.9542" lon="7.24232">
        <ele>1465</ele>
        <time>2016-05-15T08:35:04.000Z</time>
      </trkpt>
      <trkpt lat="43.9542" lon="7.24233">
        <ele>1466</ele>
        <time>2016-05-15T08:35:05.000Z</time>
      </trkpt>
      <trkpt lat="43.95417" lon="7.24234">
        <ele>1466</ele>
        <time>2016-05-15T08:35:10.000Z</time>
      </trkpt>
      <trkpt lat="43.95415" lon="7.24236">
        <ele>1477</ele>
        <time>2016-05-15T08:35:16.000Z</time>
      </trkpt>
      <trkpt lat="43.95413" lon="7.24238">
        <ele>1476</ele>
        <time>2016-05-15T08:35:18.000Z</time>
      </trkpt>
      <trkpt lat="43.95411" lon="7.24239">
        <ele>1477</ele>
        <time>2016-05-15T08:35:22.000Z</time>
      </trkpt>
      <trkpt lat="43.9541" lon="7.24241">
        <ele>1476</ele>
        <time>2016-05-15T08:35:26.000Z</time>
      </trkpt>
      <trkpt lat="43.9541" lon="7.24242">
        <ele>1476</ele>
        <time>2016-05-15T08:35:27.000Z</time>
      </trkpt>
      <trkpt lat="43.95407" lon="7.24245">
        <ele>1476</ele>
        <time>2016-05-15T08:35:32.000Z</time>
      </trkpt>
      <trkpt lat="43.95406" lon="7.24246">
        <ele>1476</ele>
        <time>2016-05-15T08:35:34.000Z</time>
      </trkpt>
      <trkpt lat="43.95406" lon="7.24249">
        <ele>1476</ele>
        <time>2016-05-15T08:35:40.000Z</time>
      </trkpt>
      <trkpt lat="43.95406" lon="7.24249">
        <ele>1476</ele>
        <time>2016-05-15T08:35:41.000Z</time>
      </trkpt>
      <trkpt lat="43.95406" lon="7.24251">
        <ele>1468</ele>
        <time>2016-05-15T08:35:44.000Z</time>
      </trkpt>
      <trkpt lat="43.95405" lon="7.24253">
        <ele>1468</ele>
        <time>2016-05-15T08:35:48.000Z</time>
      </trkpt>
      <trkpt lat="43.95404" lon="7.24254">
        <ele>1468</ele>
        <time>2016-05-15T08:35:50.000Z</time>
      </trkpt>
      <trkpt lat="43.95403" lon="7.24258">
        <ele>1467</ele>
        <time>2016-05-15T08:35:55.000Z</time>
      </trkpt>
      <trkpt lat="43.95403" lon="7.24259">
        <ele>1467</ele>
        <time>2016-05-15T08:35:57.000Z</time>
      </trkpt>
      <trkpt lat="43.95402" lon="7.24262">
        <ele>1467</ele>
        <time>2016-05-15T08:36:01.000Z</time>
      </trkpt>
      <trkpt lat="43.95399" lon="7.24264">
        <ele>1466</ele>
        <time>2016-05-15T08:36:06.000Z</time>
      </trkpt>
      <trkpt lat="43.95391" lon="7.24263">
        <ele>1466</ele>
        <time>2016-05-15T08:36:10.000Z</time>
      </trkpt>
      <trkpt lat="43.95376" lon="7.24266">
        <ele>1467</ele>
        <time>2016-05-15T08:36:16.000Z</time>
      </trkpt>
      <trkpt lat="43.9536" lon="7.24265">
        <ele>1470</ele>
        <time>2016-05-15T08:36:21.000Z</time>
      </trkpt>
      <trkpt lat="43.95342" lon="7.2427">
        <ele>1472</ele>
        <time>2016-05-15T08:36:25.000Z</time>
      </trkpt>
      <trkpt lat="43.95339" lon="7.2427">
        <ele>1473</ele>
        <time>2016-05-15T08:36:26.000Z</time>
      </trkpt>
      <trkpt lat="43.95333" lon="7.24269">
        <ele>1479</ele>
        <time>2016-05-15T08:36:30.000Z</time>
      </trkpt>
      <trkpt lat="43.9533" lon="7.2427">
        <ele>1479</ele>
        <time>2016-05-15T08:36:36.000Z</time>
      </trkpt>
      <trkpt lat="43.95327" lon="7.24271">
        <ele>1479</ele>
        <time>2016-05-15T08:36:39.000Z</time>
      </trkpt>
      <trkpt lat="43.95326" lon="7.24272">
        <ele>1478</ele>
        <time>2016-05-15T08:36:41.000Z</time>
      </trkpt>
      <trkpt lat="43.95325" lon="7.24272">
        <ele>1478</ele>
        <time>2016-05-15T08:36:42.000Z</time>
      </trkpt>
      <trkpt lat="43.95322" lon="7.24271">
        <ele>1478</ele>
        <time>2016-05-15T08:36:45.000Z</time>
      </trkpt>
      <trkpt lat="43.95321" lon="7.24271">
        <ele>1478</ele>
        <time>2016-05-15T08:36:46.000Z</time>
      </trkpt>
      <trkpt lat="43.95316" lon="7.2427">
        <ele>1478</ele>
        <time>2016-05-15T08:36:52.000Z</time>
      </trkpt>
      <trkpt lat="43.95315" lon="7.24269">
        <ele>1478</ele>
        <time>2016-05-15T08:36:53.000Z</time>
      </trkpt>
      <trkpt lat="43.95314" lon="7.24269">
        <ele>1478</ele>
        <time>2016-05-15T08:36:54.000Z</time>
      </trkpt>
      <trkpt lat="43.95311" lon="7.24268">
        <ele>1478</ele>
        <time>2016-05-15T08:36:58.000Z</time>
      </trkpt>
      <trkpt lat="43.95311" lon="7.24269">
        <ele>1478</ele>
        <time>2016-05-15T08:36:59.000Z</time>
      </trkpt>
      <trkpt lat="43.95309" lon="7.24269">
        <ele>1478</ele>
        <time>2016-05-15T08:37:01.000Z</time>
      </trkpt>
      <trkpt lat="43.95309" lon="7.24269">
        <ele>1478</ele>
        <time>2016-05-15T08:37:04.000Z</time>
      </trkpt>
      <trkpt lat="43.95303" lon="7.24272">
        <ele>1477</ele>
        <time>2016-05-15T08:37:14.000Z</time>
      </trkpt>
      <trkpt lat="43.953" lon="7.24273">
        <ele>1477</ele>
        <time>2016-05-15T08:37:16.000Z</time>
      </trkpt>
      <trkpt lat="43.95295" lon="7.24274">
        <ele>1477</ele>
        <time>2016-05-15T08:37:20.000Z</time>
      </trkpt>
      <trkpt lat="43.95292" lon="7.24273">
        <ele>1478</ele>
        <time>2016-05-15T08:37:23.000Z</time>
      </trkpt>
      <trkpt lat="43.95289" lon="7.24272">
        <ele>1479</ele>
        <time>2016-05-15T08:37:26.000Z</time>
      </trkpt>
      <trkpt lat="43.95289" lon="7.24271">
        <ele>1479</ele>
        <time>2016-05-15T08:37:28.000Z</time>
      </trkpt>
      <trkpt lat="43.95288" lon="7.2427">
        <ele>1479</ele>
        <time>2016-05-15T08:37:31.000Z</time>
      </trkpt>
      <trkpt lat="43.95284" lon="7.24269">
        <ele>1480</ele>
        <time>2016-05-15T08:37:36.000Z</time>
      </trkpt>
      <trkpt lat="43.95281" lon="7.2427">
        <ele>1480</ele>
        <time>2016-05-15T08:37:39.000Z</time>
      </trkpt>
      <trkpt lat="43.95278" lon="7.24271">
        <ele>1480</ele>
        <time>2016-05-15T08:37:42.000Z</time>
      </trkpt>
      <trkpt lat="43.95272" lon="7.24276">
        <ele>1480</ele>
        <time>2016-05-15T08:37:45.000Z</time>
      </trkpt>
      <trkpt lat="43.95257" lon="7.24291">
        <ele>1476</ele>
        <time>2016-05-15T08:37:50.000Z</time>
      </trkpt>
      <trkpt lat="43.95249" lon="7.24299">
        <ele>1483</ele>
        <time>2016-05-15T08:37:53.000Z</time>
      </trkpt>
      <trkpt lat="43.95246" lon="7.24299">
        <ele>1483</ele>
        <time>2016-05-15T08:37:54.000Z</time>
      </trkpt>
      <trkpt lat="43.95232" lon="7.24302">
        <ele>1483</ele>
        <time>2016-05-15T08:37:58.000Z</time>
      </trkpt>
      <trkpt lat="43.95228" lon="7.243">
        <ele>1484</ele>
        <time>2016-05-15T08:38:02.000Z</time>
      </trkpt>
      <trkpt lat="43.95224" lon="7.24302">
        <ele>1484</ele>
        <time>2016-05-15T08:38:08.000Z</time>
      </trkpt>
      <trkpt lat="43.95224" lon="7.24302">
        <ele>1484</ele>
        <time>2016-05-15T08:38:10.000Z</time>
      </trkpt>
      <trkpt lat="43.95221" lon="7.24302">
        <ele>1485</ele>
        <time>2016-05-15T08:38:15.000Z</time>
      </trkpt>
      <trkpt lat="43.9522" lon="7.24302">
        <ele>1485</ele>
        <time>2016-05-15T08:38:16.000Z</time>
      </trkpt>
      <trkpt lat="43.95215" lon="7.24304">
        <ele>1485</ele>
        <time>2016-05-15T08:38:23.000Z</time>
      </trkpt>
      <trkpt lat="43.95214" lon="7.24306">
        <ele>1485</ele>
        <time>2016-05-15T08:38:25.000Z</time>
      </trkpt>
      <trkpt lat="43.95212" lon="7.24307">
        <ele>1485</ele>
        <time>2016-05-15T08:38:29.000Z</time>
      </trkpt>
      <trkpt lat="43.9521" lon="7.24307">
        <ele>1485</ele>
        <time>2016-05-15T08:38:32.000Z</time>
      </trkpt>
      <trkpt lat="43.95207" lon="7.24304">
        <ele>1486</ele>
        <time>2016-05-15T08:38:37.000Z</time>
      </trkpt>
      <trkpt lat="43.95205" lon="7.243">
        <ele>1487</ele>
        <time>2016-05-15T08:38:42.000Z</time>
      </trkpt>
      <trkpt lat="43.95205" lon="7.24299">
        <ele>1487</ele>
        <time>2016-05-15T08:38:43.000Z</time>
      </trkpt>
      <trkpt lat="43.95202" lon="7.24296">
        <ele>1488</ele>
        <time>2016-05-15T08:38:47.000Z</time>
      </trkpt>
      <trkpt lat="43.95198" lon="7.24295">
        <ele>1488</ele>
        <time>2016-05-15T08:38:52.000Z</time>
      </trkpt>
      <trkpt lat="43.95197" lon="7.24293">
        <ele>1489</ele>
        <time>2016-05-15T08:38:57.000Z</time>
      </trkpt>
      <trkpt lat="43.95197" lon="7.24295">
        <ele>1488</ele>
        <time>2016-05-15T08:39:00.000Z</time>
      </trkpt>
      <trkpt lat="43.95198" lon="7.24295">
        <ele>1488</ele>
        <time>2016-05-15T08:39:01.000Z</time>
      </trkpt>
      <trkpt lat="43.95201" lon="7.24296">
        <ele>1488</ele>
        <time>2016-05-15T08:39:06.000Z</time>
      </trkpt>
      <trkpt lat="43.95203" lon="7.24296">
        <ele>1488</ele>
        <time>2016-05-15T08:39:08.000Z</time>
      </trkpt>
      <trkpt lat="43.95204" lon="7.24298">
        <ele>1487</ele>
        <time>2016-05-15T08:39:12.000Z</time>
      </trkpt>
      <trkpt lat="43.95204" lon="7.24298">
        <ele>1487</ele>
        <time>2016-05-15T08:39:15.000Z</time>
      </trkpt>
      <trkpt lat="43.95203" lon="7.24298">
        <ele>1487</ele>
        <time>2016-05-15T08:39:18.000Z</time>
      </trkpt>
      <trkpt lat="43.95202" lon="7.24297">
        <ele>1488</ele>
        <time>2016-05-15T08:39:21.000Z</time>
      </trkpt>
      <trkpt lat="43.95202" lon="7.24298">
        <ele>1488</ele>
        <time>2016-05-15T08:39:23.000Z</time>
      </trkpt>
      <trkpt lat="43.95204" lon="7.24299">
        <ele>1487</ele>
        <time>2016-05-15T08:39:26.000Z</time>
      </trkpt>
      <trkpt lat="43.95206" lon="7.243">
        <ele>1487</ele>
        <time>2016-05-15T08:39:29.000Z</time>
      </trkpt>
      <trkpt lat="43.95208" lon="7.24301">
        <ele>1487</ele>
        <time>2016-05-15T08:39:34.000Z</time>
      </trkpt>
      <trkpt lat="43.95206" lon="7.24305">
        <ele>1486</ele>
        <time>2016-05-15T08:39:40.000Z</time>
      </trkpt>
      <trkpt lat="43.95206" lon="7.24305">
        <ele>1486</ele>
        <time>2016-05-15T08:39:41.000Z</time>
      </trkpt>
      <trkpt lat="43.95204" lon="7.24308">
        <ele>1486</ele>
        <time>2016-05-15T08:39:46.000Z</time>
      </trkpt>
      <trkpt lat="43.95201" lon="7.2431">
        <ele>1487</ele>
        <time>2016-05-15T08:39:49.000Z</time>
      </trkpt>
      <trkpt lat="43.95199" lon="7.24312">
        <ele>1487</ele>
        <time>2016-05-15T08:39:53.000Z</time>
      </trkpt>
      <trkpt lat="43.95197" lon="7.24313">
        <ele>1487</ele>
        <time>2016-05-15T08:39:56.000Z</time>
      </trkpt>
      <trkpt lat="43.95195" lon="7.24314">
        <ele>1487</ele>
        <time>2016-05-15T08:39:58.000Z</time>
      </trkpt>
      <trkpt lat="43.95192" lon="7.24316">
        <ele>1488</ele>
        <time>2016-05-15T08:40:04.000Z</time>
      </trkpt>
      <trkpt lat="43.95191" lon="7.2432">
        <ele>1488</ele>
        <time>2016-05-15T08:40:11.000Z</time>
      </trkpt>
      <trkpt lat="43.95187" lon="7.24323">
        <ele>1488</ele>
        <time>2016-05-15T08:40:17.000Z</time>
      </trkpt>
      <trkpt lat="43.95184" lon="7.24325">
        <ele>1489</ele>
        <time>2016-05-15T08:40:21.000Z</time>
      </trkpt>
      <trkpt lat="43.95183" lon="7.24326">
        <ele>1489</ele>
        <time>2016-05-15T08:40:23.000Z</time>
      </trkpt>
      <trkpt lat="43.9518" lon="7.24326">
        <ele>1490</ele>
        <time>2016-05-15T08:40:29.000Z</time>
      </trkpt>
      <trkpt lat="43.95177" lon="7.24323">
        <ele>1490</ele>
        <time>2016-05-15T08:40:36.000Z</time>
      </trkpt>
      <trkpt lat="43.95173" lon="7.2432">
        <ele>1490</ele>
        <time>2016-05-15T08:40:39.000Z</time>
      </trkpt>
      <trkpt lat="43.95173" lon="7.24319">
        <ele>1490</ele>
        <time>2016-05-15T08:40:42.000Z</time>
      </trkpt>
      <trkpt lat="43.95172" lon="7.24319">
        <ele>1490</ele>
        <time>2016-05-15T08:40:44.000Z</time>
      </trkpt>
      <trkpt lat="43.95171" lon="7.2432">
        <ele>1490</ele>
        <time>2016-05-15T08:40:46.000Z</time>
      </trkpt>
      <trkpt lat="43.95171" lon="7.24321">
        <ele>1490</ele>
        <time>2016-05-15T08:40:49.000Z</time>
      </trkpt>
      <trkpt lat="43.9517" lon="7.24322">
        <ele>1491</ele>
        <time>2016-05-15T08:40:52.000Z</time>
      </trkpt>
      <trkpt lat="43.9517" lon="7.24324">
        <ele>1491</ele>
        <time>2016-05-15T08:40:53.000Z</time>
      </trkpt>
      <trkpt lat="43.9517" lon="7.24327">
        <ele>1491</ele>
        <time>2016-05-15T08:40:58.000Z</time>
      </trkpt>
      <trkpt lat="43.9517" lon="7.24328">
        <ele>1491</ele>
        <time>2016-05-15T08:40:59.000Z</time>
      </trkpt>
      <trkpt lat="43.95169" lon="7.24329">
        <ele>1492</ele>
        <time>2016-05-15T08:41:03.000Z</time>
      </trkpt>
      <trkpt lat="43.95168" lon="7.24331">
        <ele>1492</ele>
        <time>2016-05-15T08:41:07.000Z</time>
      </trkpt>
      <trkpt lat="43.95166" lon="7.24331">
        <ele>1494</ele>
        <time>2016-05-15T08:41:09.000Z</time>
      </trkpt>
      <trkpt lat="43.95165" lon="7.24331">
        <ele>1494</ele>
        <time>2016-05-15T08:41:13.000Z</time>
      </trkpt>
      <trkpt lat="43.95166" lon="7.24333">
        <ele>1493</ele>
        <time>2016-05-15T08:41:17.000Z</time>
      </trkpt>
      <trkpt lat="43.95166" lon="7.24333">
        <ele>1493</ele>
        <time>2016-05-15T08:41:19.000Z</time>
      </trkpt>
      <trkpt lat="43.95165" lon="7.24335">
        <ele>1493</ele>
        <time>2016-05-15T08:41:24.000Z</time>
      </trkpt>
      <trkpt lat="43.95165" lon="7.24336">
        <ele>1493</ele>
        <time>2016-05-15T08:41:26.000Z</time>
      </trkpt>
      <trkpt lat="43.95162" lon="7.24337">
        <ele>1492</ele>
        <time>2016-05-15T08:41:30.000Z</time>
      </trkpt>
      <trkpt lat="43.95162" lon="7.24337">
        <ele>1492</ele>
        <time>2016-05-15T08:41:31.000Z</time>
      </trkpt>
      <trkpt lat="43.95162" lon="7.24339">
        <ele>1492</ele>
        <time>2016-05-15T08:41:37.000Z</time>
      </trkpt>
      <trkpt lat="43.95163" lon="7.24341">
        <ele>1492</ele>
        <time>2016-05-15T08:41:38.000Z</time>
      </trkpt>
      <trkpt lat="43.95161" lon="7.24345">
        <ele>1491</ele>
        <time>2016-05-15T08:41:44.000Z</time>
      </trkpt>
      <trkpt lat="43.9516" lon="7.24346">
        <ele>1491</ele>
        <time>2016-05-15T08:41:45.000Z</time>
      </trkpt>
      <trkpt lat="43.95159" lon="7.2435">
        <ele>1491</ele>
        <time>2016-05-15T08:41:51.000Z</time>
      </trkpt>
      <trkpt lat="43.95159" lon="7.2435">
        <ele>1491</ele>
        <time>2016-05-15T08:41:52.000Z</time>
      </trkpt>
      <trkpt lat="43.95164" lon="7.24353">
        <ele>1490</ele>
        <time>2016-05-15T08:41:58.000Z</time>
      </trkpt>
      <trkpt lat="43.95165" lon="7.24353">
        <ele>1490</ele>
        <time>2016-05-15T08:41:59.000Z</time>
      </trkpt>
      <trkpt lat="43.95166" lon="7.24356">
        <ele>1489</ele>
        <time>2016-05-15T08:42:03.000Z</time>
      </trkpt>
      <trkpt lat="43.95165" lon="7.24358">
        <ele>1489</ele>
        <time>2016-05-15T08:42:07.000Z</time>
      </trkpt>
      <trkpt lat="43.95164" lon="7.24359">
        <ele>1488</ele>
        <time>2016-05-15T08:42:09.000Z</time>
      </trkpt>
      <trkpt lat="43.95158" lon="7.2436">
        <ele>1489</ele>
        <time>2016-05-15T08:42:15.000Z</time>
      </trkpt>
      <trkpt lat="43.95146" lon="7.24366">
        <ele>1489</ele>
        <time>2016-05-15T08:42:23.000Z</time>
      </trkpt>
      <trkpt lat="43.95145" lon="7.24367">
        <ele>1488</ele>
        <time>2016-05-15T08:42:24.000Z</time>
      </trkpt>
      <trkpt lat="43.95134" lon="7.24372">
        <ele>1489</ele>
        <time>2016-05-15T08:42:31.000Z</time>
      </trkpt>
      <trkpt lat="43.95125" lon="7.24367">
        <ele>1493</ele>
        <time>2016-05-15T08:42:38.000Z</time>
      </trkpt>
      <trkpt lat="43.9512" lon="7.24364">
        <ele>1495</ele>
        <time>2016-05-15T08:42:45.000Z</time>
      </trkpt>
      <trkpt lat="43.95112" lon="7.24366">
        <ele>1496</ele>
        <time>2016-05-15T08:42:50.000Z</time>
      </trkpt>
      <trkpt lat="43.95106" lon="7.24371">
        <ele>1496</ele>
        <time>2016-05-15T08:42:54.000Z</time>
      </trkpt>
      <trkpt lat="43.95101" lon="7.24374">
        <ele>1497</ele>
        <time>2016-05-15T08:42:57.000Z</time>
      </trkpt>
      <trkpt lat="43.95098" lon="7.24373">
        <ele>1498</ele>
        <time>2016-05-15T08:42:59.000Z</time>
      </trkpt>
      <trkpt lat="43.95098" lon="7.24372">
        <ele>1498</ele>
        <time>2016-05-15T08:43:01.000Z</time>
      </trkpt>
      <trkpt lat="43.95097" lon="7.24372">
        <ele>1498</ele>
        <time>2016-05-15T08:43:02.000Z</time>
      </trkpt>
      <trkpt lat="43.95095" lon="7.24371">
        <ele>1499</ele>
        <time>2016-05-15T08:43:07.000Z</time>
      </trkpt>
      <trkpt lat="43.95089" lon="7.24368">
        <ele>1500</ele>
        <time>2016-05-15T08:43:14.000Z</time>
      </trkpt>
      <trkpt lat="43.95088" lon="7.24368">
        <ele>1501</ele>
        <time>2016-05-15T08:43:16.000Z</time>
      </trkpt>
      <trkpt lat="43.95083" lon="7.24366">
        <ele>1520</ele>
        <time>2016-05-15T08:43:21.000Z</time>
      </trkpt>
      <trkpt lat="43.95082" lon="7.24365">
        <ele>1520</ele>
        <time>2016-05-15T08:43:23.000Z</time>
      </trkpt>
      <trkpt lat="43.95081" lon="7.24359">
        <ele>1521</ele>
        <time>2016-05-15T08:43:30.000Z</time>
      </trkpt>
      <trkpt lat="43.95077" lon="7.24354">
        <ele>1522</ele>
        <time>2016-05-15T08:43:38.000Z</time>
      </trkpt>
      <trkpt lat="43.95077" lon="7.24355">
        <ele>1522</ele>
        <time>2016-05-15T08:43:46.000Z</time>
      </trkpt>
      <trkpt lat="43.95076" lon="7.24355">
        <ele>1522</ele>
        <time>2016-05-15T08:44:01.000Z</time>
      </trkpt>
      <trkpt lat="43.95074" lon="7.24355">
        <ele>1522</ele>
        <time>2016-05-15T08:44:22.000Z</time>
      </trkpt>
      <trkpt lat="43.95073" lon="7.24355">
        <ele>1522</ele>
        <time>2016-05-15T08:44:33.000Z</time>
      </trkpt>
      <trkpt lat="43.95072" lon="7.24355">
        <ele>1522</ele>
        <time>2016-05-15T08:44:43.000Z</time>
      </trkpt>
      <trkpt lat="43.95071" lon="7.24355">
        <ele>1522</ele>
        <time>2016-05-15T08:44:49.000Z</time>
      </trkpt>
      <trkpt lat="43.9507" lon="7.24354">
        <ele>1522</ele>
        <time>2016-05-15T08:44:50.000Z</time>
      </trkpt>
      <trkpt lat="43.95065" lon="7.24346">
        <ele>1523</ele>
        <time>2016-05-15T08:44:54.000Z</time>
      </trkpt>
      <trkpt lat="43.9506" lon="7.24337">
        <ele>1523</ele>
        <time>2016-05-15T08:44:57.000Z</time>
      </trkpt>
      <trkpt lat="43.95059" lon="7.24333">
        <ele>1511</ele>
        <time>2016-05-15T08:44:59.000Z</time>
      </trkpt>
      <trkpt lat="43.95055" lon="7.24321">
        <ele>1508</ele>
        <time>2016-05-15T08:45:05.000Z</time>
      </trkpt>
      <trkpt lat="43.95051" lon="7.24315">
        <ele>1507</ele>
        <time>2016-05-15T08:45:09.000Z</time>
      </trkpt>
      <trkpt lat="43.9505" lon="7.24314">
        <ele>1506</ele>
        <time>2016-05-15T08:45:11.000Z</time>
      </trkpt>
      <trkpt lat="43.9505" lon="7.24314">
        <ele>1506</ele>
        <time>2016-05-15T08:45:12.000Z</time>
      </trkpt>
      <trkpt lat="43.9505" lon="7.24314">
        <ele>1506</ele>
        <time>2016-05-15T08:45:17.000Z</time>
      </trkpt>
      <trkpt lat="43.95049" lon="7.24314">
        <ele>1506</ele>
        <time>2016-05-15T08:45:27.000Z</time>
      </trkpt>
      <trkpt lat="43.95042" lon="7.24317">
        <ele>1507</ele>
        <time>2016-05-15T08:45:32.000Z</time>
      </trkpt>
      <trkpt lat="43.95039" lon="7.24322">
        <ele>1508</ele>
        <time>2016-05-15T08:45:35.000Z</time>
      </trkpt>
      <trkpt lat="43.95037" lon="7.24322">
        <ele>1508</ele>
        <time>2016-05-15T08:45:36.000Z</time>
      </trkpt>
      <trkpt lat="43.95035" lon="7.24323">
        <ele>1508</ele>
        <time>2016-05-15T08:45:38.000Z</time>
      </trkpt>
      <trkpt lat="43.95034" lon="7.24323">
        <ele>1508</ele>
        <time>2016-05-15T08:45:39.000Z</time>
      </trkpt>
      <trkpt lat="43.95031" lon="7.24327">
        <ele>1509</ele>
        <time>2016-05-15T08:45:42.000Z</time>
      </trkpt>
      <trkpt lat="43.95028" lon="7.24331">
        <ele>1510</ele>
        <time>2016-05-15T08:45:44.000Z</time>
      </trkpt>
      <trkpt lat="43.9502" lon="7.24333">
        <ele>1512</ele>
        <time>2016-05-15T08:45:46.000Z</time>
      </trkpt>
      <trkpt lat="43.95017" lon="7.24334">
        <ele>1525</ele>
        <time>2016-05-15T08:45:47.000Z</time>
      </trkpt>
      <trkpt lat="43.95012" lon="7.24338">
        <ele>1525</ele>
        <time>2016-05-15T08:45:49.000Z</time>
      </trkpt>
      <trkpt lat="43.95011" lon="7.2434">
        <ele>1525</ele>
        <time>2016-05-15T08:45:50.000Z</time>
      </trkpt>
      <trkpt lat="43.9501" lon="7.24343">
        <ele>1525</ele>
        <time>2016-05-15T08:45:51.000Z</time>
      </trkpt>
      <trkpt lat="43.95009" lon="7.24344">
        <ele>1525</ele>
        <time>2016-05-15T08:45:52.000Z</time>
      </trkpt>
      <trkpt lat="43.95008" lon="7.24345">
        <ele>1525</ele>
        <time>2016-05-15T08:45:53.000Z</time>
      </trkpt>
      <trkpt lat="43.95007" lon="7.24346">
        <ele>1525</ele>
        <time>2016-05-15T08:45:54.000Z</time>
      </trkpt>
      <trkpt lat="43.95004" lon="7.24347">
        <ele>1525</ele>
        <time>2016-05-15T08:45:56.000Z</time>
      </trkpt>
      <trkpt lat="43.95001" lon="7.24349">
        <ele>1525</ele>
        <time>2016-05-15T08:45:57.000Z</time>
      </trkpt>
      <trkpt lat="43.95" lon="7.24352">
        <ele>1525</ele>
        <time>2016-05-15T08:45:58.000Z</time>
      </trkpt>
      <trkpt lat="43.9499" lon="7.24357">
        <ele>1524</ele>
        <time>2016-05-15T08:46:01.000Z</time>
      </trkpt>
      <trkpt lat="43.94987" lon="7.24358">
        <ele>1524</ele>
        <time>2016-05-15T08:46:02.000Z</time>
      </trkpt>
      <trkpt lat="43.94979" lon="7.24361">
        <ele>1523</ele>
        <time>2016-05-15T08:46:04.000Z</time>
      </trkpt>
      <trkpt lat="43.94976" lon="7.24361">
        <ele>1523</ele>
        <time>2016-05-15T08:46:05.000Z</time>
      </trkpt>
      <trkpt lat="43.94971" lon="7.24359">
        <ele>1522</ele>
        <time>2016-05-15T08:46:06.000Z</time>
      </trkpt>
      <trkpt lat="43.94963" lon="7.24354">
        <ele>1520</ele>
        <time>2016-05-15T08:46:08.000Z</time>
      </trkpt>
      <trkpt lat="43.9496" lon="7.2435">
        <ele>1519</ele>
        <time>2016-05-15T08:46:09.000Z</time>
      </trkpt>
      <trkpt lat="43.94948" lon="7.24346">
        <ele>1516</ele>
        <time>2016-05-15T08:46:13.000Z</time>
      </trkpt>
      <trkpt lat="43.94945" lon="7.24345">
        <ele>1515</ele>
        <time>2016-05-15T08:46:14.000Z</time>
      </trkpt>
      <trkpt lat="43.94941" lon="7.2434">
        <ele>1513</ele>
        <time>2016-05-15T08:46:17.000Z</time>
      </trkpt>
      <trkpt lat="43.94933" lon="7.24342">
        <ele>1510</ele>
        <time>2016-05-15T08:46:21.000Z</time>
      </trkpt>
      <trkpt lat="43.94922" lon="7.24356">
        <ele>1512</ele>
        <time>2016-05-15T08:46:26.000Z</time>
      </trkpt>
      <trkpt lat="43.94918" lon="7.24362">
        <ele>1514</ele>
        <time>2016-05-15T08:46:28.000Z</time>
      </trkpt>
      <trkpt lat="43.94914" lon="7.2437">
        <ele>1495</ele>
        <time>2016-05-15T08:46:30.000Z</time>
      </trkpt>
      <trkpt lat="43.9491" lon="7.24379">
        <ele>1497</ele>
        <time>2016-05-15T08:46:32.000Z</time>
      </trkpt>
      <trkpt lat="43.94903" lon="7.24385">
        <ele>1497</ele>
        <time>2016-05-15T08:46:34.000Z</time>
      </trkpt>
      <trkpt lat="43.949" lon="7.24387">
        <ele>1497</ele>
        <time>2016-05-15T08:46:35.000Z</time>
      </trkpt>
      <trkpt lat="43.94896" lon="7.24391">
        <ele>1498</ele>
        <time>2016-05-15T08:46:37.000Z</time>
      </trkpt>
      <trkpt lat="43.94895" lon="7.24392">
        <ele>1497</ele>
        <time>2016-05-15T08:46:38.000Z</time>
      </trkpt>
      <trkpt lat="43.94891" lon="7.24392">
        <ele>1496</ele>
        <time>2016-05-15T08:46:40.000Z</time>
      </trkpt>
      <trkpt lat="43.94889" lon="7.24393">
        <ele>1495</ele>
        <time>2016-05-15T08:46:41.000Z</time>
      </trkpt>
      <trkpt lat="43.94885" lon="7.24394">
        <ele>1494</ele>
        <time>2016-05-15T08:46:43.000Z</time>
      </trkpt>
      <trkpt lat="43.94882" lon="7.24395">
        <ele>1493</ele>
        <time>2016-05-15T08:46:45.000Z</time>
      </trkpt>
      <trkpt lat="43.94878" lon="7.24395">
        <ele>1492</ele>
        <time>2016-05-15T08:46:47.000Z</time>
      </trkpt>
      <trkpt lat="43.94876" lon="7.24395">
        <ele>1491</ele>
        <time>2016-05-15T08:46:49.000Z</time>
      </trkpt>
      <trkpt lat="43.94873" lon="7.24395">
        <ele>1490</ele>
        <time>2016-05-15T08:46:51.000Z</time>
      </trkpt>
      <trkpt lat="43.94872" lon="7.2439">
        <ele>1489</ele>
        <time>2016-05-15T08:46:54.000Z</time>
      </trkpt>
      <trkpt lat="43.94873" lon="7.24388">
        <ele>1489</ele>
        <time>2016-05-15T08:46:55.000Z</time>
      </trkpt>
      <trkpt lat="43.94875" lon="7.24386">
        <ele>1489</ele>
        <time>2016-05-15T08:46:56.000Z</time>
      </trkpt>
      <trkpt lat="43.94878" lon="7.24379">
        <ele>1489</ele>
        <time>2016-05-15T08:46:59.000Z</time>
      </trkpt>
      <trkpt lat="43.94879" lon="7.24377">
        <ele>1489</ele>
        <time>2016-05-15T08:47:02.000Z</time>
      </trkpt>
      <trkpt lat="43.94879" lon="7.24376">
        <ele>1488</ele>
        <time>2016-05-15T08:47:03.000Z</time>
      </trkpt>
      <trkpt lat="43.94879" lon="7.24375">
        <ele>1488</ele>
        <time>2016-05-15T08:47:05.000Z</time>
      </trkpt>
      <trkpt lat="43.94879" lon="7.24374">
        <ele>1488</ele>
        <time>2016-05-15T08:47:06.000Z</time>
      </trkpt>
      <trkpt lat="43.94879" lon="7.24373">
        <ele>1488</ele>
        <time>2016-05-15T08:47:08.000Z</time>
      </trkpt>
      <trkpt lat="43.94878" lon="7.24371">
        <ele>1487</ele>
        <time>2016-05-15T08:47:12.000Z</time>
      </trkpt>
      <trkpt lat="43.94879" lon="7.24371">
        <ele>1487</ele>
        <time>2016-05-15T08:47:14.000Z</time>
      </trkpt>
      <trkpt lat="43.94881" lon="7.24369">
        <ele>1488</ele>
        <time>2016-05-15T08:47:17.000Z</time>
      </trkpt>
      <trkpt lat="43.94882" lon="7.24366">
        <ele>1487</ele>
        <time>2016-05-15T08:47:18.000Z</time>
      </trkpt>
      <trkpt lat="43.94883" lon="7.24353">
        <ele>1486</ele>
        <time>2016-05-15T08:47:22.000Z</time>
      </trkpt>
      <trkpt lat="43.94884" lon="7.24351">
        <ele>1486</ele>
        <time>2016-05-15T08:47:23.000Z</time>
      </trkpt>
      <trkpt lat="43.94886" lon="7.24348">
        <ele>1486</ele>
        <time>2016-05-15T08:47:25.000Z</time>
      </trkpt>
      <trkpt lat="43.94886" lon="7.24347">
        <ele>1486</ele>
        <time>2016-05-15T08:47:26.000Z</time>
      </trkpt>
      <trkpt lat="43.94887" lon="7.24345">
        <ele>1486</ele>
        <time>2016-05-15T08:47:28.000Z</time>
      </trkpt>
      <trkpt lat="43.94888" lon="7.24338">
        <ele>1486</ele>
        <time>2016-05-15T08:47:31.000Z</time>
      </trkpt>
      <trkpt lat="43.94889" lon="7.24335">
        <ele>1487</ele>
        <time>2016-05-15T08:47:33.000Z</time>
      </trkpt>
      <trkpt lat="43.94888" lon="7.24334">
        <ele>1486</ele>
        <time>2016-05-15T08:47:35.000Z</time>
      </trkpt>
      <trkpt lat="43.94885" lon="7.24332">
        <ele>1467</ele>
        <time>2016-05-15T08:47:41.000Z</time>
      </trkpt>
      <trkpt lat="43.94884" lon="7.24331">
        <ele>1467</ele>
        <time>2016-05-15T08:47:42.000Z</time>
      </trkpt>
      <trkpt lat="43.94884" lon="7.24332">
        <ele>1467</ele>
        <time>2016-05-15T08:47:44.000Z</time>
      </trkpt>
      <trkpt lat="43.9488" lon="7.24331">
        <ele>1465</ele>
        <time>2016-05-15T08:47:48.000Z</time>
      </trkpt>
      <trkpt lat="43.94878" lon="7.24332">
        <ele>1464</ele>
        <time>2016-05-15T08:47:50.000Z</time>
      </trkpt>
      <trkpt lat="43.94876" lon="7.24335">
        <ele>1482</ele>
        <time>2016-05-15T08:47:53.000Z</time>
      </trkpt>
      <trkpt lat="43.94876" lon="7.24336">
        <ele>1482</ele>
        <time>2016-05-15T08:47:56.000Z</time>
      </trkpt>
      <trkpt lat="43.94875" lon="7.24339">
        <ele>1482</ele>
        <time>2016-05-15T08:47:59.000Z</time>
      </trkpt>
      <trkpt lat="43.94875" lon="7.24338">
        <ele>1481</ele>
        <time>2016-05-15T08:48:00.000Z</time>
      </trkpt>
      <trkpt lat="43.94874" lon="7.24339">
        <ele>1481</ele>
        <time>2016-05-15T08:48:03.000Z</time>
      </trkpt>
      <trkpt lat="43.94872" lon="7.24341">
        <ele>1480</ele>
        <time>2016-05-15T08:48:05.000Z</time>
      </trkpt>
      <trkpt lat="43.94869" lon="7.24345">
        <ele>1480</ele>
        <time>2016-05-15T08:48:07.000Z</time>
      </trkpt>
      <trkpt lat="43.94867" lon="7.24348">
        <ele>1479</ele>
        <time>2016-05-15T08:48:08.000Z</time>
      </trkpt>
      <trkpt lat="43.94866" lon="7.24351">
        <ele>1479</ele>
        <time>2016-05-15T08:48:09.000Z</time>
      </trkpt>
      <trkpt lat="43.94862" lon="7.24359">
        <ele>1480</ele>
        <time>2016-05-15T08:48:11.000Z</time>
      </trkpt>
      <trkpt lat="43.94857" lon="7.24364">
        <ele>1479</ele>
        <time>2016-05-15T08:48:13.000Z</time>
      </trkpt>
      <trkpt lat="43.94855" lon="7.24368">
        <ele>1480</ele>
        <time>2016-05-15T08:48:14.000Z</time>
      </trkpt>
      <trkpt lat="43.94843" lon="7.2438">
        <ele>1480</ele>
        <time>2016-05-15T08:48:17.000Z</time>
      </trkpt>
      <trkpt lat="43.94839" lon="7.24383">
        <ele>1480</ele>
        <time>2016-05-15T08:48:18.000Z</time>
      </trkpt>
      <trkpt lat="43.94835" lon="7.24386">
        <ele>1480</ele>
        <time>2016-05-15T08:48:19.000Z</time>
      </trkpt>
      <trkpt lat="43.94829" lon="7.24393">
        <ele>1457</ele>
        <time>2016-05-15T08:48:21.000Z</time>
      </trkpt>
      <trkpt lat="43.94827" lon="7.24396">
        <ele>1458</ele>
        <time>2016-05-15T08:48:22.000Z</time>
      </trkpt>
      <trkpt lat="43.94824" lon="7.24398">
        <ele>1458</ele>
        <time>2016-05-15T08:48:24.000Z</time>
      </trkpt>
      <trkpt lat="43.94818" lon="7.24403">
        <ele>1458</ele>
        <time>2016-05-15T08:48:26.000Z</time>
      </trkpt>
      <trkpt lat="43.94805" lon="7.24411">
        <ele>1454</ele>
        <time>2016-05-15T08:48:30.000Z</time>
      </trkpt>
      <trkpt lat="43.94799" lon="7.24413">
        <ele>1451</ele>
        <time>2016-05-15T08:48:32.000Z</time>
      </trkpt>
      <trkpt lat="43.94794" lon="7.24415">
        <ele>1449</ele>
        <time>2016-05-15T08:48:34.000Z</time>
      </trkpt>
      <trkpt lat="43.9479" lon="7.24418">
        <ele>1467</ele>
        <time>2016-05-15T08:48:36.000Z</time>
      </trkpt>
      <trkpt lat="43.94789" lon="7.24413">
        <ele>1447</ele>
        <time>2016-05-15T08:48:38.000Z</time>
      </trkpt>
      <trkpt lat="43.9479" lon="7.24409">
        <ele>1448</ele>
        <time>2016-05-15T08:48:39.000Z</time>
      </trkpt>
      <trkpt lat="43.94791" lon="7.24404">
        <ele>1447</ele>
        <time>2016-05-15T08:48:40.000Z</time>
      </trkpt>
      <trkpt lat="43.94794" lon="7.24398">
        <ele>1448</ele>
        <time>2016-05-15T08:48:42.000Z</time>
      </trkpt>
      <trkpt lat="43.94796" lon="7.24396">
        <ele>1448</ele>
        <time>2016-05-15T08:48:43.000Z</time>
      </trkpt>
      <trkpt lat="43.94796" lon="7.24393">
        <ele>1448</ele>
        <time>2016-05-15T08:48:44.000Z</time>
      </trkpt>
      <trkpt lat="43.94797" lon="7.24388">
        <ele>1447</ele>
        <time>2016-05-15T08:48:46.000Z</time>
      </trkpt>
      <trkpt lat="43.94796" lon="7.24387">
        <ele>1447</ele>
        <time>2016-05-15T08:48:47.000Z</time>
      </trkpt>
      <trkpt lat="43.94793" lon="7.24388">
        <ele>1446</ele>
        <time>2016-05-15T08:48:49.000Z</time>
      </trkpt>
      <trkpt lat="43.94788" lon="7.24391">
        <ele>1445</ele>
        <time>2016-05-15T08:48:51.000Z</time>
      </trkpt>
      <trkpt lat="43.94784" lon="7.24392">
        <ele>1444</ele>
        <time>2016-05-15T08:48:52.000Z</time>
      </trkpt>
      <trkpt lat="43.94779" lon="7.24396">
        <ele>1443</ele>
        <time>2016-05-15T08:48:54.000Z</time>
      </trkpt>
      <trkpt lat="43.94778" lon="7.24398">
        <ele>1443</ele>
        <time>2016-05-15T08:48:55.000Z</time>
      </trkpt>
      <trkpt lat="43.94776" lon="7.24399">
        <ele>1443</ele>
        <time>2016-05-15T08:48:56.000Z</time>
      </trkpt>
      <trkpt lat="43.94774" lon="7.24398">
        <ele>1442</ele>
        <time>2016-05-15T08:48:57.000Z</time>
      </trkpt>
      <trkpt lat="43.94773" lon="7.24396">
        <ele>1442</ele>
        <time>2016-05-15T08:48:58.000Z</time>
      </trkpt>
      <trkpt lat="43.94774" lon="7.24394">
        <ele>1442</ele>
        <time>2016-05-15T08:48:59.000Z</time>
      </trkpt>
      <trkpt lat="43.94775" lon="7.2439">
        <ele>1442</ele>
        <time>2016-05-15T08:49:00.000Z</time>
      </trkpt>
      <trkpt lat="43.94775" lon="7.24378">
        <ele>1441</ele>
        <time>2016-05-15T08:49:03.000Z</time>
      </trkpt>
      <trkpt lat="43.94777" lon="7.24374">
        <ele>1440</ele>
        <time>2016-05-15T08:49:04.000Z</time>
      </trkpt>
      <trkpt lat="43.9478" lon="7.24368">
        <ele>1440</ele>
        <time>2016-05-15T08:49:06.000Z</time>
      </trkpt>
      <trkpt lat="43.9478" lon="7.24366">
        <ele>1440</ele>
        <time>2016-05-15T08:49:07.000Z</time>
      </trkpt>
      <trkpt lat="43.9478" lon="7.24365">
        <ele>1439</ele>
        <time>2016-05-15T08:49:08.000Z</time>
      </trkpt>
      <trkpt lat="43.94776" lon="7.24362">
        <ele>1438</ele>
        <time>2016-05-15T08:49:10.000Z</time>
      </trkpt>
      <trkpt lat="43.94773" lon="7.24363">
        <ele>1437</ele>
        <time>2016-05-15T08:49:11.000Z</time>
      </trkpt>
      <trkpt lat="43.94771" lon="7.24363">
        <ele>1437</ele>
        <time>2016-05-15T08:49:12.000Z</time>
      </trkpt>
      <trkpt lat="43.94765" lon="7.24365">
        <ele>1436</ele>
        <time>2016-05-15T08:49:14.000Z</time>
      </trkpt>
      <trkpt lat="43.94761" lon="7.24365">
        <ele>1435</ele>
        <time>2016-05-15T08:49:16.000Z</time>
      </trkpt>
      <trkpt lat="43.9476" lon="7.24364">
        <ele>1435</ele>
        <time>2016-05-15T08:49:18.000Z</time>
      </trkpt>
      <trkpt lat="43.94758" lon="7.24363">
        <ele>1434</ele>
        <time>2016-05-15T08:49:20.000Z</time>
      </trkpt>
      <trkpt lat="43.94755" lon="7.24367">
        <ele>1435</ele>
        <time>2016-05-15T08:49:22.000Z</time>
      </trkpt>
      <trkpt lat="43.94752" lon="7.24367">
        <ele>1435</ele>
        <time>2016-05-15T08:49:24.000Z</time>
      </trkpt>
      <trkpt lat="43.9475" lon="7.24361">
        <ele>1409</ele>
        <time>2016-05-15T08:49:27.000Z</time>
      </trkpt>
      <trkpt lat="43.94752" lon="7.24354">
        <ele>1430</ele>
        <time>2016-05-15T08:49:30.000Z</time>
      </trkpt>
      <trkpt lat="43.94752" lon="7.24351">
        <ele>1428</ele>
        <time>2016-05-15T08:49:32.000Z</time>
      </trkpt>
      <trkpt lat="43.94751" lon="7.2435">
        <ele>1428</ele>
        <time>2016-05-15T08:49:33.000Z</time>
      </trkpt>
      <trkpt lat="43.94747" lon="7.24348">
        <ele>1409</ele>
        <time>2016-05-15T08:49:35.000Z</time>
      </trkpt>
      <trkpt lat="43.94744" lon="7.24349">
        <ele>1408</ele>
        <time>2016-05-15T08:49:36.000Z</time>
      </trkpt>
      <trkpt lat="43.94742" lon="7.2435">
        <ele>1408</ele>
        <time>2016-05-15T08:49:37.000Z</time>
      </trkpt>
      <trkpt lat="43.94738" lon="7.24351">
        <ele>1407</ele>
        <time>2016-05-15T08:49:39.000Z</time>
      </trkpt>
      <trkpt lat="43.94736" lon="7.24352">
        <ele>1407</ele>
        <time>2016-05-15T08:49:40.000Z</time>
      </trkpt>
      <trkpt lat="43.94734" lon="7.24352">
        <ele>1406</ele>
        <time>2016-05-15T08:49:42.000Z</time>
      </trkpt>
      <trkpt lat="43.9473" lon="7.24355">
        <ele>1405</ele>
        <time>2016-05-15T08:49:44.000Z</time>
      </trkpt>
      <trkpt lat="43.94727" lon="7.24358">
        <ele>1405</ele>
        <time>2016-05-15T08:49:46.000Z</time>
      </trkpt>
      <trkpt lat="43.94725" lon="7.24358">
        <ele>1404</ele>
        <time>2016-05-15T08:49:47.000Z</time>
      </trkpt>
      <trkpt lat="43.94724" lon="7.24352">
        <ele>1404</ele>
        <time>2016-05-15T08:49:49.000Z</time>
      </trkpt>
      <trkpt lat="43.94723" lon="7.24351">
        <ele>1403</ele>
        <time>2016-05-15T08:49:50.000Z</time>
      </trkpt>
      <trkpt lat="43.94719" lon="7.24353">
        <ele>1402</ele>
        <time>2016-05-15T08:49:52.000Z</time>
      </trkpt>
      <trkpt lat="43.94719" lon="7.24358">
        <ele>1402</ele>
        <time>2016-05-15T08:49:54.000Z</time>
      </trkpt>
      <trkpt lat="43.94717" lon="7.24359">
        <ele>1402</ele>
        <time>2016-05-15T08:49:55.000Z</time>
      </trkpt>
      <trkpt lat="43.94715" lon="7.24358">
        <ele>1401</ele>
        <time>2016-05-15T08:49:56.000Z</time>
      </trkpt>
      <trkpt lat="43.94712" lon="7.24353">
        <ele>1400</ele>
        <time>2016-05-15T08:49:58.000Z</time>
      </trkpt>
      <trkpt lat="43.94709" lon="7.24354">
        <ele>1399</ele>
        <time>2016-05-15T08:50:01.000Z</time>
      </trkpt>
      <trkpt lat="43.94708" lon="7.24353">
        <ele>1399</ele>
        <time>2016-05-15T08:50:03.000Z</time>
      </trkpt>
      <trkpt lat="43.94707" lon="7.24352">
        <ele>1398</ele>
        <time>2016-05-15T08:50:04.000Z</time>
      </trkpt>
      <trkpt lat="43.94704" lon="7.24349">
        <ele>1397</ele>
        <time>2016-05-15T08:50:06.000Z</time>
      </trkpt>
      <trkpt lat="43.94703" lon="7.24349">
        <ele>1396</ele>
        <time>2016-05-15T08:50:07.000Z</time>
      </trkpt>
      <trkpt lat="43.94701" lon="7.24347">
        <ele>1396</ele>
        <time>2016-05-15T08:50:09.000Z</time>
      </trkpt>
      <trkpt lat="43.94702" lon="7.24344">
        <ele>1396</ele>
        <time>2016-05-15T08:50:10.000Z</time>
      </trkpt>
      <trkpt lat="43.94701" lon="7.24341">
        <ele>1395</ele>
        <time>2016-05-15T08:50:12.000Z</time>
      </trkpt>
      <trkpt lat="43.94698" lon="7.24343">
        <ele>1394</ele>
        <time>2016-05-15T08:50:14.000Z</time>
      </trkpt>
      <trkpt lat="43.94696" lon="7.24346">
        <ele>1393</ele>
        <time>2016-05-15T08:50:15.000Z</time>
      </trkpt>
      <trkpt lat="43.94694" lon="7.24348">
        <ele>1393</ele>
        <time>2016-05-15T08:50:16.000Z</time>
      </trkpt>
      <trkpt lat="43.94692" lon="7.24346">
        <ele>1392</ele>
        <time>2016-05-15T08:50:17.000Z</time>
      </trkpt>
      <trkpt lat="43.94692" lon="7.24343">
        <ele>1391</ele>
        <time>2016-05-15T08:50:18.000Z</time>
      </trkpt>
      <trkpt lat="43.94693" lon="7.2434">
        <ele>1391</ele>
        <time>2016-05-15T08:50:19.000Z</time>
      </trkpt>
      <trkpt lat="43.94693" lon="7.24338">
        <ele>1391</ele>
        <time>2016-05-15T08:50:21.000Z</time>
      </trkpt>
      <trkpt lat="43.94691" lon="7.24341">
        <ele>1390</ele>
        <time>2016-05-15T08:50:23.000Z</time>
      </trkpt>
      <trkpt lat="43.94688" lon="7.24341">
        <ele>1389</ele>
        <time>2016-05-15T08:50:25.000Z</time>
      </trkpt>
      <trkpt lat="43.9469" lon="7.24333">
        <ele>1381</ele>
        <time>2016-05-15T08:50:28.000Z</time>
      </trkpt>
      <trkpt lat="43.94691" lon="7.2433">
        <ele>1382</ele>
        <time>2016-05-15T08:50:29.000Z</time>
      </trkpt>
      <trkpt lat="43.9469" lon="7.24322">
        <ele>1381</ele>
        <time>2016-05-15T08:50:32.000Z</time>
      </trkpt>
      <trkpt lat="43.94688" lon="7.2432">
        <ele>1381</ele>
        <time>2016-05-15T08:50:33.000Z</time>
      </trkpt>
      <trkpt lat="43.94687" lon="7.2432">
        <ele>1381</ele>
        <time>2016-05-15T08:50:34.000Z</time>
      </trkpt>
      <trkpt lat="43.94683" lon="7.24321">
        <ele>1379</ele>
        <time>2016-05-15T08:50:36.000Z</time>
      </trkpt>
      <trkpt lat="43.94682" lon="7.24321">
        <ele>1379</ele>
        <time>2016-05-15T08:50:37.000Z</time>
      </trkpt>
      <trkpt lat="43.94679" lon="7.2432">
        <ele>1378</ele>
        <time>2016-05-15T08:50:38.000Z</time>
      </trkpt>
      <trkpt lat="43.94676" lon="7.2432">
        <ele>1378</ele>
        <time>2016-05-15T08:50:40.000Z</time>
      </trkpt>
      <trkpt lat="43.94675" lon="7.2432">
        <ele>1378</ele>
        <time>2016-05-15T08:50:41.000Z</time>
      </trkpt>
      <trkpt lat="43.94673" lon="7.2432">
        <ele>1377</ele>
        <time>2016-05-15T08:50:43.000Z</time>
      </trkpt>
      <trkpt lat="43.9467" lon="7.24319">
        <ele>1377</ele>
        <time>2016-05-15T08:50:46.000Z</time>
      </trkpt>
      <trkpt lat="43.9467" lon="7.24319">
        <ele>1377</ele>
        <time>2016-05-15T08:50:47.000Z</time>
      </trkpt>
      <trkpt lat="43.9467" lon="7.2432">
        <ele>1377</ele>
        <time>2016-05-15T08:50:49.000Z</time>
      </trkpt>
      <trkpt lat="43.94667" lon="7.24317">
        <ele>1377</ele>
        <time>2016-05-15T08:50:52.000Z</time>
      </trkpt>
      <trkpt lat="43.94669" lon="7.24315">
        <ele>1378</ele>
        <time>2016-05-15T08:50:54.000Z</time>
      </trkpt>
      <trkpt lat="43.9467" lon="7.24312">
        <ele>1378</ele>
        <time>2016-05-15T08:50:56.000Z</time>
      </trkpt>
      <trkpt lat="43.9467" lon="7.24312">
        <ele>1378</ele>
        <time>2016-05-15T08:50:57.000Z</time>
      </trkpt>
      <trkpt lat="43.94669" lon="7.2431">
        <ele>1378</ele>
        <time>2016-05-15T08:50:58.000Z</time>
      </trkpt>
      <trkpt lat="43.94669" lon="7.24309">
        <ele>1378</ele>
        <time>2016-05-15T08:50:59.000Z</time>
      </trkpt>
      <trkpt lat="43.94668" lon="7.24306">
        <ele>1378</ele>
        <time>2016-05-15T08:51:01.000Z</time>
      </trkpt>
      <trkpt lat="43.94669" lon="7.24304">
        <ele>1379</ele>
        <time>2016-05-15T08:51:02.000Z</time>
      </trkpt>
      <trkpt lat="43.9467" lon="7.24302">
        <ele>1379</ele>
        <time>2016-05-15T08:51:05.000Z</time>
      </trkpt>
      <trkpt lat="43.9467" lon="7.243">
        <ele>1379</ele>
        <time>2016-05-15T08:51:07.000Z</time>
      </trkpt>
      <trkpt lat="43.94668" lon="7.24299">
        <ele>1379</ele>
        <time>2016-05-15T08:51:10.000Z</time>
      </trkpt>
      <trkpt lat="43.94666" lon="7.24298">
        <ele>1359</ele>
        <time>2016-05-15T08:51:11.000Z</time>
      </trkpt>
      <trkpt lat="43.94657" lon="7.24295">
        <ele>1358</ele>
        <time>2016-05-15T08:51:14.000Z</time>
      </trkpt>
      <trkpt lat="43.94652" lon="7.24293">
        <ele>1358</ele>
        <time>2016-05-15T08:51:15.000Z</time>
      </trkpt>
      <trkpt lat="43.94649" lon="7.2429">
        <ele>1357</ele>
        <time>2016-05-15T08:51:16.000Z</time>
      </trkpt>
      <trkpt lat="43.9464" lon="7.24281">
        <ele>1357</ele>
        <time>2016-05-15T08:51:18.000Z</time>
      </trkpt>
      <trkpt lat="43.94634" lon="7.24275">
        <ele>1356</ele>
        <time>2016-05-15T08:51:19.000Z</time>
      </trkpt>
      <trkpt lat="43.94629" lon="7.24269">
        <ele>1356</ele>
        <time>2016-05-15T08:51:20.000Z</time>
      </trkpt>
      <trkpt lat="43.94625" lon="7.24262">
        <ele>1356</ele>
        <time>2016-05-15T08:51:21.000Z</time>
      </trkpt>
      <trkpt lat="43.94622" lon="7.24254">
        <ele>1356</ele>
        <time>2016-05-15T08:51:22.000Z</time>
      </trkpt>
      <trkpt lat="43.9462" lon="7.24249">
        <ele>1360</ele>
        <time>2016-05-15T08:51:23.000Z</time>
      </trkpt>
      <trkpt lat="43.94617" lon="7.24242">
        <ele>1360</ele>
        <time>2016-05-15T08:51:24.000Z</time>
      </trkpt>
      <trkpt lat="43.94611" lon="7.2423">
        <ele>1360</ele>
        <time>2016-05-15T08:51:26.000Z</time>
      </trkpt>
      <trkpt lat="43.94604" lon="7.24219">
        <ele>1360</ele>
        <time>2016-05-15T08:51:29.000Z</time>
      </trkpt>
      <trkpt lat="43.94603" lon="7.24215">
        <ele>1360</ele>
        <time>2016-05-15T08:51:31.000Z</time>
      </trkpt>
      <trkpt lat="43.94601" lon="7.24214">
        <ele>1360</ele>
        <time>2016-05-15T08:51:33.000Z</time>
      </trkpt>
      <trkpt lat="43.946" lon="7.24212">
        <ele>1361</ele>
        <time>2016-05-15T08:51:34.000Z</time>
      </trkpt>
      <trkpt lat="43.94597" lon="7.24204">
        <ele>1361</ele>
        <time>2016-05-15T08:51:37.000Z</time>
      </trkpt>
      <trkpt lat="43.94596" lon="7.24202">
        <ele>1362</ele>
        <time>2016-05-15T08:51:38.000Z</time>
      </trkpt>
      <trkpt lat="43.94591" lon="7.24191">
        <ele>1363</ele>
        <time>2016-05-15T08:51:42.000Z</time>
      </trkpt>
      <trkpt lat="43.94589" lon="7.24188">
        <ele>1364</ele>
        <time>2016-05-15T08:51:43.000Z</time>
      </trkpt>
      <trkpt lat="43.94584" lon="7.24178">
        <ele>1367</ele>
        <time>2016-05-15T08:51:47.000Z</time>
      </trkpt>
      <trkpt lat="43.94584" lon="7.24177">
        <ele>1367</ele>
        <time>2016-05-15T08:51:48.000Z</time>
      </trkpt>
      <trkpt lat="43.94578" lon="7.24162">
        <ele>1373</ele>
        <time>2016-05-15T08:51:53.000Z</time>
      </trkpt>
      <trkpt lat="43.94574" lon="7.24151">
        <ele>1374</ele>
        <time>2016-05-15T08:51:55.000Z</time>
      </trkpt>
      <trkpt lat="43.94571" lon="7.24146">
        <ele>1374</ele>
        <time>2016-05-15T08:51:56.000Z</time>
      </trkpt>
      <trkpt lat="43.94569" lon="7.24143">
        <ele>1374</ele>
        <time>2016-05-15T08:51:57.000Z</time>
      </trkpt>
      <trkpt lat="43.94565" lon="7.2414">
        <ele>1375</ele>
        <time>2016-05-15T08:51:59.000Z</time>
      </trkpt>
      <trkpt lat="43.94563" lon="7.24136">
        <ele>1375</ele>
        <time>2016-05-15T08:52:01.000Z</time>
      </trkpt>
      <trkpt lat="43.94561" lon="7.24135">
        <ele>1375</ele>
        <time>2016-05-15T08:52:02.000Z</time>
      </trkpt>
      <trkpt lat="43.94558" lon="7.2413">
        <ele>1375</ele>
        <time>2016-05-15T08:52:05.000Z</time>
      </trkpt>
      <trkpt lat="43.94557" lon="7.24126">
        <ele>1375</ele>
        <time>2016-05-15T08:52:07.000Z</time>
      </trkpt>
      <trkpt lat="43.94556" lon="7.24122">
        <ele>1375</ele>
        <time>2016-05-15T08:52:11.000Z</time>
      </trkpt>
      <trkpt lat="43.94555" lon="7.2412">
        <ele>1375</ele>
        <time>2016-05-15T08:52:13.000Z</time>
      </trkpt>
      <trkpt lat="43.94554" lon="7.24114">
        <ele>1374</ele>
        <time>2016-05-15T08:52:17.000Z</time>
      </trkpt>
      <trkpt lat="43.94553" lon="7.24107">
        <ele>1374</ele>
        <time>2016-05-15T08:52:21.000Z</time>
      </trkpt>
      <trkpt lat="43.94553" lon="7.24102">
        <ele>1373</ele>
        <time>2016-05-15T08:52:24.000Z</time>
      </trkpt>
      <trkpt lat="43.94555" lon="7.24098">
        <ele>1372</ele>
        <time>2016-05-15T08:52:28.000Z</time>
      </trkpt>
      <trkpt lat="43.94555" lon="7.24095">
        <ele>1372</ele>
        <time>2016-05-15T08:52:29.000Z</time>
      </trkpt>
      <trkpt lat="43.94554" lon="7.2409">
        <ele>1372</ele>
        <time>2016-05-15T08:52:35.000Z</time>
      </trkpt>
      <trkpt lat="43.94553" lon="7.24085">
        <ele>1372</ele>
        <time>2016-05-15T08:52:38.000Z</time>
      </trkpt>
      <trkpt lat="43.94553" lon="7.24079">
        <ele>1363</ele>
        <time>2016-05-15T08:52:41.000Z</time>
      </trkpt>
      <trkpt lat="43.94552" lon="7.24073">
        <ele>1363</ele>
        <time>2016-05-15T08:52:43.000Z</time>
      </trkpt>
      <trkpt lat="43.94553" lon="7.24065">
        <ele>1363</ele>
        <time>2016-05-15T08:52:46.000Z</time>
      </trkpt>
      <trkpt lat="43.94553" lon="7.24058">
        <ele>1362</ele>
        <time>2016-05-15T08:52:49.000Z</time>
      </trkpt>
      <trkpt lat="43.94554" lon="7.24055">
        <ele>1362</ele>
        <time>2016-05-15T08:52:50.000Z</time>
      </trkpt>
      <trkpt lat="43.94555" lon="7.24043">
        <ele>1361</ele>
        <time>2016-05-15T08:52:55.000Z</time>
      </trkpt>
      <trkpt lat="43.94556" lon="7.24029">
        <ele>1359</ele>
        <time>2016-05-15T08:52:58.000Z</time>
      </trkpt>
      <trkpt lat="43.94555" lon="7.24025">
        <ele>1359</ele>
        <time>2016-05-15T08:52:59.000Z</time>
      </trkpt>
      <trkpt lat="43.94552" lon="7.24017">
        <ele>1359</ele>
        <time>2016-05-15T08:53:01.000Z</time>
      </trkpt>
      <trkpt lat="43.94547" lon="7.24007">
        <ele>1359</ele>
        <time>2016-05-15T08:53:04.000Z</time>
      </trkpt>
      <trkpt lat="43.94547" lon="7.24005">
        <ele>1358</ele>
        <time>2016-05-15T08:53:05.000Z</time>
      </trkpt>
      <trkpt lat="43.94546" lon="7.24004">
        <ele>1359</ele>
        <time>2016-05-15T08:53:07.000Z</time>
      </trkpt>
      <trkpt lat="43.94544" lon="7.23995">
        <ele>1341</ele>
        <time>2016-05-15T08:53:13.000Z</time>
      </trkpt>
      <trkpt lat="43.94543" lon="7.2399">
        <ele>1340</ele>
        <time>2016-05-15T08:53:16.000Z</time>
      </trkpt>
      <trkpt lat="43.94541" lon="7.23986">
        <ele>1340</ele>
        <time>2016-05-15T08:53:20.000Z</time>
      </trkpt>
      <trkpt lat="43.9454" lon="7.23985">
        <ele>1340</ele>
        <time>2016-05-15T08:53:24.000Z</time>
      </trkpt>
      <trkpt lat="43.9454" lon="7.23984">
        <ele>1339</ele>
        <time>2016-05-15T08:53:26.000Z</time>
      </trkpt>
      <trkpt lat="43.94539" lon="7.23983">
        <ele>1339</ele>
        <time>2016-05-15T08:53:32.000Z</time>
      </trkpt>
      <trkpt lat="43.94532" lon="7.23985">
        <ele>1340</ele>
        <time>2016-05-15T08:53:37.000Z</time>
      </trkpt>
      <trkpt lat="43.94526" lon="7.23988">
        <ele>1342</ele>
        <time>2016-05-15T08:53:40.000Z</time>
      </trkpt>
      <trkpt lat="43.94521" lon="7.23991">
        <ele>1344</ele>
        <time>2016-05-15T08:53:42.000Z</time>
      </trkpt>
      <trkpt lat="43.94516" lon="7.23994">
        <ele>1346</ele>
        <time>2016-05-15T08:53:44.000Z</time>
      </trkpt>
      <trkpt lat="43.94501" lon="7.24001">
        <ele>1358</ele>
        <time>2016-05-15T08:53:48.000Z</time>
      </trkpt>
      <trkpt lat="43.94496" lon="7.24005">
        <ele>1361</ele>
        <time>2016-05-15T08:53:49.000Z</time>
      </trkpt>
      <trkpt lat="43.94488" lon="7.24006">
        <ele>1364</ele>
        <time>2016-05-15T08:53:51.000Z</time>
      </trkpt>
      <trkpt lat="43.94484" lon="7.24007">
        <ele>1365</ele>
        <time>2016-05-15T08:53:52.000Z</time>
      </trkpt>
      <trkpt lat="43.94476" lon="7.24011">
        <ele>1366</ele>
        <time>2016-05-15T08:53:54.000Z</time>
      </trkpt>
      <trkpt lat="43.94467" lon="7.24014">
        <ele>1367</ele>
        <time>2016-05-15T08:53:56.000Z</time>
      </trkpt>
      <trkpt lat="43.94454" lon="7.24014">
        <ele>1367</ele>
        <time>2016-05-15T08:53:59.000Z</time>
      </trkpt>
      <trkpt lat="43.9445" lon="7.24015">
        <ele>1367</ele>
        <time>2016-05-15T08:54:00.000Z</time>
      </trkpt>
      <trkpt lat="43.94437" lon="7.24016">
        <ele>1366</ele>
        <time>2016-05-15T08:54:05.000Z</time>
      </trkpt>
      <trkpt lat="43.94422" lon="7.24012">
        <ele>1362</ele>
        <time>2016-05-15T08:54:10.000Z</time>
      </trkpt>
      <trkpt lat="43.94405" lon="7.24013">
        <ele>1363</ele>
        <time>2016-05-15T08:54:15.000Z</time>
      </trkpt>
      <trkpt lat="43.94392" lon="7.24013">
        <ele>1365</ele>
        <time>2016-05-15T08:54:18.000Z</time>
      </trkpt>
      <trkpt lat="43.94381" lon="7.24015">
        <ele>1367</ele>
        <time>2016-05-15T08:54:20.000Z</time>
      </trkpt>
      <trkpt lat="43.94371" lon="7.24013">
        <ele>1366</ele>
        <time>2016-05-15T08:54:22.000Z</time>
      </trkpt>
      <trkpt lat="43.94357" lon="7.24012">
        <ele>1365</ele>
        <time>2016-05-15T08:54:25.000Z</time>
      </trkpt>
      <trkpt lat="43.94352" lon="7.24013">
        <ele>1365</ele>
        <time>2016-05-15T08:54:26.000Z</time>
      </trkpt>
      <trkpt lat="43.94335" lon="7.24012">
        <ele>1362</ele>
        <time>2016-05-15T08:54:30.000Z</time>
      </trkpt>
      <trkpt lat="43.94322" lon="7.24008">
        <ele>1364</ele>
        <time>2016-05-15T08:54:33.000Z</time>
      </trkpt>
      <trkpt lat="43.94313" lon="7.24007">
        <ele>1366</ele>
        <time>2016-05-15T08:54:35.000Z</time>
      </trkpt>
      <trkpt lat="43.94308" lon="7.24005">
        <ele>1367</ele>
        <time>2016-05-15T08:54:36.000Z</time>
      </trkpt>
      <trkpt lat="43.94298" lon="7.24002">
        <ele>1369</ele>
        <time>2016-05-15T08:54:38.000Z</time>
      </trkpt>
      <trkpt lat="43.94287" lon="7.23999">
        <ele>1352</ele>
        <time>2016-05-15T08:54:40.000Z</time>
      </trkpt>
      <trkpt lat="43.94283" lon="7.23995">
        <ele>1352</ele>
        <time>2016-05-15T08:54:41.000Z</time>
      </trkpt>
      <trkpt lat="43.94272" lon="7.23995">
        <ele>1355</ele>
        <time>2016-05-15T08:54:43.000Z</time>
      </trkpt>
      <trkpt lat="43.9426" lon="7.23994">
        <ele>1359</ele>
        <time>2016-05-15T08:54:45.000Z</time>
      </trkpt>
      <trkpt lat="43.94254" lon="7.23993">
        <ele>1360</ele>
        <time>2016-05-15T08:54:46.000Z</time>
      </trkpt>
      <trkpt lat="43.94249" lon="7.2399">
        <ele>1362</ele>
        <time>2016-05-15T08:54:47.000Z</time>
      </trkpt>
      <trkpt lat="43.94245" lon="7.23984">
        <ele>1360</ele>
        <time>2016-05-15T08:54:48.000Z</time>
      </trkpt>
      <trkpt lat="43.94237" lon="7.23968">
        <ele>1356</ele>
        <time>2016-05-15T08:54:50.000Z</time>
      </trkpt>
      <trkpt lat="43.94233" lon="7.23961">
        <ele>1355</ele>
        <time>2016-05-15T08:54:51.000Z</time>
      </trkpt>
      <trkpt lat="43.94231" lon="7.23952">
        <ele>1353</ele>
        <time>2016-05-15T08:54:52.000Z</time>
      </trkpt>
      <trkpt lat="43.9423" lon="7.23944">
        <ele>1351</ele>
        <time>2016-05-15T08:54:53.000Z</time>
      </trkpt>
      <trkpt lat="43.94231" lon="7.23935">
        <ele>1349</ele>
        <time>2016-05-15T08:54:54.000Z</time>
      </trkpt>
      <trkpt lat="43.94233" lon="7.23927">
        <ele>1347</ele>
        <time>2016-05-15T08:54:55.000Z</time>
      </trkpt>
      <trkpt lat="43.94232" lon="7.2391">
        <ele>1331</ele>
        <time>2016-05-15T08:54:57.000Z</time>
      </trkpt>
      <trkpt lat="43.94231" lon="7.23902">
        <ele>1330</ele>
        <time>2016-05-15T08:54:58.000Z</time>
      </trkpt>
      <trkpt lat="43.9423" lon="7.23893">
        <ele>1328</ele>
        <time>2016-05-15T08:54:59.000Z</time>
      </trkpt>
      <trkpt lat="43.94231" lon="7.23883">
        <ele>1327</ele>
        <time>2016-05-15T08:55:00.000Z</time>
      </trkpt>
      <trkpt lat="43.94233" lon="7.23875">
        <ele>1325</ele>
        <time>2016-05-15T08:55:01.000Z</time>
      </trkpt>
      <trkpt lat="43.94235" lon="7.23866">
        <ele>1324</ele>
        <time>2016-05-15T08:55:02.000Z</time>
      </trkpt>
      <trkpt lat="43.94239" lon="7.23848">
        <ele>1322</ele>
        <time>2016-05-15T08:55:04.000Z</time>
      </trkpt>
      <trkpt lat="43.94241" lon="7.23829">
        <ele>1313</ele>
        <time>2016-05-15T08:55:06.000Z</time>
      </trkpt>
      <trkpt lat="43.94245" lon="7.23811">
        <ele>1307</ele>
        <time>2016-05-15T08:55:08.000Z</time>
      </trkpt>
      <trkpt lat="43.94249" lon="7.23791">
        <ele>1303</ele>
        <time>2016-05-15T08:55:10.000Z</time>
      </trkpt>
      <trkpt lat="43.94254" lon="7.23772">
        <ele>1306</ele>
        <time>2016-05-15T08:55:12.000Z</time>
      </trkpt>
      <trkpt lat="43.94263" lon="7.23754">
        <ele>1306</ele>
        <time>2016-05-15T08:55:14.000Z</time>
      </trkpt>
      <trkpt lat="43.9427" lon="7.23738">
        <ele>1301</ele>
        <time>2016-05-15T08:55:16.000Z</time>
      </trkpt>
      <trkpt lat="43.94273" lon="7.23725">
        <ele>1299</ele>
        <time>2016-05-15T08:55:18.000Z</time>
      </trkpt>
      <trkpt lat="43.94268" lon="7.23717">
        <ele>1299</ele>
        <time>2016-05-15T08:55:20.000Z</time>
      </trkpt>
      <trkpt lat="43.94264" lon="7.23718">
        <ele>1299</ele>
        <time>2016-05-15T08:55:21.000Z</time>
      </trkpt>
      <trkpt lat="43.94255" lon="7.23725">
        <ele>1300</ele>
        <time>2016-05-15T08:55:23.000Z</time>
      </trkpt>
      <trkpt lat="43.94252" lon="7.23731">
        <ele>1301</ele>
        <time>2016-05-15T08:55:24.000Z</time>
      </trkpt>
      <trkpt lat="43.94249" lon="7.2374">
        <ele>1296</ele>
        <time>2016-05-15T08:55:25.000Z</time>
      </trkpt>
      <trkpt lat="43.94246" lon="7.23749">
        <ele>1301</ele>
        <time>2016-05-15T08:55:26.000Z</time>
      </trkpt>
      <trkpt lat="43.94243" lon="7.23758">
        <ele>1303</ele>
        <time>2016-05-15T08:55:27.000Z</time>
      </trkpt>
      <trkpt lat="43.94235" lon="7.23773">
        <ele>1300</ele>
        <time>2016-05-15T08:55:29.000Z</time>
      </trkpt>
      <trkpt lat="43.94227" lon="7.23788">
        <ele>1300</ele>
        <time>2016-05-15T08:55:31.000Z</time>
      </trkpt>
      <trkpt lat="43.9422" lon="7.23806">
        <ele>1301</ele>
        <time>2016-05-15T08:55:33.000Z</time>
      </trkpt>
      <trkpt lat="43.94216" lon="7.23815">
        <ele>1302</ele>
        <time>2016-05-15T08:55:34.000Z</time>
      </trkpt>
      <trkpt lat="43.94215" lon="7.23823">
        <ele>1302</ele>
        <time>2016-05-15T08:55:35.000Z</time>
      </trkpt>
      <trkpt lat="43.94213" lon="7.23832">
        <ele>1302</ele>
        <time>2016-05-15T08:55:36.000Z</time>
      </trkpt>
      <trkpt lat="43.94209" lon="7.23839">
        <ele>1319</ele>
        <time>2016-05-15T08:55:37.000Z</time>
      </trkpt>
      <trkpt lat="43.94205" lon="7.23846">
        <ele>1319</ele>
        <time>2016-05-15T08:55:38.000Z</time>
      </trkpt>
      <trkpt lat="43.94201" lon="7.23854">
        <ele>1319</ele>
        <time>2016-05-15T08:55:39.000Z</time>
      </trkpt>
      <trkpt lat="43.94196" lon="7.23861">
        <ele>1320</ele>
        <time>2016-05-15T08:55:40.000Z</time>
      </trkpt>
      <trkpt lat="43.94191" lon="7.23866">
        <ele>1320</ele>
        <time>2016-05-15T08:55:41.000Z</time>
      </trkpt>
      <trkpt lat="43.94185" lon="7.23867">
        <ele>1320</ele>
        <time>2016-05-15T08:55:42.000Z</time>
      </trkpt>
      <trkpt lat="43.94172" lon="7.23864">
        <ele>1318</ele>
        <time>2016-05-15T08:55:44.000Z</time>
      </trkpt>
      <trkpt lat="43.94166" lon="7.23865">
        <ele>1305</ele>
        <time>2016-05-15T08:55:45.000Z</time>
      </trkpt>
      <trkpt lat="43.94159" lon="7.23868">
        <ele>1305</ele>
        <time>2016-05-15T08:55:46.000Z</time>
      </trkpt>
      <trkpt lat="43.94146" lon="7.23866">
        <ele>1303</ele>
        <time>2016-05-15T08:55:48.000Z</time>
      </trkpt>
      <trkpt lat="43.94129" lon="7.23862">
        <ele>1300</ele>
        <time>2016-05-15T08:55:50.000Z</time>
      </trkpt>
      <trkpt lat="43.94122" lon="7.2386">
        <ele>1298</ele>
        <time>2016-05-15T08:55:51.000Z</time>
      </trkpt>
      <trkpt lat="43.94115" lon="7.23857">
        <ele>1296</ele>
        <time>2016-05-15T08:55:52.000Z</time>
      </trkpt>
      <trkpt lat="43.94109" lon="7.23854">
        <ele>1293</ele>
        <time>2016-05-15T08:55:53.000Z</time>
      </trkpt>
      <trkpt lat="43.94102" lon="7.2385">
        <ele>1290</ele>
        <time>2016-05-15T08:55:54.000Z</time>
      </trkpt>
      <trkpt lat="43.94096" lon="7.23846">
        <ele>1286</ele>
        <time>2016-05-15T08:55:55.000Z</time>
      </trkpt>
      <trkpt lat="43.94091" lon="7.23843">
        <ele>1283</ele>
        <time>2016-05-15T08:55:56.000Z</time>
      </trkpt>
      <trkpt lat="43.94086" lon="7.23841">
        <ele>1279</ele>
        <time>2016-05-15T08:55:57.000Z</time>
      </trkpt>
      <trkpt lat="43.94081" lon="7.23841">
        <ele>1268</ele>
        <time>2016-05-15T08:55:58.000Z</time>
      </trkpt>
      <trkpt lat="43.94078" lon="7.23845">
        <ele>1267</ele>
        <time>2016-05-15T08:55:59.000Z</time>
      </trkpt>
      <trkpt lat="43.94075" lon="7.23851">
        <ele>1265</ele>
        <time>2016-05-15T08:56:00.000Z</time>
      </trkpt>
      <trkpt lat="43.94072" lon="7.23864">
        <ele>1265</ele>
        <time>2016-05-15T08:56:02.000Z</time>
      </trkpt>
      <trkpt lat="43.94074" lon="7.23881">
        <ele>1270</ele>
        <time>2016-05-15T08:56:04.000Z</time>
      </trkpt>
      <trkpt lat="43.94073" lon="7.23889">
        <ele>1272</ele>
        <time>2016-05-15T08:56:05.000Z</time>
      </trkpt>
      <trkpt lat="43.94072" lon="7.23897">
        <ele>1276</ele>
        <time>2016-05-15T08:56:06.000Z</time>
      </trkpt>
      <trkpt lat="43.94069" lon="7.23913">
        <ele>1282</ele>
        <time>2016-05-15T08:56:08.000Z</time>
      </trkpt>
      <trkpt lat="43.94064" lon="7.23919">
        <ele>1298</ele>
        <time>2016-05-15T08:56:09.000Z</time>
      </trkpt>
      <trkpt lat="43.94058" lon="7.23922">
        <ele>1297</ele>
        <time>2016-05-15T08:56:10.000Z</time>
      </trkpt>
      <trkpt lat="43.94052" lon="7.23926">
        <ele>1296</ele>
        <time>2016-05-15T08:56:11.000Z</time>
      </trkpt>
      <trkpt lat="43.94046" lon="7.23932">
        <ele>1296</ele>
        <time>2016-05-15T08:56:12.000Z</time>
      </trkpt>
      <trkpt lat="43.94034" lon="7.23945">
        <ele>1295</ele>
        <time>2016-05-15T08:56:14.000Z</time>
      </trkpt>
      <trkpt lat="43.94023" lon="7.23952">
        <ele>1295</ele>
        <time>2016-05-15T08:56:16.000Z</time>
      </trkpt>
      <trkpt lat="43.94017" lon="7.23951">
        <ele>1294</ele>
        <time>2016-05-15T08:56:17.000Z</time>
      </trkpt>
      <trkpt lat="43.94011" lon="7.23949">
        <ele>1291</ele>
        <time>2016-05-15T08:56:18.000Z</time>
      </trkpt>
      <trkpt lat="43.94003" lon="7.23946">
        <ele>1288</ele>
        <time>2016-05-15T08:56:19.000Z</time>
      </trkpt>
      <trkpt lat="43.93996" lon="7.23945">
        <ele>1272</ele>
        <time>2016-05-15T08:56:20.000Z</time>
      </trkpt>
      <trkpt lat="43.93989" lon="7.23945">
        <ele>1272</ele>
        <time>2016-05-15T08:56:21.000Z</time>
      </trkpt>
      <trkpt lat="43.93979" lon="7.23945">
        <ele>1272</ele>
        <time>2016-05-15T08:56:23.000Z</time>
      </trkpt>
      <trkpt lat="43.93974" lon="7.23948">
        <ele>1273</ele>
        <time>2016-05-15T08:56:24.000Z</time>
      </trkpt>
      <trkpt lat="43.93969" lon="7.23953">
        <ele>1274</ele>
        <time>2016-05-15T08:56:25.000Z</time>
      </trkpt>
      <trkpt lat="43.93963" lon="7.23956">
        <ele>1275</ele>
        <time>2016-05-15T08:56:26.000Z</time>
      </trkpt>
      <trkpt lat="43.93958" lon="7.23958">
        <ele>1275</ele>
        <time>2016-05-15T08:56:27.000Z</time>
      </trkpt>
      <trkpt lat="43.93952" lon="7.23962">
        <ele>1276</ele>
        <time>2016-05-15T08:56:28.000Z</time>
      </trkpt>
      <trkpt lat="43.93947" lon="7.23963">
        <ele>1276</ele>
        <time>2016-05-15T08:56:29.000Z</time>
      </trkpt>
      <trkpt lat="43.93936" lon="7.23968">
        <ele>1277</ele>
        <time>2016-05-15T08:56:31.000Z</time>
      </trkpt>
      <trkpt lat="43.93927" lon="7.23973">
        <ele>1280</ele>
        <time>2016-05-15T08:56:33.000Z</time>
      </trkpt>
      <trkpt lat="43.93922" lon="7.23975">
        <ele>1282</ele>
        <time>2016-05-15T08:56:34.000Z</time>
      </trkpt>
      <trkpt lat="43.93911" lon="7.23979">
        <ele>1269</ele>
        <time>2016-05-15T08:56:36.000Z</time>
      </trkpt>
      <trkpt lat="43.93907" lon="7.23983">
        <ele>1271</ele>
        <time>2016-05-15T08:56:37.000Z</time>
      </trkpt>
      <trkpt lat="43.93895" lon="7.23991">
        <ele>1268</ele>
        <time>2016-05-15T08:56:40.000Z</time>
      </trkpt>
      <trkpt lat="43.93886" lon="7.23993">
        <ele>1263</ele>
        <time>2016-05-15T08:56:42.000Z</time>
      </trkpt>
      <trkpt lat="43.93875" lon="7.23996">
        <ele>1258</ele>
        <time>2016-05-15T08:56:45.000Z</time>
      </trkpt>
      <trkpt lat="43.93871" lon="7.23993">
        <ele>1256</ele>
        <time>2016-05-15T08:56:46.000Z</time>
      </trkpt>
      <trkpt lat="43.93863" lon="7.23986">
        <ele>1253</ele>
        <time>2016-05-15T08:56:48.000Z</time>
      </trkpt>
      <trkpt lat="43.93853" lon="7.23977">
        <ele>1249</ele>
        <time>2016-05-15T08:56:50.000Z</time>
      </trkpt>
      <trkpt lat="43.93845" lon="7.23977">
        <ele>1248</ele>
        <time>2016-05-15T08:56:52.000Z</time>
      </trkpt>
      <trkpt lat="43.93842" lon="7.23981">
        <ele>1250</ele>
        <time>2016-05-15T08:56:53.000Z</time>
      </trkpt>
      <trkpt lat="43.93837" lon="7.23985">
        <ele>1251</ele>
        <time>2016-05-15T08:56:54.000Z</time>
      </trkpt>
      <trkpt lat="43.93831" lon="7.23985">
        <ele>1233</ele>
        <time>2016-05-15T08:56:55.000Z</time>
      </trkpt>
      <trkpt lat="43.9382" lon="7.23978">
        <ele>1223</ele>
        <time>2016-05-15T08:56:57.000Z</time>
      </trkpt>
      <trkpt lat="43.93815" lon="7.23974">
        <ele>1218</ele>
        <time>2016-05-15T08:56:58.000Z</time>
      </trkpt>
      <trkpt lat="43.93811" lon="7.23972">
        <ele>1216</ele>
        <time>2016-05-15T08:56:59.000Z</time>
      </trkpt>
      <trkpt lat="43.93806" lon="7.23972">
        <ele>1214</ele>
        <time>2016-05-15T08:57:00.000Z</time>
      </trkpt>
      <trkpt lat="43.93803" lon="7.23977">
        <ele>1215</ele>
        <time>2016-05-15T08:57:01.000Z</time>
      </trkpt>
      <trkpt lat="43.93799" lon="7.23983">
        <ele>1215</ele>
        <time>2016-05-15T08:57:02.000Z</time>
      </trkpt>
      <trkpt lat="43.93796" lon="7.23989">
        <ele>1214</ele>
        <time>2016-05-15T08:57:03.000Z</time>
      </trkpt>
      <trkpt lat="43.93793" lon="7.23995">
        <ele>1214</ele>
        <time>2016-05-15T08:57:04.000Z</time>
      </trkpt>
      <trkpt lat="43.9379" lon="7.24">
        <ele>1228</ele>
        <time>2016-05-15T08:57:05.000Z</time>
      </trkpt>
      <trkpt lat="43.93788" lon="7.24006">
        <ele>1227</ele>
        <time>2016-05-15T08:57:06.000Z</time>
      </trkpt>
      <trkpt lat="43.93789" lon="7.24018">
        <ele>1228</ele>
        <time>2016-05-15T08:57:08.000Z</time>
      </trkpt>
      <trkpt lat="43.93789" lon="7.24026">
        <ele>1228</ele>
        <time>2016-05-15T08:57:09.000Z</time>
      </trkpt>
      <trkpt lat="43.93787" lon="7.24034">
        <ele>1227</ele>
        <time>2016-05-15T08:57:10.000Z</time>
      </trkpt>
      <trkpt lat="43.93784" lon="7.2404">
        <ele>1226</ele>
        <time>2016-05-15T08:57:11.000Z</time>
      </trkpt>
      <trkpt lat="43.93781" lon="7.24046">
        <ele>1225</ele>
        <time>2016-05-15T08:57:12.000Z</time>
      </trkpt>
      <trkpt lat="43.93781" lon="7.24058">
        <ele>1224</ele>
        <time>2016-05-15T08:57:14.000Z</time>
      </trkpt>
      <trkpt lat="43.93789" lon="7.24068">
        <ele>1229</ele>
        <time>2016-05-15T08:57:16.000Z</time>
      </trkpt>
      <trkpt lat="43.93793" lon="7.24074">
        <ele>1231</ele>
        <time>2016-05-15T08:57:17.000Z</time>
      </trkpt>
      <trkpt lat="43.93793" lon="7.24091">
        <ele>1236</ele>
        <time>2016-05-15T08:57:19.000Z</time>
      </trkpt>
      <trkpt lat="43.93793" lon="7.24099">
        <ele>1237</ele>
        <time>2016-05-15T08:57:20.000Z</time>
      </trkpt>
      <trkpt lat="43.93794" lon="7.24107">
        <ele>1238</ele>
        <time>2016-05-15T08:57:21.000Z</time>
      </trkpt>
      <trkpt lat="43.93794" lon="7.24115">
        <ele>1238</ele>
        <time>2016-05-15T08:57:22.000Z</time>
      </trkpt>
      <trkpt lat="43.93796" lon="7.2413">
        <ele>1240</ele>
        <time>2016-05-15T08:57:24.000Z</time>
      </trkpt>
      <trkpt lat="43.93797" lon="7.24138">
        <ele>1241</ele>
        <time>2016-05-15T08:57:25.000Z</time>
      </trkpt>
      <trkpt lat="43.93795" lon="7.24146">
        <ele>1241</ele>
        <time>2016-05-15T08:57:26.000Z</time>
      </trkpt>
      <trkpt lat="43.93787" lon="7.2416">
        <ele>1236</ele>
        <time>2016-05-15T08:57:28.000Z</time>
      </trkpt>
      <trkpt lat="43.93778" lon="7.24174">
        <ele>1241</ele>
        <time>2016-05-15T08:57:30.000Z</time>
      </trkpt>
      <trkpt lat="43.93778" lon="7.24182">
        <ele>1243</ele>
        <time>2016-05-15T08:57:31.000Z</time>
      </trkpt>
      <trkpt lat="43.93777" lon="7.24189">
        <ele>1245</ele>
        <time>2016-05-15T08:57:32.000Z</time>
      </trkpt>
      <trkpt lat="43.93773" lon="7.24204">
        <ele>1248</ele>
        <time>2016-05-15T08:57:34.000Z</time>
      </trkpt>
      <trkpt lat="43.93769" lon="7.24209">
        <ele>1248</ele>
        <time>2016-05-15T08:57:35.000Z</time>
      </trkpt>
      <trkpt lat="43.93765" lon="7.24216">
        <ele>1248</ele>
        <time>2016-05-15T08:57:36.000Z</time>
      </trkpt>
      <trkpt lat="43.9376" lon="7.24222">
        <ele>1248</ele>
        <time>2016-05-15T08:57:37.000Z</time>
      </trkpt>
      <trkpt lat="43.9375" lon="7.24232">
        <ele>1233</ele>
        <time>2016-05-15T08:57:39.000Z</time>
      </trkpt>
      <trkpt lat="43.93743" lon="7.24235">
        <ele>1219</ele>
        <time>2016-05-15T08:57:40.000Z</time>
      </trkpt>
      <trkpt lat="43.9373" lon="7.24235">
        <ele>1211</ele>
        <time>2016-05-15T08:57:42.000Z</time>
      </trkpt>
      <trkpt lat="43.93724" lon="7.24235">
        <ele>1207</ele>
        <time>2016-05-15T08:57:43.000Z</time>
      </trkpt>
      <trkpt lat="43.93715" lon="7.24242">
        <ele>1204</ele>
        <time>2016-05-15T08:57:45.000Z</time>
      </trkpt>
      <trkpt lat="43.9371" lon="7.24246">
        <ele>1202</ele>
        <time>2016-05-15T08:57:46.000Z</time>
      </trkpt>
      <trkpt lat="43.93706" lon="7.24251">
        <ele>1231</ele>
        <time>2016-05-15T08:57:47.000Z</time>
      </trkpt>
      <trkpt lat="43.93703" lon="7.24267">
        <ele>1233</ele>
        <time>2016-05-15T08:57:49.000Z</time>
      </trkpt>
      <trkpt lat="43.937" lon="7.24275">
        <ele>1235</ele>
        <time>2016-05-15T08:57:50.000Z</time>
      </trkpt>
      <trkpt lat="43.93689" lon="7.24283">
        <ele>1234</ele>
        <time>2016-05-15T08:57:52.000Z</time>
      </trkpt>
      <trkpt lat="43.93684" lon="7.24285">
        <ele>1234</ele>
        <time>2016-05-15T08:57:53.000Z</time>
      </trkpt>
      <trkpt lat="43.93668" lon="7.24296">
        <ele>1238</ele>
        <time>2016-05-15T08:57:56.000Z</time>
      </trkpt>
      <trkpt lat="43.93665" lon="7.24303">
        <ele>1217</ele>
        <time>2016-05-15T08:57:57.000Z</time>
      </trkpt>
      <trkpt lat="43.93659" lon="7.24316">
        <ele>1227</ele>
        <time>2016-05-15T08:57:59.000Z</time>
      </trkpt>
      <trkpt lat="43.93655" lon="7.24319">
        <ele>1227</ele>
        <time>2016-05-15T08:58:00.000Z</time>
      </trkpt>
      <trkpt lat="43.93646" lon="7.24323">
        <ele>1224</ele>
        <time>2016-05-15T08:58:02.000Z</time>
      </trkpt>
      <trkpt lat="43.93642" lon="7.24325">
        <ele>1222</ele>
        <time>2016-05-15T08:58:03.000Z</time>
      </trkpt>
      <trkpt lat="43.93632" lon="7.24328">
        <ele>1216</ele>
        <time>2016-05-15T08:58:05.000Z</time>
      </trkpt>
      <trkpt lat="43.93628" lon="7.2433">
        <ele>1215</ele>
        <time>2016-05-15T08:58:06.000Z</time>
      </trkpt>
      <trkpt lat="43.93618" lon="7.24334">
        <ele>1247</ele>
        <time>2016-05-15T08:58:09.000Z</time>
      </trkpt>
      <trkpt lat="43.93614" lon="7.24335">
        <ele>1244</ele>
        <time>2016-05-15T08:58:10.000Z</time>
      </trkpt>
      <trkpt lat="43.93609" lon="7.24335">
        <ele>1241</ele>
        <time>2016-05-15T08:58:11.000Z</time>
      </trkpt>
      <trkpt lat="43.93604" lon="7.24335">
        <ele>1237</ele>
        <time>2016-05-15T08:58:12.000Z</time>
      </trkpt>
      <trkpt lat="43.93595" lon="7.2433">
        <ele>1208</ele>
        <time>2016-05-15T08:58:14.000Z</time>
      </trkpt>
      <trkpt lat="43.93581" lon="7.24331">
        <ele>1206</ele>
        <time>2016-05-15T08:58:17.000Z</time>
      </trkpt>
      <trkpt lat="43.9357" lon="7.24347">
        <ele>1218</ele>
        <time>2016-05-15T08:58:20.000Z</time>
      </trkpt>
      <trkpt lat="43.93566" lon="7.2435">
        <ele>1220</ele>
        <time>2016-05-15T08:58:21.000Z</time>
      </trkpt>
      <trkpt lat="43.93557" lon="7.24351">
        <ele>1220</ele>
        <time>2016-05-15T08:58:23.000Z</time>
      </trkpt>
      <trkpt lat="43.93531" lon="7.24347">
        <ele>1217</ele>
        <time>2016-05-15T08:58:28.000Z</time>
      </trkpt>
      <trkpt lat="43.9352" lon="7.24348">
        <ele>1215</ele>
        <time>2016-05-15T08:58:30.000Z</time>
      </trkpt>
      <trkpt lat="43.93515" lon="7.24347">
        <ele>1213</ele>
        <time>2016-05-15T08:58:31.000Z</time>
      </trkpt>
      <trkpt lat="43.93509" lon="7.24347">
        <ele>1211</ele>
        <time>2016-05-15T08:58:32.000Z</time>
      </trkpt>
      <trkpt lat="43.93488" lon="7.24335">
        <ele>1201</ele>
        <time>2016-05-15T08:58:36.000Z</time>
      </trkpt>
      <trkpt lat="43.93483" lon="7.24331">
        <ele>1197</ele>
        <time>2016-05-15T08:58:37.000Z</time>
      </trkpt>
      <trkpt lat="43.93446" lon="7.24306">
        <ele>1194</ele>
        <time>2016-05-15T08:58:44.000Z</time>
      </trkpt>
      <trkpt lat="43.93437" lon="7.24302">
        <ele>1193</ele>
        <time>2016-05-15T08:58:46.000Z</time>
      </trkpt>
      <trkpt lat="43.93428" lon="7.24303">
        <ele>1194</ele>
        <time>2016-05-15T08:58:48.000Z</time>
      </trkpt>
      <trkpt lat="43.93417" lon="7.24316">
        <ele>1196</ele>
        <time>2016-05-15T08:58:51.000Z</time>
      </trkpt>
      <trkpt lat="43.93403" lon="7.24327">
        <ele>1198</ele>
        <time>2016-05-15T08:58:54.000Z</time>
      </trkpt>
      <trkpt lat="43.9339" lon="7.24335">
        <ele>1193</ele>
        <time>2016-05-15T08:58:56.000Z</time>
      </trkpt>
      <trkpt lat="43.93378" lon="7.24345">
        <ele>1192</ele>
        <time>2016-05-15T08:58:58.000Z</time>
      </trkpt>
      <trkpt lat="43.93369" lon="7.24353">
        <ele>1190</ele>
        <time>2016-05-15T08:59:00.000Z</time>
      </trkpt>
      <trkpt lat="43.93365" lon="7.24357">
        <ele>1190</ele>
        <time>2016-05-15T08:59:01.000Z</time>
      </trkpt>
      <trkpt lat="43.93361" lon="7.2436">
        <ele>1190</ele>
        <time>2016-05-15T08:59:02.000Z</time>
      </trkpt>
      <trkpt lat="43.93358" lon="7.24363">
        <ele>1189</ele>
        <time>2016-05-15T08:59:03.000Z</time>
      </trkpt>
      <trkpt lat="43.93355" lon="7.24367">
        <ele>1188</ele>
        <time>2016-05-15T08:59:04.000Z</time>
      </trkpt>
      <trkpt lat="43.9335" lon="7.2437">
        <ele>1188</ele>
        <time>2016-05-15T08:59:05.000Z</time>
      </trkpt>
      <trkpt lat="43.93344" lon="7.24372">
        <ele>1187</ele>
        <time>2016-05-15T08:59:06.000Z</time>
      </trkpt>
      <trkpt lat="43.93335" lon="7.24373">
        <ele>1187</ele>
        <time>2016-05-15T08:59:08.000Z</time>
      </trkpt>
      <trkpt lat="43.93329" lon="7.24372">
        <ele>1184</ele>
        <time>2016-05-15T08:59:10.000Z</time>
      </trkpt>
      <trkpt lat="43.93323" lon="7.24377">
        <ele>1183</ele>
        <time>2016-05-15T08:59:12.000Z</time>
      </trkpt>
      <trkpt lat="43.93319" lon="7.2438">
        <ele>1182</ele>
        <time>2016-05-15T08:59:13.000Z</time>
      </trkpt>
      <trkpt lat="43.93314" lon="7.24384">
        <ele>1181</ele>
        <time>2016-05-15T08:59:14.000Z</time>
      </trkpt>
      <trkpt lat="43.93311" lon="7.24387">
        <ele>1181</ele>
        <time>2016-05-15T08:59:15.000Z</time>
      </trkpt>
      <trkpt lat="43.93308" lon="7.24389">
        <ele>1180</ele>
        <time>2016-05-15T08:59:16.000Z</time>
      </trkpt>
      <trkpt lat="43.93306" lon="7.2439">
        <ele>1180</ele>
        <time>2016-05-15T08:59:17.000Z</time>
      </trkpt>
      <trkpt lat="43.93302" lon="7.24392">
        <ele>1180</ele>
        <time>2016-05-15T08:59:18.000Z</time>
      </trkpt>
      <trkpt lat="43.93295" lon="7.24392">
        <ele>1180</ele>
        <time>2016-05-15T08:59:20.000Z</time>
      </trkpt>
      <trkpt lat="43.93293" lon="7.24393">
        <ele>1180</ele>
        <time>2016-05-15T08:59:21.000Z</time>
      </trkpt>
      <trkpt lat="43.9329" lon="7.24395">
        <ele>1180</ele>
        <time>2016-05-15T08:59:22.000Z</time>
      </trkpt>
      <trkpt lat="43.93283" lon="7.24396">
        <ele>1180</ele>
        <time>2016-05-15T08:59:24.000Z</time>
      </trkpt>
      <trkpt lat="43.9328" lon="7.24397">
        <ele>1180</ele>
        <time>2016-05-15T08:59:25.000Z</time>
      </trkpt>
      <trkpt lat="43.93277" lon="7.24398">
        <ele>1180</ele>
        <time>2016-05-15T08:59:26.000Z</time>
      </trkpt>
      <trkpt lat="43.93273" lon="7.24401">
        <ele>1179</ele>
        <time>2016-05-15T08:59:28.000Z</time>
      </trkpt>
      <trkpt lat="43.93271" lon="7.24402">
        <ele>1179</ele>
        <time>2016-05-15T08:59:29.000Z</time>
      </trkpt>
      <trkpt lat="43.93269" lon="7.24405">
        <ele>1179</ele>
        <time>2016-05-15T08:59:30.000Z</time>
      </trkpt>
      <trkpt lat="43.93263" lon="7.24414">
        <ele>1178</ele>
        <time>2016-05-15T08:59:32.000Z</time>
      </trkpt>
      <trkpt lat="43.93259" lon="7.24416">
        <ele>1178</ele>
        <time>2016-05-15T08:59:33.000Z</time>
      </trkpt>
      <trkpt lat="43.93256" lon="7.24418">
        <ele>1171</ele>
        <time>2016-05-15T08:59:34.000Z</time>
      </trkpt>
      <trkpt lat="43.9325" lon="7.24423">
        <ele>1174</ele>
        <time>2016-05-15T08:59:36.000Z</time>
      </trkpt>
      <trkpt lat="43.93247" lon="7.24426">
        <ele>1173</ele>
        <time>2016-05-15T08:59:37.000Z</time>
      </trkpt>
      <trkpt lat="43.93241" lon="7.24434">
        <ele>1170</ele>
        <time>2016-05-15T08:59:39.000Z</time>
      </trkpt>
      <trkpt lat="43.93236" lon="7.24439">
        <ele>1169</ele>
        <time>2016-05-15T08:59:41.000Z</time>
      </trkpt>
      <trkpt lat="43.93233" lon="7.2444">
        <ele>1169</ele>
        <time>2016-05-15T08:59:42.000Z</time>
      </trkpt>
      <trkpt lat="43.93229" lon="7.24444">
        <ele>1168</ele>
        <time>2016-05-15T08:59:43.000Z</time>
      </trkpt>
      <trkpt lat="43.93223" lon="7.24448">
        <ele>1167</ele>
        <time>2016-05-15T08:59:44.000Z</time>
      </trkpt>
      <trkpt lat="43.93219" lon="7.24452">
        <ele>1167</ele>
        <time>2016-05-15T08:59:45.000Z</time>
      </trkpt>
      <trkpt lat="43.93215" lon="7.24455">
        <ele>1167</ele>
        <time>2016-05-15T08:59:46.000Z</time>
      </trkpt>
      <trkpt lat="43.93211" lon="7.24458">
        <ele>1166</ele>
        <time>2016-05-15T08:59:47.000Z</time>
      </trkpt>
      <trkpt lat="43.93209" lon="7.24462">
        <ele>1166</ele>
        <time>2016-05-15T08:59:48.000Z</time>
      </trkpt>
      <trkpt lat="43.93206" lon="7.24468">
        <ele>1165</ele>
        <time>2016-05-15T08:59:49.000Z</time>
      </trkpt>
      <trkpt lat="43.93204" lon="7.24476">
        <ele>1164</ele>
        <time>2016-05-15T08:59:50.000Z</time>
      </trkpt>
      <trkpt lat="43.93199" lon="7.24483">
        <ele>1163</ele>
        <time>2016-05-15T08:59:51.000Z</time>
      </trkpt>
      <trkpt lat="43.93195" lon="7.24491">
        <ele>1163</ele>
        <time>2016-05-15T08:59:52.000Z</time>
      </trkpt>
      <trkpt lat="43.93192" lon="7.24496">
        <ele>1163</ele>
        <time>2016-05-15T08:59:53.000Z</time>
      </trkpt>
      <trkpt lat="43.93189" lon="7.24501">
        <ele>1141</ele>
        <time>2016-05-15T08:59:54.000Z</time>
      </trkpt>
      <trkpt lat="43.93186" lon="7.24503">
        <ele>1142</ele>
        <time>2016-05-15T08:59:55.000Z</time>
      </trkpt>
      <trkpt lat="43.93184" lon="7.24511">
        <ele>1141</ele>
        <time>2016-05-15T08:59:57.000Z</time>
      </trkpt>
      <trkpt lat="43.93183" lon="7.24514">
        <ele>1140</ele>
        <time>2016-05-15T08:59:58.000Z</time>
      </trkpt>
      <trkpt lat="43.9318" lon="7.24519">
        <ele>1139</ele>
        <time>2016-05-15T08:59:59.000Z</time>
      </trkpt>
      <trkpt lat="43.93176" lon="7.24524">
        <ele>1138</ele>
        <time>2016-05-15T09:00:00.000Z</time>
      </trkpt>
      <trkpt lat="43.93171" lon="7.2453">
        <ele>1135</ele>
        <time>2016-05-15T09:00:01.000Z</time>
      </trkpt>
      <trkpt lat="43.93167" lon="7.24534">
        <ele>1133</ele>
        <time>2016-05-15T09:00:02.000Z</time>
      </trkpt>
      <trkpt lat="43.93161" lon="7.24538">
        <ele>1136</ele>
        <time>2016-05-15T09:00:04.000Z</time>
      </trkpt>
      <trkpt lat="43.93157" lon="7.24542">
        <ele>1134</ele>
        <time>2016-05-15T09:00:06.000Z</time>
      </trkpt>
      <trkpt lat="43.93153" lon="7.24544">
        <ele>1133</ele>
        <time>2016-05-15T09:00:08.000Z</time>
      </trkpt>
      <trkpt lat="43.9315" lon="7.24544">
        <ele>1133</ele>
        <time>2016-05-15T09:00:09.000Z</time>
      </trkpt>
      <trkpt lat="43.93148" lon="7.24544">
        <ele>1133</ele>
        <time>2016-05-15T09:00:10.000Z</time>
      </trkpt>
      <trkpt lat="43.93141" lon="7.24543">
        <ele>1133</ele>
        <time>2016-05-15T09:00:12.000Z</time>
      </trkpt>
      <trkpt lat="43.93138" lon="7.2454">
        <ele>1134</ele>
        <time>2016-05-15T09:00:13.000Z</time>
      </trkpt>
      <trkpt lat="43.93134" lon="7.24535">
        <ele>1135</ele>
        <time>2016-05-15T09:00:15.000Z</time>
      </trkpt>
      <trkpt lat="43.93132" lon="7.24534">
        <ele>1135</ele>
        <time>2016-05-15T09:00:17.000Z</time>
      </trkpt>
      <trkpt lat="43.9313" lon="7.24533">
        <ele>1135</ele>
        <time>2016-05-15T09:00:18.000Z</time>
      </trkpt>
      <trkpt lat="43.93128" lon="7.2453">
        <ele>1135</ele>
        <time>2016-05-15T09:00:19.000Z</time>
      </trkpt>
      <trkpt lat="43.93122" lon="7.24526">
        <ele>1136</ele>
        <time>2016-05-15T09:00:21.000Z</time>
      </trkpt>
      <trkpt lat="43.93117" lon="7.24525">
        <ele>1136</ele>
        <time>2016-05-15T09:00:23.000Z</time>
      </trkpt>
      <trkpt lat="43.93112" lon="7.24527">
        <ele>1135</ele>
        <time>2016-05-15T09:00:25.000Z</time>
      </trkpt>
      <trkpt lat="43.93108" lon="7.24529">
        <ele>1135</ele>
        <time>2016-05-15T09:00:26.000Z</time>
      </trkpt>
      <trkpt lat="43.931" lon="7.24531">
        <ele>1134</ele>
        <time>2016-05-15T09:00:28.000Z</time>
      </trkpt>
      <trkpt lat="43.93089" lon="7.24534">
        <ele>1133</ele>
        <time>2016-05-15T09:00:30.000Z</time>
      </trkpt>
      <trkpt lat="43.9308" lon="7.24536">
        <ele>1122</ele>
        <time>2016-05-15T09:00:32.000Z</time>
      </trkpt>
      <trkpt lat="43.93075" lon="7.24536">
        <ele>1121</ele>
        <time>2016-05-15T09:00:34.000Z</time>
      </trkpt>
      <trkpt lat="43.93072" lon="7.24536">
        <ele>1121</ele>
        <time>2016-05-15T09:00:35.000Z</time>
      </trkpt>
      <trkpt lat="43.93067" lon="7.24535">
        <ele>1121</ele>
        <time>2016-05-15T09:00:37.000Z</time>
      </trkpt>
      <trkpt lat="43.93066" lon="7.24532">
        <ele>1122</ele>
        <time>2016-05-15T09:00:38.000Z</time>
      </trkpt>
      <trkpt lat="43.93058" lon="7.24516">
        <ele>1125</ele>
        <time>2016-05-15T09:00:42.000Z</time>
      </trkpt>
      <trkpt lat="43.93055" lon="7.24513">
        <ele>1125</ele>
        <time>2016-05-15T09:00:43.000Z</time>
      </trkpt>
      <trkpt lat="43.93052" lon="7.2451">
        <ele>1125</ele>
        <time>2016-05-15T09:00:44.000Z</time>
      </trkpt>
      <trkpt lat="43.93046" lon="7.24505">
        <ele>1124</ele>
        <time>2016-05-15T09:00:46.000Z</time>
      </trkpt>
      <trkpt lat="43.93039" lon="7.24503">
        <ele>1122</ele>
        <time>2016-05-15T09:00:48.000Z</time>
      </trkpt>
      <trkpt lat="43.93035" lon="7.24501">
        <ele>1122</ele>
        <time>2016-05-15T09:00:49.000Z</time>
      </trkpt>
      <trkpt lat="43.93031" lon="7.24498">
        <ele>1144</ele>
        <time>2016-05-15T09:00:50.000Z</time>
      </trkpt>
      <trkpt lat="43.93027" lon="7.24497">
        <ele>1142</ele>
        <time>2016-05-15T09:00:51.000Z</time>
      </trkpt>
      <trkpt lat="43.93023" lon="7.24499">
        <ele>1141</ele>
        <time>2016-05-15T09:00:52.000Z</time>
      </trkpt>
      <trkpt lat="43.93021" lon="7.24502">
        <ele>1121</ele>
        <time>2016-05-15T09:00:53.000Z</time>
      </trkpt>
      <trkpt lat="43.93011" lon="7.24511">
        <ele>1120</ele>
        <time>2016-05-15T09:00:55.000Z</time>
      </trkpt>
      <trkpt lat="43.93008" lon="7.24514">
        <ele>1120</ele>
        <time>2016-05-15T09:00:56.000Z</time>
      </trkpt>
      <trkpt lat="43.93001" lon="7.24516">
        <ele>1119</ele>
        <time>2016-05-15T09:00:58.000Z</time>
      </trkpt>
      <trkpt lat="43.92999" lon="7.24517">
        <ele>1110</ele>
        <time>2016-05-15T09:00:59.000Z</time>
      </trkpt>
      <trkpt lat="43.92994" lon="7.24516">
        <ele>1110</ele>
        <time>2016-05-15T09:01:01.000Z</time>
      </trkpt>
      <trkpt lat="43.92993" lon="7.24513">
        <ele>1111</ele>
        <time>2016-05-15T09:01:02.000Z</time>
      </trkpt>
      <trkpt lat="43.92991" lon="7.24511">
        <ele>1112</ele>
        <time>2016-05-15T09:01:03.000Z</time>
      </trkpt>
      <trkpt lat="43.92988" lon="7.24509">
        <ele>1111</ele>
        <time>2016-05-15T09:01:04.000Z</time>
      </trkpt>
      <trkpt lat="43.92985" lon="7.24509">
        <ele>1110</ele>
        <time>2016-05-15T09:01:05.000Z</time>
      </trkpt>
      <trkpt lat="43.92979" lon="7.24506">
        <ele>1108</ele>
        <time>2016-05-15T09:01:07.000Z</time>
      </trkpt>
      <trkpt lat="43.9297" lon="7.24504">
        <ele>1106</ele>
        <time>2016-05-15T09:01:10.000Z</time>
      </trkpt>
      <trkpt lat="43.92966" lon="7.24503">
        <ele>1105</ele>
        <time>2016-05-15T09:01:12.000Z</time>
      </trkpt>
      <trkpt lat="43.92961" lon="7.24503">
        <ele>1104</ele>
        <time>2016-05-15T09:01:14.000Z</time>
      </trkpt>
      <trkpt lat="43.92951" lon="7.24496">
        <ele>1126</ele>
        <time>2016-05-15T09:01:17.000Z</time>
      </trkpt>
      <trkpt lat="43.92939" lon="7.24495">
        <ele>1123</ele>
        <time>2016-05-15T09:01:20.000Z</time>
      </trkpt>
      <trkpt lat="43.92935" lon="7.24498">
        <ele>1121</ele>
        <time>2016-05-15T09:01:21.000Z</time>
      </trkpt>
      <trkpt lat="43.92931" lon="7.245">
        <ele>1104</ele>
        <time>2016-05-15T09:01:22.000Z</time>
      </trkpt>
      <trkpt lat="43.92928" lon="7.24503">
        <ele>1104</ele>
        <time>2016-05-15T09:01:24.000Z</time>
      </trkpt>
      <trkpt lat="43.92926" lon="7.24505">
        <ele>1105</ele>
        <time>2016-05-15T09:01:25.000Z</time>
      </trkpt>
      <trkpt lat="43.92917" lon="7.24505">
        <ele>1106</ele>
        <time>2016-05-15T09:01:28.000Z</time>
      </trkpt>
      <trkpt lat="43.92913" lon="7.24504">
        <ele>1104</ele>
        <time>2016-05-15T09:01:29.000Z</time>
      </trkpt>
      <trkpt lat="43.92903" lon="7.24504">
        <ele>1099</ele>
        <time>2016-05-15T09:01:32.000Z</time>
      </trkpt>
      <trkpt lat="43.92893" lon="7.24505">
        <ele>1095</ele>
        <time>2016-05-15T09:01:35.000Z</time>
      </trkpt>
      <trkpt lat="43.92891" lon="7.2451">
        <ele>1094</ele>
        <time>2016-05-15T09:01:36.000Z</time>
      </trkpt>
      <trkpt lat="43.92886" lon="7.2452">
        <ele>1091</ele>
        <time>2016-05-15T09:01:38.000Z</time>
      </trkpt>
      <trkpt lat="43.92883" lon="7.24524">
        <ele>1089</ele>
        <time>2016-05-15T09:01:39.000Z</time>
      </trkpt>
      <trkpt lat="43.92879" lon="7.24526">
        <ele>1089</ele>
        <time>2016-05-15T09:01:40.000Z</time>
      </trkpt>
      <trkpt lat="43.92873" lon="7.24525">
        <ele>1089</ele>
        <time>2016-05-15T09:01:42.000Z</time>
      </trkpt>
      <trkpt lat="43.92861" lon="7.24533">
        <ele>1086</ele>
        <time>2016-05-15T09:01:46.000Z</time>
      </trkpt>
      <trkpt lat="43.92858" lon="7.24536">
        <ele>1086</ele>
        <time>2016-05-15T09:01:47.000Z</time>
      </trkpt>
      <trkpt lat="43.92849" lon="7.24542">
        <ele>1084</ele>
        <time>2016-05-15T09:01:51.000Z</time>
      </trkpt>
      <trkpt lat="43.92844" lon="7.24537">
        <ele>1085</ele>
        <time>2016-05-15T09:01:53.000Z</time>
      </trkpt>
      <trkpt lat="43.92842" lon="7.24532">
        <ele>1087</ele>
        <time>2016-05-15T09:01:54.000Z</time>
      </trkpt>
      <trkpt lat="43.92841" lon="7.24527">
        <ele>1089</ele>
        <time>2016-05-15T09:01:55.000Z</time>
      </trkpt>
      <trkpt lat="43.92835" lon="7.24521">
        <ele>1092</ele>
        <time>2016-05-15T09:01:57.000Z</time>
      </trkpt>
      <trkpt lat="43.92832" lon="7.24518">
        <ele>1088</ele>
        <time>2016-05-15T09:01:58.000Z</time>
      </trkpt>
      <trkpt lat="43.92828" lon="7.24518">
        <ele>1088</ele>
        <time>2016-05-15T09:01:59.000Z</time>
      </trkpt>
      <trkpt lat="43.92824" lon="7.24519">
        <ele>1086</ele>
        <time>2016-05-15T09:02:00.000Z</time>
      </trkpt>
      <trkpt lat="43.92819" lon="7.24522">
        <ele>1084</ele>
        <time>2016-05-15T09:02:01.000Z</time>
      </trkpt>
      <trkpt lat="43.92813" lon="7.24524">
        <ele>1082</ele>
        <time>2016-05-15T09:02:02.000Z</time>
      </trkpt>
      <trkpt lat="43.92803" lon="7.2453">
        <ele>1079</ele>
        <time>2016-05-15T09:02:04.000Z</time>
      </trkpt>
      <trkpt lat="43.92794" lon="7.24534">
        <ele>1077</ele>
        <time>2016-05-15T09:02:06.000Z</time>
      </trkpt>
      <trkpt lat="43.92778" lon="7.24539">
        <ele>1074</ele>
        <time>2016-05-15T09:02:10.000Z</time>
      </trkpt>
      <trkpt lat="43.92768" lon="7.24539">
        <ele>1074</ele>
        <time>2016-05-15T09:02:12.000Z</time>
      </trkpt>
      <trkpt lat="43.92761" lon="7.24541">
        <ele>1073</ele>
        <time>2016-05-15T09:02:14.000Z</time>
      </trkpt>
      <trkpt lat="43.92755" lon="7.24545">
        <ele>1071</ele>
        <time>2016-05-15T09:02:18.000Z</time>
      </trkpt>
      <trkpt lat="43.92753" lon="7.24546">
        <ele>1071</ele>
        <time>2016-05-15T09:02:21.000Z</time>
      </trkpt>
      <trkpt lat="43.92751" lon="7.24544">
        <ele>1071</ele>
        <time>2016-05-15T09:02:22.000Z</time>
      </trkpt>
      <trkpt lat="43.92748" lon="7.24538">
        <ele>1062</ele>
        <time>2016-05-15T09:02:24.000Z</time>
      </trkpt>
      <trkpt lat="43.92746" lon="7.24528">
        <ele>1066</ele>
        <time>2016-05-15T09:02:26.000Z</time>
      </trkpt>
      <trkpt lat="43.92739" lon="7.24513">
        <ele>1072</ele>
        <time>2016-05-15T09:02:30.000Z</time>
      </trkpt>
      <trkpt lat="43.92734" lon="7.24504">
        <ele>1073</ele>
        <time>2016-05-15T09:02:32.000Z</time>
      </trkpt>
      <trkpt lat="43.92729" lon="7.24493">
        <ele>1088</ele>
        <time>2016-05-15T09:02:34.000Z</time>
      </trkpt>
      <trkpt lat="43.92726" lon="7.24488">
        <ele>1088</ele>
        <time>2016-05-15T09:02:35.000Z</time>
      </trkpt>
      <trkpt lat="43.92725" lon="7.24483">
        <ele>1088</ele>
        <time>2016-05-15T09:02:36.000Z</time>
      </trkpt>
      <trkpt lat="43.92724" lon="7.24477">
        <ele>1089</ele>
        <time>2016-05-15T09:02:38.000Z</time>
      </trkpt>
      <trkpt lat="43.92724" lon="7.24474">
        <ele>1089</ele>
        <time>2016-05-15T09:02:42.000Z</time>
      </trkpt>
      <trkpt lat="43.92723" lon="7.24473">
        <ele>1089</ele>
        <time>2016-05-15T09:02:43.000Z</time>
      </trkpt>
      <trkpt lat="43.92721" lon="7.24469">
        <ele>1090</ele>
        <time>2016-05-15T09:02:46.000Z</time>
      </trkpt>
      <trkpt lat="43.92716" lon="7.24469">
        <ele>1089</ele>
        <time>2016-05-15T09:02:49.000Z</time>
      </trkpt>
      <trkpt lat="43.92712" lon="7.24469">
        <ele>1089</ele>
        <time>2016-05-15T09:02:51.000Z</time>
      </trkpt>
      <trkpt lat="43.92704" lon="7.24469">
        <ele>1088</ele>
        <time>2016-05-15T09:02:57.000Z</time>
      </trkpt>
      <trkpt lat="43.92697" lon="7.24468">
        <ele>1087</ele>
        <time>2016-05-15T09:03:03.000Z</time>
      </trkpt>
      <trkpt lat="43.92695" lon="7.24467">
        <ele>1087</ele>
        <time>2016-05-15T09:03:05.000Z</time>
      </trkpt>
      <trkpt lat="43.92691" lon="7.24466">
        <ele>1087</ele>
        <time>2016-05-15T09:03:10.000Z</time>
      </trkpt>
      <trkpt lat="43.92691" lon="7.24466">
        <ele>1087</ele>
        <time>2016-05-15T09:03:11.000Z</time>
      </trkpt>
      <trkpt lat="43.92688" lon="7.24463">
        <ele>1087</ele>
        <time>2016-05-15T09:03:14.000Z</time>
      </trkpt>
      <trkpt lat="43.92686" lon="7.24462">
        <ele>1087</ele>
        <time>2016-05-15T09:03:18.000Z</time>
      </trkpt>
      <trkpt lat="43.92684" lon="7.24461">
        <ele>1087</ele>
        <time>2016-05-15T09:03:19.000Z</time>
      </trkpt>
      <trkpt lat="43.9268" lon="7.24457">
        <ele>1088</ele>
        <time>2016-05-15T09:03:21.000Z</time>
      </trkpt>
      <trkpt lat="43.92678" lon="7.24453">
        <ele>1089</ele>
        <time>2016-05-15T09:03:22.000Z</time>
      </trkpt>
      <trkpt lat="43.92676" lon="7.2445">
        <ele>1090</ele>
        <time>2016-05-15T09:03:23.000Z</time>
      </trkpt>
      <trkpt lat="43.92667" lon="7.24445">
        <ele>1091</ele>
        <time>2016-05-15T09:03:26.000Z</time>
      </trkpt>
      <trkpt lat="43.92663" lon="7.24447">
        <ele>1077</ele>
        <time>2016-05-15T09:03:27.000Z</time>
      </trkpt>
      <trkpt lat="43.9265" lon="7.24453">
        <ele>1073</ele>
        <time>2016-05-15T09:03:30.000Z</time>
      </trkpt>
      <trkpt lat="43.92646" lon="7.24454">
        <ele>1072</ele>
        <time>2016-05-15T09:03:31.000Z</time>
      </trkpt>
      <trkpt lat="43.92639" lon="7.24458">
        <ele>1070</ele>
        <time>2016-05-15T09:03:33.000Z</time>
      </trkpt>
      <trkpt lat="43.92629" lon="7.2446">
        <ele>1068</ele>
        <time>2016-05-15T09:03:36.000Z</time>
      </trkpt>
      <trkpt lat="43.92615" lon="7.24466">
        <ele>1064</ele>
        <time>2016-05-15T09:03:41.000Z</time>
      </trkpt>
      <trkpt lat="43.92611" lon="7.2447">
        <ele>1062</ele>
        <time>2016-05-15T09:03:43.000Z</time>
      </trkpt>
      <trkpt lat="43.92607" lon="7.24471">
        <ele>1061</ele>
        <time>2016-05-15T09:03:45.000Z</time>
      </trkpt>
      <trkpt lat="43.92604" lon="7.2447">
        <ele>1061</ele>
        <time>2016-05-15T09:03:46.000Z</time>
      </trkpt>
      <trkpt lat="43.92603" lon="7.24467">
        <ele>1061</ele>
        <time>2016-05-15T09:03:47.000Z</time>
      </trkpt>
      <trkpt lat="43.92598" lon="7.24462">
        <ele>1062</ele>
        <time>2016-05-15T09:03:49.000Z</time>
      </trkpt>
      <trkpt lat="43.92596" lon="7.24458">
        <ele>1063</ele>
        <time>2016-05-15T09:03:50.000Z</time>
      </trkpt>
      <trkpt lat="43.92595" lon="7.24455">
        <ele>1064</ele>
        <time>2016-05-15T09:03:51.000Z</time>
      </trkpt>
      <trkpt lat="43.92591" lon="7.24451">
        <ele>1065</ele>
        <time>2016-05-15T09:03:53.000Z</time>
      </trkpt>
      <trkpt lat="43.92589" lon="7.24445">
        <ele>1066</ele>
        <time>2016-05-15T09:03:55.000Z</time>
      </trkpt>
      <trkpt lat="43.92587" lon="7.24437">
        <ele>1068</ele>
        <time>2016-05-15T09:03:57.000Z</time>
      </trkpt>
      <trkpt lat="43.92586" lon="7.24434">
        <ele>1068</ele>
        <time>2016-05-15T09:03:58.000Z</time>
      </trkpt>
      <trkpt lat="43.92586" lon="7.24428">
        <ele>1069</ele>
        <time>2016-05-15T09:04:00.000Z</time>
      </trkpt>
      <trkpt lat="43.92585" lon="7.24426">
        <ele>1070</ele>
        <time>2016-05-15T09:04:01.000Z</time>
      </trkpt>
      <trkpt lat="43.92584" lon="7.24423">
        <ele>1070</ele>
        <time>2016-05-15T09:04:02.000Z</time>
      </trkpt>
      <trkpt lat="43.92583" lon="7.24421">
        <ele>1066</ele>
        <time>2016-05-15T09:04:03.000Z</time>
      </trkpt>
      <trkpt lat="43.92579" lon="7.24417">
        <ele>1066</ele>
        <time>2016-05-15T09:04:05.000Z</time>
      </trkpt>
      <trkpt lat="43.92577" lon="7.24414">
        <ele>1072</ele>
        <time>2016-05-15T09:04:06.000Z</time>
      </trkpt>
      <trkpt lat="43.92575" lon="7.24409">
        <ele>1072</ele>
        <time>2016-05-15T09:04:08.000Z</time>
      </trkpt>
      <trkpt lat="43.92572" lon="7.24405">
        <ele>1072</ele>
        <time>2016-05-15T09:04:10.000Z</time>
      </trkpt>
      <trkpt lat="43.92569" lon="7.24406">
        <ele>1072</ele>
        <time>2016-05-15T09:04:11.000Z</time>
      </trkpt>
      <trkpt lat="43.92563" lon="7.24409">
        <ele>1072</ele>
        <time>2016-05-15T09:04:13.000Z</time>
      </trkpt>
      <trkpt lat="43.92557" lon="7.24415">
        <ele>1071</ele>
        <time>2016-05-15T09:04:15.000Z</time>
      </trkpt>
      <trkpt lat="43.92555" lon="7.24415">
        <ele>1071</ele>
        <time>2016-05-15T09:04:16.000Z</time>
      </trkpt>
      <trkpt lat="43.9255" lon="7.24416">
        <ele>1070</ele>
        <time>2016-05-15T09:04:17.000Z</time>
      </trkpt>
      <trkpt lat="43.92547" lon="7.24416">
        <ele>1070</ele>
        <time>2016-05-15T09:04:18.000Z</time>
      </trkpt>
      <trkpt lat="43.92543" lon="7.24417">
        <ele>1047</ele>
        <time>2016-05-15T09:04:19.000Z</time>
      </trkpt>
      <trkpt lat="43.9254" lon="7.24419">
        <ele>1046</ele>
        <time>2016-05-15T09:04:20.000Z</time>
      </trkpt>
      <trkpt lat="43.92537" lon="7.2442">
        <ele>1045</ele>
        <time>2016-05-15T09:04:21.000Z</time>
      </trkpt>
      <trkpt lat="43.92534" lon="7.24422">
        <ele>1045</ele>
        <time>2016-05-15T09:04:22.000Z</time>
      </trkpt>
      <trkpt lat="43.92532" lon="7.24422">
        <ele>1044</ele>
        <time>2016-05-15T09:04:23.000Z</time>
      </trkpt>
      <trkpt lat="43.9253" lon="7.24422">
        <ele>1044</ele>
        <time>2016-05-15T09:04:24.000Z</time>
      </trkpt>
      <trkpt lat="43.9253" lon="7.24423">
        <ele>1044</ele>
        <time>2016-05-15T09:04:25.000Z</time>
      </trkpt>
      <trkpt lat="43.92531" lon="7.24425">
        <ele>1044</ele>
        <time>2016-05-15T09:04:26.000Z</time>
      </trkpt>
      <trkpt lat="43.92532" lon="7.24426">
        <ele>1044</ele>
        <time>2016-05-15T09:04:27.000Z</time>
      </trkpt>
      <trkpt lat="43.92539" lon="7.2443">
        <ele>1045</ele>
        <time>2016-05-15T09:04:30.000Z</time>
      </trkpt>
      <trkpt lat="43.92542" lon="7.24432">
        <ele>1045</ele>
        <time>2016-05-15T09:04:31.000Z</time>
      </trkpt>
      <trkpt lat="43.92545" lon="7.24437">
        <ele>1045</ele>
        <time>2016-05-15T09:04:33.000Z</time>
      </trkpt>
      <trkpt lat="43.92547" lon="7.2444">
        <ele>1044</ele>
        <time>2016-05-15T09:04:35.000Z</time>
      </trkpt>
      <trkpt lat="43.92546" lon="7.24441">
        <ele>1044</ele>
        <time>2016-05-15T09:04:36.000Z</time>
      </trkpt>
      <trkpt lat="43.92545" lon="7.24442">
        <ele>1043</ele>
        <time>2016-05-15T09:04:37.000Z</time>
      </trkpt>
      <trkpt lat="43.92541" lon="7.24442">
        <ele>1043</ele>
        <time>2016-05-15T09:04:39.000Z</time>
      </trkpt>
      <trkpt lat="43.92538" lon="7.24443">
        <ele>1042</ele>
        <time>2016-05-15T09:04:41.000Z</time>
      </trkpt>
      <trkpt lat="43.92532" lon="7.24446">
        <ele>1041</ele>
        <time>2016-05-15T09:04:43.000Z</time>
      </trkpt>
      <trkpt lat="43.92526" lon="7.24451">
        <ele>1039</ele>
        <time>2016-05-15T09:04:45.000Z</time>
      </trkpt>
      <trkpt lat="43.9252" lon="7.24455">
        <ele>1037</ele>
        <time>2016-05-15T09:04:47.000Z</time>
      </trkpt>
      <trkpt lat="43.92518" lon="7.24456">
        <ele>1036</ele>
        <time>2016-05-15T09:04:48.000Z</time>
      </trkpt>
      <trkpt lat="43.92513" lon="7.2446">
        <ele>1035</ele>
        <time>2016-05-15T09:04:50.000Z</time>
      </trkpt>
      <trkpt lat="43.9251" lon="7.24461">
        <ele>1034</ele>
        <time>2016-05-15T09:04:51.000Z</time>
      </trkpt>
      <trkpt lat="43.92508" lon="7.24464">
        <ele>1033</ele>
        <time>2016-05-15T09:04:52.000Z</time>
      </trkpt>
      <trkpt lat="43.92505" lon="7.24467">
        <ele>1031</ele>
        <time>2016-05-15T09:04:53.000Z</time>
      </trkpt>
      <trkpt lat="43.92501" lon="7.24469">
        <ele>1030</ele>
        <time>2016-05-15T09:04:54.000Z</time>
      </trkpt>
      <trkpt lat="43.92498" lon="7.24472">
        <ele>1018</ele>
        <time>2016-05-15T09:04:55.000Z</time>
      </trkpt>
      <trkpt lat="43.92495" lon="7.24472">
        <ele>1018</ele>
        <time>2016-05-15T09:04:56.000Z</time>
      </trkpt>
      <trkpt lat="43.92491" lon="7.24476">
        <ele>1017</ele>
        <time>2016-05-15T09:04:58.000Z</time>
      </trkpt>
      <trkpt lat="43.92488" lon="7.24479">
        <ele>1016</ele>
        <time>2016-05-15T09:04:59.000Z</time>
      </trkpt>
      <trkpt lat="43.92486" lon="7.24482">
        <ele>1016</ele>
        <time>2016-05-15T09:05:00.000Z</time>
      </trkpt>
      <trkpt lat="43.92484" lon="7.24485">
        <ele>1015</ele>
        <time>2016-05-15T09:05:02.000Z</time>
      </trkpt>
      <trkpt lat="43.92485" lon="7.24484">
        <ele>1015</ele>
        <time>2016-05-15T09:05:03.000Z</time>
      </trkpt>
      <trkpt lat="43.92486" lon="7.24485">
        <ele>1015</ele>
        <time>2016-05-15T09:05:04.000Z</time>
      </trkpt>
      <trkpt lat="43.9249" lon="7.24482">
        <ele>1015</ele>
        <time>2016-05-15T09:05:07.000Z</time>
      </trkpt>
      <trkpt lat="43.92489" lon="7.24487">
        <ele>1014</ele>
        <time>2016-05-15T09:05:10.000Z</time>
      </trkpt>
      <trkpt lat="43.92484" lon="7.24495">
        <ele>1013</ele>
        <time>2016-05-15T09:05:12.000Z</time>
      </trkpt>
      <trkpt lat="43.92478" lon="7.24501">
        <ele>995</ele>
        <time>2016-05-15T09:05:14.000Z</time>
      </trkpt>
      <trkpt lat="43.92473" lon="7.24503">
        <ele>994</ele>
        <time>2016-05-15T09:05:16.000Z</time>
      </trkpt>
      <trkpt lat="43.92469" lon="7.24506">
        <ele>993</ele>
        <time>2016-05-15T09:05:18.000Z</time>
      </trkpt>
      <trkpt lat="43.92463" lon="7.24507">
        <ele>992</ele>
        <time>2016-05-15T09:05:20.000Z</time>
      </trkpt>
      <trkpt lat="43.92457" lon="7.24511">
        <ele>991</ele>
        <time>2016-05-15T09:05:22.000Z</time>
      </trkpt>
      <trkpt lat="43.92455" lon="7.24514">
        <ele>991</ele>
        <time>2016-05-15T09:05:23.000Z</time>
      </trkpt>
      <trkpt lat="43.92451" lon="7.24518">
        <ele>990</ele>
        <time>2016-05-15T09:05:25.000Z</time>
      </trkpt>
      <trkpt lat="43.9245" lon="7.2452">
        <ele>990</ele>
        <time>2016-05-15T09:05:26.000Z</time>
      </trkpt>
      <trkpt lat="43.92451" lon="7.24521">
        <ele>990</ele>
        <time>2016-05-15T09:05:27.000Z</time>
      </trkpt>
      <trkpt lat="43.92452" lon="7.24521">
        <ele>990</ele>
        <time>2016-05-15T09:05:28.000Z</time>
      </trkpt>
      <trkpt lat="43.92458" lon="7.24521">
        <ele>990</ele>
        <time>2016-05-15T09:05:31.000Z</time>
      </trkpt>
      <trkpt lat="43.92457" lon="7.24522">
        <ele>989</ele>
        <time>2016-05-15T09:05:32.000Z</time>
      </trkpt>
      <trkpt lat="43.92457" lon="7.24524">
        <ele>989</ele>
        <time>2016-05-15T09:05:33.000Z</time>
      </trkpt>
      <trkpt lat="43.92455" lon="7.24526">
        <ele>989</ele>
        <time>2016-05-15T09:05:34.000Z</time>
      </trkpt>
      <trkpt lat="43.92454" lon="7.24526">
        <ele>989</ele>
        <time>2016-05-15T09:05:35.000Z</time>
      </trkpt>
      <trkpt lat="43.92453" lon="7.24527">
        <ele>988</ele>
        <time>2016-05-15T09:05:36.000Z</time>
      </trkpt>
      <trkpt lat="43.92449" lon="7.24532">
        <ele>987</ele>
        <time>2016-05-15T09:05:38.000Z</time>
      </trkpt>
      <trkpt lat="43.92446" lon="7.24536">
        <ele>987</ele>
        <time>2016-05-15T09:05:39.000Z</time>
      </trkpt>
      <trkpt lat="43.92443" lon="7.24542">
        <ele>985</ele>
        <time>2016-05-15T09:05:41.000Z</time>
      </trkpt>
      <trkpt lat="43.92441" lon="7.24549">
        <ele>983</ele>
        <time>2016-05-15T09:05:43.000Z</time>
      </trkpt>
      <trkpt lat="43.92438" lon="7.24557">
        <ele>981</ele>
        <time>2016-05-15T09:05:45.000Z</time>
      </trkpt>
      <trkpt lat="43.92437" lon="7.2456">
        <ele>980</ele>
        <time>2016-05-15T09:05:46.000Z</time>
      </trkpt>
      <trkpt lat="43.92436" lon="7.24567">
        <ele>979</ele>
        <time>2016-05-15T09:05:48.000Z</time>
      </trkpt>
      <trkpt lat="43.92433" lon="7.24574">
        <ele>977</ele>
        <time>2016-05-15T09:05:50.000Z</time>
      </trkpt>
      <trkpt lat="43.92427" lon="7.24583">
        <ele>974</ele>
        <time>2016-05-15T09:05:53.000Z</time>
      </trkpt>
      <trkpt lat="43.92424" lon="7.24586">
        <ele>962</ele>
        <time>2016-05-15T09:05:54.000Z</time>
      </trkpt>
      <trkpt lat="43.92418" lon="7.24591">
        <ele>962</ele>
        <time>2016-05-15T09:05:56.000Z</time>
      </trkpt>
      <trkpt lat="43.92415" lon="7.24592">
        <ele>960</ele>
        <time>2016-05-15T09:05:57.000Z</time>
      </trkpt>
      <trkpt lat="43.92409" lon="7.2459">
        <ele>959</ele>
        <time>2016-05-15T09:05:59.000Z</time>
      </trkpt>
      <trkpt lat="43.92407" lon="7.24586">
        <ele>959</ele>
        <time>2016-05-15T09:06:00.000Z</time>
      </trkpt>
      <trkpt lat="43.92395" lon="7.24571">
        <ele>968</ele>
        <time>2016-05-15T09:06:06.000Z</time>
      </trkpt>
      <trkpt lat="43.92384" lon="7.2457">
        <ele>966</ele>
        <time>2016-05-15T09:06:11.000Z</time>
      </trkpt>
      <trkpt lat="43.92378" lon="7.2457">
        <ele>965</ele>
        <time>2016-05-15T09:06:14.000Z</time>
      </trkpt>
      <trkpt lat="43.92375" lon="7.24567">
        <ele>964</ele>
        <time>2016-05-15T09:06:16.000Z</time>
      </trkpt>
      <trkpt lat="43.92372" lon="7.24561">
        <ele>964</ele>
        <time>2016-05-15T09:06:19.000Z</time>
      </trkpt>
      <trkpt lat="43.92369" lon="7.24555">
        <ele>965</ele>
        <time>2016-05-15T09:06:21.000Z</time>
      </trkpt>
      <trkpt lat="43.9236" lon="7.24537">
        <ele>965</ele>
        <time>2016-05-15T09:06:26.000Z</time>
      </trkpt>
      <trkpt lat="43.92357" lon="7.24534">
        <ele>965</ele>
        <time>2016-05-15T09:06:27.000Z</time>
      </trkpt>
      <trkpt lat="43.92354" lon="7.24528">
        <ele>965</ele>
        <time>2016-05-15T09:06:29.000Z</time>
      </trkpt>
      <trkpt lat="43.9235" lon="7.24523">
        <ele>965</ele>
        <time>2016-05-15T09:06:31.000Z</time>
      </trkpt>
      <trkpt lat="43.92349" lon="7.2452">
        <ele>964</ele>
        <time>2016-05-15T09:06:32.000Z</time>
      </trkpt>
      <trkpt lat="43.92348" lon="7.24518">
        <ele>964</ele>
        <time>2016-05-15T09:06:33.000Z</time>
      </trkpt>
      <trkpt lat="43.92348" lon="7.24516">
        <ele>964</ele>
        <time>2016-05-15T09:06:34.000Z</time>
      </trkpt>
      <trkpt lat="43.92348" lon="7.24511">
        <ele>964</ele>
        <time>2016-05-15T09:06:36.000Z</time>
      </trkpt>
      <trkpt lat="43.92346" lon="7.24509">
        <ele>963</ele>
        <time>2016-05-15T09:06:38.000Z</time>
      </trkpt>
      <trkpt lat="43.92346" lon="7.24511">
        <ele>963</ele>
        <time>2016-05-15T09:06:40.000Z</time>
      </trkpt>
      <trkpt lat="43.92345" lon="7.24512">
        <ele>963</ele>
        <time>2016-05-15T09:06:41.000Z</time>
      </trkpt>
      <trkpt lat="43.92343" lon="7.24512">
        <ele>963</ele>
        <time>2016-05-15T09:06:43.000Z</time>
      </trkpt>
      <trkpt lat="43.92342" lon="7.2451">
        <ele>962</ele>
        <time>2016-05-15T09:06:44.000Z</time>
      </trkpt>
      <trkpt lat="43.92338" lon="7.24501">
        <ele>960</ele>
        <time>2016-05-15T09:06:47.000Z</time>
      </trkpt>
      <trkpt lat="43.92336" lon="7.24495">
        <ele>965</ele>
        <time>2016-05-15T09:06:49.000Z</time>
      </trkpt>
      <trkpt lat="43.92331" lon="7.24489">
        <ele>951</ele>
        <time>2016-05-15T09:06:52.000Z</time>
      </trkpt>
      <trkpt lat="43.92331" lon="7.2449">
        <ele>951</ele>
        <time>2016-05-15T09:06:53.000Z</time>
      </trkpt>
      <trkpt lat="43.92331" lon="7.24491">
        <ele>952</ele>
        <time>2016-05-15T09:06:54.000Z</time>
      </trkpt>
      <trkpt lat="43.92331" lon="7.24496">
        <ele>954</ele>
        <time>2016-05-15T09:06:56.000Z</time>
      </trkpt>
      <trkpt lat="43.92331" lon="7.24498">
        <ele>955</ele>
        <time>2016-05-15T09:06:57.000Z</time>
      </trkpt>
      <trkpt lat="43.92329" lon="7.24497">
        <ele>954</ele>
        <time>2016-05-15T09:06:59.000Z</time>
      </trkpt>
      <trkpt lat="43.92327" lon="7.24492">
        <ele>951</ele>
        <time>2016-05-15T09:07:01.000Z</time>
      </trkpt>
      <trkpt lat="43.92325" lon="7.24489">
        <ele>949</ele>
        <time>2016-05-15T09:07:02.000Z</time>
      </trkpt>
      <trkpt lat="43.92322" lon="7.24484">
        <ele>946</ele>
        <time>2016-05-15T09:07:04.000Z</time>
      </trkpt>
      <trkpt lat="43.92319" lon="7.24477">
        <ele>945</ele>
        <time>2016-05-15T09:07:07.000Z</time>
      </trkpt>
      <trkpt lat="43.92316" lon="7.24473">
        <ele>943</ele>
        <time>2016-05-15T09:07:09.000Z</time>
      </trkpt>
      <trkpt lat="43.92313" lon="7.24471">
        <ele>943</ele>
        <time>2016-05-15T09:07:11.000Z</time>
      </trkpt>
      <trkpt lat="43.92312" lon="7.24469">
        <ele>942</ele>
        <time>2016-05-15T09:07:12.000Z</time>
      </trkpt>
      <trkpt lat="43.92312" lon="7.24466">
        <ele>942</ele>
        <time>2016-05-15T09:07:13.000Z</time>
      </trkpt>
      <trkpt lat="43.92312" lon="7.24459">
        <ele>943</ele>
        <time>2016-05-15T09:07:15.000Z</time>
      </trkpt>
      <trkpt lat="43.92312" lon="7.24458">
        <ele>943</ele>
        <time>2016-05-15T09:07:16.000Z</time>
      </trkpt>
      <trkpt lat="43.92312" lon="7.24459">
        <ele>943</ele>
        <time>2016-05-15T09:07:17.000Z</time>
      </trkpt>
      <trkpt lat="43.92311" lon="7.24458">
        <ele>943</ele>
        <time>2016-05-15T09:07:21.000Z</time>
      </trkpt>
      <trkpt lat="43.92311" lon="7.24458">
        <ele>943</ele>
        <time>2016-05-15T09:07:24.000Z</time>
      </trkpt>
      <trkpt lat="43.92311" lon="7.24457">
        <ele>943</ele>
        <time>2016-05-15T09:07:35.000Z</time>
      </trkpt>
      <trkpt lat="43.92311" lon="7.24457">
        <ele>943</ele>
        <time>2016-05-15T09:07:36.000Z</time>
      </trkpt>
      <trkpt lat="43.92309" lon="7.24451">
        <ele>944</ele>
        <time>2016-05-15T09:07:41.000Z</time>
      </trkpt>
      <trkpt lat="43.92308" lon="7.2445">
        <ele>943</ele>
        <time>2016-05-15T09:07:42.000Z</time>
      </trkpt>
      <trkpt lat="43.92305" lon="7.24447">
        <ele>943</ele>
        <time>2016-05-15T09:07:44.000Z</time>
      </trkpt>
      <trkpt lat="43.92305" lon="7.24443">
        <ele>944</ele>
        <time>2016-05-15T09:07:46.000Z</time>
      </trkpt>
      <trkpt lat="43.92306" lon="7.24441">
        <ele>945</ele>
        <time>2016-05-15T09:07:47.000Z</time>
      </trkpt>
      <trkpt lat="43.92307" lon="7.24438">
        <ele>946</ele>
        <time>2016-05-15T09:07:48.000Z</time>
      </trkpt>
      <trkpt lat="43.92306" lon="7.24431">
        <ele>947</ele>
        <time>2016-05-15T09:07:50.000Z</time>
      </trkpt>
      <trkpt lat="43.92308" lon="7.24427">
        <ele>949</ele>
        <time>2016-05-15T09:07:51.000Z</time>
      </trkpt>
      <trkpt lat="43.9231" lon="7.24421">
        <ele>952</ele>
        <time>2016-05-15T09:07:53.000Z</time>
      </trkpt>
      <trkpt lat="43.92311" lon="7.2441">
        <ele>967</ele>
        <time>2016-05-15T09:07:55.000Z</time>
      </trkpt>
      <trkpt lat="43.92308" lon="7.24401">
        <ele>965</ele>
        <time>2016-05-15T09:07:58.000Z</time>
      </trkpt>
      <trkpt lat="43.92306" lon="7.24398">
        <ele>965</ele>
        <time>2016-05-15T09:07:59.000Z</time>
      </trkpt>
      <trkpt lat="43.92302" lon="7.24393">
        <ele>964</ele>
        <time>2016-05-15T09:08:01.000Z</time>
      </trkpt>
      <trkpt lat="43.92298" lon="7.2439">
        <ele>962</ele>
        <time>2016-05-15T09:08:03.000Z</time>
      </trkpt>
      <trkpt lat="43.92293" lon="7.2439">
        <ele>960</ele>
        <time>2016-05-15T09:08:05.000Z</time>
      </trkpt>
      <trkpt lat="43.92287" lon="7.24392">
        <ele>957</ele>
        <time>2016-05-15T09:08:08.000Z</time>
      </trkpt>
      <trkpt lat="43.92284" lon="7.24394">
        <ele>956</ele>
        <time>2016-05-15T09:08:10.000Z</time>
      </trkpt>
      <trkpt lat="43.92281" lon="7.24394">
        <ele>954</ele>
        <time>2016-05-15T09:08:12.000Z</time>
      </trkpt>
      <trkpt lat="43.92279" lon="7.24394">
        <ele>953</ele>
        <time>2016-05-15T09:08:13.000Z</time>
      </trkpt>
      <trkpt lat="43.92277" lon="7.24393">
        <ele>953</ele>
        <time>2016-05-15T09:08:14.000Z</time>
      </trkpt>
      <trkpt lat="43.92273" lon="7.24388">
        <ele>952</ele>
        <time>2016-05-15T09:08:16.000Z</time>
      </trkpt>
      <trkpt lat="43.9227" lon="7.24387">
        <ele>951</ele>
        <time>2016-05-15T09:08:17.000Z</time>
      </trkpt>
      <trkpt lat="43.92268" lon="7.24386">
        <ele>951</ele>
        <time>2016-05-15T09:08:18.000Z</time>
      </trkpt>
      <trkpt lat="43.92265" lon="7.24386">
        <ele>950</ele>
        <time>2016-05-15T09:08:20.000Z</time>
      </trkpt>
      <trkpt lat="43.92266" lon="7.24388">
        <ele>950</ele>
        <time>2016-05-15T09:08:21.000Z</time>
      </trkpt>
      <trkpt lat="43.92267" lon="7.24389">
        <ele>950</ele>
        <time>2016-05-15T09:08:22.000Z</time>
      </trkpt>
      <trkpt lat="43.92267" lon="7.24392">
        <ele>948</ele>
        <time>2016-05-15T09:08:24.000Z</time>
      </trkpt>
      <trkpt lat="43.92266" lon="7.24392">
        <ele>948</ele>
        <time>2016-05-15T09:08:25.000Z</time>
      </trkpt>
      <trkpt lat="43.92259" lon="7.2439">
        <ele>946</ele>
        <time>2016-05-15T09:08:28.000Z</time>
      </trkpt>
      <trkpt lat="43.92255" lon="7.2439">
        <ele>945</ele>
        <time>2016-05-15T09:08:29.000Z</time>
      </trkpt>
      <trkpt lat="43.92251" lon="7.24386">
        <ele>947</ele>
        <time>2016-05-15T09:08:31.000Z</time>
      </trkpt>
      <trkpt lat="43.9225" lon="7.24381">
        <ele>918</ele>
        <time>2016-05-15T09:08:32.000Z</time>
      </trkpt>
      <trkpt lat="43.92249" lon="7.24373">
        <ele>920</ele>
        <time>2016-05-15T09:08:34.000Z</time>
      </trkpt>
      <trkpt lat="43.92245" lon="7.24369">
        <ele>921</ele>
        <time>2016-05-15T09:08:36.000Z</time>
      </trkpt>
      <trkpt lat="43.9224" lon="7.24368">
        <ele>921</ele>
        <time>2016-05-15T09:08:39.000Z</time>
      </trkpt>
      <trkpt lat="43.92236" lon="7.24368">
        <ele>920</ele>
        <time>2016-05-15T09:08:41.000Z</time>
      </trkpt>
      <trkpt lat="43.92234" lon="7.24368">
        <ele>920</ele>
        <time>2016-05-15T09:08:43.000Z</time>
      </trkpt>
      <trkpt lat="43.92228" lon="7.24373">
        <ele>917</ele>
        <time>2016-05-15T09:08:46.000Z</time>
      </trkpt>
      <trkpt lat="43.92216" lon="7.24373">
        <ele>915</ele>
        <time>2016-05-15T09:08:49.000Z</time>
      </trkpt>
      <trkpt lat="43.92214" lon="7.24369">
        <ele>915</ele>
        <time>2016-05-15T09:08:50.000Z</time>
      </trkpt>
      <trkpt lat="43.92212" lon="7.24361">
        <ele>917</ele>
        <time>2016-05-15T09:08:52.000Z</time>
      </trkpt>
      <trkpt lat="43.9221" lon="7.24358">
        <ele>917</ele>
        <time>2016-05-15T09:08:53.000Z</time>
      </trkpt>
      <trkpt lat="43.92206" lon="7.24349">
        <ele>918</ele>
        <time>2016-05-15T09:08:55.000Z</time>
      </trkpt>
      <trkpt lat="43.92198" lon="7.24338">
        <ele>918</ele>
        <time>2016-05-15T09:08:57.000Z</time>
      </trkpt>
      <trkpt lat="43.92195" lon="7.24333">
        <ele>939</ele>
        <time>2016-05-15T09:08:58.000Z</time>
      </trkpt>
      <trkpt lat="43.92191" lon="7.2433">
        <ele>938</ele>
        <time>2016-05-15T09:09:00.000Z</time>
      </trkpt>
      <trkpt lat="43.92186" lon="7.24329">
        <ele>936</ele>
        <time>2016-05-15T09:09:02.000Z</time>
      </trkpt>
      <trkpt lat="43.92178" lon="7.2433">
        <ele>931</ele>
        <time>2016-05-15T09:09:05.000Z</time>
      </trkpt>
      <trkpt lat="43.92174" lon="7.24332">
        <ele>928</ele>
        <time>2016-05-15T09:09:07.000Z</time>
      </trkpt>
      <trkpt lat="43.9217" lon="7.24333">
        <ele>924</ele>
        <time>2016-05-15T09:09:09.000Z</time>
      </trkpt>
      <trkpt lat="43.92164" lon="7.24339">
        <ele>912</ele>
        <time>2016-05-15T09:09:12.000Z</time>
      </trkpt>
      <trkpt lat="43.92161" lon="7.24342">
        <ele>907</ele>
        <time>2016-05-15T09:09:13.000Z</time>
      </trkpt>
      <trkpt lat="43.92156" lon="7.24349">
        <ele>899</ele>
        <time>2016-05-15T09:09:15.000Z</time>
      </trkpt>
      <trkpt lat="43.92153" lon="7.24352">
        <ele>896</ele>
        <time>2016-05-15T09:09:16.000Z</time>
      </trkpt>
      <trkpt lat="43.9215" lon="7.24355">
        <ele>893</ele>
        <time>2016-05-15T09:09:17.000Z</time>
      </trkpt>
      <trkpt lat="43.92147" lon="7.24356">
        <ele>892</ele>
        <time>2016-05-15T09:09:18.000Z</time>
      </trkpt>
      <trkpt lat="43.92145" lon="7.24359">
        <ele>890</ele>
        <time>2016-05-15T09:09:19.000Z</time>
      </trkpt>
      <trkpt lat="43.92141" lon="7.24363">
        <ele>887</ele>
        <time>2016-05-15T09:09:21.000Z</time>
      </trkpt>
      <trkpt lat="43.9214" lon="7.24364">
        <ele>887</ele>
        <time>2016-05-15T09:09:22.000Z</time>
      </trkpt>
      <trkpt lat="43.92139" lon="7.24365">
        <ele>886</ele>
        <time>2016-05-15T09:09:23.000Z</time>
      </trkpt>
      <trkpt lat="43.92136" lon="7.24374">
        <ele>883</ele>
        <time>2016-05-15T09:09:26.000Z</time>
      </trkpt>
      <trkpt lat="43.92135" lon="7.24378">
        <ele>881</ele>
        <time>2016-05-15T09:09:27.000Z</time>
      </trkpt>
      <trkpt lat="43.92127" lon="7.24382">
        <ele>879</ele>
        <time>2016-05-15T09:09:30.000Z</time>
      </trkpt>
      <trkpt lat="43.92122" lon="7.24381">
        <ele>878</ele>
        <time>2016-05-15T09:09:32.000Z</time>
      </trkpt>
      <trkpt lat="43.9212" lon="7.24381">
        <ele>878</ele>
        <time>2016-05-15T09:09:33.000Z</time>
      </trkpt>
      <trkpt lat="43.92117" lon="7.24379">
        <ele>878</ele>
        <time>2016-05-15T09:09:35.000Z</time>
      </trkpt>
      <trkpt lat="43.92112" lon="7.24377">
        <ele>878</ele>
        <time>2016-05-15T09:09:37.000Z</time>
      </trkpt>
      <trkpt lat="43.92109" lon="7.24375">
        <ele>878</ele>
        <time>2016-05-15T09:09:39.000Z</time>
      </trkpt>
      <trkpt lat="43.92106" lon="7.24376">
        <ele>877</ele>
        <time>2016-05-15T09:09:40.000Z</time>
      </trkpt>
      <trkpt lat="43.92104" lon="7.24377">
        <ele>877</ele>
        <time>2016-05-15T09:09:41.000Z</time>
      </trkpt>
      <trkpt lat="43.92103" lon="7.24381">
        <ele>875</ele>
        <time>2016-05-15T09:09:43.000Z</time>
      </trkpt>
      <trkpt lat="43.92101" lon="7.24384">
        <ele>874</ele>
        <time>2016-05-15T09:09:44.000Z</time>
      </trkpt>
      <trkpt lat="43.92099" lon="7.24383">
        <ele>874</ele>
        <time>2016-05-15T09:09:45.000Z</time>
      </trkpt>
      <trkpt lat="43.92095" lon="7.24381">
        <ele>874</ele>
        <time>2016-05-15T09:09:47.000Z</time>
      </trkpt>
      <trkpt lat="43.92089" lon="7.24381">
        <ele>874</ele>
        <time>2016-05-15T09:09:49.000Z</time>
      </trkpt>
      <trkpt lat="43.92084" lon="7.24378">
        <ele>874</ele>
        <time>2016-05-15T09:09:51.000Z</time>
      </trkpt>
      <trkpt lat="43.9208" lon="7.24375">
        <ele>858</ele>
        <time>2016-05-15T09:09:53.000Z</time>
      </trkpt>
      <trkpt lat="43.92075" lon="7.24372">
        <ele>858</ele>
        <time>2016-05-15T09:09:55.000Z</time>
      </trkpt>
      <trkpt lat="43.92074" lon="7.2437">
        <ele>859</ele>
        <time>2016-05-15T09:09:56.000Z</time>
      </trkpt>
      <trkpt lat="43.92073" lon="7.24369">
        <ele>859</ele>
        <time>2016-05-15T09:09:57.000Z</time>
      </trkpt>
      <trkpt lat="43.92071" lon="7.24369">
        <ele>858</ele>
        <time>2016-05-15T09:09:58.000Z</time>
      </trkpt>
      <trkpt lat="43.9207" lon="7.24369">
        <ele>858</ele>
        <time>2016-05-15T09:09:59.000Z</time>
      </trkpt>
      <trkpt lat="43.92069" lon="7.2437">
        <ele>858</ele>
        <time>2016-05-15T09:10:00.000Z</time>
      </trkpt>
      <trkpt lat="43.92069" lon="7.24372">
        <ele>857</ele>
        <time>2016-05-15T09:10:01.000Z</time>
      </trkpt>
      <trkpt lat="43.92066" lon="7.24375">
        <ele>856</ele>
        <time>2016-05-15T09:10:03.000Z</time>
      </trkpt>
      <trkpt lat="43.92065" lon="7.24378">
        <ele>855</ele>
        <time>2016-05-15T09:10:05.000Z</time>
      </trkpt>
      <trkpt lat="43.92064" lon="7.24386">
        <ele>854</ele>
        <time>2016-05-15T09:10:09.000Z</time>
      </trkpt>
      <trkpt lat="43.92064" lon="7.24388">
        <ele>853</ele>
        <time>2016-05-15T09:10:10.000Z</time>
      </trkpt>
      <trkpt lat="43.92064" lon="7.24387">
        <ele>854</ele>
        <time>2016-05-15T09:10:11.000Z</time>
      </trkpt>
      <trkpt lat="43.92064" lon="7.24387">
        <ele>854</ele>
        <time>2016-05-15T09:10:12.000Z</time>
      </trkpt>
      <trkpt lat="43.92064" lon="7.24388">
        <ele>853</ele>
        <time>2016-05-15T09:10:14.000Z</time>
      </trkpt>
      <trkpt lat="43.92067" lon="7.24395">
        <ele>853</ele>
        <time>2016-05-15T09:10:17.000Z</time>
      </trkpt>
      <trkpt lat="43.92068" lon="7.24398">
        <ele>852</ele>
        <time>2016-05-15T09:10:18.000Z</time>
      </trkpt>
      <trkpt lat="43.9207" lon="7.24405">
        <ele>852</ele>
        <time>2016-05-15T09:10:20.000Z</time>
      </trkpt>
      <trkpt lat="43.92069" lon="7.24407">
        <ele>851</ele>
        <time>2016-05-15T09:10:21.000Z</time>
      </trkpt>
      <trkpt lat="43.92068" lon="7.24407">
        <ele>851</ele>
        <time>2016-05-15T09:10:22.000Z</time>
      </trkpt>
      <trkpt lat="43.92065" lon="7.24407">
        <ele>851</ele>
        <time>2016-05-15T09:10:23.000Z</time>
      </trkpt>
      <trkpt lat="43.9206" lon="7.24409">
        <ele>851</ele>
        <time>2016-05-15T09:10:25.000Z</time>
      </trkpt>
      <trkpt lat="43.92053" lon="7.24409">
        <ele>850</ele>
        <time>2016-05-15T09:10:27.000Z</time>
      </trkpt>
      <trkpt lat="43.92045" lon="7.24409">
        <ele>849</ele>
        <time>2016-05-15T09:10:30.000Z</time>
      </trkpt>
      <trkpt lat="43.92044" lon="7.24411">
        <ele>849</ele>
        <time>2016-05-15T09:10:31.000Z</time>
      </trkpt>
      <trkpt lat="43.92042" lon="7.24418">
        <ele>833</ele>
        <time>2016-05-15T09:10:35.000Z</time>
      </trkpt>
      <trkpt lat="43.92039" lon="7.24423">
        <ele>832</ele>
        <time>2016-05-15T09:10:37.000Z</time>
      </trkpt>
      <trkpt lat="43.92036" lon="7.24426">
        <ele>832</ele>
        <time>2016-05-15T09:10:39.000Z</time>
      </trkpt>
      <trkpt lat="43.92033" lon="7.2443">
        <ele>831</ele>
        <time>2016-05-15T09:10:41.000Z</time>
      </trkpt>
      <trkpt lat="43.92028" lon="7.24437">
        <ele>830</ele>
        <time>2016-05-15T09:10:44.000Z</time>
      </trkpt>
      <trkpt lat="43.92027" lon="7.2444">
        <ele>830</ele>
        <time>2016-05-15T09:10:45.000Z</time>
      </trkpt>
      <trkpt lat="43.92021" lon="7.24453">
        <ele>828</ele>
        <time>2016-05-15T09:10:50.000Z</time>
      </trkpt>
      <trkpt lat="43.92021" lon="7.24455">
        <ele>828</ele>
        <time>2016-05-15T09:10:51.000Z</time>
      </trkpt>
      <trkpt lat="43.92018" lon="7.24463">
        <ele>827</ele>
        <time>2016-05-15T09:10:54.000Z</time>
      </trkpt>
      <trkpt lat="43.92017" lon="7.24467">
        <ele>826</ele>
        <time>2016-05-15T09:10:56.000Z</time>
      </trkpt>
      <trkpt lat="43.92016" lon="7.24469">
        <ele>826</ele>
        <time>2016-05-15T09:10:57.000Z</time>
      </trkpt>
      <trkpt lat="43.9201" lon="7.24477">
        <ele>824</ele>
        <time>2016-05-15T09:11:00.000Z</time>
      </trkpt>
      <trkpt lat="43.92005" lon="7.24483">
        <ele>823</ele>
        <time>2016-05-15T09:11:02.000Z</time>
      </trkpt>
      <trkpt lat="43.92002" lon="7.24485">
        <ele>823</ele>
        <time>2016-05-15T09:11:04.000Z</time>
      </trkpt>
      <trkpt lat="43.92003" lon="7.24485">
        <ele>823</ele>
        <time>2016-05-15T09:11:05.000Z</time>
      </trkpt>
      <trkpt lat="43.92" lon="7.24484">
        <ele>823</ele>
        <time>2016-05-15T09:11:08.000Z</time>
      </trkpt>
      <trkpt lat="43.92" lon="7.24484">
        <ele>823</ele>
        <time>2016-05-15T09:11:10.000Z</time>
      </trkpt>
      <trkpt lat="43.91999" lon="7.24484">
        <ele>820</ele>
        <time>2016-05-15T09:11:17.000Z</time>
      </trkpt>
      <trkpt lat="43.91996" lon="7.24483">
        <ele>820</ele>
        <time>2016-05-15T09:11:23.000Z</time>
      </trkpt>
      <trkpt lat="43.91995" lon="7.24482">
        <ele>821</ele>
        <time>2016-05-15T09:11:24.000Z</time>
      </trkpt>
      <trkpt lat="43.91993" lon="7.24479">
        <ele>821</ele>
        <time>2016-05-15T09:11:28.000Z</time>
      </trkpt>
      <trkpt lat="43.9199" lon="7.24476">
        <ele>821</ele>
        <time>2016-05-15T09:11:31.000Z</time>
      </trkpt>
      <trkpt lat="43.91989" lon="7.24475">
        <ele>821</ele>
        <time>2016-05-15T09:11:33.000Z</time>
      </trkpt>
      <trkpt lat="43.91986" lon="7.24475">
        <ele>821</ele>
        <time>2016-05-15T09:11:34.000Z</time>
      </trkpt>
      <trkpt lat="43.9198" lon="7.24485">
        <ele>820</ele>
        <time>2016-05-15T09:11:38.000Z</time>
      </trkpt>
      <trkpt lat="43.9197" lon="7.24498">
        <ele>820</ele>
        <time>2016-05-15T09:11:41.000Z</time>
      </trkpt>
      <trkpt lat="43.91965" lon="7.24502">
        <ele>809</ele>
        <time>2016-05-15T09:11:43.000Z</time>
      </trkpt>
      <trkpt lat="43.91961" lon="7.24507">
        <ele>809</ele>
        <time>2016-05-15T09:11:45.000Z</time>
      </trkpt>
      <trkpt lat="43.9196" lon="7.2451">
        <ele>808</ele>
        <time>2016-05-15T09:11:46.000Z</time>
      </trkpt>
      <trkpt lat="43.91958" lon="7.24512">
        <ele>808</ele>
        <time>2016-05-15T09:11:47.000Z</time>
      </trkpt>
      <trkpt lat="43.91952" lon="7.24515">
        <ele>808</ele>
        <time>2016-05-15T09:11:49.000Z</time>
      </trkpt>
      <trkpt lat="43.91945" lon="7.24518">
        <ele>808</ele>
        <time>2016-05-15T09:11:51.000Z</time>
      </trkpt>
      <trkpt lat="43.9194" lon="7.24518">
        <ele>808</ele>
        <time>2016-05-15T09:11:52.000Z</time>
      </trkpt>
      <trkpt lat="43.91933" lon="7.24521">
        <ele>809</ele>
        <time>2016-05-15T09:11:54.000Z</time>
      </trkpt>
      <trkpt lat="43.91924" lon="7.24528">
        <ele>808</ele>
        <time>2016-05-15T09:11:57.000Z</time>
      </trkpt>
      <trkpt lat="43.91921" lon="7.24528">
        <ele>808</ele>
        <time>2016-05-15T09:11:58.000Z</time>
      </trkpt>
      <trkpt lat="43.91918" lon="7.24529">
        <ele>808</ele>
        <time>2016-05-15T09:11:59.000Z</time>
      </trkpt>
      <trkpt lat="43.91909" lon="7.2453">
        <ele>809</ele>
        <time>2016-05-15T09:12:02.000Z</time>
      </trkpt>
      <trkpt lat="43.91901" lon="7.24529">
        <ele>809</ele>
        <time>2016-05-15T09:12:04.000Z</time>
      </trkpt>
      <trkpt lat="43.91898" lon="7.24531">
        <ele>809</ele>
        <time>2016-05-15T09:12:05.000Z</time>
      </trkpt>
      <trkpt lat="43.91894" lon="7.24532">
        <ele>808</ele>
        <time>2016-05-15T09:12:06.000Z</time>
      </trkpt>
      <trkpt lat="43.91892" lon="7.24535">
        <ele>808</ele>
        <time>2016-05-15T09:12:08.000Z</time>
      </trkpt>
      <trkpt lat="43.91897" lon="7.24539">
        <ele>808</ele>
        <time>2016-05-15T09:12:10.000Z</time>
      </trkpt>
      <trkpt lat="43.919" lon="7.2454">
        <ele>807</ele>
        <time>2016-05-15T09:12:11.000Z</time>
      </trkpt>
      <trkpt lat="43.91907" lon="7.24539">
        <ele>808</ele>
        <time>2016-05-15T09:12:13.000Z</time>
      </trkpt>
      <trkpt lat="43.91915" lon="7.24541">
        <ele>807</ele>
        <time>2016-05-15T09:12:15.000Z</time>
      </trkpt>
      <trkpt lat="43.91919" lon="7.24542">
        <ele>805</ele>
        <time>2016-05-15T09:12:16.000Z</time>
      </trkpt>
      <trkpt lat="43.91923" lon="7.24542">
        <ele>805</ele>
        <time>2016-05-15T09:12:17.000Z</time>
      </trkpt>
      <trkpt lat="43.91927" lon="7.24539">
        <ele>805</ele>
        <time>2016-05-15T09:12:18.000Z</time>
      </trkpt>
      <trkpt lat="43.91931" lon="7.24537">
        <ele>805</ele>
        <time>2016-05-15T09:12:19.000Z</time>
      </trkpt>
      <trkpt lat="43.91944" lon="7.24532">
        <ele>806</ele>
        <time>2016-05-15T09:12:22.000Z</time>
      </trkpt>
      <trkpt lat="43.91953" lon="7.24533">
        <ele>805</ele>
        <time>2016-05-15T09:12:24.000Z</time>
      </trkpt>
      <trkpt lat="43.91965" lon="7.24537">
        <ele>804</ele>
        <time>2016-05-15T09:12:28.000Z</time>
      </trkpt>
      <trkpt lat="43.91968" lon="7.24538">
        <ele>804</ele>
        <time>2016-05-15T09:12:29.000Z</time>
      </trkpt>
      <trkpt lat="43.9198" lon="7.24539">
        <ele>803</ele>
        <time>2016-05-15T09:12:32.000Z</time>
      </trkpt>
      <trkpt lat="43.91987" lon="7.2454">
        <ele>803</ele>
        <time>2016-05-15T09:12:34.000Z</time>
      </trkpt>
      <trkpt lat="43.91998" lon="7.24541">
        <ele>802</ele>
        <time>2016-05-15T09:12:37.000Z</time>
      </trkpt>
      <trkpt lat="43.92006" lon="7.24541">
        <ele>798</ele>
        <time>2016-05-15T09:12:39.000Z</time>
      </trkpt>
      <trkpt lat="43.9201" lon="7.24541">
        <ele>798</ele>
        <time>2016-05-15T09:12:40.000Z</time>
      </trkpt>
      <trkpt lat="43.92017" lon="7.2454">
        <ele>798</ele>
        <time>2016-05-15T09:12:42.000Z</time>
      </trkpt>
      <trkpt lat="43.92022" lon="7.2454">
        <ele>798</ele>
        <time>2016-05-15T09:12:43.000Z</time>
      </trkpt>
      <trkpt lat="43.92031" lon="7.24537">
        <ele>798</ele>
        <time>2016-05-15T09:12:45.000Z</time>
      </trkpt>
      <trkpt lat="43.92036" lon="7.24535">
        <ele>798</ele>
        <time>2016-05-15T09:12:46.000Z</time>
      </trkpt>
      <trkpt lat="43.92041" lon="7.24533">
        <ele>798</ele>
        <time>2016-05-15T09:12:47.000Z</time>
      </trkpt>
      <trkpt lat="43.92046" lon="7.24532">
        <ele>798</ele>
        <time>2016-05-15T09:12:48.000Z</time>
      </trkpt>
      <trkpt lat="43.92049" lon="7.24533">
        <ele>798</ele>
        <time>2016-05-15T09:12:49.000Z</time>
      </trkpt>
      <trkpt lat="43.92053" lon="7.24536">
        <ele>797</ele>
        <time>2016-05-15T09:12:50.000Z</time>
      </trkpt>
      <trkpt lat="43.9206" lon="7.2454">
        <ele>796</ele>
        <time>2016-05-15T09:12:52.000Z</time>
      </trkpt>
      <trkpt lat="43.92065" lon="7.24542">
        <ele>796</ele>
        <time>2016-05-15T09:12:54.000Z</time>
      </trkpt>
      <trkpt lat="43.92065" lon="7.24542">
        <ele>796</ele>
        <time>2016-05-15T09:12:55.000Z</time>
      </trkpt>
      <trkpt lat="43.92066" lon="7.24543">
        <ele>795</ele>
        <time>2016-05-15T09:12:56.000Z</time>
      </trkpt>
      <trkpt lat="43.92066" lon="7.24544">
        <ele>795</ele>
        <time>2016-05-15T09:12:58.000Z</time>
      </trkpt>
      <trkpt lat="43.92066" lon="7.24544">
        <ele>795</ele>
        <time>2016-05-15T09:13:00.000Z</time>
      </trkpt>
      <trkpt lat="43.92066" lon="7.24545">
        <ele>795</ele>
        <time>2016-05-15T09:13:02.000Z</time>
      </trkpt>
      <trkpt lat="43.92066" lon="7.24546">
        <ele>794</ele>
        <time>2016-05-15T09:13:06.000Z</time>
      </trkpt>
      <trkpt lat="43.9206" lon="7.24551">
        <ele>793</ele>
        <time>2016-05-15T09:13:11.000Z</time>
      </trkpt>
      <trkpt lat="43.92056" lon="7.2455">
        <ele>794</ele>
        <time>2016-05-15T09:13:13.000Z</time>
      </trkpt>
      <trkpt lat="43.92053" lon="7.24549">
        <ele>794</ele>
        <time>2016-05-15T09:13:15.000Z</time>
      </trkpt>
      <trkpt lat="43.92053" lon="7.2455">
        <ele>794</ele>
        <time>2016-05-15T09:13:16.000Z</time>
      </trkpt>
      <trkpt lat="43.92052" lon="7.2455">
        <ele>794</ele>
        <time>2016-05-15T09:13:17.000Z</time>
      </trkpt>
      <trkpt lat="43.92049" lon="7.2455">
        <ele>794</ele>
        <time>2016-05-15T09:13:23.000Z</time>
      </trkpt>
      <trkpt lat="43.92045" lon="7.24549">
        <ele>795</ele>
        <time>2016-05-15T09:13:26.000Z</time>
      </trkpt>
      <trkpt lat="43.92044" lon="7.2455">
        <ele>795</ele>
        <time>2016-05-15T09:13:28.000Z</time>
      </trkpt>
      <trkpt lat="43.92043" lon="7.24551">
        <ele>794</ele>
        <time>2016-05-15T09:13:30.000Z</time>
      </trkpt>
      <trkpt lat="43.92042" lon="7.24552">
        <ele>794</ele>
        <time>2016-05-15T09:13:31.000Z</time>
      </trkpt>
      <trkpt lat="43.9204" lon="7.24553">
        <ele>794</ele>
        <time>2016-05-15T09:13:33.000Z</time>
      </trkpt>
      <trkpt lat="43.92038" lon="7.24558">
        <ele>793</ele>
        <time>2016-05-15T09:13:36.000Z</time>
      </trkpt>
      <trkpt lat="43.92036" lon="7.24567">
        <ele>792</ele>
        <time>2016-05-15T09:13:42.000Z</time>
      </trkpt>
      <trkpt lat="43.92033" lon="7.24571">
        <ele>791</ele>
        <time>2016-05-15T09:13:48.000Z</time>
      </trkpt>
      <trkpt lat="43.9203" lon="7.24574">
        <ele>791</ele>
        <time>2016-05-15T09:13:53.000Z</time>
      </trkpt>
      <trkpt lat="43.9203" lon="7.24576">
        <ele>790</ele>
        <time>2016-05-15T09:13:54.000Z</time>
      </trkpt>
      <trkpt lat="43.9203" lon="7.24576">
        <ele>790</ele>
        <time>2016-05-15T09:13:56.000Z</time>
      </trkpt>
      <trkpt lat="43.9203" lon="7.24578">
        <ele>790</ele>
        <time>2016-05-15T09:13:59.000Z</time>
      </trkpt>
      <trkpt lat="43.92027" lon="7.24581">
        <ele>790</ele>
        <time>2016-05-15T09:14:01.000Z</time>
      </trkpt>
      <trkpt lat="43.92026" lon="7.24585">
        <ele>771</ele>
        <time>2016-05-15T09:14:03.000Z</time>
      </trkpt>
      <trkpt lat="43.92022" lon="7.24591">
        <ele>771</ele>
        <time>2016-05-15T09:14:06.000Z</time>
      </trkpt>
      <trkpt lat="43.92018" lon="7.24595">
        <ele>771</ele>
        <time>2016-05-15T09:14:08.000Z</time>
      </trkpt>
      <trkpt lat="43.92015" lon="7.24596">
        <ele>771</ele>
        <time>2016-05-15T09:14:10.000Z</time>
      </trkpt>
      <trkpt lat="43.92011" lon="7.24595">
        <ele>772</ele>
        <time>2016-05-15T09:14:12.000Z</time>
      </trkpt>
      <trkpt lat="43.92002" lon="7.24597">
        <ele>773</ele>
        <time>2016-05-15T09:14:15.000Z</time>
      </trkpt>
      <trkpt lat="43.91999" lon="7.24597">
        <ele>777</ele>
        <time>2016-05-15T09:14:16.000Z</time>
      </trkpt>
      <trkpt lat="43.9199" lon="7.24596">
        <ele>777</ele>
        <time>2016-05-15T09:14:19.000Z</time>
      </trkpt>
      <trkpt lat="43.91985" lon="7.24599">
        <ele>776</ele>
        <time>2016-05-15T09:14:21.000Z</time>
      </trkpt>
      <trkpt lat="43.91983" lon="7.24602">
        <ele>776</ele>
        <time>2016-05-15T09:14:22.000Z</time>
      </trkpt>
      <trkpt lat="43.91982" lon="7.2461">
        <ele>774</ele>
        <time>2016-05-15T09:14:24.000Z</time>
      </trkpt>
      <trkpt lat="43.91981" lon="7.24611">
        <ele>774</ele>
        <time>2016-05-15T09:14:25.000Z</time>
      </trkpt>
      <trkpt lat="43.91978" lon="7.24618">
        <ele>773</ele>
        <time>2016-05-15T09:14:27.000Z</time>
      </trkpt>
      <trkpt lat="43.91976" lon="7.24621">
        <ele>773</ele>
        <time>2016-05-15T09:14:28.000Z</time>
      </trkpt>
      <trkpt lat="43.91974" lon="7.24621">
        <ele>773</ele>
        <time>2016-05-15T09:14:29.000Z</time>
      </trkpt>
      <trkpt lat="43.91974" lon="7.24621">
        <ele>773</ele>
        <time>2016-05-15T09:14:30.000Z</time>
      </trkpt>
      <trkpt lat="43.9197" lon="7.2462">
        <ele>773</ele>
        <time>2016-05-15T09:14:35.000Z</time>
      </trkpt>
      <trkpt lat="43.91966" lon="7.24618">
        <ele>774</ele>
        <time>2016-05-15T09:14:40.000Z</time>
      </trkpt>
      <trkpt lat="43.91964" lon="7.24617">
        <ele>775</ele>
        <time>2016-05-15T09:14:42.000Z</time>
      </trkpt>
      <trkpt lat="43.91959" lon="7.24615">
        <ele>775</ele>
        <time>2016-05-15T09:14:48.000Z</time>
      </trkpt>
      <trkpt lat="43.91954" lon="7.24618">
        <ele>776</ele>
        <time>2016-05-15T09:14:53.000Z</time>
      </trkpt>
      <trkpt lat="43.91952" lon="7.24618">
        <ele>776</ele>
        <time>2016-05-15T09:14:55.000Z</time>
      </trkpt>
      <trkpt lat="43.9195" lon="7.2462">
        <ele>776</ele>
        <time>2016-05-15T09:14:58.000Z</time>
      </trkpt>
      <trkpt lat="43.91946" lon="7.24622">
        <ele>776</ele>
        <time>2016-05-15T09:15:02.000Z</time>
      </trkpt>
      <trkpt lat="43.91945" lon="7.24622">
        <ele>776</ele>
        <time>2016-05-15T09:15:03.000Z</time>
      </trkpt>
      <trkpt lat="43.91942" lon="7.24623">
        <ele>776</ele>
        <time>2016-05-15T09:15:06.000Z</time>
      </trkpt>
      <trkpt lat="43.9194" lon="7.24626">
        <ele>776</ele>
        <time>2016-05-15T09:15:08.000Z</time>
      </trkpt>
      <trkpt lat="43.9194" lon="7.24627">
        <ele>776</ele>
        <time>2016-05-15T09:15:09.000Z</time>
      </trkpt>
      <trkpt lat="43.91939" lon="7.24628">
        <ele>775</ele>
        <time>2016-05-15T09:15:10.000Z</time>
      </trkpt>
      <trkpt lat="43.91939" lon="7.24628">
        <ele>775</ele>
        <time>2016-05-15T09:15:13.000Z</time>
      </trkpt>
      <trkpt lat="43.91939" lon="7.24628">
        <ele>775</ele>
        <time>2016-05-15T09:15:14.000Z</time>
      </trkpt>
      <trkpt lat="43.91935" lon="7.24635">
        <ele>775</ele>
        <time>2016-05-15T09:15:19.000Z</time>
      </trkpt>
      <trkpt lat="43.91927" lon="7.24643">
        <ele>774</ele>
        <time>2016-05-15T09:15:25.000Z</time>
      </trkpt>
      <trkpt lat="43.91925" lon="7.24644">
        <ele>774</ele>
        <time>2016-05-15T09:15:26.000Z</time>
      </trkpt>
      <trkpt lat="43.91915" lon="7.24646">
        <ele>784</ele>
        <time>2016-05-15T09:15:32.000Z</time>
      </trkpt>
      <trkpt lat="43.9191" lon="7.24646">
        <ele>785</ele>
        <time>2016-05-15T09:15:35.000Z</time>
      </trkpt>
      <trkpt lat="43.91905" lon="7.24648">
        <ele>785</ele>
        <time>2016-05-15T09:15:38.000Z</time>
      </trkpt>
      <trkpt lat="43.91901" lon="7.24652">
        <ele>785</ele>
        <time>2016-05-15T09:15:41.000Z</time>
      </trkpt>
      <trkpt lat="43.91899" lon="7.24654">
        <ele>785</ele>
        <time>2016-05-15T09:15:42.000Z</time>
      </trkpt>
      <trkpt lat="43.91892" lon="7.24662">
        <ele>786</ele>
        <time>2016-05-15T09:15:47.000Z</time>
      </trkpt>
      <trkpt lat="43.91886" lon="7.24667">
        <ele>776</ele>
        <time>2016-05-15T09:15:50.000Z</time>
      </trkpt>
      <trkpt lat="43.91881" lon="7.24672">
        <ele>777</ele>
        <time>2016-05-15T09:15:53.000Z</time>
      </trkpt>
      <trkpt lat="43.91872" lon="7.24681">
        <ele>778</ele>
        <time>2016-05-15T09:15:58.000Z</time>
      </trkpt>
      <trkpt lat="43.9187" lon="7.24682">
        <ele>778</ele>
        <time>2016-05-15T09:15:59.000Z</time>
      </trkpt>
      <trkpt lat="43.91853" lon="7.24694">
        <ele>780</ele>
        <time>2016-05-15T09:16:07.000Z</time>
      </trkpt>
      <trkpt lat="43.91848" lon="7.24696">
        <ele>781</ele>
        <time>2016-05-15T09:16:09.000Z</time>
      </trkpt>
      <trkpt lat="43.91835" lon="7.24703">
        <ele>780</ele>
        <time>2016-05-15T09:16:16.000Z</time>
      </trkpt>
      <trkpt lat="43.91824" lon="7.24712">
        <ele>794</ele>
        <time>2016-05-15T09:16:23.000Z</time>
      </trkpt>
      <trkpt lat="43.91823" lon="7.24715">
        <ele>793</ele>
        <time>2016-05-15T09:16:24.000Z</time>
      </trkpt>
      <trkpt lat="43.91818" lon="7.2472">
        <ele>793</ele>
        <time>2016-05-15T09:16:28.000Z</time>
      </trkpt>
      <trkpt lat="43.91815" lon="7.24723">
        <ele>793</ele>
        <time>2016-05-15T09:16:30.000Z</time>
      </trkpt>
      <trkpt lat="43.91807" lon="7.24732">
        <ele>793</ele>
        <time>2016-05-15T09:16:36.000Z</time>
      </trkpt>
      <trkpt lat="43.91803" lon="7.24736">
        <ele>793</ele>
        <time>2016-05-15T09:16:39.000Z</time>
      </trkpt>
      <trkpt lat="43.91803" lon="7.24737">
        <ele>793</ele>
        <time>2016-05-15T09:16:42.000Z</time>
      </trkpt>
      <trkpt lat="43.918" lon="7.24739">
        <ele>793</ele>
        <time>2016-05-15T09:16:47.000Z</time>
      </trkpt>
      <trkpt lat="43.91796" lon="7.24743">
        <ele>794</ele>
        <time>2016-05-15T09:16:53.000Z</time>
      </trkpt>
      <trkpt lat="43.91794" lon="7.24744">
        <ele>795</ele>
        <time>2016-05-15T09:16:55.000Z</time>
      </trkpt>
      <trkpt lat="43.91789" lon="7.24747">
        <ele>796</ele>
        <time>2016-05-15T09:17:00.000Z</time>
      </trkpt>
      <trkpt lat="43.91785" lon="7.24748">
        <ele>796</ele>
        <time>2016-05-15T09:17:04.000Z</time>
      </trkpt>
      <trkpt lat="43.91784" lon="7.2475">
        <ele>797</ele>
        <time>2016-05-15T09:17:06.000Z</time>
      </trkpt>
      <trkpt lat="43.91782" lon="7.24752">
        <ele>786</ele>
        <time>2016-05-15T09:17:09.000Z</time>
      </trkpt>
      <trkpt lat="43.91779" lon="7.24753">
        <ele>787</ele>
        <time>2016-05-15T09:17:14.000Z</time>
      </trkpt>
      <trkpt lat="43.91778" lon="7.24753">
        <ele>787</ele>
        <time>2016-05-15T09:17:15.000Z</time>
      </trkpt>
      <trkpt lat="43.91774" lon="7.24755">
        <ele>788</ele>
        <time>2016-05-15T09:17:19.000Z</time>
      </trkpt>
      <trkpt lat="43.91773" lon="7.24755">
        <ele>789</ele>
        <time>2016-05-15T09:17:22.000Z</time>
      </trkpt>
      <trkpt lat="43.91772" lon="7.24756">
        <ele>789</ele>
        <time>2016-05-15T09:17:23.000Z</time>
      </trkpt>
      <trkpt lat="43.91765" lon="7.24761">
        <ele>791</ele>
        <time>2016-05-15T09:17:26.000Z</time>
      </trkpt>
      <trkpt lat="43.91762" lon="7.24763">
        <ele>791</ele>
        <time>2016-05-15T09:17:27.000Z</time>
      </trkpt>
      <trkpt lat="43.91745" lon="7.24775">
        <ele>798</ele>
        <time>2016-05-15T09:17:32.000Z</time>
      </trkpt>
      <trkpt lat="43.91732" lon="7.24779">
        <ele>798</ele>
        <time>2016-05-15T09:17:37.000Z</time>
      </trkpt>
      <trkpt lat="43.91724" lon="7.24775">
        <ele>798</ele>
        <time>2016-05-15T09:17:42.000Z</time>
      </trkpt>
      <trkpt lat="43.9172" lon="7.24774">
        <ele>798</ele>
        <time>2016-05-15T09:17:44.000Z</time>
      </trkpt>
      <trkpt lat="43.91718" lon="7.24771">
        <ele>798</ele>
        <time>2016-05-15T09:17:46.000Z</time>
      </trkpt>
      <trkpt lat="43.91716" lon="7.24771">
        <ele>798</ele>
        <time>2016-05-15T09:17:50.000Z</time>
      </trkpt>
      <trkpt lat="43.91715" lon="7.24771">
        <ele>798</ele>
        <time>2016-05-15T09:17:51.000Z</time>
      </trkpt>
      <trkpt lat="43.91712" lon="7.2477">
        <ele>798</ele>
        <time>2016-05-15T09:17:57.000Z</time>
      </trkpt>
      <trkpt lat="43.91711" lon="7.24766">
        <ele>799</ele>
        <time>2016-05-15T09:18:05.000Z</time>
      </trkpt>
      <trkpt lat="43.9171" lon="7.24765">
        <ele>799</ele>
        <time>2016-05-15T09:18:13.000Z</time>
      </trkpt>
      <trkpt lat="43.9171" lon="7.24765">
        <ele>799</ele>
        <time>2016-05-15T09:18:22.000Z</time>
      </trkpt>
      <trkpt lat="43.91711" lon="7.24766">
        <ele>799</ele>
        <time>2016-05-15T09:18:30.000Z</time>
      </trkpt>
      <trkpt lat="43.91711" lon="7.24766">
        <ele>799</ele>
        <time>2016-05-15T09:18:32.000Z</time>
      </trkpt>
      <trkpt lat="43.91711" lon="7.24768">
        <ele>798</ele>
        <time>2016-05-15T09:18:45.000Z</time>
      </trkpt>
      <trkpt lat="43.91712" lon="7.24769">
        <ele>798</ele>
        <time>2016-05-15T09:18:58.000Z</time>
      </trkpt>
      <trkpt lat="43.91711" lon="7.24768">
        <ele>798</ele>
        <time>2016-05-15T09:19:05.000Z</time>
      </trkpt>
      <trkpt lat="43.91709" lon="7.24768">
        <ele>799</ele>
        <time>2016-05-15T09:19:14.000Z</time>
      </trkpt>
      <trkpt lat="43.91709" lon="7.24769">
        <ele>798</ele>
        <time>2016-05-15T09:19:20.000Z</time>
      </trkpt>
      <trkpt lat="43.91708" lon="7.24768">
        <ele>799</ele>
        <time>2016-05-15T09:19:25.000Z</time>
      </trkpt>
      <trkpt lat="43.91707" lon="7.24767">
        <ele>799</ele>
        <time>2016-05-15T09:19:30.000Z</time>
      </trkpt>
      <trkpt lat="43.91707" lon="7.24767">
        <ele>799</ele>
        <time>2016-05-15T09:19:38.000Z</time>
      </trkpt>
      <trkpt lat="43.91705" lon="7.24767">
        <ele>799</ele>
        <time>2016-05-15T09:19:49.000Z</time>
      </trkpt>
      <trkpt lat="43.91704" lon="7.24766">
        <ele>799</ele>
        <time>2016-05-15T09:20:03.000Z</time>
      </trkpt>
      <trkpt lat="43.91704" lon="7.24764">
        <ele>799</ele>
        <time>2016-05-15T09:20:11.000Z</time>
      </trkpt>
      <trkpt lat="43.91705" lon="7.24763">
        <ele>799</ele>
        <time>2016-05-15T09:20:18.000Z</time>
      </trkpt>
      <trkpt lat="43.91704" lon="7.24763">
        <ele>799</ele>
        <time>2016-05-15T09:20:29.000Z</time>
      </trkpt>
      <trkpt lat="43.91704" lon="7.24763">
        <ele>799</ele>
        <time>2016-05-15T09:20:32.000Z</time>
      </trkpt>
      <trkpt lat="43.91704" lon="7.24763">
        <ele>799</ele>
        <time>2016-05-15T09:20:37.000Z</time>
      </trkpt>
      <trkpt lat="43.91704" lon="7.24763">
        <ele>799</ele>
        <time>2016-05-15T09:20:40.000Z</time>
      </trkpt>
      <trkpt lat="43.91704" lon="7.24764">
        <ele>799</ele>
        <time>2016-05-15T09:20:49.000Z</time>
      </trkpt>
      <trkpt lat="43.91704" lon="7.24764">
        <ele>799</ele>
        <time>2016-05-15T09:20:59.000Z</time>
      </trkpt>
      <trkpt lat="43.91702" lon="7.24765">
        <ele>799</ele>
        <time>2016-05-15T09:21:05.000Z</time>
      </trkpt>
      <trkpt lat="43.91701" lon="7.24765">
        <ele>799</ele>
        <time>2016-05-15T09:21:13.000Z</time>
      </trkpt>
      <trkpt lat="43.91701" lon="7.24765">
        <ele>799</ele>
        <time>2016-05-15T09:21:25.000Z</time>
      </trkpt>
      <trkpt lat="43.91702" lon="7.24764">
        <ele>799</ele>
        <time>2016-05-15T09:21:34.000Z</time>
      </trkpt>
      <trkpt lat="43.91704" lon="7.24762">
        <ele>799</ele>
        <time>2016-05-15T09:21:39.000Z</time>
      </trkpt>
      <trkpt lat="43.91703" lon="7.24764">
        <ele>799</ele>
        <time>2016-05-15T09:21:41.000Z</time>
      </trkpt>
      <trkpt lat="43.91701" lon="7.24765">
        <ele>799</ele>
        <time>2016-05-15T09:21:45.000Z</time>
      </trkpt>
      <trkpt lat="43.917" lon="7.24765">
        <ele>799</ele>
        <time>2016-05-15T09:21:52.000Z</time>
      </trkpt>
      <trkpt lat="43.917" lon="7.24765">
        <ele>799</ele>
        <time>2016-05-15T09:21:58.000Z</time>
      </trkpt>
      <trkpt lat="43.917" lon="7.24763">
        <ele>799</ele>
        <time>2016-05-15T09:22:06.000Z</time>
      </trkpt>
      <trkpt lat="43.91701" lon="7.24763">
        <ele>799</ele>
        <time>2016-05-15T09:22:20.000Z</time>
      </trkpt>
      <trkpt lat="43.91701" lon="7.24763">
        <ele>799</ele>
        <time>2016-05-15T09:22:28.000Z</time>
      </trkpt>
      <trkpt lat="43.91702" lon="7.24763">
        <ele>799</ele>
        <time>2016-05-15T09:22:37.000Z</time>
      </trkpt>
      <trkpt lat="43.91703" lon="7.24763">
        <ele>799</ele>
        <time>2016-05-15T09:22:47.000Z</time>
      </trkpt>
      <trkpt lat="43.91703" lon="7.24761">
        <ele>799</ele>
        <time>2016-05-15T09:22:56.000Z</time>
      </trkpt>
      <trkpt lat="43.91704" lon="7.2476">
        <ele>799</ele>
        <time>2016-05-15T09:23:02.000Z</time>
      </trkpt>
      <trkpt lat="43.91702" lon="7.24757">
        <ele>799</ele>
        <time>2016-05-15T09:23:07.000Z</time>
      </trkpt>
      <trkpt lat="43.91704" lon="7.24746">
        <ele>803</ele>
        <time>2016-05-15T09:23:11.000Z</time>
      </trkpt>
      <trkpt lat="43.9171" lon="7.24733">
        <ele>803</ele>
        <time>2016-05-15T09:23:15.000Z</time>
      </trkpt>
      <trkpt lat="43.91713" lon="7.24717">
        <ele>803</ele>
        <time>2016-05-15T09:23:19.000Z</time>
      </trkpt>
      <trkpt lat="43.91715" lon="7.24708">
        <ele>803</ele>
        <time>2016-05-15T09:23:21.000Z</time>
      </trkpt>
      <trkpt lat="43.91715" lon="7.2468">
        <ele>803</ele>
        <time>2016-05-15T09:23:26.000Z</time>
      </trkpt>
      <trkpt lat="43.91714" lon="7.24673">
        <ele>803</ele>
        <time>2016-05-15T09:23:27.000Z</time>
      </trkpt>
      <trkpt lat="43.91707" lon="7.24642">
        <ele>796</ele>
        <time>2016-05-15T09:23:31.000Z</time>
      </trkpt>
      <trkpt lat="43.91703" lon="7.24627">
        <ele>795</ele>
        <time>2016-05-15T09:23:33.000Z</time>
      </trkpt>
      <trkpt lat="43.91703" lon="7.24624">
        <ele>795</ele>
        <time>2016-05-15T09:23:34.000Z</time>
      </trkpt>
      <trkpt lat="43.91705" lon="7.24613">
        <ele>794</ele>
        <time>2016-05-15T09:23:36.000Z</time>
      </trkpt>
      <trkpt lat="43.91709" lon="7.24599">
        <ele>794</ele>
        <time>2016-05-15T09:23:38.000Z</time>
      </trkpt>
      <trkpt lat="43.91717" lon="7.24586">
        <ele>795</ele>
        <time>2016-05-15T09:23:40.000Z</time>
      </trkpt>
      <trkpt lat="43.91718" lon="7.24577">
        <ele>789</ele>
        <time>2016-05-15T09:23:41.000Z</time>
      </trkpt>
      <trkpt lat="43.91717" lon="7.24555">
        <ele>787</ele>
        <time>2016-05-15T09:23:43.000Z</time>
      </trkpt>
      <trkpt lat="43.91715" lon="7.24531">
        <ele>785</ele>
        <time>2016-05-15T09:23:45.000Z</time>
      </trkpt>
      <trkpt lat="43.91712" lon="7.2452">
        <ele>785</ele>
        <time>2016-05-15T09:23:46.000Z</time>
      </trkpt>
      <trkpt lat="43.9171" lon="7.24511">
        <ele>784</ele>
        <time>2016-05-15T09:23:47.000Z</time>
      </trkpt>
      <trkpt lat="43.91707" lon="7.24504">
        <ele>784</ele>
        <time>2016-05-15T09:23:48.000Z</time>
      </trkpt>
      <trkpt lat="43.91705" lon="7.24498">
        <ele>777</ele>
        <time>2016-05-15T09:23:49.000Z</time>
      </trkpt>
      <trkpt lat="43.91703" lon="7.24491">
        <ele>777</ele>
        <time>2016-05-15T09:23:51.000Z</time>
      </trkpt>
      <trkpt lat="43.91702" lon="7.24486">
        <ele>777</ele>
        <time>2016-05-15T09:23:53.000Z</time>
      </trkpt>
      <trkpt lat="43.91701" lon="7.24483">
        <ele>777</ele>
        <time>2016-05-15T09:23:55.000Z</time>
      </trkpt>
      <trkpt lat="43.917" lon="7.24478">
        <ele>776</ele>
        <time>2016-05-15T09:23:57.000Z</time>
      </trkpt>
      <trkpt lat="43.91699" lon="7.24475">
        <ele>776</ele>
        <time>2016-05-15T09:23:58.000Z</time>
      </trkpt>
      <trkpt lat="43.91699" lon="7.24471">
        <ele>776</ele>
        <time>2016-05-15T09:23:59.000Z</time>
      </trkpt>
      <trkpt lat="43.91699" lon="7.24463">
        <ele>775</ele>
        <time>2016-05-15T09:24:01.000Z</time>
      </trkpt>
      <trkpt lat="43.91701" lon="7.24458">
        <ele>775</ele>
        <time>2016-05-15T09:24:03.000Z</time>
      </trkpt>
      <trkpt lat="43.91704" lon="7.24449">
        <ele>775</ele>
        <time>2016-05-15T09:24:05.000Z</time>
      </trkpt>
      <trkpt lat="43.91708" lon="7.24439">
        <ele>775</ele>
        <time>2016-05-15T09:24:07.000Z</time>
      </trkpt>
      <trkpt lat="43.9171" lon="7.24433">
        <ele>774</ele>
        <time>2016-05-15T09:24:08.000Z</time>
      </trkpt>
      <trkpt lat="43.91711" lon="7.24427">
        <ele>774</ele>
        <time>2016-05-15T09:24:09.000Z</time>
      </trkpt>
      <trkpt lat="43.9171" lon="7.24422">
        <ele>774</ele>
        <time>2016-05-15T09:24:10.000Z</time>
      </trkpt>
      <trkpt lat="43.9171" lon="7.24417">
        <ele>774</ele>
        <time>2016-05-15T09:24:11.000Z</time>
      </trkpt>
      <trkpt lat="43.9171" lon="7.2441">
        <ele>770</ele>
        <time>2016-05-15T09:24:12.000Z</time>
      </trkpt>
      <trkpt lat="43.91709" lon="7.24403">
        <ele>770</ele>
        <time>2016-05-15T09:24:13.000Z</time>
      </trkpt>
      <trkpt lat="43.91709" lon="7.24395">
        <ele>770</ele>
        <time>2016-05-15T09:24:15.000Z</time>
      </trkpt>
      <trkpt lat="43.9171" lon="7.24388">
        <ele>770</ele>
        <time>2016-05-15T09:24:17.000Z</time>
      </trkpt>
      <trkpt lat="43.91709" lon="7.24385">
        <ele>770</ele>
        <time>2016-05-15T09:24:18.000Z</time>
      </trkpt>
      <trkpt lat="43.91708" lon="7.24384">
        <ele>770</ele>
        <time>2016-05-15T09:24:19.000Z</time>
      </trkpt>
      <trkpt lat="43.91706" lon="7.24382">
        <ele>770</ele>
        <time>2016-05-15T09:24:21.000Z</time>
      </trkpt>
      <trkpt lat="43.91703" lon="7.24375">
        <ele>769</ele>
        <time>2016-05-15T09:24:23.000Z</time>
      </trkpt>
      <trkpt lat="43.91697" lon="7.24364">
        <ele>769</ele>
        <time>2016-05-15T09:24:25.000Z</time>
      </trkpt>
      <trkpt lat="43.9169" lon="7.24355">
        <ele>768</ele>
        <time>2016-05-15T09:24:27.000Z</time>
      </trkpt>
      <trkpt lat="43.91686" lon="7.24351">
        <ele>767</ele>
        <time>2016-05-15T09:24:28.000Z</time>
      </trkpt>
      <trkpt lat="43.91681" lon="7.2434">
        <ele>765</ele>
        <time>2016-05-15T09:24:30.000Z</time>
      </trkpt>
      <trkpt lat="43.9168" lon="7.24333">
        <ele>767</ele>
        <time>2016-05-15T09:24:31.000Z</time>
      </trkpt>
      <trkpt lat="43.91679" lon="7.24328">
        <ele>767</ele>
        <time>2016-05-15T09:24:32.000Z</time>
      </trkpt>
      <trkpt lat="43.91676" lon="7.24326">
        <ele>767</ele>
        <time>2016-05-15T09:24:33.000Z</time>
      </trkpt>
      <trkpt lat="43.91673" lon="7.24326">
        <ele>766</ele>
        <time>2016-05-15T09:24:34.000Z</time>
      </trkpt>
      <trkpt lat="43.91667" lon="7.24328">
        <ele>764</ele>
        <time>2016-05-15T09:24:36.000Z</time>
      </trkpt>
      <trkpt lat="43.9166" lon="7.24334">
        <ele>760</ele>
        <time>2016-05-15T09:24:39.000Z</time>
      </trkpt>
      <trkpt lat="43.91651" lon="7.24334">
        <ele>759</ele>
        <time>2016-05-15T09:24:44.000Z</time>
      </trkpt>
      <trkpt lat="43.91642" lon="7.24331">
        <ele>767</ele>
        <time>2016-05-15T09:24:49.000Z</time>
      </trkpt>
      <trkpt lat="43.91638" lon="7.24331">
        <ele>768</ele>
        <time>2016-05-15T09:24:51.000Z</time>
      </trkpt>
      <trkpt lat="43.91631" lon="7.24333">
        <ele>768</ele>
        <time>2016-05-15T09:24:54.000Z</time>
      </trkpt>
      <trkpt lat="43.9162" lon="7.24332">
        <ele>768</ele>
        <time>2016-05-15T09:24:58.000Z</time>
      </trkpt>
      <trkpt lat="43.91606" lon="7.24341">
        <ele>758</ele>
        <time>2016-05-15T09:25:03.000Z</time>
      </trkpt>
      <trkpt lat="43.91584" lon="7.24353">
        <ele>757</ele>
        <time>2016-05-15T09:25:10.000Z</time>
      </trkpt>
      <trkpt lat="43.91572" lon="7.24351">
        <ele>758</ele>
        <time>2016-05-15T09:25:14.000Z</time>
      </trkpt>
      <trkpt lat="43.91563" lon="7.24348">
        <ele>758</ele>
        <time>2016-05-15T09:25:19.000Z</time>
      </trkpt>
      <trkpt lat="43.91558" lon="7.24344">
        <ele>758</ele>
        <time>2016-05-15T09:25:21.000Z</time>
      </trkpt>
      <trkpt lat="43.91552" lon="7.24339">
        <ele>759</ele>
        <time>2016-05-15T09:25:24.000Z</time>
      </trkpt>
      <trkpt lat="43.91547" lon="7.24337">
        <ele>759</ele>
        <time>2016-05-15T09:25:26.000Z</time>
      </trkpt>
      <trkpt lat="43.91533" lon="7.24331">
        <ele>771</ele>
        <time>2016-05-15T09:25:31.000Z</time>
      </trkpt>
      <trkpt lat="43.91521" lon="7.24313">
        <ele>773</ele>
        <time>2016-05-15T09:25:38.000Z</time>
      </trkpt>
      <trkpt lat="43.91518" lon="7.243">
        <ele>775</ele>
        <time>2016-05-15T09:25:44.000Z</time>
      </trkpt>
      <trkpt lat="43.91515" lon="7.24299">
        <ele>775</ele>
        <time>2016-05-15T09:25:46.000Z</time>
      </trkpt>
      <trkpt lat="43.91511" lon="7.24302">
        <ele>774</ele>
        <time>2016-05-15T09:25:49.000Z</time>
      </trkpt>
      <trkpt lat="43.9151" lon="7.24303">
        <ele>774</ele>
        <time>2016-05-15T09:25:50.000Z</time>
      </trkpt>
      <trkpt lat="43.91504" lon="7.24309">
        <ele>773</ele>
        <time>2016-05-15T09:25:54.000Z</time>
      </trkpt>
      <trkpt lat="43.91501" lon="7.24314">
        <ele>772</ele>
        <time>2016-05-15T09:25:58.000Z</time>
      </trkpt>
      <trkpt lat="43.915" lon="7.24316">
        <ele>781</ele>
        <time>2016-05-15T09:25:59.000Z</time>
      </trkpt>
      <trkpt lat="43.91494" lon="7.24319">
        <ele>781</ele>
        <time>2016-05-15T09:26:04.000Z</time>
      </trkpt>
      <trkpt lat="43.91494" lon="7.24319">
        <ele>781</ele>
        <time>2016-05-15T09:26:05.000Z</time>
      </trkpt>
      <trkpt lat="43.91491" lon="7.24319">
        <ele>782</ele>
        <time>2016-05-15T09:26:09.000Z</time>
      </trkpt>
      <trkpt lat="43.91486" lon="7.24319">
        <ele>784</ele>
        <time>2016-05-15T09:26:13.000Z</time>
      </trkpt>
      <trkpt lat="43.91485" lon="7.2432">
        <ele>784</ele>
        <time>2016-05-15T09:26:14.000Z</time>
      </trkpt>
      <trkpt lat="43.91484" lon="7.24322">
        <ele>784</ele>
        <time>2016-05-15T09:26:15.000Z</time>
      </trkpt>
      <trkpt lat="43.91485" lon="7.24327">
        <ele>782</ele>
        <time>2016-05-15T09:26:18.000Z</time>
      </trkpt>
      <trkpt lat="43.91485" lon="7.24329">
        <ele>781</ele>
        <time>2016-05-15T09:26:19.000Z</time>
      </trkpt>
      <trkpt lat="43.91485" lon="7.24333">
        <ele>781</ele>
        <time>2016-05-15T09:26:22.000Z</time>
      </trkpt>
      <trkpt lat="43.91484" lon="7.24334">
        <ele>778</ele>
        <time>2016-05-15T09:26:24.000Z</time>
      </trkpt>
      <trkpt lat="43.91485" lon="7.24337">
        <ele>777</ele>
        <time>2016-05-15T09:26:29.000Z</time>
      </trkpt>
      <trkpt lat="43.91485" lon="7.24339">
        <ele>777</ele>
        <time>2016-05-15T09:26:32.000Z</time>
      </trkpt>
      <trkpt lat="43.91484" lon="7.24345">
        <ele>779</ele>
        <time>2016-05-15T09:26:38.000Z</time>
      </trkpt>
      <trkpt lat="43.91483" lon="7.24347">
        <ele>780</ele>
        <time>2016-05-15T09:26:40.000Z</time>
      </trkpt>
      <trkpt lat="43.91482" lon="7.24348">
        <ele>780</ele>
        <time>2016-05-15T09:26:42.000Z</time>
      </trkpt>
      <trkpt lat="43.91482" lon="7.2435">
        <ele>780</ele>
        <time>2016-05-15T09:26:44.000Z</time>
      </trkpt>
      <trkpt lat="43.91479" lon="7.24357">
        <ele>782</ele>
        <time>2016-05-15T09:26:51.000Z</time>
      </trkpt>
      <trkpt lat="43.91478" lon="7.24359">
        <ele>782</ele>
        <time>2016-05-15T09:26:53.000Z</time>
      </trkpt>
      <trkpt lat="43.91477" lon="7.24361">
        <ele>783</ele>
        <time>2016-05-15T09:26:56.000Z</time>
      </trkpt>
      <trkpt lat="43.91475" lon="7.24364">
        <ele>783</ele>
        <time>2016-05-15T09:27:00.000Z</time>
      </trkpt>
      <trkpt lat="43.91474" lon="7.24368">
        <ele>784</ele>
        <time>2016-05-15T09:27:04.000Z</time>
      </trkpt>
      <trkpt lat="43.91472" lon="7.24371">
        <ele>784</ele>
        <time>2016-05-15T09:27:07.000Z</time>
      </trkpt>
      <trkpt lat="43.91471" lon="7.24374">
        <ele>784</ele>
        <time>2016-05-15T09:27:09.000Z</time>
      </trkpt>
      <trkpt lat="43.91468" lon="7.24382">
        <ele>785</ele>
        <time>2016-05-15T09:27:16.000Z</time>
      </trkpt>
      <trkpt lat="43.91466" lon="7.2439">
        <ele>785</ele>
        <time>2016-05-15T09:27:23.000Z</time>
      </trkpt>
      <trkpt lat="43.91465" lon="7.24392">
        <ele>785</ele>
        <time>2016-05-15T09:27:24.000Z</time>
      </trkpt>
      <trkpt lat="43.91465" lon="7.24393">
        <ele>785</ele>
        <time>2016-05-15T09:27:25.000Z</time>
      </trkpt>
      <trkpt lat="43.91463" lon="7.24399">
        <ele>785</ele>
        <time>2016-05-15T09:27:30.000Z</time>
      </trkpt>
      <trkpt lat="43.91459" lon="7.24406">
        <ele>787</ele>
        <time>2016-05-15T09:27:36.000Z</time>
      </trkpt>
      <trkpt lat="43.91457" lon="7.24409">
        <ele>787</ele>
        <time>2016-05-15T09:27:39.000Z</time>
      </trkpt>
      <trkpt lat="43.91453" lon="7.24418">
        <ele>783</ele>
        <time>2016-05-15T09:27:47.000Z</time>
      </trkpt>
      <trkpt lat="43.91451" lon="7.24427">
        <ele>783</ele>
        <time>2016-05-15T09:27:53.000Z</time>
      </trkpt>
      <trkpt lat="43.91451" lon="7.24428">
        <ele>783</ele>
        <time>2016-05-15T09:27:54.000Z</time>
      </trkpt>
      <trkpt lat="43.91451" lon="7.24431">
        <ele>782</ele>
        <time>2016-05-15T09:27:56.000Z</time>
      </trkpt>
      <trkpt lat="43.91452" lon="7.24438">
        <ele>781</ele>
        <time>2016-05-15T09:28:00.000Z</time>
      </trkpt>
      <trkpt lat="43.91452" lon="7.24441">
        <ele>781</ele>
        <time>2016-05-15T09:28:02.000Z</time>
      </trkpt>
      <trkpt lat="43.91451" lon="7.24446">
        <ele>781</ele>
        <time>2016-05-15T09:28:05.000Z</time>
      </trkpt>
      <trkpt lat="43.91449" lon="7.2445">
        <ele>781</ele>
        <time>2016-05-15T09:28:08.000Z</time>
      </trkpt>
      <trkpt lat="43.91448" lon="7.24454">
        <ele>781</ele>
        <time>2016-05-15T09:28:11.000Z</time>
      </trkpt>
      <trkpt lat="43.91447" lon="7.24456">
        <ele>781</ele>
        <time>2016-05-15T09:28:13.000Z</time>
      </trkpt>
      <trkpt lat="43.91446" lon="7.2446">
        <ele>781</ele>
        <time>2016-05-15T09:28:16.000Z</time>
      </trkpt>
      <trkpt lat="43.91446" lon="7.24462">
        <ele>780</ele>
        <time>2016-05-15T09:28:18.000Z</time>
      </trkpt>
      <trkpt lat="43.91445" lon="7.24464">
        <ele>780</ele>
        <time>2016-05-15T09:28:23.000Z</time>
      </trkpt>
      <trkpt lat="43.91443" lon="7.2447">
        <ele>780</ele>
        <time>2016-05-15T09:28:28.000Z</time>
      </trkpt>
      <trkpt lat="43.91441" lon="7.24476">
        <ele>781</ele>
        <time>2016-05-15T09:28:32.000Z</time>
      </trkpt>
      <trkpt lat="43.91441" lon="7.24477">
        <ele>781</ele>
        <time>2016-05-15T09:28:33.000Z</time>
      </trkpt>
      <trkpt lat="43.91441" lon="7.24484">
        <ele>781</ele>
        <time>2016-05-15T09:28:39.000Z</time>
      </trkpt>
      <trkpt lat="43.91441" lon="7.24487">
        <ele>781</ele>
        <time>2016-05-15T09:28:41.000Z</time>
      </trkpt>
      <trkpt lat="43.91439" lon="7.24494">
        <ele>781</ele>
        <time>2016-05-15T09:28:46.000Z</time>
      </trkpt>
      <trkpt lat="43.91438" lon="7.24499">
        <ele>782</ele>
        <time>2016-05-15T09:28:50.000Z</time>
      </trkpt>
      <trkpt lat="43.91438" lon="7.24499">
        <ele>782</ele>
        <time>2016-05-15T09:28:51.000Z</time>
      </trkpt>
      <trkpt lat="43.91434" lon="7.24503">
        <ele>773</ele>
        <time>2016-05-15T09:28:56.000Z</time>
      </trkpt>
      <trkpt lat="43.91432" lon="7.24504">
        <ele>774</ele>
        <time>2016-05-15T09:28:58.000Z</time>
      </trkpt>
      <trkpt lat="43.91427" lon="7.24505">
        <ele>777</ele>
        <time>2016-05-15T09:29:04.000Z</time>
      </trkpt>
      <trkpt lat="43.91426" lon="7.24506">
        <ele>777</ele>
        <time>2016-05-15T09:29:05.000Z</time>
      </trkpt>
      <trkpt lat="43.9142" lon="7.24507">
        <ele>781</ele>
        <time>2016-05-15T09:29:11.000Z</time>
      </trkpt>
      <trkpt lat="43.91418" lon="7.24507">
        <ele>781</ele>
        <time>2016-05-15T09:29:14.000Z</time>
      </trkpt>
      <trkpt lat="43.91416" lon="7.24508">
        <ele>788</ele>
        <time>2016-05-15T09:29:16.000Z</time>
      </trkpt>
      <trkpt lat="43.91411" lon="7.24508">
        <ele>788</ele>
        <time>2016-05-15T09:29:21.000Z</time>
      </trkpt>
      <trkpt lat="43.91408" lon="7.24508">
        <ele>787</ele>
        <time>2016-05-15T09:29:24.000Z</time>
      </trkpt>
      <trkpt lat="43.91404" lon="7.24507">
        <ele>787</ele>
        <time>2016-05-15T09:29:29.000Z</time>
      </trkpt>
      <trkpt lat="43.91404" lon="7.24507">
        <ele>787</ele>
        <time>2016-05-15T09:29:30.000Z</time>
      </trkpt>
      <trkpt lat="43.91403" lon="7.24507">
        <ele>787</ele>
        <time>2016-05-15T09:29:33.000Z</time>
      </trkpt>
      <trkpt lat="43.91401" lon="7.24507">
        <ele>787</ele>
        <time>2016-05-15T09:29:38.000Z</time>
      </trkpt>
      <trkpt lat="43.914" lon="7.24506">
        <ele>787</ele>
        <time>2016-05-15T09:29:44.000Z</time>
      </trkpt>
      <trkpt lat="43.91399" lon="7.24506">
        <ele>787</ele>
        <time>2016-05-15T09:30:04.000Z</time>
      </trkpt>
      <trkpt lat="43.91398" lon="7.24506">
        <ele>787</ele>
        <time>2016-05-15T09:30:19.000Z</time>
      </trkpt>
      <trkpt lat="43.91397" lon="7.24505">
        <ele>787</ele>
        <time>2016-05-15T09:30:23.000Z</time>
      </trkpt>
      <trkpt lat="43.91396" lon="7.24505">
        <ele>787</ele>
        <time>2016-05-15T09:30:25.000Z</time>
      </trkpt>
      <trkpt lat="43.91397" lon="7.24505">
        <ele>787</ele>
        <time>2016-05-15T09:30:48.000Z</time>
      </trkpt>
      <trkpt lat="43.91396" lon="7.24506">
        <ele>787</ele>
        <time>2016-05-15T09:31:04.000Z</time>
      </trkpt>
      <trkpt lat="43.91394" lon="7.24506">
        <ele>787</ele>
        <time>2016-05-15T09:31:06.000Z</time>
      </trkpt>
      <trkpt lat="43.91389" lon="7.24508">
        <ele>787</ele>
        <time>2016-05-15T09:31:12.000Z</time>
      </trkpt>
      <trkpt lat="43.91387" lon="7.24509">
        <ele>788</ele>
        <time>2016-05-15T09:31:14.000Z</time>
      </trkpt>
      <trkpt lat="43.91383" lon="7.24511">
        <ele>788</ele>
        <time>2016-05-15T09:31:18.000Z</time>
      </trkpt>
      <trkpt lat="43.9138" lon="7.24511">
        <ele>788</ele>
        <time>2016-05-15T09:31:21.000Z</time>
      </trkpt>
      <trkpt lat="43.91375" lon="7.24512">
        <ele>789</ele>
        <time>2016-05-15T09:31:26.000Z</time>
      </trkpt>
      <trkpt lat="43.91373" lon="7.24513">
        <ele>789</ele>
        <time>2016-05-15T09:31:28.000Z</time>
      </trkpt>
      <trkpt lat="43.91367" lon="7.24515">
        <ele>791</ele>
        <time>2016-05-15T09:31:34.000Z</time>
      </trkpt>
      <trkpt lat="43.91366" lon="7.24515">
        <ele>791</ele>
        <time>2016-05-15T09:31:35.000Z</time>
      </trkpt>
      <trkpt lat="43.91362" lon="7.24515">
        <ele>792</ele>
        <time>2016-05-15T09:31:39.000Z</time>
      </trkpt>
      <trkpt lat="43.91357" lon="7.24513">
        <ele>795</ele>
        <time>2016-05-15T09:31:43.000Z</time>
      </trkpt>
      <trkpt lat="43.91354" lon="7.24513">
        <ele>796</ele>
        <time>2016-05-15T09:31:46.000Z</time>
      </trkpt>
      <trkpt lat="43.91348" lon="7.24515">
        <ele>798</ele>
        <time>2016-05-15T09:31:51.000Z</time>
      </trkpt>
      <trkpt lat="43.91346" lon="7.24516">
        <ele>798</ele>
        <time>2016-05-15T09:31:52.000Z</time>
      </trkpt>
      <trkpt lat="43.9134" lon="7.24518">
        <ele>799</ele>
        <time>2016-05-15T09:31:59.000Z</time>
      </trkpt>
      <trkpt lat="43.91339" lon="7.24518">
        <ele>799</ele>
        <time>2016-05-15T09:32:00.000Z</time>
      </trkpt>
      <trkpt lat="43.91335" lon="7.24519">
        <ele>799</ele>
        <time>2016-05-15T09:32:03.000Z</time>
      </trkpt>
      <trkpt lat="43.91331" lon="7.24519">
        <ele>806</ele>
        <time>2016-05-15T09:32:06.000Z</time>
      </trkpt>
      <trkpt lat="43.91325" lon="7.24514">
        <ele>808</ele>
        <time>2016-05-15T09:32:12.000Z</time>
      </trkpt>
      <trkpt lat="43.91322" lon="7.24514">
        <ele>807</ele>
        <time>2016-05-15T09:32:15.000Z</time>
      </trkpt>
      <trkpt lat="43.91321" lon="7.24513">
        <ele>807</ele>
        <time>2016-05-15T09:32:19.000Z</time>
      </trkpt>
      <trkpt lat="43.91319" lon="7.24514">
        <ele>806</ele>
        <time>2016-05-15T09:32:24.000Z</time>
      </trkpt>
      <trkpt lat="43.91311" lon="7.24521">
        <ele>803</ele>
        <time>2016-05-15T09:32:29.000Z</time>
      </trkpt>
      <trkpt lat="43.91298" lon="7.24527">
        <ele>800</ele>
        <time>2016-05-15T09:32:34.000Z</time>
      </trkpt>
      <trkpt lat="43.91288" lon="7.24526">
        <ele>801</ele>
        <time>2016-05-15T09:32:37.000Z</time>
      </trkpt>
      <trkpt lat="43.91282" lon="7.24526">
        <ele>801</ele>
        <time>2016-05-15T09:32:39.000Z</time>
      </trkpt>
      <trkpt lat="43.91275" lon="7.24527">
        <ele>801</ele>
        <time>2016-05-15T09:32:41.000Z</time>
      </trkpt>
      <trkpt lat="43.91268" lon="7.24527">
        <ele>802</ele>
        <time>2016-05-15T09:32:43.000Z</time>
      </trkpt>
      <trkpt lat="43.9126" lon="7.24528">
        <ele>802</ele>
        <time>2016-05-15T09:32:45.000Z</time>
      </trkpt>
      <trkpt lat="43.91253" lon="7.2453">
        <ele>802</ele>
        <time>2016-05-15T09:32:47.000Z</time>
      </trkpt>
      <trkpt lat="43.91246" lon="7.24529">
        <ele>800</ele>
        <time>2016-05-15T09:32:49.000Z</time>
      </trkpt>
      <trkpt lat="43.91241" lon="7.24528">
        <ele>800</ele>
        <time>2016-05-15T09:32:51.000Z</time>
      </trkpt>
      <trkpt lat="43.91226" lon="7.24522">
        <ele>800</ele>
        <time>2016-05-15T09:32:56.000Z</time>
      </trkpt>
      <trkpt lat="43.91222" lon="7.24522">
        <ele>800</ele>
        <time>2016-05-15T09:32:57.000Z</time>
      </trkpt>
      <trkpt lat="43.91204" lon="7.24519">
        <ele>798</ele>
        <time>2016-05-15T09:33:00.000Z</time>
      </trkpt>
      <trkpt lat="43.91198" lon="7.24518">
        <ele>798</ele>
        <time>2016-05-15T09:33:01.000Z</time>
      </trkpt>
      <trkpt lat="43.91186" lon="7.24516">
        <ele>798</ele>
        <time>2016-05-15T09:33:03.000Z</time>
      </trkpt>
      <trkpt lat="43.91169" lon="7.24512">
        <ele>800</ele>
        <time>2016-05-15T09:33:06.000Z</time>
      </trkpt>
      <trkpt lat="43.91161" lon="7.24511">
        <ele>793</ele>
        <time>2016-05-15T09:33:07.000Z</time>
      </trkpt>
      <trkpt lat="43.9115" lon="7.24508">
        <ele>789</ele>
        <time>2016-05-15T09:33:09.000Z</time>
      </trkpt>
      <trkpt lat="43.91141" lon="7.24503">
        <ele>786</ele>
        <time>2016-05-15T09:33:11.000Z</time>
      </trkpt>
      <trkpt lat="43.91128" lon="7.24494">
        <ele>797</ele>
        <time>2016-05-15T09:33:14.000Z</time>
      </trkpt>
      <trkpt lat="43.91119" lon="7.24489">
        <ele>794</ele>
        <time>2016-05-15T09:33:16.000Z</time>
      </trkpt>
      <trkpt lat="43.91116" lon="7.24487">
        <ele>794</ele>
        <time>2016-05-15T09:33:17.000Z</time>
      </trkpt>
      <trkpt lat="43.91102" lon="7.24478">
        <ele>791</ele>
        <time>2016-05-15T09:33:20.000Z</time>
      </trkpt>
      <trkpt lat="43.91092" lon="7.24469">
        <ele>791</ele>
        <time>2016-05-15T09:33:22.000Z</time>
      </trkpt>
      <trkpt lat="43.91083" lon="7.2446">
        <ele>762</ele>
        <time>2016-05-15T09:33:24.000Z</time>
      </trkpt>
      <trkpt lat="43.91076" lon="7.2445">
        <ele>762</ele>
        <time>2016-05-15T09:33:26.000Z</time>
      </trkpt>
      <trkpt lat="43.91073" lon="7.24445">
        <ele>763</ele>
        <time>2016-05-15T09:33:27.000Z</time>
      </trkpt>
      <trkpt lat="43.91068" lon="7.24436">
        <ele>764</ele>
        <time>2016-05-15T09:33:29.000Z</time>
      </trkpt>
      <trkpt lat="43.91067" lon="7.24429">
        <ele>766</ele>
        <time>2016-05-15T09:33:31.000Z</time>
      </trkpt>
      <trkpt lat="43.91068" lon="7.24426">
        <ele>767</ele>
        <time>2016-05-15T09:33:32.000Z</time>
      </trkpt>
      <trkpt lat="43.9107" lon="7.24411">
        <ele>774</ele>
        <time>2016-05-15T09:33:35.000Z</time>
      </trkpt>
      <trkpt lat="43.9107" lon="7.24405">
        <ele>772</ele>
        <time>2016-05-15T09:33:36.000Z</time>
      </trkpt>
      <trkpt lat="43.9107" lon="7.24391">
        <ele>770</ele>
        <time>2016-05-15T09:33:39.000Z</time>
      </trkpt>
      <trkpt lat="43.91068" lon="7.24381">
        <ele>769</ele>
        <time>2016-05-15T09:33:41.000Z</time>
      </trkpt>
      <trkpt lat="43.91064" lon="7.24371">
        <ele>769</ele>
        <time>2016-05-15T09:33:43.000Z</time>
      </trkpt>
      <trkpt lat="43.91064" lon="7.24365">
        <ele>770</ele>
        <time>2016-05-15T09:33:44.000Z</time>
      </trkpt>
      <trkpt lat="43.91063" lon="7.24358">
        <ele>771</ele>
        <time>2016-05-15T09:33:45.000Z</time>
      </trkpt>
      <trkpt lat="43.91062" lon="7.24351">
        <ele>773</ele>
        <time>2016-05-15T09:33:46.000Z</time>
      </trkpt>
      <trkpt lat="43.91061" lon="7.24346">
        <ele>773</ele>
        <time>2016-05-15T09:33:47.000Z</time>
      </trkpt>
      <trkpt lat="43.91061" lon="7.24334">
        <ele>775</ele>
        <time>2016-05-15T09:33:49.000Z</time>
      </trkpt>
      <trkpt lat="43.91061" lon="7.24324">
        <ele>785</ele>
        <time>2016-05-15T09:33:51.000Z</time>
      </trkpt>
      <trkpt lat="43.91057" lon="7.24314">
        <ele>784</ele>
        <time>2016-05-15T09:33:53.000Z</time>
      </trkpt>
      <trkpt lat="43.91052" lon="7.24295">
        <ele>784</ele>
        <time>2016-05-15T09:33:56.000Z</time>
      </trkpt>
      <trkpt lat="43.91046" lon="7.24285">
        <ele>783</ele>
        <time>2016-05-15T09:33:58.000Z</time>
      </trkpt>
      <trkpt lat="43.91036" lon="7.24272">
        <ele>782</ele>
        <time>2016-05-15T09:34:01.000Z</time>
      </trkpt>
      <trkpt lat="43.91032" lon="7.2427">
        <ele>780</ele>
        <time>2016-05-15T09:34:02.000Z</time>
      </trkpt>
      <trkpt lat="43.91028" lon="7.24267">
        <ele>779</ele>
        <time>2016-05-15T09:34:03.000Z</time>
      </trkpt>
      <trkpt lat="43.91019" lon="7.2426">
        <ele>777</ele>
        <time>2016-05-15T09:34:05.000Z</time>
      </trkpt>
      <trkpt lat="43.91005" lon="7.24249">
        <ele>778</ele>
        <time>2016-05-15T09:34:08.000Z</time>
      </trkpt>
      <trkpt lat="43.90992" lon="7.24236">
        <ele>770</ele>
        <time>2016-05-15T09:34:12.000Z</time>
      </trkpt>
      <trkpt lat="43.9097" lon="7.24219">
        <ele>770</ele>
        <time>2016-05-15T09:34:18.000Z</time>
      </trkpt>
      <trkpt lat="43.9095" lon="7.24206">
        <ele>767</ele>
        <time>2016-05-15T09:34:24.000Z</time>
      </trkpt>
      <trkpt lat="43.90936" lon="7.24195">
        <ele>766</ele>
        <time>2016-05-15T09:34:30.000Z</time>
      </trkpt>
      <trkpt lat="43.90934" lon="7.24193">
        <ele>766</ele>
        <time>2016-05-15T09:34:31.000Z</time>
      </trkpt>
      <trkpt lat="43.90933" lon="7.24192">
        <ele>766</ele>
        <time>2016-05-15T09:34:32.000Z</time>
      </trkpt>
      <trkpt lat="43.9093" lon="7.24192">
        <ele>765</ele>
        <time>2016-05-15T09:34:34.000Z</time>
      </trkpt>
      <trkpt lat="43.90927" lon="7.24191">
        <ele>765</ele>
        <time>2016-05-15T09:34:36.000Z</time>
      </trkpt>
      <trkpt lat="43.90924" lon="7.24186">
        <ele>765</ele>
        <time>2016-05-15T09:34:39.000Z</time>
      </trkpt>
      <trkpt lat="43.90923" lon="7.24185">
        <ele>764</ele>
        <time>2016-05-15T09:34:40.000Z</time>
      </trkpt>
      <trkpt lat="43.90923" lon="7.24183">
        <ele>764</ele>
        <time>2016-05-15T09:34:43.000Z</time>
      </trkpt>
      <trkpt lat="43.90922" lon="7.24181">
        <ele>764</ele>
        <time>2016-05-15T09:34:44.000Z</time>
      </trkpt>
      <trkpt lat="43.9092" lon="7.24177">
        <ele>764</ele>
        <time>2016-05-15T09:34:47.000Z</time>
      </trkpt>
      <trkpt lat="43.9092" lon="7.24177">
        <ele>764</ele>
        <time>2016-05-15T09:34:50.000Z</time>
      </trkpt>
      <trkpt lat="43.90919" lon="7.24175">
        <ele>763</ele>
        <time>2016-05-15T09:34:52.000Z</time>
      </trkpt>
      <trkpt lat="43.90917" lon="7.24171">
        <ele>762</ele>
        <time>2016-05-15T09:34:54.000Z</time>
      </trkpt>
      <trkpt lat="43.90913" lon="7.24159">
        <ele>758</ele>
        <time>2016-05-15T09:34:59.000Z</time>
      </trkpt>
      <trkpt lat="43.90913" lon="7.24156">
        <ele>757</ele>
        <time>2016-05-15T09:35:00.000Z</time>
      </trkpt>
      <trkpt lat="43.90912" lon="7.24153">
        <ele>757</ele>
        <time>2016-05-15T09:35:01.000Z</time>
      </trkpt>
      <trkpt lat="43.90911" lon="7.24135">
        <ele>757</ele>
        <time>2016-05-15T09:35:06.000Z</time>
      </trkpt>
      <trkpt lat="43.90912" lon="7.24106">
        <ele>769</ele>
        <time>2016-05-15T09:35:12.000Z</time>
      </trkpt>
      <trkpt lat="43.90906" lon="7.24087">
        <ele>779</ele>
        <time>2016-05-15T09:35:16.000Z</time>
      </trkpt>
      <trkpt lat="43.90905" lon="7.24084">
        <ele>779</ele>
        <time>2016-05-15T09:35:17.000Z</time>
      </trkpt>
      <trkpt lat="43.90898" lon="7.24072">
        <ele>786</ele>
        <time>2016-05-15T09:35:21.000Z</time>
      </trkpt>
      <trkpt lat="43.9089" lon="7.24063">
        <ele>783</ele>
        <time>2016-05-15T09:35:26.000Z</time>
      </trkpt>
      <trkpt lat="43.90888" lon="7.24062">
        <ele>782</ele>
        <time>2016-05-15T09:35:28.000Z</time>
      </trkpt>
      <trkpt lat="43.90887" lon="7.24061">
        <ele>781</ele>
        <time>2016-05-15T09:35:30.000Z</time>
      </trkpt>
      <trkpt lat="43.90887" lon="7.24061">
        <ele>781</ele>
        <time>2016-05-15T09:35:31.000Z</time>
      </trkpt>
      <trkpt lat="43.90885" lon="7.24061">
        <ele>781</ele>
        <time>2016-05-15T09:35:34.000Z</time>
      </trkpt>
      <trkpt lat="43.90884" lon="7.24061">
        <ele>780</ele>
        <time>2016-05-15T09:35:35.000Z</time>
      </trkpt>
      <trkpt lat="43.90882" lon="7.24059">
        <ele>779</ele>
        <time>2016-05-15T09:35:38.000Z</time>
      </trkpt>
      <trkpt lat="43.90879" lon="7.24054">
        <ele>779</ele>
        <time>2016-05-15T09:35:42.000Z</time>
      </trkpt>
      <trkpt lat="43.90878" lon="7.24053">
        <ele>779</ele>
        <time>2016-05-15T09:35:47.000Z</time>
      </trkpt>
      <trkpt lat="43.90877" lon="7.24052">
        <ele>778</ele>
        <time>2016-05-15T09:35:48.000Z</time>
      </trkpt>
      <trkpt lat="43.90875" lon="7.2405">
        <ele>778</ele>
        <time>2016-05-15T09:35:49.000Z</time>
      </trkpt>
      <trkpt lat="43.90872" lon="7.24048">
        <ele>777</ele>
        <time>2016-05-15T09:35:51.000Z</time>
      </trkpt>
      <trkpt lat="43.90865" lon="7.24034">
        <ele>776</ele>
        <time>2016-05-15T09:35:57.000Z</time>
      </trkpt>
      <trkpt lat="43.90863" lon="7.24011">
        <ele>777</ele>
        <time>2016-05-15T09:36:04.000Z</time>
      </trkpt>
      <trkpt lat="43.90859" lon="7.23992">
        <ele>793</ele>
        <time>2016-05-15T09:36:08.000Z</time>
      </trkpt>
      <trkpt lat="43.90857" lon="7.23986">
        <ele>793</ele>
        <time>2016-05-15T09:36:09.000Z</time>
      </trkpt>
      <trkpt lat="43.90856" lon="7.2398">
        <ele>795</ele>
        <time>2016-05-15T09:36:10.000Z</time>
      </trkpt>
      <trkpt lat="43.90853" lon="7.23962">
        <ele>800</ele>
        <time>2016-05-15T09:36:13.000Z</time>
      </trkpt>
      <trkpt lat="43.90841" lon="7.23947">
        <ele>800</ele>
        <time>2016-05-15T09:36:16.000Z</time>
      </trkpt>
      <trkpt lat="43.90832" lon="7.23938">
        <ele>762</ele>
        <time>2016-05-15T09:36:18.000Z</time>
      </trkpt>
      <trkpt lat="43.90821" lon="7.23931">
        <ele>763</ele>
        <time>2016-05-15T09:36:20.000Z</time>
      </trkpt>
      <trkpt lat="43.90811" lon="7.23924">
        <ele>759</ele>
        <time>2016-05-15T09:36:22.000Z</time>
      </trkpt>
      <trkpt lat="43.90803" lon="7.23913">
        <ele>765</ele>
        <time>2016-05-15T09:36:24.000Z</time>
      </trkpt>
      <trkpt lat="43.90796" lon="7.23903">
        <ele>760</ele>
        <time>2016-05-15T09:36:26.000Z</time>
      </trkpt>
      <trkpt lat="43.90793" lon="7.23898">
        <ele>759</ele>
        <time>2016-05-15T09:36:27.000Z</time>
      </trkpt>
      <trkpt lat="43.90784" lon="7.23884">
        <ele>754</ele>
        <time>2016-05-15T09:36:31.000Z</time>
      </trkpt>
      <trkpt lat="43.90776" lon="7.23874">
        <ele>749</ele>
        <time>2016-05-15T09:36:37.000Z</time>
      </trkpt>
      <trkpt lat="43.90769" lon="7.23856">
        <ele>741</ele>
        <time>2016-05-15T09:36:42.000Z</time>
      </trkpt>
      <trkpt lat="43.90765" lon="7.23841">
        <ele>729</ele>
        <time>2016-05-15T09:36:45.000Z</time>
      </trkpt>
      <trkpt lat="43.90765" lon="7.23834">
        <ele>726</ele>
        <time>2016-05-15T09:36:46.000Z</time>
      </trkpt>
      <trkpt lat="43.90764" lon="7.23828">
        <ele>727</ele>
        <time>2016-05-15T09:36:47.000Z</time>
      </trkpt>
      <trkpt lat="43.90767" lon="7.23821">
        <ele>735</ele>
        <time>2016-05-15T09:36:49.000Z</time>
      </trkpt>
      <trkpt lat="43.90769" lon="7.23816">
        <ele>739</ele>
        <time>2016-05-15T09:36:50.000Z</time>
      </trkpt>
      <trkpt lat="43.90771" lon="7.23811">
        <ele>743</ele>
        <time>2016-05-15T09:36:51.000Z</time>
      </trkpt>
      <trkpt lat="43.90771" lon="7.23805">
        <ele>745</ele>
        <time>2016-05-15T09:36:52.000Z</time>
      </trkpt>
      <trkpt lat="43.90772" lon="7.23799">
        <ele>748</ele>
        <time>2016-05-15T09:36:53.000Z</time>
      </trkpt>
      <trkpt lat="43.90773" lon="7.23792">
        <ele>749</ele>
        <time>2016-05-15T09:36:54.000Z</time>
      </trkpt>
      <trkpt lat="43.90772" lon="7.23778">
        <ele>749</ele>
        <time>2016-05-15T09:36:56.000Z</time>
      </trkpt>
      <trkpt lat="43.90775" lon="7.23768">
        <ele>750</ele>
        <time>2016-05-15T09:36:58.000Z</time>
      </trkpt>
      <trkpt lat="43.90777" lon="7.23761">
        <ele>750</ele>
        <time>2016-05-15T09:36:59.000Z</time>
      </trkpt>
      <trkpt lat="43.90778" lon="7.23754">
        <ele>750</ele>
        <time>2016-05-15T09:37:00.000Z</time>
      </trkpt>
      <trkpt lat="43.9078" lon="7.23747">
        <ele>764</ele>
        <time>2016-05-15T09:37:01.000Z</time>
      </trkpt>
      <trkpt lat="43.90783" lon="7.2374">
        <ele>767</ele>
        <time>2016-05-15T09:37:02.000Z</time>
      </trkpt>
      <trkpt lat="43.90785" lon="7.23733">
        <ele>770</ele>
        <time>2016-05-15T09:37:03.000Z</time>
      </trkpt>
      <trkpt lat="43.90789" lon="7.23726">
        <ele>774</ele>
        <time>2016-05-15T09:37:04.000Z</time>
      </trkpt>
      <trkpt lat="43.90791" lon="7.2372">
        <ele>776</ele>
        <time>2016-05-15T09:37:05.000Z</time>
      </trkpt>
      <trkpt lat="43.90792" lon="7.23699">
        <ele>781</ele>
        <time>2016-05-15T09:37:08.000Z</time>
      </trkpt>
      <trkpt lat="43.90793" lon="7.23693">
        <ele>782</ele>
        <time>2016-05-15T09:37:09.000Z</time>
      </trkpt>
      <trkpt lat="43.90792" lon="7.23684">
        <ele>783</ele>
        <time>2016-05-15T09:37:11.000Z</time>
      </trkpt>
      <trkpt lat="43.9079" lon="7.23682">
        <ele>783</ele>
        <time>2016-05-15T09:37:12.000Z</time>
      </trkpt>
      <trkpt lat="43.9078" lon="7.23679">
        <ele>779</ele>
        <time>2016-05-15T09:37:16.000Z</time>
      </trkpt>
      <trkpt lat="43.9076" lon="7.23681">
        <ele>774</ele>
        <time>2016-05-15T09:37:21.000Z</time>
      </trkpt>
      <trkpt lat="43.90753" lon="7.23683">
        <ele>773</ele>
        <time>2016-05-15T09:37:23.000Z</time>
      </trkpt>
      <trkpt lat="43.90744" lon="7.23679">
        <ele>753</ele>
        <time>2016-05-15T09:37:25.000Z</time>
      </trkpt>
      <trkpt lat="43.90735" lon="7.23677">
        <ele>748</ele>
        <time>2016-05-15T09:37:27.000Z</time>
      </trkpt>
      <trkpt lat="43.90731" lon="7.23678">
        <ele>745</ele>
        <time>2016-05-15T09:37:28.000Z</time>
      </trkpt>
      <trkpt lat="43.90721" lon="7.23678">
        <ele>739</ele>
        <time>2016-05-15T09:37:30.000Z</time>
      </trkpt>
      <trkpt lat="43.90716" lon="7.23679">
        <ele>737</ele>
        <time>2016-05-15T09:37:31.000Z</time>
      </trkpt>
      <trkpt lat="43.90702" lon="7.2368">
        <ele>731</ele>
        <time>2016-05-15T09:37:34.000Z</time>
      </trkpt>
      <trkpt lat="43.90698" lon="7.2368">
        <ele>730</ele>
        <time>2016-05-15T09:37:35.000Z</time>
      </trkpt>
      <trkpt lat="43.90694" lon="7.23678">
        <ele>729</ele>
        <time>2016-05-15T09:37:36.000Z</time>
      </trkpt>
      <trkpt lat="43.90689" lon="7.23675">
        <ele>728</ele>
        <time>2016-05-15T09:37:37.000Z</time>
      </trkpt>
      <trkpt lat="43.90682" lon="7.23666">
        <ele>743</ele>
        <time>2016-05-15T09:37:39.000Z</time>
      </trkpt>
      <trkpt lat="43.90679" lon="7.2366">
        <ele>742</ele>
        <time>2016-05-15T09:37:40.000Z</time>
      </trkpt>
      <trkpt lat="43.90673" lon="7.23648">
        <ele>746</ele>
        <time>2016-05-15T09:37:42.000Z</time>
      </trkpt>
      <trkpt lat="43.90665" lon="7.23628">
        <ele>731</ele>
        <time>2016-05-15T09:37:45.000Z</time>
      </trkpt>
      <trkpt lat="43.90662" lon="7.23622">
        <ele>732</ele>
        <time>2016-05-15T09:37:46.000Z</time>
      </trkpt>
      <trkpt lat="43.9066" lon="7.23617">
        <ele>734</ele>
        <time>2016-05-15T09:37:47.000Z</time>
      </trkpt>
      <trkpt lat="43.90655" lon="7.23595">
        <ele>742</ele>
        <time>2016-05-15T09:37:50.000Z</time>
      </trkpt>
      <trkpt lat="43.90654" lon="7.23588">
        <ele>744</ele>
        <time>2016-05-15T09:37:51.000Z</time>
      </trkpt>
      <trkpt lat="43.90651" lon="7.23575">
        <ele>753</ele>
        <time>2016-05-15T09:37:53.000Z</time>
      </trkpt>
      <trkpt lat="43.90649" lon="7.23559">
        <ele>753</ele>
        <time>2016-05-15T09:37:55.000Z</time>
      </trkpt>
      <trkpt lat="43.90649" lon="7.23551">
        <ele>753</ele>
        <time>2016-05-15T09:37:56.000Z</time>
      </trkpt>
      <trkpt lat="43.90649" lon="7.23536">
        <ele>755</ele>
        <time>2016-05-15T09:37:58.000Z</time>
      </trkpt>
      <trkpt lat="43.90648" lon="7.2353">
        <ele>756</ele>
        <time>2016-05-15T09:37:59.000Z</time>
      </trkpt>
      <trkpt lat="43.90646" lon="7.23525">
        <ele>756</ele>
        <time>2016-05-15T09:38:00.000Z</time>
      </trkpt>
      <trkpt lat="43.90645" lon="7.23518">
        <ele>757</ele>
        <time>2016-05-15T09:38:03.000Z</time>
      </trkpt>
      <trkpt lat="43.90643" lon="7.23515">
        <ele>757</ele>
        <time>2016-05-15T09:38:04.000Z</time>
      </trkpt>
      <trkpt lat="43.9064" lon="7.23507">
        <ele>757</ele>
        <time>2016-05-15T09:38:06.000Z</time>
      </trkpt>
      <trkpt lat="43.90638" lon="7.23495">
        <ele>770</ele>
        <time>2016-05-15T09:38:08.000Z</time>
      </trkpt>
      <trkpt lat="43.90634" lon="7.23476">
        <ele>771</ele>
        <time>2016-05-15T09:38:11.000Z</time>
      </trkpt>
      <trkpt lat="43.90625" lon="7.23452">
        <ele>773</ele>
        <time>2016-05-15T09:38:16.000Z</time>
      </trkpt>
      <trkpt lat="43.9062" lon="7.23442">
        <ele>773</ele>
        <time>2016-05-15T09:38:18.000Z</time>
      </trkpt>
      <trkpt lat="43.90615" lon="7.2343">
        <ele>774</ele>
        <time>2016-05-15T09:38:21.000Z</time>
      </trkpt>
      <trkpt lat="43.90609" lon="7.23416">
        <ele>785</ele>
        <time>2016-05-15T09:38:24.000Z</time>
      </trkpt>
      <trkpt lat="43.90606" lon="7.23415">
        <ele>784</ele>
        <time>2016-05-15T09:38:25.000Z</time>
      </trkpt>
      <trkpt lat="43.90603" lon="7.23416">
        <ele>783</ele>
        <time>2016-05-15T09:38:26.000Z</time>
      </trkpt>
      <trkpt lat="43.90602" lon="7.2342">
        <ele>774</ele>
        <time>2016-05-15T09:38:27.000Z</time>
      </trkpt>
      <trkpt lat="43.90601" lon="7.23428">
        <ele>773</ele>
        <time>2016-05-15T09:38:29.000Z</time>
      </trkpt>
      <trkpt lat="43.906" lon="7.23438">
        <ele>772</ele>
        <time>2016-05-15T09:38:31.000Z</time>
      </trkpt>
      <trkpt lat="43.90598" lon="7.23455">
        <ele>770</ele>
        <time>2016-05-15T09:38:34.000Z</time>
      </trkpt>
      <trkpt lat="43.90594" lon="7.23474">
        <ele>766</ele>
        <time>2016-05-15T09:38:37.000Z</time>
      </trkpt>
      <trkpt lat="43.90594" lon="7.23481">
        <ele>764</ele>
        <time>2016-05-15T09:38:38.000Z</time>
      </trkpt>
      <trkpt lat="43.9059" lon="7.23493">
        <ele>760</ele>
        <time>2016-05-15T09:38:40.000Z</time>
      </trkpt>
      <trkpt lat="43.90587" lon="7.23498">
        <ele>757</ele>
        <time>2016-05-15T09:38:41.000Z</time>
      </trkpt>
      <trkpt lat="43.90584" lon="7.2351">
        <ele>752</ele>
        <time>2016-05-15T09:38:43.000Z</time>
      </trkpt>
      <trkpt lat="43.90582" lon="7.23516">
        <ele>756</ele>
        <time>2016-05-15T09:38:44.000Z</time>
      </trkpt>
      <trkpt lat="43.90579" lon="7.23529">
        <ele>756</ele>
        <time>2016-05-15T09:38:46.000Z</time>
      </trkpt>
      <trkpt lat="43.90576" lon="7.23548">
        <ele>752</ele>
        <time>2016-05-15T09:38:50.000Z</time>
      </trkpt>
      <trkpt lat="43.90577" lon="7.2356">
        <ele>746</ele>
        <time>2016-05-15T09:38:52.000Z</time>
      </trkpt>
      <trkpt lat="43.90573" lon="7.2357">
        <ele>742</ele>
        <time>2016-05-15T09:38:54.000Z</time>
      </trkpt>
      <trkpt lat="43.90571" lon="7.23576">
        <ele>740</ele>
        <time>2016-05-15T09:38:55.000Z</time>
      </trkpt>
      <trkpt lat="43.90568" lon="7.23596">
        <ele>730</ele>
        <time>2016-05-15T09:38:58.000Z</time>
      </trkpt>
      <trkpt lat="43.90558" lon="7.23604">
        <ele>732</ele>
        <time>2016-05-15T09:39:01.000Z</time>
      </trkpt>
      <trkpt lat="43.90553" lon="7.23605">
        <ele>734</ele>
        <time>2016-05-15T09:39:02.000Z</time>
      </trkpt>
      <trkpt lat="43.90549" lon="7.23608">
        <ele>734</ele>
        <time>2016-05-15T09:39:03.000Z</time>
      </trkpt>
      <trkpt lat="43.90543" lon="7.23615">
        <ele>735</ele>
        <time>2016-05-15T09:39:05.000Z</time>
      </trkpt>
      <trkpt lat="43.9054" lon="7.23619">
        <ele>736</ele>
        <time>2016-05-15T09:39:06.000Z</time>
      </trkpt>
      <trkpt lat="43.90536" lon="7.23625">
        <ele>736</ele>
        <time>2016-05-15T09:39:09.000Z</time>
      </trkpt>
      <trkpt lat="43.90529" lon="7.23631">
        <ele>737</ele>
        <time>2016-05-15T09:39:15.000Z</time>
      </trkpt>
      <trkpt lat="43.90529" lon="7.2363">
        <ele>737</ele>
        <time>2016-05-15T09:39:16.000Z</time>
      </trkpt>
      <trkpt lat="43.90526" lon="7.23637">
        <ele>737</ele>
        <time>2016-05-15T09:39:20.000Z</time>
      </trkpt>
      <trkpt lat="43.90527" lon="7.2364">
        <ele>737</ele>
        <time>2016-05-15T09:39:22.000Z</time>
      </trkpt>
      <trkpt lat="43.90526" lon="7.23641">
        <ele>737</ele>
        <time>2016-05-15T09:39:23.000Z</time>
      </trkpt>
      <trkpt lat="43.90527" lon="7.23647">
        <ele>736</ele>
        <time>2016-05-15T09:39:25.000Z</time>
      </trkpt>
      <trkpt lat="43.90531" lon="7.23664">
        <ele>734</ele>
        <time>2016-05-15T09:39:31.000Z</time>
      </trkpt>
      <trkpt lat="43.90531" lon="7.23673">
        <ele>723</ele>
        <time>2016-05-15T09:39:34.000Z</time>
      </trkpt>
      <trkpt lat="43.9053" lon="7.23679">
        <ele>722</ele>
        <time>2016-05-15T09:39:36.000Z</time>
      </trkpt>
      <trkpt lat="43.9053" lon="7.23701">
        <ele>720</ele>
        <time>2016-05-15T09:39:41.000Z</time>
      </trkpt>
      <trkpt lat="43.90533" lon="7.23733">
        <ele>717</ele>
        <time>2016-05-15T09:39:46.000Z</time>
      </trkpt>
      <trkpt lat="43.90534" lon="7.2374">
        <ele>716</ele>
        <time>2016-05-15T09:39:47.000Z</time>
      </trkpt>
      <trkpt lat="43.90536" lon="7.23756">
        <ele>708</ele>
        <time>2016-05-15T09:39:49.000Z</time>
      </trkpt>
      <trkpt lat="43.90536" lon="7.23763">
        <ele>708</ele>
        <time>2016-05-15T09:39:50.000Z</time>
      </trkpt>
      <trkpt lat="43.90535" lon="7.23771">
        <ele>707</ele>
        <time>2016-05-15T09:39:51.000Z</time>
      </trkpt>
      <trkpt lat="43.90533" lon="7.23779">
        <ele>707</ele>
        <time>2016-05-15T09:39:52.000Z</time>
      </trkpt>
      <trkpt lat="43.90531" lon="7.23784">
        <ele>707</ele>
        <time>2016-05-15T09:39:53.000Z</time>
      </trkpt>
      <trkpt lat="43.90527" lon="7.23799">
        <ele>707</ele>
        <time>2016-05-15T09:39:55.000Z</time>
      </trkpt>
      <trkpt lat="43.90524" lon="7.23805">
        <ele>708</ele>
        <time>2016-05-15T09:39:56.000Z</time>
      </trkpt>
      <trkpt lat="43.90518" lon="7.23818">
        <ele>710</ele>
        <time>2016-05-15T09:39:58.000Z</time>
      </trkpt>
      <trkpt lat="43.90513" lon="7.23823">
        <ele>712</ele>
        <time>2016-05-15T09:39:59.000Z</time>
      </trkpt>
      <trkpt lat="43.90505" lon="7.23836">
        <ele>714</ele>
        <time>2016-05-15T09:40:01.000Z</time>
      </trkpt>
      <trkpt lat="43.90497" lon="7.23847">
        <ele>721</ele>
        <time>2016-05-15T09:40:03.000Z</time>
      </trkpt>
      <trkpt lat="43.90491" lon="7.23849">
        <ele>721</ele>
        <time>2016-05-15T09:40:04.000Z</time>
      </trkpt>
      <trkpt lat="43.90486" lon="7.23851">
        <ele>721</ele>
        <time>2016-05-15T09:40:05.000Z</time>
      </trkpt>
      <trkpt lat="43.90479" lon="7.23846">
        <ele>722</ele>
        <time>2016-05-15T09:40:07.000Z</time>
      </trkpt>
      <trkpt lat="43.90476" lon="7.23842">
        <ele>723</ele>
        <time>2016-05-15T09:40:08.000Z</time>
      </trkpt>
      <trkpt lat="43.90474" lon="7.23838">
        <ele>723</ele>
        <time>2016-05-15T09:40:09.000Z</time>
      </trkpt>
      <trkpt lat="43.90469" lon="7.23832">
        <ele>734</ele>
        <time>2016-05-15T09:40:11.000Z</time>
      </trkpt>
      <trkpt lat="43.90466" lon="7.23831">
        <ele>735</ele>
        <time>2016-05-15T09:40:12.000Z</time>
      </trkpt>
      <trkpt lat="43.90462" lon="7.23833">
        <ele>736</ele>
        <time>2016-05-15T09:40:14.000Z</time>
      </trkpt>
      <trkpt lat="43.90461" lon="7.23835">
        <ele>725</ele>
        <time>2016-05-15T09:40:15.000Z</time>
      </trkpt>
      <trkpt lat="43.90457" lon="7.2385">
        <ele>725</ele>
        <time>2016-05-15T09:40:19.000Z</time>
      </trkpt>
      <trkpt lat="43.9045" lon="7.23865">
        <ele>725</ele>
        <time>2016-05-15T09:40:23.000Z</time>
      </trkpt>
      <trkpt lat="43.90448" lon="7.23879">
        <ele>724</ele>
        <time>2016-05-15T09:40:25.000Z</time>
      </trkpt>
      <trkpt lat="43.90446" lon="7.23884">
        <ele>723</ele>
        <time>2016-05-15T09:40:26.000Z</time>
      </trkpt>
      <trkpt lat="43.90446" lon="7.23888">
        <ele>723</ele>
        <time>2016-05-15T09:40:27.000Z</time>
      </trkpt>
      <trkpt lat="43.90446" lon="7.23891">
        <ele>723</ele>
        <time>2016-05-15T09:40:28.000Z</time>
      </trkpt>
      <trkpt lat="43.90444" lon="7.23898">
        <ele>723</ele>
        <time>2016-05-15T09:40:31.000Z</time>
      </trkpt>
      <trkpt lat="43.90442" lon="7.23902">
        <ele>723</ele>
        <time>2016-05-15T09:40:34.000Z</time>
      </trkpt>
      <trkpt lat="43.90441" lon="7.23904">
        <ele>723</ele>
        <time>2016-05-15T09:40:35.000Z</time>
      </trkpt>
      <trkpt lat="43.90437" lon="7.23907">
        <ele>723</ele>
        <time>2016-05-15T09:40:37.000Z</time>
      </trkpt>
      <trkpt lat="43.90435" lon="7.23909">
        <ele>723</ele>
        <time>2016-05-15T09:40:38.000Z</time>
      </trkpt>
      <trkpt lat="43.90428" lon="7.2391">
        <ele>724</ele>
        <time>2016-05-15T09:40:42.000Z</time>
      </trkpt>
      <trkpt lat="43.90423" lon="7.23909">
        <ele>725</ele>
        <time>2016-05-15T09:40:46.000Z</time>
      </trkpt>
      <trkpt lat="43.90418" lon="7.23909">
        <ele>725</ele>
        <time>2016-05-15T09:40:48.000Z</time>
      </trkpt>
      <trkpt lat="43.90412" lon="7.23917">
        <ele>727</ele>
        <time>2016-05-15T09:40:52.000Z</time>
      </trkpt>
      <trkpt lat="43.90413" lon="7.23929">
        <ele>727</ele>
        <time>2016-05-15T09:40:56.000Z</time>
      </trkpt>
      <trkpt lat="43.90419" lon="7.23947">
        <ele>714</ele>
        <time>2016-05-15T09:41:01.000Z</time>
      </trkpt>
      <trkpt lat="43.90417" lon="7.2396">
        <ele>713</ele>
        <time>2016-05-15T09:41:06.000Z</time>
      </trkpt>
      <trkpt lat="43.90417" lon="7.23961">
        <ele>713</ele>
        <time>2016-05-15T09:41:09.000Z</time>
      </trkpt>
      <trkpt lat="43.90416" lon="7.23961">
        <ele>726</ele>
        <time>2016-05-15T09:41:10.000Z</time>
      </trkpt>
      <trkpt lat="43.90413" lon="7.23965">
        <ele>725</ele>
        <time>2016-05-15T09:41:16.000Z</time>
      </trkpt>
      <trkpt lat="43.90411" lon="7.23969">
        <ele>725</ele>
        <time>2016-05-15T09:41:22.000Z</time>
      </trkpt>
      <trkpt lat="43.90411" lon="7.2397">
        <ele>725</ele>
        <time>2016-05-15T09:41:23.000Z</time>
      </trkpt>
      <trkpt lat="43.90409" lon="7.23974">
        <ele>724</ele>
        <time>2016-05-15T09:41:26.000Z</time>
      </trkpt>
      <trkpt lat="43.90409" lon="7.23975">
        <ele>724</ele>
        <time>2016-05-15T09:41:28.000Z</time>
      </trkpt>
      <trkpt lat="43.90407" lon="7.23974">
        <ele>725</ele>
        <time>2016-05-15T09:41:29.000Z</time>
      </trkpt>
      <trkpt lat="43.90405" lon="7.23975">
        <ele>725</ele>
        <time>2016-05-15T09:41:31.000Z</time>
      </trkpt>
      <trkpt lat="43.90403" lon="7.23975">
        <ele>725</ele>
        <time>2016-05-15T09:41:32.000Z</time>
      </trkpt>
      <trkpt lat="43.90393" lon="7.2397">
        <ele>726</ele>
        <time>2016-05-15T09:41:37.000Z</time>
      </trkpt>
      <trkpt lat="43.90384" lon="7.23971">
        <ele>727</ele>
        <time>2016-05-15T09:41:40.000Z</time>
      </trkpt>
      <trkpt lat="43.90381" lon="7.23971">
        <ele>727</ele>
        <time>2016-05-15T09:41:41.000Z</time>
      </trkpt>
      <trkpt lat="43.90367" lon="7.23972">
        <ele>728</ele>
        <time>2016-05-15T09:41:45.000Z</time>
      </trkpt>
      <trkpt lat="43.90355" lon="7.23975">
        <ele>728</ele>
        <time>2016-05-15T09:41:48.000Z</time>
      </trkpt>
      <trkpt lat="43.90351" lon="7.23975">
        <ele>728</ele>
        <time>2016-05-15T09:41:49.000Z</time>
      </trkpt>
      <trkpt lat="43.90322" lon="7.23974">
        <ele>734</ele>
        <time>2016-05-15T09:41:56.000Z</time>
      </trkpt>
      <trkpt lat="43.90315" lon="7.23974">
        <ele>735</ele>
        <time>2016-05-15T09:41:58.000Z</time>
      </trkpt>
      <trkpt lat="43.90305" lon="7.23971">
        <ele>736</ele>
        <time>2016-05-15T09:42:01.000Z</time>
      </trkpt>
      <trkpt lat="43.90284" lon="7.23963">
        <ele>738</ele>
        <time>2016-05-15T09:42:06.000Z</time>
      </trkpt>
      <trkpt lat="43.90268" lon="7.23954">
        <ele>740</ele>
        <time>2016-05-15T09:42:10.000Z</time>
      </trkpt>
      <trkpt lat="43.90266" lon="7.23955">
        <ele>740</ele>
        <time>2016-05-15T09:42:11.000Z</time>
      </trkpt>
      <trkpt lat="43.90265" lon="7.23964">
        <ele>739</ele>
        <time>2016-05-15T09:42:13.000Z</time>
      </trkpt>
      <trkpt lat="43.90261" lon="7.23985">
        <ele>738</ele>
        <time>2016-05-15T09:42:17.000Z</time>
      </trkpt>
      <trkpt lat="43.90268" lon="7.23996">
        <ele>737</ele>
        <time>2016-05-15T09:42:20.000Z</time>
      </trkpt>
      <trkpt lat="43.90273" lon="7.24013">
        <ele>729</ele>
        <time>2016-05-15T09:42:23.000Z</time>
      </trkpt>
      <trkpt lat="43.90277" lon="7.24035">
        <ele>726</ele>
        <time>2016-05-15T09:42:26.000Z</time>
      </trkpt>
      <trkpt lat="43.9028" lon="7.24049">
        <ele>725</ele>
        <time>2016-05-15T09:42:28.000Z</time>
      </trkpt>
      <trkpt lat="43.90282" lon="7.24073">
        <ele>724</ele>
        <time>2016-05-15T09:42:31.000Z</time>
      </trkpt>
      <trkpt lat="43.90281" lon="7.24081">
        <ele>724</ele>
        <time>2016-05-15T09:42:32.000Z</time>
      </trkpt>
      <trkpt lat="43.90272" lon="7.24104">
        <ele>716</ele>
        <time>2016-05-15T09:42:35.000Z</time>
      </trkpt>
      <trkpt lat="43.90268" lon="7.24111">
        <ele>716</ele>
        <time>2016-05-15T09:42:36.000Z</time>
      </trkpt>
      <trkpt lat="43.90255" lon="7.24133">
        <ele>715</ele>
        <time>2016-05-15T09:42:39.000Z</time>
      </trkpt>
      <trkpt lat="43.90249" lon="7.24147">
        <ele>732</ele>
        <time>2016-05-15T09:42:41.000Z</time>
      </trkpt>
      <trkpt lat="43.90247" lon="7.24155">
        <ele>728</ele>
        <time>2016-05-15T09:42:42.000Z</time>
      </trkpt>
      <trkpt lat="43.90248" lon="7.24162">
        <ele>723</ele>
        <time>2016-05-15T09:42:43.000Z</time>
      </trkpt>
      <trkpt lat="43.90246" lon="7.24177">
        <ele>724</ele>
        <time>2016-05-15T09:42:45.000Z</time>
      </trkpt>
      <trkpt lat="43.90245" lon="7.24183">
        <ele>726</ele>
        <time>2016-05-15T09:42:46.000Z</time>
      </trkpt>
      <trkpt lat="43.90242" lon="7.24194">
        <ele>729</ele>
        <time>2016-05-15T09:42:48.000Z</time>
      </trkpt>
      <trkpt lat="43.90242" lon="7.242">
        <ele>729</ele>
        <time>2016-05-15T09:42:49.000Z</time>
      </trkpt>
      <trkpt lat="43.90238" lon="7.24207">
        <ele>730</ele>
        <time>2016-05-15T09:42:51.000Z</time>
      </trkpt>
      <trkpt lat="43.90236" lon="7.24209">
        <ele>730</ele>
        <time>2016-05-15T09:42:52.000Z</time>
      </trkpt>
      <trkpt lat="43.90233" lon="7.24222">
        <ele>729</ele>
        <time>2016-05-15T09:42:57.000Z</time>
      </trkpt>
      <trkpt lat="43.90235" lon="7.24236">
        <ele>725</ele>
        <time>2016-05-15T09:43:02.000Z</time>
      </trkpt>
      <trkpt lat="43.90236" lon="7.24239">
        <ele>724</ele>
        <time>2016-05-15T09:43:03.000Z</time>
      </trkpt>
      <trkpt lat="43.90237" lon="7.24242">
        <ele>723</ele>
        <time>2016-05-15T09:43:04.000Z</time>
      </trkpt>
      <trkpt lat="43.90237" lon="7.24253">
        <ele>719</ele>
        <time>2016-05-15T09:43:08.000Z</time>
      </trkpt>
      <trkpt lat="43.90238" lon="7.24256">
        <ele>719</ele>
        <time>2016-05-15T09:43:09.000Z</time>
      </trkpt>
      <trkpt lat="43.90237" lon="7.24259">
        <ele>720</ele>
        <time>2016-05-15T09:43:10.000Z</time>
      </trkpt>
      <trkpt lat="43.90239" lon="7.24267">
        <ele>721</ele>
        <time>2016-05-15T09:43:12.000Z</time>
      </trkpt>
      <trkpt lat="43.90237" lon="7.24269">
        <ele>722</ele>
        <time>2016-05-15T09:43:13.000Z</time>
      </trkpt>
      <trkpt lat="43.90237" lon="7.24276">
        <ele>723</ele>
        <time>2016-05-15T09:43:15.000Z</time>
      </trkpt>
      <trkpt lat="43.90235" lon="7.24288">
        <ele>724</ele>
        <time>2016-05-15T09:43:19.000Z</time>
      </trkpt>
      <trkpt lat="43.90233" lon="7.2429">
        <ele>725</ele>
        <time>2016-05-15T09:43:20.000Z</time>
      </trkpt>
      <trkpt lat="43.90233" lon="7.24297">
        <ele>724</ele>
        <time>2016-05-15T09:43:22.000Z</time>
      </trkpt>
      <trkpt lat="43.90234" lon="7.24308">
        <ele>723</ele>
        <time>2016-05-15T09:43:25.000Z</time>
      </trkpt>
      <trkpt lat="43.90233" lon="7.24329">
        <ele>720</ele>
        <time>2016-05-15T09:43:29.000Z</time>
      </trkpt>
      <trkpt lat="43.90231" lon="7.24342">
        <ele>718</ele>
        <time>2016-05-15T09:43:31.000Z</time>
      </trkpt>
      <trkpt lat="43.90228" lon="7.24357">
        <ele>720</ele>
        <time>2016-05-15T09:43:33.000Z</time>
      </trkpt>
      <trkpt lat="43.90222" lon="7.24382">
        <ele>721</ele>
        <time>2016-05-15T09:43:36.000Z</time>
      </trkpt>
      <trkpt lat="43.9022" lon="7.2439">
        <ele>721</ele>
        <time>2016-05-15T09:43:37.000Z</time>
      </trkpt>
      <trkpt lat="43.90217" lon="7.24398">
        <ele>721</ele>
        <time>2016-05-15T09:43:38.000Z</time>
      </trkpt>
      <trkpt lat="43.90212" lon="7.24417">
        <ele>713</ele>
        <time>2016-05-15T09:43:40.000Z</time>
      </trkpt>
      <trkpt lat="43.90201" lon="7.24443">
        <ele>713</ele>
        <time>2016-05-15T09:43:43.000Z</time>
      </trkpt>
      <trkpt lat="43.90193" lon="7.24458">
        <ele>712</ele>
        <time>2016-05-15T09:43:45.000Z</time>
      </trkpt>
      <trkpt lat="43.90187" lon="7.24473">
        <ele>711</ele>
        <time>2016-05-15T09:43:47.000Z</time>
      </trkpt>
      <trkpt lat="43.90176" lon="7.24496">
        <ele>710</ele>
        <time>2016-05-15T09:43:50.000Z</time>
      </trkpt>
      <trkpt lat="43.90172" lon="7.24502">
        <ele>706</ele>
        <time>2016-05-15T09:43:51.000Z</time>
      </trkpt>
      <trkpt lat="43.90168" lon="7.24508">
        <ele>704</ele>
        <time>2016-05-15T09:43:52.000Z</time>
      </trkpt>
      <trkpt lat="43.90162" lon="7.24513">
        <ele>706</ele>
        <time>2016-05-15T09:43:53.000Z</time>
      </trkpt>
      <trkpt lat="43.90152" lon="7.24521">
        <ele>703</ele>
        <time>2016-05-15T09:43:55.000Z</time>
      </trkpt>
      <trkpt lat="43.90142" lon="7.24526">
        <ele>702</ele>
        <time>2016-05-15T09:43:57.000Z</time>
      </trkpt>
      <trkpt lat="43.90131" lon="7.2453">
        <ele>701</ele>
        <time>2016-05-15T09:43:59.000Z</time>
      </trkpt>
      <trkpt lat="43.90126" lon="7.24533">
        <ele>701</ele>
        <time>2016-05-15T09:44:00.000Z</time>
      </trkpt>
      <trkpt lat="43.90116" lon="7.24543">
        <ele>700</ele>
        <time>2016-05-15T09:44:02.000Z</time>
      </trkpt>
      <trkpt lat="43.90108" lon="7.24555">
        <ele>699</ele>
        <time>2016-05-15T09:44:04.000Z</time>
      </trkpt>
      <trkpt lat="43.90101" lon="7.24566">
        <ele>697</ele>
        <time>2016-05-15T09:44:06.000Z</time>
      </trkpt>
      <trkpt lat="43.90093" lon="7.24568">
        <ele>696</ele>
        <time>2016-05-15T09:44:08.000Z</time>
      </trkpt>
      <trkpt lat="43.90087" lon="7.2457">
        <ele>696</ele>
        <time>2016-05-15T09:44:09.000Z</time>
      </trkpt>
      <trkpt lat="43.90073" lon="7.24569">
        <ele>696</ele>
        <time>2016-05-15T09:44:12.000Z</time>
      </trkpt>
      <trkpt lat="43.90069" lon="7.24568">
        <ele>697</ele>
        <time>2016-05-15T09:44:13.000Z</time>
      </trkpt>
      <trkpt lat="43.90062" lon="7.24567">
        <ele>697</ele>
        <time>2016-05-15T09:44:15.000Z</time>
      </trkpt>
      <trkpt lat="43.9006" lon="7.24565">
        <ele>698</ele>
        <time>2016-05-15T09:44:16.000Z</time>
      </trkpt>
      <trkpt lat="43.90058" lon="7.24562">
        <ele>698</ele>
        <time>2016-05-15T09:44:17.000Z</time>
      </trkpt>
      <trkpt lat="43.90051" lon="7.24562">
        <ele>698</ele>
        <time>2016-05-15T09:44:19.000Z</time>
      </trkpt>
      <trkpt lat="43.90041" lon="7.2456">
        <ele>698</ele>
        <time>2016-05-15T09:44:21.000Z</time>
      </trkpt>
      <trkpt lat="43.90036" lon="7.24558">
        <ele>698</ele>
        <time>2016-05-15T09:44:22.000Z</time>
      </trkpt>
      <trkpt lat="43.90033" lon="7.24557">
        <ele>698</ele>
        <time>2016-05-15T09:44:23.000Z</time>
      </trkpt>
      <trkpt lat="43.90026" lon="7.24558">
        <ele>698</ele>
        <time>2016-05-15T09:44:25.000Z</time>
      </trkpt>
      <trkpt lat="43.90021" lon="7.24554">
        <ele>698</ele>
        <time>2016-05-15T09:44:27.000Z</time>
      </trkpt>
      <trkpt lat="43.90016" lon="7.24558">
        <ele>697</ele>
        <time>2016-05-15T09:44:29.000Z</time>
      </trkpt>
      <trkpt lat="43.90014" lon="7.24559">
        <ele>697</ele>
        <time>2016-05-15T09:44:30.000Z</time>
      </trkpt>
      <trkpt lat="43.90012" lon="7.2456">
        <ele>697</ele>
        <time>2016-05-15T09:44:31.000Z</time>
      </trkpt>
      <trkpt lat="43.90007" lon="7.24563">
        <ele>696</ele>
        <time>2016-05-15T09:44:34.000Z</time>
      </trkpt>
      <trkpt lat="43.90003" lon="7.24565">
        <ele>695</ele>
        <time>2016-05-15T09:44:36.000Z</time>
      </trkpt>
      <trkpt lat="43.9" lon="7.24569">
        <ele>697</ele>
        <time>2016-05-15T09:44:37.000Z</time>
      </trkpt>
      <trkpt lat="43.90001" lon="7.24572">
        <ele>693</ele>
        <time>2016-05-15T09:44:38.000Z</time>
      </trkpt>
      <trkpt lat="43.90002" lon="7.24577">
        <ele>692</ele>
        <time>2016-05-15T09:44:39.000Z</time>
      </trkpt>
      <trkpt lat="43.90005" lon="7.24583">
        <ele>691</ele>
        <time>2016-05-15T09:44:40.000Z</time>
      </trkpt>
      <trkpt lat="43.90014" lon="7.24605">
        <ele>681</ele>
        <time>2016-05-15T09:44:44.000Z</time>
      </trkpt>
      <trkpt lat="43.90017" lon="7.2461">
        <ele>680</ele>
        <time>2016-05-15T09:44:45.000Z</time>
      </trkpt>
      <trkpt lat="43.9002" lon="7.24615">
        <ele>679</ele>
        <time>2016-05-15T09:44:46.000Z</time>
      </trkpt>
      <trkpt lat="43.90024" lon="7.24623">
        <ele>678</ele>
        <time>2016-05-15T09:44:48.000Z</time>
      </trkpt>
      <trkpt lat="43.90024" lon="7.24631">
        <ele>677</ele>
        <time>2016-05-15T09:44:49.000Z</time>
      </trkpt>
      <trkpt lat="43.90022" lon="7.24639">
        <ele>675</ele>
        <time>2016-05-15T09:44:50.000Z</time>
      </trkpt>
      <trkpt lat="43.90019" lon="7.24649">
        <ele>674</ele>
        <time>2016-05-15T09:44:52.000Z</time>
      </trkpt>
      <trkpt lat="43.90018" lon="7.24659">
        <ele>672</ele>
        <time>2016-05-15T09:44:54.000Z</time>
      </trkpt>
      <trkpt lat="43.90013" lon="7.24669">
        <ele>662</ele>
        <time>2016-05-15T09:44:56.000Z</time>
      </trkpt>
      <trkpt lat="43.90008" lon="7.24675">
        <ele>663</ele>
        <time>2016-05-15T09:44:57.000Z</time>
      </trkpt>
      <trkpt lat="43.89998" lon="7.24687">
        <ele>665</ele>
        <time>2016-05-15T09:44:59.000Z</time>
      </trkpt>
      <trkpt lat="43.89984" lon="7.24702">
        <ele>663</ele>
        <time>2016-05-15T09:45:02.000Z</time>
      </trkpt>
      <trkpt lat="43.89982" lon="7.24704">
        <ele>662</ele>
        <time>2016-05-15T09:45:03.000Z</time>
      </trkpt>
      <trkpt lat="43.89972" lon="7.2471">
        <ele>662</ele>
        <time>2016-05-15T09:45:08.000Z</time>
      </trkpt>
      <trkpt lat="43.89958" lon="7.24713">
        <ele>663</ele>
        <time>2016-05-15T09:45:12.000Z</time>
      </trkpt>
      <trkpt lat="43.89947" lon="7.24712">
        <ele>663</ele>
        <time>2016-05-15T09:45:16.000Z</time>
      </trkpt>
      <trkpt lat="43.89948" lon="7.24713">
        <ele>663</ele>
        <time>2016-05-15T09:45:17.000Z</time>
      </trkpt>
      <trkpt lat="43.89945" lon="7.24713">
        <ele>663</ele>
        <time>2016-05-15T09:45:27.000Z</time>
      </trkpt>
      <trkpt lat="43.89941" lon="7.2472">
        <ele>662</ele>
        <time>2016-05-15T09:45:50.000Z</time>
      </trkpt>
      <trkpt lat="43.89939" lon="7.2472">
        <ele>662</ele>
        <time>2016-05-15T09:45:51.000Z</time>
      </trkpt>
      <trkpt lat="43.89933" lon="7.24721">
        <ele>662</ele>
        <time>2016-05-15T09:45:54.000Z</time>
      </trkpt>
      <trkpt lat="43.89922" lon="7.24716">
        <ele>664</ele>
        <time>2016-05-15T09:45:58.000Z</time>
      </trkpt>
      <trkpt lat="43.89914" lon="7.24716">
        <ele>669</ele>
        <time>2016-05-15T09:46:01.000Z</time>
      </trkpt>
      <trkpt lat="43.89903" lon="7.24718">
        <ele>669</ele>
        <time>2016-05-15T09:46:04.000Z</time>
      </trkpt>
      <trkpt lat="43.8989" lon="7.24718">
        <ele>670</ele>
        <time>2016-05-15T09:46:07.000Z</time>
      </trkpt>
      <trkpt lat="43.89881" lon="7.24717">
        <ele>670</ele>
        <time>2016-05-15T09:46:09.000Z</time>
      </trkpt>
      <trkpt lat="43.89877" lon="7.24717">
        <ele>670</ele>
        <time>2016-05-15T09:46:10.000Z</time>
      </trkpt>
      <trkpt lat="43.89862" lon="7.24723">
        <ele>670</ele>
        <time>2016-05-15T09:46:14.000Z</time>
      </trkpt>
      <trkpt lat="43.89849" lon="7.24732">
        <ele>667</ele>
        <time>2016-05-15T09:46:18.000Z</time>
      </trkpt>
      <trkpt lat="43.89844" lon="7.24734">
        <ele>666</ele>
        <time>2016-05-15T09:46:19.000Z</time>
      </trkpt>
      <trkpt lat="43.89827" lon="7.2474">
        <ele>664</ele>
        <time>2016-05-15T09:46:23.000Z</time>
      </trkpt>
      <trkpt lat="43.89808" lon="7.24742">
        <ele>666</ele>
        <time>2016-05-15T09:46:28.000Z</time>
      </trkpt>
      <trkpt lat="43.89788" lon="7.24745">
        <ele>667</ele>
        <time>2016-05-15T09:46:33.000Z</time>
      </trkpt>
      <trkpt lat="43.89783" lon="7.24745">
        <ele>667</ele>
        <time>2016-05-15T09:46:34.000Z</time>
      </trkpt>
      <trkpt lat="43.89773" lon="7.24745">
        <ele>666</ele>
        <time>2016-05-15T09:46:36.000Z</time>
      </trkpt>
      <trkpt lat="43.89765" lon="7.24746">
        <ele>665</ele>
        <time>2016-05-15T09:46:38.000Z</time>
      </trkpt>
      <trkpt lat="43.89755" lon="7.24743">
        <ele>664</ele>
        <time>2016-05-15T09:46:40.000Z</time>
      </trkpt>
      <trkpt lat="43.89746" lon="7.24741">
        <ele>659</ele>
        <time>2016-05-15T09:46:42.000Z</time>
      </trkpt>
      <trkpt lat="43.89726" lon="7.24739">
        <ele>657</ele>
        <time>2016-05-15T09:46:46.000Z</time>
      </trkpt>
      <trkpt lat="43.89717" lon="7.24737">
        <ele>656</ele>
        <time>2016-05-15T09:46:48.000Z</time>
      </trkpt>
      <trkpt lat="43.89711" lon="7.24736">
        <ele>655</ele>
        <time>2016-05-15T09:46:49.000Z</time>
      </trkpt>
      <trkpt lat="43.89705" lon="7.24737">
        <ele>654</ele>
        <time>2016-05-15T09:46:50.000Z</time>
      </trkpt>
      <trkpt lat="43.897" lon="7.24738">
        <ele>653</ele>
        <time>2016-05-15T09:46:51.000Z</time>
      </trkpt>
      <trkpt lat="43.89695" lon="7.24739">
        <ele>652</ele>
        <time>2016-05-15T09:46:52.000Z</time>
      </trkpt>
      <trkpt lat="43.89687" lon="7.24744">
        <ele>651</ele>
        <time>2016-05-15T09:46:54.000Z</time>
      </trkpt>
      <trkpt lat="43.89684" lon="7.24746">
        <ele>651</ele>
        <time>2016-05-15T09:46:55.000Z</time>
      </trkpt>
      <trkpt lat="43.8968" lon="7.24749">
        <ele>650</ele>
        <time>2016-05-15T09:46:56.000Z</time>
      </trkpt>
      <trkpt lat="43.89674" lon="7.24749">
        <ele>649</ele>
        <time>2016-05-15T09:46:58.000Z</time>
      </trkpt>
      <trkpt lat="43.89672" lon="7.24747">
        <ele>648</ele>
        <time>2016-05-15T09:46:59.000Z</time>
      </trkpt>
      <trkpt lat="43.8967" lon="7.24745">
        <ele>648</ele>
        <time>2016-05-15T09:47:00.000Z</time>
      </trkpt>
      <trkpt lat="43.89667" lon="7.24747">
        <ele>648</ele>
        <time>2016-05-15T09:47:02.000Z</time>
      </trkpt>
      <trkpt lat="43.89666" lon="7.2475">
        <ele>646</ele>
        <time>2016-05-15T09:47:03.000Z</time>
      </trkpt>
      <trkpt lat="43.89664" lon="7.24754">
        <ele>642</ele>
        <time>2016-05-15T09:47:04.000Z</time>
      </trkpt>
      <trkpt lat="43.89658" lon="7.24764">
        <ele>633</ele>
        <time>2016-05-15T09:47:08.000Z</time>
      </trkpt>
      <trkpt lat="43.89657" lon="7.24763">
        <ele>633</ele>
        <time>2016-05-15T09:47:09.000Z</time>
      </trkpt>
      <trkpt lat="43.89658" lon="7.24756">
        <ele>637</ele>
        <time>2016-05-15T09:47:11.000Z</time>
      </trkpt>
      <trkpt lat="43.89658" lon="7.24751">
        <ele>638</ele>
        <time>2016-05-15T09:47:12.000Z</time>
      </trkpt>
      <trkpt lat="43.89659" lon="7.24747">
        <ele>641</ele>
        <time>2016-05-15T09:47:13.000Z</time>
      </trkpt>
      <trkpt lat="43.89659" lon="7.24742">
        <ele>639</ele>
        <time>2016-05-15T09:47:14.000Z</time>
      </trkpt>
      <trkpt lat="43.89659" lon="7.24725">
        <ele>633</ele>
        <time>2016-05-15T09:47:17.000Z</time>
      </trkpt>
      <trkpt lat="43.8966" lon="7.24713">
        <ele>631</ele>
        <time>2016-05-15T09:47:19.000Z</time>
      </trkpt>
      <trkpt lat="43.89662" lon="7.24702">
        <ele>630</ele>
        <time>2016-05-15T09:47:21.000Z</time>
      </trkpt>
      <trkpt lat="43.89663" lon="7.24696">
        <ele>631</ele>
        <time>2016-05-15T09:47:22.000Z</time>
      </trkpt>
      <trkpt lat="43.89663" lon="7.2469">
        <ele>631</ele>
        <time>2016-05-15T09:47:23.000Z</time>
      </trkpt>
      <trkpt lat="43.89665" lon="7.24677">
        <ele>633</ele>
        <time>2016-05-15T09:47:25.000Z</time>
      </trkpt>
      <trkpt lat="43.89667" lon="7.24671">
        <ele>640</ele>
        <time>2016-05-15T09:47:26.000Z</time>
      </trkpt>
      <trkpt lat="43.89667" lon="7.24665">
        <ele>638</ele>
        <time>2016-05-15T09:47:27.000Z</time>
      </trkpt>
      <trkpt lat="43.89671" lon="7.24647">
        <ele>645</ele>
        <time>2016-05-15T09:47:30.000Z</time>
      </trkpt>
      <trkpt lat="43.89672" lon="7.24642">
        <ele>646</ele>
        <time>2016-05-15T09:47:31.000Z</time>
      </trkpt>
      <trkpt lat="43.89675" lon="7.24633">
        <ele>647</ele>
        <time>2016-05-15T09:47:33.000Z</time>
      </trkpt>
      <trkpt lat="43.89676" lon="7.24622">
        <ele>647</ele>
        <time>2016-05-15T09:47:35.000Z</time>
      </trkpt>
      <trkpt lat="43.89675" lon="7.24612">
        <ele>645</ele>
        <time>2016-05-15T09:47:37.000Z</time>
      </trkpt>
      <trkpt lat="43.89675" lon="7.24607">
        <ele>644</ele>
        <time>2016-05-15T09:47:38.000Z</time>
      </trkpt>
      <trkpt lat="43.89677" lon="7.24601">
        <ele>643</ele>
        <time>2016-05-15T09:47:39.000Z</time>
      </trkpt>
      <trkpt lat="43.89681" lon="7.24581">
        <ele>641</ele>
        <time>2016-05-15T09:47:42.000Z</time>
      </trkpt>
      <trkpt lat="43.89683" lon="7.24568">
        <ele>644</ele>
        <time>2016-05-15T09:47:44.000Z</time>
      </trkpt>
      <trkpt lat="43.89682" lon="7.24555">
        <ele>646</ele>
        <time>2016-05-15T09:47:46.000Z</time>
      </trkpt>
      <trkpt lat="43.89682" lon="7.24549">
        <ele>647</ele>
        <time>2016-05-15T09:47:47.000Z</time>
      </trkpt>
      <trkpt lat="43.89681" lon="7.24536">
        <ele>648</ele>
        <time>2016-05-15T09:47:49.000Z</time>
      </trkpt>
      <trkpt lat="43.89679" lon="7.24523">
        <ele>646</ele>
        <time>2016-05-15T09:47:51.000Z</time>
      </trkpt>
      <trkpt lat="43.89677" lon="7.24516">
        <ele>645</ele>
        <time>2016-05-15T09:47:52.000Z</time>
      </trkpt>
      <trkpt lat="43.89675" lon="7.24511">
        <ele>644</ele>
        <time>2016-05-15T09:47:53.000Z</time>
      </trkpt>
      <trkpt lat="43.89673" lon="7.24504">
        <ele>641</ele>
        <time>2016-05-15T09:47:54.000Z</time>
      </trkpt>
      <trkpt lat="43.8967" lon="7.24491">
        <ele>644</ele>
        <time>2016-05-15T09:47:56.000Z</time>
      </trkpt>
      <trkpt lat="43.89668" lon="7.24477">
        <ele>649</ele>
        <time>2016-05-15T09:47:58.000Z</time>
      </trkpt>
      <trkpt lat="43.89669" lon="7.24468">
        <ele>652</ele>
        <time>2016-05-15T09:48:00.000Z</time>
      </trkpt>
      <trkpt lat="43.89667" lon="7.24466">
        <ele>652</ele>
        <time>2016-05-15T09:48:01.000Z</time>
      </trkpt>
      <trkpt lat="43.8966" lon="7.24474">
        <ele>647</ele>
        <time>2016-05-15T09:48:04.000Z</time>
      </trkpt>
      <trkpt lat="43.89655" lon="7.24487">
        <ele>645</ele>
        <time>2016-05-15T09:48:08.000Z</time>
      </trkpt>
      <trkpt lat="43.89645" lon="7.24513">
        <ele>635</ele>
        <time>2016-05-15T09:48:14.000Z</time>
      </trkpt>
      <trkpt lat="43.89643" lon="7.24518">
        <ele>634</ele>
        <time>2016-05-15T09:48:15.000Z</time>
      </trkpt>
      <trkpt lat="43.89634" lon="7.24528">
        <ele>634</ele>
        <time>2016-05-15T09:48:18.000Z</time>
      </trkpt>
      <trkpt lat="43.8963" lon="7.2453">
        <ele>633</ele>
        <time>2016-05-15T09:48:19.000Z</time>
      </trkpt>
      <trkpt lat="43.89619" lon="7.24535">
        <ele>633</ele>
        <time>2016-05-15T09:48:22.000Z</time>
      </trkpt>
      <trkpt lat="43.89615" lon="7.24538">
        <ele>633</ele>
        <time>2016-05-15T09:48:23.000Z</time>
      </trkpt>
      <trkpt lat="43.89611" lon="7.24541">
        <ele>632</ele>
        <time>2016-05-15T09:48:24.000Z</time>
      </trkpt>
      <trkpt lat="43.89608" lon="7.24544">
        <ele>632</ele>
        <time>2016-05-15T09:48:25.000Z</time>
      </trkpt>
      <trkpt lat="43.89601" lon="7.24559">
        <ele>628</ele>
        <time>2016-05-15T09:48:28.000Z</time>
      </trkpt>
      <trkpt lat="43.89591" lon="7.24572">
        <ele>623</ele>
        <time>2016-05-15T09:48:32.000Z</time>
      </trkpt>
      <trkpt lat="43.89584" lon="7.24577">
        <ele>620</ele>
        <time>2016-05-15T09:48:34.000Z</time>
      </trkpt>
      <trkpt lat="43.89573" lon="7.24585">
        <ele>616</ele>
        <time>2016-05-15T09:48:37.000Z</time>
      </trkpt>
      <trkpt lat="43.8956" lon="7.24598">
        <ele>616</ele>
        <time>2016-05-15T09:48:41.000Z</time>
      </trkpt>
      <trkpt lat="43.89556" lon="7.24601">
        <ele>616</ele>
        <time>2016-05-15T09:48:42.000Z</time>
      </trkpt>
      <trkpt lat="43.89552" lon="7.24603">
        <ele>617</ele>
        <time>2016-05-15T09:48:43.000Z</time>
      </trkpt>
      <trkpt lat="43.89538" lon="7.24609">
        <ele>617</ele>
        <time>2016-05-15T09:48:46.000Z</time>
      </trkpt>
      <trkpt lat="43.8953" lon="7.24611">
        <ele>618</ele>
        <time>2016-05-15T09:48:48.000Z</time>
      </trkpt>
      <trkpt lat="43.89525" lon="7.24614">
        <ele>618</ele>
        <time>2016-05-15T09:48:49.000Z</time>
      </trkpt>
      <trkpt lat="43.89518" lon="7.24621">
        <ele>616</ele>
        <time>2016-05-15T09:48:51.000Z</time>
      </trkpt>
      <trkpt lat="43.89515" lon="7.24626">
        <ele>615</ele>
        <time>2016-05-15T09:48:52.000Z</time>
      </trkpt>
      <trkpt lat="43.89507" lon="7.24633">
        <ele>613</ele>
        <time>2016-05-15T09:48:54.000Z</time>
      </trkpt>
      <trkpt lat="43.89502" lon="7.24635">
        <ele>612</ele>
        <time>2016-05-15T09:48:55.000Z</time>
      </trkpt>
      <trkpt lat="43.89493" lon="7.24636">
        <ele>622</ele>
        <time>2016-05-15T09:48:57.000Z</time>
      </trkpt>
      <trkpt lat="43.89489" lon="7.24636">
        <ele>622</ele>
        <time>2016-05-15T09:48:58.000Z</time>
      </trkpt>
      <trkpt lat="43.89485" lon="7.24637">
        <ele>623</ele>
        <time>2016-05-15T09:48:59.000Z</time>
      </trkpt>
      <trkpt lat="43.89472" lon="7.24639">
        <ele>624</ele>
        <time>2016-05-15T09:49:03.000Z</time>
      </trkpt>
      <trkpt lat="43.89463" lon="7.24643">
        <ele>625</ele>
        <time>2016-05-15T09:49:06.000Z</time>
      </trkpt>
      <trkpt lat="43.89462" lon="7.24648">
        <ele>624</ele>
        <time>2016-05-15T09:49:07.000Z</time>
      </trkpt>
      <trkpt lat="43.89458" lon="7.24656">
        <ele>624</ele>
        <time>2016-05-15T09:49:09.000Z</time>
      </trkpt>
      <trkpt lat="43.89449" lon="7.24668">
        <ele>602</ele>
        <time>2016-05-15T09:49:12.000Z</time>
      </trkpt>
      <trkpt lat="43.89435" lon="7.24682">
        <ele>605</ele>
        <time>2016-05-15T09:49:18.000Z</time>
      </trkpt>
      <trkpt lat="43.89431" lon="7.24687">
        <ele>604</ele>
        <time>2016-05-15T09:49:20.000Z</time>
      </trkpt>
      <trkpt lat="43.89421" lon="7.24693">
        <ele>603</ele>
        <time>2016-05-15T09:49:24.000Z</time>
      </trkpt>
      <trkpt lat="43.89407" lon="7.24705">
        <ele>617</ele>
        <time>2016-05-15T09:49:29.000Z</time>
      </trkpt>
      <trkpt lat="43.89396" lon="7.24718">
        <ele>614</ele>
        <time>2016-05-15T09:49:34.000Z</time>
      </trkpt>
      <trkpt lat="43.89392" lon="7.24717">
        <ele>615</ele>
        <time>2016-05-15T09:49:36.000Z</time>
      </trkpt>
      <trkpt lat="43.89388" lon="7.24715">
        <ele>617</ele>
        <time>2016-05-15T09:49:38.000Z</time>
      </trkpt>
      <trkpt lat="43.8938" lon="7.24719">
        <ele>618</ele>
        <time>2016-05-15T09:49:41.000Z</time>
      </trkpt>
      <trkpt lat="43.89377" lon="7.24721">
        <ele>618</ele>
        <time>2016-05-15T09:49:42.000Z</time>
      </trkpt>
      <trkpt lat="43.89375" lon="7.24722">
        <ele>618</ele>
        <time>2016-05-15T09:49:43.000Z</time>
      </trkpt>
      <trkpt lat="43.89369" lon="7.24734">
        <ele>616</ele>
        <time>2016-05-15T09:49:47.000Z</time>
      </trkpt>
      <trkpt lat="43.89369" lon="7.2474">
        <ele>615</ele>
        <time>2016-05-15T09:49:49.000Z</time>
      </trkpt>
      <trkpt lat="43.89365" lon="7.24746">
        <ele>615</ele>
        <time>2016-05-15T09:49:52.000Z</time>
      </trkpt>
      <trkpt lat="43.89356" lon="7.24761">
        <ele>591</ele>
        <time>2016-05-15T09:49:57.000Z</time>
      </trkpt>
      <trkpt lat="43.89354" lon="7.24763">
        <ele>591</ele>
        <time>2016-05-15T09:49:58.000Z</time>
      </trkpt>
      <trkpt lat="43.8935" lon="7.24767">
        <ele>592</ele>
        <time>2016-05-15T09:50:00.000Z</time>
      </trkpt>
      <trkpt lat="43.89345" lon="7.2477">
        <ele>592</ele>
        <time>2016-05-15T09:50:04.000Z</time>
      </trkpt>
      <trkpt lat="43.89344" lon="7.2477">
        <ele>592</ele>
        <time>2016-05-15T09:50:06.000Z</time>
      </trkpt>
      <trkpt lat="43.89343" lon="7.24769">
        <ele>593</ele>
        <time>2016-05-15T09:50:07.000Z</time>
      </trkpt>
      <trkpt lat="43.89341" lon="7.24768">
        <ele>594</ele>
        <time>2016-05-15T09:50:09.000Z</time>
      </trkpt>
      <trkpt lat="43.89338" lon="7.24768">
        <ele>595</ele>
        <time>2016-05-15T09:50:14.000Z</time>
      </trkpt>
      <trkpt lat="43.89336" lon="7.24767">
        <ele>596</ele>
        <time>2016-05-15T09:50:15.000Z</time>
      </trkpt>
      <trkpt lat="43.8933" lon="7.24765">
        <ele>597</ele>
        <time>2016-05-15T09:50:18.000Z</time>
      </trkpt>
      <trkpt lat="43.89325" lon="7.24764">
        <ele>597</ele>
        <time>2016-05-15T09:50:20.000Z</time>
      </trkpt>
      <trkpt lat="43.89316" lon="7.24761">
        <ele>594</ele>
        <time>2016-05-15T09:50:24.000Z</time>
      </trkpt>
      <trkpt lat="43.89309" lon="7.24763">
        <ele>591</ele>
        <time>2016-05-15T09:50:27.000Z</time>
      </trkpt>
      <trkpt lat="43.89308" lon="7.24766">
        <ele>589</ele>
        <time>2016-05-15T09:50:29.000Z</time>
      </trkpt>
      <trkpt lat="43.8931" lon="7.24766">
        <ele>590</ele>
        <time>2016-05-15T09:50:30.000Z</time>
      </trkpt>
      <trkpt lat="43.89314" lon="7.24767">
        <ele>591</ele>
        <time>2016-05-15T09:50:32.000Z</time>
      </trkpt>
      <trkpt lat="43.89316" lon="7.24769">
        <ele>591</ele>
        <time>2016-05-15T09:50:34.000Z</time>
      </trkpt>
      <trkpt lat="43.89315" lon="7.2477">
        <ele>590</ele>
        <time>2016-05-15T09:50:35.000Z</time>
      </trkpt>
      <trkpt lat="43.89313" lon="7.24771">
        <ele>589</ele>
        <time>2016-05-15T09:50:36.000Z</time>
      </trkpt>
      <trkpt lat="43.89307" lon="7.24772">
        <ele>587</ele>
        <time>2016-05-15T09:50:38.000Z</time>
      </trkpt>
      <trkpt lat="43.89298" lon="7.24776">
        <ele>584</ele>
        <time>2016-05-15T09:50:40.000Z</time>
      </trkpt>
      <trkpt lat="43.89295" lon="7.24778">
        <ele>583</ele>
        <time>2016-05-15T09:50:41.000Z</time>
      </trkpt>
      <trkpt lat="43.89288" lon="7.24774">
        <ele>583</ele>
        <time>2016-05-15T09:50:44.000Z</time>
      </trkpt>
      <trkpt lat="43.8928" lon="7.24767">
        <ele>583</ele>
        <time>2016-05-15T09:50:47.000Z</time>
      </trkpt>
      <trkpt lat="43.89275" lon="7.24761">
        <ele>583</ele>
        <time>2016-05-15T09:50:49.000Z</time>
      </trkpt>
      <trkpt lat="43.8927" lon="7.24755">
        <ele>584</ele>
        <time>2016-05-15T09:50:51.000Z</time>
      </trkpt>
      <trkpt lat="43.89268" lon="7.24751">
        <ele>584</ele>
        <time>2016-05-15T09:50:52.000Z</time>
      </trkpt>
      <trkpt lat="43.89268" lon="7.24747">
        <ele>607</ele>
        <time>2016-05-15T09:50:53.000Z</time>
      </trkpt>
      <trkpt lat="43.89269" lon="7.24742">
        <ele>609</ele>
        <time>2016-05-15T09:50:54.000Z</time>
      </trkpt>
      <trkpt lat="43.89267" lon="7.24738">
        <ele>610</ele>
        <time>2016-05-15T09:50:55.000Z</time>
      </trkpt>
      <trkpt lat="43.89262" lon="7.24726">
        <ele>615</ele>
        <time>2016-05-15T09:50:58.000Z</time>
      </trkpt>
      <trkpt lat="43.8926" lon="7.24722">
        <ele>617</ele>
        <time>2016-05-15T09:50:59.000Z</time>
      </trkpt>
      <trkpt lat="43.89257" lon="7.24718">
        <ele>618</ele>
        <time>2016-05-15T09:51:00.000Z</time>
      </trkpt>
      <trkpt lat="43.89253" lon="7.24717">
        <ele>619</ele>
        <time>2016-05-15T09:51:01.000Z</time>
      </trkpt>
      <trkpt lat="43.8925" lon="7.24716">
        <ele>594</ele>
        <time>2016-05-15T09:51:02.000Z</time>
      </trkpt>
      <trkpt lat="43.89248" lon="7.24717">
        <ele>594</ele>
        <time>2016-05-15T09:51:03.000Z</time>
      </trkpt>
      <trkpt lat="43.8924" lon="7.24719">
        <ele>592</ele>
        <time>2016-05-15T09:51:06.000Z</time>
      </trkpt>
      <trkpt lat="43.89231" lon="7.24717">
        <ele>591</ele>
        <time>2016-05-15T09:51:09.000Z</time>
      </trkpt>
      <trkpt lat="43.89229" lon="7.24714">
        <ele>591</ele>
        <time>2016-05-15T09:51:10.000Z</time>
      </trkpt>
      <trkpt lat="43.89221" lon="7.24709">
        <ele>591</ele>
        <time>2016-05-15T09:51:15.000Z</time>
      </trkpt>
      <trkpt lat="43.89219" lon="7.24711">
        <ele>589</ele>
        <time>2016-05-15T09:51:20.000Z</time>
      </trkpt>
      <trkpt lat="43.89218" lon="7.2471">
        <ele>589</ele>
        <time>2016-05-15T09:51:22.000Z</time>
      </trkpt>
      <trkpt lat="43.89216" lon="7.2471">
        <ele>589</ele>
        <time>2016-05-15T09:51:24.000Z</time>
      </trkpt>
      <trkpt lat="43.89212" lon="7.24702">
        <ele>590</ele>
        <time>2016-05-15T09:51:28.000Z</time>
      </trkpt>
      <trkpt lat="43.89211" lon="7.24699">
        <ele>590</ele>
        <time>2016-05-15T09:51:29.000Z</time>
      </trkpt>
      <trkpt lat="43.89204" lon="7.24684">
        <ele>590</ele>
        <time>2016-05-15T09:51:35.000Z</time>
      </trkpt>
      <trkpt lat="43.89193" lon="7.24668">
        <ele>586</ele>
        <time>2016-05-15T09:51:40.000Z</time>
      </trkpt>
      <trkpt lat="43.89187" lon="7.24658">
        <ele>613</ele>
        <time>2016-05-15T09:51:43.000Z</time>
      </trkpt>
      <trkpt lat="43.89184" lon="7.24651">
        <ele>615</ele>
        <time>2016-05-15T09:51:45.000Z</time>
      </trkpt>
      <trkpt lat="43.89184" lon="7.24648">
        <ele>617</ele>
        <time>2016-05-15T09:51:46.000Z</time>
      </trkpt>
      <trkpt lat="43.89184" lon="7.24644">
        <ele>620</ele>
        <time>2016-05-15T09:51:47.000Z</time>
      </trkpt>
      <trkpt lat="43.89187" lon="7.24635">
        <ele>628</ele>
        <time>2016-05-15T09:51:49.000Z</time>
      </trkpt>
      <trkpt lat="43.89187" lon="7.24629">
        <ele>631</ele>
        <time>2016-05-15T09:51:50.000Z</time>
      </trkpt>
      <trkpt lat="43.89185" lon="7.24619">
        <ele>635</ele>
        <time>2016-05-15T09:51:52.000Z</time>
      </trkpt>
      <trkpt lat="43.89183" lon="7.24616">
        <ele>636</ele>
        <time>2016-05-15T09:51:53.000Z</time>
      </trkpt>
      <trkpt lat="43.89181" lon="7.24611">
        <ele>638</ele>
        <time>2016-05-15T09:51:54.000Z</time>
      </trkpt>
      <trkpt lat="43.89174" lon="7.24603">
        <ele>639</ele>
        <time>2016-05-15T09:51:57.000Z</time>
      </trkpt>
      <trkpt lat="43.89158" lon="7.24592">
        <ele>619</ele>
        <time>2016-05-15T09:52:03.000Z</time>
      </trkpt>
      <trkpt lat="43.89147" lon="7.24591">
        <ele>608</ele>
        <time>2016-05-15T09:52:08.000Z</time>
      </trkpt>
      <trkpt lat="43.89141" lon="7.24593">
        <ele>603</ele>
        <time>2016-05-15T09:52:10.000Z</time>
      </trkpt>
      <trkpt lat="43.89131" lon="7.24593">
        <ele>596</ele>
        <time>2016-05-15T09:52:13.000Z</time>
      </trkpt>
      <trkpt lat="43.89116" lon="7.24596">
        <ele>589</ele>
        <time>2016-05-15T09:52:18.000Z</time>
      </trkpt>
      <trkpt lat="43.89114" lon="7.24595">
        <ele>588</ele>
        <time>2016-05-15T09:52:19.000Z</time>
      </trkpt>
      <trkpt lat="43.89109" lon="7.2459">
        <ele>587</ele>
        <time>2016-05-15T09:52:21.000Z</time>
      </trkpt>
      <trkpt lat="43.89092" lon="7.24561">
        <ele>611</ele>
        <time>2016-05-15T09:52:28.000Z</time>
      </trkpt>
      <trkpt lat="43.89091" lon="7.24534">
        <ele>621</ele>
        <time>2016-05-15T09:52:33.000Z</time>
      </trkpt>
      <trkpt lat="43.89086" lon="7.24522">
        <ele>621</ele>
        <time>2016-05-15T09:52:36.000Z</time>
      </trkpt>
      <trkpt lat="43.89085" lon="7.24518">
        <ele>621</ele>
        <time>2016-05-15T09:52:37.000Z</time>
      </trkpt>
      <trkpt lat="43.89084" lon="7.24507">
        <ele>617</ele>
        <time>2016-05-15T09:52:41.000Z</time>
      </trkpt>
      <trkpt lat="43.89083" lon="7.24501">
        <ele>611</ele>
        <time>2016-05-15T09:52:43.000Z</time>
      </trkpt>
      <trkpt lat="43.89081" lon="7.24491">
        <ele>609</ele>
        <time>2016-05-15T09:52:47.000Z</time>
      </trkpt>
      <trkpt lat="43.89079" lon="7.24489">
        <ele>608</ele>
        <time>2016-05-15T09:52:49.000Z</time>
      </trkpt>
      <trkpt lat="43.89077" lon="7.24488">
        <ele>607</ele>
        <time>2016-05-15T09:52:50.000Z</time>
      </trkpt>
      <trkpt lat="43.89076" lon="7.24487">
        <ele>607</ele>
        <time>2016-05-15T09:52:51.000Z</time>
      </trkpt>
      <trkpt lat="43.89069" lon="7.24479">
        <ele>604</ele>
        <time>2016-05-15T09:52:56.000Z</time>
      </trkpt>
      <trkpt lat="43.89065" lon="7.24477">
        <ele>603</ele>
        <time>2016-05-15T09:52:58.000Z</time>
      </trkpt>
      <trkpt lat="43.89057" lon="7.24476">
        <ele>601</ele>
        <time>2016-05-15T09:53:01.000Z</time>
      </trkpt>
      <trkpt lat="43.89052" lon="7.24476">
        <ele>599</ele>
        <time>2016-05-15T09:53:03.000Z</time>
      </trkpt>
      <trkpt lat="43.89043" lon="7.24471">
        <ele>596</ele>
        <time>2016-05-15T09:53:06.000Z</time>
      </trkpt>
      <trkpt lat="43.89032" lon="7.24455">
        <ele>595</ele>
        <time>2016-05-15T09:53:12.000Z</time>
      </trkpt>
      <trkpt lat="43.8903" lon="7.24452">
        <ele>594</ele>
        <time>2016-05-15T09:53:13.000Z</time>
      </trkpt>
      <trkpt lat="43.89029" lon="7.24445">
        <ele>595</ele>
        <time>2016-05-15T09:53:15.000Z</time>
      </trkpt>
      <trkpt lat="43.89029" lon="7.24433">
        <ele>595</ele>
        <time>2016-05-15T09:53:18.000Z</time>
      </trkpt>
      <trkpt lat="43.89021" lon="7.2441">
        <ele>603</ele>
        <time>2016-05-15T09:53:23.000Z</time>
      </trkpt>
      <trkpt lat="43.89018" lon="7.24406">
        <ele>602</ele>
        <time>2016-05-15T09:53:24.000Z</time>
      </trkpt>
      <trkpt lat="43.89015" lon="7.24385">
        <ele>608</ele>
        <time>2016-05-15T09:53:28.000Z</time>
      </trkpt>
      <trkpt lat="43.89019" lon="7.24365">
        <ele>612</ele>
        <time>2016-05-15T09:53:32.000Z</time>
      </trkpt>
      <trkpt lat="43.89016" lon="7.24341">
        <ele>608</ele>
        <time>2016-05-15T09:53:38.000Z</time>
      </trkpt>
      <trkpt lat="43.89015" lon="7.24336">
        <ele>606</ele>
        <time>2016-05-15T09:53:42.000Z</time>
      </trkpt>
      <trkpt lat="43.89015" lon="7.24335">
        <ele>606</ele>
        <time>2016-05-15T09:53:43.000Z</time>
      </trkpt>
      <trkpt lat="43.89015" lon="7.24334">
        <ele>606</ele>
        <time>2016-05-15T09:53:45.000Z</time>
      </trkpt>
      <trkpt lat="43.89013" lon="7.24333">
        <ele>613</ele>
        <time>2016-05-15T09:53:46.000Z</time>
      </trkpt>
      <trkpt lat="43.89004" lon="7.24319">
        <ele>615</ele>
        <time>2016-05-15T09:53:50.000Z</time>
      </trkpt>
      <trkpt lat="43.89" lon="7.24311">
        <ele>620</ele>
        <time>2016-05-15T09:53:52.000Z</time>
      </trkpt>
      <trkpt lat="43.88988" lon="7.243">
        <ele>587</ele>
        <time>2016-05-15T09:53:56.000Z</time>
      </trkpt>
      <trkpt lat="43.88985" lon="7.24298">
        <ele>587</ele>
        <time>2016-05-15T09:53:58.000Z</time>
      </trkpt>
      <trkpt lat="43.8898" lon="7.24292">
        <ele>587</ele>
        <time>2016-05-15T09:54:00.000Z</time>
      </trkpt>
      <trkpt lat="43.88979" lon="7.24288">
        <ele>587</ele>
        <time>2016-05-15T09:54:01.000Z</time>
      </trkpt>
      <trkpt lat="43.88982" lon="7.24281">
        <ele>589</ele>
        <time>2016-05-15T09:54:03.000Z</time>
      </trkpt>
      <trkpt lat="43.88994" lon="7.24266">
        <ele>599</ele>
        <time>2016-05-15T09:54:08.000Z</time>
      </trkpt>
      <trkpt lat="43.88995" lon="7.24259">
        <ele>604</ele>
        <time>2016-05-15T09:54:09.000Z</time>
      </trkpt>
      <trkpt lat="43.88996" lon="7.24248">
        <ele>614</ele>
        <time>2016-05-15T09:54:11.000Z</time>
      </trkpt>
      <trkpt lat="43.89001" lon="7.24219">
        <ele>651</ele>
        <time>2016-05-15T09:54:17.000Z</time>
      </trkpt>
      <trkpt lat="43.88999" lon="7.24208">
        <ele>619</ele>
        <time>2016-05-15T09:54:21.000Z</time>
      </trkpt>
      <trkpt lat="43.88998" lon="7.24206">
        <ele>619</ele>
        <time>2016-05-15T09:54:23.000Z</time>
      </trkpt>
      <trkpt lat="43.88995" lon="7.24204">
        <ele>620</ele>
        <time>2016-05-15T09:54:25.000Z</time>
      </trkpt>
      <trkpt lat="43.8899" lon="7.24204">
        <ele>619</ele>
        <time>2016-05-15T09:54:27.000Z</time>
      </trkpt>
      <trkpt lat="43.88985" lon="7.24204">
        <ele>618</ele>
        <time>2016-05-15T09:54:29.000Z</time>
      </trkpt>
      <trkpt lat="43.88983" lon="7.24203">
        <ele>618</ele>
        <time>2016-05-15T09:54:30.000Z</time>
      </trkpt>
      <trkpt lat="43.88968" lon="7.24203">
        <ele>614</ele>
        <time>2016-05-15T09:54:34.000Z</time>
      </trkpt>
      <trkpt lat="43.88961" lon="7.24207">
        <ele>611</ele>
        <time>2016-05-15T09:54:37.000Z</time>
      </trkpt>
      <trkpt lat="43.88951" lon="7.24211">
        <ele>607</ele>
        <time>2016-05-15T09:54:41.000Z</time>
      </trkpt>
      <trkpt lat="43.88947" lon="7.24201">
        <ele>609</ele>
        <time>2016-05-15T09:54:45.000Z</time>
      </trkpt>
      <trkpt lat="43.88944" lon="7.24198">
        <ele>609</ele>
        <time>2016-05-15T09:54:46.000Z</time>
      </trkpt>
      <trkpt lat="43.88943" lon="7.2419">
        <ele>610</ele>
        <time>2016-05-15T09:54:48.000Z</time>
      </trkpt>
      <trkpt lat="43.88945" lon="7.24185">
        <ele>611</ele>
        <time>2016-05-15T09:54:49.000Z</time>
      </trkpt>
      <trkpt lat="43.88946" lon="7.24167">
        <ele>613</ele>
        <time>2016-05-15T09:54:53.000Z</time>
      </trkpt>
      <trkpt lat="43.88944" lon="7.24163">
        <ele>635</ele>
        <time>2016-05-15T09:54:54.000Z</time>
      </trkpt>
      <trkpt lat="43.88941" lon="7.24161">
        <ele>634</ele>
        <time>2016-05-15T09:54:55.000Z</time>
      </trkpt>
      <trkpt lat="43.88931" lon="7.24161">
        <ele>627</ele>
        <time>2016-05-15T09:54:58.000Z</time>
      </trkpt>
      <trkpt lat="43.88922" lon="7.24162">
        <ele>618</ele>
        <time>2016-05-15T09:55:00.000Z</time>
      </trkpt>
      <trkpt lat="43.88909" lon="7.24161">
        <ele>611</ele>
        <time>2016-05-15T09:55:04.000Z</time>
      </trkpt>
      <trkpt lat="43.88902" lon="7.24162">
        <ele>611</ele>
        <time>2016-05-15T09:55:06.000Z</time>
      </trkpt>
      <trkpt lat="43.88895" lon="7.24166">
        <ele>611</ele>
        <time>2016-05-15T09:55:09.000Z</time>
      </trkpt>
      <trkpt lat="43.8889" lon="7.24167">
        <ele>592</ele>
        <time>2016-05-15T09:55:11.000Z</time>
      </trkpt>
      <trkpt lat="43.88884" lon="7.24168">
        <ele>590</ele>
        <time>2016-05-15T09:55:13.000Z</time>
      </trkpt>
      <trkpt lat="43.88881" lon="7.24168">
        <ele>590</ele>
        <time>2016-05-15T09:55:14.000Z</time>
      </trkpt>
      <trkpt lat="43.88876" lon="7.24168">
        <ele>589</ele>
        <time>2016-05-15T09:55:16.000Z</time>
      </trkpt>
      <trkpt lat="43.88873" lon="7.2417">
        <ele>588</ele>
        <time>2016-05-15T09:55:18.000Z</time>
      </trkpt>
      <trkpt lat="43.88872" lon="7.24173">
        <ele>588</ele>
        <time>2016-05-15T09:55:19.000Z</time>
      </trkpt>
      <trkpt lat="43.88871" lon="7.24177">
        <ele>587</ele>
        <time>2016-05-15T09:55:20.000Z</time>
      </trkpt>
      <trkpt lat="43.8887" lon="7.2419">
        <ele>585</ele>
        <time>2016-05-15T09:55:23.000Z</time>
      </trkpt>
      <trkpt lat="43.88869" lon="7.24197">
        <ele>584</ele>
        <time>2016-05-15T09:55:25.000Z</time>
      </trkpt>
      <trkpt lat="43.88866" lon="7.24202">
        <ele>582</ele>
        <time>2016-05-15T09:55:27.000Z</time>
      </trkpt>
      <trkpt lat="43.88868" lon="7.24204">
        <ele>582</ele>
        <time>2016-05-15T09:55:29.000Z</time>
      </trkpt>
      <trkpt lat="43.88869" lon="7.24202">
        <ele>583</ele>
        <time>2016-05-15T09:55:30.000Z</time>
      </trkpt>
      <trkpt lat="43.88871" lon="7.242">
        <ele>583</ele>
        <time>2016-05-15T09:55:31.000Z</time>
      </trkpt>
      <trkpt lat="43.88873" lon="7.24197">
        <ele>584</ele>
        <time>2016-05-15T09:55:33.000Z</time>
      </trkpt>
      <trkpt lat="43.88874" lon="7.24199">
        <ele>584</ele>
        <time>2016-05-15T09:55:34.000Z</time>
      </trkpt>
      <trkpt lat="43.88874" lon="7.24201">
        <ele>583</ele>
        <time>2016-05-15T09:55:35.000Z</time>
      </trkpt>
      <trkpt lat="43.88872" lon="7.24208">
        <ele>581</ele>
        <time>2016-05-15T09:55:38.000Z</time>
      </trkpt>
      <trkpt lat="43.88869" lon="7.24208">
        <ele>581</ele>
        <time>2016-05-15T09:55:39.000Z</time>
      </trkpt>
      <trkpt lat="43.88865" lon="7.24214">
        <ele>579</ele>
        <time>2016-05-15T09:55:41.000Z</time>
      </trkpt>
      <trkpt lat="43.88862" lon="7.24218">
        <ele>578</ele>
        <time>2016-05-15T09:55:43.000Z</time>
      </trkpt>
      <trkpt lat="43.88862" lon="7.24221">
        <ele>578</ele>
        <time>2016-05-15T09:55:44.000Z</time>
      </trkpt>
      <trkpt lat="43.88863" lon="7.24224">
        <ele>577</ele>
        <time>2016-05-15T09:55:45.000Z</time>
      </trkpt>
      <trkpt lat="43.88863" lon="7.24227">
        <ele>576</ele>
        <time>2016-05-15T09:55:46.000Z</time>
      </trkpt>
      <trkpt lat="43.88863" lon="7.24232">
        <ele>575</ele>
        <time>2016-05-15T09:55:48.000Z</time>
      </trkpt>
      <trkpt lat="43.88863" lon="7.24238">
        <ele>574</ele>
        <time>2016-05-15T09:55:50.000Z</time>
      </trkpt>
      <trkpt lat="43.88864" lon="7.24246">
        <ele>573</ele>
        <time>2016-05-15T09:55:52.000Z</time>
      </trkpt>
      <trkpt lat="43.88862" lon="7.24249">
        <ele>572</ele>
        <time>2016-05-15T09:55:54.000Z</time>
      </trkpt>
      <trkpt lat="43.88858" lon="7.24247">
        <ele>572</ele>
        <time>2016-05-15T09:55:56.000Z</time>
      </trkpt>
      <trkpt lat="43.88855" lon="7.24246">
        <ele>571</ele>
        <time>2016-05-15T09:55:57.000Z</time>
      </trkpt>
      <trkpt lat="43.88854" lon="7.24244">
        <ele>571</ele>
        <time>2016-05-15T09:55:58.000Z</time>
      </trkpt>
      <trkpt lat="43.88852" lon="7.24245">
        <ele>570</ele>
        <time>2016-05-15T09:55:59.000Z</time>
      </trkpt>
      <trkpt lat="43.88849" lon="7.24245">
        <ele>569</ele>
        <time>2016-05-15T09:56:01.000Z</time>
      </trkpt>
      <trkpt lat="43.8884" lon="7.2425">
        <ele>563</ele>
        <time>2016-05-15T09:56:05.000Z</time>
      </trkpt>
      <trkpt lat="43.88839" lon="7.24252">
        <ele>556</ele>
        <time>2016-05-15T09:56:06.000Z</time>
      </trkpt>
      <trkpt lat="43.88837" lon="7.24254">
        <ele>556</ele>
        <time>2016-05-15T09:56:07.000Z</time>
      </trkpt>
      <trkpt lat="43.88831" lon="7.24256">
        <ele>553</ele>
        <time>2016-05-15T09:56:09.000Z</time>
      </trkpt>
      <trkpt lat="43.88827" lon="7.24257">
        <ele>551</ele>
        <time>2016-05-15T09:56:10.000Z</time>
      </trkpt>
      <trkpt lat="43.88823" lon="7.24259">
        <ele>548</ele>
        <time>2016-05-15T09:56:11.000Z</time>
      </trkpt>
      <trkpt lat="43.88819" lon="7.24261">
        <ele>546</ele>
        <time>2016-05-15T09:56:12.000Z</time>
      </trkpt>
      <trkpt lat="43.88816" lon="7.24264">
        <ele>544</ele>
        <time>2016-05-15T09:56:13.000Z</time>
      </trkpt>
      <trkpt lat="43.88809" lon="7.24272">
        <ele>541</ele>
        <time>2016-05-15T09:56:15.000Z</time>
      </trkpt>
      <trkpt lat="43.88805" lon="7.24276">
        <ele>540</ele>
        <time>2016-05-15T09:56:16.000Z</time>
      </trkpt>
      <trkpt lat="43.88796" lon="7.2428">
        <ele>538</ele>
        <time>2016-05-15T09:56:19.000Z</time>
      </trkpt>
      <trkpt lat="43.88792" lon="7.24281">
        <ele>537</ele>
        <time>2016-05-15T09:56:20.000Z</time>
      </trkpt>
      <trkpt lat="43.88782" lon="7.24287">
        <ele>535</ele>
        <time>2016-05-15T09:56:23.000Z</time>
      </trkpt>
      <trkpt lat="43.88776" lon="7.24293">
        <ele>534</ele>
        <time>2016-05-15T09:56:25.000Z</time>
      </trkpt>
      <trkpt lat="43.88771" lon="7.24293">
        <ele>534</ele>
        <time>2016-05-15T09:56:27.000Z</time>
      </trkpt>
      <trkpt lat="43.88768" lon="7.24289">
        <ele>534</ele>
        <time>2016-05-15T09:56:28.000Z</time>
      </trkpt>
      <trkpt lat="43.88767" lon="7.24283">
        <ele>535</ele>
        <time>2016-05-15T09:56:29.000Z</time>
      </trkpt>
      <trkpt lat="43.88765" lon="7.24271">
        <ele>535</ele>
        <time>2016-05-15T09:56:31.000Z</time>
      </trkpt>
      <trkpt lat="43.88763" lon="7.24266">
        <ele>535</ele>
        <time>2016-05-15T09:56:32.000Z</time>
      </trkpt>
      <trkpt lat="43.88763" lon="7.24261">
        <ele>535</ele>
        <time>2016-05-15T09:56:33.000Z</time>
      </trkpt>
      <trkpt lat="43.88761" lon="7.24255">
        <ele>535</ele>
        <time>2016-05-15T09:56:34.000Z</time>
      </trkpt>
      <trkpt lat="43.88759" lon="7.24245">
        <ele>541</ele>
        <time>2016-05-15T09:56:36.000Z</time>
      </trkpt>
      <trkpt lat="43.88758" lon="7.24239">
        <ele>543</ele>
        <time>2016-05-15T09:56:37.000Z</time>
      </trkpt>
      <trkpt lat="43.88756" lon="7.24229">
        <ele>545</ele>
        <time>2016-05-15T09:56:39.000Z</time>
      </trkpt>
      <trkpt lat="43.88755" lon="7.24222">
        <ele>547</ele>
        <time>2016-05-15T09:56:41.000Z</time>
      </trkpt>
      <trkpt lat="43.88754" lon="7.24223">
        <ele>547</ele>
        <time>2016-05-15T09:56:42.000Z</time>
      </trkpt>
      <trkpt lat="43.88753" lon="7.24229">
        <ele>545</ele>
        <time>2016-05-15T09:56:44.000Z</time>
      </trkpt>
      <trkpt lat="43.88752" lon="7.24237">
        <ele>542</ele>
        <time>2016-05-15T09:56:46.000Z</time>
      </trkpt>
      <trkpt lat="43.8875" lon="7.24245">
        <ele>538</ele>
        <time>2016-05-15T09:56:48.000Z</time>
      </trkpt>
      <trkpt lat="43.88748" lon="7.24256">
        <ele>529</ele>
        <time>2016-05-15T09:56:51.000Z</time>
      </trkpt>
      <trkpt lat="43.88746" lon="7.24259">
        <ele>526</ele>
        <time>2016-05-15T09:56:52.000Z</time>
      </trkpt>
      <trkpt lat="43.88746" lon="7.24263">
        <ele>524</ele>
        <time>2016-05-15T09:56:53.000Z</time>
      </trkpt>
      <trkpt lat="43.88742" lon="7.24272">
        <ele>520</ele>
        <time>2016-05-15T09:56:55.000Z</time>
      </trkpt>
      <trkpt lat="43.8874" lon="7.24279">
        <ele>518</ele>
        <time>2016-05-15T09:56:57.000Z</time>
      </trkpt>
      <trkpt lat="43.88738" lon="7.24283">
        <ele>517</ele>
        <time>2016-05-15T09:56:58.000Z</time>
      </trkpt>
      <trkpt lat="43.88733" lon="7.24299">
        <ele>515</ele>
        <time>2016-05-15T09:57:02.000Z</time>
      </trkpt>
      <trkpt lat="43.88731" lon="7.24303">
        <ele>515</ele>
        <time>2016-05-15T09:57:03.000Z</time>
      </trkpt>
      <trkpt lat="43.8873" lon="7.24308">
        <ele>515</ele>
        <time>2016-05-15T09:57:04.000Z</time>
      </trkpt>
      <trkpt lat="43.88729" lon="7.24309">
        <ele>515</ele>
        <time>2016-05-15T09:57:05.000Z</time>
      </trkpt>
      <trkpt lat="43.88729" lon="7.24308">
        <ele>515</ele>
        <time>2016-05-15T09:57:06.000Z</time>
      </trkpt>
      <trkpt lat="43.88728" lon="7.24309">
        <ele>515</ele>
        <time>2016-05-15T09:57:07.000Z</time>
      </trkpt>
      <trkpt lat="43.88728" lon="7.24309">
        <ele>515</ele>
        <time>2016-05-15T09:57:09.000Z</time>
      </trkpt>
      <trkpt lat="43.88727" lon="7.24305">
        <ele>514</ele>
        <time>2016-05-15T09:57:12.000Z</time>
      </trkpt>
      <trkpt lat="43.88724" lon="7.24293">
        <ele>514</ele>
        <time>2016-05-15T09:57:16.000Z</time>
      </trkpt>
      <trkpt lat="43.88722" lon="7.24289">
        <ele>514</ele>
        <time>2016-05-15T09:57:17.000Z</time>
      </trkpt>
      <trkpt lat="43.8872" lon="7.24274">
        <ele>514</ele>
        <time>2016-05-15T09:57:20.000Z</time>
      </trkpt>
      <trkpt lat="43.8872" lon="7.24266">
        <ele>515</ele>
        <time>2016-05-15T09:57:22.000Z</time>
      </trkpt>
      <trkpt lat="43.88719" lon="7.24263">
        <ele>515</ele>
        <time>2016-05-15T09:57:23.000Z</time>
      </trkpt>
      <trkpt lat="43.88719" lon="7.2426">
        <ele>515</ele>
        <time>2016-05-15T09:57:24.000Z</time>
      </trkpt>
      <trkpt lat="43.88718" lon="7.24258">
        <ele>515</ele>
        <time>2016-05-15T09:57:25.000Z</time>
      </trkpt>
      <trkpt lat="43.88717" lon="7.24255">
        <ele>514</ele>
        <time>2016-05-15T09:57:26.000Z</time>
      </trkpt>
      <trkpt lat="43.88714" lon="7.24251">
        <ele>513</ele>
        <time>2016-05-15T09:57:28.000Z</time>
      </trkpt>
      <trkpt lat="43.88713" lon="7.24251">
        <ele>513</ele>
        <time>2016-05-15T09:57:29.000Z</time>
      </trkpt>
      <trkpt lat="43.88713" lon="7.24252">
        <ele>513</ele>
        <time>2016-05-15T09:57:30.000Z</time>
      </trkpt>
      <trkpt lat="43.88713" lon="7.24254">
        <ele>513</ele>
        <time>2016-05-15T09:57:31.000Z</time>
      </trkpt>
      <trkpt lat="43.88711" lon="7.24257">
        <ele>512</ele>
        <time>2016-05-15T09:57:33.000Z</time>
      </trkpt>
      <trkpt lat="43.8871" lon="7.24256">
        <ele>511</ele>
        <time>2016-05-15T09:57:34.000Z</time>
      </trkpt>
      <trkpt lat="43.88708" lon="7.24252">
        <ele>511</ele>
        <time>2016-05-15T09:57:36.000Z</time>
      </trkpt>
      <trkpt lat="43.88709" lon="7.24252">
        <ele>511</ele>
        <time>2016-05-15T09:57:37.000Z</time>
      </trkpt>
      <trkpt lat="43.8871" lon="7.2425">
        <ele>511</ele>
        <time>2016-05-15T09:57:39.000Z</time>
      </trkpt>
      <trkpt lat="43.88709" lon="7.24245">
        <ele>511</ele>
        <time>2016-05-15T09:57:42.000Z</time>
      </trkpt>
      <trkpt lat="43.88708" lon="7.24242">
        <ele>510</ele>
        <time>2016-05-15T09:57:43.000Z</time>
      </trkpt>
      <trkpt lat="43.88705" lon="7.24237">
        <ele>509</ele>
        <time>2016-05-15T09:57:46.000Z</time>
      </trkpt>
      <trkpt lat="43.88704" lon="7.24239">
        <ele>509</ele>
        <time>2016-05-15T09:57:47.000Z</time>
      </trkpt>
      <trkpt lat="43.88702" lon="7.24244">
        <ele>508</ele>
        <time>2016-05-15T09:57:49.000Z</time>
      </trkpt>
      <trkpt lat="43.88701" lon="7.24246">
        <ele>507</ele>
        <time>2016-05-15T09:57:50.000Z</time>
      </trkpt>
      <trkpt lat="43.887" lon="7.24245">
        <ele>507</ele>
        <time>2016-05-15T09:57:51.000Z</time>
      </trkpt>
      <trkpt lat="43.88699" lon="7.24244">
        <ele>507</ele>
        <time>2016-05-15T09:57:52.000Z</time>
      </trkpt>
      <trkpt lat="43.88698" lon="7.24243">
        <ele>506</ele>
        <time>2016-05-15T09:57:53.000Z</time>
      </trkpt>
      <trkpt lat="43.88697" lon="7.24237">
        <ele>506</ele>
        <time>2016-05-15T09:57:55.000Z</time>
      </trkpt>
      <trkpt lat="43.88698" lon="7.24232">
        <ele>506</ele>
        <time>2016-05-15T09:57:57.000Z</time>
      </trkpt>
      <trkpt lat="43.88698" lon="7.24231">
        <ele>507</ele>
        <time>2016-05-15T09:57:58.000Z</time>
      </trkpt>
      <trkpt lat="43.88694" lon="7.2422">
        <ele>506</ele>
        <time>2016-05-15T09:58:01.000Z</time>
      </trkpt>
      <trkpt lat="43.88694" lon="7.24216">
        <ele>506</ele>
        <time>2016-05-15T09:58:02.000Z</time>
      </trkpt>
      <trkpt lat="43.88693" lon="7.24213">
        <ele>505</ele>
        <time>2016-05-15T09:58:03.000Z</time>
      </trkpt>
      <trkpt lat="43.88691" lon="7.24212">
        <ele>505</ele>
        <time>2016-05-15T09:58:05.000Z</time>
      </trkpt>
      <trkpt lat="43.8869" lon="7.24214">
        <ele>504</ele>
        <time>2016-05-15T09:58:06.000Z</time>
      </trkpt>
      <trkpt lat="43.88689" lon="7.24217">
        <ele>504</ele>
        <time>2016-05-15T09:58:07.000Z</time>
      </trkpt>
      <trkpt lat="43.88683" lon="7.24226">
        <ele>502</ele>
        <time>2016-05-15T09:58:10.000Z</time>
      </trkpt>
      <trkpt lat="43.88681" lon="7.24222">
        <ele>502</ele>
        <time>2016-05-15T09:58:12.000Z</time>
      </trkpt>
      <trkpt lat="43.88682" lon="7.24219">
        <ele>502</ele>
        <time>2016-05-15T09:58:13.000Z</time>
      </trkpt>
      <trkpt lat="43.88683" lon="7.24214">
        <ele>503</ele>
        <time>2016-05-15T09:58:14.000Z</time>
      </trkpt>
      <trkpt lat="43.88681" lon="7.2421">
        <ele>502</ele>
        <time>2016-05-15T09:58:16.000Z</time>
      </trkpt>
      <trkpt lat="43.8868" lon="7.24209">
        <ele>502</ele>
        <time>2016-05-15T09:58:17.000Z</time>
      </trkpt>
      <trkpt lat="43.88679" lon="7.24206">
        <ele>501</ele>
        <time>2016-05-15T09:58:18.000Z</time>
      </trkpt>
      <trkpt lat="43.8868" lon="7.24199">
        <ele>501</ele>
        <time>2016-05-15T09:58:20.000Z</time>
      </trkpt>
      <trkpt lat="43.88679" lon="7.24198">
        <ele>500</ele>
        <time>2016-05-15T09:58:21.000Z</time>
      </trkpt>
      <trkpt lat="43.88677" lon="7.242">
        <ele>500</ele>
        <time>2016-05-15T09:58:22.000Z</time>
      </trkpt>
      <trkpt lat="43.88676" lon="7.24203">
        <ele>500</ele>
        <time>2016-05-15T09:58:23.000Z</time>
      </trkpt>
      <trkpt lat="43.88674" lon="7.24205">
        <ele>500</ele>
        <time>2016-05-15T09:58:24.000Z</time>
      </trkpt>
      <trkpt lat="43.88671" lon="7.24202">
        <ele>499</ele>
        <time>2016-05-15T09:58:26.000Z</time>
      </trkpt>
      <trkpt lat="43.88672" lon="7.242">
        <ele>499</ele>
        <time>2016-05-15T09:58:27.000Z</time>
      </trkpt>
      <trkpt lat="43.88672" lon="7.24196">
        <ele>498</ele>
        <time>2016-05-15T09:58:28.000Z</time>
      </trkpt>
      <trkpt lat="43.88671" lon="7.24192">
        <ele>497</ele>
        <time>2016-05-15T09:58:29.000Z</time>
      </trkpt>
      <trkpt lat="43.88669" lon="7.24188">
        <ele>495</ele>
        <time>2016-05-15T09:58:30.000Z</time>
      </trkpt>
      <trkpt lat="43.88667" lon="7.24184">
        <ele>493</ele>
        <time>2016-05-15T09:58:31.000Z</time>
      </trkpt>
      <trkpt lat="43.88666" lon="7.24179">
        <ele>471</ele>
        <time>2016-05-15T09:58:32.000Z</time>
      </trkpt>
      <trkpt lat="43.88664" lon="7.24169">
        <ele>475</ele>
        <time>2016-05-15T09:58:34.000Z</time>
      </trkpt>
      <trkpt lat="43.88664" lon="7.24163">
        <ele>474</ele>
        <time>2016-05-15T09:58:35.000Z</time>
      </trkpt>
      <trkpt lat="43.88665" lon="7.24158">
        <ele>471</ele>
        <time>2016-05-15T09:58:36.000Z</time>
      </trkpt>
      <trkpt lat="43.88666" lon="7.24146">
        <ele>465</ele>
        <time>2016-05-15T09:58:38.000Z</time>
      </trkpt>
      <trkpt lat="43.88667" lon="7.2414">
        <ele>491</ele>
        <time>2016-05-15T09:58:39.000Z</time>
      </trkpt>
      <trkpt lat="43.88669" lon="7.24131">
        <ele>492</ele>
        <time>2016-05-15T09:58:41.000Z</time>
      </trkpt>
      <trkpt lat="43.88671" lon="7.24124">
        <ele>492</ele>
        <time>2016-05-15T09:58:43.000Z</time>
      </trkpt>
      <trkpt lat="43.88672" lon="7.2412">
        <ele>491</ele>
        <time>2016-05-15T09:58:44.000Z</time>
      </trkpt>
      <trkpt lat="43.88671" lon="7.24118">
        <ele>491</ele>
        <time>2016-05-15T09:58:45.000Z</time>
      </trkpt>
      <trkpt lat="43.8867" lon="7.24118">
        <ele>491</ele>
        <time>2016-05-15T09:58:46.000Z</time>
      </trkpt>
      <trkpt lat="43.88668" lon="7.24121">
        <ele>491</ele>
        <time>2016-05-15T09:58:47.000Z</time>
      </trkpt>
      <trkpt lat="43.88664" lon="7.2413">
        <ele>461</ele>
        <time>2016-05-15T09:58:49.000Z</time>
      </trkpt>
      <trkpt lat="43.88661" lon="7.24134">
        <ele>461</ele>
        <time>2016-05-15T09:58:50.000Z</time>
      </trkpt>
      <trkpt lat="43.88657" lon="7.24137">
        <ele>461</ele>
        <time>2016-05-15T09:58:51.000Z</time>
      </trkpt>
      <trkpt lat="43.88652" lon="7.24142">
        <ele>461</ele>
        <time>2016-05-15T09:58:53.000Z</time>
      </trkpt>
      <trkpt lat="43.8865" lon="7.24146">
        <ele>462</ele>
        <time>2016-05-15T09:58:54.000Z</time>
      </trkpt>
      <trkpt lat="43.88647" lon="7.24149">
        <ele>461</ele>
        <time>2016-05-15T09:58:55.000Z</time>
      </trkpt>
      <trkpt lat="43.88643" lon="7.24153">
        <ele>460</ele>
        <time>2016-05-15T09:58:57.000Z</time>
      </trkpt>
      <trkpt lat="43.88641" lon="7.24155">
        <ele>460</ele>
        <time>2016-05-15T09:58:58.000Z</time>
      </trkpt>
      <trkpt lat="43.8864" lon="7.24154">
        <ele>459</ele>
        <time>2016-05-15T09:58:59.000Z</time>
      </trkpt>
      <trkpt lat="43.88641" lon="7.24148">
        <ele>459</ele>
        <time>2016-05-15T09:59:01.000Z</time>
      </trkpt>
      <trkpt lat="43.88642" lon="7.24144">
        <ele>459</ele>
        <time>2016-05-15T09:59:02.000Z</time>
      </trkpt>
      <trkpt lat="43.88643" lon="7.24137">
        <ele>458</ele>
        <time>2016-05-15T09:59:04.000Z</time>
      </trkpt>
      <trkpt lat="43.88643" lon="7.24132">
        <ele>458</ele>
        <time>2016-05-15T09:59:07.000Z</time>
      </trkpt>
      <trkpt lat="43.88636" lon="7.24138">
        <ele>456</ele>
        <time>2016-05-15T09:59:10.000Z</time>
      </trkpt>
      <trkpt lat="43.88631" lon="7.24141">
        <ele>455</ele>
        <time>2016-05-15T09:59:12.000Z</time>
      </trkpt>
      <trkpt lat="43.88628" lon="7.24148">
        <ele>454</ele>
        <time>2016-05-15T09:59:14.000Z</time>
      </trkpt>
      <trkpt lat="43.88626" lon="7.24151">
        <ele>454</ele>
        <time>2016-05-15T09:59:15.000Z</time>
      </trkpt>
      <trkpt lat="43.88625" lon="7.24157">
        <ele>453</ele>
        <time>2016-05-15T09:59:17.000Z</time>
      </trkpt>
      <trkpt lat="43.88622" lon="7.24165">
        <ele>452</ele>
        <time>2016-05-15T09:59:19.000Z</time>
      </trkpt>
      <trkpt lat="43.8862" lon="7.24168">
        <ele>454</ele>
        <time>2016-05-15T09:59:20.000Z</time>
      </trkpt>
      <trkpt lat="43.88618" lon="7.24172">
        <ele>453</ele>
        <time>2016-05-15T09:59:21.000Z</time>
      </trkpt>
      <trkpt lat="43.88617" lon="7.2418">
        <ele>453</ele>
        <time>2016-05-15T09:59:23.000Z</time>
      </trkpt>
      <trkpt lat="43.88616" lon="7.24185">
        <ele>453</ele>
        <time>2016-05-15T09:59:24.000Z</time>
      </trkpt>
      <trkpt lat="43.88614" lon="7.24195">
        <ele>453</ele>
        <time>2016-05-15T09:59:26.000Z</time>
      </trkpt>
      <trkpt lat="43.88611" lon="7.24205">
        <ele>453</ele>
        <time>2016-05-15T09:59:28.000Z</time>
      </trkpt>
      <trkpt lat="43.8861" lon="7.24212">
        <ele>453</ele>
        <time>2016-05-15T09:59:29.000Z</time>
      </trkpt>
      <trkpt lat="43.88608" lon="7.24219">
        <ele>453</ele>
        <time>2016-05-15T09:59:30.000Z</time>
      </trkpt>
      <trkpt lat="43.88606" lon="7.2423">
        <ele>451</ele>
        <time>2016-05-15T09:59:32.000Z</time>
      </trkpt>
      <trkpt lat="43.88603" lon="7.24239">
        <ele>449</ele>
        <time>2016-05-15T09:59:34.000Z</time>
      </trkpt>
      <trkpt lat="43.88602" lon="7.24243">
        <ele>448</ele>
        <time>2016-05-15T09:59:35.000Z</time>
      </trkpt>
      <trkpt lat="43.88601" lon="7.24247">
        <ele>447</ele>
        <time>2016-05-15T09:59:36.000Z</time>
      </trkpt>
      <trkpt lat="43.88599" lon="7.24256">
        <ele>449</ele>
        <time>2016-05-15T09:59:38.000Z</time>
      </trkpt>
      <trkpt lat="43.88597" lon="7.24264">
        <ele>450</ele>
        <time>2016-05-15T09:59:40.000Z</time>
      </trkpt>
      <trkpt lat="43.88595" lon="7.24265">
        <ele>450</ele>
        <time>2016-05-15T09:59:42.000Z</time>
      </trkpt>
      <trkpt lat="43.88594" lon="7.24259">
        <ele>447</ele>
        <time>2016-05-15T09:59:44.000Z</time>
      </trkpt>
      <trkpt lat="43.88593" lon="7.24255">
        <ele>445</ele>
        <time>2016-05-15T09:59:45.000Z</time>
      </trkpt>
      <trkpt lat="43.8859" lon="7.24243">
        <ele>442</ele>
        <time>2016-05-15T09:59:48.000Z</time>
      </trkpt>
      <trkpt lat="43.88587" lon="7.2423">
        <ele>446</ele>
        <time>2016-05-15T09:59:51.000Z</time>
      </trkpt>
      <trkpt lat="43.88586" lon="7.24222">
        <ele>447</ele>
        <time>2016-05-15T09:59:53.000Z</time>
      </trkpt>
      <trkpt lat="43.88584" lon="7.24213">
        <ele>448</ele>
        <time>2016-05-15T09:59:55.000Z</time>
      </trkpt>
      <trkpt lat="43.88583" lon="7.24204">
        <ele>414</ele>
        <time>2016-05-15T09:59:57.000Z</time>
      </trkpt>
      <trkpt lat="43.88582" lon="7.24197">
        <ele>414</ele>
        <time>2016-05-15T09:59:59.000Z</time>
      </trkpt>
      <trkpt lat="43.8858" lon="7.24189">
        <ele>416</ele>
        <time>2016-05-15T10:00:01.000Z</time>
      </trkpt>
      <trkpt lat="43.88579" lon="7.24181">
        <ele>418</ele>
        <time>2016-05-15T10:00:03.000Z</time>
      </trkpt>
      <trkpt lat="43.88578" lon="7.24173">
        <ele>422</ele>
        <time>2016-05-15T10:00:05.000Z</time>
      </trkpt>
      <trkpt lat="43.88575" lon="7.2416">
        <ele>422</ele>
        <time>2016-05-15T10:00:08.000Z</time>
      </trkpt>
      <trkpt lat="43.88574" lon="7.24155">
        <ele>421</ele>
        <time>2016-05-15T10:00:09.000Z</time>
      </trkpt>
      <trkpt lat="43.88572" lon="7.24148">
        <ele>419</ele>
        <time>2016-05-15T10:00:11.000Z</time>
      </trkpt>
      <trkpt lat="43.88571" lon="7.24147">
        <ele>418</ele>
        <time>2016-05-15T10:00:12.000Z</time>
      </trkpt>
      <trkpt lat="43.88571" lon="7.24143">
        <ele>418</ele>
        <time>2016-05-15T10:00:13.000Z</time>
      </trkpt>
      <trkpt lat="43.88569" lon="7.24136">
        <ele>417</ele>
        <time>2016-05-15T10:00:15.000Z</time>
      </trkpt>
      <trkpt lat="43.88567" lon="7.24127">
        <ele>417</ele>
        <time>2016-05-15T10:00:17.000Z</time>
      </trkpt>
      <trkpt lat="43.88564" lon="7.24118">
        <ele>417</ele>
        <time>2016-05-15T10:00:19.000Z</time>
      </trkpt>
      <trkpt lat="43.88558" lon="7.24112">
        <ele>416</ele>
        <time>2016-05-15T10:00:21.000Z</time>
      </trkpt>
      <trkpt lat="43.8855" lon="7.24101">
        <ele>415</ele>
        <time>2016-05-15T10:00:24.000Z</time>
      </trkpt>
      <trkpt lat="43.88548" lon="7.24096">
        <ele>415</ele>
        <time>2016-05-15T10:00:25.000Z</time>
      </trkpt>
      <trkpt lat="43.88541" lon="7.24091">
        <ele>413</ele>
        <time>2016-05-15T10:00:28.000Z</time>
      </trkpt>
      <trkpt lat="43.88536" lon="7.24089">
        <ele>412</ele>
        <time>2016-05-15T10:00:30.000Z</time>
      </trkpt>
      <trkpt lat="43.88531" lon="7.24086">
        <ele>410</ele>
        <time>2016-05-15T10:00:32.000Z</time>
      </trkpt>
      <trkpt lat="43.88529" lon="7.24084">
        <ele>410</ele>
        <time>2016-05-15T10:00:33.000Z</time>
      </trkpt>
      <trkpt lat="43.88526" lon="7.2408">
        <ele>420</ele>
        <time>2016-05-15T10:00:34.000Z</time>
      </trkpt>
      <trkpt lat="43.88515" lon="7.24072">
        <ele>416</ele>
        <time>2016-05-15T10:00:37.000Z</time>
      </trkpt>
      <trkpt lat="43.88508" lon="7.24071">
        <ele>414</ele>
        <time>2016-05-15T10:00:39.000Z</time>
      </trkpt>
      <trkpt lat="43.88502" lon="7.24073">
        <ele>410</ele>
        <time>2016-05-15T10:00:41.000Z</time>
      </trkpt>
      <trkpt lat="43.88496" lon="7.24073">
        <ele>395</ele>
        <time>2016-05-15T10:00:43.000Z</time>
      </trkpt>
      <trkpt lat="43.8849" lon="7.24074">
        <ele>393</ele>
        <time>2016-05-15T10:00:45.000Z</time>
      </trkpt>
      <trkpt lat="43.88487" lon="7.24073">
        <ele>392</ele>
        <time>2016-05-15T10:00:46.000Z</time>
      </trkpt>
      <trkpt lat="43.88481" lon="7.24073">
        <ele>390</ele>
        <time>2016-05-15T10:00:48.000Z</time>
      </trkpt>
      <trkpt lat="43.88478" lon="7.24072">
        <ele>389</ele>
        <time>2016-05-15T10:00:49.000Z</time>
      </trkpt>
      <trkpt lat="43.88474" lon="7.24067">
        <ele>388</ele>
        <time>2016-05-15T10:00:51.000Z</time>
      </trkpt>
      <trkpt lat="43.88472" lon="7.24064">
        <ele>387</ele>
        <time>2016-05-15T10:00:52.000Z</time>
      </trkpt>
      <trkpt lat="43.88469" lon="7.24057">
        <ele>386</ele>
        <time>2016-05-15T10:00:54.000Z</time>
      </trkpt>
      <trkpt lat="43.88467" lon="7.24055">
        <ele>386</ele>
        <time>2016-05-15T10:00:55.000Z</time>
      </trkpt>
      <trkpt lat="43.88465" lon="7.24052">
        <ele>385</ele>
        <time>2016-05-15T10:00:56.000Z</time>
      </trkpt>
      <trkpt lat="43.88462" lon="7.2405">
        <ele>385</ele>
        <time>2016-05-15T10:00:57.000Z</time>
      </trkpt>
      <trkpt lat="43.88454" lon="7.24038">
        <ele>383</ele>
        <time>2016-05-15T10:01:01.000Z</time>
      </trkpt>
      <trkpt lat="43.88452" lon="7.2403">
        <ele>383</ele>
        <time>2016-05-15T10:01:03.000Z</time>
      </trkpt>
      <trkpt lat="43.88448" lon="7.24022">
        <ele>382</ele>
        <time>2016-05-15T10:01:05.000Z</time>
      </trkpt>
      <trkpt lat="43.88445" lon="7.24012">
        <ele>381</ele>
        <time>2016-05-15T10:01:07.000Z</time>
      </trkpt>
      <trkpt lat="43.88442" lon="7.24003">
        <ele>379</ele>
        <time>2016-05-15T10:01:09.000Z</time>
      </trkpt>
      <trkpt lat="43.8844" lon="7.23995">
        <ele>385</ele>
        <time>2016-05-15T10:01:11.000Z</time>
      </trkpt>
      <trkpt lat="43.88435" lon="7.23982">
        <ele>386</ele>
        <time>2016-05-15T10:01:14.000Z</time>
      </trkpt>
      <trkpt lat="43.88431" lon="7.23973">
        <ele>387</ele>
        <time>2016-05-15T10:01:16.000Z</time>
      </trkpt>
      <trkpt lat="43.88426" lon="7.23965">
        <ele>387</ele>
        <time>2016-05-15T10:01:19.000Z</time>
      </trkpt>
      <trkpt lat="43.88423" lon="7.23955">
        <ele>388</ele>
        <time>2016-05-15T10:01:21.000Z</time>
      </trkpt>
      <trkpt lat="43.8842" lon="7.2395">
        <ele>387</ele>
        <time>2016-05-15T10:01:22.000Z</time>
      </trkpt>
      <trkpt lat="43.88416" lon="7.23939">
        <ele>358</ele>
        <time>2016-05-15T10:01:24.000Z</time>
      </trkpt>
      <trkpt lat="43.88412" lon="7.23935">
        <ele>359</ele>
        <time>2016-05-15T10:01:25.000Z</time>
      </trkpt>
      <trkpt lat="43.8841" lon="7.2393">
        <ele>361</ele>
        <time>2016-05-15T10:01:26.000Z</time>
      </trkpt>
      <trkpt lat="43.88408" lon="7.23925">
        <ele>363</ele>
        <time>2016-05-15T10:01:27.000Z</time>
      </trkpt>
      <trkpt lat="43.88407" lon="7.23922">
        <ele>363</ele>
        <time>2016-05-15T10:01:28.000Z</time>
      </trkpt>
      <trkpt lat="43.88406" lon="7.23913">
        <ele>366</ele>
        <time>2016-05-15T10:01:30.000Z</time>
      </trkpt>
      <trkpt lat="43.88405" lon="7.2391">
        <ele>364</ele>
        <time>2016-05-15T10:01:31.000Z</time>
      </trkpt>
      <trkpt lat="43.88404" lon="7.23907">
        <ele>363</ele>
        <time>2016-05-15T10:01:32.000Z</time>
      </trkpt>
      <trkpt lat="43.88402" lon="7.23899">
        <ele>361</ele>
        <time>2016-05-15T10:01:34.000Z</time>
      </trkpt>
      <trkpt lat="43.884" lon="7.23888">
        <ele>358</ele>
        <time>2016-05-15T10:01:37.000Z</time>
      </trkpt>
      <trkpt lat="43.884" lon="7.23888">
        <ele>358</ele>
        <time>2016-05-15T10:01:38.000Z</time>
      </trkpt>
      <trkpt lat="43.88399" lon="7.23889">
        <ele>358</ele>
        <time>2016-05-15T10:01:39.000Z</time>
      </trkpt>
      <trkpt lat="43.88398" lon="7.2389">
        <ele>358</ele>
        <time>2016-05-15T10:01:40.000Z</time>
      </trkpt>
      <trkpt lat="43.88396" lon="7.23896">
        <ele>358</ele>
        <time>2016-05-15T10:01:42.000Z</time>
      </trkpt>
      <trkpt lat="43.88393" lon="7.23905">
        <ele>358</ele>
        <time>2016-05-15T10:01:45.000Z</time>
      </trkpt>
      <trkpt lat="43.88393" lon="7.23907">
        <ele>358</ele>
        <time>2016-05-15T10:01:46.000Z</time>
      </trkpt>
      <trkpt lat="43.88392" lon="7.23909">
        <ele>358</ele>
        <time>2016-05-15T10:01:48.000Z</time>
      </trkpt>
      <trkpt lat="43.88391" lon="7.23909">
        <ele>358</ele>
        <time>2016-05-15T10:01:49.000Z</time>
      </trkpt>
      <trkpt lat="43.88389" lon="7.23904">
        <ele>356</ele>
        <time>2016-05-15T10:01:51.000Z</time>
      </trkpt>
      <trkpt lat="43.88388" lon="7.239">
        <ele>356</ele>
        <time>2016-05-15T10:01:53.000Z</time>
      </trkpt>
      <trkpt lat="43.88388" lon="7.23893">
        <ele>355</ele>
        <time>2016-05-15T10:01:55.000Z</time>
      </trkpt>
      <trkpt lat="43.88388" lon="7.23889">
        <ele>355</ele>
        <time>2016-05-15T10:01:56.000Z</time>
      </trkpt>
      <trkpt lat="43.88388" lon="7.23885">
        <ele>355</ele>
        <time>2016-05-15T10:01:57.000Z</time>
      </trkpt>
      <trkpt lat="43.88389" lon="7.23878">
        <ele>355</ele>
        <time>2016-05-15T10:01:59.000Z</time>
      </trkpt>
      <trkpt lat="43.88388" lon="7.23871">
        <ele>355</ele>
        <time>2016-05-15T10:02:01.000Z</time>
      </trkpt>
      <trkpt lat="43.88386" lon="7.23863">
        <ele>355</ele>
        <time>2016-05-15T10:02:03.000Z</time>
      </trkpt>
      <trkpt lat="43.88384" lon="7.23858">
        <ele>354</ele>
        <time>2016-05-15T10:02:04.000Z</time>
      </trkpt>
      <trkpt lat="43.88379" lon="7.23851">
        <ele>353</ele>
        <time>2016-05-15T10:02:06.000Z</time>
      </trkpt>
      <trkpt lat="43.88375" lon="7.23843">
        <ele>352</ele>
        <time>2016-05-15T10:02:08.000Z</time>
      </trkpt>
      <trkpt lat="43.88369" lon="7.23828">
        <ele>352</ele>
        <time>2016-05-15T10:02:11.000Z</time>
      </trkpt>
      <trkpt lat="43.88363" lon="7.23817">
        <ele>350</ele>
        <time>2016-05-15T10:02:13.000Z</time>
      </trkpt>
      <trkpt lat="43.88359" lon="7.23805">
        <ele>350</ele>
        <time>2016-05-15T10:02:15.000Z</time>
      </trkpt>
      <trkpt lat="43.88357" lon="7.23799">
        <ele>350</ele>
        <time>2016-05-15T10:02:16.000Z</time>
      </trkpt>
      <trkpt lat="43.88353" lon="7.23788">
        <ele>350</ele>
        <time>2016-05-15T10:02:18.000Z</time>
      </trkpt>
      <trkpt lat="43.88348" lon="7.23775">
        <ele>348</ele>
        <time>2016-05-15T10:02:20.000Z</time>
      </trkpt>
      <trkpt lat="43.88343" lon="7.23762">
        <ele>345</ele>
        <time>2016-05-15T10:02:22.000Z</time>
      </trkpt>
      <trkpt lat="43.8834" lon="7.23758">
        <ele>343</ele>
        <time>2016-05-15T10:02:23.000Z</time>
      </trkpt>
      <trkpt lat="43.88328" lon="7.23734">
        <ele>331</ele>
        <time>2016-05-15T10:02:27.000Z</time>
      </trkpt>
      <trkpt lat="43.88326" lon="7.23727">
        <ele>329</ele>
        <time>2016-05-15T10:02:28.000Z</time>
      </trkpt>
      <trkpt lat="43.88325" lon="7.23721">
        <ele>329</ele>
        <time>2016-05-15T10:02:29.000Z</time>
      </trkpt>
      <trkpt lat="43.88323" lon="7.23712">
        <ele>329</ele>
        <time>2016-05-15T10:02:31.000Z</time>
      </trkpt>
      <trkpt lat="43.88322" lon="7.23705">
        <ele>330</ele>
        <time>2016-05-15T10:02:33.000Z</time>
      </trkpt>
      <trkpt lat="43.88321" lon="7.23701">
        <ele>330</ele>
        <time>2016-05-15T10:02:34.000Z</time>
      </trkpt>
      <trkpt lat="43.88311" lon="7.23678">
        <ele>332</ele>
        <time>2016-05-15T10:02:40.000Z</time>
      </trkpt>
      <trkpt lat="43.8831" lon="7.23674">
        <ele>333</ele>
        <time>2016-05-15T10:02:41.000Z</time>
      </trkpt>
      <trkpt lat="43.88308" lon="7.23672">
        <ele>332</ele>
        <time>2016-05-15T10:02:42.000Z</time>
      </trkpt>
      <trkpt lat="43.88303" lon="7.23666">
        <ele>338</ele>
        <time>2016-05-15T10:02:44.000Z</time>
      </trkpt>
      <trkpt lat="43.88299" lon="7.23657">
        <ele>337</ele>
        <time>2016-05-15T10:02:46.000Z</time>
      </trkpt>
      <trkpt lat="43.88296" lon="7.23647">
        <ele>336</ele>
        <time>2016-05-15T10:02:48.000Z</time>
      </trkpt>
      <trkpt lat="43.88296" lon="7.23638">
        <ele>336</ele>
        <time>2016-05-15T10:02:50.000Z</time>
      </trkpt>
      <trkpt lat="43.88299" lon="7.23621">
        <ele>338</ele>
        <time>2016-05-15T10:02:54.000Z</time>
      </trkpt>
      <trkpt lat="43.88297" lon="7.23618">
        <ele>338</ele>
        <time>2016-05-15T10:02:55.000Z</time>
      </trkpt>
      <trkpt lat="43.88296" lon="7.23616">
        <ele>338</ele>
        <time>2016-05-15T10:02:56.000Z</time>
      </trkpt>
      <trkpt lat="43.88297" lon="7.23614">
        <ele>338</ele>
        <time>2016-05-15T10:02:57.000Z</time>
      </trkpt>
      <trkpt lat="43.88294" lon="7.23606">
        <ele>338</ele>
        <time>2016-05-15T10:03:01.000Z</time>
      </trkpt>
      <trkpt lat="43.88294" lon="7.23605">
        <ele>338</ele>
        <time>2016-05-15T10:03:02.000Z</time>
      </trkpt>
      <trkpt lat="43.88292" lon="7.23602">
        <ele>338</ele>
        <time>2016-05-15T10:03:03.000Z</time>
      </trkpt>
      <trkpt lat="43.8829" lon="7.236">
        <ele>337</ele>
        <time>2016-05-15T10:03:05.000Z</time>
      </trkpt>
      <trkpt lat="43.88287" lon="7.23597">
        <ele>337</ele>
        <time>2016-05-15T10:03:06.000Z</time>
      </trkpt>
      <trkpt lat="43.88283" lon="7.23593">
        <ele>336</ele>
        <time>2016-05-15T10:03:08.000Z</time>
      </trkpt>
      <trkpt lat="43.88278" lon="7.2359">
        <ele>335</ele>
        <time>2016-05-15T10:03:09.000Z</time>
      </trkpt>
      <trkpt lat="43.88274" lon="7.23586">
        <ele>334</ele>
        <time>2016-05-15T10:03:10.000Z</time>
      </trkpt>
      <trkpt lat="43.8827" lon="7.23581">
        <ele>334</ele>
        <time>2016-05-15T10:03:11.000Z</time>
      </trkpt>
      <trkpt lat="43.88267" lon="7.23577">
        <ele>333</ele>
        <time>2016-05-15T10:03:12.000Z</time>
      </trkpt>
      <trkpt lat="43.88256" lon="7.23569">
        <ele>332</ele>
        <time>2016-05-15T10:03:15.000Z</time>
      </trkpt>
      <trkpt lat="43.88247" lon="7.23561">
        <ele>320</ele>
        <time>2016-05-15T10:03:17.000Z</time>
      </trkpt>
      <trkpt lat="43.88232" lon="7.23547">
        <ele>316</ele>
        <time>2016-05-15T10:03:20.000Z</time>
      </trkpt>
      <trkpt lat="43.88229" lon="7.23541">
        <ele>316</ele>
        <time>2016-05-15T10:03:21.000Z</time>
      </trkpt>
      <trkpt lat="43.88227" lon="7.23535">
        <ele>316</ele>
        <time>2016-05-15T10:03:22.000Z</time>
      </trkpt>
      <trkpt lat="43.88226" lon="7.23531">
        <ele>315</ele>
        <time>2016-05-15T10:03:23.000Z</time>
      </trkpt>
      <trkpt lat="43.88223" lon="7.23527">
        <ele>315</ele>
        <time>2016-05-15T10:03:24.000Z</time>
      </trkpt>
      <trkpt lat="43.88219" lon="7.23522">
        <ele>315</ele>
        <time>2016-05-15T10:03:26.000Z</time>
      </trkpt>
      <trkpt lat="43.88217" lon="7.2352">
        <ele>314</ele>
        <time>2016-05-15T10:03:27.000Z</time>
      </trkpt>
      <trkpt lat="43.88215" lon="7.23518">
        <ele>314</ele>
        <time>2016-05-15T10:03:28.000Z</time>
      </trkpt>
      <trkpt lat="43.88208" lon="7.23517">
        <ele>313</ele>
        <time>2016-05-15T10:03:30.000Z</time>
      </trkpt>
      <trkpt lat="43.88205" lon="7.23515">
        <ele>312</ele>
        <time>2016-05-15T10:03:31.000Z</time>
      </trkpt>
      <trkpt lat="43.88202" lon="7.23513">
        <ele>312</ele>
        <time>2016-05-15T10:03:32.000Z</time>
      </trkpt>
      <trkpt lat="43.88197" lon="7.23505">
        <ele>311</ele>
        <time>2016-05-15T10:03:34.000Z</time>
      </trkpt>
      <trkpt lat="43.88197" lon="7.23502">
        <ele>311</ele>
        <time>2016-05-15T10:03:35.000Z</time>
      </trkpt>
      <trkpt lat="43.88194" lon="7.23492">
        <ele>304</ele>
        <time>2016-05-15T10:03:36.000Z</time>
      </trkpt>
      <trkpt lat="43.88192" lon="7.23486">
        <ele>303</ele>
        <time>2016-05-15T10:03:37.000Z</time>
      </trkpt>
      <trkpt lat="43.8819" lon="7.23481">
        <ele>303</ele>
        <time>2016-05-15T10:03:38.000Z</time>
      </trkpt>
      <trkpt lat="43.88187" lon="7.23467">
        <ele>301</ele>
        <time>2016-05-15T10:03:41.000Z</time>
      </trkpt>
      <trkpt lat="43.88188" lon="7.23461">
        <ele>300</ele>
        <time>2016-05-15T10:03:42.000Z</time>
      </trkpt>
      <trkpt lat="43.88189" lon="7.23458">
        <ele>300</ele>
        <time>2016-05-15T10:03:43.000Z</time>
      </trkpt>
      <trkpt lat="43.88191" lon="7.23455">
        <ele>300</ele>
        <time>2016-05-15T10:03:44.000Z</time>
      </trkpt>
      <trkpt lat="43.88192" lon="7.23453">
        <ele>300</ele>
        <time>2016-05-15T10:03:45.000Z</time>
      </trkpt>
      <trkpt lat="43.88191" lon="7.23452">
        <ele>299</ele>
        <time>2016-05-15T10:03:46.000Z</time>
      </trkpt>
      <trkpt lat="43.88189" lon="7.23452">
        <ele>299</ele>
        <time>2016-05-15T10:03:47.000Z</time>
      </trkpt>
      <trkpt lat="43.88187" lon="7.23453">
        <ele>299</ele>
        <time>2016-05-15T10:03:48.000Z</time>
      </trkpt>
      <trkpt lat="43.88182" lon="7.23456">
        <ele>299</ele>
        <time>2016-05-15T10:03:50.000Z</time>
      </trkpt>
      <trkpt lat="43.8818" lon="7.23457">
        <ele>299</ele>
        <time>2016-05-15T10:03:51.000Z</time>
      </trkpt>
      <trkpt lat="43.88178" lon="7.23457">
        <ele>299</ele>
        <time>2016-05-15T10:03:52.000Z</time>
      </trkpt>
      <trkpt lat="43.88178" lon="7.23454">
        <ele>299</ele>
        <time>2016-05-15T10:03:54.000Z</time>
      </trkpt>
      <trkpt lat="43.88185" lon="7.23444">
        <ele>298</ele>
        <time>2016-05-15T10:03:58.000Z</time>
      </trkpt>
      <trkpt lat="43.88186" lon="7.23438">
        <ele>297</ele>
        <time>2016-05-15T10:04:00.000Z</time>
      </trkpt>
      <trkpt lat="43.88185" lon="7.23435">
        <ele>296</ele>
        <time>2016-05-15T10:04:01.000Z</time>
      </trkpt>
      <trkpt lat="43.88182" lon="7.23434">
        <ele>295</ele>
        <time>2016-05-15T10:04:02.000Z</time>
      </trkpt>
      <trkpt lat="43.88179" lon="7.23434">
        <ele>295</ele>
        <time>2016-05-15T10:04:03.000Z</time>
      </trkpt>
      <trkpt lat="43.88169" lon="7.23431">
        <ele>292</ele>
        <time>2016-05-15T10:04:05.000Z</time>
      </trkpt>
      <trkpt lat="43.88163" lon="7.23428">
        <ele>285</ele>
        <time>2016-05-15T10:04:06.000Z</time>
      </trkpt>
      <trkpt lat="43.88158" lon="7.23426">
        <ele>284</ele>
        <time>2016-05-15T10:04:07.000Z</time>
      </trkpt>
      <trkpt lat="43.88147" lon="7.23422">
        <ele>284</ele>
        <time>2016-05-15T10:04:09.000Z</time>
      </trkpt>
      <trkpt lat="43.88141" lon="7.2342">
        <ele>283</ele>
        <time>2016-05-15T10:04:10.000Z</time>
      </trkpt>
      <trkpt lat="43.88137" lon="7.23419">
        <ele>282</ele>
        <time>2016-05-15T10:04:11.000Z</time>
      </trkpt>
      <trkpt lat="43.88127" lon="7.23416">
        <ele>271</ele>
        <time>2016-05-15T10:04:13.000Z</time>
      </trkpt>
      <trkpt lat="43.88123" lon="7.23415">
        <ele>270</ele>
        <time>2016-05-15T10:04:14.000Z</time>
      </trkpt>
      <trkpt lat="43.88118" lon="7.23414">
        <ele>269</ele>
        <time>2016-05-15T10:04:15.000Z</time>
      </trkpt>
      <trkpt lat="43.88114" lon="7.23416">
        <ele>269</ele>
        <time>2016-05-15T10:04:16.000Z</time>
      </trkpt>
      <trkpt lat="43.8811" lon="7.23418">
        <ele>278</ele>
        <time>2016-05-15T10:04:17.000Z</time>
      </trkpt>
      <trkpt lat="43.88105" lon="7.23425">
        <ele>277</ele>
        <time>2016-05-15T10:04:19.000Z</time>
      </trkpt>
      <trkpt lat="43.88103" lon="7.2343">
        <ele>277</ele>
        <time>2016-05-15T10:04:20.000Z</time>
      </trkpt>
      <trkpt lat="43.88102" lon="7.23432">
        <ele>277</ele>
        <time>2016-05-15T10:04:21.000Z</time>
      </trkpt>
      <trkpt lat="43.881" lon="7.23433">
        <ele>277</ele>
        <time>2016-05-15T10:04:22.000Z</time>
      </trkpt>
      <trkpt lat="43.88099" lon="7.23431">
        <ele>276</ele>
        <time>2016-05-15T10:04:23.000Z</time>
      </trkpt>
      <trkpt lat="43.88104" lon="7.23419">
        <ele>276</ele>
        <time>2016-05-15T10:04:26.000Z</time>
      </trkpt>
      <trkpt lat="43.88107" lon="7.23413">
        <ele>268</ele>
        <time>2016-05-15T10:04:27.000Z</time>
      </trkpt>
      <trkpt lat="43.8811" lon="7.23409">
        <ele>268</ele>
        <time>2016-05-15T10:04:28.000Z</time>
      </trkpt>
      <trkpt lat="43.88112" lon="7.23402">
        <ele>268</ele>
        <time>2016-05-15T10:04:30.000Z</time>
      </trkpt>
      <trkpt lat="43.8811" lon="7.23401">
        <ele>268</ele>
        <time>2016-05-15T10:04:32.000Z</time>
      </trkpt>
      <trkpt lat="43.88108" lon="7.23401">
        <ele>268</ele>
        <time>2016-05-15T10:04:33.000Z</time>
      </trkpt>
      <trkpt lat="43.88107" lon="7.23402">
        <ele>268</ele>
        <time>2016-05-15T10:04:34.000Z</time>
      </trkpt>
      <trkpt lat="43.88102" lon="7.23403">
        <ele>267</ele>
        <time>2016-05-15T10:04:37.000Z</time>
      </trkpt>
      <trkpt lat="43.88101" lon="7.23403">
        <ele>267</ele>
        <time>2016-05-15T10:04:39.000Z</time>
      </trkpt>
      <trkpt lat="43.88101" lon="7.23403">
        <ele>267</ele>
        <time>2016-05-15T10:04:41.000Z</time>
      </trkpt>
      <trkpt lat="43.881" lon="7.23402">
        <ele>267</ele>
        <time>2016-05-15T10:04:43.000Z</time>
      </trkpt>
      <trkpt lat="43.88099" lon="7.23398">
        <ele>267</ele>
        <time>2016-05-15T10:04:45.000Z</time>
      </trkpt>
      <trkpt lat="43.88105" lon="7.23392">
        <ele>267</ele>
        <time>2016-05-15T10:04:49.000Z</time>
      </trkpt>
      <trkpt lat="43.88107" lon="7.23392">
        <ele>267</ele>
        <time>2016-05-15T10:04:51.000Z</time>
      </trkpt>
      <trkpt lat="43.88107" lon="7.23391">
        <ele>267</ele>
        <time>2016-05-15T10:04:52.000Z</time>
      </trkpt>
      <trkpt lat="43.88107" lon="7.23391">
        <ele>267</ele>
        <time>2016-05-15T10:04:53.000Z</time>
      </trkpt>
      <trkpt lat="43.88104" lon="7.23388">
        <ele>266</ele>
        <time>2016-05-15T10:04:59.000Z</time>
      </trkpt>
      <trkpt lat="43.88104" lon="7.23387">
        <ele>266</ele>
        <time>2016-05-15T10:05:00.000Z</time>
      </trkpt>
      <trkpt lat="43.88104" lon="7.23384">
        <ele>266</ele>
        <time>2016-05-15T10:05:03.000Z</time>
      </trkpt>
      <trkpt lat="43.88104" lon="7.23384">
        <ele>266</ele>
        <time>2016-05-15T10:05:04.000Z</time>
      </trkpt>
      <trkpt lat="43.88106" lon="7.23384">
        <ele>266</ele>
        <time>2016-05-15T10:05:06.000Z</time>
      </trkpt>
      <trkpt lat="43.88106" lon="7.23384">
        <ele>266</ele>
        <time>2016-05-15T10:05:07.000Z</time>
      </trkpt>
      <trkpt lat="43.88107" lon="7.23383">
        <ele>266</ele>
        <time>2016-05-15T10:05:08.000Z</time>
      </trkpt>
      <trkpt lat="43.88107" lon="7.23381">
        <ele>266</ele>
        <time>2016-05-15T10:05:11.000Z</time>
      </trkpt>
      <trkpt lat="43.88101" lon="7.23378">
        <ele>265</ele>
        <time>2016-05-15T10:05:16.000Z</time>
      </trkpt>
      <trkpt lat="43.88096" lon="7.23375">
        <ele>264</ele>
        <time>2016-05-15T10:05:18.000Z</time>
      </trkpt>
      <trkpt lat="43.88091" lon="7.23374">
        <ele>264</ele>
        <time>2016-05-15T10:05:20.000Z</time>
      </trkpt>
      <trkpt lat="43.88088" lon="7.23367">
        <ele>262</ele>
        <time>2016-05-15T10:05:22.000Z</time>
      </trkpt>
      <trkpt lat="43.88089" lon="7.23363">
        <ele>262</ele>
        <time>2016-05-15T10:05:23.000Z</time>
      </trkpt>
      <trkpt lat="43.88093" lon="7.23359">
        <ele>261</ele>
        <time>2016-05-15T10:05:25.000Z</time>
      </trkpt>
      <trkpt lat="43.88095" lon="7.23359">
        <ele>261</ele>
        <time>2016-05-15T10:05:26.000Z</time>
      </trkpt>
      <trkpt lat="43.88097" lon="7.23359">
        <ele>261</ele>
        <time>2016-05-15T10:05:27.000Z</time>
      </trkpt>
      <trkpt lat="43.88098" lon="7.23358">
        <ele>261</ele>
        <time>2016-05-15T10:05:30.000Z</time>
      </trkpt>
      <trkpt lat="43.88103" lon="7.23354">
        <ele>261</ele>
        <time>2016-05-15T10:05:36.000Z</time>
      </trkpt>
      <trkpt lat="43.88107" lon="7.23352">
        <ele>262</ele>
        <time>2016-05-15T10:05:38.000Z</time>
      </trkpt>
      <trkpt lat="43.88113" lon="7.23347">
        <ele>262</ele>
        <time>2016-05-15T10:05:41.000Z</time>
      </trkpt>
      <trkpt lat="43.88117" lon="7.23346">
        <ele>263</ele>
        <time>2016-05-15T10:05:42.000Z</time>
      </trkpt>
      <trkpt lat="43.88121" lon="7.23344">
        <ele>263</ele>
        <time>2016-05-15T10:05:43.000Z</time>
      </trkpt>
      <trkpt lat="43.88124" lon="7.23344">
        <ele>264</ele>
        <time>2016-05-15T10:05:44.000Z</time>
      </trkpt>
      <trkpt lat="43.88127" lon="7.23344">
        <ele>264</ele>
        <time>2016-05-15T10:05:45.000Z</time>
      </trkpt>
      <trkpt lat="43.88132" lon="7.23343">
        <ele>265</ele>
        <time>2016-05-15T10:05:47.000Z</time>
      </trkpt>
      <trkpt lat="43.88134" lon="7.23342">
        <ele>265</ele>
        <time>2016-05-15T10:05:48.000Z</time>
      </trkpt>
      <trkpt lat="43.88135" lon="7.23341">
        <ele>265</ele>
        <time>2016-05-15T10:05:49.000Z</time>
      </trkpt>
      <trkpt lat="43.88136" lon="7.23339">
        <ele>265</ele>
        <time>2016-05-15T10:05:50.000Z</time>
      </trkpt>
      <trkpt lat="43.88137" lon="7.23338">
        <ele>265</ele>
        <time>2016-05-15T10:05:51.000Z</time>
      </trkpt>
      <trkpt lat="43.88139" lon="7.23337">
        <ele>266</ele>
        <time>2016-05-15T10:05:53.000Z</time>
      </trkpt>
      <trkpt lat="43.88143" lon="7.23331">
        <ele>265</ele>
        <time>2016-05-15T10:05:58.000Z</time>
      </trkpt>
      <trkpt lat="43.88143" lon="7.23327">
        <ele>265</ele>
        <time>2016-05-15T10:06:00.000Z</time>
      </trkpt>
      <trkpt lat="43.88142" lon="7.23322">
        <ele>265</ele>
        <time>2016-05-15T10:06:02.000Z</time>
      </trkpt>
      <trkpt lat="43.88139" lon="7.23322">
        <ele>265</ele>
        <time>2016-05-15T10:06:03.000Z</time>
      </trkpt>
      <trkpt lat="43.88134" lon="7.2332">
        <ele>264</ele>
        <time>2016-05-15T10:06:05.000Z</time>
      </trkpt>
      <trkpt lat="43.88126" lon="7.23316">
        <ele>263</ele>
        <time>2016-05-15T10:06:07.000Z</time>
      </trkpt>
      <trkpt lat="43.88118" lon="7.23312">
        <ele>262</ele>
        <time>2016-05-15T10:06:09.000Z</time>
      </trkpt>
      <trkpt lat="43.88113" lon="7.2331">
        <ele>262</ele>
        <time>2016-05-15T10:06:10.000Z</time>
      </trkpt>
      <trkpt lat="43.88104" lon="7.23305">
        <ele>261</ele>
        <time>2016-05-15T10:06:12.000Z</time>
      </trkpt>
      <trkpt lat="43.88097" lon="7.23296">
        <ele>261</ele>
        <time>2016-05-15T10:06:14.000Z</time>
      </trkpt>
      <trkpt lat="43.88087" lon="7.23284">
        <ele>260</ele>
        <time>2016-05-15T10:06:19.000Z</time>
      </trkpt>
      <trkpt lat="43.88086" lon="7.23283">
        <ele>260</ele>
        <time>2016-05-15T10:06:23.000Z</time>
      </trkpt>
      <trkpt lat="43.88084" lon="7.23282">
        <ele>260</ele>
        <time>2016-05-15T10:06:29.000Z</time>
      </trkpt>
      <trkpt lat="43.88083" lon="7.23281">
        <ele>243</ele>
        <time>2016-05-15T10:06:31.000Z</time>
      </trkpt>
      <trkpt lat="43.88079" lon="7.2328">
        <ele>243</ele>
        <time>2016-05-15T10:06:33.000Z</time>
      </trkpt>
      <trkpt lat="43.88076" lon="7.23279">
        <ele>243</ele>
        <time>2016-05-15T10:06:34.000Z</time>
      </trkpt>
      <trkpt lat="43.88064" lon="7.23279">
        <ele>241</ele>
        <time>2016-05-15T10:06:37.000Z</time>
      </trkpt>
      <trkpt lat="43.88055" lon="7.2328">
        <ele>240</ele>
        <time>2016-05-15T10:06:39.000Z</time>
      </trkpt>
      <trkpt lat="43.88047" lon="7.23284">
        <ele>238</ele>
        <time>2016-05-15T10:06:41.000Z</time>
      </trkpt>
      <trkpt lat="43.88042" lon="7.23286">
        <ele>237</ele>
        <time>2016-05-15T10:06:42.000Z</time>
      </trkpt>
      <trkpt lat="43.88037" lon="7.23287">
        <ele>236</ele>
        <time>2016-05-15T10:06:43.000Z</time>
      </trkpt>
      <trkpt lat="43.88028" lon="7.23283">
        <ele>235</ele>
        <time>2016-05-15T10:06:45.000Z</time>
      </trkpt>
      <trkpt lat="43.88023" lon="7.23276">
        <ele>234</ele>
        <time>2016-05-15T10:06:47.000Z</time>
      </trkpt>
      <trkpt lat="43.88021" lon="7.23273">
        <ele>234</ele>
        <time>2016-05-15T10:06:48.000Z</time>
      </trkpt>
      <trkpt lat="43.88019" lon="7.23271">
        <ele>233</ele>
        <time>2016-05-15T10:06:49.000Z</time>
      </trkpt>
      <trkpt lat="43.88015" lon="7.23269">
        <ele>232</ele>
        <time>2016-05-15T10:06:50.000Z</time>
      </trkpt>
      <trkpt lat="43.8801" lon="7.23267">
        <ele>231</ele>
        <time>2016-05-15T10:06:51.000Z</time>
      </trkpt>
      <trkpt lat="43.88004" lon="7.23264">
        <ele>230</ele>
        <time>2016-05-15T10:06:52.000Z</time>
      </trkpt>
      <trkpt lat="43.87994" lon="7.23259">
        <ele>218</ele>
        <time>2016-05-15T10:06:54.000Z</time>
      </trkpt>
      <trkpt lat="43.87989" lon="7.23259">
        <ele>217</ele>
        <time>2016-05-15T10:06:55.000Z</time>
      </trkpt>
      <trkpt lat="43.87983" lon="7.23265">
        <ele>214</ele>
        <time>2016-05-15T10:06:57.000Z</time>
      </trkpt>
      <trkpt lat="43.87982" lon="7.23267">
        <ele>213</ele>
        <time>2016-05-15T10:06:58.000Z</time>
      </trkpt>
      <trkpt lat="43.8798" lon="7.2327">
        <ele>212</ele>
        <time>2016-05-15T10:06:59.000Z</time>
      </trkpt>
      <trkpt lat="43.87977" lon="7.23273">
        <ele>211</ele>
        <time>2016-05-15T10:07:01.000Z</time>
      </trkpt>
      <trkpt lat="43.87976" lon="7.23275">
        <ele>211</ele>
        <time>2016-05-15T10:07:03.000Z</time>
      </trkpt>
      <trkpt lat="43.87976" lon="7.23275">
        <ele>211</ele>
        <time>2016-05-15T10:07:05.000Z</time>
      </trkpt>
      <trkpt lat="43.87975" lon="7.23276">
        <ele>210</ele>
        <time>2016-05-15T10:07:07.000Z</time>
      </trkpt>
      <trkpt lat="43.87974" lon="7.23282">
        <ele>210</ele>
        <time>2016-05-15T10:07:10.000Z</time>
      </trkpt>
      <trkpt lat="43.87972" lon="7.23279">
        <ele>209</ele>
        <time>2016-05-15T10:07:13.000Z</time>
      </trkpt>
      <trkpt lat="43.87971" lon="7.23275">
        <ele>209</ele>
        <time>2016-05-15T10:07:14.000Z</time>
      </trkpt>
      <trkpt lat="43.87968" lon="7.23267">
        <ele>209</ele>
        <time>2016-05-15T10:07:16.000Z</time>
      </trkpt>
      <trkpt lat="43.87965" lon="7.23258">
        <ele>209</ele>
        <time>2016-05-15T10:07:18.000Z</time>
      </trkpt>
      <trkpt lat="43.87963" lon="7.23252">
        <ele>208</ele>
        <time>2016-05-15T10:07:19.000Z</time>
      </trkpt>
      <trkpt lat="43.87961" lon="7.23245">
        <ele>210</ele>
        <time>2016-05-15T10:07:20.000Z</time>
      </trkpt>
      <trkpt lat="43.8796" lon="7.23235">
        <ele>210</ele>
        <time>2016-05-15T10:07:22.000Z</time>
      </trkpt>
      <trkpt lat="43.87959" lon="7.23233">
        <ele>209</ele>
        <time>2016-05-15T10:07:23.000Z</time>
      </trkpt>
      <trkpt lat="43.87956" lon="7.23223">
        <ele>209</ele>
        <time>2016-05-15T10:07:27.000Z</time>
      </trkpt>
      <trkpt lat="43.87954" lon="7.23218">
        <ele>208</ele>
        <time>2016-05-15T10:07:28.000Z</time>
      </trkpt>
      <trkpt lat="43.87952" lon="7.23206">
        <ele>208</ele>
        <time>2016-05-15T10:07:30.000Z</time>
      </trkpt>
      <trkpt lat="43.87951" lon="7.23196">
        <ele>208</ele>
        <time>2016-05-15T10:07:33.000Z</time>
      </trkpt>
      <trkpt lat="43.87947" lon="7.23181">
        <ele>206</ele>
        <time>2016-05-15T10:07:37.000Z</time>
      </trkpt>
      <trkpt lat="43.87946" lon="7.23175">
        <ele>206</ele>
        <time>2016-05-15T10:07:38.000Z</time>
      </trkpt>
      <trkpt lat="43.87945" lon="7.23169">
        <ele>205</ele>
        <time>2016-05-15T10:07:39.000Z</time>
      </trkpt>
      <trkpt lat="43.87944" lon="7.23158">
        <ele>205</ele>
        <time>2016-05-15T10:07:41.000Z</time>
      </trkpt>
      <trkpt lat="43.87944" lon="7.23152">
        <ele>206</ele>
        <time>2016-05-15T10:07:42.000Z</time>
      </trkpt>
      <trkpt lat="43.87942" lon="7.23141">
        <ele>206</ele>
        <time>2016-05-15T10:07:45.000Z</time>
      </trkpt>
      <trkpt lat="43.87941" lon="7.23137">
        <ele>206</ele>
        <time>2016-05-15T10:07:46.000Z</time>
      </trkpt>
      <trkpt lat="43.8794" lon="7.23131">
        <ele>206</ele>
        <time>2016-05-15T10:07:48.000Z</time>
      </trkpt>
      <trkpt lat="43.87937" lon="7.23124">
        <ele>206</ele>
        <time>2016-05-15T10:07:50.000Z</time>
      </trkpt>
      <trkpt lat="43.87938" lon="7.23121">
        <ele>206</ele>
        <time>2016-05-15T10:07:51.000Z</time>
      </trkpt>
      <trkpt lat="43.87938" lon="7.23118">
        <ele>206</ele>
        <time>2016-05-15T10:07:52.000Z</time>
      </trkpt>
      <trkpt lat="43.87945" lon="7.23104">
        <ele>207</ele>
        <time>2016-05-15T10:07:57.000Z</time>
      </trkpt>
      <trkpt lat="43.87949" lon="7.23101">
        <ele>208</ele>
        <time>2016-05-15T10:07:59.000Z</time>
      </trkpt>
      <trkpt lat="43.87955" lon="7.23097">
        <ele>209</ele>
        <time>2016-05-15T10:08:02.000Z</time>
      </trkpt>
      <trkpt lat="43.87958" lon="7.23096">
        <ele>209</ele>
        <time>2016-05-15T10:08:03.000Z</time>
      </trkpt>
      <trkpt lat="43.87967" lon="7.23093">
        <ele>211</ele>
        <time>2016-05-15T10:08:07.000Z</time>
      </trkpt>
      <trkpt lat="43.87977" lon="7.23091">
        <ele>214</ele>
        <time>2016-05-15T10:08:11.000Z</time>
      </trkpt>
      <trkpt lat="43.87992" lon="7.23086">
        <ele>218</ele>
        <time>2016-05-15T10:08:17.000Z</time>
      </trkpt>
      <trkpt lat="43.87997" lon="7.23085">
        <ele>220</ele>
        <time>2016-05-15T10:08:19.000Z</time>
      </trkpt>
      <trkpt lat="43.88003" lon="7.23082">
        <ele>225</ele>
        <time>2016-05-15T10:08:22.000Z</time>
      </trkpt>
      <trkpt lat="43.88004" lon="7.23079">
        <ele>226</ele>
        <time>2016-05-15T10:08:24.000Z</time>
      </trkpt>
      <trkpt lat="43.88005" lon="7.23074">
        <ele>229</ele>
        <time>2016-05-15T10:08:28.000Z</time>
      </trkpt>
      <trkpt lat="43.88004" lon="7.23072">
        <ele>230</ele>
        <time>2016-05-15T10:08:29.000Z</time>
      </trkpt>
      <trkpt lat="43.88001" lon="7.2307">
        <ele>230</ele>
        <time>2016-05-15T10:08:30.000Z</time>
      </trkpt>
      <trkpt lat="43.87998" lon="7.23069">
        <ele>220</ele>
        <time>2016-05-15T10:08:31.000Z</time>
      </trkpt>
      <trkpt lat="43.8799" lon="7.23067">
        <ele>219</ele>
        <time>2016-05-15T10:08:33.000Z</time>
      </trkpt>
      <trkpt lat="43.87985" lon="7.23064">
        <ele>218</ele>
        <time>2016-05-15T10:08:34.000Z</time>
      </trkpt>
      <trkpt lat="43.87981" lon="7.23062">
        <ele>218</ele>
        <time>2016-05-15T10:08:35.000Z</time>
      </trkpt>
      <trkpt lat="43.87969" lon="7.23056">
        <ele>216</ele>
        <time>2016-05-15T10:08:37.000Z</time>
      </trkpt>
      <trkpt lat="43.87963" lon="7.23054">
        <ele>215</ele>
        <time>2016-05-15T10:08:38.000Z</time>
      </trkpt>
      <trkpt lat="43.87951" lon="7.23054">
        <ele>213</ele>
        <time>2016-05-15T10:08:40.000Z</time>
      </trkpt>
      <trkpt lat="43.87939" lon="7.23053">
        <ele>211</ele>
        <time>2016-05-15T10:08:43.000Z</time>
      </trkpt>
      <trkpt lat="43.87937" lon="7.23053">
        <ele>211</ele>
        <time>2016-05-15T10:08:44.000Z</time>
      </trkpt>
      <trkpt lat="43.87934" lon="7.23058">
        <ele>209</ele>
        <time>2016-05-15T10:08:46.000Z</time>
      </trkpt>
      <trkpt lat="43.87932" lon="7.2306">
        <ele>209</ele>
        <time>2016-05-15T10:08:47.000Z</time>
      </trkpt>
      <trkpt lat="43.87927" lon="7.23063">
        <ele>207</ele>
        <time>2016-05-15T10:08:49.000Z</time>
      </trkpt>
      <trkpt lat="43.87925" lon="7.23065">
        <ele>206</ele>
        <time>2016-05-15T10:08:50.000Z</time>
      </trkpt>
      <trkpt lat="43.87923" lon="7.23068">
        <ele>205</ele>
        <time>2016-05-15T10:08:51.000Z</time>
      </trkpt>
      <trkpt lat="43.87921" lon="7.23069">
        <ele>205</ele>
        <time>2016-05-15T10:08:52.000Z</time>
      </trkpt>
      <trkpt lat="43.8792" lon="7.23071">
        <ele>204</ele>
        <time>2016-05-15T10:08:53.000Z</time>
      </trkpt>
      <trkpt lat="43.8792" lon="7.2307">
        <ele>204</ele>
        <time>2016-05-15T10:08:54.000Z</time>
      </trkpt>
      <trkpt lat="43.8792" lon="7.23071">
        <ele>204</ele>
        <time>2016-05-15T10:08:56.000Z</time>
      </trkpt>
      <trkpt lat="43.8792" lon="7.23071">
        <ele>204</ele>
        <time>2016-05-15T10:08:59.000Z</time>
      </trkpt>
      <trkpt lat="43.8792" lon="7.23071">
        <ele>204</ele>
        <time>2016-05-15T10:09:00.000Z</time>
      </trkpt>
      <trkpt lat="43.8792" lon="7.23073">
        <ele>203</ele>
        <time>2016-05-15T10:09:05.000Z</time>
      </trkpt>
      <trkpt lat="43.87921" lon="7.23074">
        <ele>203</ele>
        <time>2016-05-15T10:09:07.000Z</time>
      </trkpt>
      <trkpt lat="43.87925" lon="7.23074">
        <ele>204</ele>
        <time>2016-05-15T10:09:09.000Z</time>
      </trkpt>
      <trkpt lat="43.87928" lon="7.23075">
        <ele>205</ele>
        <time>2016-05-15T10:09:11.000Z</time>
      </trkpt>
      <trkpt lat="43.87929" lon="7.23077">
        <ele>205</ele>
        <time>2016-05-15T10:09:12.000Z</time>
      </trkpt>
      <trkpt lat="43.87928" lon="7.23079">
        <ele>204</ele>
        <time>2016-05-15T10:09:13.000Z</time>
      </trkpt>
      <trkpt lat="43.87927" lon="7.23081">
        <ele>203</ele>
        <time>2016-05-15T10:09:15.000Z</time>
      </trkpt>
      <trkpt lat="43.87925" lon="7.23084">
        <ele>201</ele>
        <time>2016-05-15T10:09:17.000Z</time>
      </trkpt>
      <trkpt lat="43.87923" lon="7.23085">
        <ele>200</ele>
        <time>2016-05-15T10:09:18.000Z</time>
      </trkpt>
      <trkpt lat="43.87922" lon="7.23086">
        <ele>200</ele>
        <time>2016-05-15T10:09:19.000Z</time>
      </trkpt>
      <trkpt lat="43.87921" lon="7.23087">
        <ele>199</ele>
        <time>2016-05-15T10:09:21.000Z</time>
      </trkpt>
      <trkpt lat="43.87919" lon="7.23088">
        <ele>199</ele>
        <time>2016-05-15T10:09:23.000Z</time>
      </trkpt>
      <trkpt lat="43.87918" lon="7.2309">
        <ele>200</ele>
        <time>2016-05-15T10:09:24.000Z</time>
      </trkpt>
      <trkpt lat="43.87918" lon="7.23092">
        <ele>200</ele>
        <time>2016-05-15T10:09:25.000Z</time>
      </trkpt>
      <trkpt lat="43.87918" lon="7.23095">
        <ele>201</ele>
        <time>2016-05-15T10:09:27.000Z</time>
      </trkpt>
      <trkpt lat="43.87917" lon="7.23097">
        <ele>202</ele>
        <time>2016-05-15T10:09:28.000Z</time>
      </trkpt>
      <trkpt lat="43.87912" lon="7.231">
        <ele>197</ele>
        <time>2016-05-15T10:09:31.000Z</time>
      </trkpt>
      <trkpt lat="43.87906" lon="7.23107">
        <ele>197</ele>
        <time>2016-05-15T10:09:34.000Z</time>
      </trkpt>
      <trkpt lat="43.87904" lon="7.23108">
        <ele>197</ele>
        <time>2016-05-15T10:09:35.000Z</time>
      </trkpt>
      <trkpt lat="43.87902" lon="7.23111">
        <ele>197</ele>
        <time>2016-05-15T10:09:37.000Z</time>
      </trkpt>
      <trkpt lat="43.87899" lon="7.23118">
        <ele>197</ele>
        <time>2016-05-15T10:09:39.000Z</time>
      </trkpt>
      <trkpt lat="43.87894" lon="7.23125">
        <ele>198</ele>
        <time>2016-05-15T10:09:42.000Z</time>
      </trkpt>
      <trkpt lat="43.87893" lon="7.23125">
        <ele>198</ele>
        <time>2016-05-15T10:09:43.000Z</time>
      </trkpt>
      <trkpt lat="43.87884" lon="7.23128">
        <ele>198</ele>
        <time>2016-05-15T10:09:47.000Z</time>
      </trkpt>
      <trkpt lat="43.8788" lon="7.2313">
        <ele>198</ele>
        <time>2016-05-15T10:09:49.000Z</time>
      </trkpt>
      <trkpt lat="43.87871" lon="7.23134">
        <ele>198</ele>
        <time>2016-05-15T10:09:54.000Z</time>
      </trkpt>
      <trkpt lat="43.87853" lon="7.23138">
        <ele>199</ele>
        <time>2016-05-15T10:10:01.000Z</time>
      </trkpt>
      <trkpt lat="43.87849" lon="7.23141">
        <ele>200</ele>
        <time>2016-05-15T10:10:03.000Z</time>
      </trkpt>
      <trkpt lat="43.87849" lon="7.23148">
        <ele>200</ele>
        <time>2016-05-15T10:10:05.000Z</time>
      </trkpt>
      <trkpt lat="43.87853" lon="7.2316">
        <ele>200</ele>
        <time>2016-05-15T10:10:10.000Z</time>
      </trkpt>
      <trkpt lat="43.87853" lon="7.23163">
        <ele>201</ele>
        <time>2016-05-15T10:10:11.000Z</time>
      </trkpt>
      <trkpt lat="43.87852" lon="7.23169">
        <ele>202</ele>
        <time>2016-05-15T10:10:15.000Z</time>
      </trkpt>
      <trkpt lat="43.87852" lon="7.2317">
        <ele>202</ele>
        <time>2016-05-15T10:10:17.000Z</time>
      </trkpt>
      <trkpt lat="43.87854" lon="7.23171">
        <ele>201</ele>
        <time>2016-05-15T10:10:22.000Z</time>
      </trkpt>
      <trkpt lat="43.87856" lon="7.23172">
        <ele>201</ele>
        <time>2016-05-15T10:10:29.000Z</time>
      </trkpt>
      <trkpt lat="43.87855" lon="7.23173">
        <ele>201</ele>
        <time>2016-05-15T10:10:37.000Z</time>
      </trkpt>
      <trkpt lat="43.87854" lon="7.23177">
        <ele>201</ele>
        <time>2016-05-15T10:10:43.000Z</time>
      </trkpt>
      <trkpt lat="43.87855" lon="7.2318">
        <ele>201</ele>
        <time>2016-05-15T10:10:47.000Z</time>
      </trkpt>
      <trkpt lat="43.87855" lon="7.23182">
        <ele>201</ele>
        <time>2016-05-15T10:10:50.000Z</time>
      </trkpt>
      <trkpt lat="43.87854" lon="7.23183">
        <ele>201</ele>
        <time>2016-05-15T10:10:52.000Z</time>
      </trkpt>
      <trkpt lat="43.87856" lon="7.23187">
        <ele>201</ele>
        <time>2016-05-15T10:10:56.000Z</time>
      </trkpt>
      <trkpt lat="43.87855" lon="7.23187">
        <ele>201</ele>
        <time>2016-05-15T10:10:59.000Z</time>
      </trkpt>
      <trkpt lat="43.87854" lon="7.23188">
        <ele>201</ele>
        <time>2016-05-15T10:11:01.000Z</time>
      </trkpt>
      <trkpt lat="43.87854" lon="7.2319">
        <ele>201</ele>
        <time>2016-05-15T10:11:03.000Z</time>
      </trkpt>
      <trkpt lat="43.87854" lon="7.23193">
        <ele>201</ele>
        <time>2016-05-15T10:11:07.000Z</time>
      </trkpt>
      <trkpt lat="43.87853" lon="7.23195">
        <ele>201</ele>
        <time>2016-05-15T10:11:09.000Z</time>
      </trkpt>
      <trkpt lat="43.87852" lon="7.23195">
        <ele>201</ele>
        <time>2016-05-15T10:11:11.000Z</time>
      </trkpt>
      <trkpt lat="43.87852" lon="7.23195">
        <ele>201</ele>
        <time>2016-05-15T10:11:12.000Z</time>
      </trkpt>
      <trkpt lat="43.87851" lon="7.23192">
        <ele>201</ele>
        <time>2016-05-15T10:11:17.000Z</time>
      </trkpt>
      <trkpt lat="43.8785" lon="7.23191">
        <ele>201</ele>
        <time>2016-05-15T10:11:18.000Z</time>
      </trkpt>
      <trkpt lat="43.87849" lon="7.23188">
        <ele>201</ele>
        <time>2016-05-15T10:11:23.000Z</time>
      </trkpt>
      <trkpt lat="43.87849" lon="7.23187">
        <ele>202</ele>
        <time>2016-05-15T10:11:24.000Z</time>
      </trkpt>
      <trkpt lat="43.87848" lon="7.23182">
        <ele>202</ele>
        <time>2016-05-15T10:11:30.000Z</time>
      </trkpt>
      <trkpt lat="43.87848" lon="7.23182">
        <ele>202</ele>
        <time>2016-05-15T10:11:31.000Z</time>
      </trkpt>
      <trkpt lat="43.87844" lon="7.23177">
        <ele>202</ele>
        <time>2016-05-15T10:11:38.000Z</time>
      </trkpt>
      <trkpt lat="43.87843" lon="7.23176">
        <ele>202</ele>
        <time>2016-05-15T10:11:40.000Z</time>
      </trkpt>
      <trkpt lat="43.87841" lon="7.23174">
        <ele>203</ele>
        <time>2016-05-15T10:11:43.000Z</time>
      </trkpt>
      <trkpt lat="43.8784" lon="7.23172">
        <ele>203</ele>
        <time>2016-05-15T10:11:46.000Z</time>
      </trkpt>
      <trkpt lat="43.87837" lon="7.23169">
        <ele>203</ele>
        <time>2016-05-15T10:11:51.000Z</time>
      </trkpt>
      <trkpt lat="43.87836" lon="7.23167">
        <ele>204</ele>
        <time>2016-05-15T10:11:53.000Z</time>
      </trkpt>
      <trkpt lat="43.87833" lon="7.23161">
        <ele>209</ele>
        <time>2016-05-15T10:11:59.000Z</time>
      </trkpt>
      <trkpt lat="43.87832" lon="7.2316">
        <ele>210</ele>
        <time>2016-05-15T10:12:01.000Z</time>
      </trkpt>
      <trkpt lat="43.8783" lon="7.23156">
        <ele>213</ele>
        <time>2016-05-15T10:12:07.000Z</time>
      </trkpt>
      <trkpt lat="43.87829" lon="7.23154">
        <ele>214</ele>
        <time>2016-05-15T10:12:09.000Z</time>
      </trkpt>
      <trkpt lat="43.87827" lon="7.23151">
        <ele>216</ele>
        <time>2016-05-15T10:12:13.000Z</time>
      </trkpt>
      <trkpt lat="43.87826" lon="7.23148">
        <ele>217</ele>
        <time>2016-05-15T10:12:16.000Z</time>
      </trkpt>
      <trkpt lat="43.87824" lon="7.23142">
        <ele>219</ele>
        <time>2016-05-15T10:12:21.000Z</time>
      </trkpt>
      <trkpt lat="43.87823" lon="7.2314">
        <ele>220</ele>
        <time>2016-05-15T10:12:23.000Z</time>
      </trkpt>
      <trkpt lat="43.87822" lon="7.23138">
        <ele>220</ele>
        <time>2016-05-15T10:12:24.000Z</time>
      </trkpt>
      <trkpt lat="43.8782" lon="7.23135">
        <ele>221</ele>
        <time>2016-05-15T10:12:28.000Z</time>
      </trkpt>
      <trkpt lat="43.87818" lon="7.23131">
        <ele>221</ele>
        <time>2016-05-15T10:12:32.000Z</time>
      </trkpt>
      <trkpt lat="43.87817" lon="7.23127">
        <ele>222</ele>
        <time>2016-05-15T10:12:36.000Z</time>
      </trkpt>
      <trkpt lat="43.87817" lon="7.23126">
        <ele>222</ele>
        <time>2016-05-15T10:12:37.000Z</time>
      </trkpt>
      <trkpt lat="43.87817" lon="7.23118">
        <ele>221</ele>
        <time>2016-05-15T10:12:44.000Z</time>
      </trkpt>
      <trkpt lat="43.87817" lon="7.23116">
        <ele>221</ele>
        <time>2016-05-15T10:12:46.000Z</time>
      </trkpt>
      <trkpt lat="43.87816" lon="7.23111">
        <ele>220</ele>
        <time>2016-05-15T10:12:50.000Z</time>
      </trkpt>
      <trkpt lat="43.87816" lon="7.23107">
        <ele>219</ele>
        <time>2016-05-15T10:12:54.000Z</time>
      </trkpt>
      <trkpt lat="43.87815" lon="7.23105">
        <ele>219</ele>
        <time>2016-05-15T10:12:56.000Z</time>
      </trkpt>
      <trkpt lat="43.87813" lon="7.23101">
        <ele>219</ele>
        <time>2016-05-15T10:13:00.000Z</time>
      </trkpt>
      <trkpt lat="43.87813" lon="7.231">
        <ele>219</ele>
        <time>2016-05-15T10:13:01.000Z</time>
      </trkpt>
      <trkpt lat="43.8781" lon="7.23096">
        <ele>219</ele>
        <time>2016-05-15T10:13:07.000Z</time>
      </trkpt>
      <trkpt lat="43.87809" lon="7.23095">
        <ele>220</ele>
        <time>2016-05-15T10:13:09.000Z</time>
      </trkpt>
      <trkpt lat="43.87805" lon="7.23094">
        <ele>222</ele>
        <time>2016-05-15T10:13:15.000Z</time>
      </trkpt>
      <trkpt lat="43.87801" lon="7.23093">
        <ele>223</ele>
        <time>2016-05-15T10:13:22.000Z</time>
      </trkpt>
      <trkpt lat="43.878" lon="7.23092">
        <ele>224</ele>
        <time>2016-05-15T10:13:24.000Z</time>
      </trkpt>
      <trkpt lat="43.87798" lon="7.2309">
        <ele>225</ele>
        <time>2016-05-15T10:13:28.000Z</time>
      </trkpt>
      <trkpt lat="43.87797" lon="7.2309">
        <ele>225</ele>
        <time>2016-05-15T10:13:32.000Z</time>
      </trkpt>
      <trkpt lat="43.87798" lon="7.23093">
        <ele>225</ele>
        <time>2016-05-15T10:13:36.000Z</time>
      </trkpt>
      <trkpt lat="43.87798" lon="7.23094">
        <ele>225</ele>
        <time>2016-05-15T10:13:37.000Z</time>
      </trkpt>
      <trkpt lat="43.87799" lon="7.23096">
        <ele>224</ele>
        <time>2016-05-15T10:13:39.000Z</time>
      </trkpt>
      <trkpt lat="43.87798" lon="7.23098">
        <ele>225</ele>
        <time>2016-05-15T10:13:43.000Z</time>
      </trkpt>
      <trkpt lat="43.87798" lon="7.23097">
        <ele>225</ele>
        <time>2016-05-15T10:13:44.000Z</time>
      </trkpt>
      <trkpt lat="43.87796" lon="7.23095">
        <ele>226</ele>
        <time>2016-05-15T10:13:48.000Z</time>
      </trkpt>
      <trkpt lat="43.87794" lon="7.23093">
        <ele>226</ele>
        <time>2016-05-15T10:13:51.000Z</time>
      </trkpt>
      <trkpt lat="43.87792" lon="7.23091">
        <ele>227</ele>
        <time>2016-05-15T10:13:55.000Z</time>
      </trkpt>
      <trkpt lat="43.87791" lon="7.23089">
        <ele>228</ele>
        <time>2016-05-15T10:13:58.000Z</time>
      </trkpt>
      <trkpt lat="43.87789" lon="7.23087">
        <ele>229</ele>
        <time>2016-05-15T10:14:01.000Z</time>
      </trkpt>
      <trkpt lat="43.87788" lon="7.23087">
        <ele>229</ele>
        <time>2016-05-15T10:14:02.000Z</time>
      </trkpt>
      <trkpt lat="43.87787" lon="7.23086">
        <ele>229</ele>
        <time>2016-05-15T10:14:04.000Z</time>
      </trkpt>
      <trkpt lat="43.87784" lon="7.23082">
        <ele>222</ele>
        <time>2016-05-15T10:14:09.000Z</time>
      </trkpt>
      <trkpt lat="43.87782" lon="7.23078">
        <ele>222</ele>
        <time>2016-05-15T10:14:13.000Z</time>
      </trkpt>
      <trkpt lat="43.87779" lon="7.23077">
        <ele>224</ele>
        <time>2016-05-15T10:14:17.000Z</time>
      </trkpt>
      <trkpt lat="43.87776" lon="7.23074">
        <ele>225</ele>
        <time>2016-05-15T10:14:20.000Z</time>
      </trkpt>
      <trkpt lat="43.87775" lon="7.23073">
        <ele>225</ele>
        <time>2016-05-15T10:14:22.000Z</time>
      </trkpt>
      <trkpt lat="43.87773" lon="7.2307">
        <ele>226</ele>
        <time>2016-05-15T10:14:26.000Z</time>
      </trkpt>
      <trkpt lat="43.87772" lon="7.23069">
        <ele>226</ele>
        <time>2016-05-15T10:14:27.000Z</time>
      </trkpt>
      <trkpt lat="43.8777" lon="7.23067">
        <ele>226</ele>
        <time>2016-05-15T10:14:30.000Z</time>
      </trkpt>
      <trkpt lat="43.87768" lon="7.23065">
        <ele>226</ele>
        <time>2016-05-15T10:14:33.000Z</time>
      </trkpt>
      <trkpt lat="43.87764" lon="7.23062">
        <ele>227</ele>
        <time>2016-05-15T10:14:38.000Z</time>
      </trkpt>
      <trkpt lat="43.8776" lon="7.23059">
        <ele>227</ele>
        <time>2016-05-15T10:14:44.000Z</time>
      </trkpt>
      <trkpt lat="43.87757" lon="7.23055">
        <ele>226</ele>
        <time>2016-05-15T10:14:50.000Z</time>
      </trkpt>
      <trkpt lat="43.87756" lon="7.23055">
        <ele>226</ele>
        <time>2016-05-15T10:14:52.000Z</time>
      </trkpt>
      <trkpt lat="43.87754" lon="7.23054">
        <ele>226</ele>
        <time>2016-05-15T10:14:57.000Z</time>
      </trkpt>
      <trkpt lat="43.87753" lon="7.23052">
        <ele>225</ele>
        <time>2016-05-15T10:14:59.000Z</time>
      </trkpt>
      <trkpt lat="43.87751" lon="7.23051">
        <ele>225</ele>
        <time>2016-05-15T10:15:03.000Z</time>
      </trkpt>
      <trkpt lat="43.87749" lon="7.23049">
        <ele>250</ele>
        <time>2016-05-15T10:15:06.000Z</time>
      </trkpt>
      <trkpt lat="43.87747" lon="7.23048">
        <ele>250</ele>
        <time>2016-05-15T10:15:09.000Z</time>
      </trkpt>
      <trkpt lat="43.87745" lon="7.23047">
        <ele>250</ele>
        <time>2016-05-15T10:15:13.000Z</time>
      </trkpt>
      <trkpt lat="43.87744" lon="7.23047">
        <ele>250</ele>
        <time>2016-05-15T10:15:15.000Z</time>
      </trkpt>
      <trkpt lat="43.87742" lon="7.23046">
        <ele>250</ele>
        <time>2016-05-15T10:15:19.000Z</time>
      </trkpt>
      <trkpt lat="43.87739" lon="7.23041">
        <ele>250</ele>
        <time>2016-05-15T10:15:24.000Z</time>
      </trkpt>
      <trkpt lat="43.87737" lon="7.23037">
        <ele>249</ele>
        <time>2016-05-15T10:15:27.000Z</time>
      </trkpt>
      <trkpt lat="43.87735" lon="7.23036">
        <ele>249</ele>
        <time>2016-05-15T10:15:29.000Z</time>
      </trkpt>
      <trkpt lat="43.87734" lon="7.23035">
        <ele>249</ele>
        <time>2016-05-15T10:15:30.000Z</time>
      </trkpt>
      <trkpt lat="43.87731" lon="7.23033">
        <ele>249</ele>
        <time>2016-05-15T10:15:34.000Z</time>
      </trkpt>
      <trkpt lat="43.87727" lon="7.23031">
        <ele>250</ele>
        <time>2016-05-15T10:15:39.000Z</time>
      </trkpt>
      <trkpt lat="43.87722" lon="7.23029">
        <ele>251</ele>
        <time>2016-05-15T10:15:46.000Z</time>
      </trkpt>
      <trkpt lat="43.8772" lon="7.23027">
        <ele>251</ele>
        <time>2016-05-15T10:15:49.000Z</time>
      </trkpt>
      <trkpt lat="43.87717" lon="7.23024">
        <ele>251</ele>
        <time>2016-05-15T10:15:54.000Z</time>
      </trkpt>
      <trkpt lat="43.87717" lon="7.23024">
        <ele>251</ele>
        <time>2016-05-15T10:15:55.000Z</time>
      </trkpt>
      <trkpt lat="43.87711" lon="7.2302">
        <ele>253</ele>
        <time>2016-05-15T10:16:02.000Z</time>
      </trkpt>
      <trkpt lat="43.87706" lon="7.23017">
        <ele>254</ele>
        <time>2016-05-15T10:16:09.000Z</time>
      </trkpt>
      <trkpt lat="43.87704" lon="7.23015">
        <ele>254</ele>
        <time>2016-05-15T10:16:12.000Z</time>
      </trkpt>
      <trkpt lat="43.87703" lon="7.23014">
        <ele>255</ele>
        <time>2016-05-15T10:16:14.000Z</time>
      </trkpt>
      <trkpt lat="43.87701" lon="7.23013">
        <ele>255</ele>
        <time>2016-05-15T10:16:17.000Z</time>
      </trkpt>
      <trkpt lat="43.87698" lon="7.23012">
        <ele>256</ele>
        <time>2016-05-15T10:16:20.000Z</time>
      </trkpt>
      <trkpt lat="43.87697" lon="7.23012">
        <ele>256</ele>
        <time>2016-05-15T10:16:23.000Z</time>
      </trkpt>
      <trkpt lat="43.87696" lon="7.23011">
        <ele>257</ele>
        <time>2016-05-15T10:16:25.000Z</time>
      </trkpt>
      <trkpt lat="43.87693" lon="7.2301">
        <ele>257</ele>
        <time>2016-05-15T10:16:29.000Z</time>
      </trkpt>
      <trkpt lat="43.87691" lon="7.23009">
        <ele>258</ele>
        <time>2016-05-15T10:16:32.000Z</time>
      </trkpt>
      <trkpt lat="43.87688" lon="7.23009">
        <ele>259</ele>
        <time>2016-05-15T10:16:36.000Z</time>
      </trkpt>
      <trkpt lat="43.87687" lon="7.23008">
        <ele>259</ele>
        <time>2016-05-15T10:16:37.000Z</time>
      </trkpt>
      <trkpt lat="43.87686" lon="7.23008">
        <ele>259</ele>
        <time>2016-05-15T10:16:38.000Z</time>
      </trkpt>
      <trkpt lat="43.87683" lon="7.23005">
        <ele>260</ele>
        <time>2016-05-15T10:16:43.000Z</time>
      </trkpt>
      <trkpt lat="43.87683" lon="7.23004">
        <ele>260</ele>
        <time>2016-05-15T10:16:44.000Z</time>
      </trkpt>
      <trkpt lat="43.87676" lon="7.22999">
        <ele>254</ele>
        <time>2016-05-15T10:16:52.000Z</time>
      </trkpt>
      <trkpt lat="43.87674" lon="7.22997">
        <ele>255</ele>
        <time>2016-05-15T10:16:54.000Z</time>
      </trkpt>
      <trkpt lat="43.87669" lon="7.22993">
        <ele>256</ele>
        <time>2016-05-15T10:17:00.000Z</time>
      </trkpt>
      <trkpt lat="43.87667" lon="7.22993">
        <ele>256</ele>
        <time>2016-05-15T10:17:02.000Z</time>
      </trkpt>
      <trkpt lat="43.87662" lon="7.2299">
        <ele>270</ele>
        <time>2016-05-15T10:17:08.000Z</time>
      </trkpt>
      <trkpt lat="43.87661" lon="7.22989">
        <ele>270</ele>
        <time>2016-05-15T10:17:09.000Z</time>
      </trkpt>
      <trkpt lat="43.87658" lon="7.22985">
        <ele>271</ele>
        <time>2016-05-15T10:17:15.000Z</time>
      </trkpt>
      <trkpt lat="43.87658" lon="7.22985">
        <ele>271</ele>
        <time>2016-05-15T10:17:16.000Z</time>
      </trkpt>
      <trkpt lat="43.87655" lon="7.2298">
        <ele>272</ele>
        <time>2016-05-15T10:17:22.000Z</time>
      </trkpt>
      <trkpt lat="43.87654" lon="7.22979">
        <ele>273</ele>
        <time>2016-05-15T10:17:24.000Z</time>
      </trkpt>
      <trkpt lat="43.87652" lon="7.22976">
        <ele>273</ele>
        <time>2016-05-15T10:17:29.000Z</time>
      </trkpt>
      <trkpt lat="43.87651" lon="7.22975">
        <ele>273</ele>
        <time>2016-05-15T10:17:30.000Z</time>
      </trkpt>
      <trkpt lat="43.87646" lon="7.22966">
        <ele>274</ele>
        <time>2016-05-15T10:17:36.000Z</time>
      </trkpt>
      <trkpt lat="43.87644" lon="7.2296">
        <ele>273</ele>
        <time>2016-05-15T10:17:39.000Z</time>
      </trkpt>
      <trkpt lat="43.87642" lon="7.22953">
        <ele>272</ele>
        <time>2016-05-15T10:17:42.000Z</time>
      </trkpt>
      <trkpt lat="43.87639" lon="7.22946">
        <ele>271</ele>
        <time>2016-05-15T10:17:45.000Z</time>
      </trkpt>
      <trkpt lat="43.87635" lon="7.22932">
        <ele>270</ele>
        <time>2016-05-15T10:17:50.000Z</time>
      </trkpt>
      <trkpt lat="43.87626" lon="7.22916">
        <ele>255</ele>
        <time>2016-05-15T10:17:57.000Z</time>
      </trkpt>
      <trkpt lat="43.87621" lon="7.22908">
        <ele>257</ele>
        <time>2016-05-15T10:18:01.000Z</time>
      </trkpt>
      <trkpt lat="43.87619" lon="7.22905">
        <ele>258</ele>
        <time>2016-05-15T10:18:03.000Z</time>
      </trkpt>
      <trkpt lat="43.87614" lon="7.22897">
        <ele>259</ele>
        <time>2016-05-15T10:18:07.000Z</time>
      </trkpt>
      <trkpt lat="43.87613" lon="7.22896">
        <ele>259</ele>
        <time>2016-05-15T10:18:08.000Z</time>
      </trkpt>
      <trkpt lat="43.87609" lon="7.22883">
        <ele>258</ele>
        <time>2016-05-15T10:18:13.000Z</time>
      </trkpt>
      <trkpt lat="43.87607" lon="7.2288">
        <ele>258</ele>
        <time>2016-05-15T10:18:14.000Z</time>
      </trkpt>
      <trkpt lat="43.87593" lon="7.2287">
        <ele>260</ele>
        <time>2016-05-15T10:18:20.000Z</time>
      </trkpt>
      <trkpt lat="43.87588" lon="7.22869">
        <ele>260</ele>
        <time>2016-05-15T10:18:22.000Z</time>
      </trkpt>
      <trkpt lat="43.87582" lon="7.22869">
        <ele>288</ele>
        <time>2016-05-15T10:18:24.000Z</time>
      </trkpt>
      <trkpt lat="43.87577" lon="7.22869">
        <ele>288</ele>
        <time>2016-05-15T10:18:26.000Z</time>
      </trkpt>
      <trkpt lat="43.87566" lon="7.22867">
        <ele>289</ele>
        <time>2016-05-15T10:18:30.000Z</time>
      </trkpt>
      <trkpt lat="43.87563" lon="7.22866">
        <ele>290</ele>
        <time>2016-05-15T10:18:31.000Z</time>
      </trkpt>
      <trkpt lat="43.87551" lon="7.22859">
        <ele>292</ele>
        <time>2016-05-15T10:18:35.000Z</time>
      </trkpt>
      <trkpt lat="43.8755" lon="7.22855">
        <ele>291</ele>
        <time>2016-05-15T10:18:36.000Z</time>
      </trkpt>
      <trkpt lat="43.8755" lon="7.22839">
        <ele>290</ele>
        <time>2016-05-15T10:18:41.000Z</time>
      </trkpt>
      <trkpt lat="43.87553" lon="7.22833">
        <ele>284</ele>
        <time>2016-05-15T10:18:45.000Z</time>
      </trkpt>
      <trkpt lat="43.87555" lon="7.22828">
        <ele>284</ele>
        <time>2016-05-15T10:18:49.000Z</time>
      </trkpt>
      <trkpt lat="43.87555" lon="7.22828">
        <ele>284</ele>
        <time>2016-05-15T10:18:51.000Z</time>
      </trkpt>
      <trkpt lat="43.87556" lon="7.22826">
        <ele>283</ele>
        <time>2016-05-15T10:18:54.000Z</time>
      </trkpt>
      <trkpt lat="43.8756" lon="7.22819">
        <ele>282</ele>
        <time>2016-05-15T10:19:02.000Z</time>
      </trkpt>
      <trkpt lat="43.87561" lon="7.22817">
        <ele>282</ele>
        <time>2016-05-15T10:19:04.000Z</time>
      </trkpt>
      <trkpt lat="43.87564" lon="7.22811">
        <ele>282</ele>
        <time>2016-05-15T10:19:10.000Z</time>
      </trkpt>
      <trkpt lat="43.87565" lon="7.22808">
        <ele>282</ele>
        <time>2016-05-15T10:19:13.000Z</time>
      </trkpt>
      <trkpt lat="43.87566" lon="7.22806">
        <ele>282</ele>
        <time>2016-05-15T10:19:15.000Z</time>
      </trkpt>
      <trkpt lat="43.87568" lon="7.228">
        <ele>282</ele>
        <time>2016-05-15T10:19:21.000Z</time>
      </trkpt>
      <trkpt lat="43.87569" lon="7.22797">
        <ele>282</ele>
        <time>2016-05-15T10:19:24.000Z</time>
      </trkpt>
      <trkpt lat="43.8757" lon="7.22791">
        <ele>282</ele>
        <time>2016-05-15T10:19:30.000Z</time>
      </trkpt>
      <trkpt lat="43.8757" lon="7.2279">
        <ele>282</ele>
        <time>2016-05-15T10:19:31.000Z</time>
      </trkpt>
      <trkpt lat="43.8757" lon="7.22785">
        <ele>282</ele>
        <time>2016-05-15T10:19:36.000Z</time>
      </trkpt>
      <trkpt lat="43.87571" lon="7.22779">
        <ele>281</ele>
        <time>2016-05-15T10:19:41.000Z</time>
      </trkpt>
      <trkpt lat="43.8757" lon="7.22778">
        <ele>281</ele>
        <time>2016-05-15T10:19:42.000Z</time>
      </trkpt>
      <trkpt lat="43.87571" lon="7.2277">
        <ele>279</ele>
        <time>2016-05-15T10:19:49.000Z</time>
      </trkpt>
      <trkpt lat="43.8757" lon="7.22768">
        <ele>279</ele>
        <time>2016-05-15T10:19:51.000Z</time>
      </trkpt>
      <trkpt lat="43.87568" lon="7.22763">
        <ele>278</ele>
        <time>2016-05-15T10:19:56.000Z</time>
      </trkpt>
      <trkpt lat="43.87567" lon="7.2276">
        <ele>278</ele>
        <time>2016-05-15T10:19:59.000Z</time>
      </trkpt>
      <trkpt lat="43.87565" lon="7.22755">
        <ele>278</ele>
        <time>2016-05-15T10:20:04.000Z</time>
      </trkpt>
      <trkpt lat="43.87564" lon="7.22752">
        <ele>279</ele>
        <time>2016-05-15T10:20:08.000Z</time>
      </trkpt>
      <trkpt lat="43.87563" lon="7.22751">
        <ele>279</ele>
        <time>2016-05-15T10:20:10.000Z</time>
      </trkpt>
      <trkpt lat="43.8756" lon="7.22745">
        <ele>278</ele>
        <time>2016-05-15T10:20:17.000Z</time>
      </trkpt>
      <trkpt lat="43.87559" lon="7.22744">
        <ele>279</ele>
        <time>2016-05-15T10:20:18.000Z</time>
      </trkpt>
      <trkpt lat="43.87557" lon="7.22741">
        <ele>280</ele>
        <time>2016-05-15T10:20:22.000Z</time>
      </trkpt>
      <trkpt lat="43.87554" lon="7.22737">
        <ele>281</ele>
        <time>2016-05-15T10:20:27.000Z</time>
      </trkpt>
      <trkpt lat="43.87554" lon="7.22736">
        <ele>281</ele>
        <time>2016-05-15T10:20:28.000Z</time>
      </trkpt>
      <trkpt lat="43.87549" lon="7.22731">
        <ele>283</ele>
        <time>2016-05-15T10:20:35.000Z</time>
      </trkpt>
      <trkpt lat="43.87548" lon="7.2273">
        <ele>283</ele>
        <time>2016-05-15T10:20:36.000Z</time>
      </trkpt>
      <trkpt lat="43.87547" lon="7.22727">
        <ele>284</ele>
        <time>2016-05-15T10:20:39.000Z</time>
      </trkpt>
      <trkpt lat="43.87544" lon="7.22724">
        <ele>285</ele>
        <time>2016-05-15T10:20:44.000Z</time>
      </trkpt>
      <trkpt lat="43.87542" lon="7.22721">
        <ele>285</ele>
        <time>2016-05-15T10:20:47.000Z</time>
      </trkpt>
      <trkpt lat="43.8754" lon="7.22717">
        <ele>286</ele>
        <time>2016-05-15T10:20:54.000Z</time>
      </trkpt>
      <trkpt lat="43.8754" lon="7.22721">
        <ele>286</ele>
        <time>2016-05-15T10:21:02.000Z</time>
      </trkpt>
      <trkpt lat="43.87541" lon="7.22723">
        <ele>286</ele>
        <time>2016-05-15T10:21:04.000Z</time>
      </trkpt>
      <trkpt lat="43.87542" lon="7.22726">
        <ele>286</ele>
        <time>2016-05-15T10:21:09.000Z</time>
      </trkpt>
      <trkpt lat="43.87544" lon="7.22733">
        <ele>285</ele>
        <time>2016-05-15T10:21:16.000Z</time>
      </trkpt>
      <trkpt lat="43.87544" lon="7.22738">
        <ele>286</ele>
        <time>2016-05-15T10:21:21.000Z</time>
      </trkpt>
      <trkpt lat="43.87544" lon="7.22742">
        <ele>286</ele>
        <time>2016-05-15T10:21:24.000Z</time>
      </trkpt>
      <trkpt lat="43.87543" lon="7.22743">
        <ele>286</ele>
        <time>2016-05-15T10:21:25.000Z</time>
      </trkpt>
      <trkpt lat="43.87541" lon="7.2275">
        <ele>292</ele>
        <time>2016-05-15T10:21:31.000Z</time>
      </trkpt>
      <trkpt lat="43.87541" lon="7.22753">
        <ele>290</ele>
        <time>2016-05-15T10:21:34.000Z</time>
      </trkpt>
      <trkpt lat="43.8754" lon="7.22755">
        <ele>291</ele>
        <time>2016-05-15T10:21:36.000Z</time>
      </trkpt>
      <trkpt lat="43.87541" lon="7.22758">
        <ele>290</ele>
        <time>2016-05-15T10:21:41.000Z</time>
      </trkpt>
      <trkpt lat="43.87541" lon="7.22759">
        <ele>290</ele>
        <time>2016-05-15T10:21:42.000Z</time>
      </trkpt>
      <trkpt lat="43.8754" lon="7.22762">
        <ele>291</ele>
        <time>2016-05-15T10:21:47.000Z</time>
      </trkpt>
      <trkpt lat="43.87537" lon="7.22763">
        <ele>292</ele>
        <time>2016-05-15T10:21:54.000Z</time>
      </trkpt>
      <trkpt lat="43.87537" lon="7.22762">
        <ele>292</ele>
        <time>2016-05-15T10:21:55.000Z</time>
      </trkpt>
      <trkpt lat="43.87537" lon="7.22756">
        <ele>292</ele>
        <time>2016-05-15T10:22:01.000Z</time>
      </trkpt>
      <trkpt lat="43.87537" lon="7.22755">
        <ele>292</ele>
        <time>2016-05-15T10:22:03.000Z</time>
      </trkpt>
      <trkpt lat="43.87534" lon="7.22748">
        <ele>291</ele>
        <time>2016-05-15T10:22:11.000Z</time>
      </trkpt>
      <trkpt lat="43.87534" lon="7.22747">
        <ele>291</ele>
        <time>2016-05-15T10:22:14.000Z</time>
      </trkpt>
      <trkpt lat="43.87533" lon="7.22744">
        <ele>292</ele>
        <time>2016-05-15T10:22:18.000Z</time>
      </trkpt>
      <trkpt lat="43.87531" lon="7.22741">
        <ele>292</ele>
        <time>2016-05-15T10:22:22.000Z</time>
      </trkpt>
      <trkpt lat="43.8753" lon="7.22738">
        <ele>293</ele>
        <time>2016-05-15T10:22:26.000Z</time>
      </trkpt>
      <trkpt lat="43.8753" lon="7.22737">
        <ele>292</ele>
        <time>2016-05-15T10:22:28.000Z</time>
      </trkpt>
      <trkpt lat="43.87529" lon="7.22732">
        <ele>292</ele>
        <time>2016-05-15T10:22:33.000Z</time>
      </trkpt>
      <trkpt lat="43.87527" lon="7.22729">
        <ele>293</ele>
        <time>2016-05-15T10:22:36.000Z</time>
      </trkpt>
      <trkpt lat="43.87524" lon="7.22727">
        <ele>294</ele>
        <time>2016-05-15T10:22:41.000Z</time>
      </trkpt>
      <trkpt lat="43.87523" lon="7.2273">
        <ele>295</ele>
        <time>2016-05-15T10:22:44.000Z</time>
      </trkpt>
      <trkpt lat="43.87522" lon="7.22735">
        <ele>296</ele>
        <time>2016-05-15T10:22:49.000Z</time>
      </trkpt>
      <trkpt lat="43.87522" lon="7.22736">
        <ele>296</ele>
        <time>2016-05-15T10:22:50.000Z</time>
      </trkpt>
      <trkpt lat="43.87521" lon="7.22744">
        <ele>299</ele>
        <time>2016-05-15T10:22:59.000Z</time>
      </trkpt>
      <trkpt lat="43.87521" lon="7.22745">
        <ele>299</ele>
        <time>2016-05-15T10:23:00.000Z</time>
      </trkpt>
      <trkpt lat="43.8752" lon="7.22751">
        <ele>302</ele>
        <time>2016-05-15T10:23:06.000Z</time>
      </trkpt>
      <trkpt lat="43.87518" lon="7.22751">
        <ele>303</ele>
        <time>2016-05-15T10:23:09.000Z</time>
      </trkpt>
      <trkpt lat="43.87517" lon="7.22749">
        <ele>302</ele>
        <time>2016-05-15T10:23:12.000Z</time>
      </trkpt>
      <trkpt lat="43.87516" lon="7.22744">
        <ele>302</ele>
        <time>2016-05-15T10:23:17.000Z</time>
      </trkpt>
      <trkpt lat="43.87516" lon="7.22742">
        <ele>301</ele>
        <time>2016-05-15T10:23:19.000Z</time>
      </trkpt>
      <trkpt lat="43.87513" lon="7.22736">
        <ele>301</ele>
        <time>2016-05-15T10:23:25.000Z</time>
      </trkpt>
      <trkpt lat="43.87511" lon="7.22731">
        <ele>300</ele>
        <time>2016-05-15T10:23:32.000Z</time>
      </trkpt>
      <trkpt lat="43.87511" lon="7.2273">
        <ele>300</ele>
        <time>2016-05-15T10:23:33.000Z</time>
      </trkpt>
      <trkpt lat="43.87509" lon="7.22726">
        <ele>299</ele>
        <time>2016-05-15T10:23:40.000Z</time>
      </trkpt>
      <trkpt lat="43.87508" lon="7.22723">
        <ele>298</ele>
        <time>2016-05-15T10:23:43.000Z</time>
      </trkpt>
      <trkpt lat="43.87507" lon="7.22722">
        <ele>298</ele>
        <time>2016-05-15T10:23:45.000Z</time>
      </trkpt>
      <trkpt lat="43.87505" lon="7.22719">
        <ele>298</ele>
        <time>2016-05-15T10:23:51.000Z</time>
      </trkpt>
      <trkpt lat="43.87505" lon="7.22718">
        <ele>298</ele>
        <time>2016-05-15T10:23:52.000Z</time>
      </trkpt>
      <trkpt lat="43.87504" lon="7.22721">
        <ele>299</ele>
        <time>2016-05-15T10:23:57.000Z</time>
      </trkpt>
      <trkpt lat="43.87504" lon="7.22723">
        <ele>299</ele>
        <time>2016-05-15T10:23:59.000Z</time>
      </trkpt>
      <trkpt lat="43.87503" lon="7.22728">
        <ele>301</ele>
        <time>2016-05-15T10:24:04.000Z</time>
      </trkpt>
      <trkpt lat="43.87502" lon="7.2273">
        <ele>302</ele>
        <time>2016-05-15T10:24:06.000Z</time>
      </trkpt>
      <trkpt lat="43.87501" lon="7.22735">
        <ele>305</ele>
        <time>2016-05-15T10:24:15.000Z</time>
      </trkpt>
      <trkpt lat="43.875" lon="7.22739">
        <ele>319</ele>
        <time>2016-05-15T10:24:19.000Z</time>
      </trkpt>
      <trkpt lat="43.87499" lon="7.22742">
        <ele>326</ele>
        <time>2016-05-15T10:24:23.000Z</time>
      </trkpt>
      <trkpt lat="43.87498" lon="7.22743">
        <ele>325</ele>
        <time>2016-05-15T10:24:28.000Z</time>
      </trkpt>
      <trkpt lat="43.87497" lon="7.22743">
        <ele>326</ele>
        <time>2016-05-15T10:24:30.000Z</time>
      </trkpt>
      <trkpt lat="43.87494" lon="7.22742">
        <ele>327</ele>
        <time>2016-05-15T10:24:35.000Z</time>
      </trkpt>
      <trkpt lat="43.87494" lon="7.2274">
        <ele>328</ele>
        <time>2016-05-15T10:24:38.000Z</time>
      </trkpt>
      <trkpt lat="43.87494" lon="7.22739">
        <ele>329</ele>
        <time>2016-05-15T10:24:39.000Z</time>
      </trkpt>
      <trkpt lat="43.87495" lon="7.22733">
        <ele>331</ele>
        <time>2016-05-15T10:24:46.000Z</time>
      </trkpt>
      <trkpt lat="43.87495" lon="7.22732">
        <ele>332</ele>
        <time>2016-05-15T10:24:47.000Z</time>
      </trkpt>
      <trkpt lat="43.87492" lon="7.22725">
        <ele>334</ele>
        <time>2016-05-15T10:24:55.000Z</time>
      </trkpt>
      <trkpt lat="43.87489" lon="7.22716">
        <ele>336</ele>
        <time>2016-05-15T10:25:03.000Z</time>
      </trkpt>
      <trkpt lat="43.87489" lon="7.22715">
        <ele>336</ele>
        <time>2016-05-15T10:25:04.000Z</time>
      </trkpt>
      <trkpt lat="43.87489" lon="7.22709">
        <ele>336</ele>
        <time>2016-05-15T10:25:09.000Z</time>
      </trkpt>
      <trkpt lat="43.87488" lon="7.22705">
        <ele>336</ele>
        <time>2016-05-15T10:25:12.000Z</time>
      </trkpt>
      <trkpt lat="43.87487" lon="7.22702">
        <ele>336</ele>
        <time>2016-05-15T10:25:16.000Z</time>
      </trkpt>
      <trkpt lat="43.87487" lon="7.22701">
        <ele>336</ele>
        <time>2016-05-15T10:25:18.000Z</time>
      </trkpt>
      <trkpt lat="43.87484" lon="7.22701">
        <ele>337</ele>
        <time>2016-05-15T10:25:22.000Z</time>
      </trkpt>
      <trkpt lat="43.87484" lon="7.22703">
        <ele>337</ele>
        <time>2016-05-15T10:25:24.000Z</time>
      </trkpt>
      <trkpt lat="43.87483" lon="7.22703">
        <ele>337</ele>
        <time>2016-05-15T10:25:25.000Z</time>
      </trkpt>
      <trkpt lat="43.87481" lon="7.22705">
        <ele>338</ele>
        <time>2016-05-15T10:25:28.000Z</time>
      </trkpt>
      <trkpt lat="43.8748" lon="7.22706">
        <ele>338</ele>
        <time>2016-05-15T10:25:29.000Z</time>
      </trkpt>
      <trkpt lat="43.87477" lon="7.2271">
        <ele>339</ele>
        <time>2016-05-15T10:25:35.000Z</time>
      </trkpt>
      <trkpt lat="43.87476" lon="7.22716">
        <ele>339</ele>
        <time>2016-05-15T10:25:42.000Z</time>
      </trkpt>
      <trkpt lat="43.87477" lon="7.22717">
        <ele>339</ele>
        <time>2016-05-15T10:25:43.000Z</time>
      </trkpt>
      <trkpt lat="43.87477" lon="7.22721">
        <ele>339</ele>
        <time>2016-05-15T10:25:48.000Z</time>
      </trkpt>
      <trkpt lat="43.87477" lon="7.22723">
        <ele>339</ele>
        <time>2016-05-15T10:25:50.000Z</time>
      </trkpt>
      <trkpt lat="43.87475" lon="7.22727">
        <ele>339</ele>
        <time>2016-05-15T10:25:55.000Z</time>
      </trkpt>
      <trkpt lat="43.87473" lon="7.22728">
        <ele>340</ele>
        <time>2016-05-15T10:25:58.000Z</time>
      </trkpt>
      <trkpt lat="43.87471" lon="7.22727">
        <ele>340</ele>
        <time>2016-05-15T10:26:03.000Z</time>
      </trkpt>
      <trkpt lat="43.87471" lon="7.22725">
        <ele>340</ele>
        <time>2016-05-15T10:26:06.000Z</time>
      </trkpt>
      <trkpt lat="43.87471" lon="7.22722">
        <ele>341</ele>
        <time>2016-05-15T10:26:11.000Z</time>
      </trkpt>
      <trkpt lat="43.8747" lon="7.22721">
        <ele>341</ele>
        <time>2016-05-15T10:26:12.000Z</time>
      </trkpt>
      <trkpt lat="43.87468" lon="7.22716">
        <ele>342</ele>
        <time>2016-05-15T10:26:19.000Z</time>
      </trkpt>
      <trkpt lat="43.87468" lon="7.22716">
        <ele>342</ele>
        <time>2016-05-15T10:26:20.000Z</time>
      </trkpt>
      <trkpt lat="43.87465" lon="7.22715">
        <ele>343</ele>
        <time>2016-05-15T10:26:24.000Z</time>
      </trkpt>
      <trkpt lat="43.87465" lon="7.22718">
        <ele>343</ele>
        <time>2016-05-15T10:26:27.000Z</time>
      </trkpt>
      <trkpt lat="43.87465" lon="7.22721">
        <ele>343</ele>
        <time>2016-05-15T10:26:29.000Z</time>
      </trkpt>
      <trkpt lat="43.87465" lon="7.22722">
        <ele>343</ele>
        <time>2016-05-15T10:26:30.000Z</time>
      </trkpt>
      <trkpt lat="43.87463" lon="7.22727">
        <ele>343</ele>
        <time>2016-05-15T10:26:35.000Z</time>
      </trkpt>
      <trkpt lat="43.87462" lon="7.22728">
        <ele>344</ele>
        <time>2016-05-15T10:26:36.000Z</time>
      </trkpt>
      <trkpt lat="43.8746" lon="7.22729">
        <ele>345</ele>
        <time>2016-05-15T10:26:39.000Z</time>
      </trkpt>
      <trkpt lat="43.87459" lon="7.22728">
        <ele>345</ele>
        <time>2016-05-15T10:26:41.000Z</time>
      </trkpt>
      <trkpt lat="43.87459" lon="7.22726">
        <ele>345</ele>
        <time>2016-05-15T10:26:44.000Z</time>
      </trkpt>
      <trkpt lat="43.87459" lon="7.22723">
        <ele>345</ele>
        <time>2016-05-15T10:26:47.000Z</time>
      </trkpt>
      <trkpt lat="43.87458" lon="7.22722">
        <ele>345</ele>
        <time>2016-05-15T10:26:49.000Z</time>
      </trkpt>
      <trkpt lat="43.87458" lon="7.22718">
        <ele>345</ele>
        <time>2016-05-15T10:26:55.000Z</time>
      </trkpt>
      <trkpt lat="43.87457" lon="7.22717">
        <ele>345</ele>
        <time>2016-05-15T10:26:56.000Z</time>
      </trkpt>
      <trkpt lat="43.87456" lon="7.22714">
        <ele>346</ele>
        <time>2016-05-15T10:26:59.000Z</time>
      </trkpt>
      <trkpt lat="43.87456" lon="7.22714">
        <ele>346</ele>
        <time>2016-05-15T10:27:03.000Z</time>
      </trkpt>
      <trkpt lat="43.87457" lon="7.22708">
        <ele>345</ele>
        <time>2016-05-15T10:27:09.000Z</time>
      </trkpt>
      <trkpt lat="43.87458" lon="7.22697">
        <ele>344</ele>
        <time>2016-05-15T10:27:15.000Z</time>
      </trkpt>
      <trkpt lat="43.87458" lon="7.22695">
        <ele>344</ele>
        <time>2016-05-15T10:27:16.000Z</time>
      </trkpt>
      <trkpt lat="43.87459" lon="7.22685">
        <ele>343</ele>
        <time>2016-05-15T10:27:21.000Z</time>
      </trkpt>
      <trkpt lat="43.87459" lon="7.22683">
        <ele>343</ele>
        <time>2016-05-15T10:27:22.000Z</time>
      </trkpt>
      <trkpt lat="43.87459" lon="7.2268">
        <ele>343</ele>
        <time>2016-05-15T10:27:23.000Z</time>
      </trkpt>
      <trkpt lat="43.87457" lon="7.22677">
        <ele>344</ele>
        <time>2016-05-15T10:27:25.000Z</time>
      </trkpt>
      <trkpt lat="43.87458" lon="7.22673">
        <ele>343</ele>
        <time>2016-05-15T10:27:28.000Z</time>
      </trkpt>
      <trkpt lat="43.87458" lon="7.22669">
        <ele>343</ele>
        <time>2016-05-15T10:27:30.000Z</time>
      </trkpt>
      <trkpt lat="43.87457" lon="7.22667">
        <ele>344</ele>
        <time>2016-05-15T10:27:32.000Z</time>
      </trkpt>
      <trkpt lat="43.87457" lon="7.22665">
        <ele>335</ele>
        <time>2016-05-15T10:27:33.000Z</time>
      </trkpt>
      <trkpt lat="43.87457" lon="7.22662">
        <ele>334</ele>
        <time>2016-05-15T10:27:35.000Z</time>
      </trkpt>
      <trkpt lat="43.87455" lon="7.22658">
        <ele>335</ele>
        <time>2016-05-15T10:27:38.000Z</time>
      </trkpt>
      <trkpt lat="43.87454" lon="7.22656">
        <ele>335</ele>
        <time>2016-05-15T10:27:40.000Z</time>
      </trkpt>
      <trkpt lat="43.87452" lon="7.22651">
        <ele>335</ele>
        <time>2016-05-15T10:27:44.000Z</time>
      </trkpt>
      <trkpt lat="43.87451" lon="7.2265">
        <ele>336</ele>
        <time>2016-05-15T10:27:46.000Z</time>
      </trkpt>
      <trkpt lat="43.87449" lon="7.22648">
        <ele>336</ele>
        <time>2016-05-15T10:27:52.000Z</time>
      </trkpt>
      <trkpt lat="43.87447" lon="7.22645">
        <ele>336</ele>
        <time>2016-05-15T10:27:59.000Z</time>
      </trkpt>
      <trkpt lat="43.87447" lon="7.22644">
        <ele>336</ele>
        <time>2016-05-15T10:28:00.000Z</time>
      </trkpt>
      <trkpt lat="43.87446" lon="7.22649">
        <ele>337</ele>
        <time>2016-05-15T10:28:05.000Z</time>
      </trkpt>
      <trkpt lat="43.87446" lon="7.2265">
        <ele>338</ele>
        <time>2016-05-15T10:28:06.000Z</time>
      </trkpt>
      <trkpt lat="43.87447" lon="7.22655">
        <ele>338</ele>
        <time>2016-05-15T10:28:13.000Z</time>
      </trkpt>
      <trkpt lat="43.87447" lon="7.22657">
        <ele>338</ele>
        <time>2016-05-15T10:28:16.000Z</time>
      </trkpt>
      <trkpt lat="43.87445" lon="7.22658">
        <ele>340</ele>
        <time>2016-05-15T10:28:20.000Z</time>
      </trkpt>
      <trkpt lat="43.87443" lon="7.22655">
        <ele>340</ele>
        <time>2016-05-15T10:28:23.000Z</time>
      </trkpt>
      <trkpt lat="43.87442" lon="7.22651">
        <ele>340</ele>
        <time>2016-05-15T10:28:28.000Z</time>
      </trkpt>
      <trkpt lat="43.87441" lon="7.2265">
        <ele>340</ele>
        <time>2016-05-15T10:28:29.000Z</time>
      </trkpt>
      <trkpt lat="43.87437" lon="7.22645">
        <ele>340</ele>
        <time>2016-05-15T10:28:37.000Z</time>
      </trkpt>
      <trkpt lat="43.87437" lon="7.22644">
        <ele>340</ele>
        <time>2016-05-15T10:28:38.000Z</time>
      </trkpt>
      <trkpt lat="43.87431" lon="7.22644">
        <ele>342</ele>
        <time>2016-05-15T10:28:45.000Z</time>
      </trkpt>
      <trkpt lat="43.8743" lon="7.22643">
        <ele>342</ele>
        <time>2016-05-15T10:28:46.000Z</time>
      </trkpt>
      <trkpt lat="43.87428" lon="7.22643">
        <ele>342</ele>
        <time>2016-05-15T10:28:49.000Z</time>
      </trkpt>
      <trkpt lat="43.87426" lon="7.22643">
        <ele>343</ele>
        <time>2016-05-15T10:28:52.000Z</time>
      </trkpt>
      <trkpt lat="43.87425" lon="7.22643">
        <ele>343</ele>
        <time>2016-05-15T10:28:53.000Z</time>
      </trkpt>
      <trkpt lat="43.87423" lon="7.22641">
        <ele>343</ele>
        <time>2016-05-15T10:28:58.000Z</time>
      </trkpt>
      <trkpt lat="43.8742" lon="7.22642">
        <ele>344</ele>
        <time>2016-05-15T10:29:01.000Z</time>
      </trkpt>
      <trkpt lat="43.87418" lon="7.22642">
        <ele>344</ele>
        <time>2016-05-15T10:29:04.000Z</time>
      </trkpt>
      <trkpt lat="43.87415" lon="7.22643">
        <ele>361</ele>
        <time>2016-05-15T10:29:08.000Z</time>
      </trkpt>
      <trkpt lat="43.8741" lon="7.22645">
        <ele>361</ele>
        <time>2016-05-15T10:29:13.000Z</time>
      </trkpt>
      <trkpt lat="43.8741" lon="7.22646">
        <ele>361</ele>
        <time>2016-05-15T10:29:14.000Z</time>
      </trkpt>
      <trkpt lat="43.87409" lon="7.22647">
        <ele>362</ele>
        <time>2016-05-15T10:29:16.000Z</time>
      </trkpt>
      <trkpt lat="43.87408" lon="7.22649">
        <ele>362</ele>
        <time>2016-05-15T10:29:18.000Z</time>
      </trkpt>
      <trkpt lat="43.87406" lon="7.2265">
        <ele>362</ele>
        <time>2016-05-15T10:29:22.000Z</time>
      </trkpt>
      <trkpt lat="43.87404" lon="7.2265">
        <ele>362</ele>
        <time>2016-05-15T10:29:24.000Z</time>
      </trkpt>
      <trkpt lat="43.874" lon="7.22654">
        <ele>363</ele>
        <time>2016-05-15T10:29:28.000Z</time>
      </trkpt>
      <trkpt lat="43.87393" lon="7.2266">
        <ele>363</ele>
        <time>2016-05-15T10:29:34.000Z</time>
      </trkpt>
      <trkpt lat="43.87391" lon="7.22661">
        <ele>363</ele>
        <time>2016-05-15T10:29:35.000Z</time>
      </trkpt>
      <trkpt lat="43.87384" lon="7.2267">
        <ele>380</ele>
        <time>2016-05-15T10:29:41.000Z</time>
      </trkpt>
      <trkpt lat="43.87384" lon="7.22671">
        <ele>380</ele>
        <time>2016-05-15T10:29:42.000Z</time>
      </trkpt>
      <trkpt lat="43.87381" lon="7.22674">
        <ele>381</ele>
        <time>2016-05-15T10:29:45.000Z</time>
      </trkpt>
      <trkpt lat="43.87376" lon="7.22678">
        <ele>382</ele>
        <time>2016-05-15T10:29:49.000Z</time>
      </trkpt>
      <trkpt lat="43.87373" lon="7.2268">
        <ele>383</ele>
        <time>2016-05-15T10:29:52.000Z</time>
      </trkpt>
      <trkpt lat="43.87369" lon="7.22685">
        <ele>384</ele>
        <time>2016-05-15T10:29:56.000Z</time>
      </trkpt>
      <trkpt lat="43.87367" lon="7.22686">
        <ele>385</ele>
        <time>2016-05-15T10:29:57.000Z</time>
      </trkpt>
      <trkpt lat="43.87362" lon="7.22688">
        <ele>385</ele>
        <time>2016-05-15T10:30:02.000Z</time>
      </trkpt>
      <trkpt lat="43.87358" lon="7.22691">
        <ele>386</ele>
        <time>2016-05-15T10:30:08.000Z</time>
      </trkpt>
      <trkpt lat="43.87357" lon="7.22692">
        <ele>387</ele>
        <time>2016-05-15T10:30:09.000Z</time>
      </trkpt>
      <trkpt lat="43.87353" lon="7.22694">
        <ele>387</ele>
        <time>2016-05-15T10:30:15.000Z</time>
      </trkpt>
      <trkpt lat="43.87352" lon="7.22694">
        <ele>387</ele>
        <time>2016-05-15T10:30:16.000Z</time>
      </trkpt>
      <trkpt lat="43.87351" lon="7.22694">
        <ele>387</ele>
        <time>2016-05-15T10:30:17.000Z</time>
      </trkpt>
      <trkpt lat="43.87349" lon="7.22694">
        <ele>388</ele>
        <time>2016-05-15T10:30:20.000Z</time>
      </trkpt>
      <trkpt lat="43.87348" lon="7.22695">
        <ele>388</ele>
        <time>2016-05-15T10:30:21.000Z</time>
      </trkpt>
      <trkpt lat="43.87348" lon="7.22695">
        <ele>388</ele>
        <time>2016-05-15T10:30:22.000Z</time>
      </trkpt>
      <trkpt lat="43.87345" lon="7.22695">
        <ele>388</ele>
        <time>2016-05-15T10:30:24.000Z</time>
      </trkpt>
      <trkpt lat="43.87341" lon="7.22696">
        <ele>388</ele>
        <time>2016-05-15T10:30:29.000Z</time>
      </trkpt>
      <trkpt lat="43.8734" lon="7.22697">
        <ele>389</ele>
        <time>2016-05-15T10:30:31.000Z</time>
      </trkpt>
      <trkpt lat="43.87337" lon="7.22697">
        <ele>389</ele>
        <time>2016-05-15T10:30:35.000Z</time>
      </trkpt>
      <trkpt lat="43.87336" lon="7.22697">
        <ele>389</ele>
        <time>2016-05-15T10:30:37.000Z</time>
      </trkpt>
      <trkpt lat="43.87334" lon="7.22697">
        <ele>389</ele>
        <time>2016-05-15T10:30:39.000Z</time>
      </trkpt>
      <trkpt lat="43.87331" lon="7.22696">
        <ele>411</ele>
        <time>2016-05-15T10:30:43.000Z</time>
      </trkpt>
      <trkpt lat="43.8733" lon="7.22695">
        <ele>411</ele>
        <time>2016-05-15T10:30:44.000Z</time>
      </trkpt>
      <trkpt lat="43.87327" lon="7.22693">
        <ele>411</ele>
        <time>2016-05-15T10:30:50.000Z</time>
      </trkpt>
      <trkpt lat="43.87326" lon="7.22691">
        <ele>410</ele>
        <time>2016-05-15T10:30:52.000Z</time>
      </trkpt>
      <trkpt lat="43.87325" lon="7.22691">
        <ele>410</ele>
        <time>2016-05-15T10:30:55.000Z</time>
      </trkpt>
      <trkpt lat="43.87324" lon="7.22689">
        <ele>409</ele>
        <time>2016-05-15T10:31:00.000Z</time>
      </trkpt>
      <trkpt lat="43.87324" lon="7.22689">
        <ele>409</ele>
        <time>2016-05-15T10:31:01.000Z</time>
      </trkpt>
      <trkpt lat="43.8732" lon="7.22683">
        <ele>407</ele>
        <time>2016-05-15T10:31:06.000Z</time>
      </trkpt>
      <trkpt lat="43.87315" lon="7.22677">
        <ele>408</ele>
        <time>2016-05-15T10:31:11.000Z</time>
      </trkpt>
      <trkpt lat="43.87314" lon="7.22676">
        <ele>408</ele>
        <time>2016-05-15T10:31:12.000Z</time>
      </trkpt>
      <trkpt lat="43.87308" lon="7.22665">
        <ele>394</ele>
        <time>2016-05-15T10:31:18.000Z</time>
      </trkpt>
      <trkpt lat="43.87304" lon="7.2266">
        <ele>395</ele>
        <time>2016-05-15T10:31:22.000Z</time>
      </trkpt>
      <trkpt lat="43.87301" lon="7.22655">
        <ele>396</ele>
        <time>2016-05-15T10:31:25.000Z</time>
      </trkpt>
      <trkpt lat="43.87294" lon="7.22645">
        <ele>398</ele>
        <time>2016-05-15T10:31:32.000Z</time>
      </trkpt>
      <trkpt lat="43.87293" lon="7.22643">
        <ele>398</ele>
        <time>2016-05-15T10:31:33.000Z</time>
      </trkpt>
      <trkpt lat="43.87287" lon="7.22637">
        <ele>399</ele>
        <time>2016-05-15T10:31:39.000Z</time>
      </trkpt>
      <trkpt lat="43.87283" lon="7.22631">
        <ele>399</ele>
        <time>2016-05-15T10:31:44.000Z</time>
      </trkpt>
      <trkpt lat="43.87281" lon="7.22628">
        <ele>399</ele>
        <time>2016-05-15T10:31:46.000Z</time>
      </trkpt>
      <trkpt lat="43.87279" lon="7.22625">
        <ele>399</ele>
        <time>2016-05-15T10:31:50.000Z</time>
      </trkpt>
      <trkpt lat="43.87279" lon="7.22625">
        <ele>399</ele>
        <time>2016-05-15T10:31:51.000Z</time>
      </trkpt>
      <trkpt lat="43.87276" lon="7.2262">
        <ele>399</ele>
        <time>2016-05-15T10:31:57.000Z</time>
      </trkpt>
      <trkpt lat="43.87274" lon="7.22617">
        <ele>399</ele>
        <time>2016-05-15T10:32:00.000Z</time>
      </trkpt>
      <trkpt lat="43.8727" lon="7.22612">
        <ele>400</ele>
        <time>2016-05-15T10:32:06.000Z</time>
      </trkpt>
      <trkpt lat="43.87269" lon="7.22611">
        <ele>400</ele>
        <time>2016-05-15T10:32:12.000Z</time>
      </trkpt>
      <trkpt lat="43.87267" lon="7.22607">
        <ele>400</ele>
        <time>2016-05-15T10:32:16.000Z</time>
      </trkpt>
      <trkpt lat="43.87267" lon="7.22605">
        <ele>400</ele>
        <time>2016-05-15T10:32:17.000Z</time>
      </trkpt>
      <trkpt lat="43.87261" lon="7.22593">
        <ele>402</ele>
        <time>2016-05-15T10:32:24.000Z</time>
      </trkpt>
      <trkpt lat="43.8726" lon="7.22592">
        <ele>402</ele>
        <time>2016-05-15T10:32:25.000Z</time>
      </trkpt>
      <trkpt lat="43.87256" lon="7.22587">
        <ele>404</ele>
        <time>2016-05-15T10:32:30.000Z</time>
      </trkpt>
      <trkpt lat="43.8725" lon="7.2258">
        <ele>402</ele>
        <time>2016-05-15T10:32:36.000Z</time>
      </trkpt>
      <trkpt lat="43.8725" lon="7.22578">
        <ele>399</ele>
        <time>2016-05-15T10:32:37.000Z</time>
      </trkpt>
      <trkpt lat="43.87245" lon="7.22574">
        <ele>406</ele>
        <time>2016-05-15T10:32:41.000Z</time>
      </trkpt>
      <trkpt lat="43.87242" lon="7.22571">
        <ele>405</ele>
        <time>2016-05-15T10:32:44.000Z</time>
      </trkpt>
      <trkpt lat="43.87238" lon="7.22566">
        <ele>405</ele>
        <time>2016-05-15T10:32:48.000Z</time>
      </trkpt>
      <trkpt lat="43.87233" lon="7.2256">
        <ele>404</ele>
        <time>2016-05-15T10:32:53.000Z</time>
      </trkpt>
      <trkpt lat="43.8723" lon="7.22557">
        <ele>404</ele>
        <time>2016-05-15T10:32:55.000Z</time>
      </trkpt>
      <trkpt lat="43.87224" lon="7.22552">
        <ele>404</ele>
        <time>2016-05-15T10:33:00.000Z</time>
      </trkpt>
      <trkpt lat="43.87222" lon="7.2255">
        <ele>403</ele>
        <time>2016-05-15T10:33:02.000Z</time>
      </trkpt>
      <trkpt lat="43.8722" lon="7.2255">
        <ele>404</ele>
        <time>2016-05-15T10:33:04.000Z</time>
      </trkpt>
      <trkpt lat="43.87219" lon="7.22547">
        <ele>403</ele>
        <time>2016-05-15T10:33:06.000Z</time>
      </trkpt>
      <trkpt lat="43.87218" lon="7.22544">
        <ele>403</ele>
        <time>2016-05-15T10:33:09.000Z</time>
      </trkpt>
      <trkpt lat="43.87217" lon="7.22539">
        <ele>402</ele>
        <time>2016-05-15T10:33:12.000Z</time>
      </trkpt>
      <trkpt lat="43.87216" lon="7.22535">
        <ele>401</ele>
        <time>2016-05-15T10:33:14.000Z</time>
      </trkpt>
      <trkpt lat="43.87215" lon="7.22534">
        <ele>401</ele>
        <time>2016-05-15T10:33:15.000Z</time>
      </trkpt>
      <trkpt lat="43.87213" lon="7.22532">
        <ele>401</ele>
        <time>2016-05-15T10:33:18.000Z</time>
      </trkpt>
      <trkpt lat="43.87213" lon="7.22532">
        <ele>401</ele>
        <time>2016-05-15T10:33:19.000Z</time>
      </trkpt>
      <trkpt lat="43.87211" lon="7.22529">
        <ele>401</ele>
        <time>2016-05-15T10:33:24.000Z</time>
      </trkpt>
      <trkpt lat="43.87209" lon="7.22528">
        <ele>401</ele>
        <time>2016-05-15T10:33:27.000Z</time>
      </trkpt>
      <trkpt lat="43.87205" lon="7.22523">
        <ele>401</ele>
        <time>2016-05-15T10:33:32.000Z</time>
      </trkpt>
      <trkpt lat="43.87204" lon="7.22521">
        <ele>401</ele>
        <time>2016-05-15T10:33:34.000Z</time>
      </trkpt>
      <trkpt lat="43.87198" lon="7.22513">
        <ele>401</ele>
        <time>2016-05-15T10:33:43.000Z</time>
      </trkpt>
      <trkpt lat="43.87197" lon="7.22512">
        <ele>401</ele>
        <time>2016-05-15T10:33:44.000Z</time>
      </trkpt>
      <trkpt lat="43.87194" lon="7.22511">
        <ele>401</ele>
        <time>2016-05-15T10:33:47.000Z</time>
      </trkpt>
      <trkpt lat="43.87193" lon="7.22512">
        <ele>401</ele>
        <time>2016-05-15T10:33:49.000Z</time>
      </trkpt>
      <trkpt lat="43.87192" lon="7.22512">
        <ele>401</ele>
        <time>2016-05-15T10:33:50.000Z</time>
      </trkpt>
      <trkpt lat="43.87192" lon="7.22517">
        <ele>402</ele>
        <time>2016-05-15T10:33:55.000Z</time>
      </trkpt>
      <trkpt lat="43.87192" lon="7.22519">
        <ele>402</ele>
        <time>2016-05-15T10:33:59.000Z</time>
      </trkpt>
      <trkpt lat="43.8719" lon="7.22524">
        <ele>403</ele>
        <time>2016-05-15T10:34:04.000Z</time>
      </trkpt>
      <trkpt lat="43.87187" lon="7.22532">
        <ele>404</ele>
        <time>2016-05-15T10:34:09.000Z</time>
      </trkpt>
      <trkpt lat="43.87185" lon="7.22535">
        <ele>405</ele>
        <time>2016-05-15T10:34:11.000Z</time>
      </trkpt>
      <trkpt lat="43.87176" lon="7.22541">
        <ele>407</ele>
        <time>2016-05-15T10:34:18.000Z</time>
      </trkpt>
      <trkpt lat="43.87169" lon="7.22548">
        <ele>410</ele>
        <time>2016-05-15T10:34:24.000Z</time>
      </trkpt>
      <trkpt lat="43.87161" lon="7.22553">
        <ele>418</ele>
        <time>2016-05-15T10:34:30.000Z</time>
      </trkpt>
      <trkpt lat="43.87159" lon="7.22555">
        <ele>418</ele>
        <time>2016-05-15T10:34:32.000Z</time>
      </trkpt>
      <trkpt lat="43.87157" lon="7.22556">
        <ele>418</ele>
        <time>2016-05-15T10:34:33.000Z</time>
      </trkpt>
      <trkpt lat="43.87151" lon="7.22561">
        <ele>419</ele>
        <time>2016-05-15T10:34:38.000Z</time>
      </trkpt>
      <trkpt lat="43.87149" lon="7.22562">
        <ele>419</ele>
        <time>2016-05-15T10:34:39.000Z</time>
      </trkpt>
      <trkpt lat="43.87142" lon="7.2257">
        <ele>420</ele>
        <time>2016-05-15T10:34:45.000Z</time>
      </trkpt>
      <trkpt lat="43.87135" lon="7.22581">
        <ele>420</ele>
        <time>2016-05-15T10:34:50.000Z</time>
      </trkpt>
      <trkpt lat="43.8713" lon="7.22587">
        <ele>437</ele>
        <time>2016-05-15T10:34:53.000Z</time>
      </trkpt>
      <trkpt lat="43.87124" lon="7.22591">
        <ele>437</ele>
        <time>2016-05-15T10:34:56.000Z</time>
      </trkpt>
      <trkpt lat="43.87121" lon="7.22594">
        <ele>437</ele>
        <time>2016-05-15T10:34:58.000Z</time>
      </trkpt>
      <trkpt lat="43.87113" lon="7.22605">
        <ele>437</ele>
        <time>2016-05-15T10:35:04.000Z</time>
      </trkpt>
      <trkpt lat="43.87102" lon="7.22625">
        <ele>440</ele>
        <time>2016-05-15T10:35:11.000Z</time>
      </trkpt>
      <trkpt lat="43.87097" lon="7.22638">
        <ele>442</ele>
        <time>2016-05-15T10:35:15.000Z</time>
      </trkpt>
      <trkpt lat="43.87092" lon="7.22653">
        <ele>444</ele>
        <time>2016-05-15T10:35:20.000Z</time>
      </trkpt>
      <trkpt lat="43.87091" lon="7.22656">
        <ele>445</ele>
        <time>2016-05-15T10:35:21.000Z</time>
      </trkpt>
      <trkpt lat="43.87084" lon="7.22657">
        <ele>445</ele>
        <time>2016-05-15T10:35:24.000Z</time>
      </trkpt>
      <trkpt lat="43.87081" lon="7.22653">
        <ele>446</ele>
        <time>2016-05-15T10:35:26.000Z</time>
      </trkpt>
      <trkpt lat="43.87078" lon="7.22646">
        <ele>446</ele>
        <time>2016-05-15T10:35:28.000Z</time>
      </trkpt>
      <trkpt lat="43.87071" lon="7.22634">
        <ele>445</ele>
        <time>2016-05-15T10:35:33.000Z</time>
      </trkpt>
      <trkpt lat="43.87069" lon="7.22629">
        <ele>444</ele>
        <time>2016-05-15T10:35:36.000Z</time>
      </trkpt>
      <trkpt lat="43.87066" lon="7.22623">
        <ele>443</ele>
        <time>2016-05-15T10:35:40.000Z</time>
      </trkpt>
      <trkpt lat="43.87063" lon="7.22618">
        <ele>443</ele>
        <time>2016-05-15T10:35:43.000Z</time>
      </trkpt>
      <trkpt lat="43.87061" lon="7.22613">
        <ele>442</ele>
        <time>2016-05-15T10:35:46.000Z</time>
      </trkpt>
      <trkpt lat="43.8706" lon="7.22611">
        <ele>442</ele>
        <time>2016-05-15T10:35:47.000Z</time>
      </trkpt>
      <trkpt lat="43.87055" lon="7.22606">
        <ele>442</ele>
        <time>2016-05-15T10:35:53.000Z</time>
      </trkpt>
      <trkpt lat="43.87053" lon="7.22605">
        <ele>442</ele>
        <time>2016-05-15T10:35:58.000Z</time>
      </trkpt>
      <trkpt lat="43.87052" lon="7.22604">
        <ele>442</ele>
        <time>2016-05-15T10:36:02.000Z</time>
      </trkpt>
      <trkpt lat="43.87052" lon="7.22604">
        <ele>442</ele>
        <time>2016-05-15T10:36:03.000Z</time>
      </trkpt>
      <trkpt lat="43.87051" lon="7.22603">
        <ele>442</ele>
        <time>2016-05-15T10:36:07.000Z</time>
      </trkpt>
      <trkpt lat="43.87045" lon="7.22599">
        <ele>442</ele>
        <time>2016-05-15T10:36:14.000Z</time>
      </trkpt>
      <trkpt lat="43.87045" lon="7.22598">
        <ele>442</ele>
        <time>2016-05-15T10:36:16.000Z</time>
      </trkpt>
      <trkpt lat="43.87043" lon="7.22597">
        <ele>442</ele>
        <time>2016-05-15T10:36:18.000Z</time>
      </trkpt>
      <trkpt lat="43.87043" lon="7.22596">
        <ele>442</ele>
        <time>2016-05-15T10:36:19.000Z</time>
      </trkpt>
      <trkpt lat="43.8704" lon="7.22593">
        <ele>442</ele>
        <time>2016-05-15T10:36:22.000Z</time>
      </trkpt>
      <trkpt lat="43.87033" lon="7.22589">
        <ele>443</ele>
        <time>2016-05-15T10:36:28.000Z</time>
      </trkpt>
      <trkpt lat="43.87023" lon="7.22586">
        <ele>443</ele>
        <time>2016-05-15T10:36:36.000Z</time>
      </trkpt>
      <trkpt lat="43.87022" lon="7.22586">
        <ele>443</ele>
        <time>2016-05-15T10:36:37.000Z</time>
      </trkpt>
      <trkpt lat="43.87019" lon="7.22586">
        <ele>443</ele>
        <time>2016-05-15T10:36:40.000Z</time>
      </trkpt>
      <trkpt lat="43.87017" lon="7.22585">
        <ele>443</ele>
        <time>2016-05-15T10:36:42.000Z</time>
      </trkpt>
      <trkpt lat="43.87016" lon="7.22585">
        <ele>443</ele>
        <time>2016-05-15T10:36:43.000Z</time>
      </trkpt>
      <trkpt lat="43.87009" lon="7.22587">
        <ele>443</ele>
        <time>2016-05-15T10:36:49.000Z</time>
      </trkpt>
      <trkpt lat="43.87008" lon="7.22587">
        <ele>443</ele>
        <time>2016-05-15T10:36:50.000Z</time>
      </trkpt>
      <trkpt lat="43.87001" lon="7.22588">
        <ele>442</ele>
        <time>2016-05-15T10:36:56.000Z</time>
      </trkpt>
      <trkpt lat="43.86997" lon="7.2259">
        <ele>445</ele>
        <time>2016-05-15T10:36:59.000Z</time>
      </trkpt>
      <trkpt lat="43.86995" lon="7.22591">
        <ele>445</ele>
        <time>2016-05-15T10:37:01.000Z</time>
      </trkpt>
      <trkpt lat="43.86994" lon="7.22592">
        <ele>446</ele>
        <time>2016-05-15T10:37:03.000Z</time>
      </trkpt>
      <trkpt lat="43.86995" lon="7.22593">
        <ele>446</ele>
        <time>2016-05-15T10:37:05.000Z</time>
      </trkpt>
      <trkpt lat="43.86998" lon="7.22594">
        <ele>446</ele>
        <time>2016-05-15T10:37:07.000Z</time>
      </trkpt>
      <trkpt lat="43.87004" lon="7.22594">
        <ele>443</ele>
        <time>2016-05-15T10:37:13.000Z</time>
      </trkpt>
      <trkpt lat="43.87007" lon="7.22596">
        <ele>444</ele>
        <time>2016-05-15T10:37:16.000Z</time>
      </trkpt>
      <trkpt lat="43.87008" lon="7.226">
        <ele>445</ele>
        <time>2016-05-15T10:37:19.000Z</time>
      </trkpt>
      <trkpt lat="43.8701" lon="7.22604">
        <ele>445</ele>
        <time>2016-05-15T10:37:22.000Z</time>
      </trkpt>
      <trkpt lat="43.87014" lon="7.22607">
        <ele>446</ele>
        <time>2016-05-15T10:37:26.000Z</time>
      </trkpt>
      <trkpt lat="43.87016" lon="7.2261">
        <ele>446</ele>
        <time>2016-05-15T10:37:29.000Z</time>
      </trkpt>
      <trkpt lat="43.87018" lon="7.22613">
        <ele>447</ele>
        <time>2016-05-15T10:37:33.000Z</time>
      </trkpt>
      <trkpt lat="43.87018" lon="7.22614">
        <ele>447</ele>
        <time>2016-05-15T10:37:34.000Z</time>
      </trkpt>
      <trkpt lat="43.87019" lon="7.22615">
        <ele>447</ele>
        <time>2016-05-15T10:37:35.000Z</time>
      </trkpt>
      <trkpt lat="43.87019" lon="7.22621">
        <ele>448</ele>
        <time>2016-05-15T10:37:39.000Z</time>
      </trkpt>
      <trkpt lat="43.87019" lon="7.22621">
        <ele>448</ele>
        <time>2016-05-15T10:37:40.000Z</time>
      </trkpt>
      <trkpt lat="43.87015" lon="7.22618">
        <ele>448</ele>
        <time>2016-05-15T10:37:44.000Z</time>
      </trkpt>
      <trkpt lat="43.87013" lon="7.22616">
        <ele>448</ele>
        <time>2016-05-15T10:37:48.000Z</time>
      </trkpt>
      <trkpt lat="43.87012" lon="7.22616">
        <ele>448</ele>
        <time>2016-05-15T10:37:49.000Z</time>
      </trkpt>
      <trkpt lat="43.87008" lon="7.22616">
        <ele>448</ele>
        <time>2016-05-15T10:37:56.000Z</time>
      </trkpt>
      <trkpt lat="43.87007" lon="7.22616">
        <ele>448</ele>
        <time>2016-05-15T10:37:57.000Z</time>
      </trkpt>
      <trkpt lat="43.87002" lon="7.22615">
        <ele>448</ele>
        <time>2016-05-15T10:38:03.000Z</time>
      </trkpt>
      <trkpt lat="43.87001" lon="7.22614">
        <ele>448</ele>
        <time>2016-05-15T10:38:05.000Z</time>
      </trkpt>
      <trkpt lat="43.86996" lon="7.22613">
        <ele>452</ele>
        <time>2016-05-15T10:38:12.000Z</time>
      </trkpt>
      <trkpt lat="43.86996" lon="7.22613">
        <ele>452</ele>
        <time>2016-05-15T10:38:13.000Z</time>
      </trkpt>
      <trkpt lat="43.86993" lon="7.22613">
        <ele>452</ele>
        <time>2016-05-15T10:38:17.000Z</time>
      </trkpt>
      <trkpt lat="43.8699" lon="7.22614">
        <ele>453</ele>
        <time>2016-05-15T10:38:21.000Z</time>
      </trkpt>
      <trkpt lat="43.86987" lon="7.22615">
        <ele>453</ele>
        <time>2016-05-15T10:38:25.000Z</time>
      </trkpt>
      <trkpt lat="43.86987" lon="7.22616">
        <ele>453</ele>
        <time>2016-05-15T10:38:26.000Z</time>
      </trkpt>
      <trkpt lat="43.86985" lon="7.22616">
        <ele>453</ele>
        <time>2016-05-15T10:38:28.000Z</time>
      </trkpt>
      <trkpt lat="43.86981" lon="7.22618">
        <ele>454</ele>
        <time>2016-05-15T10:38:34.000Z</time>
      </trkpt>
      <trkpt lat="43.8698" lon="7.22618">
        <ele>454</ele>
        <time>2016-05-15T10:38:35.000Z</time>
      </trkpt>
      <trkpt lat="43.86978" lon="7.22618">
        <ele>454</ele>
        <time>2016-05-15T10:38:37.000Z</time>
      </trkpt>
      <trkpt lat="43.86976" lon="7.22619">
        <ele>454</ele>
        <time>2016-05-15T10:38:40.000Z</time>
      </trkpt>
      <trkpt lat="43.86972" lon="7.2262">
        <ele>454</ele>
        <time>2016-05-15T10:38:45.000Z</time>
      </trkpt>
      <trkpt lat="43.86971" lon="7.2262">
        <ele>454</ele>
        <time>2016-05-15T10:38:47.000Z</time>
      </trkpt>
      <trkpt lat="43.86966" lon="7.22622">
        <ele>455</ele>
        <time>2016-05-15T10:38:54.000Z</time>
      </trkpt>
      <trkpt lat="43.86964" lon="7.22623">
        <ele>455</ele>
        <time>2016-05-15T10:38:56.000Z</time>
      </trkpt>
      <trkpt lat="43.8696" lon="7.22624">
        <ele>455</ele>
        <time>2016-05-15T10:39:01.000Z</time>
      </trkpt>
      <trkpt lat="43.8696" lon="7.22625">
        <ele>455</ele>
        <time>2016-05-15T10:39:02.000Z</time>
      </trkpt>
      <trkpt lat="43.86959" lon="7.22626">
        <ele>455</ele>
        <time>2016-05-15T10:39:03.000Z</time>
      </trkpt>
      <trkpt lat="43.86955" lon="7.22627">
        <ele>456</ele>
        <time>2016-05-15T10:39:08.000Z</time>
      </trkpt>
      <trkpt lat="43.86954" lon="7.22628">
        <ele>456</ele>
        <time>2016-05-15T10:39:09.000Z</time>
      </trkpt>
      <trkpt lat="43.8695" lon="7.2263">
        <ele>456</ele>
        <time>2016-05-15T10:39:15.000Z</time>
      </trkpt>
      <trkpt lat="43.86948" lon="7.22631">
        <ele>456</ele>
        <time>2016-05-15T10:39:17.000Z</time>
      </trkpt>
      <trkpt lat="43.86945" lon="7.22631">
        <ele>456</ele>
        <time>2016-05-15T10:39:20.000Z</time>
      </trkpt>
      <trkpt lat="43.86944" lon="7.22632">
        <ele>457</ele>
        <time>2016-05-15T10:39:22.000Z</time>
      </trkpt>
      <trkpt lat="43.86941" lon="7.22634">
        <ele>457</ele>
        <time>2016-05-15T10:39:26.000Z</time>
      </trkpt>
      <trkpt lat="43.86938" lon="7.22635">
        <ele>457</ele>
        <time>2016-05-15T10:39:30.000Z</time>
      </trkpt>
      <trkpt lat="43.86937" lon="7.22636">
        <ele>458</ele>
        <time>2016-05-15T10:39:33.000Z</time>
      </trkpt>
      <trkpt lat="43.86936" lon="7.22637">
        <ele>458</ele>
        <time>2016-05-15T10:39:36.000Z</time>
      </trkpt>
      <trkpt lat="43.86931" lon="7.22641">
        <ele>459</ele>
        <time>2016-05-15T10:39:42.000Z</time>
      </trkpt>
      <trkpt lat="43.86928" lon="7.22644">
        <ele>460</ele>
        <time>2016-05-15T10:39:44.000Z</time>
      </trkpt>
      <trkpt lat="43.86926" lon="7.22647">
        <ele>461</ele>
        <time>2016-05-15T10:39:47.000Z</time>
      </trkpt>
      <trkpt lat="43.86925" lon="7.22647">
        <ele>461</ele>
        <time>2016-05-15T10:39:48.000Z</time>
      </trkpt>
      <trkpt lat="43.86923" lon="7.22648">
        <ele>462</ele>
        <time>2016-05-15T10:39:49.000Z</time>
      </trkpt>
      <trkpt lat="43.86918" lon="7.22653">
        <ele>464</ele>
        <time>2016-05-15T10:39:54.000Z</time>
      </trkpt>
      <trkpt lat="43.86914" lon="7.22661">
        <ele>468</ele>
        <time>2016-05-15T10:39:59.000Z</time>
      </trkpt>
      <trkpt lat="43.8691" lon="7.22671">
        <ele>473</ele>
        <time>2016-05-15T10:40:04.000Z</time>
      </trkpt>
      <trkpt lat="43.86909" lon="7.22673">
        <ele>474</ele>
        <time>2016-05-15T10:40:05.000Z</time>
      </trkpt>
      <trkpt lat="43.86906" lon="7.22675">
        <ele>474</ele>
        <time>2016-05-15T10:40:08.000Z</time>
      </trkpt>
      <trkpt lat="43.86905" lon="7.22676">
        <ele>475</ele>
        <time>2016-05-15T10:40:09.000Z</time>
      </trkpt>
      <trkpt lat="43.86904" lon="7.22678">
        <ele>475</ele>
        <time>2016-05-15T10:40:10.000Z</time>
      </trkpt>
      <trkpt lat="43.86901" lon="7.22679">
        <ele>475</ele>
        <time>2016-05-15T10:40:13.000Z</time>
      </trkpt>
      <trkpt lat="43.86897" lon="7.22681">
        <ele>476</ele>
        <time>2016-05-15T10:40:16.000Z</time>
      </trkpt>
      <trkpt lat="43.86896" lon="7.22682">
        <ele>476</ele>
        <time>2016-05-15T10:40:17.000Z</time>
      </trkpt>
      <trkpt lat="43.86889" lon="7.22686">
        <ele>477</ele>
        <time>2016-05-15T10:40:23.000Z</time>
      </trkpt>
      <trkpt lat="43.86888" lon="7.22687">
        <ele>477</ele>
        <time>2016-05-15T10:40:24.000Z</time>
      </trkpt>
      <trkpt lat="43.86886" lon="7.22689">
        <ele>477</ele>
        <time>2016-05-15T10:40:26.000Z</time>
      </trkpt>
      <trkpt lat="43.86882" lon="7.22692">
        <ele>477</ele>
        <time>2016-05-15T10:40:30.000Z</time>
      </trkpt>
      <trkpt lat="43.86879" lon="7.22694">
        <ele>477</ele>
        <time>2016-05-15T10:40:32.000Z</time>
      </trkpt>
      <trkpt lat="43.86873" lon="7.22698">
        <ele>477</ele>
        <time>2016-05-15T10:40:37.000Z</time>
      </trkpt>
      <trkpt lat="43.86867" lon="7.22704">
        <ele>477</ele>
        <time>2016-05-15T10:40:42.000Z</time>
      </trkpt>
      <trkpt lat="43.86863" lon="7.22709">
        <ele>478</ele>
        <time>2016-05-15T10:40:46.000Z</time>
      </trkpt>
      <trkpt lat="43.8686" lon="7.22718">
        <ele>479</ele>
        <time>2016-05-15T10:40:50.000Z</time>
      </trkpt>
      <trkpt lat="43.8686" lon="7.22719">
        <ele>479</ele>
        <time>2016-05-15T10:40:51.000Z</time>
      </trkpt>
      <trkpt lat="43.86861" lon="7.22728">
        <ele>480</ele>
        <time>2016-05-15T10:40:56.000Z</time>
      </trkpt>
      <trkpt lat="43.86862" lon="7.22733">
        <ele>480</ele>
        <time>2016-05-15T10:40:58.000Z</time>
      </trkpt>
      <trkpt lat="43.86862" lon="7.22741">
        <ele>481</ele>
        <time>2016-05-15T10:41:02.000Z</time>
      </trkpt>
      <trkpt lat="43.86861" lon="7.22744">
        <ele>481</ele>
        <time>2016-05-15T10:41:04.000Z</time>
      </trkpt>
      <trkpt lat="43.86858" lon="7.22748">
        <ele>481</ele>
        <time>2016-05-15T10:41:07.000Z</time>
      </trkpt>
      <trkpt lat="43.86855" lon="7.22751">
        <ele>494</ele>
        <time>2016-05-15T10:41:10.000Z</time>
      </trkpt>
      <trkpt lat="43.86849" lon="7.22755">
        <ele>492</ele>
        <time>2016-05-15T10:41:15.000Z</time>
      </trkpt>
      <trkpt lat="43.86845" lon="7.22757">
        <ele>491</ele>
        <time>2016-05-15T10:41:18.000Z</time>
      </trkpt>
      <trkpt lat="43.86843" lon="7.22758">
        <ele>490</ele>
        <time>2016-05-15T10:41:21.000Z</time>
      </trkpt>
      <trkpt lat="43.86843" lon="7.22759">
        <ele>490</ele>
        <time>2016-05-15T10:41:23.000Z</time>
      </trkpt>
      <trkpt lat="43.8684" lon="7.22762">
        <ele>491</ele>
        <time>2016-05-15T10:41:27.000Z</time>
      </trkpt>
      <trkpt lat="43.86839" lon="7.22763">
        <ele>491</ele>
        <time>2016-05-15T10:41:29.000Z</time>
      </trkpt>
      <trkpt lat="43.86836" lon="7.22768">
        <ele>493</ele>
        <time>2016-05-15T10:41:34.000Z</time>
      </trkpt>
      <trkpt lat="43.86835" lon="7.22772">
        <ele>495</ele>
        <time>2016-05-15T10:41:38.000Z</time>
      </trkpt>
      <trkpt lat="43.86835" lon="7.22772">
        <ele>495</ele>
        <time>2016-05-15T10:41:39.000Z</time>
      </trkpt>
      <trkpt lat="43.86834" lon="7.22775">
        <ele>496</ele>
        <time>2016-05-15T10:41:43.000Z</time>
      </trkpt>
      <trkpt lat="43.86831" lon="7.22781">
        <ele>493</ele>
        <time>2016-05-15T10:41:47.000Z</time>
      </trkpt>
      <trkpt lat="43.86828" lon="7.22784">
        <ele>494</ele>
        <time>2016-05-15T10:41:50.000Z</time>
      </trkpt>
      <trkpt lat="43.86827" lon="7.22788">
        <ele>495</ele>
        <time>2016-05-15T10:41:56.000Z</time>
      </trkpt>
      <trkpt lat="43.86827" lon="7.22789">
        <ele>495</ele>
        <time>2016-05-15T10:42:03.000Z</time>
      </trkpt>
      <trkpt lat="43.86826" lon="7.2279">
        <ele>496</ele>
        <time>2016-05-15T10:42:05.000Z</time>
      </trkpt>
      <trkpt lat="43.86824" lon="7.22794">
        <ele>497</ele>
        <time>2016-05-15T10:42:08.000Z</time>
      </trkpt>
      <trkpt lat="43.8682" lon="7.228">
        <ele>498</ele>
        <time>2016-05-15T10:42:13.000Z</time>
      </trkpt>
      <trkpt lat="43.86817" lon="7.22804">
        <ele>499</ele>
        <time>2016-05-15T10:42:16.000Z</time>
      </trkpt>
      <trkpt lat="43.86811" lon="7.22812">
        <ele>500</ele>
        <time>2016-05-15T10:42:21.000Z</time>
      </trkpt>
      <trkpt lat="43.86809" lon="7.22814">
        <ele>500</ele>
        <time>2016-05-15T10:42:23.000Z</time>
      </trkpt>
      <trkpt lat="43.86806" lon="7.22815">
        <ele>500</ele>
        <time>2016-05-15T10:42:25.000Z</time>
      </trkpt>
      <trkpt lat="43.86801" lon="7.22819">
        <ele>501</ele>
        <time>2016-05-15T10:42:29.000Z</time>
      </trkpt>
      <trkpt lat="43.86798" lon="7.22822">
        <ele>501</ele>
        <time>2016-05-15T10:42:31.000Z</time>
      </trkpt>
      <trkpt lat="43.86794" lon="7.22825">
        <ele>501</ele>
        <time>2016-05-15T10:42:35.000Z</time>
      </trkpt>
      <trkpt lat="43.86791" lon="7.22827">
        <ele>501</ele>
        <time>2016-05-15T10:42:37.000Z</time>
      </trkpt>
      <trkpt lat="43.86789" lon="7.22827">
        <ele>501</ele>
        <time>2016-05-15T10:42:39.000Z</time>
      </trkpt>
      <trkpt lat="43.86787" lon="7.22827">
        <ele>501</ele>
        <time>2016-05-15T10:42:40.000Z</time>
      </trkpt>
      <trkpt lat="43.86782" lon="7.22825">
        <ele>501</ele>
        <time>2016-05-15T10:42:44.000Z</time>
      </trkpt>
      <trkpt lat="43.86781" lon="7.22824">
        <ele>501</ele>
        <time>2016-05-15T10:42:45.000Z</time>
      </trkpt>
      <trkpt lat="43.86777" lon="7.22823">
        <ele>501</ele>
        <time>2016-05-15T10:42:49.000Z</time>
      </trkpt>
      <trkpt lat="43.86774" lon="7.22825">
        <ele>502</ele>
        <time>2016-05-15T10:42:51.000Z</time>
      </trkpt>
      <trkpt lat="43.86772" lon="7.22825">
        <ele>502</ele>
        <time>2016-05-15T10:42:53.000Z</time>
      </trkpt>
      <trkpt lat="43.8677" lon="7.22826">
        <ele>502</ele>
        <time>2016-05-15T10:42:55.000Z</time>
      </trkpt>
      <trkpt lat="43.86766" lon="7.22827">
        <ele>503</ele>
        <time>2016-05-15T10:42:59.000Z</time>
      </trkpt>
      <trkpt lat="43.86764" lon="7.22827">
        <ele>503</ele>
        <time>2016-05-15T10:43:00.000Z</time>
      </trkpt>
      <trkpt lat="43.86758" lon="7.2283">
        <ele>505</ele>
        <time>2016-05-15T10:43:05.000Z</time>
      </trkpt>
      <trkpt lat="43.86757" lon="7.2283">
        <ele>505</ele>
        <time>2016-05-15T10:43:06.000Z</time>
      </trkpt>
      <trkpt lat="43.86752" lon="7.22832">
        <ele>507</ele>
        <time>2016-05-15T10:43:10.000Z</time>
      </trkpt>
      <trkpt lat="43.8675" lon="7.22832">
        <ele>508</ele>
        <time>2016-05-15T10:43:12.000Z</time>
      </trkpt>
      <trkpt lat="43.86749" lon="7.22832">
        <ele>508</ele>
        <time>2016-05-15T10:43:13.000Z</time>
      </trkpt>
      <trkpt lat="43.86746" lon="7.22835">
        <ele>511</ele>
        <time>2016-05-15T10:43:16.000Z</time>
      </trkpt>
      <trkpt lat="43.86745" lon="7.22836">
        <ele>511</ele>
        <time>2016-05-15T10:43:17.000Z</time>
      </trkpt>
      <trkpt lat="43.86743" lon="7.22837">
        <ele>512</ele>
        <time>2016-05-15T10:43:19.000Z</time>
      </trkpt>
      <trkpt lat="43.86743" lon="7.22838">
        <ele>512</ele>
        <time>2016-05-15T10:43:20.000Z</time>
      </trkpt>
      <trkpt lat="43.86739" lon="7.22842">
        <ele>515</ele>
        <time>2016-05-15T10:43:24.000Z</time>
      </trkpt>
      <trkpt lat="43.86736" lon="7.22843">
        <ele>516</ele>
        <time>2016-05-15T10:43:26.000Z</time>
      </trkpt>
      <trkpt lat="43.86727" lon="7.22847">
        <ele>518</ele>
        <time>2016-05-15T10:43:32.000Z</time>
      </trkpt>
      <trkpt lat="43.86721" lon="7.22845">
        <ele>518</ele>
        <time>2016-05-15T10:43:35.000Z</time>
      </trkpt>
      <trkpt lat="43.86718" lon="7.22842">
        <ele>518</ele>
        <time>2016-05-15T10:43:37.000Z</time>
      </trkpt>
      <trkpt lat="43.86704" lon="7.22828">
        <ele>507</ele>
        <time>2016-05-15T10:43:45.000Z</time>
      </trkpt>
      <trkpt lat="43.86691" lon="7.22821">
        <ele>508</ele>
        <time>2016-05-15T10:43:51.000Z</time>
      </trkpt>
      <trkpt lat="43.86687" lon="7.2282">
        <ele>508</ele>
        <time>2016-05-15T10:43:53.000Z</time>
      </trkpt>
      <trkpt lat="43.86668" lon="7.22823">
        <ele>510</ele>
        <time>2016-05-15T10:44:00.000Z</time>
      </trkpt>
      <trkpt lat="43.8665" lon="7.22833">
        <ele>516</ele>
        <time>2016-05-15T10:44:07.000Z</time>
      </trkpt>
      <trkpt lat="43.8663" lon="7.22852">
        <ele>524</ele>
        <time>2016-05-15T10:44:15.000Z</time>
      </trkpt>
      <trkpt lat="43.86619" lon="7.22864">
        <ele>526</ele>
        <time>2016-05-15T10:44:21.000Z</time>
      </trkpt>
      <trkpt lat="43.86612" lon="7.22875">
        <ele>527</ele>
        <time>2016-05-15T10:44:28.000Z</time>
      </trkpt>
      <trkpt lat="43.86612" lon="7.22876">
        <ele>527</ele>
        <time>2016-05-15T10:44:29.000Z</time>
      </trkpt>
      <trkpt lat="43.86611" lon="7.2288">
        <ele>527</ele>
        <time>2016-05-15T10:44:31.000Z</time>
      </trkpt>
      <trkpt lat="43.86609" lon="7.22884">
        <ele>528</ele>
        <time>2016-05-15T10:44:33.000Z</time>
      </trkpt>
      <trkpt lat="43.86607" lon="7.22888">
        <ele>528</ele>
        <time>2016-05-15T10:44:35.000Z</time>
      </trkpt>
      <trkpt lat="43.86605" lon="7.22892">
        <ele>528</ele>
        <time>2016-05-15T10:44:38.000Z</time>
      </trkpt>
      <trkpt lat="43.86605" lon="7.22893">
        <ele>528</ele>
        <time>2016-05-15T10:44:39.000Z</time>
      </trkpt>
      <trkpt lat="43.86603" lon="7.22896">
        <ele>529</ele>
        <time>2016-05-15T10:44:41.000Z</time>
      </trkpt>
      <trkpt lat="43.86602" lon="7.22898">
        <ele>529</ele>
        <time>2016-05-15T10:44:46.000Z</time>
      </trkpt>
      <trkpt lat="43.86602" lon="7.22902">
        <ele>529</ele>
        <time>2016-05-15T10:44:52.000Z</time>
      </trkpt>
      <trkpt lat="43.866" lon="7.22903">
        <ele>529</ele>
        <time>2016-05-15T10:44:54.000Z</time>
      </trkpt>
      <trkpt lat="43.86598" lon="7.22907">
        <ele>530</ele>
        <time>2016-05-15T10:45:00.000Z</time>
      </trkpt>
      <trkpt lat="43.86598" lon="7.22909">
        <ele>530</ele>
        <time>2016-05-15T10:45:03.000Z</time>
      </trkpt>
      <trkpt lat="43.86598" lon="7.22911">
        <ele>530</ele>
        <time>2016-05-15T10:45:07.000Z</time>
      </trkpt>
      <trkpt lat="43.86599" lon="7.22912">
        <ele>530</ele>
        <time>2016-05-15T10:45:08.000Z</time>
      </trkpt>
      <trkpt lat="43.86601" lon="7.22915">
        <ele>530</ele>
        <time>2016-05-15T10:45:14.000Z</time>
      </trkpt>
      <trkpt lat="43.86603" lon="7.22916">
        <ele>530</ele>
        <time>2016-05-15T10:45:21.000Z</time>
      </trkpt>
      <trkpt lat="43.86606" lon="7.22909">
        <ele>529</ele>
        <time>2016-05-15T10:45:27.000Z</time>
      </trkpt>
      <trkpt lat="43.86606" lon="7.22908">
        <ele>529</ele>
        <time>2016-05-15T10:45:28.000Z</time>
      </trkpt>
      <trkpt lat="43.86606" lon="7.22907">
        <ele>529</ele>
        <time>2016-05-15T10:45:29.000Z</time>
      </trkpt>
      <trkpt lat="43.86606" lon="7.22904">
        <ele>529</ele>
        <time>2016-05-15T10:45:34.000Z</time>
      </trkpt>
      <trkpt lat="43.86607" lon="7.22906">
        <ele>529</ele>
        <time>2016-05-15T10:45:55.000Z</time>
      </trkpt>
      <trkpt lat="43.86608" lon="7.22906">
        <ele>529</ele>
        <time>2016-05-15T10:46:14.000Z</time>
      </trkpt>
      <trkpt lat="43.86612" lon="7.22898">
        <ele>528</ele>
        <time>2016-05-15T10:46:21.000Z</time>
      </trkpt>
      <trkpt lat="43.86616" lon="7.22895">
        <ele>528</ele>
        <time>2016-05-15T10:46:28.000Z</time>
      </trkpt>
      <trkpt lat="43.86619" lon="7.22894">
        <ele>528</ele>
        <time>2016-05-15T10:46:36.000Z</time>
      </trkpt>
      <trkpt lat="43.8662" lon="7.22893">
        <ele>528</ele>
        <time>2016-05-15T10:46:38.000Z</time>
      </trkpt>
      <trkpt lat="43.86622" lon="7.22891">
        <ele>528</ele>
        <time>2016-05-15T10:46:41.000Z</time>
      </trkpt>
      <trkpt lat="43.86623" lon="7.2289">
        <ele>528</ele>
        <time>2016-05-15T10:46:46.000Z</time>
      </trkpt>
      <trkpt lat="43.86625" lon="7.22887">
        <ele>527</ele>
        <time>2016-05-15T10:46:50.000Z</time>
      </trkpt>
      <trkpt lat="43.86629" lon="7.22886">
        <ele>527</ele>
        <time>2016-05-15T10:46:55.000Z</time>
      </trkpt>
      <trkpt lat="43.86629" lon="7.22886">
        <ele>527</ele>
        <time>2016-05-15T10:46:57.000Z</time>
      </trkpt>
      <trkpt lat="43.86631" lon="7.22885">
        <ele>527</ele>
        <time>2016-05-15T10:47:00.000Z</time>
      </trkpt>
      <trkpt lat="43.86632" lon="7.22884">
        <ele>527</ele>
        <time>2016-05-15T10:47:01.000Z</time>
      </trkpt>
      <trkpt lat="43.86634" lon="7.22883">
        <ele>527</ele>
        <time>2016-05-15T10:47:04.000Z</time>
      </trkpt>
      <trkpt lat="43.86639" lon="7.22881">
        <ele>526</ele>
        <time>2016-05-15T10:47:11.000Z</time>
      </trkpt>
      <trkpt lat="43.86642" lon="7.22881">
        <ele>526</ele>
        <time>2016-05-15T10:47:15.000Z</time>
      </trkpt>
      <trkpt lat="43.86647" lon="7.22882">
        <ele>526</ele>
        <time>2016-05-15T10:47:21.000Z</time>
      </trkpt>
      <trkpt lat="43.86652" lon="7.22883">
        <ele>526</ele>
        <time>2016-05-15T10:47:28.000Z</time>
      </trkpt>
      <trkpt lat="43.86654" lon="7.22883">
        <ele>526</ele>
        <time>2016-05-15T10:47:30.000Z</time>
      </trkpt>
      <trkpt lat="43.86655" lon="7.22883">
        <ele>526</ele>
        <time>2016-05-15T10:47:31.000Z</time>
      </trkpt>
      <trkpt lat="43.86659" lon="7.22884">
        <ele>526</ele>
        <time>2016-05-15T10:47:36.000Z</time>
      </trkpt>
      <trkpt lat="43.86661" lon="7.22884">
        <ele>526</ele>
        <time>2016-05-15T10:47:38.000Z</time>
      </trkpt>
      <trkpt lat="43.86664" lon="7.22886">
        <ele>527</ele>
        <time>2016-05-15T10:47:41.000Z</time>
      </trkpt>
      <trkpt lat="43.86668" lon="7.22889">
        <ele>526</ele>
        <time>2016-05-15T10:47:47.000Z</time>
      </trkpt>
      <trkpt lat="43.86669" lon="7.22891">
        <ele>526</ele>
        <time>2016-05-15T10:47:53.000Z</time>
      </trkpt>
      <trkpt lat="43.86671" lon="7.22897">
        <ele>527</ele>
        <time>2016-05-15T10:47:58.000Z</time>
      </trkpt>
      <trkpt lat="43.86672" lon="7.22898">
        <ele>528</ele>
        <time>2016-05-15T10:47:59.000Z</time>
      </trkpt>
      <trkpt lat="43.86676" lon="7.22909">
        <ele>529</ele>
        <time>2016-05-15T10:48:05.000Z</time>
      </trkpt>
      <trkpt lat="43.8668" lon="7.22916">
        <ele>530</ele>
        <time>2016-05-15T10:48:09.000Z</time>
      </trkpt>
      <trkpt lat="43.86683" lon="7.22919">
        <ele>543</ele>
        <time>2016-05-15T10:48:12.000Z</time>
      </trkpt>
      <trkpt lat="43.86684" lon="7.22921">
        <ele>543</ele>
        <time>2016-05-15T10:48:13.000Z</time>
      </trkpt>
      <trkpt lat="43.86688" lon="7.22926">
        <ele>545</ele>
        <time>2016-05-15T10:48:15.000Z</time>
      </trkpt>
      <trkpt lat="43.86694" lon="7.22928">
        <ele>547</ele>
        <time>2016-05-15T10:48:17.000Z</time>
      </trkpt>
      <trkpt lat="43.86698" lon="7.22926">
        <ele>547</ele>
        <time>2016-05-15T10:48:20.000Z</time>
      </trkpt>
      <trkpt lat="43.86699" lon="7.22925">
        <ele>547</ele>
        <time>2016-05-15T10:48:21.000Z</time>
      </trkpt>
      <trkpt lat="43.867" lon="7.22924">
        <ele>547</ele>
        <time>2016-05-15T10:48:22.000Z</time>
      </trkpt>
      <trkpt lat="43.86705" lon="7.22914">
        <ele>528</ele>
        <time>2016-05-15T10:48:29.000Z</time>
      </trkpt>
      <trkpt lat="43.86708" lon="7.22911">
        <ele>528</ele>
        <time>2016-05-15T10:48:32.000Z</time>
      </trkpt>
      <trkpt lat="43.86712" lon="7.22907">
        <ele>528</ele>
        <time>2016-05-15T10:48:36.000Z</time>
      </trkpt>
      <trkpt lat="43.86715" lon="7.22906">
        <ele>528</ele>
        <time>2016-05-15T10:48:38.000Z</time>
      </trkpt>
      <trkpt lat="43.86719" lon="7.22904">
        <ele>528</ele>
        <time>2016-05-15T10:48:42.000Z</time>
      </trkpt>
      <trkpt lat="43.86724" lon="7.22902">
        <ele>529</ele>
        <time>2016-05-15T10:48:46.000Z</time>
      </trkpt>
      <trkpt lat="43.86728" lon="7.22902">
        <ele>529</ele>
        <time>2016-05-15T10:48:48.000Z</time>
      </trkpt>
      <trkpt lat="43.86732" lon="7.22905">
        <ele>531</ele>
        <time>2016-05-15T10:48:52.000Z</time>
      </trkpt>
      <trkpt lat="43.86733" lon="7.22906">
        <ele>531</ele>
        <time>2016-05-15T10:48:53.000Z</time>
      </trkpt>
      <trkpt lat="43.86734" lon="7.22907">
        <ele>532</ele>
        <time>2016-05-15T10:48:54.000Z</time>
      </trkpt>
      <trkpt lat="43.86735" lon="7.22908">
        <ele>532</ele>
        <time>2016-05-15T10:48:58.000Z</time>
      </trkpt>
      <trkpt lat="43.86735" lon="7.22908">
        <ele>532</ele>
        <time>2016-05-15T10:48:59.000Z</time>
      </trkpt>
      <trkpt lat="43.86737" lon="7.2291">
        <ele>533</ele>
        <time>2016-05-15T10:49:04.000Z</time>
      </trkpt>
      <trkpt lat="43.86742" lon="7.22911">
        <ele>535</ele>
        <time>2016-05-15T10:49:10.000Z</time>
      </trkpt>
      <trkpt lat="43.86747" lon="7.22911">
        <ele>537</ele>
        <time>2016-05-15T10:49:16.000Z</time>
      </trkpt>
      <trkpt lat="43.86749" lon="7.22911">
        <ele>537</ele>
        <time>2016-05-15T10:49:20.000Z</time>
      </trkpt>
      <trkpt lat="43.86756" lon="7.22912">
        <ele>538</ele>
        <time>2016-05-15T10:49:26.000Z</time>
      </trkpt>
      <trkpt lat="43.86761" lon="7.22911">
        <ele>536</ele>
        <time>2016-05-15T10:49:29.000Z</time>
      </trkpt>
      <trkpt lat="43.86764" lon="7.22909">
        <ele>535</ele>
        <time>2016-05-15T10:49:31.000Z</time>
      </trkpt>
      <trkpt lat="43.86775" lon="7.2291">
        <ele>534</ele>
        <time>2016-05-15T10:49:38.000Z</time>
      </trkpt>
      <trkpt lat="43.86776" lon="7.22912">
        <ele>534</ele>
        <time>2016-05-15T10:49:39.000Z</time>
      </trkpt>
      <trkpt lat="43.86778" lon="7.22914">
        <ele>534</ele>
        <time>2016-05-15T10:49:40.000Z</time>
      </trkpt>
      <trkpt lat="43.86781" lon="7.22915">
        <ele>534</ele>
        <time>2016-05-15T10:49:42.000Z</time>
      </trkpt>
      <trkpt lat="43.86785" lon="7.22917">
        <ele>557</ele>
        <time>2016-05-15T10:49:45.000Z</time>
      </trkpt>
      <trkpt lat="43.86788" lon="7.22919">
        <ele>557</ele>
        <time>2016-05-15T10:49:48.000Z</time>
      </trkpt>
      <trkpt lat="43.8679" lon="7.2292">
        <ele>558</ele>
        <time>2016-05-15T10:49:49.000Z</time>
      </trkpt>
      <trkpt lat="43.86794" lon="7.22921">
        <ele>558</ele>
        <time>2016-05-15T10:49:54.000Z</time>
      </trkpt>
      <trkpt lat="43.86794" lon="7.22921">
        <ele>558</ele>
        <time>2016-05-15T10:49:56.000Z</time>
      </trkpt>
      <trkpt lat="43.86798" lon="7.22923">
        <ele>559</ele>
        <time>2016-05-15T10:50:01.000Z</time>
      </trkpt>
      <trkpt lat="43.86801" lon="7.22923">
        <ele>559</ele>
        <time>2016-05-15T10:50:04.000Z</time>
      </trkpt>
      <trkpt lat="43.86803" lon="7.22923">
        <ele>559</ele>
        <time>2016-05-15T10:50:06.000Z</time>
      </trkpt>
      <trkpt lat="43.86805" lon="7.22923">
        <ele>559</ele>
        <time>2016-05-15T10:50:08.000Z</time>
      </trkpt>
      <trkpt lat="43.86807" lon="7.22924">
        <ele>559</ele>
        <time>2016-05-15T10:50:10.000Z</time>
      </trkpt>
      <trkpt lat="43.86812" lon="7.22922">
        <ele>558</ele>
        <time>2016-05-15T10:50:15.000Z</time>
      </trkpt>
      <trkpt lat="43.86818" lon="7.22922">
        <ele>558</ele>
        <time>2016-05-15T10:50:22.000Z</time>
      </trkpt>
      <trkpt lat="43.8682" lon="7.2292">
        <ele>557</ele>
        <time>2016-05-15T10:50:25.000Z</time>
      </trkpt>
      <trkpt lat="43.86825" lon="7.22919">
        <ele>556</ele>
        <time>2016-05-15T10:50:30.000Z</time>
      </trkpt>
      <trkpt lat="43.86825" lon="7.22919">
        <ele>556</ele>
        <time>2016-05-15T10:50:31.000Z</time>
      </trkpt>
      <trkpt lat="43.86832" lon="7.22916">
        <ele>551</ele>
        <time>2016-05-15T10:50:38.000Z</time>
      </trkpt>
      <trkpt lat="43.86837" lon="7.22913">
        <ele>550</ele>
        <time>2016-05-15T10:50:42.000Z</time>
      </trkpt>
      <trkpt lat="43.86851" lon="7.22909">
        <ele>546</ele>
        <time>2016-05-15T10:50:50.000Z</time>
      </trkpt>
      <trkpt lat="43.86852" lon="7.22908">
        <ele>545</ele>
        <time>2016-05-15T10:50:54.000Z</time>
      </trkpt>
      <trkpt lat="43.86853" lon="7.22908">
        <ele>545</ele>
        <time>2016-05-15T10:50:55.000Z</time>
      </trkpt>
      <trkpt lat="43.86857" lon="7.22908">
        <ele>545</ele>
        <time>2016-05-15T10:51:00.000Z</time>
      </trkpt>
      <trkpt lat="43.86859" lon="7.22908">
        <ele>545</ele>
        <time>2016-05-15T10:51:02.000Z</time>
      </trkpt>
      <trkpt lat="43.86861" lon="7.22908">
        <ele>544</ele>
        <time>2016-05-15T10:51:04.000Z</time>
      </trkpt>
      <trkpt lat="43.86864" lon="7.2291">
        <ele>545</ele>
        <time>2016-05-15T10:51:07.000Z</time>
      </trkpt>
      <trkpt lat="43.86867" lon="7.22911">
        <ele>545</ele>
        <time>2016-05-15T10:51:11.000Z</time>
      </trkpt>
      <trkpt lat="43.86869" lon="7.22911">
        <ele>545</ele>
        <time>2016-05-15T10:51:13.000Z</time>
      </trkpt>
      <trkpt lat="43.86871" lon="7.22911">
        <ele>545</ele>
        <time>2016-05-15T10:51:14.000Z</time>
      </trkpt>
      <trkpt lat="43.86872" lon="7.22912">
        <ele>545</ele>
        <time>2016-05-15T10:51:15.000Z</time>
      </trkpt>
      <trkpt lat="43.86879" lon="7.22915">
        <ele>546</ele>
        <time>2016-05-15T10:51:22.000Z</time>
      </trkpt>
      <trkpt lat="43.8688" lon="7.22916">
        <ele>546</ele>
        <time>2016-05-15T10:51:23.000Z</time>
      </trkpt>
      <trkpt lat="43.86886" lon="7.22919">
        <ele>567</ele>
        <time>2016-05-15T10:51:30.000Z</time>
      </trkpt>
      <trkpt lat="43.86889" lon="7.22919">
        <ele>566</ele>
        <time>2016-05-15T10:51:32.000Z</time>
      </trkpt>
      <trkpt lat="43.86894" lon="7.22919">
        <ele>566</ele>
        <time>2016-05-15T10:51:38.000Z</time>
      </trkpt>
      <trkpt lat="43.86895" lon="7.22919">
        <ele>566</ele>
        <time>2016-05-15T10:51:39.000Z</time>
      </trkpt>
      <trkpt lat="43.86901" lon="7.22918">
        <ele>565</ele>
        <time>2016-05-15T10:51:47.000Z</time>
      </trkpt>
      <trkpt lat="43.86902" lon="7.22918">
        <ele>565</ele>
        <time>2016-05-15T10:51:48.000Z</time>
      </trkpt>
      <trkpt lat="43.86908" lon="7.22916">
        <ele>554</ele>
        <time>2016-05-15T10:51:54.000Z</time>
      </trkpt>
      <trkpt lat="43.86914" lon="7.22918">
        <ele>561</ele>
        <time>2016-05-15T10:52:02.000Z</time>
      </trkpt>
      <trkpt lat="43.86917" lon="7.22918">
        <ele>561</ele>
        <time>2016-05-15T10:52:07.000Z</time>
      </trkpt>
      <trkpt lat="43.86918" lon="7.22918">
        <ele>561</ele>
        <time>2016-05-15T10:52:09.000Z</time>
      </trkpt>
      <trkpt lat="43.86919" lon="7.22918">
        <ele>562</ele>
        <time>2016-05-15T10:52:10.000Z</time>
      </trkpt>
      <trkpt lat="43.8692" lon="7.22918">
        <ele>562</ele>
        <time>2016-05-15T10:52:11.000Z</time>
      </trkpt>
      <trkpt lat="43.86924" lon="7.22914">
        <ele>557</ele>
        <time>2016-05-15T10:52:15.000Z</time>
      </trkpt>
      <trkpt lat="43.86927" lon="7.22912">
        <ele>556</ele>
        <time>2016-05-15T10:52:19.000Z</time>
      </trkpt>
      <trkpt lat="43.8693" lon="7.22909">
        <ele>555</ele>
        <time>2016-05-15T10:52:25.000Z</time>
      </trkpt>
      <trkpt lat="43.86931" lon="7.22908">
        <ele>555</ele>
        <time>2016-05-15T10:52:27.000Z</time>
      </trkpt>
      <trkpt lat="43.86933" lon="7.22907">
        <ele>554</ele>
        <time>2016-05-15T10:52:31.000Z</time>
      </trkpt>
      <trkpt lat="43.86934" lon="7.22906">
        <ele>554</ele>
        <time>2016-05-15T10:52:32.000Z</time>
      </trkpt>
      <trkpt lat="43.86938" lon="7.22902">
        <ele>553</ele>
        <time>2016-05-15T10:52:38.000Z</time>
      </trkpt>
      <trkpt lat="43.86939" lon="7.229">
        <ele>553</ele>
        <time>2016-05-15T10:52:40.000Z</time>
      </trkpt>
      <trkpt lat="43.86942" lon="7.22898">
        <ele>552</ele>
        <time>2016-05-15T10:52:44.000Z</time>
      </trkpt>
      <trkpt lat="43.86943" lon="7.22897">
        <ele>552</ele>
        <time>2016-05-15T10:52:45.000Z</time>
      </trkpt>
      <trkpt lat="43.86946" lon="7.22896">
        <ele>552</ele>
        <time>2016-05-15T10:52:47.000Z</time>
      </trkpt>
      <trkpt lat="43.86948" lon="7.22896">
        <ele>552</ele>
        <time>2016-05-15T10:52:48.000Z</time>
      </trkpt>
      <trkpt lat="43.86952" lon="7.22899">
        <ele>552</ele>
        <time>2016-05-15T10:52:50.000Z</time>
      </trkpt>
      <trkpt lat="43.86954" lon="7.22905">
        <ele>552</ele>
        <time>2016-05-15T10:52:53.000Z</time>
      </trkpt>
      <trkpt lat="43.86954" lon="7.22906">
        <ele>553</ele>
        <time>2016-05-15T10:52:54.000Z</time>
      </trkpt>
      <trkpt lat="43.86954" lon="7.22908">
        <ele>553</ele>
        <time>2016-05-15T10:52:55.000Z</time>
      </trkpt>
      <trkpt lat="43.86953" lon="7.22911">
        <ele>553</ele>
        <time>2016-05-15T10:52:59.000Z</time>
      </trkpt>
      <trkpt lat="43.86952" lon="7.22915">
        <ele>553</ele>
        <time>2016-05-15T10:53:02.000Z</time>
      </trkpt>
      <trkpt lat="43.86951" lon="7.22922">
        <ele>570</ele>
        <time>2016-05-15T10:53:08.000Z</time>
      </trkpt>
      <trkpt lat="43.86951" lon="7.22923">
        <ele>570</ele>
        <time>2016-05-15T10:53:09.000Z</time>
      </trkpt>
      <trkpt lat="43.86951" lon="7.22931">
        <ele>571</ele>
        <time>2016-05-15T10:53:17.000Z</time>
      </trkpt>
      <trkpt lat="43.86951" lon="7.22934">
        <ele>571</ele>
        <time>2016-05-15T10:53:20.000Z</time>
      </trkpt>
      <trkpt lat="43.86951" lon="7.22936">
        <ele>572</ele>
        <time>2016-05-15T10:53:23.000Z</time>
      </trkpt>
      <trkpt lat="43.86951" lon="7.22936">
        <ele>572</ele>
        <time>2016-05-15T10:53:25.000Z</time>
      </trkpt>
      <trkpt lat="43.8695" lon="7.22939">
        <ele>572</ele>
        <time>2016-05-15T10:53:28.000Z</time>
      </trkpt>
      <trkpt lat="43.8695" lon="7.22941">
        <ele>572</ele>
        <time>2016-05-15T10:53:29.000Z</time>
      </trkpt>
      <trkpt lat="43.86948" lon="7.2295">
        <ele>574</ele>
        <time>2016-05-15T10:53:34.000Z</time>
      </trkpt>
      <trkpt lat="43.86944" lon="7.22954">
        <ele>575</ele>
        <time>2016-05-15T10:53:38.000Z</time>
      </trkpt>
      <trkpt lat="43.86941" lon="7.22956">
        <ele>575</ele>
        <time>2016-05-15T10:53:40.000Z</time>
      </trkpt>
      <trkpt lat="43.86933" lon="7.22959">
        <ele>576</ele>
        <time>2016-05-15T10:53:43.000Z</time>
      </trkpt>
      <trkpt lat="43.8693" lon="7.22958">
        <ele>576</ele>
        <time>2016-05-15T10:53:44.000Z</time>
      </trkpt>
      <trkpt lat="43.86921" lon="7.22959">
        <ele>576</ele>
        <time>2016-05-15T10:53:47.000Z</time>
      </trkpt>
      <trkpt lat="43.86919" lon="7.2296">
        <ele>576</ele>
        <time>2016-05-15T10:53:48.000Z</time>
      </trkpt>
      <trkpt lat="43.86905" lon="7.22963">
        <ele>575</ele>
        <time>2016-05-15T10:53:53.000Z</time>
      </trkpt>
      <trkpt lat="43.86893" lon="7.22961">
        <ele>574</ele>
        <time>2016-05-15T10:53:57.000Z</time>
      </trkpt>
      <trkpt lat="43.86891" lon="7.22961">
        <ele>573</ele>
        <time>2016-05-15T10:53:58.000Z</time>
      </trkpt>
      <trkpt lat="43.86883" lon="7.22962">
        <ele>573</ele>
        <time>2016-05-15T10:54:02.000Z</time>
      </trkpt>
      <trkpt lat="43.86876" lon="7.22964">
        <ele>573</ele>
        <time>2016-05-15T10:54:07.000Z</time>
      </trkpt>
      <trkpt lat="43.86875" lon="7.22964">
        <ele>573</ele>
        <time>2016-05-15T10:54:08.000Z</time>
      </trkpt>
      <trkpt lat="43.8687" lon="7.22964">
        <ele>573</ele>
        <time>2016-05-15T10:54:11.000Z</time>
      </trkpt>
      <trkpt lat="43.86868" lon="7.22966">
        <ele>573</ele>
        <time>2016-05-15T10:54:12.000Z</time>
      </trkpt>
      <trkpt lat="43.8686" lon="7.22973">
        <ele>575</ele>
        <time>2016-05-15T10:54:17.000Z</time>
      </trkpt>
      <trkpt lat="43.86856" lon="7.22976">
        <ele>575</ele>
        <time>2016-05-15T10:54:20.000Z</time>
      </trkpt>
      <trkpt lat="43.86852" lon="7.22978">
        <ele>576</ele>
        <time>2016-05-15T10:54:22.000Z</time>
      </trkpt>
      <trkpt lat="43.86846" lon="7.22983">
        <ele>577</ele>
        <time>2016-05-15T10:54:26.000Z</time>
      </trkpt>
      <trkpt lat="43.86844" lon="7.22983">
        <ele>578</ele>
        <time>2016-05-15T10:54:27.000Z</time>
      </trkpt>
      <trkpt lat="43.86838" lon="7.2299">
        <ele>580</ele>
        <time>2016-05-15T10:54:31.000Z</time>
      </trkpt>
      <trkpt lat="43.86836" lon="7.22992">
        <ele>581</ele>
        <time>2016-05-15T10:54:32.000Z</time>
      </trkpt>
      <trkpt lat="43.86833" lon="7.22993">
        <ele>580</ele>
        <time>2016-05-15T10:54:34.000Z</time>
      </trkpt>
      <trkpt lat="43.86829" lon="7.22993">
        <ele>579</ele>
        <time>2016-05-15T10:54:36.000Z</time>
      </trkpt>
      <trkpt lat="43.86826" lon="7.22994">
        <ele>578</ele>
        <time>2016-05-15T10:54:38.000Z</time>
      </trkpt>
      <trkpt lat="43.86822" lon="7.22996">
        <ele>577</ele>
        <time>2016-05-15T10:54:40.000Z</time>
      </trkpt>
      <trkpt lat="43.86819" lon="7.22996">
        <ele>576</ele>
        <time>2016-05-15T10:54:42.000Z</time>
      </trkpt>
      <trkpt lat="43.86805" lon="7.23">
        <ele>591</ele>
        <time>2016-05-15T10:54:49.000Z</time>
      </trkpt>
      <trkpt lat="43.86803" lon="7.23">
        <ele>591</ele>
        <time>2016-05-15T10:54:50.000Z</time>
      </trkpt>
      <trkpt lat="43.86795" lon="7.23003">
        <ele>591</ele>
        <time>2016-05-15T10:54:55.000Z</time>
      </trkpt>
      <trkpt lat="43.86793" lon="7.23004">
        <ele>590</ele>
        <time>2016-05-15T10:54:56.000Z</time>
      </trkpt>
      <trkpt lat="43.86786" lon="7.2301">
        <ele>590</ele>
        <time>2016-05-15T10:55:01.000Z</time>
      </trkpt>
      <trkpt lat="43.86784" lon="7.23012">
        <ele>590</ele>
        <time>2016-05-15T10:55:03.000Z</time>
      </trkpt>
      <trkpt lat="43.86783" lon="7.23014">
        <ele>590</ele>
        <time>2016-05-15T10:55:07.000Z</time>
      </trkpt>
      <trkpt lat="43.86781" lon="7.2302">
        <ele>591</ele>
        <time>2016-05-15T10:55:13.000Z</time>
      </trkpt>
      <trkpt lat="43.8678" lon="7.23021">
        <ele>591</ele>
        <time>2016-05-15T10:55:15.000Z</time>
      </trkpt>
      <trkpt lat="43.86779" lon="7.23022">
        <ele>591</ele>
        <time>2016-05-15T10:55:19.000Z</time>
      </trkpt>
      <trkpt lat="43.86779" lon="7.23022">
        <ele>591</ele>
        <time>2016-05-15T10:55:20.000Z</time>
      </trkpt>
      <trkpt lat="43.86774" lon="7.23027">
        <ele>592</ele>
        <time>2016-05-15T10:55:26.000Z</time>
      </trkpt>
      <trkpt lat="43.8677" lon="7.23033">
        <ele>592</ele>
        <time>2016-05-15T10:55:30.000Z</time>
      </trkpt>
      <trkpt lat="43.86767" lon="7.23037">
        <ele>593</ele>
        <time>2016-05-15T10:55:33.000Z</time>
      </trkpt>
      <trkpt lat="43.86765" lon="7.23037">
        <ele>593</ele>
        <time>2016-05-15T10:55:34.000Z</time>
      </trkpt>
      <trkpt lat="43.86761" lon="7.2304">
        <ele>593</ele>
        <time>2016-05-15T10:55:38.000Z</time>
      </trkpt>
      <trkpt lat="43.86761" lon="7.23042">
        <ele>594</ele>
        <time>2016-05-15T10:55:39.000Z</time>
      </trkpt>
      <trkpt lat="43.86759" lon="7.23043">
        <ele>594</ele>
        <time>2016-05-15T10:55:41.000Z</time>
      </trkpt>
      <trkpt lat="43.86758" lon="7.23045">
        <ele>594</ele>
        <time>2016-05-15T10:55:46.000Z</time>
      </trkpt>
      <trkpt lat="43.86754" lon="7.23051">
        <ele>595</ele>
        <time>2016-05-15T10:55:51.000Z</time>
      </trkpt>
      <trkpt lat="43.86751" lon="7.23055">
        <ele>596</ele>
        <time>2016-05-15T10:55:54.000Z</time>
      </trkpt>
      <trkpt lat="43.86748" lon="7.23059">
        <ele>589</ele>
        <time>2016-05-15T10:55:57.000Z</time>
      </trkpt>
      <trkpt lat="43.86745" lon="7.23062">
        <ele>589</ele>
        <time>2016-05-15T10:56:00.000Z</time>
      </trkpt>
      <trkpt lat="43.86742" lon="7.23066">
        <ele>590</ele>
        <time>2016-05-15T10:56:03.000Z</time>
      </trkpt>
      <trkpt lat="43.86741" lon="7.23068">
        <ele>591</ele>
        <time>2016-05-15T10:56:04.000Z</time>
      </trkpt>
      <trkpt lat="43.86738" lon="7.23072">
        <ele>591</ele>
        <time>2016-05-15T10:56:07.000Z</time>
      </trkpt>
      <trkpt lat="43.86737" lon="7.23073">
        <ele>591</ele>
        <time>2016-05-15T10:56:08.000Z</time>
      </trkpt>
      <trkpt lat="43.86736" lon="7.23073">
        <ele>591</ele>
        <time>2016-05-15T10:56:09.000Z</time>
      </trkpt>
      <trkpt lat="43.86728" lon="7.23077">
        <ele>589</ele>
        <time>2016-05-15T10:56:12.000Z</time>
      </trkpt>
      <trkpt lat="43.86714" lon="7.23085">
        <ele>601</ele>
        <time>2016-05-15T10:56:17.000Z</time>
      </trkpt>
      <trkpt lat="43.86703" lon="7.23091">
        <ele>599</ele>
        <time>2016-05-15T10:56:22.000Z</time>
      </trkpt>
      <trkpt lat="43.86694" lon="7.23097">
        <ele>598</ele>
        <time>2016-05-15T10:56:28.000Z</time>
      </trkpt>
      <trkpt lat="43.86688" lon="7.23104">
        <ele>598</ele>
        <time>2016-05-15T10:56:32.000Z</time>
      </trkpt>
      <trkpt lat="43.86685" lon="7.23109">
        <ele>598</ele>
        <time>2016-05-15T10:56:34.000Z</time>
      </trkpt>
      <trkpt lat="43.8668" lon="7.23122">
        <ele>600</ele>
        <time>2016-05-15T10:56:37.000Z</time>
      </trkpt>
      <trkpt lat="43.86676" lon="7.23132">
        <ele>601</ele>
        <time>2016-05-15T10:56:39.000Z</time>
      </trkpt>
      <trkpt lat="43.86672" lon="7.23141">
        <ele>602</ele>
        <time>2016-05-15T10:56:41.000Z</time>
      </trkpt>
      <trkpt lat="43.86669" lon="7.23151">
        <ele>602</ele>
        <time>2016-05-15T10:56:44.000Z</time>
      </trkpt>
      <trkpt lat="43.86665" lon="7.23157">
        <ele>597</ele>
        <time>2016-05-15T10:56:46.000Z</time>
      </trkpt>
      <trkpt lat="43.86655" lon="7.23176">
        <ele>605</ele>
        <time>2016-05-15T10:56:51.000Z</time>
      </trkpt>
      <trkpt lat="43.86653" lon="7.23181">
        <ele>606</ele>
        <time>2016-05-15T10:56:52.000Z</time>
      </trkpt>
      <trkpt lat="43.86649" lon="7.23189">
        <ele>608</ele>
        <time>2016-05-15T10:56:55.000Z</time>
      </trkpt>
      <trkpt lat="43.86634" lon="7.23207">
        <ele>610</ele>
        <time>2016-05-15T10:57:01.000Z</time>
      </trkpt>
      <trkpt lat="43.86629" lon="7.23216">
        <ele>611</ele>
        <time>2016-05-15T10:57:07.000Z</time>
      </trkpt>
      <trkpt lat="43.86628" lon="7.23216">
        <ele>611</ele>
        <time>2016-05-15T10:57:08.000Z</time>
      </trkpt>
      <trkpt lat="43.86618" lon="7.23213">
        <ele>610</ele>
        <time>2016-05-15T10:57:11.000Z</time>
      </trkpt>
      <trkpt lat="43.86612" lon="7.23212">
        <ele>610</ele>
        <time>2016-05-15T10:57:15.000Z</time>
      </trkpt>
      <trkpt lat="43.86611" lon="7.23214">
        <ele>610</ele>
        <time>2016-05-15T10:57:16.000Z</time>
      </trkpt>
      <trkpt lat="43.86604" lon="7.23213">
        <ele>610</ele>
        <time>2016-05-15T10:57:20.000Z</time>
      </trkpt>
      <trkpt lat="43.86596" lon="7.23215">
        <ele>610</ele>
        <time>2016-05-15T10:57:25.000Z</time>
      </trkpt>
      <trkpt lat="43.86595" lon="7.23215">
        <ele>610</ele>
        <time>2016-05-15T10:57:26.000Z</time>
      </trkpt>
      <trkpt lat="43.86591" lon="7.23216">
        <ele>610</ele>
        <time>2016-05-15T10:57:29.000Z</time>
      </trkpt>
      <trkpt lat="43.86587" lon="7.23218">
        <ele>610</ele>
        <time>2016-05-15T10:57:31.000Z</time>
      </trkpt>
      <trkpt lat="43.86587" lon="7.23218">
        <ele>610</ele>
        <time>2016-05-15T10:57:32.000Z</time>
      </trkpt>
      <trkpt lat="43.86586" lon="7.23219">
        <ele>610</ele>
        <time>2016-05-15T10:57:35.000Z</time>
      </trkpt>
      <trkpt lat="43.86585" lon="7.23219">
        <ele>610</ele>
        <time>2016-05-15T10:57:40.000Z</time>
      </trkpt>
      <trkpt lat="43.86579" lon="7.23221">
        <ele>607</ele>
        <time>2016-05-15T10:57:48.000Z</time>
      </trkpt>
      <trkpt lat="43.86578" lon="7.23221">
        <ele>607</ele>
        <time>2016-05-15T10:57:49.000Z</time>
      </trkpt>
      <trkpt lat="43.86572" lon="7.23222">
        <ele>607</ele>
        <time>2016-05-15T10:57:56.000Z</time>
      </trkpt>
      <trkpt lat="43.86572" lon="7.23222">
        <ele>607</ele>
        <time>2016-05-15T10:57:57.000Z</time>
      </trkpt>
      <trkpt lat="43.86569" lon="7.23223">
        <ele>607</ele>
        <time>2016-05-15T10:58:01.000Z</time>
      </trkpt>
      <trkpt lat="43.86565" lon="7.23224">
        <ele>607</ele>
        <time>2016-05-15T10:58:06.000Z</time>
      </trkpt>
      <trkpt lat="43.86564" lon="7.23225">
        <ele>607</ele>
        <time>2016-05-15T10:58:08.000Z</time>
      </trkpt>
      <trkpt lat="43.86561" lon="7.23226">
        <ele>607</ele>
        <time>2016-05-15T10:58:14.000Z</time>
      </trkpt>
      <trkpt lat="43.86559" lon="7.23227">
        <ele>607</ele>
        <time>2016-05-15T10:58:15.000Z</time>
      </trkpt>
      <trkpt lat="43.86556" lon="7.23228">
        <ele>607</ele>
        <time>2016-05-15T10:58:20.000Z</time>
      </trkpt>
      <trkpt lat="43.86556" lon="7.23229">
        <ele>607</ele>
        <time>2016-05-15T10:58:21.000Z</time>
      </trkpt>
      <trkpt lat="43.86552" lon="7.23231">
        <ele>607</ele>
        <time>2016-05-15T10:58:25.000Z</time>
      </trkpt>
      <trkpt lat="43.86551" lon="7.23232">
        <ele>607</ele>
        <time>2016-05-15T10:58:28.000Z</time>
      </trkpt>
      <trkpt lat="43.86549" lon="7.23233">
        <ele>607</ele>
        <time>2016-05-15T10:58:32.000Z</time>
      </trkpt>
      <trkpt lat="43.86549" lon="7.23233">
        <ele>607</ele>
        <time>2016-05-15T10:58:36.000Z</time>
      </trkpt>
      <trkpt lat="43.86548" lon="7.23235">
        <ele>607</ele>
        <time>2016-05-15T10:58:47.000Z</time>
      </trkpt>
      <trkpt lat="43.8655" lon="7.23236">
        <ele>607</ele>
        <time>2016-05-15T10:59:00.000Z</time>
      </trkpt>
      <trkpt lat="43.86555" lon="7.23237">
        <ele>607</ele>
        <time>2016-05-15T10:59:07.000Z</time>
      </trkpt>
      <trkpt lat="43.86555" lon="7.23238">
        <ele>608</ele>
        <time>2016-05-15T10:59:08.000Z</time>
      </trkpt>
      <trkpt lat="43.86559" lon="7.23241">
        <ele>608</ele>
        <time>2016-05-15T10:59:15.000Z</time>
      </trkpt>
      <trkpt lat="43.86561" lon="7.23244">
        <ele>609</ele>
        <time>2016-05-15T10:59:21.000Z</time>
      </trkpt>
      <trkpt lat="43.86562" lon="7.23244">
        <ele>609</ele>
        <time>2016-05-15T10:59:22.000Z</time>
      </trkpt>
      <trkpt lat="43.86565" lon="7.23244">
        <ele>609</ele>
        <time>2016-05-15T10:59:28.000Z</time>
      </trkpt>
      <trkpt lat="43.86566" lon="7.23245">
        <ele>610</ele>
        <time>2016-05-15T10:59:31.000Z</time>
      </trkpt>
      <trkpt lat="43.86567" lon="7.23246">
        <ele>610</ele>
        <time>2016-05-15T10:59:34.000Z</time>
      </trkpt>
      <trkpt lat="43.86569" lon="7.23249">
        <ele>610</ele>
        <time>2016-05-15T10:59:38.000Z</time>
      </trkpt>
      <trkpt lat="43.8657" lon="7.23249">
        <ele>611</ele>
        <time>2016-05-15T10:59:40.000Z</time>
      </trkpt>
      <trkpt lat="43.8657" lon="7.23253">
        <ele>617</ele>
        <time>2016-05-15T10:59:45.000Z</time>
      </trkpt>
      <trkpt lat="43.8657" lon="7.23253">
        <ele>617</ele>
        <time>2016-05-15T10:59:46.000Z</time>
      </trkpt>
      <trkpt lat="43.86571" lon="7.23255">
        <ele>617</ele>
        <time>2016-05-15T10:59:49.000Z</time>
      </trkpt>
      <trkpt lat="43.86572" lon="7.23258">
        <ele>617</ele>
        <time>2016-05-15T10:59:52.000Z</time>
      </trkpt>
      <trkpt lat="43.86573" lon="7.2326">
        <ele>618</ele>
        <time>2016-05-15T10:59:56.000Z</time>
      </trkpt>
      <trkpt lat="43.86575" lon="7.23263">
        <ele>618</ele>
        <time>2016-05-15T11:00:00.000Z</time>
      </trkpt>
      <trkpt lat="43.86575" lon="7.23263">
        <ele>618</ele>
        <time>2016-05-15T11:00:03.000Z</time>
      </trkpt>
      <trkpt lat="43.86577" lon="7.23264">
        <ele>618</ele>
        <time>2016-05-15T11:00:06.000Z</time>
      </trkpt>
      <trkpt lat="43.86578" lon="7.23265">
        <ele>618</ele>
        <time>2016-05-15T11:00:08.000Z</time>
      </trkpt>
      <trkpt lat="43.8658" lon="7.23266">
        <ele>618</ele>
        <time>2016-05-15T11:00:13.000Z</time>
      </trkpt>
      <trkpt lat="43.86582" lon="7.23268">
        <ele>619</ele>
        <time>2016-05-15T11:00:17.000Z</time>
      </trkpt>
      <trkpt lat="43.86586" lon="7.2327">
        <ele>626</ele>
        <time>2016-05-15T11:00:21.000Z</time>
      </trkpt>
      <trkpt lat="43.86587" lon="7.23272">
        <ele>627</ele>
        <time>2016-05-15T11:00:24.000Z</time>
      </trkpt>
      <trkpt lat="43.8659" lon="7.23274">
        <ele>628</ele>
        <time>2016-05-15T11:00:31.000Z</time>
      </trkpt>
      <trkpt lat="43.86593" lon="7.23277">
        <ele>629</ele>
        <time>2016-05-15T11:00:36.000Z</time>
      </trkpt>
      <trkpt lat="43.86594" lon="7.23278">
        <ele>630</ele>
        <time>2016-05-15T11:00:40.000Z</time>
      </trkpt>
      <trkpt lat="43.86595" lon="7.23279">
        <ele>630</ele>
        <time>2016-05-15T11:00:41.000Z</time>
      </trkpt>
      <trkpt lat="43.86598" lon="7.23281">
        <ele>631</ele>
        <time>2016-05-15T11:00:47.000Z</time>
      </trkpt>
      <trkpt lat="43.86598" lon="7.23282">
        <ele>631</ele>
        <time>2016-05-15T11:00:48.000Z</time>
      </trkpt>
      <trkpt lat="43.86601" lon="7.23285">
        <ele>632</ele>
        <time>2016-05-15T11:00:54.000Z</time>
      </trkpt>
      <trkpt lat="43.86602" lon="7.23286">
        <ele>633</ele>
        <time>2016-05-15T11:00:57.000Z</time>
      </trkpt>
      <trkpt lat="43.86603" lon="7.23286">
        <ele>633</ele>
        <time>2016-05-15T11:00:59.000Z</time>
      </trkpt>
      <trkpt lat="43.86604" lon="7.23288">
        <ele>633</ele>
        <time>2016-05-15T11:01:03.000Z</time>
      </trkpt>
      <trkpt lat="43.86605" lon="7.23288">
        <ele>633</ele>
        <time>2016-05-15T11:01:07.000Z</time>
      </trkpt>
      <trkpt lat="43.86605" lon="7.23289">
        <ele>633</ele>
        <time>2016-05-15T11:01:10.000Z</time>
      </trkpt>
      <trkpt lat="43.86607" lon="7.23291">
        <ele>634</ele>
        <time>2016-05-15T11:01:14.000Z</time>
      </trkpt>
      <trkpt lat="43.86609" lon="7.23292">
        <ele>634</ele>
        <time>2016-05-15T11:01:17.000Z</time>
      </trkpt>
      <trkpt lat="43.86611" lon="7.23292">
        <ele>635</ele>
        <time>2016-05-15T11:01:20.000Z</time>
      </trkpt>
      <trkpt lat="43.86613" lon="7.23293">
        <ele>635</ele>
        <time>2016-05-15T11:01:23.000Z</time>
      </trkpt>
      <trkpt lat="43.86615" lon="7.23294">
        <ele>635</ele>
        <time>2016-05-15T11:01:25.000Z</time>
      </trkpt>
      <trkpt lat="43.86616" lon="7.23296">
        <ele>636</ele>
        <time>2016-05-15T11:01:27.000Z</time>
      </trkpt>
      <trkpt lat="43.86615" lon="7.23297">
        <ele>636</ele>
        <time>2016-05-15T11:01:29.000Z</time>
      </trkpt>
      <trkpt lat="43.86613" lon="7.23299">
        <ele>636</ele>
        <time>2016-05-15T11:01:33.000Z</time>
      </trkpt>
      <trkpt lat="43.86612" lon="7.233">
        <ele>636</ele>
        <time>2016-05-15T11:01:36.000Z</time>
      </trkpt>
      <trkpt lat="43.86612" lon="7.23303">
        <ele>636</ele>
        <time>2016-05-15T11:01:41.000Z</time>
      </trkpt>
      <trkpt lat="43.86612" lon="7.23303">
        <ele>636</ele>
        <time>2016-05-15T11:01:42.000Z</time>
      </trkpt>
      <trkpt lat="43.86616" lon="7.23306">
        <ele>637</ele>
        <time>2016-05-15T11:01:48.000Z</time>
      </trkpt>
      <trkpt lat="43.86619" lon="7.23307">
        <ele>638</ele>
        <time>2016-05-15T11:01:53.000Z</time>
      </trkpt>
      <trkpt lat="43.86622" lon="7.23308">
        <ele>638</ele>
        <time>2016-05-15T11:01:56.000Z</time>
      </trkpt>
      <trkpt lat="43.86627" lon="7.23311">
        <ele>639</ele>
        <time>2016-05-15T11:02:03.000Z</time>
      </trkpt>
      <trkpt lat="43.86628" lon="7.23311">
        <ele>639</ele>
        <time>2016-05-15T11:02:05.000Z</time>
      </trkpt>
      <trkpt lat="43.86633" lon="7.23312">
        <ele>640</ele>
        <time>2016-05-15T11:02:10.000Z</time>
      </trkpt>
      <trkpt lat="43.86633" lon="7.23312">
        <ele>640</ele>
        <time>2016-05-15T11:02:12.000Z</time>
      </trkpt>
      <trkpt lat="43.86635" lon="7.23313">
        <ele>640</ele>
        <time>2016-05-15T11:02:13.000Z</time>
      </trkpt>
      <trkpt lat="43.86639" lon="7.23312">
        <ele>640</ele>
        <time>2016-05-15T11:02:17.000Z</time>
      </trkpt>
      <trkpt lat="43.8664" lon="7.23311">
        <ele>640</ele>
        <time>2016-05-15T11:02:18.000Z</time>
      </trkpt>
      <trkpt lat="43.86649" lon="7.23308">
        <ele>641</ele>
        <time>2016-05-15T11:02:27.000Z</time>
      </trkpt>
      <trkpt lat="43.86657" lon="7.23306">
        <ele>641</ele>
        <time>2016-05-15T11:02:36.000Z</time>
      </trkpt>
      <trkpt lat="43.86658" lon="7.23306">
        <ele>642</ele>
        <time>2016-05-15T11:02:38.000Z</time>
      </trkpt>
      <trkpt lat="43.86663" lon="7.23304">
        <ele>641</ele>
        <time>2016-05-15T11:02:44.000Z</time>
      </trkpt>
      <trkpt lat="43.86666" lon="7.23302">
        <ele>641</ele>
        <time>2016-05-15T11:02:49.000Z</time>
      </trkpt>
      <trkpt lat="43.86668" lon="7.23301">
        <ele>651</ele>
        <time>2016-05-15T11:02:52.000Z</time>
      </trkpt>
      <trkpt lat="43.86669" lon="7.23301">
        <ele>651</ele>
        <time>2016-05-15T11:02:54.000Z</time>
      </trkpt>
      <trkpt lat="43.86674" lon="7.23298">
        <ele>651</ele>
        <time>2016-05-15T11:03:02.000Z</time>
      </trkpt>
      <trkpt lat="43.86674" lon="7.23298">
        <ele>651</ele>
        <time>2016-05-15T11:03:03.000Z</time>
      </trkpt>
      <trkpt lat="43.86678" lon="7.23297">
        <ele>651</ele>
        <time>2016-05-15T11:03:08.000Z</time>
      </trkpt>
      <trkpt lat="43.8668" lon="7.23296">
        <ele>651</ele>
        <time>2016-05-15T11:03:11.000Z</time>
      </trkpt>
      <trkpt lat="43.86682" lon="7.23295">
        <ele>651</ele>
        <time>2016-05-15T11:03:15.000Z</time>
      </trkpt>
      <trkpt lat="43.86684" lon="7.23295">
        <ele>651</ele>
        <time>2016-05-15T11:03:19.000Z</time>
      </trkpt>
      <trkpt lat="43.86685" lon="7.23295">
        <ele>651</ele>
        <time>2016-05-15T11:03:21.000Z</time>
      </trkpt>
      <trkpt lat="43.86687" lon="7.23295">
        <ele>651</ele>
        <time>2016-05-15T11:03:25.000Z</time>
      </trkpt>
      <trkpt lat="43.86689" lon="7.23292">
        <ele>651</ele>
        <time>2016-05-15T11:03:29.000Z</time>
      </trkpt>
      <trkpt lat="43.86692" lon="7.23292">
        <ele>651</ele>
        <time>2016-05-15T11:03:33.000Z</time>
      </trkpt>
      <trkpt lat="43.86693" lon="7.23291">
        <ele>651</ele>
        <time>2016-05-15T11:03:35.000Z</time>
      </trkpt>
      <trkpt lat="43.86696" lon="7.23287">
        <ele>651</ele>
        <time>2016-05-15T11:03:39.000Z</time>
      </trkpt>
      <trkpt lat="43.86697" lon="7.23287">
        <ele>651</ele>
        <time>2016-05-15T11:03:40.000Z</time>
      </trkpt>
      <trkpt lat="43.86702" lon="7.23284">
        <ele>651</ele>
        <time>2016-05-15T11:03:48.000Z</time>
      </trkpt>
      <trkpt lat="43.86703" lon="7.23283">
        <ele>651</ele>
        <time>2016-05-15T11:03:50.000Z</time>
      </trkpt>
      <trkpt lat="43.86705" lon="7.23282">
        <ele>651</ele>
        <time>2016-05-15T11:03:53.000Z</time>
      </trkpt>
      <trkpt lat="43.86708" lon="7.23282">
        <ele>652</ele>
        <time>2016-05-15T11:03:58.000Z</time>
      </trkpt>
      <trkpt lat="43.8671" lon="7.23282">
        <ele>652</ele>
        <time>2016-05-15T11:04:01.000Z</time>
      </trkpt>
      <trkpt lat="43.86713" lon="7.23282">
        <ele>653</ele>
        <time>2016-05-15T11:04:05.000Z</time>
      </trkpt>
      <trkpt lat="43.86714" lon="7.23281">
        <ele>653</ele>
        <time>2016-05-15T11:04:06.000Z</time>
      </trkpt>
      <trkpt lat="43.86715" lon="7.2328">
        <ele>653</ele>
        <time>2016-05-15T11:04:08.000Z</time>
      </trkpt>
      <trkpt lat="43.86716" lon="7.23279">
        <ele>653</ele>
        <time>2016-05-15T11:04:14.000Z</time>
      </trkpt>
      <trkpt lat="43.8672" lon="7.23278">
        <ele>653</ele>
        <time>2016-05-15T11:04:21.000Z</time>
      </trkpt>
      <trkpt lat="43.86723" lon="7.23276">
        <ele>654</ele>
        <time>2016-05-15T11:04:25.000Z</time>
      </trkpt>
      <trkpt lat="43.86726" lon="7.23276">
        <ele>654</ele>
        <time>2016-05-15T11:04:29.000Z</time>
      </trkpt>
      <trkpt lat="43.86727" lon="7.23277">
        <ele>654</ele>
        <time>2016-05-15T11:04:30.000Z</time>
      </trkpt>
      <trkpt lat="43.8673" lon="7.23276">
        <ele>654</ele>
        <time>2016-05-15T11:04:36.000Z</time>
      </trkpt>
      <trkpt lat="43.86732" lon="7.23274">
        <ele>655</ele>
        <time>2016-05-15T11:04:40.000Z</time>
      </trkpt>
      <trkpt lat="43.86736" lon="7.23271">
        <ele>655</ele>
        <time>2016-05-15T11:04:44.000Z</time>
      </trkpt>
      <trkpt lat="43.86738" lon="7.2327">
        <ele>655</ele>
        <time>2016-05-15T11:04:47.000Z</time>
      </trkpt>
      <trkpt lat="43.86744" lon="7.23268">
        <ele>656</ele>
        <time>2016-05-15T11:04:55.000Z</time>
      </trkpt>
      <trkpt lat="43.86745" lon="7.23269">
        <ele>656</ele>
        <time>2016-05-15T11:04:57.000Z</time>
      </trkpt>
      <trkpt lat="43.86747" lon="7.23272">
        <ele>656</ele>
        <time>2016-05-15T11:05:01.000Z</time>
      </trkpt>
      <trkpt lat="43.86747" lon="7.23274">
        <ele>656</ele>
        <time>2016-05-15T11:05:03.000Z</time>
      </trkpt>
      <trkpt lat="43.86745" lon="7.23277">
        <ele>656</ele>
        <time>2016-05-15T11:05:06.000Z</time>
      </trkpt>
      <trkpt lat="43.86745" lon="7.23276">
        <ele>656</ele>
        <time>2016-05-15T11:05:09.000Z</time>
      </trkpt>
      <trkpt lat="43.86738" lon="7.23281">
        <ele>655</ele>
        <time>2016-05-15T11:05:15.000Z</time>
      </trkpt>
      <trkpt lat="43.86725" lon="7.23295">
        <ele>655</ele>
        <time>2016-05-15T11:05:23.000Z</time>
      </trkpt>
      <trkpt lat="43.86709" lon="7.23312">
        <ele>655</ele>
        <time>2016-05-15T11:05:30.000Z</time>
      </trkpt>
      <trkpt lat="43.86699" lon="7.23325">
        <ele>655</ele>
        <time>2016-05-15T11:05:35.000Z</time>
      </trkpt>
      <trkpt lat="43.86689" lon="7.23341">
        <ele>665</ele>
        <time>2016-05-15T11:05:41.000Z</time>
      </trkpt>
      <trkpt lat="43.86671" lon="7.23361">
        <ele>666</ele>
        <time>2016-05-15T11:05:49.000Z</time>
      </trkpt>
      <trkpt lat="43.86668" lon="7.23363">
        <ele>667</ele>
        <time>2016-05-15T11:05:50.000Z</time>
      </trkpt>
      <trkpt lat="43.86653" lon="7.23373">
        <ele>665</ele>
        <time>2016-05-15T11:05:56.000Z</time>
      </trkpt>
      <trkpt lat="43.86636" lon="7.23378">
        <ele>665</ele>
        <time>2016-05-15T11:06:01.000Z</time>
      </trkpt>
      <trkpt lat="43.86602" lon="7.2338">
        <ele>664</ele>
        <time>2016-05-15T11:06:09.000Z</time>
      </trkpt>
      <trkpt lat="43.86571" lon="7.23384">
        <ele>652</ele>
        <time>2016-05-15T11:06:16.000Z</time>
      </trkpt>
      <trkpt lat="43.86568" lon="7.23387">
        <ele>653</ele>
        <time>2016-05-15T11:06:17.000Z</time>
      </trkpt>
      <trkpt lat="43.86552" lon="7.23398">
        <ele>652</ele>
        <time>2016-05-15T11:06:21.000Z</time>
      </trkpt>
      <trkpt lat="43.86532" lon="7.23422">
        <ele>664</ele>
        <time>2016-05-15T11:06:27.000Z</time>
      </trkpt>
      <trkpt lat="43.86514" lon="7.23447">
        <ele>664</ele>
        <time>2016-05-15T11:06:33.000Z</time>
      </trkpt>
      <trkpt lat="43.86494" lon="7.23481">
        <ele>648</ele>
        <time>2016-05-15T11:06:40.000Z</time>
      </trkpt>
      <trkpt lat="43.8649" lon="7.23491">
        <ele>652</ele>
        <time>2016-05-15T11:06:42.000Z</time>
      </trkpt>
      <trkpt lat="43.86489" lon="7.23497">
        <ele>654</ele>
        <time>2016-05-15T11:06:43.000Z</time>
      </trkpt>
      <trkpt lat="43.86482" lon="7.23514">
        <ele>655</ele>
        <time>2016-05-15T11:06:46.000Z</time>
      </trkpt>
      <trkpt lat="43.86478" lon="7.23532">
        <ele>652</ele>
        <time>2016-05-15T11:06:49.000Z</time>
      </trkpt>
      <trkpt lat="43.86479" lon="7.23551">
        <ele>654</ele>
        <time>2016-05-15T11:06:52.000Z</time>
      </trkpt>
      <trkpt lat="43.86477" lon="7.23582">
        <ele>659</ele>
        <time>2016-05-15T11:06:57.000Z</time>
      </trkpt>
      <trkpt lat="43.86473" lon="7.23601">
        <ele>665</ele>
        <time>2016-05-15T11:07:00.000Z</time>
      </trkpt>
      <trkpt lat="43.86466" lon="7.23608">
        <ele>663</ele>
        <time>2016-05-15T11:07:02.000Z</time>
      </trkpt>
      <trkpt lat="43.86458" lon="7.23623">
        <ele>663</ele>
        <time>2016-05-15T11:07:05.000Z</time>
      </trkpt>
      <trkpt lat="43.86453" lon="7.23634">
        <ele>663</ele>
        <time>2016-05-15T11:07:07.000Z</time>
      </trkpt>
      <trkpt lat="43.86432" lon="7.23675">
        <ele>668</ele>
        <time>2016-05-15T11:07:14.000Z</time>
      </trkpt>
      <trkpt lat="43.86415" lon="7.23706">
        <ele>660</ele>
        <time>2016-05-15T11:07:20.000Z</time>
      </trkpt>
      <trkpt lat="43.86405" lon="7.23728">
        <ele>663</ele>
        <time>2016-05-15T11:07:24.000Z</time>
      </trkpt>
      <trkpt lat="43.86402" lon="7.23741">
        <ele>665</ele>
        <time>2016-05-15T11:07:26.000Z</time>
      </trkpt>
      <trkpt lat="43.86392" lon="7.23766">
        <ele>675</ele>
        <time>2016-05-15T11:07:30.000Z</time>
      </trkpt>
      <trkpt lat="43.86388" lon="7.23769">
        <ele>675</ele>
        <time>2016-05-15T11:07:31.000Z</time>
      </trkpt>
      <trkpt lat="43.86374" lon="7.23766">
        <ele>675</ele>
        <time>2016-05-15T11:07:34.000Z</time>
      </trkpt>
      <trkpt lat="43.86358" lon="7.23748">
        <ele>662</ele>
        <time>2016-05-15T11:07:39.000Z</time>
      </trkpt>
      <trkpt lat="43.86348" lon="7.23737">
        <ele>661</ele>
        <time>2016-05-15T11:07:43.000Z</time>
      </trkpt>
      <trkpt lat="43.86339" lon="7.23727">
        <ele>660</ele>
        <time>2016-05-15T11:07:46.000Z</time>
      </trkpt>
      <trkpt lat="43.86332" lon="7.23725">
        <ele>652</ele>
        <time>2016-05-15T11:07:48.000Z</time>
      </trkpt>
      <trkpt lat="43.86327" lon="7.23725">
        <ele>652</ele>
        <time>2016-05-15T11:07:49.000Z</time>
      </trkpt>
      <trkpt lat="43.86314" lon="7.2373">
        <ele>651</ele>
        <time>2016-05-15T11:07:52.000Z</time>
      </trkpt>
      <trkpt lat="43.86285" lon="7.2375">
        <ele>649</ele>
        <time>2016-05-15T11:07:59.000Z</time>
      </trkpt>
      <trkpt lat="43.86263" lon="7.23766">
        <ele>663</ele>
        <time>2016-05-15T11:08:04.000Z</time>
      </trkpt>
      <trkpt lat="43.86253" lon="7.2377">
        <ele>663</ele>
        <time>2016-05-15T11:08:06.000Z</time>
      </trkpt>
      <trkpt lat="43.8623" lon="7.23781">
        <ele>664</ele>
        <time>2016-05-15T11:08:11.000Z</time>
      </trkpt>
      <trkpt lat="43.86221" lon="7.23786">
        <ele>665</ele>
        <time>2016-05-15T11:08:13.000Z</time>
      </trkpt>
      <trkpt lat="43.86188" lon="7.23798">
        <ele>667</ele>
        <time>2016-05-15T11:08:20.000Z</time>
      </trkpt>
      <trkpt lat="43.86179" lon="7.23799">
        <ele>668</ele>
        <time>2016-05-15T11:08:22.000Z</time>
      </trkpt>
      <trkpt lat="43.86167" lon="7.23793">
        <ele>667</ele>
        <time>2016-05-15T11:08:25.000Z</time>
      </trkpt>
      <trkpt lat="43.86164" lon="7.23787">
        <ele>673</ele>
        <time>2016-05-15T11:08:28.000Z</time>
      </trkpt>
      <trkpt lat="43.86163" lon="7.23782">
        <ele>672</ele>
        <time>2016-05-15T11:08:31.000Z</time>
      </trkpt>
      <trkpt lat="43.86163" lon="7.2378">
        <ele>672</ele>
        <time>2016-05-15T11:08:33.000Z</time>
      </trkpt>
      <trkpt lat="43.86164" lon="7.23779">
        <ele>671</ele>
        <time>2016-05-15T11:08:34.000Z</time>
      </trkpt>
      <trkpt lat="43.86164" lon="7.23765">
        <ele>668</ele>
        <time>2016-05-15T11:08:38.000Z</time>
      </trkpt>
      <trkpt lat="43.86167" lon="7.23737">
        <ele>656</ele>
        <time>2016-05-15T11:08:43.000Z</time>
      </trkpt>
      <trkpt lat="43.86169" lon="7.237">
        <ele>650</ele>
        <time>2016-05-15T11:08:50.000Z</time>
      </trkpt>
      <trkpt lat="43.86165" lon="7.23681">
        <ele>657</ele>
        <time>2016-05-15T11:08:54.000Z</time>
      </trkpt>
      <trkpt lat="43.86163" lon="7.23679">
        <ele>657</ele>
        <time>2016-05-15T11:08:55.000Z</time>
      </trkpt>
      <trkpt lat="43.86162" lon="7.23677">
        <ele>657</ele>
        <time>2016-05-15T11:08:56.000Z</time>
      </trkpt>
      <trkpt lat="43.86156" lon="7.2367">
        <ele>656</ele>
        <time>2016-05-15T11:09:02.000Z</time>
      </trkpt>
      <trkpt lat="43.86153" lon="7.23668">
        <ele>657</ele>
        <time>2016-05-15T11:09:04.000Z</time>
      </trkpt>
      <trkpt lat="43.8615" lon="7.23667">
        <ele>658</ele>
        <time>2016-05-15T11:09:06.000Z</time>
      </trkpt>
      <trkpt lat="43.86145" lon="7.23668">
        <ele>659</ele>
        <time>2016-05-15T11:09:10.000Z</time>
      </trkpt>
      <trkpt lat="43.86145" lon="7.23669">
        <ele>659</ele>
        <time>2016-05-15T11:09:11.000Z</time>
      </trkpt>
      <trkpt lat="43.86145" lon="7.23674">
        <ele>659</ele>
        <time>2016-05-15T11:09:14.000Z</time>
      </trkpt>
      <trkpt lat="43.86146" lon="7.23678">
        <ele>660</ele>
        <time>2016-05-15T11:09:16.000Z</time>
      </trkpt>
      <trkpt lat="43.8615" lon="7.23687">
        <ele>660</ele>
        <time>2016-05-15T11:09:22.000Z</time>
      </trkpt>
      <trkpt lat="43.86152" lon="7.23694">
        <ele>661</ele>
        <time>2016-05-15T11:09:26.000Z</time>
      </trkpt>
      <trkpt lat="43.86153" lon="7.23705">
        <ele>662</ele>
        <time>2016-05-15T11:09:31.000Z</time>
      </trkpt>
      <trkpt lat="43.86153" lon="7.23717">
        <ele>663</ele>
        <time>2016-05-15T11:09:35.000Z</time>
      </trkpt>
      <trkpt lat="43.86151" lon="7.23744">
        <ele>664</ele>
        <time>2016-05-15T11:09:43.000Z</time>
      </trkpt>
      <trkpt lat="43.86147" lon="7.23763">
        <ele>671</ele>
        <time>2016-05-15T11:09:49.000Z</time>
      </trkpt>
      <trkpt lat="43.86145" lon="7.23772">
        <ele>672</ele>
        <time>2016-05-15T11:09:52.000Z</time>
      </trkpt>
      <trkpt lat="43.86142" lon="7.23785">
        <ele>674</ele>
        <time>2016-05-15T11:09:57.000Z</time>
      </trkpt>
      <trkpt lat="43.86141" lon="7.23794">
        <ele>675</ele>
        <time>2016-05-15T11:10:00.000Z</time>
      </trkpt>
      <trkpt lat="43.86138" lon="7.23805">
        <ele>676</ele>
        <time>2016-05-15T11:10:04.000Z</time>
      </trkpt>
      <trkpt lat="43.86137" lon="7.2381">
        <ele>676</ele>
        <time>2016-05-15T11:10:06.000Z</time>
      </trkpt>
      <trkpt lat="43.86133" lon="7.23825">
        <ele>677</ele>
        <time>2016-05-15T11:10:12.000Z</time>
      </trkpt>
      <trkpt lat="43.86133" lon="7.23828">
        <ele>677</ele>
        <time>2016-05-15T11:10:13.000Z</time>
      </trkpt>
      <trkpt lat="43.8613" lon="7.23844">
        <ele>681</ele>
        <time>2016-05-15T11:10:19.000Z</time>
      </trkpt>
      <trkpt lat="43.86131" lon="7.23857">
        <ele>681</ele>
        <time>2016-05-15T11:10:25.000Z</time>
      </trkpt>
      <trkpt lat="43.86131" lon="7.23859">
        <ele>681</ele>
        <time>2016-05-15T11:10:26.000Z</time>
      </trkpt>
      <trkpt lat="43.86134" lon="7.23873">
        <ele>681</ele>
        <time>2016-05-15T11:10:33.000Z</time>
      </trkpt>
      <trkpt lat="43.86135" lon="7.23879">
        <ele>682</ele>
        <time>2016-05-15T11:10:36.000Z</time>
      </trkpt>
      <trkpt lat="43.86135" lon="7.23887">
        <ele>682</ele>
        <time>2016-05-15T11:10:40.000Z</time>
      </trkpt>
      <trkpt lat="43.86137" lon="7.23896">
        <ele>682</ele>
        <time>2016-05-15T11:10:45.000Z</time>
      </trkpt>
      <trkpt lat="43.86137" lon="7.23898">
        <ele>682</ele>
        <time>2016-05-15T11:10:46.000Z</time>
      </trkpt>
      <trkpt lat="43.86137" lon="7.23908">
        <ele>682</ele>
        <time>2016-05-15T11:10:51.000Z</time>
      </trkpt>
      <trkpt lat="43.86137" lon="7.23911">
        <ele>682</ele>
        <time>2016-05-15T11:10:53.000Z</time>
      </trkpt>
      <trkpt lat="43.86136" lon="7.23916">
        <ele>682</ele>
        <time>2016-05-15T11:10:56.000Z</time>
      </trkpt>
      <trkpt lat="43.86135" lon="7.23921">
        <ele>683</ele>
        <time>2016-05-15T11:11:00.000Z</time>
      </trkpt>
      <trkpt lat="43.86133" lon="7.23925">
        <ele>683</ele>
        <time>2016-05-15T11:11:03.000Z</time>
      </trkpt>
      <trkpt lat="43.86134" lon="7.23927">
        <ele>683</ele>
        <time>2016-05-15T11:11:04.000Z</time>
      </trkpt>
      <trkpt lat="43.86133" lon="7.2393">
        <ele>683</ele>
        <time>2016-05-15T11:11:07.000Z</time>
      </trkpt>
      <trkpt lat="43.86124" lon="7.23927">
        <ele>683</ele>
        <time>2016-05-15T11:11:10.000Z</time>
      </trkpt>
      <trkpt lat="43.8612" lon="7.23925">
        <ele>683</ele>
        <time>2016-05-15T11:11:11.000Z</time>
      </trkpt>
      <trkpt lat="43.86106" lon="7.23919">
        <ele>683</ele>
        <time>2016-05-15T11:11:14.000Z</time>
      </trkpt>
      <trkpt lat="43.86093" lon="7.23908">
        <ele>684</ele>
        <time>2016-05-15T11:11:18.000Z</time>
      </trkpt>
      <trkpt lat="43.86089" lon="7.23902">
        <ele>684</ele>
        <time>2016-05-15T11:11:23.000Z</time>
      </trkpt>
      <trkpt lat="43.86084" lon="7.23896">
        <ele>684</ele>
        <time>2016-05-15T11:11:29.000Z</time>
      </trkpt>
      <trkpt lat="43.86081" lon="7.23892">
        <ele>689</ele>
        <time>2016-05-15T11:11:33.000Z</time>
      </trkpt>
      <trkpt lat="43.8608" lon="7.2389">
        <ele>690</ele>
        <time>2016-05-15T11:11:38.000Z</time>
      </trkpt>
      <trkpt lat="43.86078" lon="7.23887">
        <ele>690</ele>
        <time>2016-05-15T11:11:42.000Z</time>
      </trkpt>
      <trkpt lat="43.86075" lon="7.23884">
        <ele>690</ele>
        <time>2016-05-15T11:11:47.000Z</time>
      </trkpt>
      <trkpt lat="43.86074" lon="7.23882">
        <ele>690</ele>
        <time>2016-05-15T11:11:49.000Z</time>
      </trkpt>
      <trkpt lat="43.8607" lon="7.23878">
        <ele>691</ele>
        <time>2016-05-15T11:11:57.000Z</time>
      </trkpt>
      <trkpt lat="43.86069" lon="7.23878">
        <ele>691</ele>
        <time>2016-05-15T11:11:58.000Z</time>
      </trkpt>
      <trkpt lat="43.86065" lon="7.23874">
        <ele>691</ele>
        <time>2016-05-15T11:12:07.000Z</time>
      </trkpt>
      <trkpt lat="43.86064" lon="7.23873">
        <ele>691</ele>
        <time>2016-05-15T11:12:08.000Z</time>
      </trkpt>
      <trkpt lat="43.86061" lon="7.23869">
        <ele>691</ele>
        <time>2016-05-15T11:12:15.000Z</time>
      </trkpt>
      <trkpt lat="43.8606" lon="7.23869">
        <ele>691</ele>
        <time>2016-05-15T11:12:16.000Z</time>
      </trkpt>
      <trkpt lat="43.86058" lon="7.23865">
        <ele>692</ele>
        <time>2016-05-15T11:12:21.000Z</time>
      </trkpt>
      <trkpt lat="43.86056" lon="7.23862">
        <ele>692</ele>
        <time>2016-05-15T11:12:26.000Z</time>
      </trkpt>
      <trkpt lat="43.86056" lon="7.23862">
        <ele>692</ele>
        <time>2016-05-15T11:12:27.000Z</time>
      </trkpt>
      <trkpt lat="43.86053" lon="7.23859">
        <ele>692</ele>
        <time>2016-05-15T11:12:33.000Z</time>
      </trkpt>
      <trkpt lat="43.86052" lon="7.23858">
        <ele>692</ele>
        <time>2016-05-15T11:12:35.000Z</time>
      </trkpt>
      <trkpt lat="43.8605" lon="7.23856">
        <ele>692</ele>
        <time>2016-05-15T11:12:40.000Z</time>
      </trkpt>
      <trkpt lat="43.8605" lon="7.23856">
        <ele>692</ele>
        <time>2016-05-15T11:12:42.000Z</time>
      </trkpt>
      <trkpt lat="43.86048" lon="7.23852">
        <ele>692</ele>
        <time>2016-05-15T11:12:45.000Z</time>
      </trkpt>
      <trkpt lat="43.86046" lon="7.23848">
        <ele>692</ele>
        <time>2016-05-15T11:12:50.000Z</time>
      </trkpt>
      <trkpt lat="43.86046" lon="7.23848">
        <ele>692</ele>
        <time>2016-05-15T11:12:51.000Z</time>
      </trkpt>
      <trkpt lat="43.86042" lon="7.23842">
        <ele>693</ele>
        <time>2016-05-15T11:12:58.000Z</time>
      </trkpt>
      <trkpt lat="43.86041" lon="7.23841">
        <ele>693</ele>
        <time>2016-05-15T11:12:59.000Z</time>
      </trkpt>
      <trkpt lat="43.86036" lon="7.23837">
        <ele>693</ele>
        <time>2016-05-15T11:13:06.000Z</time>
      </trkpt>
      <trkpt lat="43.86035" lon="7.23836">
        <ele>693</ele>
        <time>2016-05-15T11:13:07.000Z</time>
      </trkpt>
      <trkpt lat="43.86033" lon="7.23835">
        <ele>694</ele>
        <time>2016-05-15T11:13:10.000Z</time>
      </trkpt>
      <trkpt lat="43.86033" lon="7.23835">
        <ele>694</ele>
        <time>2016-05-15T11:13:14.000Z</time>
      </trkpt>
      <trkpt lat="43.86032" lon="7.23834">
        <ele>694</ele>
        <time>2016-05-15T11:13:16.000Z</time>
      </trkpt>
      <trkpt lat="43.86029" lon="7.23835">
        <ele>694</ele>
        <time>2016-05-15T11:13:21.000Z</time>
      </trkpt>
      <trkpt lat="43.86027" lon="7.23835">
        <ele>694</ele>
        <time>2016-05-15T11:13:26.000Z</time>
      </trkpt>
      <trkpt lat="43.8602" lon="7.23841">
        <ele>695</ele>
        <time>2016-05-15T11:13:33.000Z</time>
      </trkpt>
      <trkpt lat="43.86019" lon="7.23841">
        <ele>695</ele>
        <time>2016-05-15T11:13:34.000Z</time>
      </trkpt>
      <trkpt lat="43.86013" lon="7.23844">
        <ele>695</ele>
        <time>2016-05-15T11:13:39.000Z</time>
      </trkpt>
      <trkpt lat="43.86012" lon="7.23845">
        <ele>695</ele>
        <time>2016-05-15T11:13:40.000Z</time>
      </trkpt>
      <trkpt lat="43.86001" lon="7.2385">
        <ele>696</ele>
        <time>2016-05-15T11:13:48.000Z</time>
      </trkpt>
      <trkpt lat="43.85992" lon="7.23856">
        <ele>700</ele>
        <time>2016-05-15T11:13:55.000Z</time>
      </trkpt>
      <trkpt lat="43.85983" lon="7.2386">
        <ele>700</ele>
        <time>2016-05-15T11:14:02.000Z</time>
      </trkpt>
      <trkpt lat="43.85981" lon="7.23861">
        <ele>700</ele>
        <time>2016-05-15T11:14:03.000Z</time>
      </trkpt>
      <trkpt lat="43.85981" lon="7.23862">
        <ele>700</ele>
        <time>2016-05-15T11:14:04.000Z</time>
      </trkpt>
      <trkpt lat="43.85977" lon="7.23867">
        <ele>700</ele>
        <time>2016-05-15T11:14:08.000Z</time>
      </trkpt>
      <trkpt lat="43.85974" lon="7.2387">
        <ele>700</ele>
        <time>2016-05-15T11:14:12.000Z</time>
      </trkpt>
      <trkpt lat="43.85972" lon="7.23871">
        <ele>700</ele>
        <time>2016-05-15T11:14:13.000Z</time>
      </trkpt>
      <trkpt lat="43.85965" lon="7.23877">
        <ele>701</ele>
        <time>2016-05-15T11:14:19.000Z</time>
      </trkpt>
      <trkpt lat="43.85962" lon="7.2388">
        <ele>701</ele>
        <time>2016-05-15T11:14:21.000Z</time>
      </trkpt>
      <trkpt lat="43.85955" lon="7.23885">
        <ele>701</ele>
        <time>2016-05-15T11:14:26.000Z</time>
      </trkpt>
      <trkpt lat="43.85949" lon="7.23893">
        <ele>702</ele>
        <time>2016-05-15T11:14:32.000Z</time>
      </trkpt>
      <trkpt lat="43.85947" lon="7.23894">
        <ele>702</ele>
        <time>2016-05-15T11:14:33.000Z</time>
      </trkpt>
      <trkpt lat="43.85938" lon="7.23898">
        <ele>703</ele>
        <time>2016-05-15T11:14:39.000Z</time>
      </trkpt>
      <trkpt lat="43.85937" lon="7.239">
        <ele>704</ele>
        <time>2016-05-15T11:14:40.000Z</time>
      </trkpt>
      <trkpt lat="43.85936" lon="7.239">
        <ele>704</ele>
        <time>2016-05-15T11:14:41.000Z</time>
      </trkpt>
      <trkpt lat="43.85931" lon="7.23903">
        <ele>704</ele>
        <time>2016-05-15T11:14:45.000Z</time>
      </trkpt>
      <trkpt lat="43.85926" lon="7.23909">
        <ele>706</ele>
        <time>2016-05-15T11:14:50.000Z</time>
      </trkpt>
      <trkpt lat="43.85923" lon="7.2391">
        <ele>706</ele>
        <time>2016-05-15T11:14:52.000Z</time>
      </trkpt>
      <trkpt lat="43.85917" lon="7.23911">
        <ele>707</ele>
        <time>2016-05-15T11:14:56.000Z</time>
      </trkpt>
      <trkpt lat="43.85916" lon="7.2391">
        <ele>708</ele>
        <time>2016-05-15T11:14:57.000Z</time>
      </trkpt>
      <trkpt lat="43.85911" lon="7.23905">
        <ele>707</ele>
        <time>2016-05-15T11:15:01.000Z</time>
      </trkpt>
      <trkpt lat="43.85906" lon="7.23902">
        <ele>707</ele>
        <time>2016-05-15T11:15:05.000Z</time>
      </trkpt>
      <trkpt lat="43.85901" lon="7.23901">
        <ele>706</ele>
        <time>2016-05-15T11:15:08.000Z</time>
      </trkpt>
      <trkpt lat="43.85897" lon="7.23903">
        <ele>706</ele>
        <time>2016-05-15T11:15:11.000Z</time>
      </trkpt>
      <trkpt lat="43.85896" lon="7.23904">
        <ele>707</ele>
        <time>2016-05-15T11:15:12.000Z</time>
      </trkpt>
      <trkpt lat="43.85887" lon="7.2391">
        <ele>707</ele>
        <time>2016-05-15T11:15:19.000Z</time>
      </trkpt>
      <trkpt lat="43.85883" lon="7.23913">
        <ele>707</ele>
        <time>2016-05-15T11:15:22.000Z</time>
      </trkpt>
      <trkpt lat="43.85876" lon="7.23918">
        <ele>708</ele>
        <time>2016-05-15T11:15:28.000Z</time>
      </trkpt>
      <trkpt lat="43.85871" lon="7.23921">
        <ele>709</ele>
        <time>2016-05-15T11:15:31.000Z</time>
      </trkpt>
      <trkpt lat="43.85863" lon="7.23921">
        <ele>709</ele>
        <time>2016-05-15T11:15:36.000Z</time>
      </trkpt>
      <trkpt lat="43.85845" lon="7.23918">
        <ele>711</ele>
        <time>2016-05-15T11:15:43.000Z</time>
      </trkpt>
      <trkpt lat="43.85821" lon="7.23925">
        <ele>709</ele>
        <time>2016-05-15T11:15:49.000Z</time>
      </trkpt>
      <trkpt lat="43.85811" lon="7.23928">
        <ele>708</ele>
        <time>2016-05-15T11:15:51.000Z</time>
      </trkpt>
      <trkpt lat="43.85783" lon="7.23934">
        <ele>705</ele>
        <time>2016-05-15T11:15:56.000Z</time>
      </trkpt>
      <trkpt lat="43.85764" lon="7.2394">
        <ele>704</ele>
        <time>2016-05-15T11:15:59.000Z</time>
      </trkpt>
      <trkpt lat="43.8575" lon="7.23944">
        <ele>704</ele>
        <time>2016-05-15T11:16:01.000Z</time>
      </trkpt>
      <trkpt lat="43.85739" lon="7.23945">
        <ele>697</ele>
        <time>2016-05-15T11:16:03.000Z</time>
      </trkpt>
      <trkpt lat="43.85733" lon="7.2394">
        <ele>697</ele>
        <time>2016-05-15T11:16:05.000Z</time>
      </trkpt>
      <trkpt lat="43.85731" lon="7.23938">
        <ele>697</ele>
        <time>2016-05-15T11:16:07.000Z</time>
      </trkpt>
      <trkpt lat="43.85731" lon="7.23938">
        <ele>697</ele>
        <time>2016-05-15T11:16:08.000Z</time>
      </trkpt>
      <trkpt lat="43.85731" lon="7.23938">
        <ele>697</ele>
        <time>2016-05-15T11:16:09.000Z</time>
      </trkpt>
      <trkpt lat="43.85731" lon="7.23939">
        <ele>696</ele>
        <time>2016-05-15T11:16:12.000Z</time>
      </trkpt>
      <trkpt lat="43.85731" lon="7.23938">
        <ele>697</ele>
        <time>2016-05-15T11:16:15.000Z</time>
      </trkpt>
      <trkpt lat="43.85729" lon="7.23938">
        <ele>696</ele>
        <time>2016-05-15T11:16:22.000Z</time>
      </trkpt>
      <trkpt lat="43.8572" lon="7.23926">
        <ele>696</ele>
        <time>2016-05-15T11:16:26.000Z</time>
      </trkpt>
      <trkpt lat="43.85714" lon="7.23921">
        <ele>695</ele>
        <time>2016-05-15T11:16:28.000Z</time>
      </trkpt>
      <trkpt lat="43.85712" lon="7.23922">
        <ele>695</ele>
        <time>2016-05-15T11:16:29.000Z</time>
      </trkpt>
      <trkpt lat="43.85709" lon="7.23924">
        <ele>694</ele>
        <time>2016-05-15T11:16:30.000Z</time>
      </trkpt>
      <trkpt lat="43.85706" lon="7.23924">
        <ele>694</ele>
        <time>2016-05-15T11:16:31.000Z</time>
      </trkpt>
      <trkpt lat="43.85698" lon="7.23923">
        <ele>693</ele>
        <time>2016-05-15T11:16:33.000Z</time>
      </trkpt>
      <trkpt lat="43.85696" lon="7.2392">
        <ele>693</ele>
        <time>2016-05-15T11:16:34.000Z</time>
      </trkpt>
      <trkpt lat="43.85693" lon="7.23918">
        <ele>692</ele>
        <time>2016-05-15T11:16:35.000Z</time>
      </trkpt>
      <trkpt lat="43.85687" lon="7.23915">
        <ele>687</ele>
        <time>2016-05-15T11:16:37.000Z</time>
      </trkpt>
      <trkpt lat="43.85685" lon="7.23916">
        <ele>687</ele>
        <time>2016-05-15T11:16:38.000Z</time>
      </trkpt>
      <trkpt lat="43.85683" lon="7.23917">
        <ele>691</ele>
        <time>2016-05-15T11:16:39.000Z</time>
      </trkpt>
      <trkpt lat="43.85681" lon="7.23918">
        <ele>690</ele>
        <time>2016-05-15T11:16:40.000Z</time>
      </trkpt>
      <trkpt lat="43.85673" lon="7.23919">
        <ele>689</ele>
        <time>2016-05-15T11:16:42.000Z</time>
      </trkpt>
      <trkpt lat="43.8567" lon="7.23918">
        <ele>688</ele>
        <time>2016-05-15T11:16:43.000Z</time>
      </trkpt>
      <trkpt lat="43.85664" lon="7.23919">
        <ele>685</ele>
        <time>2016-05-15T11:16:45.000Z</time>
      </trkpt>
      <trkpt lat="43.85662" lon="7.23918">
        <ele>685</ele>
        <time>2016-05-15T11:16:46.000Z</time>
      </trkpt>
      <trkpt lat="43.8566" lon="7.23914">
        <ele>682</ele>
        <time>2016-05-15T11:16:47.000Z</time>
      </trkpt>
      <trkpt lat="43.85655" lon="7.23913">
        <ele>679</ele>
        <time>2016-05-15T11:16:49.000Z</time>
      </trkpt>
      <trkpt lat="43.85653" lon="7.23914">
        <ele>678</ele>
        <time>2016-05-15T11:16:50.000Z</time>
      </trkpt>
      <trkpt lat="43.85652" lon="7.23913">
        <ele>678</ele>
        <time>2016-05-15T11:16:51.000Z</time>
      </trkpt>
      <trkpt lat="43.85653" lon="7.23913">
        <ele>678</ele>
        <time>2016-05-15T11:16:52.000Z</time>
      </trkpt>
      <trkpt lat="43.85652" lon="7.23913">
        <ele>678</ele>
        <time>2016-05-15T11:16:54.000Z</time>
      </trkpt>
      <trkpt lat="43.85653" lon="7.23914">
        <ele>678</ele>
        <time>2016-05-15T11:16:58.000Z</time>
      </trkpt>
      <trkpt lat="43.85653" lon="7.23915">
        <ele>678</ele>
        <time>2016-05-15T11:17:01.000Z</time>
      </trkpt>
      <trkpt lat="43.85652" lon="7.23917">
        <ele>681</ele>
        <time>2016-05-15T11:17:03.000Z</time>
      </trkpt>
      <trkpt lat="43.85648" lon="7.23917">
        <ele>680</ele>
        <time>2016-05-15T11:17:06.000Z</time>
      </trkpt>
      <trkpt lat="43.85637" lon="7.23918">
        <ele>677</ele>
        <time>2016-05-15T11:17:09.000Z</time>
      </trkpt>
      <trkpt lat="43.85628" lon="7.23923">
        <ele>675</ele>
        <time>2016-05-15T11:17:13.000Z</time>
      </trkpt>
      <trkpt lat="43.85625" lon="7.23925">
        <ele>675</ele>
        <time>2016-05-15T11:17:14.000Z</time>
      </trkpt>
      <trkpt lat="43.85621" lon="7.23926">
        <ele>674</ele>
        <time>2016-05-15T11:17:15.000Z</time>
      </trkpt>
      <trkpt lat="43.85617" lon="7.23929">
        <ele>673</ele>
        <time>2016-05-15T11:17:16.000Z</time>
      </trkpt>
      <trkpt lat="43.85614" lon="7.23933">
        <ele>673</ele>
        <time>2016-05-15T11:17:17.000Z</time>
      </trkpt>
      <trkpt lat="43.85607" lon="7.23937">
        <ele>671</ele>
        <time>2016-05-15T11:17:19.000Z</time>
      </trkpt>
      <trkpt lat="43.85599" lon="7.23938">
        <ele>670</ele>
        <time>2016-05-15T11:17:21.000Z</time>
      </trkpt>
      <trkpt lat="43.85596" lon="7.23938">
        <ele>670</ele>
        <time>2016-05-15T11:17:22.000Z</time>
      </trkpt>
      <trkpt lat="43.85593" lon="7.23938">
        <ele>670</ele>
        <time>2016-05-15T11:17:23.000Z</time>
      </trkpt>
      <trkpt lat="43.85587" lon="7.23941">
        <ele>669</ele>
        <time>2016-05-15T11:17:25.000Z</time>
      </trkpt>
      <trkpt lat="43.85585" lon="7.23943">
        <ele>669</ele>
        <time>2016-05-15T11:17:26.000Z</time>
      </trkpt>
      <trkpt lat="43.85583" lon="7.23942">
        <ele>653</ele>
        <time>2016-05-15T11:17:27.000Z</time>
      </trkpt>
      <trkpt lat="43.8558" lon="7.23944">
        <ele>652</ele>
        <time>2016-05-15T11:17:28.000Z</time>
      </trkpt>
      <trkpt lat="43.85573" lon="7.23948">
        <ele>651</ele>
        <time>2016-05-15T11:17:30.000Z</time>
      </trkpt>
      <trkpt lat="43.8557" lon="7.23949">
        <ele>651</ele>
        <time>2016-05-15T11:17:31.000Z</time>
      </trkpt>
      <trkpt lat="43.85567" lon="7.23948">
        <ele>650</ele>
        <time>2016-05-15T11:17:32.000Z</time>
      </trkpt>
      <trkpt lat="43.85564" lon="7.23947">
        <ele>650</ele>
        <time>2016-05-15T11:17:33.000Z</time>
      </trkpt>
      <trkpt lat="43.8556" lon="7.23948">
        <ele>649</ele>
        <time>2016-05-15T11:17:35.000Z</time>
      </trkpt>
      <trkpt lat="43.85555" lon="7.23952">
        <ele>648</ele>
        <time>2016-05-15T11:17:37.000Z</time>
      </trkpt>
      <trkpt lat="43.8555" lon="7.23952">
        <ele>647</ele>
        <time>2016-05-15T11:17:39.000Z</time>
      </trkpt>
      <trkpt lat="43.85547" lon="7.23953">
        <ele>646</ele>
        <time>2016-05-15T11:17:40.000Z</time>
      </trkpt>
      <trkpt lat="43.85544" lon="7.23956">
        <ele>645</ele>
        <time>2016-05-15T11:17:42.000Z</time>
      </trkpt>
      <trkpt lat="43.85544" lon="7.2396">
        <ele>645</ele>
        <time>2016-05-15T11:17:44.000Z</time>
      </trkpt>
      <trkpt lat="43.85545" lon="7.23968">
        <ele>645</ele>
        <time>2016-05-15T11:17:46.000Z</time>
      </trkpt>
      <trkpt lat="43.85547" lon="7.23971">
        <ele>645</ele>
        <time>2016-05-15T11:17:47.000Z</time>
      </trkpt>
      <trkpt lat="43.85547" lon="7.23975">
        <ele>645</ele>
        <time>2016-05-15T11:17:48.000Z</time>
      </trkpt>
      <trkpt lat="43.85547" lon="7.23979">
        <ele>645</ele>
        <time>2016-05-15T11:17:49.000Z</time>
      </trkpt>
      <trkpt lat="43.85546" lon="7.23988">
        <ele>645</ele>
        <time>2016-05-15T11:17:51.000Z</time>
      </trkpt>
      <trkpt lat="43.85545" lon="7.2399">
        <ele>645</ele>
        <time>2016-05-15T11:17:52.000Z</time>
      </trkpt>
      <trkpt lat="43.85543" lon="7.23993">
        <ele>644</ele>
        <time>2016-05-15T11:17:53.000Z</time>
      </trkpt>
      <trkpt lat="43.85541" lon="7.23994">
        <ele>643</ele>
        <time>2016-05-15T11:17:54.000Z</time>
      </trkpt>
      <trkpt lat="43.85538" lon="7.23994">
        <ele>642</ele>
        <time>2016-05-15T11:17:55.000Z</time>
      </trkpt>
      <trkpt lat="43.85535" lon="7.23994">
        <ele>642</ele>
        <time>2016-05-15T11:17:56.000Z</time>
      </trkpt>
      <trkpt lat="43.8553" lon="7.23998">
        <ele>640</ele>
        <time>2016-05-15T11:17:58.000Z</time>
      </trkpt>
      <trkpt lat="43.85527" lon="7.24">
        <ele>632</ele>
        <time>2016-05-15T11:17:59.000Z</time>
      </trkpt>
      <trkpt lat="43.85525" lon="7.24001">
        <ele>632</ele>
        <time>2016-05-15T11:18:00.000Z</time>
      </trkpt>
      <trkpt lat="43.85519" lon="7.24002">
        <ele>630</ele>
        <time>2016-05-15T11:18:02.000Z</time>
      </trkpt>
      <trkpt lat="43.85515" lon="7.24004">
        <ele>629</ele>
        <time>2016-05-15T11:18:04.000Z</time>
      </trkpt>
      <trkpt lat="43.85514" lon="7.24007">
        <ele>629</ele>
        <time>2016-05-15T11:18:05.000Z</time>
      </trkpt>
      <trkpt lat="43.85512" lon="7.2401">
        <ele>629</ele>
        <time>2016-05-15T11:18:06.000Z</time>
      </trkpt>
      <trkpt lat="43.85509" lon="7.24011">
        <ele>628</ele>
        <time>2016-05-15T11:18:08.000Z</time>
      </trkpt>
      <trkpt lat="43.85508" lon="7.24008">
        <ele>627</ele>
        <time>2016-05-15T11:18:09.000Z</time>
      </trkpt>
      <trkpt lat="43.85506" lon="7.24005">
        <ele>627</ele>
        <time>2016-05-15T11:18:11.000Z</time>
      </trkpt>
      <trkpt lat="43.85505" lon="7.24004">
        <ele>626</ele>
        <time>2016-05-15T11:18:12.000Z</time>
      </trkpt>
      <trkpt lat="43.85503" lon="7.24004">
        <ele>626</ele>
        <time>2016-05-15T11:18:13.000Z</time>
      </trkpt>
      <trkpt lat="43.85499" lon="7.24004">
        <ele>620</ele>
        <time>2016-05-15T11:18:15.000Z</time>
      </trkpt>
      <trkpt lat="43.85496" lon="7.23997">
        <ele>621</ele>
        <time>2016-05-15T11:18:17.000Z</time>
      </trkpt>
      <trkpt lat="43.85494" lon="7.23993">
        <ele>619</ele>
        <time>2016-05-15T11:18:19.000Z</time>
      </trkpt>
      <trkpt lat="43.85492" lon="7.23992">
        <ele>618</ele>
        <time>2016-05-15T11:18:20.000Z</time>
      </trkpt>
      <trkpt lat="43.85489" lon="7.23988">
        <ele>617</ele>
        <time>2016-05-15T11:18:22.000Z</time>
      </trkpt>
      <trkpt lat="43.85487" lon="7.2398">
        <ele>615</ele>
        <time>2016-05-15T11:18:24.000Z</time>
      </trkpt>
      <trkpt lat="43.85485" lon="7.2397">
        <ele>614</ele>
        <time>2016-05-15T11:18:26.000Z</time>
      </trkpt>
      <trkpt lat="43.85482" lon="7.23955">
        <ele>614</ele>
        <time>2016-05-15T11:18:30.000Z</time>
      </trkpt>
      <trkpt lat="43.85479" lon="7.23954">
        <ele>613</ele>
        <time>2016-05-15T11:18:32.000Z</time>
      </trkpt>
      <trkpt lat="43.85476" lon="7.23956">
        <ele>613</ele>
        <time>2016-05-15T11:18:34.000Z</time>
      </trkpt>
      <trkpt lat="43.85475" lon="7.23956">
        <ele>612</ele>
        <time>2016-05-15T11:18:35.000Z</time>
      </trkpt>
      <trkpt lat="43.85469" lon="7.23956">
        <ele>611</ele>
        <time>2016-05-15T11:18:38.000Z</time>
      </trkpt>
      <trkpt lat="43.85468" lon="7.23957">
        <ele>611</ele>
        <time>2016-05-15T11:18:39.000Z</time>
      </trkpt>
      <trkpt lat="43.85467" lon="7.23958">
        <ele>611</ele>
        <time>2016-05-15T11:18:40.000Z</time>
      </trkpt>
      <trkpt lat="43.85464" lon="7.23959">
        <ele>610</ele>
        <time>2016-05-15T11:18:42.000Z</time>
      </trkpt>
      <trkpt lat="43.85461" lon="7.23959">
        <ele>609</ele>
        <time>2016-05-15T11:18:44.000Z</time>
      </trkpt>
      <trkpt lat="43.85459" lon="7.23959">
        <ele>609</ele>
        <time>2016-05-15T11:18:45.000Z</time>
      </trkpt>
      <trkpt lat="43.85459" lon="7.2396">
        <ele>609</ele>
        <time>2016-05-15T11:18:46.000Z</time>
      </trkpt>
      <trkpt lat="43.85456" lon="7.23959">
        <ele>608</ele>
        <time>2016-05-15T11:18:48.000Z</time>
      </trkpt>
      <trkpt lat="43.85455" lon="7.23961">
        <ele>608</ele>
        <time>2016-05-15T11:18:50.000Z</time>
      </trkpt>
      <trkpt lat="43.85451" lon="7.23963">
        <ele>607</ele>
        <time>2016-05-15T11:18:53.000Z</time>
      </trkpt>
      <trkpt lat="43.85448" lon="7.23965">
        <ele>606</ele>
        <time>2016-05-15T11:18:55.000Z</time>
      </trkpt>
      <trkpt lat="43.85445" lon="7.23966">
        <ele>605</ele>
        <time>2016-05-15T11:18:57.000Z</time>
      </trkpt>
      <trkpt lat="43.85443" lon="7.23967">
        <ele>605</ele>
        <time>2016-05-15T11:18:59.000Z</time>
      </trkpt>
      <trkpt lat="43.85442" lon="7.23968">
        <ele>604</ele>
        <time>2016-05-15T11:19:00.000Z</time>
      </trkpt>
      <trkpt lat="43.85442" lon="7.23969">
        <ele>604</ele>
        <time>2016-05-15T11:19:01.000Z</time>
      </trkpt>
      <trkpt lat="43.8544" lon="7.2397">
        <ele>604</ele>
        <time>2016-05-15T11:19:02.000Z</time>
      </trkpt>
      <trkpt lat="43.85435" lon="7.23972">
        <ele>603</ele>
        <time>2016-05-15T11:19:04.000Z</time>
      </trkpt>
      <trkpt lat="43.85433" lon="7.23973">
        <ele>602</ele>
        <time>2016-05-15T11:19:05.000Z</time>
      </trkpt>
      <trkpt lat="43.85431" lon="7.23974">
        <ele>601</ele>
        <time>2016-05-15T11:19:06.000Z</time>
      </trkpt>
      <trkpt lat="43.85426" lon="7.23977">
        <ele>600</ele>
        <time>2016-05-15T11:19:08.000Z</time>
      </trkpt>
      <trkpt lat="43.85424" lon="7.23978">
        <ele>599</ele>
        <time>2016-05-15T11:19:09.000Z</time>
      </trkpt>
      <trkpt lat="43.85422" lon="7.2398">
        <ele>599</ele>
        <time>2016-05-15T11:19:10.000Z</time>
      </trkpt>
      <trkpt lat="43.85421" lon="7.23982">
        <ele>598</ele>
        <time>2016-05-15T11:19:11.000Z</time>
      </trkpt>
      <trkpt lat="43.85419" lon="7.23984">
        <ele>597</ele>
        <time>2016-05-15T11:19:12.000Z</time>
      </trkpt>
      <trkpt lat="43.85419" lon="7.23984">
        <ele>597</ele>
        <time>2016-05-15T11:19:13.000Z</time>
      </trkpt>
      <trkpt lat="43.8542" lon="7.23983">
        <ele>597</ele>
        <time>2016-05-15T11:19:15.000Z</time>
      </trkpt>
      <trkpt lat="43.8542" lon="7.23983">
        <ele>597</ele>
        <time>2016-05-15T11:19:16.000Z</time>
      </trkpt>
      <trkpt lat="43.8542" lon="7.23983">
        <ele>597</ele>
        <time>2016-05-15T11:19:18.000Z</time>
      </trkpt>
      <trkpt lat="43.8542" lon="7.23982">
        <ele>598</ele>
        <time>2016-05-15T11:19:27.000Z</time>
      </trkpt>
      <trkpt lat="43.85417" lon="7.23984">
        <ele>597</ele>
        <time>2016-05-15T11:19:38.000Z</time>
      </trkpt>
      <trkpt lat="43.85409" lon="7.23989">
        <ele>582</ele>
        <time>2016-05-15T11:19:42.000Z</time>
      </trkpt>
      <trkpt lat="43.85407" lon="7.2399">
        <ele>582</ele>
        <time>2016-05-15T11:19:43.000Z</time>
      </trkpt>
      <trkpt lat="43.85404" lon="7.23991">
        <ele>581</ele>
        <time>2016-05-15T11:19:44.000Z</time>
      </trkpt>
      <trkpt lat="43.85402" lon="7.23993">
        <ele>581</ele>
        <time>2016-05-15T11:19:45.000Z</time>
      </trkpt>
      <trkpt lat="43.85397" lon="7.23995">
        <ele>580</ele>
        <time>2016-05-15T11:19:47.000Z</time>
      </trkpt>
      <trkpt lat="43.85394" lon="7.23997">
        <ele>579</ele>
        <time>2016-05-15T11:19:48.000Z</time>
      </trkpt>
      <trkpt lat="43.8539" lon="7.23999">
        <ele>578</ele>
        <time>2016-05-15T11:19:49.000Z</time>
      </trkpt>
      <trkpt lat="43.85386" lon="7.24001">
        <ele>575</ele>
        <time>2016-05-15T11:19:50.000Z</time>
      </trkpt>
      <trkpt lat="43.85384" lon="7.24002">
        <ele>574</ele>
        <time>2016-05-15T11:19:52.000Z</time>
      </trkpt>
      <trkpt lat="43.85383" lon="7.24004">
        <ele>574</ele>
        <time>2016-05-15T11:19:53.000Z</time>
      </trkpt>
      <trkpt lat="43.85381" lon="7.24006">
        <ele>574</ele>
        <time>2016-05-15T11:19:54.000Z</time>
      </trkpt>
      <trkpt lat="43.85379" lon="7.24006">
        <ele>573</ele>
        <time>2016-05-15T11:19:55.000Z</time>
      </trkpt>
      <trkpt lat="43.85381" lon="7.24005">
        <ele>574</ele>
        <time>2016-05-15T11:19:56.000Z</time>
      </trkpt>
      <trkpt lat="43.85379" lon="7.24005">
        <ele>573</ele>
        <time>2016-05-15T11:19:57.000Z</time>
      </trkpt>
      <trkpt lat="43.85378" lon="7.24006">
        <ele>573</ele>
        <time>2016-05-15T11:19:59.000Z</time>
      </trkpt>
      <trkpt lat="43.85378" lon="7.24008">
        <ele>573</ele>
        <time>2016-05-15T11:20:00.000Z</time>
      </trkpt>
      <trkpt lat="43.85378" lon="7.24015">
        <ele>573</ele>
        <time>2016-05-15T11:20:02.000Z</time>
      </trkpt>
      <trkpt lat="43.85376" lon="7.24016">
        <ele>572</ele>
        <time>2016-05-15T11:20:03.000Z</time>
      </trkpt>
      <trkpt lat="43.85373" lon="7.24008">
        <ele>572</ele>
        <time>2016-05-15T11:20:05.000Z</time>
      </trkpt>
      <trkpt lat="43.85369" lon="7.23999">
        <ele>572</ele>
        <time>2016-05-15T11:20:08.000Z</time>
      </trkpt>
      <trkpt lat="43.85367" lon="7.24004">
        <ele>570</ele>
        <time>2016-05-15T11:20:11.000Z</time>
      </trkpt>
      <trkpt lat="43.85368" lon="7.24007">
        <ele>570</ele>
        <time>2016-05-15T11:20:12.000Z</time>
      </trkpt>
      <trkpt lat="43.8537" lon="7.24015">
        <ele>571</ele>
        <time>2016-05-15T11:20:14.000Z</time>
      </trkpt>
      <trkpt lat="43.8537" lon="7.24018">
        <ele>571</ele>
        <time>2016-05-15T11:20:15.000Z</time>
      </trkpt>
      <trkpt lat="43.8537" lon="7.2402">
        <ele>571</ele>
        <time>2016-05-15T11:20:16.000Z</time>
      </trkpt>
      <trkpt lat="43.85368" lon="7.24028">
        <ele>570</ele>
        <time>2016-05-15T11:20:18.000Z</time>
      </trkpt>
      <trkpt lat="43.85366" lon="7.2403">
        <ele>570</ele>
        <time>2016-05-15T11:20:19.000Z</time>
      </trkpt>
      <trkpt lat="43.85359" lon="7.24042">
        <ele>569</ele>
        <time>2016-05-15T11:20:22.000Z</time>
      </trkpt>
      <trkpt lat="43.85357" lon="7.24046">
        <ele>569</ele>
        <time>2016-05-15T11:20:23.000Z</time>
      </trkpt>
      <trkpt lat="43.8535" lon="7.24056">
        <ele>567</ele>
        <time>2016-05-15T11:20:26.000Z</time>
      </trkpt>
      <trkpt lat="43.85349" lon="7.24061">
        <ele>566</ele>
        <time>2016-05-15T11:20:27.000Z</time>
      </trkpt>
      <trkpt lat="43.85347" lon="7.24064">
        <ele>566</ele>
        <time>2016-05-15T11:20:29.000Z</time>
      </trkpt>
      <trkpt lat="43.85345" lon="7.24065">
        <ele>565</ele>
        <time>2016-05-15T11:20:30.000Z</time>
      </trkpt>
      <trkpt lat="43.85343" lon="7.24066">
        <ele>565</ele>
        <time>2016-05-15T11:20:31.000Z</time>
      </trkpt>
      <trkpt lat="43.85337" lon="7.24066">
        <ele>564</ele>
        <time>2016-05-15T11:20:34.000Z</time>
      </trkpt>
      <trkpt lat="43.85327" lon="7.24062">
        <ele>555</ele>
        <time>2016-05-15T11:20:37.000Z</time>
      </trkpt>
      <trkpt lat="43.85326" lon="7.2406">
        <ele>555</ele>
        <time>2016-05-15T11:20:38.000Z</time>
      </trkpt>
      <trkpt lat="43.85325" lon="7.2406">
        <ele>555</ele>
        <time>2016-05-15T11:20:39.000Z</time>
      </trkpt>
      <trkpt lat="43.85322" lon="7.2406">
        <ele>555</ele>
        <time>2016-05-15T11:20:41.000Z</time>
      </trkpt>
      <trkpt lat="43.8532" lon="7.2406">
        <ele>555</ele>
        <time>2016-05-15T11:20:42.000Z</time>
      </trkpt>
      <trkpt lat="43.85319" lon="7.24061">
        <ele>555</ele>
        <time>2016-05-15T11:20:43.000Z</time>
      </trkpt>
      <trkpt lat="43.8532" lon="7.2407">
        <ele>556</ele>
        <time>2016-05-15T11:20:46.000Z</time>
      </trkpt>
      <trkpt lat="43.85322" lon="7.24077">
        <ele>556</ele>
        <time>2016-05-15T11:20:48.000Z</time>
      </trkpt>
      <trkpt lat="43.85323" lon="7.2408">
        <ele>556</ele>
        <time>2016-05-15T11:20:49.000Z</time>
      </trkpt>
      <trkpt lat="43.85322" lon="7.24085">
        <ele>556</ele>
        <time>2016-05-15T11:20:51.000Z</time>
      </trkpt>
      <trkpt lat="43.8532" lon="7.24087">
        <ele>556</ele>
        <time>2016-05-15T11:20:52.000Z</time>
      </trkpt>
      <trkpt lat="43.85316" lon="7.24095">
        <ele>555</ele>
        <time>2016-05-15T11:20:56.000Z</time>
      </trkpt>
      <trkpt lat="43.85313" lon="7.24093">
        <ele>555</ele>
        <time>2016-05-15T11:20:58.000Z</time>
      </trkpt>
      <trkpt lat="43.85313" lon="7.24091">
        <ele>555</ele>
        <time>2016-05-15T11:20:59.000Z</time>
      </trkpt>
      <trkpt lat="43.85311" lon="7.24088">
        <ele>555</ele>
        <time>2016-05-15T11:21:01.000Z</time>
      </trkpt>
      <trkpt lat="43.85307" lon="7.24087">
        <ele>555</ele>
        <time>2016-05-15T11:21:03.000Z</time>
      </trkpt>
      <trkpt lat="43.85306" lon="7.24086">
        <ele>554</ele>
        <time>2016-05-15T11:21:04.000Z</time>
      </trkpt>
      <trkpt lat="43.85302" lon="7.24087">
        <ele>554</ele>
        <time>2016-05-15T11:21:06.000Z</time>
      </trkpt>
      <trkpt lat="43.85297" lon="7.2409">
        <ele>554</ele>
        <time>2016-05-15T11:21:08.000Z</time>
      </trkpt>
      <trkpt lat="43.85293" lon="7.24092">
        <ele>553</ele>
        <time>2016-05-15T11:21:09.000Z</time>
      </trkpt>
      <trkpt lat="43.85288" lon="7.24094">
        <ele>553</ele>
        <time>2016-05-15T11:21:10.000Z</time>
      </trkpt>
      <trkpt lat="43.85283" lon="7.2409">
        <ele>552</ele>
        <time>2016-05-15T11:21:12.000Z</time>
      </trkpt>
      <trkpt lat="43.85282" lon="7.24082">
        <ele>552</ele>
        <time>2016-05-15T11:21:14.000Z</time>
      </trkpt>
      <trkpt lat="43.85283" lon="7.24078">
        <ele>552</ele>
        <time>2016-05-15T11:21:15.000Z</time>
      </trkpt>
      <trkpt lat="43.85284" lon="7.24076">
        <ele>552</ele>
        <time>2016-05-15T11:21:16.000Z</time>
      </trkpt>
      <trkpt lat="43.85283" lon="7.24073">
        <ele>552</ele>
        <time>2016-05-15T11:21:17.000Z</time>
      </trkpt>
      <trkpt lat="43.85281" lon="7.24067">
        <ele>552</ele>
        <time>2016-05-15T11:21:19.000Z</time>
      </trkpt>
      <trkpt lat="43.85278" lon="7.24065">
        <ele>552</ele>
        <time>2016-05-15T11:21:20.000Z</time>
      </trkpt>
      <trkpt lat="43.85275" lon="7.24062">
        <ele>552</ele>
        <time>2016-05-15T11:21:23.000Z</time>
      </trkpt>
      <trkpt lat="43.85274" lon="7.24062">
        <ele>552</ele>
        <time>2016-05-15T11:21:24.000Z</time>
      </trkpt>
      <trkpt lat="43.85272" lon="7.24062">
        <ele>552</ele>
        <time>2016-05-15T11:21:26.000Z</time>
      </trkpt>
      <trkpt lat="43.85269" lon="7.24064">
        <ele>551</ele>
        <time>2016-05-15T11:21:28.000Z</time>
      </trkpt>
      <trkpt lat="43.85265" lon="7.2406">
        <ele>551</ele>
        <time>2016-05-15T11:21:32.000Z</time>
      </trkpt>
      <trkpt lat="43.85261" lon="7.2405">
        <ele>551</ele>
        <time>2016-05-15T11:21:37.000Z</time>
      </trkpt>
      <trkpt lat="43.85259" lon="7.24048">
        <ele>551</ele>
        <time>2016-05-15T11:21:38.000Z</time>
      </trkpt>
      <trkpt lat="43.85253" lon="7.2404">
        <ele>551</ele>
        <time>2016-05-15T11:21:42.000Z</time>
      </trkpt>
      <trkpt lat="43.85251" lon="7.24039">
        <ele>551</ele>
        <time>2016-05-15T11:21:43.000Z</time>
      </trkpt>
      <trkpt lat="43.85248" lon="7.24035">
        <ele>550</ele>
        <time>2016-05-15T11:21:46.000Z</time>
      </trkpt>
      <trkpt lat="43.85247" lon="7.2403">
        <ele>550</ele>
        <time>2016-05-15T11:21:48.000Z</time>
      </trkpt>
      <trkpt lat="43.85246" lon="7.24027">
        <ele>550</ele>
        <time>2016-05-15T11:21:49.000Z</time>
      </trkpt>
      <trkpt lat="43.85245" lon="7.24022">
        <ele>549</ele>
        <time>2016-05-15T11:21:51.000Z</time>
      </trkpt>
      <trkpt lat="43.85244" lon="7.24021">
        <ele>549</ele>
        <time>2016-05-15T11:21:52.000Z</time>
      </trkpt>
      <trkpt lat="43.85244" lon="7.24014">
        <ele>549</ele>
        <time>2016-05-15T11:21:55.000Z</time>
      </trkpt>
      <trkpt lat="43.85244" lon="7.24011">
        <ele>549</ele>
        <time>2016-05-15T11:21:57.000Z</time>
      </trkpt>
      <trkpt lat="43.85242" lon="7.24006">
        <ele>549</ele>
        <time>2016-05-15T11:22:00.000Z</time>
      </trkpt>
      <trkpt lat="43.8524" lon="7.24003">
        <ele>549</ele>
        <time>2016-05-15T11:22:02.000Z</time>
      </trkpt>
      <trkpt lat="43.85236" lon="7.23993">
        <ele>549</ele>
        <time>2016-05-15T11:22:07.000Z</time>
      </trkpt>
      <trkpt lat="43.85234" lon="7.23989">
        <ele>549</ele>
        <time>2016-05-15T11:22:09.000Z</time>
      </trkpt>
      <trkpt lat="43.85228" lon="7.23961">
        <ele>550</ele>
        <time>2016-05-15T11:22:19.000Z</time>
      </trkpt>
      <trkpt lat="43.85225" lon="7.23932">
        <ele>551</ele>
        <time>2016-05-15T11:22:28.000Z</time>
      </trkpt>
      <trkpt lat="43.85222" lon="7.23905">
        <ele>550</ele>
        <time>2016-05-15T11:22:36.000Z</time>
      </trkpt>
      <trkpt lat="43.85222" lon="7.23901">
        <ele>550</ele>
        <time>2016-05-15T11:22:37.000Z</time>
      </trkpt>
      <trkpt lat="43.85217" lon="7.23877">
        <ele>550</ele>
        <time>2016-05-15T11:22:44.000Z</time>
      </trkpt>
      <trkpt lat="43.85215" lon="7.23857">
        <ele>550</ele>
        <time>2016-05-15T11:22:49.000Z</time>
      </trkpt>
      <trkpt lat="43.85211" lon="7.23823">
        <ele>548</ele>
        <time>2016-05-15T11:22:57.000Z</time>
      </trkpt>
      <trkpt lat="43.85211" lon="7.23802">
        <ele>548</ele>
        <time>2016-05-15T11:23:02.000Z</time>
      </trkpt>
      <trkpt lat="43.85206" lon="7.23781">
        <ele>547</ele>
        <time>2016-05-15T11:23:07.000Z</time>
      </trkpt>
      <trkpt lat="43.85195" lon="7.23777">
        <ele>548</ele>
        <time>2016-05-15T11:23:11.000Z</time>
      </trkpt>
      <trkpt lat="43.85182" lon="7.23774">
        <ele>548</ele>
        <time>2016-05-15T11:23:16.000Z</time>
      </trkpt>
      <trkpt lat="43.85183" lon="7.23778">
        <ele>548</ele>
        <time>2016-05-15T11:23:19.000Z</time>
      </trkpt>
      <trkpt lat="43.85183" lon="7.23777">
        <ele>548</ele>
        <time>2016-05-15T11:23:21.000Z</time>
      </trkpt>
      <trkpt lat="43.85183" lon="7.23777">
        <ele>548</ele>
        <time>2016-05-15T11:23:26.000Z</time>
      </trkpt>
      <trkpt lat="43.85183" lon="7.23776">
        <ele>548</ele>
        <time>2016-05-15T11:23:38.000Z</time>
      </trkpt>
      <trkpt lat="43.85183" lon="7.23775">
        <ele>548</ele>
        <time>2016-05-15T11:23:47.000Z</time>
      </trkpt>
      <trkpt lat="43.85183" lon="7.23775">
        <ele>548</ele>
        <time>2016-05-15T11:23:51.000Z</time>
      </trkpt>
      <trkpt lat="43.85183" lon="7.23779">
        <ele>548</ele>
        <time>2016-05-15T11:23:56.000Z</time>
      </trkpt>
      <trkpt lat="43.85183" lon="7.23779">
        <ele>548</ele>
        <time>2016-05-15T11:24:03.000Z</time>
      </trkpt>
      <trkpt lat="43.85183" lon="7.23779">
        <ele>548</ele>
        <time>2016-05-15T11:24:11.000Z</time>
      </trkpt>
      <trkpt lat="43.85182" lon="7.2378">
        <ele>548</ele>
        <time>2016-05-15T11:24:21.000Z</time>
      </trkpt>
      <trkpt lat="43.85182" lon="7.23782">
        <ele>548</ele>
        <time>2016-05-15T11:24:27.000Z</time>
      </trkpt>
      <trkpt lat="43.85181" lon="7.23782">
        <ele>548</ele>
        <time>2016-05-15T11:24:38.000Z</time>
      </trkpt>
      <trkpt lat="43.85181" lon="7.23782">
        <ele>548</ele>
        <time>2016-05-15T11:24:45.000Z</time>
      </trkpt>
      <trkpt lat="43.8518" lon="7.23783">
        <ele>548</ele>
        <time>2016-05-15T11:24:55.000Z</time>
      </trkpt>
      <trkpt lat="43.85178" lon="7.23784">
        <ele>548</ele>
        <time>2016-05-15T11:25:05.000Z</time>
      </trkpt>
      <trkpt lat="43.85178" lon="7.23784">
        <ele>548</ele>
        <time>2016-05-15T11:25:15.000Z</time>
      </trkpt>
      <trkpt lat="43.85178" lon="7.23784">
        <ele>548</ele>
        <time>2016-05-15T11:25:16.000Z</time>
      </trkpt>
      <trkpt lat="43.85178" lon="7.23784">
        <ele>548</ele>
        <time>2016-05-15T11:25:24.000Z</time>
      </trkpt>
      <trkpt lat="43.85179" lon="7.23783">
        <ele>548</ele>
        <time>2016-05-15T11:25:35.000Z</time>
      </trkpt>
      <trkpt lat="43.85179" lon="7.23782">
        <ele>548</ele>
        <time>2016-05-15T11:25:42.000Z</time>
      </trkpt>
      <trkpt lat="43.85178" lon="7.23783">
        <ele>548</ele>
        <time>2016-05-15T11:25:51.000Z</time>
      </trkpt>
      <trkpt lat="43.8518" lon="7.23782">
        <ele>548</ele>
        <time>2016-05-15T11:26:01.000Z</time>
      </trkpt>
      <trkpt lat="43.85179" lon="7.23779">
        <ele>548</ele>
        <time>2016-05-15T11:26:10.000Z</time>
      </trkpt>
      <trkpt lat="43.85178" lon="7.23779">
        <ele>548</ele>
        <time>2016-05-15T11:26:16.000Z</time>
      </trkpt>
      <trkpt lat="43.85179" lon="7.23776">
        <ele>548</ele>
        <time>2016-05-15T11:26:23.000Z</time>
      </trkpt>
      <trkpt lat="43.8518" lon="7.23778">
        <ele>548</ele>
        <time>2016-05-15T11:26:33.000Z</time>
      </trkpt>
      <trkpt lat="43.85181" lon="7.23778">
        <ele>548</ele>
        <time>2016-05-15T11:26:42.000Z</time>
      </trkpt>
      <trkpt lat="43.8518" lon="7.23776">
        <ele>548</ele>
        <time>2016-05-15T11:26:51.000Z</time>
      </trkpt>
      <trkpt lat="43.8518" lon="7.23776">
        <ele>548</ele>
        <time>2016-05-15T11:26:59.000Z</time>
      </trkpt>
      <trkpt lat="43.85179" lon="7.23776">
        <ele>548</ele>
        <time>2016-05-15T11:27:11.000Z</time>
      </trkpt>
      <trkpt lat="43.85179" lon="7.23779">
        <ele>548</ele>
        <time>2016-05-15T11:27:20.000Z</time>
      </trkpt>
      <trkpt lat="43.85179" lon="7.2378">
        <ele>548</ele>
        <time>2016-05-15T11:27:27.000Z</time>
      </trkpt>
      <trkpt lat="43.8518" lon="7.23781">
        <ele>548</ele>
        <time>2016-05-15T11:27:34.000Z</time>
      </trkpt>
      <trkpt lat="43.85178" lon="7.23784">
        <ele>548</ele>
        <time>2016-05-15T11:27:41.000Z</time>
      </trkpt>
      <trkpt lat="43.85168" lon="7.23785">
        <ele>548</ele>
        <time>2016-05-15T11:27:46.000Z</time>
      </trkpt>
      <trkpt lat="43.85169" lon="7.23779">
        <ele>548</ele>
        <time>2016-05-15T11:27:50.000Z</time>
      </trkpt>
      <trkpt lat="43.8517" lon="7.23774">
        <ele>548</ele>
        <time>2016-05-15T11:27:52.000Z</time>
      </trkpt>
      <trkpt lat="43.85166" lon="7.23766">
        <ele>548</ele>
        <time>2016-05-15T11:27:55.000Z</time>
      </trkpt>
      <trkpt lat="43.8515" lon="7.23753">
        <ele>547</ele>
        <time>2016-05-15T11:28:00.000Z</time>
      </trkpt>
      <trkpt lat="43.85135" lon="7.23738">
        <ele>545</ele>
        <time>2016-05-15T11:28:05.000Z</time>
      </trkpt>
      <trkpt lat="43.8513" lon="7.23732">
        <ele>544</ele>
        <time>2016-05-15T11:28:09.000Z</time>
      </trkpt>
      <trkpt lat="43.8513" lon="7.23733">
        <ele>544</ele>
        <time>2016-05-15T11:28:12.000Z</time>
      </trkpt>
      <trkpt lat="43.8513" lon="7.23733">
        <ele>544</ele>
        <time>2016-05-15T11:28:16.000Z</time>
      </trkpt>
      <trkpt lat="43.8513" lon="7.23734">
        <ele>544</ele>
        <time>2016-05-15T11:28:24.000Z</time>
      </trkpt>
      <trkpt lat="43.8513" lon="7.23737">
        <ele>544</ele>
        <time>2016-05-15T11:28:32.000Z</time>
      </trkpt>
      <trkpt lat="43.8513" lon="7.23737">
        <ele>544</ele>
        <time>2016-05-15T11:28:39.000Z</time>
      </trkpt>
      <trkpt lat="43.8513" lon="7.23739">
        <ele>544</ele>
        <time>2016-05-15T11:28:47.000Z</time>
      </trkpt>
      <trkpt lat="43.8513" lon="7.2374">
        <ele>544</ele>
        <time>2016-05-15T11:28:56.000Z</time>
      </trkpt>
      <trkpt lat="43.85129" lon="7.23741">
        <ele>544</ele>
        <time>2016-05-15T11:29:02.000Z</time>
      </trkpt>
      <trkpt lat="43.85128" lon="7.23745">
        <ele>544</ele>
        <time>2016-05-15T11:29:11.000Z</time>
      </trkpt>
      <trkpt lat="43.85127" lon="7.23747">
        <ele>544</ele>
        <time>2016-05-15T11:29:18.000Z</time>
      </trkpt>
      <trkpt lat="43.85127" lon="7.2375">
        <ele>544</ele>
        <time>2016-05-15T11:29:24.000Z</time>
      </trkpt>
      <trkpt lat="43.85127" lon="7.23751">
        <ele>546</ele>
        <time>2016-05-15T11:29:33.000Z</time>
      </trkpt>
      <trkpt lat="43.85128" lon="7.23749">
        <ele>544</ele>
        <time>2016-05-15T11:29:38.000Z</time>
      </trkpt>
      <trkpt lat="43.85126" lon="7.23748">
        <ele>544</ele>
        <time>2016-05-15T11:29:40.000Z</time>
      </trkpt>
      <trkpt lat="43.85122" lon="7.23743">
        <ele>544</ele>
        <time>2016-05-15T11:29:43.000Z</time>
      </trkpt>
      <trkpt lat="43.85113" lon="7.2374">
        <ele>544</ele>
        <time>2016-05-15T11:29:47.000Z</time>
      </trkpt>
      <trkpt lat="43.85106" lon="7.23745">
        <ele>543</ele>
        <time>2016-05-15T11:29:50.000Z</time>
      </trkpt>
      <trkpt lat="43.85104" lon="7.23746">
        <ele>543</ele>
        <time>2016-05-15T11:29:51.000Z</time>
      </trkpt>
      <trkpt lat="43.85101" lon="7.23748">
        <ele>543</ele>
        <time>2016-05-15T11:29:52.000Z</time>
      </trkpt>
      <trkpt lat="43.85096" lon="7.23749">
        <ele>543</ele>
        <time>2016-05-15T11:29:54.000Z</time>
      </trkpt>
      <trkpt lat="43.8509" lon="7.23752">
        <ele>544</ele>
        <time>2016-05-15T11:29:56.000Z</time>
      </trkpt>
      <trkpt lat="43.85075" lon="7.2376">
        <ele>543</ele>
        <time>2016-05-15T11:30:02.000Z</time>
      </trkpt>
      <trkpt lat="43.85059" lon="7.23764">
        <ele>543</ele>
        <time>2016-05-15T11:30:08.000Z</time>
      </trkpt>
      <trkpt lat="43.85043" lon="7.23762">
        <ele>543</ele>
        <time>2016-05-15T11:30:14.000Z</time>
      </trkpt>
      <trkpt lat="43.85034" lon="7.2376">
        <ele>543</ele>
        <time>2016-05-15T11:30:18.000Z</time>
      </trkpt>
      <trkpt lat="43.85031" lon="7.23756">
        <ele>543</ele>
        <time>2016-05-15T11:30:20.000Z</time>
      </trkpt>
      <trkpt lat="43.8503" lon="7.23752">
        <ele>543</ele>
        <time>2016-05-15T11:30:21.000Z</time>
      </trkpt>
      <trkpt lat="43.85029" lon="7.2375">
        <ele>542</ele>
        <time>2016-05-15T11:30:22.000Z</time>
      </trkpt>
      <trkpt lat="43.85022" lon="7.2373">
        <ele>542</ele>
        <time>2016-05-15T11:30:28.000Z</time>
      </trkpt>
      <trkpt lat="43.85007" lon="7.23701">
        <ele>542</ele>
        <time>2016-05-15T11:30:37.000Z</time>
      </trkpt>
      <trkpt lat="43.84999" lon="7.23708">
        <ele>543</ele>
        <time>2016-05-15T11:30:41.000Z</time>
      </trkpt>
      <trkpt lat="43.84982" lon="7.23721">
        <ele>543</ele>
        <time>2016-05-15T11:30:49.000Z</time>
      </trkpt>
      <trkpt lat="43.84968" lon="7.23732">
        <ele>543</ele>
        <time>2016-05-15T11:30:55.000Z</time>
      </trkpt>
      <trkpt lat="43.84956" lon="7.23743">
        <ele>543</ele>
        <time>2016-05-15T11:31:01.000Z</time>
      </trkpt>
      <trkpt lat="43.84946" lon="7.23747">
        <ele>543</ele>
        <time>2016-05-15T11:31:05.000Z</time>
      </trkpt>
      <trkpt lat="43.84942" lon="7.23743">
        <ele>543</ele>
        <time>2016-05-15T11:31:07.000Z</time>
      </trkpt>
      <trkpt lat="43.84938" lon="7.23741">
        <ele>543</ele>
        <time>2016-05-15T11:31:09.000Z</time>
      </trkpt>
      <trkpt lat="43.84935" lon="7.23742">
        <ele>544</ele>
        <time>2016-05-15T11:31:10.000Z</time>
      </trkpt>
      <trkpt lat="43.84929" lon="7.23746">
        <ele>544</ele>
        <time>2016-05-15T11:31:12.000Z</time>
      </trkpt>
      <trkpt lat="43.84923" lon="7.23747">
        <ele>544</ele>
        <time>2016-05-15T11:31:14.000Z</time>
      </trkpt>
      <trkpt lat="43.84907" lon="7.23752">
        <ele>544</ele>
        <time>2016-05-15T11:31:19.000Z</time>
      </trkpt>
      <trkpt lat="43.84888" lon="7.23764">
        <ele>545</ele>
        <time>2016-05-15T11:31:25.000Z</time>
      </trkpt>
      <trkpt lat="43.84862" lon="7.23779">
        <ele>545</ele>
        <time>2016-05-15T11:31:33.000Z</time>
      </trkpt>
      <trkpt lat="43.84855" lon="7.23785">
        <ele>545</ele>
        <time>2016-05-15T11:31:35.000Z</time>
      </trkpt>
      <trkpt lat="43.84843" lon="7.23794">
        <ele>545</ele>
        <time>2016-05-15T11:31:38.000Z</time>
      </trkpt>
      <trkpt lat="43.84815" lon="7.23816">
        <ele>544</ele>
        <time>2016-05-15T11:31:45.000Z</time>
      </trkpt>
      <trkpt lat="43.84805" lon="7.23826">
        <ele>544</ele>
        <time>2016-05-15T11:31:49.000Z</time>
      </trkpt>
      <trkpt lat="43.84787" lon="7.23839">
        <ele>545</ele>
        <time>2016-05-15T11:31:54.000Z</time>
      </trkpt>
      <trkpt lat="43.84761" lon="7.2386">
        <ele>545</ele>
        <time>2016-05-15T11:32:01.000Z</time>
      </trkpt>
      <trkpt lat="43.84733" lon="7.23883">
        <ele>544</ele>
        <time>2016-05-15T11:32:09.000Z</time>
      </trkpt>
      <trkpt lat="43.84707" lon="7.23903">
        <ele>544</ele>
        <time>2016-05-15T11:32:16.000Z</time>
      </trkpt>
      <trkpt lat="43.84682" lon="7.23921">
        <ele>545</ele>
        <time>2016-05-15T11:32:22.000Z</time>
      </trkpt>
      <trkpt lat="43.84654" lon="7.23943">
        <ele>543</ele>
        <time>2016-05-15T11:32:29.000Z</time>
      </trkpt>
      <trkpt lat="43.84646" lon="7.2395">
        <ele>543</ele>
        <time>2016-05-15T11:32:31.000Z</time>
      </trkpt>
      <trkpt lat="43.84622" lon="7.23968">
        <ele>542</ele>
        <time>2016-05-15T11:32:37.000Z</time>
      </trkpt>
    </trkseg>
  </trk>
  <trk>
    <name><![CDATA[20180512095649-sKTlZ]]></name>
    <trkseg>
      <trkpt lat="43.84622" lon="7.23968">
        <ele>542</ele>
        <time>2016-05-15T11:32:37.000Z</time>
      </trkpt>
      <trkpt lat="43.84593" lon="7.23991">
        <ele>541</ele>
        <time>2016-05-15T11:32:44.000Z</time>
      </trkpt>
      <trkpt lat="43.84583" lon="7.23993">
        <ele>541</ele>
        <time>2016-05-15T11:32:47.000Z</time>
      </trkpt>
      <trkpt lat="43.84578" lon="7.2399">
        <ele>541</ele>
        <time>2016-05-15T11:32:48.000Z</time>
      </trkpt>
      <trkpt lat="43.84562" lon="7.23979">
        <ele>541</ele>
        <time>2016-05-15T11:32:52.000Z</time>
      </trkpt>
      <trkpt lat="43.84544" lon="7.2397">
        <ele>540</ele>
        <time>2016-05-15T11:32:56.000Z</time>
      </trkpt>
      <trkpt lat="43.8451" lon="7.23955">
        <ele>541</ele>
        <time>2016-05-15T11:33:04.000Z</time>
      </trkpt>
      <trkpt lat="43.84502" lon="7.23948">
        <ele>541</ele>
        <time>2016-05-15T11:33:06.000Z</time>
      </trkpt>
      <trkpt lat="43.84499" lon="7.23945">
        <ele>543</ele>
        <time>2016-05-15T11:33:07.000Z</time>
      </trkpt>
      <trkpt lat="43.84494" lon="7.23939">
        <ele>543</ele>
        <time>2016-05-15T11:33:09.000Z</time>
      </trkpt>
      <trkpt lat="43.8447" lon="7.23915">
        <ele>546</ele>
        <time>2016-05-15T11:33:19.000Z</time>
      </trkpt>
      <trkpt lat="43.84456" lon="7.23907">
        <ele>547</ele>
        <time>2016-05-15T11:33:24.000Z</time>
      </trkpt>
      <trkpt lat="43.84454" lon="7.23906">
        <ele>547</ele>
        <time>2016-05-15T11:33:25.000Z</time>
      </trkpt>
      <trkpt lat="43.84441" lon="7.23905">
        <ele>548</ele>
        <time>2016-05-15T11:33:30.000Z</time>
      </trkpt>
      <trkpt lat="43.84439" lon="7.23905">
        <ele>548</ele>
        <time>2016-05-15T11:33:31.000Z</time>
      </trkpt>
      <trkpt lat="43.84434" lon="7.23906">
        <ele>548</ele>
        <time>2016-05-15T11:33:35.000Z</time>
      </trkpt>
      <trkpt lat="43.84433" lon="7.23905">
        <ele>548</ele>
        <time>2016-05-15T11:33:39.000Z</time>
      </trkpt>
      <trkpt lat="43.84431" lon="7.23903">
        <ele>549</ele>
        <time>2016-05-15T11:33:43.000Z</time>
      </trkpt>
      <trkpt lat="43.8443" lon="7.23901">
        <ele>549</ele>
        <time>2016-05-15T11:33:46.000Z</time>
      </trkpt>
      <trkpt lat="43.84429" lon="7.23897">
        <ele>548</ele>
        <time>2016-05-15T11:33:49.000Z</time>
      </trkpt>
      <trkpt lat="43.84428" lon="7.23895">
        <ele>548</ele>
        <time>2016-05-15T11:33:51.000Z</time>
      </trkpt>
      <trkpt lat="43.84426" lon="7.23893">
        <ele>549</ele>
        <time>2016-05-15T11:33:53.000Z</time>
      </trkpt>
      <trkpt lat="43.84422" lon="7.23888">
        <ele>549</ele>
        <time>2016-05-15T11:33:57.000Z</time>
      </trkpt>
      <trkpt lat="43.8442" lon="7.23885">
        <ele>549</ele>
        <time>2016-05-15T11:34:01.000Z</time>
      </trkpt>
      <trkpt lat="43.84419" lon="7.23883">
        <ele>549</ele>
        <time>2016-05-15T11:34:03.000Z</time>
      </trkpt>
      <trkpt lat="43.84419" lon="7.23882">
        <ele>549</ele>
        <time>2016-05-15T11:34:04.000Z</time>
      </trkpt>
      <trkpt lat="43.84418" lon="7.23877">
        <ele>549</ele>
        <time>2016-05-15T11:34:08.000Z</time>
      </trkpt>
      <trkpt lat="43.84418" lon="7.23876">
        <ele>549</ele>
        <time>2016-05-15T11:34:09.000Z</time>
      </trkpt>
      <trkpt lat="43.84416" lon="7.23873">
        <ele>556</ele>
        <time>2016-05-15T11:34:13.000Z</time>
      </trkpt>
      <trkpt lat="43.84415" lon="7.23872">
        <ele>556</ele>
        <time>2016-05-15T11:34:16.000Z</time>
      </trkpt>
      <trkpt lat="43.84414" lon="7.2387">
        <ele>556</ele>
        <time>2016-05-15T11:34:19.000Z</time>
      </trkpt>
      <trkpt lat="43.84411" lon="7.23866">
        <ele>556</ele>
        <time>2016-05-15T11:34:24.000Z</time>
      </trkpt>
      <trkpt lat="43.84409" lon="7.23866">
        <ele>556</ele>
        <time>2016-05-15T11:34:28.000Z</time>
      </trkpt>
      <trkpt lat="43.84407" lon="7.23866">
        <ele>556</ele>
        <time>2016-05-15T11:34:29.000Z</time>
      </trkpt>
      <trkpt lat="43.84407" lon="7.23866">
        <ele>556</ele>
        <time>2016-05-15T11:34:30.000Z</time>
      </trkpt>
      <trkpt lat="43.84407" lon="7.23866">
        <ele>556</ele>
        <time>2016-05-15T11:34:32.000Z</time>
      </trkpt>
      <trkpt lat="43.84403" lon="7.23865">
        <ele>557</ele>
        <time>2016-05-15T11:34:37.000Z</time>
      </trkpt>
      <trkpt lat="43.84403" lon="7.23864">
        <ele>557</ele>
        <time>2016-05-15T11:34:38.000Z</time>
      </trkpt>
      <trkpt lat="43.844" lon="7.23862">
        <ele>557</ele>
        <time>2016-05-15T11:34:43.000Z</time>
      </trkpt>
      <trkpt lat="43.84399" lon="7.23861">
        <ele>557</ele>
        <time>2016-05-15T11:34:45.000Z</time>
      </trkpt>
      <trkpt lat="43.84396" lon="7.23862">
        <ele>557</ele>
        <time>2016-05-15T11:34:48.000Z</time>
      </trkpt>
      <trkpt lat="43.84395" lon="7.23859">
        <ele>557</ele>
        <time>2016-05-15T11:34:50.000Z</time>
      </trkpt>
      <trkpt lat="43.84394" lon="7.23858">
        <ele>557</ele>
        <time>2016-05-15T11:34:51.000Z</time>
      </trkpt>
      <trkpt lat="43.84394" lon="7.23855">
        <ele>557</ele>
        <time>2016-05-15T11:34:56.000Z</time>
      </trkpt>
      <trkpt lat="43.84394" lon="7.23853">
        <ele>557</ele>
        <time>2016-05-15T11:34:57.000Z</time>
      </trkpt>
      <trkpt lat="43.84394" lon="7.23843">
        <ele>557</ele>
        <time>2016-05-15T11:35:01.000Z</time>
      </trkpt>
      <trkpt lat="43.84397" lon="7.23834">
        <ele>556</ele>
        <time>2016-05-15T11:35:04.000Z</time>
      </trkpt>
      <trkpt lat="43.84398" lon="7.23827">
        <ele>559</ele>
        <time>2016-05-15T11:35:06.000Z</time>
      </trkpt>
      <trkpt lat="43.84396" lon="7.23824">
        <ele>559</ele>
        <time>2016-05-15T11:35:08.000Z</time>
      </trkpt>
      <trkpt lat="43.84394" lon="7.2382">
        <ele>560</ele>
        <time>2016-05-15T11:35:10.000Z</time>
      </trkpt>
      <trkpt lat="43.84393" lon="7.23808">
        <ele>561</ele>
        <time>2016-05-15T11:35:15.000Z</time>
      </trkpt>
      <trkpt lat="43.84391" lon="7.23801">
        <ele>562</ele>
        <time>2016-05-15T11:35:18.000Z</time>
      </trkpt>
      <trkpt lat="43.84388" lon="7.23799">
        <ele>562</ele>
        <time>2016-05-15T11:35:21.000Z</time>
      </trkpt>
      <trkpt lat="43.84386" lon="7.23798">
        <ele>562</ele>
        <time>2016-05-15T11:35:24.000Z</time>
      </trkpt>
      <trkpt lat="43.84383" lon="7.23798">
        <ele>563</ele>
        <time>2016-05-15T11:35:27.000Z</time>
      </trkpt>
      <trkpt lat="43.84379" lon="7.23797">
        <ele>563</ele>
        <time>2016-05-15T11:35:31.000Z</time>
      </trkpt>
      <trkpt lat="43.84375" lon="7.23797">
        <ele>563</ele>
        <time>2016-05-15T11:35:35.000Z</time>
      </trkpt>
      <trkpt lat="43.84374" lon="7.23797">
        <ele>563</ele>
        <time>2016-05-15T11:35:36.000Z</time>
      </trkpt>
      <trkpt lat="43.84368" lon="7.23797">
        <ele>564</ele>
        <time>2016-05-15T11:35:42.000Z</time>
      </trkpt>
      <trkpt lat="43.8436" lon="7.23798">
        <ele>565</ele>
        <time>2016-05-15T11:35:50.000Z</time>
      </trkpt>
      <trkpt lat="43.84357" lon="7.23797">
        <ele>565</ele>
        <time>2016-05-15T11:35:53.000Z</time>
      </trkpt>
      <trkpt lat="43.84354" lon="7.23796">
        <ele>565</ele>
        <time>2016-05-15T11:35:56.000Z</time>
      </trkpt>
      <trkpt lat="43.84353" lon="7.23796">
        <ele>565</ele>
        <time>2016-05-15T11:35:57.000Z</time>
      </trkpt>
      <trkpt lat="43.84347" lon="7.23795">
        <ele>566</ele>
        <time>2016-05-15T11:36:02.000Z</time>
      </trkpt>
      <trkpt lat="43.84344" lon="7.23796">
        <ele>566</ele>
        <time>2016-05-15T11:36:04.000Z</time>
      </trkpt>
      <trkpt lat="43.84343" lon="7.23795">
        <ele>566</ele>
        <time>2016-05-15T11:36:05.000Z</time>
      </trkpt>
      <trkpt lat="43.84338" lon="7.23793">
        <ele>566</ele>
        <time>2016-05-15T11:36:09.000Z</time>
      </trkpt>
      <trkpt lat="43.84336" lon="7.23792">
        <ele>566</ele>
        <time>2016-05-15T11:36:11.000Z</time>
      </trkpt>
      <trkpt lat="43.84332" lon="7.23792">
        <ele>569</ele>
        <time>2016-05-15T11:36:14.000Z</time>
      </trkpt>
      <trkpt lat="43.8433" lon="7.23792">
        <ele>569</ele>
        <time>2016-05-15T11:36:15.000Z</time>
      </trkpt>
      <trkpt lat="43.84329" lon="7.23791">
        <ele>569</ele>
        <time>2016-05-15T11:36:16.000Z</time>
      </trkpt>
      <trkpt lat="43.84323" lon="7.23788">
        <ele>569</ele>
        <time>2016-05-15T11:36:20.000Z</time>
      </trkpt>
      <trkpt lat="43.84314" lon="7.23785">
        <ele>569</ele>
        <time>2016-05-15T11:36:25.000Z</time>
      </trkpt>
      <trkpt lat="43.84313" lon="7.23787">
        <ele>569</ele>
        <time>2016-05-15T11:36:26.000Z</time>
      </trkpt>
      <trkpt lat="43.84306" lon="7.23788">
        <ele>569</ele>
        <time>2016-05-15T11:36:30.000Z</time>
      </trkpt>
      <trkpt lat="43.8429" lon="7.23776">
        <ele>568</ele>
        <time>2016-05-15T11:36:35.000Z</time>
      </trkpt>
      <trkpt lat="43.84272" lon="7.23765">
        <ele>567</ele>
        <time>2016-05-15T11:36:40.000Z</time>
      </trkpt>
      <trkpt lat="43.84268" lon="7.23763">
        <ele>567</ele>
        <time>2016-05-15T11:36:41.000Z</time>
      </trkpt>
      <trkpt lat="43.84265" lon="7.23759">
        <ele>567</ele>
        <time>2016-05-15T11:36:42.000Z</time>
      </trkpt>
      <trkpt lat="43.84257" lon="7.23752">
        <ele>566</ele>
        <time>2016-05-15T11:36:44.000Z</time>
      </trkpt>
      <trkpt lat="43.84246" lon="7.23743">
        <ele>564</ele>
        <time>2016-05-15T11:36:47.000Z</time>
      </trkpt>
      <trkpt lat="43.84243" lon="7.23741">
        <ele>564</ele>
        <time>2016-05-15T11:36:48.000Z</time>
      </trkpt>
      <trkpt lat="43.84235" lon="7.23731">
        <ele>563</ele>
        <time>2016-05-15T11:36:51.000Z</time>
      </trkpt>
      <trkpt lat="43.84233" lon="7.23727">
        <ele>563</ele>
        <time>2016-05-15T11:36:52.000Z</time>
      </trkpt>
      <trkpt lat="43.84222" lon="7.23718">
        <ele>563</ele>
        <time>2016-05-15T11:36:55.000Z</time>
      </trkpt>
      <trkpt lat="43.84218" lon="7.23714">
        <ele>563</ele>
        <time>2016-05-15T11:36:56.000Z</time>
      </trkpt>
      <trkpt lat="43.84214" lon="7.23711">
        <ele>562</ele>
        <time>2016-05-15T11:36:57.000Z</time>
      </trkpt>
      <trkpt lat="43.84201" lon="7.23702">
        <ele>562</ele>
        <time>2016-05-15T11:37:00.000Z</time>
      </trkpt>
      <trkpt lat="43.84195" lon="7.23698">
        <ele>561</ele>
        <time>2016-05-15T11:37:01.000Z</time>
      </trkpt>
      <trkpt lat="43.8419" lon="7.23692">
        <ele>561</ele>
        <time>2016-05-15T11:37:02.000Z</time>
      </trkpt>
      <trkpt lat="43.84178" lon="7.23686">
        <ele>560</ele>
        <time>2016-05-15T11:37:04.000Z</time>
      </trkpt>
      <trkpt lat="43.84172" lon="7.23682">
        <ele>560</ele>
        <time>2016-05-15T11:37:05.000Z</time>
      </trkpt>
      <trkpt lat="43.84165" lon="7.23677">
        <ele>559</ele>
        <time>2016-05-15T11:37:06.000Z</time>
      </trkpt>
      <trkpt lat="43.84159" lon="7.23674">
        <ele>559</ele>
        <time>2016-05-15T11:37:07.000Z</time>
      </trkpt>
      <trkpt lat="43.84154" lon="7.23671">
        <ele>560</ele>
        <time>2016-05-15T11:37:08.000Z</time>
      </trkpt>
      <trkpt lat="43.84151" lon="7.2367">
        <ele>560</ele>
        <time>2016-05-15T11:37:09.000Z</time>
      </trkpt>
      <trkpt lat="43.84146" lon="7.23667">
        <ele>561</ele>
        <time>2016-05-15T11:37:11.000Z</time>
      </trkpt>
      <trkpt lat="43.84142" lon="7.23663">
        <ele>563</ele>
        <time>2016-05-15T11:37:13.000Z</time>
      </trkpt>
      <trkpt lat="43.84133" lon="7.23663">
        <ele>564</ele>
        <time>2016-05-15T11:37:16.000Z</time>
      </trkpt>
      <trkpt lat="43.8413" lon="7.23663">
        <ele>564</ele>
        <time>2016-05-15T11:37:17.000Z</time>
      </trkpt>
      <trkpt lat="43.84117" lon="7.23657">
        <ele>566</ele>
        <time>2016-05-15T11:37:21.000Z</time>
      </trkpt>
      <trkpt lat="43.84111" lon="7.23655">
        <ele>566</ele>
        <time>2016-05-15T11:37:23.000Z</time>
      </trkpt>
      <trkpt lat="43.84108" lon="7.23657">
        <ele>566</ele>
        <time>2016-05-15T11:37:24.000Z</time>
      </trkpt>
      <trkpt lat="43.84106" lon="7.2366">
        <ele>566</ele>
        <time>2016-05-15T11:37:25.000Z</time>
      </trkpt>
      <trkpt lat="43.84103" lon="7.2367">
        <ele>565</ele>
        <time>2016-05-15T11:37:28.000Z</time>
      </trkpt>
      <trkpt lat="43.84101" lon="7.23677">
        <ele>565</ele>
        <time>2016-05-15T11:37:30.000Z</time>
      </trkpt>
      <trkpt lat="43.84102" lon="7.2369">
        <ele>564</ele>
        <time>2016-05-15T11:37:35.000Z</time>
      </trkpt>
      <trkpt lat="43.84102" lon="7.23698">
        <ele>564</ele>
        <time>2016-05-15T11:37:39.000Z</time>
      </trkpt>
      <trkpt lat="43.84102" lon="7.23702">
        <ele>564</ele>
        <time>2016-05-15T11:37:41.000Z</time>
      </trkpt>
      <trkpt lat="43.84101" lon="7.23706">
        <ele>564</ele>
        <time>2016-05-15T11:37:43.000Z</time>
      </trkpt>
      <trkpt lat="43.84102" lon="7.23712">
        <ele>564</ele>
        <time>2016-05-15T11:37:46.000Z</time>
      </trkpt>
      <trkpt lat="43.84101" lon="7.23713">
        <ele>564</ele>
        <time>2016-05-15T11:37:47.000Z</time>
      </trkpt>
      <trkpt lat="43.84101" lon="7.23715">
        <ele>564</ele>
        <time>2016-05-15T11:37:49.000Z</time>
      </trkpt>
      <trkpt lat="43.84101" lon="7.23716">
        <ele>564</ele>
        <time>2016-05-15T11:37:51.000Z</time>
      </trkpt>
      <trkpt lat="43.84101" lon="7.23716">
        <ele>564</ele>
        <time>2016-05-15T11:37:52.000Z</time>
      </trkpt>
      <trkpt lat="43.841" lon="7.23719">
        <ele>564</ele>
        <time>2016-05-15T11:37:57.000Z</time>
      </trkpt>
      <trkpt lat="43.84098" lon="7.23723">
        <ele>564</ele>
        <time>2016-05-15T11:38:03.000Z</time>
      </trkpt>
      <trkpt lat="43.84095" lon="7.23725">
        <ele>565</ele>
        <time>2016-05-15T11:38:08.000Z</time>
      </trkpt>
      <trkpt lat="43.84094" lon="7.23726">
        <ele>565</ele>
        <time>2016-05-15T11:38:10.000Z</time>
      </trkpt>
      <trkpt lat="43.84093" lon="7.23729">
        <ele>565</ele>
        <time>2016-05-15T11:38:15.000Z</time>
      </trkpt>
      <trkpt lat="43.84091" lon="7.23732">
        <ele>565</ele>
        <time>2016-05-15T11:38:20.000Z</time>
      </trkpt>
      <trkpt lat="43.84091" lon="7.23733">
        <ele>566</ele>
        <time>2016-05-15T11:38:21.000Z</time>
      </trkpt>
      <trkpt lat="43.84088" lon="7.23736">
        <ele>566</ele>
        <time>2016-05-15T11:38:27.000Z</time>
      </trkpt>
      <trkpt lat="43.84088" lon="7.23737">
        <ele>566</ele>
        <time>2016-05-15T11:38:29.000Z</time>
      </trkpt>
      <trkpt lat="43.84086" lon="7.2374">
        <ele>567</ele>
        <time>2016-05-15T11:38:35.000Z</time>
      </trkpt>
      <trkpt lat="43.84085" lon="7.23741">
        <ele>567</ele>
        <time>2016-05-15T11:38:36.000Z</time>
      </trkpt>
      <trkpt lat="43.84083" lon="7.23745">
        <ele>571</ele>
        <time>2016-05-15T11:38:42.000Z</time>
      </trkpt>
      <trkpt lat="43.84082" lon="7.23747">
        <ele>570</ele>
        <time>2016-05-15T11:38:45.000Z</time>
      </trkpt>
      <trkpt lat="43.8408" lon="7.23748">
        <ele>570</ele>
        <time>2016-05-15T11:38:48.000Z</time>
      </trkpt>
      <trkpt lat="43.84077" lon="7.23749">
        <ele>571</ele>
        <time>2016-05-15T11:38:52.000Z</time>
      </trkpt>
      <trkpt lat="43.84077" lon="7.23749">
        <ele>571</ele>
        <time>2016-05-15T11:38:53.000Z</time>
      </trkpt>
      <trkpt lat="43.84074" lon="7.23751">
        <ele>571</ele>
        <time>2016-05-15T11:38:58.000Z</time>
      </trkpt>
      <trkpt lat="43.84072" lon="7.23751">
        <ele>571</ele>
        <time>2016-05-15T11:39:00.000Z</time>
      </trkpt>
      <trkpt lat="43.84069" lon="7.23751">
        <ele>571</ele>
        <time>2016-05-15T11:39:04.000Z</time>
      </trkpt>
      <trkpt lat="43.84066" lon="7.23752">
        <ele>572</ele>
        <time>2016-05-15T11:39:08.000Z</time>
      </trkpt>
      <trkpt lat="43.84065" lon="7.23753">
        <ele>572</ele>
        <time>2016-05-15T11:39:09.000Z</time>
      </trkpt>
      <trkpt lat="43.84063" lon="7.23755">
        <ele>572</ele>
        <time>2016-05-15T11:39:13.000Z</time>
      </trkpt>
      <trkpt lat="43.84059" lon="7.23754">
        <ele>573</ele>
        <time>2016-05-15T11:39:18.000Z</time>
      </trkpt>
      <trkpt lat="43.84056" lon="7.23752">
        <ele>573</ele>
        <time>2016-05-15T11:39:23.000Z</time>
      </trkpt>
      <trkpt lat="43.84053" lon="7.23748">
        <ele>576</ele>
        <time>2016-05-15T11:39:27.000Z</time>
      </trkpt>
      <trkpt lat="43.84051" lon="7.23743">
        <ele>576</ele>
        <time>2016-05-15T11:39:32.000Z</time>
      </trkpt>
      <trkpt lat="43.8405" lon="7.23742">
        <ele>576</ele>
        <time>2016-05-15T11:39:33.000Z</time>
      </trkpt>
      <trkpt lat="43.8405" lon="7.23741">
        <ele>576</ele>
        <time>2016-05-15T11:39:34.000Z</time>
      </trkpt>
      <trkpt lat="43.84048" lon="7.23735">
        <ele>577</ele>
        <time>2016-05-15T11:39:38.000Z</time>
      </trkpt>
      <trkpt lat="43.84047" lon="7.23733">
        <ele>577</ele>
        <time>2016-05-15T11:39:40.000Z</time>
      </trkpt>
      <trkpt lat="43.84047" lon="7.23731">
        <ele>577</ele>
        <time>2016-05-15T11:39:41.000Z</time>
      </trkpt>
      <trkpt lat="43.84047" lon="7.23729">
        <ele>577</ele>
        <time>2016-05-15T11:39:43.000Z</time>
      </trkpt>
      <trkpt lat="43.84045" lon="7.23725">
        <ele>577</ele>
        <time>2016-05-15T11:39:46.000Z</time>
      </trkpt>
      <trkpt lat="43.84043" lon="7.23723">
        <ele>577</ele>
        <time>2016-05-15T11:39:48.000Z</time>
      </trkpt>
      <trkpt lat="43.84042" lon="7.23723">
        <ele>578</ele>
        <time>2016-05-15T11:39:54.000Z</time>
      </trkpt>
      <trkpt lat="43.84041" lon="7.23723">
        <ele>578</ele>
        <time>2016-05-15T11:39:55.000Z</time>
      </trkpt>
      <trkpt lat="43.84036" lon="7.23722">
        <ele>578</ele>
        <time>2016-05-15T11:40:02.000Z</time>
      </trkpt>
      <trkpt lat="43.84033" lon="7.23722">
        <ele>579</ele>
        <time>2016-05-15T11:40:06.000Z</time>
      </trkpt>
      <trkpt lat="43.84032" lon="7.23722">
        <ele>579</ele>
        <time>2016-05-15T11:40:08.000Z</time>
      </trkpt>
      <trkpt lat="43.84029" lon="7.23721">
        <ele>579</ele>
        <time>2016-05-15T11:40:13.000Z</time>
      </trkpt>
      <trkpt lat="43.84026" lon="7.23722">
        <ele>579</ele>
        <time>2016-05-15T11:40:16.000Z</time>
      </trkpt>
      <trkpt lat="43.84024" lon="7.23724">
        <ele>580</ele>
        <time>2016-05-15T11:40:19.000Z</time>
      </trkpt>
      <trkpt lat="43.84019" lon="7.23725">
        <ele>580</ele>
        <time>2016-05-15T11:40:24.000Z</time>
      </trkpt>
      <trkpt lat="43.84017" lon="7.23725">
        <ele>580</ele>
        <time>2016-05-15T11:40:26.000Z</time>
      </trkpt>
      <trkpt lat="43.84012" lon="7.23722">
        <ele>581</ele>
        <time>2016-05-15T11:40:31.000Z</time>
      </trkpt>
      <trkpt lat="43.84009" lon="7.23721">
        <ele>581</ele>
        <time>2016-05-15T11:40:34.000Z</time>
      </trkpt>
      <trkpt lat="43.84004" lon="7.2372">
        <ele>581</ele>
        <time>2016-05-15T11:40:38.000Z</time>
      </trkpt>
      <trkpt lat="43.84004" lon="7.2372">
        <ele>581</ele>
        <time>2016-05-15T11:40:39.000Z</time>
      </trkpt>
      <trkpt lat="43.83997" lon="7.23719">
        <ele>585</ele>
        <time>2016-05-15T11:40:45.000Z</time>
      </trkpt>
      <trkpt lat="43.83993" lon="7.23718">
        <ele>585</ele>
        <time>2016-05-15T11:40:51.000Z</time>
      </trkpt>
      <trkpt lat="43.83991" lon="7.23718">
        <ele>585</ele>
        <time>2016-05-15T11:40:53.000Z</time>
      </trkpt>
      <trkpt lat="43.83986" lon="7.23719">
        <ele>584</ele>
        <time>2016-05-15T11:40:57.000Z</time>
      </trkpt>
      <trkpt lat="43.83981" lon="7.2372">
        <ele>584</ele>
        <time>2016-05-15T11:41:00.000Z</time>
      </trkpt>
      <trkpt lat="43.83976" lon="7.23722">
        <ele>584</ele>
        <time>2016-05-15T11:41:03.000Z</time>
      </trkpt>
      <trkpt lat="43.83961" lon="7.23728">
        <ele>584</ele>
        <time>2016-05-15T11:41:08.000Z</time>
      </trkpt>
      <trkpt lat="43.83947" lon="7.23733">
        <ele>583</ele>
        <time>2016-05-15T11:41:12.000Z</time>
      </trkpt>
      <trkpt lat="43.83943" lon="7.23735">
        <ele>583</ele>
        <time>2016-05-15T11:41:13.000Z</time>
      </trkpt>
      <trkpt lat="43.83936" lon="7.23739">
        <ele>583</ele>
        <time>2016-05-15T11:41:16.000Z</time>
      </trkpt>
      <trkpt lat="43.83933" lon="7.2374">
        <ele>582</ele>
        <time>2016-05-15T11:41:17.000Z</time>
      </trkpt>
      <trkpt lat="43.8393" lon="7.23742">
        <ele>582</ele>
        <time>2016-05-15T11:41:18.000Z</time>
      </trkpt>
      <trkpt lat="43.83924" lon="7.23743">
        <ele>582</ele>
        <time>2016-05-15T11:41:20.000Z</time>
      </trkpt>
      <trkpt lat="43.83918" lon="7.23742">
        <ele>582</ele>
        <time>2016-05-15T11:41:22.000Z</time>
      </trkpt>
      <trkpt lat="43.83917" lon="7.23737">
        <ele>582</ele>
        <time>2016-05-15T11:41:23.000Z</time>
      </trkpt>
      <trkpt lat="43.83913" lon="7.23729">
        <ele>573</ele>
        <time>2016-05-15T11:41:25.000Z</time>
      </trkpt>
      <trkpt lat="43.83911" lon="7.23726">
        <ele>572</ele>
        <time>2016-05-15T11:41:27.000Z</time>
      </trkpt>
      <trkpt lat="43.83908" lon="7.23727">
        <ele>572</ele>
        <time>2016-05-15T11:41:28.000Z</time>
      </trkpt>
      <trkpt lat="43.83906" lon="7.23728">
        <ele>572</ele>
        <time>2016-05-15T11:41:29.000Z</time>
      </trkpt>
      <trkpt lat="43.83903" lon="7.23729">
        <ele>572</ele>
        <time>2016-05-15T11:41:30.000Z</time>
      </trkpt>
      <trkpt lat="43.839" lon="7.23729">
        <ele>571</ele>
        <time>2016-05-15T11:41:31.000Z</time>
      </trkpt>
      <trkpt lat="43.83898" lon="7.23731">
        <ele>571</ele>
        <time>2016-05-15T11:41:32.000Z</time>
      </trkpt>
      <trkpt lat="43.83893" lon="7.23732">
        <ele>570</ele>
        <time>2016-05-15T11:41:35.000Z</time>
      </trkpt>
      <trkpt lat="43.83891" lon="7.23734">
        <ele>569</ele>
        <time>2016-05-15T11:41:37.000Z</time>
      </trkpt>
      <trkpt lat="43.83887" lon="7.23736">
        <ele>569</ele>
        <time>2016-05-15T11:41:39.000Z</time>
      </trkpt>
      <trkpt lat="43.83881" lon="7.23737">
        <ele>567</ele>
        <time>2016-05-15T11:41:42.000Z</time>
      </trkpt>
      <trkpt lat="43.83881" lon="7.23737">
        <ele>567</ele>
        <time>2016-05-15T11:41:43.000Z</time>
      </trkpt>
      <trkpt lat="43.83878" lon="7.23738">
        <ele>566</ele>
        <time>2016-05-15T11:41:45.000Z</time>
      </trkpt>
      <trkpt lat="43.83876" lon="7.23738">
        <ele>566</ele>
        <time>2016-05-15T11:41:46.000Z</time>
      </trkpt>
      <trkpt lat="43.83871" lon="7.23736">
        <ele>565</ele>
        <time>2016-05-15T11:41:48.000Z</time>
      </trkpt>
      <trkpt lat="43.83867" lon="7.23737">
        <ele>564</ele>
        <time>2016-05-15T11:41:50.000Z</time>
      </trkpt>
      <trkpt lat="43.83865" lon="7.23738">
        <ele>563</ele>
        <time>2016-05-15T11:41:51.000Z</time>
      </trkpt>
      <trkpt lat="43.8386" lon="7.23741">
        <ele>562</ele>
        <time>2016-05-15T11:41:53.000Z</time>
      </trkpt>
      <trkpt lat="43.83854" lon="7.23741">
        <ele>560</ele>
        <time>2016-05-15T11:41:55.000Z</time>
      </trkpt>
      <trkpt lat="43.83848" lon="7.23742">
        <ele>558</ele>
        <time>2016-05-15T11:41:57.000Z</time>
      </trkpt>
      <trkpt lat="43.83846" lon="7.23744">
        <ele>557</ele>
        <time>2016-05-15T11:41:58.000Z</time>
      </trkpt>
      <trkpt lat="43.8384" lon="7.23747">
        <ele>555</ele>
        <time>2016-05-15T11:42:00.000Z</time>
      </trkpt>
      <trkpt lat="43.83833" lon="7.23751">
        <ele>551</ele>
        <time>2016-05-15T11:42:02.000Z</time>
      </trkpt>
      <trkpt lat="43.8383" lon="7.23755">
        <ele>550</ele>
        <time>2016-05-15T11:42:03.000Z</time>
      </trkpt>
      <trkpt lat="43.83826" lon="7.23759">
        <ele>549</ele>
        <time>2016-05-15T11:42:04.000Z</time>
      </trkpt>
      <trkpt lat="43.83816" lon="7.23768">
        <ele>547</ele>
        <time>2016-05-15T11:42:06.000Z</time>
      </trkpt>
      <trkpt lat="43.83812" lon="7.23774">
        <ele>547</ele>
        <time>2016-05-15T11:42:07.000Z</time>
      </trkpt>
      <trkpt lat="43.83808" lon="7.23779">
        <ele>547</ele>
        <time>2016-05-15T11:42:08.000Z</time>
      </trkpt>
      <trkpt lat="43.83805" lon="7.23783">
        <ele>546</ele>
        <time>2016-05-15T11:42:09.000Z</time>
      </trkpt>
      <trkpt lat="43.83803" lon="7.23789">
        <ele>547</ele>
        <time>2016-05-15T11:42:10.000Z</time>
      </trkpt>
      <trkpt lat="43.83801" lon="7.23797">
        <ele>547</ele>
        <time>2016-05-15T11:42:12.000Z</time>
      </trkpt>
      <trkpt lat="43.83798" lon="7.23799">
        <ele>547</ele>
        <time>2016-05-15T11:42:13.000Z</time>
      </trkpt>
      <trkpt lat="43.83796" lon="7.23801">
        <ele>547</ele>
        <time>2016-05-15T11:42:14.000Z</time>
      </trkpt>
      <trkpt lat="43.83794" lon="7.23804">
        <ele>547</ele>
        <time>2016-05-15T11:42:15.000Z</time>
      </trkpt>
      <trkpt lat="43.83793" lon="7.23805">
        <ele>547</ele>
        <time>2016-05-15T11:42:16.000Z</time>
      </trkpt>
      <trkpt lat="43.83793" lon="7.23809">
        <ele>547</ele>
        <time>2016-05-15T11:42:17.000Z</time>
      </trkpt>
      <trkpt lat="43.83792" lon="7.23814">
        <ele>547</ele>
        <time>2016-05-15T11:42:18.000Z</time>
      </trkpt>
      <trkpt lat="43.83791" lon="7.23819">
        <ele>547</ele>
        <time>2016-05-15T11:42:19.000Z</time>
      </trkpt>
      <trkpt lat="43.83789" lon="7.23827">
        <ele>548</ele>
        <time>2016-05-15T11:42:20.000Z</time>
      </trkpt>
      <trkpt lat="43.83787" lon="7.23831">
        <ele>547</ele>
        <time>2016-05-15T11:42:21.000Z</time>
      </trkpt>
      <trkpt lat="43.83782" lon="7.23834">
        <ele>559</ele>
        <time>2016-05-15T11:42:22.000Z</time>
      </trkpt>
      <trkpt lat="43.83773" lon="7.23838">
        <ele>556</ele>
        <time>2016-05-15T11:42:24.000Z</time>
      </trkpt>
      <trkpt lat="43.83763" lon="7.23839">
        <ele>551</ele>
        <time>2016-05-15T11:42:26.000Z</time>
      </trkpt>
      <trkpt lat="43.83754" lon="7.23838">
        <ele>546</ele>
        <time>2016-05-15T11:42:28.000Z</time>
      </trkpt>
      <trkpt lat="43.83741" lon="7.23838">
        <ele>541</ele>
        <time>2016-05-15T11:42:31.000Z</time>
      </trkpt>
      <trkpt lat="43.83738" lon="7.23838">
        <ele>541</ele>
        <time>2016-05-15T11:42:32.000Z</time>
      </trkpt>
      <trkpt lat="43.83734" lon="7.23837">
        <ele>541</ele>
        <time>2016-05-15T11:42:33.000Z</time>
      </trkpt>
      <trkpt lat="43.83731" lon="7.23837">
        <ele>541</ele>
        <time>2016-05-15T11:42:34.000Z</time>
      </trkpt>
      <trkpt lat="43.83727" lon="7.23839">
        <ele>541</ele>
        <time>2016-05-15T11:42:35.000Z</time>
      </trkpt>
      <trkpt lat="43.83722" lon="7.23837">
        <ele>540</ele>
        <time>2016-05-15T11:42:36.000Z</time>
      </trkpt>
      <trkpt lat="43.8372" lon="7.23837">
        <ele>540</ele>
        <time>2016-05-15T11:42:37.000Z</time>
      </trkpt>
      <trkpt lat="43.83719" lon="7.23839">
        <ele>540</ele>
        <time>2016-05-15T11:42:38.000Z</time>
      </trkpt>
      <trkpt lat="43.83719" lon="7.23839">
        <ele>540</ele>
        <time>2016-05-15T11:42:40.000Z</time>
      </trkpt>
      <trkpt lat="43.83719" lon="7.23839">
        <ele>540</ele>
        <time>2016-05-15T11:42:41.000Z</time>
      </trkpt>
      <trkpt lat="43.83719" lon="7.2384">
        <ele>540</ele>
        <time>2016-05-15T11:42:42.000Z</time>
      </trkpt>
      <trkpt lat="43.83717" lon="7.23841">
        <ele>540</ele>
        <time>2016-05-15T11:42:47.000Z</time>
      </trkpt>
      <trkpt lat="43.83716" lon="7.23838">
        <ele>539</ele>
        <time>2016-05-15T11:42:50.000Z</time>
      </trkpt>
      <trkpt lat="43.83715" lon="7.23837">
        <ele>539</ele>
        <time>2016-05-15T11:42:52.000Z</time>
      </trkpt>
      <trkpt lat="43.83715" lon="7.23836">
        <ele>539</ele>
        <time>2016-05-15T11:42:53.000Z</time>
      </trkpt>
      <trkpt lat="43.83716" lon="7.23836">
        <ele>539</ele>
        <time>2016-05-15T11:42:54.000Z</time>
      </trkpt>
      <trkpt lat="43.83715" lon="7.23834">
        <ele>539</ele>
        <time>2016-05-15T11:42:55.000Z</time>
      </trkpt>
      <trkpt lat="43.83715" lon="7.23834">
        <ele>539</ele>
        <time>2016-05-15T11:42:56.000Z</time>
      </trkpt>
      <trkpt lat="43.83715" lon="7.23833">
        <ele>524</ele>
        <time>2016-05-15T11:42:57.000Z</time>
      </trkpt>
      <trkpt lat="43.83714" lon="7.23831">
        <ele>524</ele>
        <time>2016-05-15T11:42:59.000Z</time>
      </trkpt>
      <trkpt lat="43.83712" lon="7.23831">
        <ele>524</ele>
        <time>2016-05-15T11:43:01.000Z</time>
      </trkpt>
      <trkpt lat="43.83708" lon="7.23831">
        <ele>523</ele>
        <time>2016-05-15T11:43:04.000Z</time>
      </trkpt>
      <trkpt lat="43.83706" lon="7.23832">
        <ele>522</ele>
        <time>2016-05-15T11:43:07.000Z</time>
      </trkpt>
      <trkpt lat="43.83705" lon="7.2383">
        <ele>522</ele>
        <time>2016-05-15T11:43:11.000Z</time>
      </trkpt>
      <trkpt lat="43.83705" lon="7.2383">
        <ele>522</ele>
        <time>2016-05-15T11:43:13.000Z</time>
      </trkpt>
      <trkpt lat="43.83704" lon="7.23826">
        <ele>522</ele>
        <time>2016-05-15T11:43:15.000Z</time>
      </trkpt>
      <trkpt lat="43.83706" lon="7.23822">
        <ele>522</ele>
        <time>2016-05-15T11:43:17.000Z</time>
      </trkpt>
      <trkpt lat="43.83703" lon="7.23819">
        <ele>521</ele>
        <time>2016-05-15T11:43:20.000Z</time>
      </trkpt>
      <trkpt lat="43.83701" lon="7.2382">
        <ele>521</ele>
        <time>2016-05-15T11:43:21.000Z</time>
      </trkpt>
      <trkpt lat="43.83697" lon="7.23822">
        <ele>520</ele>
        <time>2016-05-15T11:43:23.000Z</time>
      </trkpt>
      <trkpt lat="43.83695" lon="7.23815">
        <ele>520</ele>
        <time>2016-05-15T11:43:25.000Z</time>
      </trkpt>
      <trkpt lat="43.83694" lon="7.23811">
        <ele>519</ele>
        <time>2016-05-15T11:43:26.000Z</time>
      </trkpt>
      <trkpt lat="43.83693" lon="7.23806">
        <ele>519</ele>
        <time>2016-05-15T11:43:28.000Z</time>
      </trkpt>
      <trkpt lat="43.83692" lon="7.23803">
        <ele>519</ele>
        <time>2016-05-15T11:43:30.000Z</time>
      </trkpt>
      <trkpt lat="43.83694" lon="7.238">
        <ele>519</ele>
        <time>2016-05-15T11:43:31.000Z</time>
      </trkpt>
      <trkpt lat="43.83698" lon="7.23799">
        <ele>519</ele>
        <time>2016-05-15T11:43:33.000Z</time>
      </trkpt>
      <trkpt lat="43.83699" lon="7.23798">
        <ele>519</ele>
        <time>2016-05-15T11:43:34.000Z</time>
      </trkpt>
      <trkpt lat="43.837" lon="7.23797">
        <ele>519</ele>
        <time>2016-05-15T11:43:37.000Z</time>
      </trkpt>
      <trkpt lat="43.83699" lon="7.23797">
        <ele>519</ele>
        <time>2016-05-15T11:43:45.000Z</time>
      </trkpt>
      <trkpt lat="43.83697" lon="7.23793">
        <ele>518</ele>
        <time>2016-05-15T11:43:50.000Z</time>
      </trkpt>
      <trkpt lat="43.83697" lon="7.23793">
        <ele>518</ele>
        <time>2016-05-15T11:43:52.000Z</time>
      </trkpt>
      <trkpt lat="43.83697" lon="7.23793">
        <ele>518</ele>
        <time>2016-05-15T11:43:53.000Z</time>
      </trkpt>
      <trkpt lat="43.83695" lon="7.23793">
        <ele>518</ele>
        <time>2016-05-15T11:43:57.000Z</time>
      </trkpt>
      <trkpt lat="43.83691" lon="7.23792">
        <ele>517</ele>
        <time>2016-05-15T11:43:59.000Z</time>
      </trkpt>
      <trkpt lat="43.83685" lon="7.2379">
        <ele>516</ele>
        <time>2016-05-15T11:44:02.000Z</time>
      </trkpt>
      <trkpt lat="43.83682" lon="7.23792">
        <ele>516</ele>
        <time>2016-05-15T11:44:03.000Z</time>
      </trkpt>
      <trkpt lat="43.83679" lon="7.23796">
        <ele>517</ele>
        <time>2016-05-15T11:44:04.000Z</time>
      </trkpt>
      <trkpt lat="43.83676" lon="7.23801">
        <ele>517</ele>
        <time>2016-05-15T11:44:05.000Z</time>
      </trkpt>
      <trkpt lat="43.83674" lon="7.23803">
        <ele>517</ele>
        <time>2016-05-15T11:44:06.000Z</time>
      </trkpt>
      <trkpt lat="43.83671" lon="7.23801">
        <ele>517</ele>
        <time>2016-05-15T11:44:07.000Z</time>
      </trkpt>
      <trkpt lat="43.83669" lon="7.23802">
        <ele>517</ele>
        <time>2016-05-15T11:44:08.000Z</time>
      </trkpt>
      <trkpt lat="43.83664" lon="7.23799">
        <ele>501</ele>
        <time>2016-05-15T11:44:10.000Z</time>
      </trkpt>
      <trkpt lat="43.83663" lon="7.23797">
        <ele>501</ele>
        <time>2016-05-15T11:44:11.000Z</time>
      </trkpt>
      <trkpt lat="43.83663" lon="7.23795">
        <ele>500</ele>
        <time>2016-05-15T11:44:12.000Z</time>
      </trkpt>
      <trkpt lat="43.83662" lon="7.23794">
        <ele>500</ele>
        <time>2016-05-15T11:44:13.000Z</time>
      </trkpt>
      <trkpt lat="43.83662" lon="7.2379">
        <ele>499</ele>
        <time>2016-05-15T11:44:14.000Z</time>
      </trkpt>
      <trkpt lat="43.83659" lon="7.23784">
        <ele>498</ele>
        <time>2016-05-15T11:44:16.000Z</time>
      </trkpt>
      <trkpt lat="43.83656" lon="7.23775">
        <ele>498</ele>
        <time>2016-05-15T11:44:18.000Z</time>
      </trkpt>
      <trkpt lat="43.83654" lon="7.23772">
        <ele>497</ele>
        <time>2016-05-15T11:44:19.000Z</time>
      </trkpt>
      <trkpt lat="43.83652" lon="7.2377">
        <ele>497</ele>
        <time>2016-05-15T11:44:20.000Z</time>
      </trkpt>
      <trkpt lat="43.83649" lon="7.23766">
        <ele>497</ele>
        <time>2016-05-15T11:44:22.000Z</time>
      </trkpt>
      <trkpt lat="43.83648" lon="7.23762">
        <ele>496</ele>
        <time>2016-05-15T11:44:23.000Z</time>
      </trkpt>
      <trkpt lat="43.83648" lon="7.23758">
        <ele>496</ele>
        <time>2016-05-15T11:44:24.000Z</time>
      </trkpt>
      <trkpt lat="43.83647" lon="7.23756">
        <ele>496</ele>
        <time>2016-05-15T11:44:25.000Z</time>
      </trkpt>
      <trkpt lat="43.83643" lon="7.23757">
        <ele>495</ele>
        <time>2016-05-15T11:44:27.000Z</time>
      </trkpt>
      <trkpt lat="43.83639" lon="7.23762">
        <ele>495</ele>
        <time>2016-05-15T11:44:29.000Z</time>
      </trkpt>
      <trkpt lat="43.83633" lon="7.23767">
        <ele>494</ele>
        <time>2016-05-15T11:44:31.000Z</time>
      </trkpt>
      <trkpt lat="43.83628" lon="7.2377">
        <ele>493</ele>
        <time>2016-05-15T11:44:32.000Z</time>
      </trkpt>
      <trkpt lat="43.83624" lon="7.23773">
        <ele>493</ele>
        <time>2016-05-15T11:44:33.000Z</time>
      </trkpt>
      <trkpt lat="43.83618" lon="7.23776">
        <ele>492</ele>
        <time>2016-05-15T11:44:34.000Z</time>
      </trkpt>
      <trkpt lat="43.83602" lon="7.23786">
        <ele>490</ele>
        <time>2016-05-15T11:44:37.000Z</time>
      </trkpt>
      <trkpt lat="43.83597" lon="7.2379">
        <ele>490</ele>
        <time>2016-05-15T11:44:38.000Z</time>
      </trkpt>
      <trkpt lat="43.83593" lon="7.23795">
        <ele>491</ele>
        <time>2016-05-15T11:44:39.000Z</time>
      </trkpt>
      <trkpt lat="43.83585" lon="7.23803">
        <ele>491</ele>
        <time>2016-05-15T11:44:41.000Z</time>
      </trkpt>
      <trkpt lat="43.83583" lon="7.23808">
        <ele>475</ele>
        <time>2016-05-15T11:44:42.000Z</time>
      </trkpt>
      <trkpt lat="43.83566" lon="7.23836">
        <ele>487</ele>
        <time>2016-05-15T11:44:50.000Z</time>
      </trkpt>
      <trkpt lat="43.8356" lon="7.23848">
        <ele>486</ele>
        <time>2016-05-15T11:44:54.000Z</time>
      </trkpt>
      <trkpt lat="43.83557" lon="7.23853">
        <ele>485</ele>
        <time>2016-05-15T11:44:56.000Z</time>
      </trkpt>
      <trkpt lat="43.83554" lon="7.23863">
        <ele>486</ele>
        <time>2016-05-15T11:45:00.000Z</time>
      </trkpt>
      <trkpt lat="43.83552" lon="7.23869">
        <ele>486</ele>
        <time>2016-05-15T11:45:02.000Z</time>
      </trkpt>
      <trkpt lat="43.83547" lon="7.23883">
        <ele>488</ele>
        <time>2016-05-15T11:45:07.000Z</time>
      </trkpt>
      <trkpt lat="43.83547" lon="7.23886">
        <ele>488</ele>
        <time>2016-05-15T11:45:08.000Z</time>
      </trkpt>
      <trkpt lat="43.83545" lon="7.23891">
        <ele>488</ele>
        <time>2016-05-15T11:45:10.000Z</time>
      </trkpt>
      <trkpt lat="43.83543" lon="7.23894">
        <ele>488</ele>
        <time>2016-05-15T11:45:11.000Z</time>
      </trkpt>
      <trkpt lat="43.83539" lon="7.23901">
        <ele>488</ele>
        <time>2016-05-15T11:45:14.000Z</time>
      </trkpt>
      <trkpt lat="43.83535" lon="7.23909">
        <ele>488</ele>
        <time>2016-05-15T11:45:17.000Z</time>
      </trkpt>
      <trkpt lat="43.83532" lon="7.23921">
        <ele>502</ele>
        <time>2016-05-15T11:45:22.000Z</time>
      </trkpt>
      <trkpt lat="43.83532" lon="7.23923">
        <ele>502</ele>
        <time>2016-05-15T11:45:23.000Z</time>
      </trkpt>
      <trkpt lat="43.83531" lon="7.2393">
        <ele>503</ele>
        <time>2016-05-15T11:45:26.000Z</time>
      </trkpt>
      <trkpt lat="43.83526" lon="7.23938">
        <ele>503</ele>
        <time>2016-05-15T11:45:30.000Z</time>
      </trkpt>
      <trkpt lat="43.83524" lon="7.23941">
        <ele>503</ele>
        <time>2016-05-15T11:45:31.000Z</time>
      </trkpt>
      <trkpt lat="43.83512" lon="7.23957">
        <ele>503</ele>
        <time>2016-05-15T11:45:36.000Z</time>
      </trkpt>
      <trkpt lat="43.83503" lon="7.23968">
        <ele>504</ele>
        <time>2016-05-15T11:45:40.000Z</time>
      </trkpt>
      <trkpt lat="43.83498" lon="7.23974">
        <ele>484</ele>
        <time>2016-05-15T11:45:42.000Z</time>
      </trkpt>
      <trkpt lat="43.83483" lon="7.2399">
        <ele>486</ele>
        <time>2016-05-15T11:45:49.000Z</time>
      </trkpt>
      <trkpt lat="43.83481" lon="7.23994">
        <ele>485</ele>
        <time>2016-05-15T11:45:50.000Z</time>
      </trkpt>
      <trkpt lat="43.83472" lon="7.2401">
        <ele>489</ele>
        <time>2016-05-15T11:45:54.000Z</time>
      </trkpt>
      <trkpt lat="43.83471" lon="7.24033">
        <ele>487</ele>
        <time>2016-05-15T11:45:58.000Z</time>
      </trkpt>
      <trkpt lat="43.83476" lon="7.24057">
        <ele>490</ele>
        <time>2016-05-15T11:46:03.000Z</time>
      </trkpt>
      <trkpt lat="43.83481" lon="7.24072">
        <ele>494</ele>
        <time>2016-05-15T11:46:08.000Z</time>
      </trkpt>
      <trkpt lat="43.83484" lon="7.24078">
        <ele>496</ele>
        <time>2016-05-15T11:46:11.000Z</time>
      </trkpt>
      <trkpt lat="43.83488" lon="7.24083">
        <ele>499</ele>
        <time>2016-05-15T11:46:14.000Z</time>
      </trkpt>
      <trkpt lat="43.83488" lon="7.24084">
        <ele>496</ele>
        <time>2016-05-15T11:46:15.000Z</time>
      </trkpt>
      <trkpt lat="43.83489" lon="7.24088">
        <ele>496</ele>
        <time>2016-05-15T11:46:18.000Z</time>
      </trkpt>
      <trkpt lat="43.83489" lon="7.2409">
        <ele>495</ele>
        <time>2016-05-15T11:46:19.000Z</time>
      </trkpt>
      <trkpt lat="43.8349" lon="7.24091">
        <ele>495</ele>
        <time>2016-05-15T11:46:20.000Z</time>
      </trkpt>
      <trkpt lat="43.8349" lon="7.24092">
        <ele>495</ele>
        <time>2016-05-15T11:46:21.000Z</time>
      </trkpt>
      <trkpt lat="43.83491" lon="7.24094">
        <ele>495</ele>
        <time>2016-05-15T11:46:22.000Z</time>
      </trkpt>
      <trkpt lat="43.83492" lon="7.24096">
        <ele>494</ele>
        <time>2016-05-15T11:46:24.000Z</time>
      </trkpt>
      <trkpt lat="43.83493" lon="7.24097">
        <ele>494</ele>
        <time>2016-05-15T11:46:27.000Z</time>
      </trkpt>
      <trkpt lat="43.83493" lon="7.24097">
        <ele>494</ele>
        <time>2016-05-15T11:46:29.000Z</time>
      </trkpt>
      <trkpt lat="43.83495" lon="7.24102">
        <ele>492</ele>
        <time>2016-05-15T11:46:35.000Z</time>
      </trkpt>
      <trkpt lat="43.83498" lon="7.24108">
        <ele>489</ele>
        <time>2016-05-15T11:46:41.000Z</time>
      </trkpt>
      <trkpt lat="43.835" lon="7.24112">
        <ele>513</ele>
        <time>2016-05-15T11:46:45.000Z</time>
      </trkpt>
      <trkpt lat="43.83502" lon="7.24116">
        <ele>513</ele>
        <time>2016-05-15T11:46:50.000Z</time>
      </trkpt>
      <trkpt lat="43.83504" lon="7.24117">
        <ele>513</ele>
        <time>2016-05-15T11:46:53.000Z</time>
      </trkpt>
      <trkpt lat="43.83506" lon="7.24121">
        <ele>513</ele>
        <time>2016-05-15T11:46:57.000Z</time>
      </trkpt>
      <trkpt lat="43.83508" lon="7.24123">
        <ele>513</ele>
        <time>2016-05-15T11:47:00.000Z</time>
      </trkpt>
      <trkpt lat="43.83512" lon="7.24129">
        <ele>512</ele>
        <time>2016-05-15T11:47:07.000Z</time>
      </trkpt>
      <trkpt lat="43.83512" lon="7.2413">
        <ele>512</ele>
        <time>2016-05-15T11:47:08.000Z</time>
      </trkpt>
      <trkpt lat="43.83514" lon="7.24133">
        <ele>512</ele>
        <time>2016-05-15T11:47:12.000Z</time>
      </trkpt>
      <trkpt lat="43.83514" lon="7.24135">
        <ele>511</ele>
        <time>2016-05-15T11:47:16.000Z</time>
      </trkpt>
      <trkpt lat="43.83515" lon="7.24135">
        <ele>512</ele>
        <time>2016-05-15T11:47:18.000Z</time>
      </trkpt>
      <trkpt lat="43.83517" lon="7.24138">
        <ele>511</ele>
        <time>2016-05-15T11:47:22.000Z</time>
      </trkpt>
      <trkpt lat="43.83522" lon="7.24148">
        <ele>510</ele>
        <time>2016-05-15T11:47:28.000Z</time>
      </trkpt>
      <trkpt lat="43.83524" lon="7.24151">
        <ele>511</ele>
        <time>2016-05-15T11:47:30.000Z</time>
      </trkpt>
      <trkpt lat="43.83531" lon="7.24158">
        <ele>512</ele>
        <time>2016-05-15T11:47:35.000Z</time>
      </trkpt>
      <trkpt lat="43.83534" lon="7.24161">
        <ele>513</ele>
        <time>2016-05-15T11:47:37.000Z</time>
      </trkpt>
      <trkpt lat="43.83538" lon="7.24166">
        <ele>515</ele>
        <time>2016-05-15T11:47:40.000Z</time>
      </trkpt>
      <trkpt lat="43.8354" lon="7.24167">
        <ele>507</ele>
        <time>2016-05-15T11:47:42.000Z</time>
      </trkpt>
      <trkpt lat="43.83542" lon="7.24168">
        <ele>508</ele>
        <time>2016-05-15T11:47:43.000Z</time>
      </trkpt>
      <trkpt lat="43.83545" lon="7.24169">
        <ele>509</ele>
        <time>2016-05-15T11:47:45.000Z</time>
      </trkpt>
      <trkpt lat="43.83549" lon="7.24172">
        <ele>510</ele>
        <time>2016-05-15T11:47:49.000Z</time>
      </trkpt>
      <trkpt lat="43.8355" lon="7.24173">
        <ele>511</ele>
        <time>2016-05-15T11:47:50.000Z</time>
      </trkpt>
      <trkpt lat="43.83554" lon="7.24175">
        <ele>512</ele>
        <time>2016-05-15T11:47:55.000Z</time>
      </trkpt>
      <trkpt lat="43.83555" lon="7.24175">
        <ele>513</ele>
        <time>2016-05-15T11:47:56.000Z</time>
      </trkpt>
      <trkpt lat="43.83558" lon="7.24176">
        <ele>514</ele>
        <time>2016-05-15T11:48:00.000Z</time>
      </trkpt>
      <trkpt lat="43.83559" lon="7.24177">
        <ele>514</ele>
        <time>2016-05-15T11:48:01.000Z</time>
      </trkpt>
      <trkpt lat="43.83562" lon="7.24178">
        <ele>515</ele>
        <time>2016-05-15T11:48:03.000Z</time>
      </trkpt>
      <trkpt lat="43.83567" lon="7.24178">
        <ele>518</ele>
        <time>2016-05-15T11:48:08.000Z</time>
      </trkpt>
      <trkpt lat="43.83568" lon="7.24178">
        <ele>518</ele>
        <time>2016-05-15T11:48:09.000Z</time>
      </trkpt>
      <trkpt lat="43.83575" lon="7.24177">
        <ele>521</ele>
        <time>2016-05-15T11:48:14.000Z</time>
      </trkpt>
      <trkpt lat="43.83578" lon="7.24179">
        <ele>521</ele>
        <time>2016-05-15T11:48:17.000Z</time>
      </trkpt>
      <trkpt lat="43.83585" lon="7.24181">
        <ele>539</ele>
        <time>2016-05-15T11:48:23.000Z</time>
      </trkpt>
      <trkpt lat="43.8359" lon="7.24189">
        <ele>542</ele>
        <time>2016-05-15T11:48:28.000Z</time>
      </trkpt>
      <trkpt lat="43.83589" lon="7.24191">
        <ele>542</ele>
        <time>2016-05-15T11:48:29.000Z</time>
      </trkpt>
      <trkpt lat="43.83588" lon="7.24196">
        <ele>543</ele>
        <time>2016-05-15T11:48:32.000Z</time>
      </trkpt>
      <trkpt lat="43.83588" lon="7.24198">
        <ele>543</ele>
        <time>2016-05-15T11:48:33.000Z</time>
      </trkpt>
      <trkpt lat="43.83586" lon="7.242">
        <ele>543</ele>
        <time>2016-05-15T11:48:34.000Z</time>
      </trkpt>
      <trkpt lat="43.83584" lon="7.24203">
        <ele>542</ele>
        <time>2016-05-15T11:48:37.000Z</time>
      </trkpt>
      <trkpt lat="43.83581" lon="7.24209">
        <ele>514</ele>
        <time>2016-05-15T11:48:41.000Z</time>
      </trkpt>
      <trkpt lat="43.8358" lon="7.24214">
        <ele>514</ele>
        <time>2016-05-15T11:48:44.000Z</time>
      </trkpt>
      <trkpt lat="43.8358" lon="7.24216">
        <ele>514</ele>
        <time>2016-05-15T11:48:45.000Z</time>
      </trkpt>
      <trkpt lat="43.83579" lon="7.2422">
        <ele>514</ele>
        <time>2016-05-15T11:48:47.000Z</time>
      </trkpt>
      <trkpt lat="43.8358" lon="7.24224">
        <ele>514</ele>
        <time>2016-05-15T11:48:49.000Z</time>
      </trkpt>
      <trkpt lat="43.83581" lon="7.24242">
        <ele>519</ele>
        <time>2016-05-15T11:48:57.000Z</time>
      </trkpt>
      <trkpt lat="43.83581" lon="7.24246">
        <ele>521</ele>
        <time>2016-05-15T11:48:59.000Z</time>
      </trkpt>
      <trkpt lat="43.83582" lon="7.24257">
        <ele>519</ele>
        <time>2016-05-15T11:49:04.000Z</time>
      </trkpt>
      <trkpt lat="43.83583" lon="7.24261">
        <ele>517</ele>
        <time>2016-05-15T11:49:06.000Z</time>
      </trkpt>
      <trkpt lat="43.83583" lon="7.24267">
        <ele>515</ele>
        <time>2016-05-15T11:49:10.000Z</time>
      </trkpt>
      <trkpt lat="43.83583" lon="7.24268">
        <ele>515</ele>
        <time>2016-05-15T11:49:11.000Z</time>
      </trkpt>
      <trkpt lat="43.83584" lon="7.2427">
        <ele>537</ele>
        <time>2016-05-15T11:49:16.000Z</time>
      </trkpt>
      <trkpt lat="43.83584" lon="7.24271">
        <ele>537</ele>
        <time>2016-05-15T11:49:17.000Z</time>
      </trkpt>
      <trkpt lat="43.83584" lon="7.24276">
        <ele>539</ele>
        <time>2016-05-15T11:49:23.000Z</time>
      </trkpt>
      <trkpt lat="43.83584" lon="7.24279">
        <ele>539</ele>
        <time>2016-05-15T11:49:26.000Z</time>
      </trkpt>
      <trkpt lat="43.83583" lon="7.24282">
        <ele>512</ele>
        <time>2016-05-15T11:49:28.000Z</time>
      </trkpt>
      <trkpt lat="43.83583" lon="7.24283">
        <ele>512</ele>
        <time>2016-05-15T11:49:29.000Z</time>
      </trkpt>
      <trkpt lat="43.83585" lon="7.24287">
        <ele>540</ele>
        <time>2016-05-15T11:49:34.000Z</time>
      </trkpt>
      <trkpt lat="43.83585" lon="7.24288">
        <ele>540</ele>
        <time>2016-05-15T11:49:35.000Z</time>
      </trkpt>
      <trkpt lat="43.83586" lon="7.24295">
        <ele>541</ele>
        <time>2016-05-15T11:49:42.000Z</time>
      </trkpt>
      <trkpt lat="43.83587" lon="7.24297">
        <ele>541</ele>
        <time>2016-05-15T11:49:43.000Z</time>
      </trkpt>
      <trkpt lat="43.83588" lon="7.24304">
        <ele>541</ele>
        <time>2016-05-15T11:49:49.000Z</time>
      </trkpt>
      <trkpt lat="43.83588" lon="7.24304">
        <ele>541</ele>
        <time>2016-05-15T11:49:50.000Z</time>
      </trkpt>
      <trkpt lat="43.83587" lon="7.24307">
        <ele>540</ele>
        <time>2016-05-15T11:49:53.000Z</time>
      </trkpt>
      <trkpt lat="43.83588" lon="7.24308">
        <ele>540</ele>
        <time>2016-05-15T11:49:54.000Z</time>
      </trkpt>
      <trkpt lat="43.83594" lon="7.24321">
        <ele>538</ele>
        <time>2016-05-15T11:50:01.000Z</time>
      </trkpt>
      <trkpt lat="43.83596" lon="7.24327">
        <ele>537</ele>
        <time>2016-05-15T11:50:05.000Z</time>
      </trkpt>
      <trkpt lat="43.83598" lon="7.24329">
        <ele>538</ele>
        <time>2016-05-15T11:50:07.000Z</time>
      </trkpt>
      <trkpt lat="43.83599" lon="7.24341">
        <ele>539</ele>
        <time>2016-05-15T11:50:12.000Z</time>
      </trkpt>
      <trkpt lat="43.83598" lon="7.24343">
        <ele>539</ele>
        <time>2016-05-15T11:50:13.000Z</time>
      </trkpt>
      <trkpt lat="43.83596" lon="7.24351">
        <ele>541</ele>
        <time>2016-05-15T11:50:18.000Z</time>
      </trkpt>
      <trkpt lat="43.83596" lon="7.24352">
        <ele>541</ele>
        <time>2016-05-15T11:50:19.000Z</time>
      </trkpt>
      <trkpt lat="43.83593" lon="7.24358">
        <ele>542</ele>
        <time>2016-05-15T11:50:22.000Z</time>
      </trkpt>
      <trkpt lat="43.83594" lon="7.24364">
        <ele>543</ele>
        <time>2016-05-15T11:50:26.000Z</time>
      </trkpt>
      <trkpt lat="43.83594" lon="7.24369">
        <ele>543</ele>
        <time>2016-05-15T11:50:28.000Z</time>
      </trkpt>
      <trkpt lat="43.83592" lon="7.24374">
        <ele>543</ele>
        <time>2016-05-15T11:50:30.000Z</time>
      </trkpt>
      <trkpt lat="43.83591" lon="7.24379">
        <ele>543</ele>
        <time>2016-05-15T11:50:32.000Z</time>
      </trkpt>
      <trkpt lat="43.83589" lon="7.24383">
        <ele>543</ele>
        <time>2016-05-15T11:50:34.000Z</time>
      </trkpt>
      <trkpt lat="43.83589" lon="7.24385">
        <ele>543</ele>
        <time>2016-05-15T11:50:35.000Z</time>
      </trkpt>
      <trkpt lat="43.83588" lon="7.24387">
        <ele>543</ele>
        <time>2016-05-15T11:50:36.000Z</time>
      </trkpt>
      <trkpt lat="43.83585" lon="7.24398">
        <ele>541</ele>
        <time>2016-05-15T11:50:41.000Z</time>
      </trkpt>
      <trkpt lat="43.83585" lon="7.24404">
        <ele>540</ele>
        <time>2016-05-15T11:50:43.000Z</time>
      </trkpt>
      <trkpt lat="43.83584" lon="7.24408">
        <ele>538</ele>
        <time>2016-05-15T11:50:45.000Z</time>
      </trkpt>
      <trkpt lat="43.83584" lon="7.24415">
        <ele>535</ele>
        <time>2016-05-15T11:50:48.000Z</time>
      </trkpt>
      <trkpt lat="43.83585" lon="7.24421">
        <ele>536</ele>
        <time>2016-05-15T11:50:51.000Z</time>
      </trkpt>
      <trkpt lat="43.83591" lon="7.24437">
        <ele>540</ele>
        <time>2016-05-15T11:50:57.000Z</time>
      </trkpt>
      <trkpt lat="43.83593" lon="7.24445">
        <ele>541</ele>
        <time>2016-05-15T11:51:00.000Z</time>
      </trkpt>
      <trkpt lat="43.83595" lon="7.2445">
        <ele>541</ele>
        <time>2016-05-15T11:51:03.000Z</time>
      </trkpt>
      <trkpt lat="43.83598" lon="7.24467">
        <ele>541</ele>
        <time>2016-05-15T11:51:07.000Z</time>
      </trkpt>
      <trkpt lat="43.83594" lon="7.24488">
        <ele>539</ele>
        <time>2016-05-15T11:51:10.000Z</time>
      </trkpt>
      <trkpt lat="43.83592" lon="7.24493">
        <ele>538</ele>
        <time>2016-05-15T11:51:11.000Z</time>
      </trkpt>
      <trkpt lat="43.83591" lon="7.24499">
        <ele>537</ele>
        <time>2016-05-15T11:51:12.000Z</time>
      </trkpt>
      <trkpt lat="43.8359" lon="7.24505">
        <ele>534</ele>
        <time>2016-05-15T11:51:13.000Z</time>
      </trkpt>
      <trkpt lat="43.8359" lon="7.24512">
        <ele>534</ele>
        <time>2016-05-15T11:51:14.000Z</time>
      </trkpt>
      <trkpt lat="43.8359" lon="7.24519">
        <ele>533</ele>
        <time>2016-05-15T11:51:15.000Z</time>
      </trkpt>
      <trkpt lat="43.83589" lon="7.24527">
        <ele>533</ele>
        <time>2016-05-15T11:51:16.000Z</time>
      </trkpt>
      <trkpt lat="43.83588" lon="7.24541">
        <ele>532</ele>
        <time>2016-05-15T11:51:18.000Z</time>
      </trkpt>
      <trkpt lat="43.83586" lon="7.24546">
        <ele>532</ele>
        <time>2016-05-15T11:51:19.000Z</time>
      </trkpt>
      <trkpt lat="43.8358" lon="7.2456">
        <ele>527</ele>
        <time>2016-05-15T11:51:22.000Z</time>
      </trkpt>
      <trkpt lat="43.8358" lon="7.24563">
        <ele>527</ele>
        <time>2016-05-15T11:51:23.000Z</time>
      </trkpt>
      <trkpt lat="43.83579" lon="7.24568">
        <ele>527</ele>
        <time>2016-05-15T11:51:24.000Z</time>
      </trkpt>
      <trkpt lat="43.83577" lon="7.24577">
        <ele>528</ele>
        <time>2016-05-15T11:51:26.000Z</time>
      </trkpt>
      <trkpt lat="43.83575" lon="7.24589">
        <ele>526</ele>
        <time>2016-05-15T11:51:28.000Z</time>
      </trkpt>
      <trkpt lat="43.83569" lon="7.24605">
        <ele>524</ele>
        <time>2016-05-15T11:51:31.000Z</time>
      </trkpt>
      <trkpt lat="43.83566" lon="7.24609">
        <ele>523</ele>
        <time>2016-05-15T11:51:32.000Z</time>
      </trkpt>
      <trkpt lat="43.83564" lon="7.24612">
        <ele>523</ele>
        <time>2016-05-15T11:51:33.000Z</time>
      </trkpt>
      <trkpt lat="43.83563" lon="7.24614">
        <ele>523</ele>
        <time>2016-05-15T11:51:34.000Z</time>
      </trkpt>
      <trkpt lat="43.83562" lon="7.24615">
        <ele>523</ele>
        <time>2016-05-15T11:51:35.000Z</time>
      </trkpt>
      <trkpt lat="43.83562" lon="7.24616">
        <ele>523</ele>
        <time>2016-05-15T11:51:36.000Z</time>
      </trkpt>
      <trkpt lat="43.83562" lon="7.24615">
        <ele>523</ele>
        <time>2016-05-15T11:51:37.000Z</time>
      </trkpt>
      <trkpt lat="43.83562" lon="7.24617">
        <ele>523</ele>
        <time>2016-05-15T11:51:39.000Z</time>
      </trkpt>
      <trkpt lat="43.83562" lon="7.24618">
        <ele>522</ele>
        <time>2016-05-15T11:51:41.000Z</time>
      </trkpt>
      <trkpt lat="43.83561" lon="7.2462">
        <ele>522</ele>
        <time>2016-05-15T11:51:44.000Z</time>
      </trkpt>
      <trkpt lat="43.8356" lon="7.24622">
        <ele>522</ele>
        <time>2016-05-15T11:51:47.000Z</time>
      </trkpt>
      <trkpt lat="43.8356" lon="7.24623">
        <ele>522</ele>
        <time>2016-05-15T11:51:48.000Z</time>
      </trkpt>
      <trkpt lat="43.8356" lon="7.24629">
        <ele>522</ele>
        <time>2016-05-15T11:51:53.000Z</time>
      </trkpt>
      <trkpt lat="43.83559" lon="7.24632">
        <ele>521</ele>
        <time>2016-05-15T11:51:55.000Z</time>
      </trkpt>
      <trkpt lat="43.83557" lon="7.24636">
        <ele>521</ele>
        <time>2016-05-15T11:51:58.000Z</time>
      </trkpt>
      <trkpt lat="43.83556" lon="7.24636">
        <ele>521</ele>
        <time>2016-05-15T11:51:59.000Z</time>
      </trkpt>
      <trkpt lat="43.83556" lon="7.24638">
        <ele>521</ele>
        <time>2016-05-15T11:52:00.000Z</time>
      </trkpt>
      <trkpt lat="43.83554" lon="7.2464">
        <ele>521</ele>
        <time>2016-05-15T11:52:02.000Z</time>
      </trkpt>
      <trkpt lat="43.83547" lon="7.24645">
        <ele>520</ele>
        <time>2016-05-15T11:52:05.000Z</time>
      </trkpt>
      <trkpt lat="43.83529" lon="7.24654">
        <ele>520</ele>
        <time>2016-05-15T11:52:12.000Z</time>
      </trkpt>
      <trkpt lat="43.83511" lon="7.24665">
        <ele>518</ele>
        <time>2016-05-15T11:52:17.000Z</time>
      </trkpt>
      <trkpt lat="43.83488" lon="7.24679">
        <ele>515</ele>
        <time>2016-05-15T11:52:21.000Z</time>
      </trkpt>
      <trkpt lat="43.83477" lon="7.24688">
        <ele>514</ele>
        <time>2016-05-15T11:52:23.000Z</time>
      </trkpt>
      <trkpt lat="43.83463" lon="7.24698">
        <ele>514</ele>
        <time>2016-05-15T11:52:26.000Z</time>
      </trkpt>
      <trkpt lat="43.83457" lon="7.24701">
        <ele>514</ele>
        <time>2016-05-15T11:52:27.000Z</time>
      </trkpt>
      <trkpt lat="43.83434" lon="7.24712">
        <ele>515</ele>
        <time>2016-05-15T11:52:31.000Z</time>
      </trkpt>
      <trkpt lat="43.83422" lon="7.24717">
        <ele>516</ele>
        <time>2016-05-15T11:52:33.000Z</time>
      </trkpt>
      <trkpt lat="43.83398" lon="7.24724">
        <ele>510</ele>
        <time>2016-05-15T11:52:37.000Z</time>
      </trkpt>
      <trkpt lat="43.83381" lon="7.24724">
        <ele>508</ele>
        <time>2016-05-15T11:52:40.000Z</time>
      </trkpt>
      <trkpt lat="43.83371" lon="7.24725">
        <ele>507</ele>
        <time>2016-05-15T11:52:42.000Z</time>
      </trkpt>
      <trkpt lat="43.83348" lon="7.24732">
        <ele>507</ele>
        <time>2016-05-15T11:52:48.000Z</time>
      </trkpt>
      <trkpt lat="43.83341" lon="7.24735">
        <ele>508</ele>
        <time>2016-05-15T11:52:50.000Z</time>
      </trkpt>
      <trkpt lat="43.83316" lon="7.24748">
        <ele>504</ele>
        <time>2016-05-15T11:52:57.000Z</time>
      </trkpt>
      <trkpt lat="43.8329" lon="7.24759">
        <ele>521</ele>
        <time>2016-05-15T11:53:04.000Z</time>
      </trkpt>
      <trkpt lat="43.83279" lon="7.24762">
        <ele>521</ele>
        <time>2016-05-15T11:53:07.000Z</time>
      </trkpt>
      <trkpt lat="43.83264" lon="7.24766">
        <ele>519</ele>
        <time>2016-05-15T11:53:12.000Z</time>
      </trkpt>
      <trkpt lat="43.83258" lon="7.24768">
        <ele>519</ele>
        <time>2016-05-15T11:53:14.000Z</time>
      </trkpt>
      <trkpt lat="43.83245" lon="7.24771">
        <ele>517</ele>
        <time>2016-05-15T11:53:19.000Z</time>
      </trkpt>
      <trkpt lat="43.8324" lon="7.24771">
        <ele>517</ele>
        <time>2016-05-15T11:53:21.000Z</time>
      </trkpt>
      <trkpt lat="43.83233" lon="7.24774">
        <ele>518</ele>
        <time>2016-05-15T11:53:24.000Z</time>
      </trkpt>
      <trkpt lat="43.83223" lon="7.24776">
        <ele>519</ele>
        <time>2016-05-15T11:53:28.000Z</time>
      </trkpt>
      <trkpt lat="43.83215" lon="7.24778">
        <ele>519</ele>
        <time>2016-05-15T11:53:31.000Z</time>
      </trkpt>
      <trkpt lat="43.83203" lon="7.24781">
        <ele>519</ele>
        <time>2016-05-15T11:53:36.000Z</time>
      </trkpt>
      <trkpt lat="43.83196" lon="7.24783">
        <ele>519</ele>
        <time>2016-05-15T11:53:39.000Z</time>
      </trkpt>
      <trkpt lat="43.83187" lon="7.24787">
        <ele>520</ele>
        <time>2016-05-15T11:53:43.000Z</time>
      </trkpt>
      <trkpt lat="43.83185" lon="7.24789">
        <ele>520</ele>
        <time>2016-05-15T11:53:45.000Z</time>
      </trkpt>
      <trkpt lat="43.83178" lon="7.24793">
        <ele>521</ele>
        <time>2016-05-15T11:53:48.000Z</time>
      </trkpt>
      <trkpt lat="43.83173" lon="7.24798">
        <ele>523</ele>
        <time>2016-05-15T11:53:51.000Z</time>
      </trkpt>
      <trkpt lat="43.83166" lon="7.24805">
        <ele>521</ele>
        <time>2016-05-15T11:53:55.000Z</time>
      </trkpt>
      <trkpt lat="43.83164" lon="7.24807">
        <ele>521</ele>
        <time>2016-05-15T11:53:56.000Z</time>
      </trkpt>
      <trkpt lat="43.83153" lon="7.24818">
        <ele>524</ele>
        <time>2016-05-15T11:54:02.000Z</time>
      </trkpt>
      <trkpt lat="43.83151" lon="7.2482">
        <ele>524</ele>
        <time>2016-05-15T11:54:03.000Z</time>
      </trkpt>
      <trkpt lat="43.83143" lon="7.24826">
        <ele>523</ele>
        <time>2016-05-15T11:54:07.000Z</time>
      </trkpt>
      <trkpt lat="43.8314" lon="7.2483">
        <ele>523</ele>
        <time>2016-05-15T11:54:09.000Z</time>
      </trkpt>
      <trkpt lat="43.83133" lon="7.24835">
        <ele>538</ele>
        <time>2016-05-15T11:54:12.000Z</time>
      </trkpt>
      <trkpt lat="43.83121" lon="7.24839">
        <ele>537</ele>
        <time>2016-05-15T11:54:17.000Z</time>
      </trkpt>
      <trkpt lat="43.83119" lon="7.2484">
        <ele>537</ele>
        <time>2016-05-15T11:54:18.000Z</time>
      </trkpt>
      <trkpt lat="43.83104" lon="7.24844">
        <ele>535</ele>
        <time>2016-05-15T11:54:24.000Z</time>
      </trkpt>
      <trkpt lat="43.83091" lon="7.24847">
        <ele>533</ele>
        <time>2016-05-15T11:54:28.000Z</time>
      </trkpt>
      <trkpt lat="43.83077" lon="7.24849">
        <ele>529</ele>
        <time>2016-05-15T11:54:32.000Z</time>
      </trkpt>
      <trkpt lat="43.83059" lon="7.24857">
        <ele>531</ele>
        <time>2016-05-15T11:54:37.000Z</time>
      </trkpt>
      <trkpt lat="43.83055" lon="7.24862">
        <ele>531</ele>
        <time>2016-05-15T11:54:38.000Z</time>
      </trkpt>
      <trkpt lat="43.83037" lon="7.24886">
        <ele>534</ele>
        <time>2016-05-15T11:54:42.000Z</time>
      </trkpt>
      <trkpt lat="43.83031" lon="7.2489">
        <ele>534</ele>
        <time>2016-05-15T11:54:43.000Z</time>
      </trkpt>
      <trkpt lat="43.83024" lon="7.24888">
        <ele>533</ele>
        <time>2016-05-15T11:54:44.000Z</time>
      </trkpt>
      <trkpt lat="43.83017" lon="7.24885">
        <ele>533</ele>
        <time>2016-05-15T11:54:45.000Z</time>
      </trkpt>
      <trkpt lat="43.83013" lon="7.2488">
        <ele>532</ele>
        <time>2016-05-15T11:54:46.000Z</time>
      </trkpt>
      <trkpt lat="43.83005" lon="7.24874">
        <ele>531</ele>
        <time>2016-05-15T11:54:48.000Z</time>
      </trkpt>
      <trkpt lat="43.82992" lon="7.24865">
        <ele>525</ele>
        <time>2016-05-15T11:54:52.000Z</time>
      </trkpt>
      <trkpt lat="43.82984" lon="7.24862">
        <ele>525</ele>
        <time>2016-05-15T11:54:55.000Z</time>
      </trkpt>
      <trkpt lat="43.82976" lon="7.2486">
        <ele>524</ele>
        <time>2016-05-15T11:54:58.000Z</time>
      </trkpt>
      <trkpt lat="43.8297" lon="7.24861">
        <ele>525</ele>
        <time>2016-05-15T11:55:00.000Z</time>
      </trkpt>
      <trkpt lat="43.82957" lon="7.24861">
        <ele>524</ele>
        <time>2016-05-15T11:55:04.000Z</time>
      </trkpt>
      <trkpt lat="43.82951" lon="7.24863">
        <ele>524</ele>
        <time>2016-05-15T11:55:06.000Z</time>
      </trkpt>
      <trkpt lat="43.8293" lon="7.24868">
        <ele>524</ele>
        <time>2016-05-15T11:55:12.000Z</time>
      </trkpt>
      <trkpt lat="43.82919" lon="7.24878">
        <ele>526</ele>
        <time>2016-05-15T11:55:16.000Z</time>
      </trkpt>
      <trkpt lat="43.82901" lon="7.24894">
        <ele>522</ele>
        <time>2016-05-15T11:55:21.000Z</time>
      </trkpt>
      <trkpt lat="43.82875" lon="7.24923">
        <ele>531</ele>
        <time>2016-05-15T11:55:28.000Z</time>
      </trkpt>
      <trkpt lat="43.82872" lon="7.24929">
        <ele>531</ele>
        <time>2016-05-15T11:55:29.000Z</time>
      </trkpt>
      <trkpt lat="43.82861" lon="7.24958">
        <ele>532</ele>
        <time>2016-05-15T11:55:33.000Z</time>
      </trkpt>
      <trkpt lat="43.82857" lon="7.24964">
        <ele>532</ele>
        <time>2016-05-15T11:55:34.000Z</time>
      </trkpt>
      <trkpt lat="43.82852" lon="7.24969">
        <ele>532</ele>
        <time>2016-05-15T11:55:35.000Z</time>
      </trkpt>
      <trkpt lat="43.82841" lon="7.24974">
        <ele>532</ele>
        <time>2016-05-15T11:55:37.000Z</time>
      </trkpt>
      <trkpt lat="43.8283" lon="7.24973">
        <ele>527</ele>
        <time>2016-05-15T11:55:39.000Z</time>
      </trkpt>
      <trkpt lat="43.82821" lon="7.24968">
        <ele>526</ele>
        <time>2016-05-15T11:55:41.000Z</time>
      </trkpt>
      <trkpt lat="43.82805" lon="7.24962">
        <ele>525</ele>
        <time>2016-05-15T11:55:44.000Z</time>
      </trkpt>
      <trkpt lat="43.82786" lon="7.24959">
        <ele>524</ele>
        <time>2016-05-15T11:55:47.000Z</time>
      </trkpt>
      <trkpt lat="43.82757" lon="7.24963">
        <ele>525</ele>
        <time>2016-05-15T11:55:51.000Z</time>
      </trkpt>
      <trkpt lat="43.8275" lon="7.24967">
        <ele>525</ele>
        <time>2016-05-15T11:55:52.000Z</time>
      </trkpt>
      <trkpt lat="43.82746" lon="7.24973">
        <ele>522</ele>
        <time>2016-05-15T11:55:53.000Z</time>
      </trkpt>
      <trkpt lat="43.82742" lon="7.24977">
        <ele>523</ele>
        <time>2016-05-15T11:55:55.000Z</time>
      </trkpt>
      <trkpt lat="43.8274" lon="7.24978">
        <ele>523</ele>
        <time>2016-05-15T11:55:56.000Z</time>
      </trkpt>
      <trkpt lat="43.82732" lon="7.24984">
        <ele>523</ele>
        <time>2016-05-15T11:56:00.000Z</time>
      </trkpt>
      <trkpt lat="43.82726" lon="7.24988">
        <ele>522</ele>
        <time>2016-05-15T11:56:03.000Z</time>
      </trkpt>
      <trkpt lat="43.82722" lon="7.24993">
        <ele>522</ele>
        <time>2016-05-15T11:56:06.000Z</time>
      </trkpt>
      <trkpt lat="43.8272" lon="7.24994">
        <ele>522</ele>
        <time>2016-05-15T11:56:07.000Z</time>
      </trkpt>
      <trkpt lat="43.82712" lon="7.25002">
        <ele>534</ele>
        <time>2016-05-15T11:56:12.000Z</time>
      </trkpt>
      <trkpt lat="43.82709" lon="7.25004">
        <ele>534</ele>
        <time>2016-05-15T11:56:14.000Z</time>
      </trkpt>
      <trkpt lat="43.82704" lon="7.25008">
        <ele>533</ele>
        <time>2016-05-15T11:56:17.000Z</time>
      </trkpt>
      <trkpt lat="43.82698" lon="7.25014">
        <ele>533</ele>
        <time>2016-05-15T11:56:22.000Z</time>
      </trkpt>
      <trkpt lat="43.82697" lon="7.25015">
        <ele>533</ele>
        <time>2016-05-15T11:56:23.000Z</time>
      </trkpt>
      <trkpt lat="43.8269" lon="7.25021">
        <ele>533</ele>
        <time>2016-05-15T11:56:28.000Z</time>
      </trkpt>
      <trkpt lat="43.82687" lon="7.25023">
        <ele>533</ele>
        <time>2016-05-15T11:56:30.000Z</time>
      </trkpt>
      <trkpt lat="43.82683" lon="7.25026">
        <ele>533</ele>
        <time>2016-05-15T11:56:33.000Z</time>
      </trkpt>
      <trkpt lat="43.82677" lon="7.25031">
        <ele>534</ele>
        <time>2016-05-15T11:56:37.000Z</time>
      </trkpt>
      <trkpt lat="43.82674" lon="7.25034">
        <ele>534</ele>
        <time>2016-05-15T11:56:39.000Z</time>
      </trkpt>
      <trkpt lat="43.82665" lon="7.25042">
        <ele>529</ele>
        <time>2016-05-15T11:56:45.000Z</time>
      </trkpt>
      <trkpt lat="43.82664" lon="7.25044">
        <ele>529</ele>
        <time>2016-05-15T11:56:46.000Z</time>
      </trkpt>
      <trkpt lat="43.82659" lon="7.25049">
        <ele>530</ele>
        <time>2016-05-15T11:56:50.000Z</time>
      </trkpt>
      <trkpt lat="43.82652" lon="7.25058">
        <ele>532</ele>
        <time>2016-05-15T11:56:56.000Z</time>
      </trkpt>
      <trkpt lat="43.82651" lon="7.25059">
        <ele>532</ele>
        <time>2016-05-15T11:56:57.000Z</time>
      </trkpt>
      <trkpt lat="43.82644" lon="7.25066">
        <ele>532</ele>
        <time>2016-05-15T11:57:03.000Z</time>
      </trkpt>
      <trkpt lat="43.82642" lon="7.25069">
        <ele>532</ele>
        <time>2016-05-15T11:57:05.000Z</time>
      </trkpt>
      <trkpt lat="43.82636" lon="7.25075">
        <ele>532</ele>
        <time>2016-05-15T11:57:09.000Z</time>
      </trkpt>
      <trkpt lat="43.8263" lon="7.25081">
        <ele>531</ele>
        <time>2016-05-15T11:57:14.000Z</time>
      </trkpt>
      <trkpt lat="43.82629" lon="7.25082">
        <ele>531</ele>
        <time>2016-05-15T11:57:16.000Z</time>
      </trkpt>
      <trkpt lat="43.82623" lon="7.25087">
        <ele>546</ele>
        <time>2016-05-15T11:57:20.000Z</time>
      </trkpt>
      <trkpt lat="43.82622" lon="7.25088">
        <ele>546</ele>
        <time>2016-05-15T11:57:21.000Z</time>
      </trkpt>
      <trkpt lat="43.82622" lon="7.25089">
        <ele>546</ele>
        <time>2016-05-15T11:57:22.000Z</time>
      </trkpt>
      <trkpt lat="43.82619" lon="7.25091">
        <ele>546</ele>
        <time>2016-05-15T11:57:24.000Z</time>
      </trkpt>
      <trkpt lat="43.82613" lon="7.25096">
        <ele>545</ele>
        <time>2016-05-15T11:57:28.000Z</time>
      </trkpt>
      <trkpt lat="43.82612" lon="7.25096">
        <ele>545</ele>
        <time>2016-05-15T11:57:29.000Z</time>
      </trkpt>
      <trkpt lat="43.82606" lon="7.25101">
        <ele>545</ele>
        <time>2016-05-15T11:57:34.000Z</time>
      </trkpt>
      <trkpt lat="43.82603" lon="7.25103">
        <ele>545</ele>
        <time>2016-05-15T11:57:36.000Z</time>
      </trkpt>
      <trkpt lat="43.82597" lon="7.25107">
        <ele>545</ele>
        <time>2016-05-15T11:57:41.000Z</time>
      </trkpt>
      <trkpt lat="43.82589" lon="7.25112">
        <ele>546</ele>
        <time>2016-05-15T11:57:47.000Z</time>
      </trkpt>
      <trkpt lat="43.82588" lon="7.25113">
        <ele>546</ele>
        <time>2016-05-15T11:57:48.000Z</time>
      </trkpt>
      <trkpt lat="43.8258" lon="7.25122">
        <ele>543</ele>
        <time>2016-05-15T11:57:55.000Z</time>
      </trkpt>
      <trkpt lat="43.82574" lon="7.25129">
        <ele>544</ele>
        <time>2016-05-15T11:58:01.000Z</time>
      </trkpt>
      <trkpt lat="43.82573" lon="7.2513">
        <ele>544</ele>
        <time>2016-05-15T11:58:02.000Z</time>
      </trkpt>
      <trkpt lat="43.82572" lon="7.25131">
        <ele>545</ele>
        <time>2016-05-15T11:58:03.000Z</time>
      </trkpt>
      <trkpt lat="43.82566" lon="7.25136">
        <ele>545</ele>
        <time>2016-05-15T11:58:07.000Z</time>
      </trkpt>
      <trkpt lat="43.8256" lon="7.25142">
        <ele>546</ele>
        <time>2016-05-15T11:58:12.000Z</time>
      </trkpt>
      <trkpt lat="43.82558" lon="7.25144">
        <ele>546</ele>
        <time>2016-05-15T11:58:14.000Z</time>
      </trkpt>
      <trkpt lat="43.82552" lon="7.25149">
        <ele>546</ele>
        <time>2016-05-15T11:58:20.000Z</time>
      </trkpt>
      <trkpt lat="43.82551" lon="7.2515">
        <ele>546</ele>
        <time>2016-05-15T11:58:21.000Z</time>
      </trkpt>
      <trkpt lat="43.82543" lon="7.25155">
        <ele>546</ele>
        <time>2016-05-15T11:58:27.000Z</time>
      </trkpt>
      <trkpt lat="43.82539" lon="7.25157">
        <ele>546</ele>
        <time>2016-05-15T11:58:30.000Z</time>
      </trkpt>
      <trkpt lat="43.82534" lon="7.2516">
        <ele>546</ele>
        <time>2016-05-15T11:58:34.000Z</time>
      </trkpt>
      <trkpt lat="43.82527" lon="7.25163">
        <ele>547</ele>
        <time>2016-05-15T11:58:39.000Z</time>
      </trkpt>
      <trkpt lat="43.82526" lon="7.25163">
        <ele>547</ele>
        <time>2016-05-15T11:58:40.000Z</time>
      </trkpt>
      <trkpt lat="43.82517" lon="7.25169">
        <ele>560</ele>
        <time>2016-05-15T11:58:47.000Z</time>
      </trkpt>
      <trkpt lat="43.82516" lon="7.25169">
        <ele>559</ele>
        <time>2016-05-15T11:58:48.000Z</time>
      </trkpt>
      <trkpt lat="43.82508" lon="7.25175">
        <ele>558</ele>
        <time>2016-05-15T11:58:54.000Z</time>
      </trkpt>
      <trkpt lat="43.82505" lon="7.25178">
        <ele>559</ele>
        <time>2016-05-15T11:58:57.000Z</time>
      </trkpt>
      <trkpt lat="43.82499" lon="7.25184">
        <ele>556</ele>
        <time>2016-05-15T11:59:02.000Z</time>
      </trkpt>
      <trkpt lat="43.82492" lon="7.25191">
        <ele>558</ele>
        <time>2016-05-15T11:59:08.000Z</time>
      </trkpt>
      <trkpt lat="43.82483" lon="7.25198">
        <ele>559</ele>
        <time>2016-05-15T11:59:15.000Z</time>
      </trkpt>
      <trkpt lat="43.8248" lon="7.25199">
        <ele>559</ele>
        <time>2016-05-15T11:59:17.000Z</time>
      </trkpt>
      <trkpt lat="43.82474" lon="7.25203">
        <ele>560</ele>
        <time>2016-05-15T11:59:22.000Z</time>
      </trkpt>
      <trkpt lat="43.8247" lon="7.25204">
        <ele>560</ele>
        <time>2016-05-15T11:59:24.000Z</time>
      </trkpt>
      <trkpt lat="43.82462" lon="7.25208">
        <ele>560</ele>
        <time>2016-05-15T11:59:29.000Z</time>
      </trkpt>
      <trkpt lat="43.82455" lon="7.25211">
        <ele>560</ele>
        <time>2016-05-15T11:59:33.000Z</time>
      </trkpt>
      <trkpt lat="43.82447" lon="7.25215">
        <ele>560</ele>
        <time>2016-05-15T11:59:37.000Z</time>
      </trkpt>
      <trkpt lat="43.82437" lon="7.2522">
        <ele>561</ele>
        <time>2016-05-15T11:59:43.000Z</time>
      </trkpt>
      <trkpt lat="43.82433" lon="7.25222">
        <ele>561</ele>
        <time>2016-05-15T11:59:45.000Z</time>
      </trkpt>
      <trkpt lat="43.82424" lon="7.25229">
        <ele>562</ele>
        <time>2016-05-15T11:59:50.000Z</time>
      </trkpt>
      <trkpt lat="43.82416" lon="7.25234">
        <ele>559</ele>
        <time>2016-05-15T11:59:55.000Z</time>
      </trkpt>
      <trkpt lat="43.82407" lon="7.2524">
        <ele>560</ele>
        <time>2016-05-15T12:00:00.000Z</time>
      </trkpt>
      <trkpt lat="43.82401" lon="7.25244">
        <ele>559</ele>
        <time>2016-05-15T12:00:03.000Z</time>
      </trkpt>
      <trkpt lat="43.82379" lon="7.25257">
        <ele>571</ele>
        <time>2016-05-15T12:00:12.000Z</time>
      </trkpt>
      <trkpt lat="43.8235" lon="7.25272">
        <ele>569</ele>
        <time>2016-05-15T12:00:21.000Z</time>
      </trkpt>
      <trkpt lat="43.82321" lon="7.25289">
        <ele>562</ele>
        <time>2016-05-15T12:00:29.000Z</time>
      </trkpt>
      <trkpt lat="43.82295" lon="7.25309">
        <ele>563</ele>
        <time>2016-05-15T12:00:36.000Z</time>
      </trkpt>
      <trkpt lat="43.82261" lon="7.25343">
        <ele>569</ele>
        <time>2016-05-15T12:00:44.000Z</time>
      </trkpt>
      <trkpt lat="43.82227" lon="7.25384">
        <ele>563</ele>
        <time>2016-05-15T12:00:52.000Z</time>
      </trkpt>
      <trkpt lat="43.82211" lon="7.25397">
        <ele>562</ele>
        <time>2016-05-15T12:00:55.000Z</time>
      </trkpt>
      <trkpt lat="43.822" lon="7.25404">
        <ele>561</ele>
        <time>2016-05-15T12:00:57.000Z</time>
      </trkpt>
      <trkpt lat="43.82177" lon="7.25417">
        <ele>567</ele>
        <time>2016-05-15T12:01:01.000Z</time>
      </trkpt>
      <trkpt lat="43.82163" lon="7.25431">
        <ele>561</ele>
        <time>2016-05-15T12:01:04.000Z</time>
      </trkpt>
      <trkpt lat="43.82143" lon="7.25453">
        <ele>563</ele>
        <time>2016-05-15T12:01:08.000Z</time>
      </trkpt>
      <trkpt lat="43.82127" lon="7.25468">
        <ele>564</ele>
        <time>2016-05-15T12:01:11.000Z</time>
      </trkpt>
      <trkpt lat="43.82122" lon="7.25472">
        <ele>564</ele>
        <time>2016-05-15T12:01:12.000Z</time>
      </trkpt>
      <trkpt lat="43.82098" lon="7.2549">
        <ele>564</ele>
        <time>2016-05-15T12:01:17.000Z</time>
      </trkpt>
      <trkpt lat="43.8207" lon="7.2551">
        <ele>566</ele>
        <time>2016-05-15T12:01:24.000Z</time>
      </trkpt>
      <trkpt lat="43.82045" lon="7.25529">
        <ele>565</ele>
        <time>2016-05-15T12:01:31.000Z</time>
      </trkpt>
      <trkpt lat="43.82028" lon="7.25541">
        <ele>564</ele>
        <time>2016-05-15T12:01:36.000Z</time>
      </trkpt>
      <trkpt lat="43.82022" lon="7.25547">
        <ele>564</ele>
        <time>2016-05-15T12:01:38.000Z</time>
      </trkpt>
      <trkpt lat="43.82008" lon="7.25565">
        <ele>565</ele>
        <time>2016-05-15T12:01:44.000Z</time>
      </trkpt>
      <trkpt lat="43.82003" lon="7.25571">
        <ele>565</ele>
        <time>2016-05-15T12:01:46.000Z</time>
      </trkpt>
      <trkpt lat="43.81984" lon="7.25591">
        <ele>568</ele>
        <time>2016-05-15T12:01:53.000Z</time>
      </trkpt>
      <trkpt lat="43.81975" lon="7.256">
        <ele>569</ele>
        <time>2016-05-15T12:01:59.000Z</time>
      </trkpt>
      <trkpt lat="43.81967" lon="7.25612">
        <ele>570</ele>
        <time>2016-05-15T12:02:06.000Z</time>
      </trkpt>
      <trkpt lat="43.81964" lon="7.25619">
        <ele>570</ele>
        <time>2016-05-15T12:02:09.000Z</time>
      </trkpt>
      <trkpt lat="43.8196" lon="7.25632">
        <ele>570</ele>
        <time>2016-05-15T12:02:15.000Z</time>
      </trkpt>
      <trkpt lat="43.81956" lon="7.25642">
        <ele>570</ele>
        <time>2016-05-15T12:02:20.000Z</time>
      </trkpt>
      <trkpt lat="43.81951" lon="7.25655">
        <ele>571</ele>
        <time>2016-05-15T12:02:27.000Z</time>
      </trkpt>
      <trkpt lat="43.81949" lon="7.25661">
        <ele>571</ele>
        <time>2016-05-15T12:02:30.000Z</time>
      </trkpt>
      <trkpt lat="43.81942" lon="7.25675">
        <ele>566</ele>
        <time>2016-05-15T12:02:37.000Z</time>
      </trkpt>
      <trkpt lat="43.81939" lon="7.25683">
        <ele>566</ele>
        <time>2016-05-15T12:02:41.000Z</time>
      </trkpt>
      <trkpt lat="43.81938" lon="7.25685">
        <ele>566</ele>
        <time>2016-05-15T12:02:42.000Z</time>
      </trkpt>
      <trkpt lat="43.81929" lon="7.257">
        <ele>565</ele>
        <time>2016-05-15T12:02:50.000Z</time>
      </trkpt>
      <trkpt lat="43.81928" lon="7.25702">
        <ele>565</ele>
        <time>2016-05-15T12:02:51.000Z</time>
      </trkpt>
      <trkpt lat="43.81923" lon="7.2571">
        <ele>564</ele>
        <time>2016-05-15T12:02:56.000Z</time>
      </trkpt>
      <trkpt lat="43.81919" lon="7.25717">
        <ele>564</ele>
        <time>2016-05-15T12:03:01.000Z</time>
      </trkpt>
      <trkpt lat="43.81915" lon="7.25723">
        <ele>577</ele>
        <time>2016-05-15T12:03:04.000Z</time>
      </trkpt>
      <trkpt lat="43.81909" lon="7.25735">
        <ele>575</ele>
        <time>2016-05-15T12:03:10.000Z</time>
      </trkpt>
      <trkpt lat="43.81908" lon="7.25736">
        <ele>575</ele>
        <time>2016-05-15T12:03:11.000Z</time>
      </trkpt>
      <trkpt lat="43.81901" lon="7.25746">
        <ele>574</ele>
        <time>2016-05-15T12:03:16.000Z</time>
      </trkpt>
      <trkpt lat="43.81897" lon="7.2575">
        <ele>567</ele>
        <time>2016-05-15T12:03:19.000Z</time>
      </trkpt>
      <trkpt lat="43.81892" lon="7.25756">
        <ele>567</ele>
        <time>2016-05-15T12:03:23.000Z</time>
      </trkpt>
      <trkpt lat="43.81885" lon="7.25761">
        <ele>568</ele>
        <time>2016-05-15T12:03:27.000Z</time>
      </trkpt>
      <trkpt lat="43.8188" lon="7.25763">
        <ele>568</ele>
        <time>2016-05-15T12:03:30.000Z</time>
      </trkpt>
      <trkpt lat="43.81872" lon="7.25766">
        <ele>569</ele>
        <time>2016-05-15T12:03:35.000Z</time>
      </trkpt>
      <trkpt lat="43.81866" lon="7.25766">
        <ele>569</ele>
        <time>2016-05-15T12:03:37.000Z</time>
      </trkpt>
      <trkpt lat="43.81853" lon="7.25766">
        <ele>571</ele>
        <time>2016-05-15T12:03:44.000Z</time>
      </trkpt>
      <trkpt lat="43.81851" lon="7.25765">
        <ele>572</ele>
        <time>2016-05-15T12:03:45.000Z</time>
      </trkpt>
      <trkpt lat="43.81843" lon="7.25762">
        <ele>574</ele>
        <time>2016-05-15T12:03:50.000Z</time>
      </trkpt>
      <trkpt lat="43.81839" lon="7.25759">
        <ele>576</ele>
        <time>2016-05-15T12:03:53.000Z</time>
      </trkpt>
      <trkpt lat="43.81834" lon="7.25756">
        <ele>578</ele>
        <time>2016-05-15T12:03:56.000Z</time>
      </trkpt>
      <trkpt lat="43.81825" lon="7.2575">
        <ele>576</ele>
        <time>2016-05-15T12:04:02.000Z</time>
      </trkpt>
      <trkpt lat="43.81824" lon="7.25748">
        <ele>581</ele>
        <time>2016-05-15T12:04:03.000Z</time>
      </trkpt>
      <trkpt lat="43.81818" lon="7.25741">
        <ele>581</ele>
        <time>2016-05-15T12:04:08.000Z</time>
      </trkpt>
      <trkpt lat="43.81812" lon="7.25733">
        <ele>580</ele>
        <time>2016-05-15T12:04:13.000Z</time>
      </trkpt>
      <trkpt lat="43.81806" lon="7.25723">
        <ele>580</ele>
        <time>2016-05-15T12:04:19.000Z</time>
      </trkpt>
      <trkpt lat="43.81801" lon="7.25711">
        <ele>581</ele>
        <time>2016-05-15T12:04:26.000Z</time>
      </trkpt>
      <trkpt lat="43.81795" lon="7.25699">
        <ele>581</ele>
        <time>2016-05-15T12:04:33.000Z</time>
      </trkpt>
      <trkpt lat="43.81794" lon="7.25697">
        <ele>581</ele>
        <time>2016-05-15T12:04:34.000Z</time>
      </trkpt>
      <trkpt lat="43.8179" lon="7.25682">
        <ele>582</ele>
        <time>2016-05-15T12:04:42.000Z</time>
      </trkpt>
      <trkpt lat="43.81787" lon="7.2567">
        <ele>582</ele>
        <time>2016-05-15T12:04:49.000Z</time>
      </trkpt>
      <trkpt lat="43.81785" lon="7.25665">
        <ele>591</ele>
        <time>2016-05-15T12:04:52.000Z</time>
      </trkpt>
      <trkpt lat="43.81782" lon="7.25654">
        <ele>591</ele>
        <time>2016-05-15T12:04:58.000Z</time>
      </trkpt>
      <trkpt lat="43.81779" lon="7.25645">
        <ele>591</ele>
        <time>2016-05-15T12:05:03.000Z</time>
      </trkpt>
      <trkpt lat="43.81779" lon="7.25639">
        <ele>591</ele>
        <time>2016-05-15T12:05:06.000Z</time>
      </trkpt>
      <trkpt lat="43.81776" lon="7.25624">
        <ele>592</ele>
        <time>2016-05-15T12:05:14.000Z</time>
      </trkpt>
      <trkpt lat="43.81776" lon="7.2562">
        <ele>593</ele>
        <time>2016-05-15T12:05:16.000Z</time>
      </trkpt>
      <trkpt lat="43.81774" lon="7.25605">
        <ele>593</ele>
        <time>2016-05-15T12:05:24.000Z</time>
      </trkpt>
      <trkpt lat="43.81773" lon="7.25599">
        <ele>593</ele>
        <time>2016-05-15T12:05:27.000Z</time>
      </trkpt>
      <trkpt lat="43.81772" lon="7.25587">
        <ele>593</ele>
        <time>2016-05-15T12:05:33.000Z</time>
      </trkpt>
      <trkpt lat="43.8177" lon="7.25576">
        <ele>596</ele>
        <time>2016-05-15T12:05:38.000Z</time>
      </trkpt>
      <trkpt lat="43.81769" lon="7.25574">
        <ele>596</ele>
        <time>2016-05-15T12:05:39.000Z</time>
      </trkpt>
      <trkpt lat="43.81765" lon="7.25555">
        <ele>597</ele>
        <time>2016-05-15T12:05:48.000Z</time>
      </trkpt>
      <trkpt lat="43.81762" lon="7.25544">
        <ele>598</ele>
        <time>2016-05-15T12:05:54.000Z</time>
      </trkpt>
      <trkpt lat="43.81758" lon="7.25535">
        <ele>598</ele>
        <time>2016-05-15T12:05:59.000Z</time>
      </trkpt>
      <trkpt lat="43.81755" lon="7.25528">
        <ele>599</ele>
        <time>2016-05-15T12:06:03.000Z</time>
      </trkpt>
      <trkpt lat="43.81751" lon="7.25518">
        <ele>600</ele>
        <time>2016-05-15T12:06:09.000Z</time>
      </trkpt>
      <trkpt lat="43.8175" lon="7.25516">
        <ele>600</ele>
        <time>2016-05-15T12:06:10.000Z</time>
      </trkpt>
      <trkpt lat="43.81745" lon="7.25507">
        <ele>598</ele>
        <time>2016-05-15T12:06:16.000Z</time>
      </trkpt>
      <trkpt lat="43.81742" lon="7.25503">
        <ele>598</ele>
        <time>2016-05-15T12:06:19.000Z</time>
      </trkpt>
      <trkpt lat="43.81736" lon="7.25494">
        <ele>599</ele>
        <time>2016-05-15T12:06:25.000Z</time>
      </trkpt>
      <trkpt lat="43.81731" lon="7.25487">
        <ele>598</ele>
        <time>2016-05-15T12:06:30.000Z</time>
      </trkpt>
      <trkpt lat="43.81728" lon="7.25485">
        <ele>597</ele>
        <time>2016-05-15T12:06:32.000Z</time>
      </trkpt>
      <trkpt lat="43.81717" lon="7.25474">
        <ele>596</ele>
        <time>2016-05-15T12:06:40.000Z</time>
      </trkpt>
      <trkpt lat="43.81716" lon="7.25472">
        <ele>596</ele>
        <time>2016-05-15T12:06:41.000Z</time>
      </trkpt>
      <trkpt lat="43.81703" lon="7.25462">
        <ele>596</ele>
        <time>2016-05-15T12:06:48.000Z</time>
      </trkpt>
      <trkpt lat="43.81697" lon="7.25455">
        <ele>596</ele>
        <time>2016-05-15T12:06:54.000Z</time>
      </trkpt>
      <trkpt lat="43.81692" lon="7.2545">
        <ele>597</ele>
        <time>2016-05-15T12:06:58.000Z</time>
      </trkpt>
      <trkpt lat="43.81686" lon="7.25446">
        <ele>597</ele>
        <time>2016-05-15T12:07:03.000Z</time>
      </trkpt>
      <trkpt lat="43.81684" lon="7.25445">
        <ele>597</ele>
        <time>2016-05-15T12:07:04.000Z</time>
      </trkpt>
      <trkpt lat="43.8168" lon="7.25441">
        <ele>598</ele>
        <time>2016-05-15T12:07:08.000Z</time>
      </trkpt>
      <trkpt lat="43.81676" lon="7.25435">
        <ele>599</ele>
        <time>2016-05-15T12:07:13.000Z</time>
      </trkpt>
      <trkpt lat="43.81675" lon="7.25435">
        <ele>599</ele>
        <time>2016-05-15T12:07:14.000Z</time>
      </trkpt>
      <trkpt lat="43.81673" lon="7.25433">
        <ele>599</ele>
        <time>2016-05-15T12:07:16.000Z</time>
      </trkpt>
      <trkpt lat="43.81671" lon="7.25429">
        <ele>600</ele>
        <time>2016-05-15T12:07:19.000Z</time>
      </trkpt>
      <trkpt lat="43.81668" lon="7.25426">
        <ele>601</ele>
        <time>2016-05-15T12:07:22.000Z</time>
      </trkpt>
      <trkpt lat="43.81662" lon="7.25421">
        <ele>604</ele>
        <time>2016-05-15T12:07:28.000Z</time>
      </trkpt>
      <trkpt lat="43.81659" lon="7.25419">
        <ele>604</ele>
        <time>2016-05-15T12:07:35.000Z</time>
      </trkpt>
      <trkpt lat="43.81659" lon="7.25419">
        <ele>604</ele>
        <time>2016-05-15T12:07:42.000Z</time>
      </trkpt>
      <trkpt lat="43.81659" lon="7.25419">
        <ele>604</ele>
        <time>2016-05-15T12:07:58.000Z</time>
      </trkpt>
      <trkpt lat="43.81656" lon="7.25418">
        <ele>604</ele>
        <time>2016-05-15T12:08:05.000Z</time>
      </trkpt>
      <trkpt lat="43.81652" lon="7.25412">
        <ele>606</ele>
        <time>2016-05-15T12:08:14.000Z</time>
      </trkpt>
      <trkpt lat="43.81646" lon="7.25408">
        <ele>607</ele>
        <time>2016-05-15T12:08:22.000Z</time>
      </trkpt>
      <trkpt lat="43.81641" lon="7.25405">
        <ele>608</ele>
        <time>2016-05-15T12:08:29.000Z</time>
      </trkpt>
      <trkpt lat="43.8164" lon="7.25403">
        <ele>608</ele>
        <time>2016-05-15T12:08:31.000Z</time>
      </trkpt>
      <trkpt lat="43.81638" lon="7.25401">
        <ele>608</ele>
        <time>2016-05-15T12:08:35.000Z</time>
      </trkpt>
      <trkpt lat="43.81635" lon="7.25399">
        <ele>608</ele>
        <time>2016-05-15T12:08:40.000Z</time>
      </trkpt>
      <trkpt lat="43.81633" lon="7.25395">
        <ele>609</ele>
        <time>2016-05-15T12:08:45.000Z</time>
      </trkpt>
      <trkpt lat="43.81631" lon="7.25393">
        <ele>609</ele>
        <time>2016-05-15T12:08:49.000Z</time>
      </trkpt>
      <trkpt lat="43.81629" lon="7.25392">
        <ele>609</ele>
        <time>2016-05-15T12:08:51.000Z</time>
      </trkpt>
      <trkpt lat="43.81626" lon="7.25388">
        <ele>609</ele>
        <time>2016-05-15T12:08:57.000Z</time>
      </trkpt>
      <trkpt lat="43.81625" lon="7.25387">
        <ele>609</ele>
        <time>2016-05-15T12:08:59.000Z</time>
      </trkpt>
      <trkpt lat="43.81621" lon="7.25381">
        <ele>610</ele>
        <time>2016-05-15T12:09:08.000Z</time>
      </trkpt>
      <trkpt lat="43.81617" lon="7.25378">
        <ele>610</ele>
        <time>2016-05-15T12:09:15.000Z</time>
      </trkpt>
      <trkpt lat="43.81617" lon="7.25377">
        <ele>610</ele>
        <time>2016-05-15T12:09:17.000Z</time>
      </trkpt>
      <trkpt lat="43.81613" lon="7.25375">
        <ele>611</ele>
        <time>2016-05-15T12:09:23.000Z</time>
      </trkpt>
      <trkpt lat="43.81612" lon="7.25374">
        <ele>611</ele>
        <time>2016-05-15T12:09:25.000Z</time>
      </trkpt>
      <trkpt lat="43.8161" lon="7.25372">
        <ele>611</ele>
        <time>2016-05-15T12:09:29.000Z</time>
      </trkpt>
      <trkpt lat="43.81608" lon="7.25369">
        <ele>612</ele>
        <time>2016-05-15T12:09:35.000Z</time>
      </trkpt>
      <trkpt lat="43.81607" lon="7.25368">
        <ele>612</ele>
        <time>2016-05-15T12:09:37.000Z</time>
      </trkpt>
      <trkpt lat="43.81605" lon="7.25365">
        <ele>612</ele>
        <time>2016-05-15T12:09:44.000Z</time>
      </trkpt>
      <trkpt lat="43.81604" lon="7.25364">
        <ele>612</ele>
        <time>2016-05-15T12:09:45.000Z</time>
      </trkpt>
      <trkpt lat="43.81601" lon="7.25362">
        <ele>613</ele>
        <time>2016-05-15T12:09:52.000Z</time>
      </trkpt>
      <trkpt lat="43.816" lon="7.25362">
        <ele>613</ele>
        <time>2016-05-15T12:09:55.000Z</time>
      </trkpt>
      <trkpt lat="43.81595" lon="7.25362">
        <ele>614</ele>
        <time>2016-05-15T12:10:05.000Z</time>
      </trkpt>
      <trkpt lat="43.81595" lon="7.25362">
        <ele>614</ele>
        <time>2016-05-15T12:10:07.000Z</time>
      </trkpt>
      <trkpt lat="43.81593" lon="7.25361">
        <ele>614</ele>
        <time>2016-05-15T12:10:13.000Z</time>
      </trkpt>
      <trkpt lat="43.81592" lon="7.2536">
        <ele>614</ele>
        <time>2016-05-15T12:10:16.000Z</time>
      </trkpt>
      <trkpt lat="43.8159" lon="7.25359">
        <ele>615</ele>
        <time>2016-05-15T12:10:21.000Z</time>
      </trkpt>
      <trkpt lat="43.8159" lon="7.25358">
        <ele>615</ele>
        <time>2016-05-15T12:10:22.000Z</time>
      </trkpt>
      <trkpt lat="43.81587" lon="7.25357">
        <ele>615</ele>
        <time>2016-05-15T12:10:29.000Z</time>
      </trkpt>
      <trkpt lat="43.81586" lon="7.25357">
        <ele>615</ele>
        <time>2016-05-15T12:10:31.000Z</time>
      </trkpt>
      <trkpt lat="43.81584" lon="7.25357">
        <ele>616</ele>
        <time>2016-05-15T12:10:37.000Z</time>
      </trkpt>
      <trkpt lat="43.81583" lon="7.25355">
        <ele>628</ele>
        <time>2016-05-15T12:10:40.000Z</time>
      </trkpt>
      <trkpt lat="43.81581" lon="7.25355">
        <ele>628</ele>
        <time>2016-05-15T12:10:43.000Z</time>
      </trkpt>
      <trkpt lat="43.81579" lon="7.25353">
        <ele>628</ele>
        <time>2016-05-15T12:10:50.000Z</time>
      </trkpt>
      <trkpt lat="43.81579" lon="7.25353">
        <ele>628</ele>
        <time>2016-05-15T12:10:52.000Z</time>
      </trkpt>
      <trkpt lat="43.81578" lon="7.25351">
        <ele>628</ele>
        <time>2016-05-15T12:10:58.000Z</time>
      </trkpt>
      <trkpt lat="43.81575" lon="7.25349">
        <ele>628</ele>
        <time>2016-05-15T12:11:05.000Z</time>
      </trkpt>
      <trkpt lat="43.81575" lon="7.25348">
        <ele>628</ele>
        <time>2016-05-15T12:11:07.000Z</time>
      </trkpt>
      <trkpt lat="43.81573" lon="7.25347">
        <ele>628</ele>
        <time>2016-05-15T12:11:13.000Z</time>
      </trkpt>
      <trkpt lat="43.81572" lon="7.25346">
        <ele>628</ele>
        <time>2016-05-15T12:11:14.000Z</time>
      </trkpt>
      <trkpt lat="43.81568" lon="7.25345">
        <ele>628</ele>
        <time>2016-05-15T12:11:21.000Z</time>
      </trkpt>
      <trkpt lat="43.81566" lon="7.25345">
        <ele>629</ele>
        <time>2016-05-15T12:11:24.000Z</time>
      </trkpt>
      <trkpt lat="43.81563" lon="7.25344">
        <ele>629</ele>
        <time>2016-05-15T12:11:28.000Z</time>
      </trkpt>
      <trkpt lat="43.81561" lon="7.25343">
        <ele>629</ele>
        <time>2016-05-15T12:11:31.000Z</time>
      </trkpt>
      <trkpt lat="43.81558" lon="7.25341">
        <ele>630</ele>
        <time>2016-05-15T12:11:36.000Z</time>
      </trkpt>
      <trkpt lat="43.81557" lon="7.2534">
        <ele>630</ele>
        <time>2016-05-15T12:11:39.000Z</time>
      </trkpt>
      <trkpt lat="43.81555" lon="7.2534">
        <ele>630</ele>
        <time>2016-05-15T12:11:41.000Z</time>
      </trkpt>
      <trkpt lat="43.8155" lon="7.2534">
        <ele>631</ele>
        <time>2016-05-15T12:11:45.000Z</time>
      </trkpt>
      <trkpt lat="43.81545" lon="7.25342">
        <ele>632</ele>
        <time>2016-05-15T12:11:49.000Z</time>
      </trkpt>
      <trkpt lat="43.81538" lon="7.25344">
        <ele>633</ele>
        <time>2016-05-15T12:11:54.000Z</time>
      </trkpt>
      <trkpt lat="43.81529" lon="7.2535">
        <ele>634</ele>
        <time>2016-05-15T12:12:02.000Z</time>
      </trkpt>
      <trkpt lat="43.8153" lon="7.25351">
        <ele>634</ele>
        <time>2016-05-15T12:12:03.000Z</time>
      </trkpt>
      <trkpt lat="43.81529" lon="7.2535">
        <ele>634</ele>
        <time>2016-05-15T12:12:06.000Z</time>
      </trkpt>
      <trkpt lat="43.81529" lon="7.2535">
        <ele>634</ele>
        <time>2016-05-15T12:12:14.000Z</time>
      </trkpt>
      <trkpt lat="43.81527" lon="7.25351">
        <ele>635</ele>
        <time>2016-05-15T12:12:19.000Z</time>
      </trkpt>
      <trkpt lat="43.81526" lon="7.25351">
        <ele>635</ele>
        <time>2016-05-15T12:12:20.000Z</time>
      </trkpt>
      <trkpt lat="43.81524" lon="7.25354">
        <ele>635</ele>
        <time>2016-05-15T12:12:26.000Z</time>
      </trkpt>
      <trkpt lat="43.81523" lon="7.25354">
        <ele>635</ele>
        <time>2016-05-15T12:12:28.000Z</time>
      </trkpt>
      <trkpt lat="43.81522" lon="7.25356">
        <ele>635</ele>
        <time>2016-05-15T12:12:34.000Z</time>
      </trkpt>
      <trkpt lat="43.81521" lon="7.25356">
        <ele>635</ele>
        <time>2016-05-15T12:12:37.000Z</time>
      </trkpt>
      <trkpt lat="43.81519" lon="7.25357">
        <ele>635</ele>
        <time>2016-05-15T12:12:41.000Z</time>
      </trkpt>
      <trkpt lat="43.81517" lon="7.25358">
        <ele>636</ele>
        <time>2016-05-15T12:12:45.000Z</time>
      </trkpt>
      <trkpt lat="43.81516" lon="7.25359">
        <ele>636</ele>
        <time>2016-05-15T12:12:47.000Z</time>
      </trkpt>
      <trkpt lat="43.81513" lon="7.25361">
        <ele>636</ele>
        <time>2016-05-15T12:12:53.000Z</time>
      </trkpt>
      <trkpt lat="43.81513" lon="7.25362">
        <ele>636</ele>
        <time>2016-05-15T12:12:54.000Z</time>
      </trkpt>
      <trkpt lat="43.81511" lon="7.25365">
        <ele>636</ele>
        <time>2016-05-15T12:12:59.000Z</time>
      </trkpt>
      <trkpt lat="43.81508" lon="7.25366">
        <ele>636</ele>
        <time>2016-05-15T12:13:03.000Z</time>
      </trkpt>
      <trkpt lat="43.81506" lon="7.25367">
        <ele>636</ele>
        <time>2016-05-15T12:13:07.000Z</time>
      </trkpt>
      <trkpt lat="43.81503" lon="7.25369">
        <ele>636</ele>
        <time>2016-05-15T12:13:12.000Z</time>
      </trkpt>
      <trkpt lat="43.81502" lon="7.25369">
        <ele>636</ele>
        <time>2016-05-15T12:13:13.000Z</time>
      </trkpt>
      <trkpt lat="43.815" lon="7.25371">
        <ele>646</ele>
        <time>2016-05-15T12:13:18.000Z</time>
      </trkpt>
      <trkpt lat="43.81498" lon="7.25372">
        <ele>646</ele>
        <time>2016-05-15T12:13:21.000Z</time>
      </trkpt>
      <trkpt lat="43.81496" lon="7.25374">
        <ele>646</ele>
        <time>2016-05-15T12:13:25.000Z</time>
      </trkpt>
      <trkpt lat="43.81494" lon="7.25375">
        <ele>646</ele>
        <time>2016-05-15T12:13:30.000Z</time>
      </trkpt>
      <trkpt lat="43.81492" lon="7.25376">
        <ele>647</ele>
        <time>2016-05-15T12:13:32.000Z</time>
      </trkpt>
      <trkpt lat="43.81489" lon="7.25377">
        <ele>647</ele>
        <time>2016-05-15T12:13:37.000Z</time>
      </trkpt>
      <trkpt lat="43.81487" lon="7.25377">
        <ele>647</ele>
        <time>2016-05-15T12:13:40.000Z</time>
      </trkpt>
      <trkpt lat="43.81483" lon="7.25378">
        <ele>647</ele>
        <time>2016-05-15T12:13:45.000Z</time>
      </trkpt>
      <trkpt lat="43.81481" lon="7.25379">
        <ele>647</ele>
        <time>2016-05-15T12:13:49.000Z</time>
      </trkpt>
      <trkpt lat="43.8148" lon="7.2538">
        <ele>647</ele>
        <time>2016-05-15T12:13:51.000Z</time>
      </trkpt>
      <trkpt lat="43.81475" lon="7.25381">
        <ele>647</ele>
        <time>2016-05-15T12:13:58.000Z</time>
      </trkpt>
      <trkpt lat="43.81474" lon="7.25381">
        <ele>647</ele>
        <time>2016-05-15T12:13:59.000Z</time>
      </trkpt>
      <trkpt lat="43.81473" lon="7.25381">
        <ele>647</ele>
        <time>2016-05-15T12:14:00.000Z</time>
      </trkpt>
      <trkpt lat="43.81469" lon="7.25384">
        <ele>648</ele>
        <time>2016-05-15T12:14:06.000Z</time>
      </trkpt>
      <trkpt lat="43.81467" lon="7.25385">
        <ele>648</ele>
        <time>2016-05-15T12:14:10.000Z</time>
      </trkpt>
      <trkpt lat="43.81462" lon="7.25387">
        <ele>648</ele>
        <time>2016-05-15T12:14:16.000Z</time>
      </trkpt>
      <trkpt lat="43.81456" lon="7.25389">
        <ele>649</ele>
        <time>2016-05-15T12:14:23.000Z</time>
      </trkpt>
      <trkpt lat="43.81455" lon="7.2539">
        <ele>649</ele>
        <time>2016-05-15T12:14:24.000Z</time>
      </trkpt>
      <trkpt lat="43.8145" lon="7.25392">
        <ele>649</ele>
        <time>2016-05-15T12:14:31.000Z</time>
      </trkpt>
      <trkpt lat="43.81449" lon="7.25394">
        <ele>650</ele>
        <time>2016-05-15T12:14:33.000Z</time>
      </trkpt>
      <trkpt lat="43.81446" lon="7.25396">
        <ele>650</ele>
        <time>2016-05-15T12:14:36.000Z</time>
      </trkpt>
      <trkpt lat="43.81436" lon="7.25395">
        <ele>651</ele>
        <time>2016-05-15T12:14:41.000Z</time>
      </trkpt>
      <trkpt lat="43.81417" lon="7.25395">
        <ele>652</ele>
        <time>2016-05-15T12:14:45.000Z</time>
      </trkpt>
      <trkpt lat="43.81392" lon="7.25391">
        <ele>652</ele>
        <time>2016-05-15T12:14:49.000Z</time>
      </trkpt>
      <trkpt lat="43.81384" lon="7.2539">
        <ele>651</ele>
        <time>2016-05-15T12:14:50.000Z</time>
      </trkpt>
      <trkpt lat="43.81371" lon="7.25387">
        <ele>651</ele>
        <time>2016-05-15T12:14:52.000Z</time>
      </trkpt>
      <trkpt lat="43.81351" lon="7.25383">
        <ele>650</ele>
        <time>2016-05-15T12:14:55.000Z</time>
      </trkpt>
      <trkpt lat="43.81344" lon="7.2538">
        <ele>650</ele>
        <time>2016-05-15T12:14:56.000Z</time>
      </trkpt>
      <trkpt lat="43.81338" lon="7.25377">
        <ele>650</ele>
        <time>2016-05-15T12:14:57.000Z</time>
      </trkpt>
      <trkpt lat="43.81331" lon="7.25375">
        <ele>651</ele>
        <time>2016-05-15T12:14:58.000Z</time>
      </trkpt>
      <trkpt lat="43.81326" lon="7.25374">
        <ele>651</ele>
        <time>2016-05-15T12:14:59.000Z</time>
      </trkpt>
      <trkpt lat="43.81317" lon="7.25373">
        <ele>651</ele>
        <time>2016-05-15T12:15:01.000Z</time>
      </trkpt>
      <trkpt lat="43.81307" lon="7.25371">
        <ele>652</ele>
        <time>2016-05-15T12:15:05.000Z</time>
      </trkpt>
      <trkpt lat="43.81295" lon="7.25366">
        <ele>652</ele>
        <time>2016-05-15T12:15:11.000Z</time>
      </trkpt>
      <trkpt lat="43.81292" lon="7.25364">
        <ele>653</ele>
        <time>2016-05-15T12:15:14.000Z</time>
      </trkpt>
      <trkpt lat="43.81291" lon="7.25364">
        <ele>653</ele>
        <time>2016-05-15T12:15:17.000Z</time>
      </trkpt>
      <trkpt lat="43.8129" lon="7.25364">
        <ele>653</ele>
        <time>2016-05-15T12:15:18.000Z</time>
      </trkpt>
      <trkpt lat="43.81288" lon="7.25363">
        <ele>653</ele>
        <time>2016-05-15T12:15:22.000Z</time>
      </trkpt>
      <trkpt lat="43.81283" lon="7.25359">
        <ele>653</ele>
        <time>2016-05-15T12:15:30.000Z</time>
      </trkpt>
      <trkpt lat="43.81279" lon="7.25357">
        <ele>654</ele>
        <time>2016-05-15T12:15:38.000Z</time>
      </trkpt>
      <trkpt lat="43.81277" lon="7.25357">
        <ele>654</ele>
        <time>2016-05-15T12:15:39.000Z</time>
      </trkpt>
      <trkpt lat="43.81273" lon="7.25356">
        <ele>654</ele>
        <time>2016-05-15T12:15:45.000Z</time>
      </trkpt>
      <trkpt lat="43.81271" lon="7.25356">
        <ele>655</ele>
        <time>2016-05-15T12:15:48.000Z</time>
      </trkpt>
      <trkpt lat="43.81268" lon="7.25356">
        <ele>655</ele>
        <time>2016-05-15T12:15:53.000Z</time>
      </trkpt>
      <trkpt lat="43.81266" lon="7.25355">
        <ele>655</ele>
        <time>2016-05-15T12:15:56.000Z</time>
      </trkpt>
      <trkpt lat="43.81265" lon="7.25355">
        <ele>655</ele>
        <time>2016-05-15T12:15:58.000Z</time>
      </trkpt>
      <trkpt lat="43.81262" lon="7.25354">
        <ele>656</ele>
        <time>2016-05-15T12:16:03.000Z</time>
      </trkpt>
      <trkpt lat="43.81257" lon="7.25349">
        <ele>657</ele>
        <time>2016-05-15T12:16:11.000Z</time>
      </trkpt>
      <trkpt lat="43.81257" lon="7.25348">
        <ele>657</ele>
        <time>2016-05-15T12:16:13.000Z</time>
      </trkpt>
      <trkpt lat="43.81254" lon="7.25345">
        <ele>658</ele>
        <time>2016-05-15T12:16:18.000Z</time>
      </trkpt>
      <trkpt lat="43.8125" lon="7.25344">
        <ele>661</ele>
        <time>2016-05-15T12:16:25.000Z</time>
      </trkpt>
      <trkpt lat="43.81249" lon="7.25343">
        <ele>661</ele>
        <time>2016-05-15T12:16:26.000Z</time>
      </trkpt>
      <trkpt lat="43.81245" lon="7.25343">
        <ele>661</ele>
        <time>2016-05-15T12:16:32.000Z</time>
      </trkpt>
      <trkpt lat="43.81244" lon="7.25344">
        <ele>661</ele>
        <time>2016-05-15T12:16:35.000Z</time>
      </trkpt>
      <trkpt lat="43.81242" lon="7.25344">
        <ele>661</ele>
        <time>2016-05-15T12:16:38.000Z</time>
      </trkpt>
      <trkpt lat="43.81239" lon="7.25343">
        <ele>661</ele>
        <time>2016-05-15T12:16:43.000Z</time>
      </trkpt>
      <trkpt lat="43.81236" lon="7.25341">
        <ele>661</ele>
        <time>2016-05-15T12:16:48.000Z</time>
      </trkpt>
      <trkpt lat="43.81233" lon="7.25339">
        <ele>662</ele>
        <time>2016-05-15T12:16:53.000Z</time>
      </trkpt>
      <trkpt lat="43.81232" lon="7.25339">
        <ele>662</ele>
        <time>2016-05-15T12:16:54.000Z</time>
      </trkpt>
      <trkpt lat="43.81227" lon="7.25338">
        <ele>662</ele>
        <time>2016-05-15T12:17:01.000Z</time>
      </trkpt>
      <trkpt lat="43.81224" lon="7.25335">
        <ele>662</ele>
        <time>2016-05-15T12:17:07.000Z</time>
      </trkpt>
      <trkpt lat="43.81223" lon="7.25334">
        <ele>662</ele>
        <time>2016-05-15T12:17:08.000Z</time>
      </trkpt>
      <trkpt lat="43.81215" lon="7.25332">
        <ele>662</ele>
        <time>2016-05-15T12:17:14.000Z</time>
      </trkpt>
      <trkpt lat="43.8121" lon="7.25331">
        <ele>662</ele>
        <time>2016-05-15T12:17:17.000Z</time>
      </trkpt>
      <trkpt lat="43.81204" lon="7.25331">
        <ele>664</ele>
        <time>2016-05-15T12:17:21.000Z</time>
      </trkpt>
      <trkpt lat="43.81198" lon="7.2533">
        <ele>665</ele>
        <time>2016-05-15T12:17:25.000Z</time>
      </trkpt>
      <trkpt lat="43.8119" lon="7.25327">
        <ele>666</ele>
        <time>2016-05-15T12:17:31.000Z</time>
      </trkpt>
      <trkpt lat="43.81179" lon="7.25321">
        <ele>669</ele>
        <time>2016-05-15T12:17:39.000Z</time>
      </trkpt>
      <trkpt lat="43.81169" lon="7.25314">
        <ele>668</ele>
        <time>2016-05-15T12:17:46.000Z</time>
      </trkpt>
      <trkpt lat="43.81168" lon="7.25314">
        <ele>668</ele>
        <time>2016-05-15T12:17:47.000Z</time>
      </trkpt>
      <trkpt lat="43.81159" lon="7.25308">
        <ele>677</ele>
        <time>2016-05-15T12:17:54.000Z</time>
      </trkpt>
      <trkpt lat="43.81157" lon="7.25306">
        <ele>677</ele>
        <time>2016-05-15T12:17:56.000Z</time>
      </trkpt>
      <trkpt lat="43.81153" lon="7.25301">
        <ele>677</ele>
        <time>2016-05-15T12:18:00.000Z</time>
      </trkpt>
      <trkpt lat="43.81152" lon="7.25301">
        <ele>677</ele>
        <time>2016-05-15T12:18:01.000Z</time>
      </trkpt>
      <trkpt lat="43.81148" lon="7.25295">
        <ele>677</ele>
        <time>2016-05-15T12:18:05.000Z</time>
      </trkpt>
      <trkpt lat="43.81144" lon="7.25293">
        <ele>677</ele>
        <time>2016-05-15T12:18:07.000Z</time>
      </trkpt>
      <trkpt lat="43.81137" lon="7.25291">
        <ele>678</ele>
        <time>2016-05-15T12:18:13.000Z</time>
      </trkpt>
      <trkpt lat="43.81136" lon="7.2529">
        <ele>678</ele>
        <time>2016-05-15T12:18:14.000Z</time>
      </trkpt>
      <trkpt lat="43.81133" lon="7.2529">
        <ele>678</ele>
        <time>2016-05-15T12:18:16.000Z</time>
      </trkpt>
      <trkpt lat="43.81132" lon="7.2529">
        <ele>678</ele>
        <time>2016-05-15T12:18:18.000Z</time>
      </trkpt>
      <trkpt lat="43.81129" lon="7.2529">
        <ele>679</ele>
        <time>2016-05-15T12:18:20.000Z</time>
      </trkpt>
      <trkpt lat="43.81126" lon="7.2529">
        <ele>679</ele>
        <time>2016-05-15T12:18:23.000Z</time>
      </trkpt>
      <trkpt lat="43.81121" lon="7.25288">
        <ele>679</ele>
        <time>2016-05-15T12:18:28.000Z</time>
      </trkpt>
      <trkpt lat="43.81117" lon="7.25285">
        <ele>680</ele>
        <time>2016-05-15T12:18:32.000Z</time>
      </trkpt>
      <trkpt lat="43.81114" lon="7.25284">
        <ele>680</ele>
        <time>2016-05-15T12:18:35.000Z</time>
      </trkpt>
      <trkpt lat="43.81114" lon="7.25283">
        <ele>681</ele>
        <time>2016-05-15T12:18:37.000Z</time>
      </trkpt>
      <trkpt lat="43.81113" lon="7.25281">
        <ele>681</ele>
        <time>2016-05-15T12:18:38.000Z</time>
      </trkpt>
      <trkpt lat="43.81111" lon="7.25279">
        <ele>681</ele>
        <time>2016-05-15T12:18:40.000Z</time>
      </trkpt>
      <trkpt lat="43.81106" lon="7.25272">
        <ele>683</ele>
        <time>2016-05-15T12:18:48.000Z</time>
      </trkpt>
      <trkpt lat="43.81102" lon="7.25267">
        <ele>684</ele>
        <time>2016-05-15T12:18:55.000Z</time>
      </trkpt>
      <trkpt lat="43.81101" lon="7.25265">
        <ele>685</ele>
        <time>2016-05-15T12:18:57.000Z</time>
      </trkpt>
      <trkpt lat="43.81098" lon="7.25263">
        <ele>686</ele>
        <time>2016-05-15T12:19:02.000Z</time>
      </trkpt>
      <trkpt lat="43.81096" lon="7.25262">
        <ele>687</ele>
        <time>2016-05-15T12:19:05.000Z</time>
      </trkpt>
      <trkpt lat="43.81092" lon="7.25259">
        <ele>689</ele>
        <time>2016-05-15T12:19:09.000Z</time>
      </trkpt>
      <trkpt lat="43.81089" lon="7.25257">
        <ele>690</ele>
        <time>2016-05-15T12:19:14.000Z</time>
      </trkpt>
      <trkpt lat="43.81089" lon="7.25257">
        <ele>690</ele>
        <time>2016-05-15T12:19:15.000Z</time>
      </trkpt>
      <trkpt lat="43.81086" lon="7.25256">
        <ele>692</ele>
        <time>2016-05-15T12:19:20.000Z</time>
      </trkpt>
      <trkpt lat="43.81082" lon="7.25255">
        <ele>693</ele>
        <time>2016-05-15T12:19:25.000Z</time>
      </trkpt>
      <trkpt lat="43.8108" lon="7.25254">
        <ele>693</ele>
        <time>2016-05-15T12:19:28.000Z</time>
      </trkpt>
      <trkpt lat="43.81076" lon="7.25251">
        <ele>692</ele>
        <time>2016-05-15T12:19:35.000Z</time>
      </trkpt>
      <trkpt lat="43.8107" lon="7.25248">
        <ele>696</ele>
        <time>2016-05-15T12:19:43.000Z</time>
      </trkpt>
      <trkpt lat="43.81069" lon="7.25247">
        <ele>696</ele>
        <time>2016-05-15T12:19:44.000Z</time>
      </trkpt>
      <trkpt lat="43.81065" lon="7.25244">
        <ele>696</ele>
        <time>2016-05-15T12:19:51.000Z</time>
      </trkpt>
      <trkpt lat="43.81064" lon="7.25242">
        <ele>696</ele>
        <time>2016-05-15T12:19:53.000Z</time>
      </trkpt>
      <trkpt lat="43.81062" lon="7.2524">
        <ele>696</ele>
        <time>2016-05-15T12:19:56.000Z</time>
      </trkpt>
      <trkpt lat="43.81059" lon="7.25238">
        <ele>696</ele>
        <time>2016-05-15T12:20:00.000Z</time>
      </trkpt>
      <trkpt lat="43.81059" lon="7.25237">
        <ele>696</ele>
        <time>2016-05-15T12:20:04.000Z</time>
      </trkpt>
      <trkpt lat="43.81059" lon="7.25237">
        <ele>696</ele>
        <time>2016-05-15T12:20:05.000Z</time>
      </trkpt>
      <trkpt lat="43.81055" lon="7.25235">
        <ele>696</ele>
        <time>2016-05-15T12:20:18.000Z</time>
      </trkpt>
      <trkpt lat="43.81053" lon="7.25232">
        <ele>696</ele>
        <time>2016-05-15T12:20:21.000Z</time>
      </trkpt>
      <trkpt lat="43.81052" lon="7.2523">
        <ele>696</ele>
        <time>2016-05-15T12:20:23.000Z</time>
      </trkpt>
      <trkpt lat="43.81049" lon="7.25227">
        <ele>696</ele>
        <time>2016-05-15T12:20:25.000Z</time>
      </trkpt>
      <trkpt lat="43.81044" lon="7.25217">
        <ele>696</ele>
        <time>2016-05-15T12:20:31.000Z</time>
      </trkpt>
      <trkpt lat="43.8104" lon="7.25212">
        <ele>697</ele>
        <time>2016-05-15T12:20:34.000Z</time>
      </trkpt>
      <trkpt lat="43.81031" lon="7.25199">
        <ele>698</ele>
        <time>2016-05-15T12:20:40.000Z</time>
      </trkpt>
      <trkpt lat="43.8102" lon="7.25185">
        <ele>701</ele>
        <time>2016-05-15T12:20:48.000Z</time>
      </trkpt>
      <trkpt lat="43.81017" lon="7.25182">
        <ele>702</ele>
        <time>2016-05-15T12:20:50.000Z</time>
      </trkpt>
      <trkpt lat="43.81013" lon="7.25179">
        <ele>703</ele>
        <time>2016-05-15T12:20:53.000Z</time>
      </trkpt>
      <trkpt lat="43.81004" lon="7.25168">
        <ele>708</ele>
        <time>2016-05-15T12:20:58.000Z</time>
      </trkpt>
      <trkpt lat="43.81003" lon="7.25166">
        <ele>709</ele>
        <time>2016-05-15T12:20:59.000Z</time>
      </trkpt>
      <trkpt lat="43.80995" lon="7.25152">
        <ele>712</ele>
        <time>2016-05-15T12:21:04.000Z</time>
      </trkpt>
      <trkpt lat="43.80985" lon="7.25138">
        <ele>714</ele>
        <time>2016-05-15T12:21:12.000Z</time>
      </trkpt>
      <trkpt lat="43.80979" lon="7.2513">
        <ele>715</ele>
        <time>2016-05-15T12:21:17.000Z</time>
      </trkpt>
      <trkpt lat="43.80975" lon="7.25126">
        <ele>716</ele>
        <time>2016-05-15T12:21:20.000Z</time>
      </trkpt>
      <trkpt lat="43.80974" lon="7.25125">
        <ele>716</ele>
        <time>2016-05-15T12:21:21.000Z</time>
      </trkpt>
      <trkpt lat="43.80971" lon="7.25122">
        <ele>716</ele>
        <time>2016-05-15T12:21:24.000Z</time>
      </trkpt>
      <trkpt lat="43.80968" lon="7.25119">
        <ele>716</ele>
        <time>2016-05-15T12:21:29.000Z</time>
      </trkpt>
      <trkpt lat="43.80967" lon="7.25118">
        <ele>716</ele>
        <time>2016-05-15T12:21:31.000Z</time>
      </trkpt>
      <trkpt lat="43.80966" lon="7.25117">
        <ele>716</ele>
        <time>2016-05-15T12:21:32.000Z</time>
      </trkpt>
      <trkpt lat="43.80962" lon="7.25114">
        <ele>717</ele>
        <time>2016-05-15T12:21:35.000Z</time>
      </trkpt>
      <trkpt lat="43.80959" lon="7.25111">
        <ele>717</ele>
        <time>2016-05-15T12:21:39.000Z</time>
      </trkpt>
      <trkpt lat="43.80957" lon="7.25109">
        <ele>717</ele>
        <time>2016-05-15T12:21:41.000Z</time>
      </trkpt>
      <trkpt lat="43.80956" lon="7.25108">
        <ele>718</ele>
        <time>2016-05-15T12:21:42.000Z</time>
      </trkpt>
      <trkpt lat="43.80954" lon="7.25107">
        <ele>718</ele>
        <time>2016-05-15T12:21:44.000Z</time>
      </trkpt>
      <trkpt lat="43.80953" lon="7.25106">
        <ele>718</ele>
        <time>2016-05-15T12:21:45.000Z</time>
      </trkpt>
      <trkpt lat="43.80949" lon="7.25103">
        <ele>718</ele>
        <time>2016-05-15T12:21:49.000Z</time>
      </trkpt>
      <trkpt lat="43.80947" lon="7.25102">
        <ele>719</ele>
        <time>2016-05-15T12:21:51.000Z</time>
      </trkpt>
      <trkpt lat="43.80939" lon="7.25095">
        <ele>720</ele>
        <time>2016-05-15T12:21:58.000Z</time>
      </trkpt>
      <trkpt lat="43.8093" lon="7.25089">
        <ele>723</ele>
        <time>2016-05-15T12:22:05.000Z</time>
      </trkpt>
      <trkpt lat="43.80928" lon="7.25087">
        <ele>724</ele>
        <time>2016-05-15T12:22:07.000Z</time>
      </trkpt>
      <trkpt lat="43.80917" lon="7.25084">
        <ele>729</ele>
        <time>2016-05-15T12:22:14.000Z</time>
      </trkpt>
      <trkpt lat="43.80915" lon="7.25083">
        <ele>730</ele>
        <time>2016-05-15T12:22:15.000Z</time>
      </trkpt>
      <trkpt lat="43.80904" lon="7.25079">
        <ele>737</ele>
        <time>2016-05-15T12:22:21.000Z</time>
      </trkpt>
      <trkpt lat="43.80895" lon="7.25077">
        <ele>740</ele>
        <time>2016-05-15T12:22:25.000Z</time>
      </trkpt>
      <trkpt lat="43.80892" lon="7.25077">
        <ele>741</ele>
        <time>2016-05-15T12:22:27.000Z</time>
      </trkpt>
      <trkpt lat="43.80877" lon="7.25073">
        <ele>744</ele>
        <time>2016-05-15T12:22:34.000Z</time>
      </trkpt>
      <trkpt lat="43.80873" lon="7.2507">
        <ele>744</ele>
        <time>2016-05-15T12:22:36.000Z</time>
      </trkpt>
      <trkpt lat="43.80867" lon="7.25068">
        <ele>745</ele>
        <time>2016-05-15T12:22:39.000Z</time>
      </trkpt>
      <trkpt lat="43.80853" lon="7.25058">
        <ele>746</ele>
        <time>2016-05-15T12:22:46.000Z</time>
      </trkpt>
      <trkpt lat="43.80853" lon="7.25057">
        <ele>746</ele>
        <time>2016-05-15T12:22:47.000Z</time>
      </trkpt>
      <trkpt lat="43.8085" lon="7.25053">
        <ele>747</ele>
        <time>2016-05-15T12:22:50.000Z</time>
      </trkpt>
      <trkpt lat="43.80849" lon="7.25053">
        <ele>747</ele>
        <time>2016-05-15T12:22:51.000Z</time>
      </trkpt>
      <trkpt lat="43.80847" lon="7.2505">
        <ele>748</ele>
        <time>2016-05-15T12:22:53.000Z</time>
      </trkpt>
      <trkpt lat="43.80844" lon="7.25049">
        <ele>748</ele>
        <time>2016-05-15T12:22:55.000Z</time>
      </trkpt>
      <trkpt lat="43.8084" lon="7.2505">
        <ele>748</ele>
        <time>2016-05-15T12:22:57.000Z</time>
      </trkpt>
      <trkpt lat="43.80838" lon="7.25053">
        <ele>747</ele>
        <time>2016-05-15T12:23:00.000Z</time>
      </trkpt>
      <trkpt lat="43.80836" lon="7.25056">
        <ele>746</ele>
        <time>2016-05-15T12:23:02.000Z</time>
      </trkpt>
      <trkpt lat="43.80837" lon="7.25057">
        <ele>746</ele>
        <time>2016-05-15T12:23:03.000Z</time>
      </trkpt>
      <trkpt lat="43.80836" lon="7.25063">
        <ele>744</ele>
        <time>2016-05-15T12:23:07.000Z</time>
      </trkpt>
      <trkpt lat="43.80835" lon="7.25065">
        <ele>743</ele>
        <time>2016-05-15T12:23:09.000Z</time>
      </trkpt>
      <trkpt lat="43.80832" lon="7.25068">
        <ele>745</ele>
        <time>2016-05-15T12:23:12.000Z</time>
      </trkpt>
      <trkpt lat="43.8083" lon="7.2507">
        <ele>745</ele>
        <time>2016-05-15T12:23:14.000Z</time>
      </trkpt>
      <trkpt lat="43.80828" lon="7.25071">
        <ele>744</ele>
        <time>2016-05-15T12:23:16.000Z</time>
      </trkpt>
      <trkpt lat="43.80824" lon="7.25075">
        <ele>744</ele>
        <time>2016-05-15T12:23:20.000Z</time>
      </trkpt>
      <trkpt lat="43.80819" lon="7.25082">
        <ele>744</ele>
        <time>2016-05-15T12:23:25.000Z</time>
      </trkpt>
      <trkpt lat="43.80817" lon="7.25084">
        <ele>733</ele>
        <time>2016-05-15T12:23:26.000Z</time>
      </trkpt>
      <trkpt lat="43.80815" lon="7.25086">
        <ele>733</ele>
        <time>2016-05-15T12:23:28.000Z</time>
      </trkpt>
      <trkpt lat="43.8081" lon="7.25091">
        <ele>733</ele>
        <time>2016-05-15T12:23:32.000Z</time>
      </trkpt>
      <trkpt lat="43.80801" lon="7.25098">
        <ele>732</ele>
        <time>2016-05-15T12:23:38.000Z</time>
      </trkpt>
      <trkpt lat="43.808" lon="7.25098">
        <ele>732</ele>
        <time>2016-05-15T12:23:39.000Z</time>
      </trkpt>
      <trkpt lat="43.8079" lon="7.25105">
        <ele>732</ele>
        <time>2016-05-15T12:23:45.000Z</time>
      </trkpt>
      <trkpt lat="43.80775" lon="7.25113">
        <ele>732</ele>
        <time>2016-05-15T12:23:50.000Z</time>
      </trkpt>
      <trkpt lat="43.80757" lon="7.25115">
        <ele>733</ele>
        <time>2016-05-15T12:23:54.000Z</time>
      </trkpt>
      <trkpt lat="43.80745" lon="7.25113">
        <ele>735</ele>
        <time>2016-05-15T12:23:56.000Z</time>
      </trkpt>
      <trkpt lat="43.80734" lon="7.2511">
        <ele>735</ele>
        <time>2016-05-15T12:23:58.000Z</time>
      </trkpt>
      <trkpt lat="43.80728" lon="7.25109">
        <ele>735</ele>
        <time>2016-05-15T12:23:59.000Z</time>
      </trkpt>
      <trkpt lat="43.80716" lon="7.25107">
        <ele>734</ele>
        <time>2016-05-15T12:24:01.000Z</time>
      </trkpt>
      <trkpt lat="43.80704" lon="7.25103">
        <ele>734</ele>
        <time>2016-05-15T12:24:03.000Z</time>
      </trkpt>
      <trkpt lat="43.807" lon="7.251">
        <ele>735</ele>
        <time>2016-05-15T12:24:04.000Z</time>
      </trkpt>
      <trkpt lat="43.80689" lon="7.25103">
        <ele>734</ele>
        <time>2016-05-15T12:24:07.000Z</time>
      </trkpt>
      <trkpt lat="43.80679" lon="7.25103">
        <ele>735</ele>
        <time>2016-05-15T12:24:09.000Z</time>
      </trkpt>
      <trkpt lat="43.80673" lon="7.25103">
        <ele>735</ele>
        <time>2016-05-15T12:24:10.000Z</time>
      </trkpt>
      <trkpt lat="43.80669" lon="7.25103">
        <ele>736</ele>
        <time>2016-05-15T12:24:11.000Z</time>
      </trkpt>
      <trkpt lat="43.80664" lon="7.25102">
        <ele>735</ele>
        <time>2016-05-15T12:24:12.000Z</time>
      </trkpt>
      <trkpt lat="43.80657" lon="7.25103">
        <ele>734</ele>
        <time>2016-05-15T12:24:15.000Z</time>
      </trkpt>
      <trkpt lat="43.80649" lon="7.25107">
        <ele>733</ele>
        <time>2016-05-15T12:24:20.000Z</time>
      </trkpt>
      <trkpt lat="43.80643" lon="7.25109">
        <ele>732</ele>
        <time>2016-05-15T12:24:24.000Z</time>
      </trkpt>
      <trkpt lat="43.80631" lon="7.25115">
        <ele>731</ele>
        <time>2016-05-15T12:24:29.000Z</time>
      </trkpt>
      <trkpt lat="43.80628" lon="7.25116">
        <ele>731</ele>
        <time>2016-05-15T12:24:30.000Z</time>
      </trkpt>
      <trkpt lat="43.80609" lon="7.2512">
        <ele>730</ele>
        <time>2016-05-15T12:24:35.000Z</time>
      </trkpt>
      <trkpt lat="43.80576" lon="7.25122">
        <ele>733</ele>
        <time>2016-05-15T12:24:42.000Z</time>
      </trkpt>
      <trkpt lat="43.80548" lon="7.25123">
        <ele>733</ele>
        <time>2016-05-15T12:24:47.000Z</time>
      </trkpt>
      <trkpt lat="43.80541" lon="7.25124">
        <ele>733</ele>
        <time>2016-05-15T12:24:48.000Z</time>
      </trkpt>
      <trkpt lat="43.80529" lon="7.25125">
        <ele>733</ele>
        <time>2016-05-15T12:24:50.000Z</time>
      </trkpt>
      <trkpt lat="43.80524" lon="7.25127">
        <ele>733</ele>
        <time>2016-05-15T12:24:51.000Z</time>
      </trkpt>
      <trkpt lat="43.8052" lon="7.25129">
        <ele>732</ele>
        <time>2016-05-15T12:24:52.000Z</time>
      </trkpt>
      <trkpt lat="43.80517" lon="7.2513">
        <ele>732</ele>
        <time>2016-05-15T12:24:53.000Z</time>
      </trkpt>
      <trkpt lat="43.80497" lon="7.25135">
        <ele>734</ele>
        <time>2016-05-15T12:24:59.000Z</time>
      </trkpt>
      <trkpt lat="43.80482" lon="7.2514">
        <ele>734</ele>
        <time>2016-05-15T12:25:03.000Z</time>
      </trkpt>
      <trkpt lat="43.80466" lon="7.25147">
        <ele>734</ele>
        <time>2016-05-15T12:25:09.000Z</time>
      </trkpt>
      <trkpt lat="43.80441" lon="7.25155">
        <ele>734</ele>
        <time>2016-05-15T12:25:16.000Z</time>
      </trkpt>
      <trkpt lat="43.80437" lon="7.25157">
        <ele>733</ele>
        <time>2016-05-15T12:25:17.000Z</time>
      </trkpt>
      <trkpt lat="43.80416" lon="7.25163">
        <ele>728</ele>
        <time>2016-05-15T12:25:21.000Z</time>
      </trkpt>
      <trkpt lat="43.80397" lon="7.2517">
        <ele>716</ele>
        <time>2016-05-15T12:25:24.000Z</time>
      </trkpt>
      <trkpt lat="43.80391" lon="7.2517">
        <ele>714</ele>
        <time>2016-05-15T12:25:25.000Z</time>
      </trkpt>
      <trkpt lat="43.80383" lon="7.25171">
        <ele>712</ele>
        <time>2016-05-15T12:25:27.000Z</time>
      </trkpt>
      <trkpt lat="43.80378" lon="7.25172">
        <ele>712</ele>
        <time>2016-05-15T12:25:28.000Z</time>
      </trkpt>
      <trkpt lat="43.80372" lon="7.25172">
        <ele>711</ele>
        <time>2016-05-15T12:25:29.000Z</time>
      </trkpt>
      <trkpt lat="43.80365" lon="7.25173">
        <ele>711</ele>
        <time>2016-05-15T12:25:30.000Z</time>
      </trkpt>
      <trkpt lat="43.80358" lon="7.25173">
        <ele>711</ele>
        <time>2016-05-15T12:25:31.000Z</time>
      </trkpt>
      <trkpt lat="43.8035" lon="7.25172">
        <ele>712</ele>
        <time>2016-05-15T12:25:32.000Z</time>
      </trkpt>
      <trkpt lat="43.80342" lon="7.25171">
        <ele>714</ele>
        <time>2016-05-15T12:25:33.000Z</time>
      </trkpt>
      <trkpt lat="43.80326" lon="7.2517">
        <ele>711</ele>
        <time>2016-05-15T12:25:35.000Z</time>
      </trkpt>
      <trkpt lat="43.8031" lon="7.25164">
        <ele>720</ele>
        <time>2016-05-15T12:25:37.000Z</time>
      </trkpt>
      <trkpt lat="43.80297" lon="7.25156">
        <ele>719</ele>
        <time>2016-05-15T12:25:39.000Z</time>
      </trkpt>
      <trkpt lat="43.80284" lon="7.25149">
        <ele>718</ele>
        <time>2016-05-15T12:25:41.000Z</time>
      </trkpt>
      <trkpt lat="43.80273" lon="7.2514">
        <ele>717</ele>
        <time>2016-05-15T12:25:43.000Z</time>
      </trkpt>
      <trkpt lat="43.80269" lon="7.25136">
        <ele>718</ele>
        <time>2016-05-15T12:25:44.000Z</time>
      </trkpt>
      <trkpt lat="43.80268" lon="7.25132">
        <ele>719</ele>
        <time>2016-05-15T12:25:45.000Z</time>
      </trkpt>
      <trkpt lat="43.80267" lon="7.2513">
        <ele>719</ele>
        <time>2016-05-15T12:25:46.000Z</time>
      </trkpt>
      <trkpt lat="43.80265" lon="7.25127">
        <ele>719</ele>
        <time>2016-05-15T12:25:48.000Z</time>
      </trkpt>
      <trkpt lat="43.80259" lon="7.25121">
        <ele>720</ele>
        <time>2016-05-15T12:25:51.000Z</time>
      </trkpt>
      <trkpt lat="43.80253" lon="7.25115">
        <ele>721</ele>
        <time>2016-05-15T12:25:53.000Z</time>
      </trkpt>
      <trkpt lat="43.80233" lon="7.25094">
        <ele>708</ele>
        <time>2016-05-15T12:25:58.000Z</time>
      </trkpt>
      <trkpt lat="43.80216" lon="7.25068">
        <ele>716</ele>
        <time>2016-05-15T12:26:03.000Z</time>
      </trkpt>
      <trkpt lat="43.80213" lon="7.25062">
        <ele>716</ele>
        <time>2016-05-15T12:26:04.000Z</time>
      </trkpt>
      <trkpt lat="43.80199" lon="7.25025">
        <ele>716</ele>
        <time>2016-05-15T12:26:11.000Z</time>
      </trkpt>
      <trkpt lat="43.8019" lon="7.25016">
        <ele>714</ele>
        <time>2016-05-15T12:26:14.000Z</time>
      </trkpt>
      <trkpt lat="43.80186" lon="7.2501">
        <ele>713</ele>
        <time>2016-05-15T12:26:15.000Z</time>
      </trkpt>
      <trkpt lat="43.80178" lon="7.24999">
        <ele>717</ele>
        <time>2016-05-15T12:26:17.000Z</time>
      </trkpt>
      <trkpt lat="43.80172" lon="7.24993">
        <ele>715</ele>
        <time>2016-05-15T12:26:18.000Z</time>
      </trkpt>
      <trkpt lat="43.80168" lon="7.24988">
        <ele>717</ele>
        <time>2016-05-15T12:26:19.000Z</time>
      </trkpt>
      <trkpt lat="43.80164" lon="7.24984">
        <ele>705</ele>
        <time>2016-05-15T12:26:20.000Z</time>
      </trkpt>
      <trkpt lat="43.80162" lon="7.24982">
        <ele>704</ele>
        <time>2016-05-15T12:26:21.000Z</time>
      </trkpt>
      <trkpt lat="43.80161" lon="7.24981">
        <ele>704</ele>
        <time>2016-05-15T12:26:22.000Z</time>
      </trkpt>
      <trkpt lat="43.80158" lon="7.24981">
        <ele>704</ele>
        <time>2016-05-15T12:26:23.000Z</time>
      </trkpt>
      <trkpt lat="43.80155" lon="7.24981">
        <ele>704</ele>
        <time>2016-05-15T12:26:24.000Z</time>
      </trkpt>
      <trkpt lat="43.80147" lon="7.24978">
        <ele>703</ele>
        <time>2016-05-15T12:26:26.000Z</time>
      </trkpt>
      <trkpt lat="43.80142" lon="7.2498">
        <ele>702</ele>
        <time>2016-05-15T12:26:27.000Z</time>
      </trkpt>
      <trkpt lat="43.80138" lon="7.2498">
        <ele>702</ele>
        <time>2016-05-15T12:26:28.000Z</time>
      </trkpt>
      <trkpt lat="43.80134" lon="7.24979">
        <ele>701</ele>
        <time>2016-05-15T12:26:29.000Z</time>
      </trkpt>
      <trkpt lat="43.80121" lon="7.24968">
        <ele>699</ele>
        <time>2016-05-15T12:26:33.000Z</time>
      </trkpt>
      <trkpt lat="43.80119" lon="7.24963">
        <ele>700</ele>
        <time>2016-05-15T12:26:35.000Z</time>
      </trkpt>
      <trkpt lat="43.80114" lon="7.24956">
        <ele>700</ele>
        <time>2016-05-15T12:26:37.000Z</time>
      </trkpt>
      <trkpt lat="43.80109" lon="7.24946">
        <ele>699</ele>
        <time>2016-05-15T12:26:39.000Z</time>
      </trkpt>
      <trkpt lat="43.801" lon="7.24928">
        <ele>698</ele>
        <time>2016-05-15T12:26:42.000Z</time>
      </trkpt>
      <trkpt lat="43.80096" lon="7.24923">
        <ele>697</ele>
        <time>2016-05-15T12:26:43.000Z</time>
      </trkpt>
      <trkpt lat="43.80087" lon="7.24908">
        <ele>700</ele>
        <time>2016-05-15T12:26:46.000Z</time>
      </trkpt>
      <trkpt lat="43.80084" lon="7.24899">
        <ele>704</ele>
        <time>2016-05-15T12:26:48.000Z</time>
      </trkpt>
      <trkpt lat="43.80083" lon="7.24893">
        <ele>683</ele>
        <time>2016-05-15T12:26:49.000Z</time>
      </trkpt>
      <trkpt lat="43.80077" lon="7.2488">
        <ele>682</ele>
        <time>2016-05-15T12:26:51.000Z</time>
      </trkpt>
      <trkpt lat="43.80071" lon="7.24853">
        <ele>685</ele>
        <time>2016-05-15T12:26:54.000Z</time>
      </trkpt>
      <trkpt lat="43.80071" lon="7.24845">
        <ele>687</ele>
        <time>2016-05-15T12:26:55.000Z</time>
      </trkpt>
      <trkpt lat="43.80071" lon="7.24838">
        <ele>689</ele>
        <time>2016-05-15T12:26:56.000Z</time>
      </trkpt>
      <trkpt lat="43.80074" lon="7.24825">
        <ele>692</ele>
        <time>2016-05-15T12:26:58.000Z</time>
      </trkpt>
      <trkpt lat="43.80075" lon="7.24819">
        <ele>691</ele>
        <time>2016-05-15T12:26:59.000Z</time>
      </trkpt>
      <trkpt lat="43.80075" lon="7.24812">
        <ele>689</ele>
        <time>2016-05-15T12:27:00.000Z</time>
      </trkpt>
      <trkpt lat="43.80072" lon="7.248">
        <ele>687</ele>
        <time>2016-05-15T12:27:02.000Z</time>
      </trkpt>
      <trkpt lat="43.80071" lon="7.24794">
        <ele>687</ele>
        <time>2016-05-15T12:27:03.000Z</time>
      </trkpt>
      <trkpt lat="43.80067" lon="7.24776">
        <ele>688</ele>
        <time>2016-05-15T12:27:06.000Z</time>
      </trkpt>
      <trkpt lat="43.80066" lon="7.24769">
        <ele>689</ele>
        <time>2016-05-15T12:27:07.000Z</time>
      </trkpt>
      <trkpt lat="43.80066" lon="7.24764">
        <ele>690</ele>
        <time>2016-05-15T12:27:08.000Z</time>
      </trkpt>
      <trkpt lat="43.80066" lon="7.2476">
        <ele>691</ele>
        <time>2016-05-15T12:27:09.000Z</time>
      </trkpt>
      <trkpt lat="43.80065" lon="7.24758">
        <ele>691</ele>
        <time>2016-05-15T12:27:10.000Z</time>
      </trkpt>
      <trkpt lat="43.80061" lon="7.2475">
        <ele>696</ele>
        <time>2016-05-15T12:27:12.000Z</time>
      </trkpt>
      <trkpt lat="43.80059" lon="7.24738">
        <ele>695</ele>
        <time>2016-05-15T12:27:14.000Z</time>
      </trkpt>
      <trkpt lat="43.80056" lon="7.24724">
        <ele>694</ele>
        <time>2016-05-15T12:27:16.000Z</time>
      </trkpt>
      <trkpt lat="43.80051" lon="7.24711">
        <ele>694</ele>
        <time>2016-05-15T12:27:18.000Z</time>
      </trkpt>
      <trkpt lat="43.80049" lon="7.24706">
        <ele>694</ele>
        <time>2016-05-15T12:27:19.000Z</time>
      </trkpt>
      <trkpt lat="43.80044" lon="7.247">
        <ele>694</ele>
        <time>2016-05-15T12:27:20.000Z</time>
      </trkpt>
      <trkpt lat="43.80041" lon="7.24693">
        <ele>694</ele>
        <time>2016-05-15T12:27:21.000Z</time>
      </trkpt>
      <trkpt lat="43.80038" lon="7.2468">
        <ele>694</ele>
        <time>2016-05-15T12:27:23.000Z</time>
      </trkpt>
      <trkpt lat="43.80037" lon="7.24676">
        <ele>694</ele>
        <time>2016-05-15T12:27:24.000Z</time>
      </trkpt>
      <trkpt lat="43.80035" lon="7.24673">
        <ele>694</ele>
        <time>2016-05-15T12:27:25.000Z</time>
      </trkpt>
      <trkpt lat="43.80028" lon="7.24672">
        <ele>693</ele>
        <time>2016-05-15T12:27:27.000Z</time>
      </trkpt>
      <trkpt lat="43.80022" lon="7.24678">
        <ele>692</ele>
        <time>2016-05-15T12:27:30.000Z</time>
      </trkpt>
      <trkpt lat="43.80016" lon="7.2468">
        <ele>691</ele>
        <time>2016-05-15T12:27:36.000Z</time>
      </trkpt>
      <trkpt lat="43.80014" lon="7.24678">
        <ele>691</ele>
        <time>2016-05-15T12:27:38.000Z</time>
      </trkpt>
      <trkpt lat="43.8001" lon="7.24676">
        <ele>690</ele>
        <time>2016-05-15T12:27:43.000Z</time>
      </trkpt>
      <trkpt lat="43.80008" lon="7.24677">
        <ele>690</ele>
        <time>2016-05-15T12:27:45.000Z</time>
      </trkpt>
      <trkpt lat="43.80006" lon="7.24678">
        <ele>690</ele>
        <time>2016-05-15T12:27:48.000Z</time>
      </trkpt>
      <trkpt lat="43.80004" lon="7.24681">
        <ele>690</ele>
        <time>2016-05-15T12:27:52.000Z</time>
      </trkpt>
      <trkpt lat="43.80002" lon="7.24682">
        <ele>690</ele>
        <time>2016-05-15T12:27:55.000Z</time>
      </trkpt>
      <trkpt lat="43.79998" lon="7.24686">
        <ele>686</ele>
        <time>2016-05-15T12:28:01.000Z</time>
      </trkpt>
      <trkpt lat="43.79997" lon="7.24687">
        <ele>685</ele>
        <time>2016-05-15T12:28:02.000Z</time>
      </trkpt>
      <trkpt lat="43.79993" lon="7.24688">
        <ele>685</ele>
        <time>2016-05-15T12:28:09.000Z</time>
      </trkpt>
      <trkpt lat="43.79992" lon="7.24688">
        <ele>685</ele>
        <time>2016-05-15T12:28:10.000Z</time>
      </trkpt>
      <trkpt lat="43.79986" lon="7.24688">
        <ele>685</ele>
        <time>2016-05-15T12:28:18.000Z</time>
      </trkpt>
      <trkpt lat="43.79982" lon="7.24688">
        <ele>685</ele>
        <time>2016-05-15T12:28:26.000Z</time>
      </trkpt>
      <trkpt lat="43.79981" lon="7.24688">
        <ele>685</ele>
        <time>2016-05-15T12:28:27.000Z</time>
      </trkpt>
      <trkpt lat="43.7998" lon="7.24689">
        <ele>685</ele>
        <time>2016-05-15T12:28:30.000Z</time>
      </trkpt>
      <trkpt lat="43.79977" lon="7.24689">
        <ele>685</ele>
        <time>2016-05-15T12:28:32.000Z</time>
      </trkpt>
      <trkpt lat="43.79971" lon="7.2469">
        <ele>686</ele>
        <time>2016-05-15T12:28:37.000Z</time>
      </trkpt>
      <trkpt lat="43.79968" lon="7.24691">
        <ele>686</ele>
        <time>2016-05-15T12:28:39.000Z</time>
      </trkpt>
      <trkpt lat="43.79964" lon="7.24691">
        <ele>686</ele>
        <time>2016-05-15T12:28:41.000Z</time>
      </trkpt>
      <trkpt lat="43.79958" lon="7.24694">
        <ele>686</ele>
        <time>2016-05-15T12:28:46.000Z</time>
      </trkpt>
      <trkpt lat="43.79952" lon="7.24696">
        <ele>686</ele>
        <time>2016-05-15T12:28:50.000Z</time>
      </trkpt>
      <trkpt lat="43.79949" lon="7.24697">
        <ele>687</ele>
        <time>2016-05-15T12:28:52.000Z</time>
      </trkpt>
      <trkpt lat="43.79947" lon="7.24697">
        <ele>687</ele>
        <time>2016-05-15T12:28:54.000Z</time>
      </trkpt>
      <trkpt lat="43.79941" lon="7.24698">
        <ele>687</ele>
        <time>2016-05-15T12:28:59.000Z</time>
      </trkpt>
      <trkpt lat="43.7994" lon="7.24697">
        <ele>688</ele>
        <time>2016-05-15T12:29:03.000Z</time>
      </trkpt>
      <trkpt lat="43.7994" lon="7.24697">
        <ele>688</ele>
        <time>2016-05-15T12:29:04.000Z</time>
      </trkpt>
      <trkpt lat="43.79936" lon="7.24699">
        <ele>688</ele>
        <time>2016-05-15T12:29:09.000Z</time>
      </trkpt>
      <trkpt lat="43.7993" lon="7.247">
        <ele>688</ele>
        <time>2016-05-15T12:29:15.000Z</time>
      </trkpt>
      <trkpt lat="43.79926" lon="7.24701">
        <ele>688</ele>
        <time>2016-05-15T12:29:19.000Z</time>
      </trkpt>
      <trkpt lat="43.79923" lon="7.24702">
        <ele>688</ele>
        <time>2016-05-15T12:29:22.000Z</time>
      </trkpt>
      <trkpt lat="43.79921" lon="7.24703">
        <ele>688</ele>
        <time>2016-05-15T12:29:25.000Z</time>
      </trkpt>
      <trkpt lat="43.79917" lon="7.24704">
        <ele>688</ele>
        <time>2016-05-15T12:29:29.000Z</time>
      </trkpt>
      <trkpt lat="43.79911" lon="7.24706">
        <ele>698</ele>
        <time>2016-05-15T12:29:35.000Z</time>
      </trkpt>
      <trkpt lat="43.7991" lon="7.24706">
        <ele>699</ele>
        <time>2016-05-15T12:29:37.000Z</time>
      </trkpt>
      <trkpt lat="43.79903" lon="7.24708">
        <ele>699</ele>
        <time>2016-05-15T12:29:43.000Z</time>
      </trkpt>
      <trkpt lat="43.79895" lon="7.24711">
        <ele>699</ele>
        <time>2016-05-15T12:29:51.000Z</time>
      </trkpt>
      <trkpt lat="43.79893" lon="7.24713">
        <ele>699</ele>
        <time>2016-05-15T12:29:54.000Z</time>
      </trkpt>
      <trkpt lat="43.79888" lon="7.24714">
        <ele>699</ele>
        <time>2016-05-15T12:29:59.000Z</time>
      </trkpt>
      <trkpt lat="43.79887" lon="7.24714">
        <ele>699</ele>
        <time>2016-05-15T12:30:00.000Z</time>
      </trkpt>
      <trkpt lat="43.7988" lon="7.24715">
        <ele>700</ele>
        <time>2016-05-15T12:30:07.000Z</time>
      </trkpt>
      <trkpt lat="43.79873" lon="7.24718">
        <ele>701</ele>
        <time>2016-05-15T12:30:15.000Z</time>
      </trkpt>
      <trkpt lat="43.79871" lon="7.24718">
        <ele>701</ele>
        <time>2016-05-15T12:30:17.000Z</time>
      </trkpt>
      <trkpt lat="43.79867" lon="7.24719">
        <ele>701</ele>
        <time>2016-05-15T12:30:22.000Z</time>
      </trkpt>
      <trkpt lat="43.79868" lon="7.24719">
        <ele>701</ele>
        <time>2016-05-15T12:30:27.000Z</time>
      </trkpt>
      <trkpt lat="43.79868" lon="7.24719">
        <ele>701</ele>
        <time>2016-05-15T12:30:28.000Z</time>
      </trkpt>
      <trkpt lat="43.79866" lon="7.2472">
        <ele>701</ele>
        <time>2016-05-15T12:30:36.000Z</time>
      </trkpt>
      <trkpt lat="43.79858" lon="7.24727">
        <ele>701</ele>
        <time>2016-05-15T12:30:42.000Z</time>
      </trkpt>
      <trkpt lat="43.79846" lon="7.24734">
        <ele>702</ele>
        <time>2016-05-15T12:30:49.000Z</time>
      </trkpt>
      <trkpt lat="43.79845" lon="7.24734">
        <ele>702</ele>
        <time>2016-05-15T12:30:50.000Z</time>
      </trkpt>
      <trkpt lat="43.79838" lon="7.2474">
        <ele>701</ele>
        <time>2016-05-15T12:30:55.000Z</time>
      </trkpt>
      <trkpt lat="43.79832" lon="7.24744">
        <ele>705</ele>
        <time>2016-05-15T12:30:59.000Z</time>
      </trkpt>
      <trkpt lat="43.79825" lon="7.2475">
        <ele>707</ele>
        <time>2016-05-15T12:31:04.000Z</time>
      </trkpt>
      <trkpt lat="43.79822" lon="7.24753">
        <ele>699</ele>
        <time>2016-05-15T12:31:07.000Z</time>
      </trkpt>
      <trkpt lat="43.7982" lon="7.24754">
        <ele>698</ele>
        <time>2016-05-15T12:31:12.000Z</time>
      </trkpt>
      <trkpt lat="43.79819" lon="7.24755">
        <ele>698</ele>
        <time>2016-05-15T12:31:14.000Z</time>
      </trkpt>
      <trkpt lat="43.79815" lon="7.24756">
        <ele>698</ele>
        <time>2016-05-15T12:31:19.000Z</time>
      </trkpt>
      <trkpt lat="43.79812" lon="7.24755">
        <ele>698</ele>
        <time>2016-05-15T12:31:24.000Z</time>
      </trkpt>
      <trkpt lat="43.79811" lon="7.24756">
        <ele>698</ele>
        <time>2016-05-15T12:31:27.000Z</time>
      </trkpt>
      <trkpt lat="43.79811" lon="7.24756">
        <ele>698</ele>
        <time>2016-05-15T12:31:30.000Z</time>
      </trkpt>
      <trkpt lat="43.79812" lon="7.24756">
        <ele>698</ele>
        <time>2016-05-15T12:31:35.000Z</time>
      </trkpt>
      <trkpt lat="43.79808" lon="7.24757">
        <ele>698</ele>
        <time>2016-05-15T12:31:43.000Z</time>
      </trkpt>
      <trkpt lat="43.79797" lon="7.24764">
        <ele>698</ele>
        <time>2016-05-15T12:31:49.000Z</time>
      </trkpt>
      <trkpt lat="43.7978" lon="7.24778">
        <ele>698</ele>
        <time>2016-05-15T12:31:56.000Z</time>
      </trkpt>
      <trkpt lat="43.79758" lon="7.24788">
        <ele>698</ele>
        <time>2016-05-15T12:32:02.000Z</time>
      </trkpt>
      <trkpt lat="43.79729" lon="7.24803">
        <ele>708</ele>
        <time>2016-05-15T12:32:07.000Z</time>
      </trkpt>
      <trkpt lat="43.79716" lon="7.24814">
        <ele>708</ele>
        <time>2016-05-15T12:32:09.000Z</time>
      </trkpt>
      <trkpt lat="43.79709" lon="7.24821">
        <ele>709</ele>
        <time>2016-05-15T12:32:10.000Z</time>
      </trkpt>
      <trkpt lat="43.79703" lon="7.24828">
        <ele>709</ele>
        <time>2016-05-15T12:32:11.000Z</time>
      </trkpt>
      <trkpt lat="43.79696" lon="7.24836">
        <ele>691</ele>
        <time>2016-05-15T12:32:12.000Z</time>
      </trkpt>
      <trkpt lat="43.79677" lon="7.2486">
        <ele>690</ele>
        <time>2016-05-15T12:32:15.000Z</time>
      </trkpt>
      <trkpt lat="43.79662" lon="7.24875">
        <ele>694</ele>
        <time>2016-05-15T12:32:17.000Z</time>
      </trkpt>
      <trkpt lat="43.79654" lon="7.24884">
        <ele>692</ele>
        <time>2016-05-15T12:32:18.000Z</time>
      </trkpt>
      <trkpt lat="43.79647" lon="7.24891">
        <ele>690</ele>
        <time>2016-05-15T12:32:19.000Z</time>
      </trkpt>
      <trkpt lat="43.79639" lon="7.24896">
        <ele>690</ele>
        <time>2016-05-15T12:32:20.000Z</time>
      </trkpt>
      <trkpt lat="43.79632" lon="7.249">
        <ele>690</ele>
        <time>2016-05-15T12:32:21.000Z</time>
      </trkpt>
      <trkpt lat="43.79624" lon="7.24902">
        <ele>690</ele>
        <time>2016-05-15T12:32:22.000Z</time>
      </trkpt>
      <trkpt lat="43.79606" lon="7.24903">
        <ele>689</ele>
        <time>2016-05-15T12:32:24.000Z</time>
      </trkpt>
      <trkpt lat="43.79596" lon="7.24904">
        <ele>688</ele>
        <time>2016-05-15T12:32:25.000Z</time>
      </trkpt>
      <trkpt lat="43.79587" lon="7.24904">
        <ele>686</ele>
        <time>2016-05-15T12:32:26.000Z</time>
      </trkpt>
      <trkpt lat="43.79578" lon="7.24903">
        <ele>686</ele>
        <time>2016-05-15T12:32:27.000Z</time>
      </trkpt>
      <trkpt lat="43.7956" lon="7.24902">
        <ele>687</ele>
        <time>2016-05-15T12:32:29.000Z</time>
      </trkpt>
      <trkpt lat="43.79533" lon="7.24901">
        <ele>686</ele>
        <time>2016-05-15T12:32:32.000Z</time>
      </trkpt>
      <trkpt lat="43.79517" lon="7.24898">
        <ele>684</ele>
        <time>2016-05-15T12:32:34.000Z</time>
      </trkpt>
      <trkpt lat="43.795" lon="7.24895">
        <ele>682</ele>
        <time>2016-05-15T12:32:36.000Z</time>
      </trkpt>
      <trkpt lat="43.79477" lon="7.24887">
        <ele>676</ele>
        <time>2016-05-15T12:32:39.000Z</time>
      </trkpt>
      <trkpt lat="43.79455" lon="7.24877">
        <ele>676</ele>
        <time>2016-05-15T12:32:42.000Z</time>
      </trkpt>
      <trkpt lat="43.79433" lon="7.24867">
        <ele>677</ele>
        <time>2016-05-15T12:32:45.000Z</time>
      </trkpt>
      <trkpt lat="43.79412" lon="7.24855">
        <ele>671</ele>
        <time>2016-05-15T12:32:48.000Z</time>
      </trkpt>
      <trkpt lat="43.79406" lon="7.24852">
        <ele>671</ele>
        <time>2016-05-15T12:32:49.000Z</time>
      </trkpt>
      <trkpt lat="43.79393" lon="7.24847">
        <ele>669</ele>
        <time>2016-05-15T12:32:51.000Z</time>
      </trkpt>
      <trkpt lat="43.79382" lon="7.24842">
        <ele>668</ele>
        <time>2016-05-15T12:32:53.000Z</time>
      </trkpt>
      <trkpt lat="43.79376" lon="7.24841">
        <ele>667</ele>
        <time>2016-05-15T12:32:54.000Z</time>
      </trkpt>
      <trkpt lat="43.7936" lon="7.24837">
        <ele>666</ele>
        <time>2016-05-15T12:32:58.000Z</time>
      </trkpt>
      <trkpt lat="43.79347" lon="7.24834">
        <ele>666</ele>
        <time>2016-05-15T12:33:02.000Z</time>
      </trkpt>
      <trkpt lat="43.79334" lon="7.24834">
        <ele>669</ele>
        <time>2016-05-15T12:33:06.000Z</time>
      </trkpt>
      <trkpt lat="43.79332" lon="7.2483">
        <ele>669</ele>
        <time>2016-05-15T12:33:07.000Z</time>
      </trkpt>
      <trkpt lat="43.79329" lon="7.24828">
        <ele>669</ele>
        <time>2016-05-15T12:33:09.000Z</time>
      </trkpt>
      <trkpt lat="43.79327" lon="7.24827">
        <ele>669</ele>
        <time>2016-05-15T12:33:10.000Z</time>
      </trkpt>
      <trkpt lat="43.79325" lon="7.24826">
        <ele>668</ele>
        <time>2016-05-15T12:33:11.000Z</time>
      </trkpt>
      <trkpt lat="43.79319" lon="7.24824">
        <ele>668</ele>
        <time>2016-05-15T12:33:13.000Z</time>
      </trkpt>
      <trkpt lat="43.79311" lon="7.2482">
        <ele>668</ele>
        <time>2016-05-15T12:33:15.000Z</time>
      </trkpt>
      <trkpt lat="43.79303" lon="7.24814">
        <ele>667</ele>
        <time>2016-05-15T12:33:17.000Z</time>
      </trkpt>
      <trkpt lat="43.79296" lon="7.24805">
        <ele>667</ele>
        <time>2016-05-15T12:33:19.000Z</time>
      </trkpt>
      <trkpt lat="43.79293" lon="7.248">
        <ele>667</ele>
        <time>2016-05-15T12:33:20.000Z</time>
      </trkpt>
      <trkpt lat="43.79287" lon="7.24795">
        <ele>666</ele>
        <time>2016-05-15T12:33:23.000Z</time>
      </trkpt>
      <trkpt lat="43.79279" lon="7.24807">
        <ele>665</ele>
        <time>2016-05-15T12:33:26.000Z</time>
      </trkpt>
      <trkpt lat="43.79275" lon="7.24813">
        <ele>665</ele>
        <time>2016-05-15T12:33:27.000Z</time>
      </trkpt>
      <trkpt lat="43.7927" lon="7.24818">
        <ele>664</ele>
        <time>2016-05-15T12:33:28.000Z</time>
      </trkpt>
      <trkpt lat="43.79259" lon="7.24825">
        <ele>663</ele>
        <time>2016-05-15T12:33:30.000Z</time>
      </trkpt>
      <trkpt lat="43.79248" lon="7.24829">
        <ele>661</ele>
        <time>2016-05-15T12:33:32.000Z</time>
      </trkpt>
      <trkpt lat="43.7924" lon="7.2483">
        <ele>661</ele>
        <time>2016-05-15T12:33:34.000Z</time>
      </trkpt>
      <trkpt lat="43.79239" lon="7.2483">
        <ele>661</ele>
        <time>2016-05-15T12:33:35.000Z</time>
      </trkpt>
      <trkpt lat="43.79239" lon="7.24832">
        <ele>661</ele>
        <time>2016-05-15T12:33:38.000Z</time>
      </trkpt>
      <trkpt lat="43.79236" lon="7.2484">
        <ele>660</ele>
        <time>2016-05-15T12:33:41.000Z</time>
      </trkpt>
      <trkpt lat="43.79234" lon="7.24843">
        <ele>660</ele>
        <time>2016-05-15T12:33:42.000Z</time>
      </trkpt>
      <trkpt lat="43.79232" lon="7.24845">
        <ele>660</ele>
        <time>2016-05-15T12:33:43.000Z</time>
      </trkpt>
      <trkpt lat="43.7923" lon="7.24848">
        <ele>660</ele>
        <time>2016-05-15T12:33:46.000Z</time>
      </trkpt>
      <trkpt lat="43.79229" lon="7.24852">
        <ele>660</ele>
        <time>2016-05-15T12:33:58.000Z</time>
      </trkpt>
      <trkpt lat="43.79221" lon="7.24862">
        <ele>660</ele>
        <time>2016-05-15T12:34:03.000Z</time>
      </trkpt>
      <trkpt lat="43.79205" lon="7.24878">
        <ele>660</ele>
        <time>2016-05-15T12:34:11.000Z</time>
      </trkpt>
      <trkpt lat="43.79202" lon="7.24882">
        <ele>660</ele>
        <time>2016-05-15T12:34:13.000Z</time>
      </trkpt>
      <trkpt lat="43.79201" lon="7.24885">
        <ele>660</ele>
        <time>2016-05-15T12:34:14.000Z</time>
      </trkpt>
      <trkpt lat="43.79204" lon="7.24889">
        <ele>659</ele>
        <time>2016-05-15T12:34:16.000Z</time>
      </trkpt>
      <trkpt lat="43.79206" lon="7.24901">
        <ele>659</ele>
        <time>2016-05-15T12:34:20.000Z</time>
      </trkpt>
      <trkpt lat="43.79205" lon="7.2491">
        <ele>658</ele>
        <time>2016-05-15T12:34:23.000Z</time>
      </trkpt>
      <trkpt lat="43.79203" lon="7.24917">
        <ele>649</ele>
        <time>2016-05-15T12:34:25.000Z</time>
      </trkpt>
      <trkpt lat="43.79201" lon="7.2492">
        <ele>649</ele>
        <time>2016-05-15T12:34:26.000Z</time>
      </trkpt>
      <trkpt lat="43.792" lon="7.24923">
        <ele>649</ele>
        <time>2016-05-15T12:34:27.000Z</time>
      </trkpt>
      <trkpt lat="43.792" lon="7.24927">
        <ele>648</ele>
        <time>2016-05-15T12:34:29.000Z</time>
      </trkpt>
      <trkpt lat="43.79202" lon="7.24929">
        <ele>648</ele>
        <time>2016-05-15T12:34:30.000Z</time>
      </trkpt>
      <trkpt lat="43.79206" lon="7.24931">
        <ele>647</ele>
        <time>2016-05-15T12:34:33.000Z</time>
      </trkpt>
      <trkpt lat="43.79209" lon="7.24931">
        <ele>646</ele>
        <time>2016-05-15T12:34:34.000Z</time>
      </trkpt>
      <trkpt lat="43.79219" lon="7.24929">
        <ele>645</ele>
        <time>2016-05-15T12:34:38.000Z</time>
      </trkpt>
      <trkpt lat="43.7922" lon="7.24929">
        <ele>645</ele>
        <time>2016-05-15T12:34:39.000Z</time>
      </trkpt>
      <trkpt lat="43.7922" lon="7.24928">
        <ele>645</ele>
        <time>2016-05-15T12:34:40.000Z</time>
      </trkpt>
      <trkpt lat="43.7922" lon="7.24929">
        <ele>645</ele>
        <time>2016-05-15T12:34:43.000Z</time>
      </trkpt>
      <trkpt lat="43.7922" lon="7.24933">
        <ele>645</ele>
        <time>2016-05-15T12:34:47.000Z</time>
      </trkpt>
      <trkpt lat="43.79219" lon="7.24935">
        <ele>645</ele>
        <time>2016-05-15T12:34:48.000Z</time>
      </trkpt>
      <trkpt lat="43.79217" lon="7.24937">
        <ele>645</ele>
        <time>2016-05-15T12:34:53.000Z</time>
      </trkpt>
      <trkpt lat="43.79217" lon="7.24938">
        <ele>645</ele>
        <time>2016-05-15T12:34:56.000Z</time>
      </trkpt>
      <trkpt lat="43.79218" lon="7.24939">
        <ele>645</ele>
        <time>2016-05-15T12:34:57.000Z</time>
      </trkpt>
      <trkpt lat="43.79218" lon="7.24941">
        <ele>644</ele>
        <time>2016-05-15T12:34:58.000Z</time>
      </trkpt>
      <trkpt lat="43.79217" lon="7.24944">
        <ele>644</ele>
        <time>2016-05-15T12:35:00.000Z</time>
      </trkpt>
      <trkpt lat="43.79217" lon="7.24944">
        <ele>644</ele>
        <time>2016-05-15T12:35:02.000Z</time>
      </trkpt>
      <trkpt lat="43.79216" lon="7.24945">
        <ele>644</ele>
        <time>2016-05-15T12:35:04.000Z</time>
      </trkpt>
      <trkpt lat="43.79218" lon="7.24945">
        <ele>644</ele>
        <time>2016-05-15T12:35:07.000Z</time>
      </trkpt>
      <trkpt lat="43.79228" lon="7.24943">
        <ele>643</ele>
        <time>2016-05-15T12:35:11.000Z</time>
      </trkpt>
      <trkpt lat="43.79235" lon="7.24941">
        <ele>643</ele>
        <time>2016-05-15T12:35:15.000Z</time>
      </trkpt>
      <trkpt lat="43.79235" lon="7.24941">
        <ele>643</ele>
        <time>2016-05-15T12:35:16.000Z</time>
      </trkpt>
      <trkpt lat="43.79236" lon="7.24942">
        <ele>643</ele>
        <time>2016-05-15T12:35:20.000Z</time>
      </trkpt>
      <trkpt lat="43.79237" lon="7.24943">
        <ele>643</ele>
        <time>2016-05-15T12:35:21.000Z</time>
      </trkpt>
      <trkpt lat="43.79239" lon="7.24942">
        <ele>643</ele>
        <time>2016-05-15T12:35:24.000Z</time>
      </trkpt>
      <trkpt lat="43.79238" lon="7.24942">
        <ele>643</ele>
        <time>2016-05-15T12:35:26.000Z</time>
      </trkpt>
      <trkpt lat="43.7924" lon="7.24943">
        <ele>642</ele>
        <time>2016-05-15T12:35:28.000Z</time>
      </trkpt>
      <trkpt lat="43.79243" lon="7.24945">
        <ele>642</ele>
        <time>2016-05-15T12:35:29.000Z</time>
      </trkpt>
      <trkpt lat="43.79245" lon="7.24946">
        <ele>642</ele>
        <time>2016-05-15T12:35:30.000Z</time>
      </trkpt>
      <trkpt lat="43.7925" lon="7.24948">
        <ele>641</ele>
        <time>2016-05-15T12:35:32.000Z</time>
      </trkpt>
      <trkpt lat="43.79252" lon="7.24951">
        <ele>632</ele>
        <time>2016-05-15T12:35:34.000Z</time>
      </trkpt>
      <trkpt lat="43.79252" lon="7.24953">
        <ele>632</ele>
        <time>2016-05-15T12:35:35.000Z</time>
      </trkpt>
      <trkpt lat="43.79255" lon="7.24958">
        <ele>630</ele>
        <time>2016-05-15T12:35:37.000Z</time>
      </trkpt>
      <trkpt lat="43.79259" lon="7.24963">
        <ele>629</ele>
        <time>2016-05-15T12:35:39.000Z</time>
      </trkpt>
      <trkpt lat="43.79261" lon="7.24966">
        <ele>629</ele>
        <time>2016-05-15T12:35:40.000Z</time>
      </trkpt>
      <trkpt lat="43.79261" lon="7.24971">
        <ele>628</ele>
        <time>2016-05-15T12:35:42.000Z</time>
      </trkpt>
      <trkpt lat="43.79261" lon="7.24974">
        <ele>627</ele>
        <time>2016-05-15T12:35:43.000Z</time>
      </trkpt>
      <trkpt lat="43.7926" lon="7.24976">
        <ele>627</ele>
        <time>2016-05-15T12:35:44.000Z</time>
      </trkpt>
      <trkpt lat="43.79261" lon="7.24978">
        <ele>626</ele>
        <time>2016-05-15T12:35:45.000Z</time>
      </trkpt>
      <trkpt lat="43.79264" lon="7.24981">
        <ele>626</ele>
        <time>2016-05-15T12:35:47.000Z</time>
      </trkpt>
      <trkpt lat="43.79265" lon="7.24981">
        <ele>626</ele>
        <time>2016-05-15T12:35:49.000Z</time>
      </trkpt>
      <trkpt lat="43.79267" lon="7.24981">
        <ele>626</ele>
        <time>2016-05-15T12:35:50.000Z</time>
      </trkpt>
      <trkpt lat="43.79269" lon="7.24983">
        <ele>626</ele>
        <time>2016-05-15T12:35:51.000Z</time>
      </trkpt>
      <trkpt lat="43.79268" lon="7.24989">
        <ele>625</ele>
        <time>2016-05-15T12:35:53.000Z</time>
      </trkpt>
      <trkpt lat="43.79267" lon="7.24992">
        <ele>625</ele>
        <time>2016-05-15T12:35:55.000Z</time>
      </trkpt>
      <trkpt lat="43.79268" lon="7.24995">
        <ele>624</ele>
        <time>2016-05-15T12:35:57.000Z</time>
      </trkpt>
      <trkpt lat="43.79268" lon="7.25">
        <ele>618</ele>
        <time>2016-05-15T12:35:59.000Z</time>
      </trkpt>
      <trkpt lat="43.79267" lon="7.2501">
        <ele>610</ele>
        <time>2016-05-15T12:36:02.000Z</time>
      </trkpt>
      <trkpt lat="43.79259" lon="7.25017">
        <ele>610</ele>
        <time>2016-05-15T12:36:05.000Z</time>
      </trkpt>
      <trkpt lat="43.79257" lon="7.25019">
        <ele>610</ele>
        <time>2016-05-15T12:36:06.000Z</time>
      </trkpt>
      <trkpt lat="43.79251" lon="7.25023">
        <ele>609</ele>
        <time>2016-05-15T12:36:09.000Z</time>
      </trkpt>
      <trkpt lat="43.79246" lon="7.25025">
        <ele>619</ele>
        <time>2016-05-15T12:36:11.000Z</time>
      </trkpt>
      <trkpt lat="43.7923" lon="7.25035">
        <ele>618</ele>
        <time>2016-05-15T12:36:17.000Z</time>
      </trkpt>
      <trkpt lat="43.79228" lon="7.25035">
        <ele>618</ele>
        <time>2016-05-15T12:36:18.000Z</time>
      </trkpt>
      <trkpt lat="43.79219" lon="7.25038">
        <ele>619</ele>
        <time>2016-05-15T12:36:21.000Z</time>
      </trkpt>
      <trkpt lat="43.79216" lon="7.25039">
        <ele>619</ele>
        <time>2016-05-15T12:36:22.000Z</time>
      </trkpt>
      <trkpt lat="43.79208" lon="7.25043">
        <ele>619</ele>
        <time>2016-05-15T12:36:27.000Z</time>
      </trkpt>
      <trkpt lat="43.79204" lon="7.25049">
        <ele>619</ele>
        <time>2016-05-15T12:36:33.000Z</time>
      </trkpt>
      <trkpt lat="43.792" lon="7.25053">
        <ele>619</ele>
        <time>2016-05-15T12:36:36.000Z</time>
      </trkpt>
      <trkpt lat="43.79197" lon="7.25058">
        <ele>618</ele>
        <time>2016-05-15T12:36:38.000Z</time>
      </trkpt>
      <trkpt lat="43.79189" lon="7.25065">
        <ele>618</ele>
        <time>2016-05-15T12:36:41.000Z</time>
      </trkpt>
      <trkpt lat="43.79189" lon="7.25065">
        <ele>618</ele>
        <time>2016-05-15T12:36:42.000Z</time>
      </trkpt>
      <trkpt lat="43.79189" lon="7.25065">
        <ele>618</ele>
        <time>2016-05-15T12:36:44.000Z</time>
      </trkpt>
      <trkpt lat="43.79188" lon="7.25067">
        <ele>618</ele>
        <time>2016-05-15T12:36:46.000Z</time>
      </trkpt>
      <trkpt lat="43.79181" lon="7.25077">
        <ele>617</ele>
        <time>2016-05-15T12:36:50.000Z</time>
      </trkpt>
      <trkpt lat="43.79173" lon="7.25095">
        <ele>605</ele>
        <time>2016-05-15T12:36:54.000Z</time>
      </trkpt>
      <trkpt lat="43.79166" lon="7.25105">
        <ele>611</ele>
        <time>2016-05-15T12:36:57.000Z</time>
      </trkpt>
      <trkpt lat="43.79163" lon="7.2511">
        <ele>610</ele>
        <time>2016-05-15T12:36:59.000Z</time>
      </trkpt>
      <trkpt lat="43.79158" lon="7.25122">
        <ele>607</ele>
        <time>2016-05-15T12:37:02.000Z</time>
      </trkpt>
      <trkpt lat="43.79155" lon="7.25131">
        <ele>605</ele>
        <time>2016-05-15T12:37:04.000Z</time>
      </trkpt>
      <trkpt lat="43.79151" lon="7.25139">
        <ele>604</ele>
        <time>2016-05-15T12:37:06.000Z</time>
      </trkpt>
      <trkpt lat="43.79148" lon="7.25146">
        <ele>602</ele>
        <time>2016-05-15T12:37:09.000Z</time>
      </trkpt>
      <trkpt lat="43.79147" lon="7.25149">
        <ele>602</ele>
        <time>2016-05-15T12:37:12.000Z</time>
      </trkpt>
      <trkpt lat="43.79147" lon="7.25151">
        <ele>601</ele>
        <time>2016-05-15T12:37:14.000Z</time>
      </trkpt>
      <trkpt lat="43.79147" lon="7.25152">
        <ele>601</ele>
        <time>2016-05-15T12:37:16.000Z</time>
      </trkpt>
      <trkpt lat="43.79146" lon="7.25158">
        <ele>600</ele>
        <time>2016-05-15T12:37:20.000Z</time>
      </trkpt>
      <trkpt lat="43.79144" lon="7.2516">
        <ele>600</ele>
        <time>2016-05-15T12:37:21.000Z</time>
      </trkpt>
      <trkpt lat="43.7914" lon="7.25166">
        <ele>601</ele>
        <time>2016-05-15T12:37:25.000Z</time>
      </trkpt>
      <trkpt lat="43.79144" lon="7.2517">
        <ele>584</ele>
        <time>2016-05-15T12:37:28.000Z</time>
      </trkpt>
      <trkpt lat="43.79143" lon="7.25173">
        <ele>584</ele>
        <time>2016-05-15T12:37:29.000Z</time>
      </trkpt>
      <trkpt lat="43.79134" lon="7.25184">
        <ele>584</ele>
        <time>2016-05-15T12:37:33.000Z</time>
      </trkpt>
      <trkpt lat="43.79129" lon="7.25196">
        <ele>582</ele>
        <time>2016-05-15T12:37:37.000Z</time>
      </trkpt>
      <trkpt lat="43.79123" lon="7.25206">
        <ele>581</ele>
        <time>2016-05-15T12:37:40.000Z</time>
      </trkpt>
      <trkpt lat="43.79121" lon="7.25208">
        <ele>581</ele>
        <time>2016-05-15T12:37:41.000Z</time>
      </trkpt>
      <trkpt lat="43.79119" lon="7.25209">
        <ele>581</ele>
        <time>2016-05-15T12:37:42.000Z</time>
      </trkpt>
      <trkpt lat="43.79117" lon="7.25209">
        <ele>581</ele>
        <time>2016-05-15T12:37:44.000Z</time>
      </trkpt>
      <trkpt lat="43.79116" lon="7.25211">
        <ele>581</ele>
        <time>2016-05-15T12:37:45.000Z</time>
      </trkpt>
      <trkpt lat="43.79115" lon="7.25212">
        <ele>581</ele>
        <time>2016-05-15T12:37:46.000Z</time>
      </trkpt>
      <trkpt lat="43.79114" lon="7.25215">
        <ele>581</ele>
        <time>2016-05-15T12:37:47.000Z</time>
      </trkpt>
      <trkpt lat="43.79109" lon="7.25223">
        <ele>580</ele>
        <time>2016-05-15T12:37:50.000Z</time>
      </trkpt>
      <trkpt lat="43.79108" lon="7.25224">
        <ele>580</ele>
        <time>2016-05-15T12:37:52.000Z</time>
      </trkpt>
      <trkpt lat="43.79104" lon="7.25228">
        <ele>579</ele>
        <time>2016-05-15T12:37:54.000Z</time>
      </trkpt>
      <trkpt lat="43.791" lon="7.25229">
        <ele>579</ele>
        <time>2016-05-15T12:37:56.000Z</time>
      </trkpt>
      <trkpt lat="43.79099" lon="7.25232">
        <ele>579</ele>
        <time>2016-05-15T12:37:57.000Z</time>
      </trkpt>
      <trkpt lat="43.79097" lon="7.25235">
        <ele>579</ele>
        <time>2016-05-15T12:37:58.000Z</time>
      </trkpt>
      <trkpt lat="43.79095" lon="7.25235">
        <ele>579</ele>
        <time>2016-05-15T12:37:59.000Z</time>
      </trkpt>
      <trkpt lat="43.79094" lon="7.25235">
        <ele>579</ele>
        <time>2016-05-15T12:38:00.000Z</time>
      </trkpt>
      <trkpt lat="43.79093" lon="7.25235">
        <ele>579</ele>
        <time>2016-05-15T12:38:01.000Z</time>
      </trkpt>
      <trkpt lat="43.79092" lon="7.25235">
        <ele>579</ele>
        <time>2016-05-15T12:38:02.000Z</time>
      </trkpt>
      <trkpt lat="43.7909" lon="7.25236">
        <ele>578</ele>
        <time>2016-05-15T12:38:04.000Z</time>
      </trkpt>
      <trkpt lat="43.79086" lon="7.25236">
        <ele>578</ele>
        <time>2016-05-15T12:38:07.000Z</time>
      </trkpt>
      <trkpt lat="43.79085" lon="7.25235">
        <ele>579</ele>
        <time>2016-05-15T12:38:12.000Z</time>
      </trkpt>
      <trkpt lat="43.79075" lon="7.25237">
        <ele>578</ele>
        <time>2016-05-15T12:38:17.000Z</time>
      </trkpt>
      <trkpt lat="43.79069" lon="7.25234">
        <ele>578</ele>
        <time>2016-05-15T12:38:19.000Z</time>
      </trkpt>
      <trkpt lat="43.79066" lon="7.25227">
        <ele>579</ele>
        <time>2016-05-15T12:38:21.000Z</time>
      </trkpt>
      <trkpt lat="43.79064" lon="7.25223">
        <ele>579</ele>
        <time>2016-05-15T12:38:23.000Z</time>
      </trkpt>
      <trkpt lat="43.79063" lon="7.25222">
        <ele>579</ele>
        <time>2016-05-15T12:38:24.000Z</time>
      </trkpt>
      <trkpt lat="43.79061" lon="7.25221">
        <ele>579</ele>
        <time>2016-05-15T12:38:26.000Z</time>
      </trkpt>
      <trkpt lat="43.79054" lon="7.25212">
        <ele>580</ele>
        <time>2016-05-15T12:38:32.000Z</time>
      </trkpt>
      <trkpt lat="43.79046" lon="7.25201">
        <ele>581</ele>
        <time>2016-05-15T12:38:36.000Z</time>
      </trkpt>
      <trkpt lat="43.79043" lon="7.25194">
        <ele>581</ele>
        <time>2016-05-15T12:38:40.000Z</time>
      </trkpt>
      <trkpt lat="43.79038" lon="7.25189">
        <ele>581</ele>
        <time>2016-05-15T12:38:44.000Z</time>
      </trkpt>
      <trkpt lat="43.79037" lon="7.25186">
        <ele>581</ele>
        <time>2016-05-15T12:38:45.000Z</time>
      </trkpt>
      <trkpt lat="43.79035" lon="7.25182">
        <ele>581</ele>
        <time>2016-05-15T12:38:47.000Z</time>
      </trkpt>
      <trkpt lat="43.79032" lon="7.25176">
        <ele>581</ele>
        <time>2016-05-15T12:38:49.000Z</time>
      </trkpt>
      <trkpt lat="43.79029" lon="7.25173">
        <ele>581</ele>
        <time>2016-05-15T12:38:50.000Z</time>
      </trkpt>
      <trkpt lat="43.79025" lon="7.25168">
        <ele>580</ele>
        <time>2016-05-15T12:38:52.000Z</time>
      </trkpt>
      <trkpt lat="43.79015" lon="7.25156">
        <ele>590</ele>
        <time>2016-05-15T12:38:55.000Z</time>
      </trkpt>
      <trkpt lat="43.79009" lon="7.25146">
        <ele>592</ele>
        <time>2016-05-15T12:38:57.000Z</time>
      </trkpt>
      <trkpt lat="43.79005" lon="7.25138">
        <ele>594</ele>
        <time>2016-05-15T12:38:59.000Z</time>
      </trkpt>
      <trkpt lat="43.78999" lon="7.25127">
        <ele>578</ele>
        <time>2016-05-15T12:39:02.000Z</time>
      </trkpt>
      <trkpt lat="43.78994" lon="7.25117">
        <ele>580</ele>
        <time>2016-05-15T12:39:05.000Z</time>
      </trkpt>
      <trkpt lat="43.78983" lon="7.25102">
        <ele>582</ele>
        <time>2016-05-15T12:39:10.000Z</time>
      </trkpt>
      <trkpt lat="43.7898" lon="7.25095">
        <ele>583</ele>
        <time>2016-05-15T12:39:12.000Z</time>
      </trkpt>
      <trkpt lat="43.78968" lon="7.2507">
        <ele>595</ele>
        <time>2016-05-15T12:39:19.000Z</time>
      </trkpt>
      <trkpt lat="43.78962" lon="7.25057">
        <ele>595</ele>
        <time>2016-05-15T12:39:23.000Z</time>
      </trkpt>
      <trkpt lat="43.78955" lon="7.25047">
        <ele>596</ele>
        <time>2016-05-15T12:39:26.000Z</time>
      </trkpt>
      <trkpt lat="43.78945" lon="7.25038">
        <ele>596</ele>
        <time>2016-05-15T12:39:29.000Z</time>
      </trkpt>
      <trkpt lat="43.7894" lon="7.25036">
        <ele>596</ele>
        <time>2016-05-15T12:39:30.000Z</time>
      </trkpt>
      <trkpt lat="43.78925" lon="7.25039">
        <ele>594</ele>
        <time>2016-05-15T12:39:33.000Z</time>
      </trkpt>
      <trkpt lat="43.7892" lon="7.2504">
        <ele>593</ele>
        <time>2016-05-15T12:39:34.000Z</time>
      </trkpt>
      <trkpt lat="43.78876" lon="7.25049">
        <ele>584</ele>
        <time>2016-05-15T12:39:43.000Z</time>
      </trkpt>
      <trkpt lat="43.78848" lon="7.25055">
        <ele>582</ele>
        <time>2016-05-15T12:39:49.000Z</time>
      </trkpt>
      <trkpt lat="43.78812" lon="7.25054">
        <ele>578</ele>
        <time>2016-05-15T12:39:56.000Z</time>
      </trkpt>
      <trkpt lat="43.78788" lon="7.25049">
        <ele>577</ele>
        <time>2016-05-15T12:40:00.000Z</time>
      </trkpt>
      <trkpt lat="43.78763" lon="7.25045">
        <ele>576</ele>
        <time>2016-05-15T12:40:03.000Z</time>
      </trkpt>
      <trkpt lat="43.78754" lon="7.25046">
        <ele>576</ele>
        <time>2016-05-15T12:40:04.000Z</time>
      </trkpt>
      <trkpt lat="43.78744" lon="7.25047">
        <ele>571</ele>
        <time>2016-05-15T12:40:05.000Z</time>
      </trkpt>
      <trkpt lat="43.78725" lon="7.25052">
        <ele>571</ele>
        <time>2016-05-15T12:40:07.000Z</time>
      </trkpt>
      <trkpt lat="43.78716" lon="7.25057">
        <ele>571</ele>
        <time>2016-05-15T12:40:08.000Z</time>
      </trkpt>
      <trkpt lat="43.78707" lon="7.25061">
        <ele>570</ele>
        <time>2016-05-15T12:40:09.000Z</time>
      </trkpt>
      <trkpt lat="43.78681" lon="7.2507">
        <ele>570</ele>
        <time>2016-05-15T12:40:12.000Z</time>
      </trkpt>
      <trkpt lat="43.78665" lon="7.25074">
        <ele>570</ele>
        <time>2016-05-15T12:40:14.000Z</time>
      </trkpt>
      <trkpt lat="43.78657" lon="7.25076">
        <ele>570</ele>
        <time>2016-05-15T12:40:15.000Z</time>
      </trkpt>
      <trkpt lat="43.78642" lon="7.2508">
        <ele>570</ele>
        <time>2016-05-15T12:40:18.000Z</time>
      </trkpt>
      <trkpt lat="43.7862" lon="7.25086">
        <ele>566</ele>
        <time>2016-05-15T12:40:24.000Z</time>
      </trkpt>
      <trkpt lat="43.78605" lon="7.25089">
        <ele>567</ele>
        <time>2016-05-15T12:40:30.000Z</time>
      </trkpt>
      <trkpt lat="43.78586" lon="7.25096">
        <ele>569</ele>
        <time>2016-05-15T12:40:36.000Z</time>
      </trkpt>
      <trkpt lat="43.78571" lon="7.25101">
        <ele>569</ele>
        <time>2016-05-15T12:40:41.000Z</time>
      </trkpt>
      <trkpt lat="43.78565" lon="7.25102">
        <ele>568</ele>
        <time>2016-05-15T12:40:43.000Z</time>
      </trkpt>
      <trkpt lat="43.78558" lon="7.25096">
        <ele>569</ele>
        <time>2016-05-15T12:40:47.000Z</time>
      </trkpt>
      <trkpt lat="43.78548" lon="7.25093">
        <ele>568</ele>
        <time>2016-05-15T12:40:52.000Z</time>
      </trkpt>
      <trkpt lat="43.78545" lon="7.25093">
        <ele>568</ele>
        <time>2016-05-15T12:40:53.000Z</time>
      </trkpt>
      <trkpt lat="43.7853" lon="7.25096">
        <ele>568</ele>
        <time>2016-05-15T12:40:58.000Z</time>
      </trkpt>
      <trkpt lat="43.78514" lon="7.2511">
        <ele>568</ele>
        <time>2016-05-15T12:41:03.000Z</time>
      </trkpt>
      <trkpt lat="43.7851" lon="7.25113">
        <ele>568</ele>
        <time>2016-05-15T12:41:04.000Z</time>
      </trkpt>
      <trkpt lat="43.78496" lon="7.25118">
        <ele>565</ele>
        <time>2016-05-15T12:41:07.000Z</time>
      </trkpt>
      <trkpt lat="43.78482" lon="7.25129">
        <ele>563</ele>
        <time>2016-05-15T12:41:10.000Z</time>
      </trkpt>
      <trkpt lat="43.78477" lon="7.25134">
        <ele>563</ele>
        <time>2016-05-15T12:41:11.000Z</time>
      </trkpt>
      <trkpt lat="43.78466" lon="7.2514">
        <ele>562</ele>
        <time>2016-05-15T12:41:13.000Z</time>
      </trkpt>
      <trkpt lat="43.78455" lon="7.25148">
        <ele>562</ele>
        <time>2016-05-15T12:41:15.000Z</time>
      </trkpt>
      <trkpt lat="43.78445" lon="7.25159">
        <ele>561</ele>
        <time>2016-05-15T12:41:17.000Z</time>
      </trkpt>
      <trkpt lat="43.78434" lon="7.2517">
        <ele>556</ele>
        <time>2016-05-15T12:41:19.000Z</time>
      </trkpt>
      <trkpt lat="43.78427" lon="7.25175">
        <ele>557</ele>
        <time>2016-05-15T12:41:20.000Z</time>
      </trkpt>
      <trkpt lat="43.78422" lon="7.25181">
        <ele>556</ele>
        <time>2016-05-15T12:41:21.000Z</time>
      </trkpt>
      <trkpt lat="43.784" lon="7.25203">
        <ele>551</ele>
        <time>2016-05-15T12:41:25.000Z</time>
      </trkpt>
      <trkpt lat="43.78398" lon="7.25207">
        <ele>550</ele>
        <time>2016-05-15T12:41:26.000Z</time>
      </trkpt>
      <trkpt lat="43.78389" lon="7.25211">
        <ele>550</ele>
        <time>2016-05-15T12:41:28.000Z</time>
      </trkpt>
      <trkpt lat="43.78382" lon="7.25207">
        <ele>550</ele>
        <time>2016-05-15T12:41:30.000Z</time>
      </trkpt>
      <trkpt lat="43.78378" lon="7.25208">
        <ele>550</ele>
        <time>2016-05-15T12:41:31.000Z</time>
      </trkpt>
      <trkpt lat="43.78375" lon="7.2521">
        <ele>549</ele>
        <time>2016-05-15T12:41:32.000Z</time>
      </trkpt>
      <trkpt lat="43.78368" lon="7.25205">
        <ele>549</ele>
        <time>2016-05-15T12:41:34.000Z</time>
      </trkpt>
      <trkpt lat="43.78364" lon="7.25202">
        <ele>549</ele>
        <time>2016-05-15T12:41:35.000Z</time>
      </trkpt>
      <trkpt lat="43.78362" lon="7.25199">
        <ele>549</ele>
        <time>2016-05-15T12:41:36.000Z</time>
      </trkpt>
      <trkpt lat="43.78358" lon="7.2519">
        <ele>548</ele>
        <time>2016-05-15T12:41:38.000Z</time>
      </trkpt>
      <trkpt lat="43.78358" lon="7.25187">
        <ele>548</ele>
        <time>2016-05-15T12:41:39.000Z</time>
      </trkpt>
      <trkpt lat="43.78359" lon="7.25181">
        <ele>548</ele>
        <time>2016-05-15T12:41:40.000Z</time>
      </trkpt>
      <trkpt lat="43.78363" lon="7.25176">
        <ele>548</ele>
        <time>2016-05-15T12:41:41.000Z</time>
      </trkpt>
      <trkpt lat="43.78367" lon="7.25171">
        <ele>549</ele>
        <time>2016-05-15T12:41:42.000Z</time>
      </trkpt>
      <trkpt lat="43.78372" lon="7.25162">
        <ele>547</ele>
        <time>2016-05-15T12:41:44.000Z</time>
      </trkpt>
      <trkpt lat="43.78374" lon="7.25158">
        <ele>547</ele>
        <time>2016-05-15T12:41:45.000Z</time>
      </trkpt>
      <trkpt lat="43.78377" lon="7.25156">
        <ele>548</ele>
        <time>2016-05-15T12:41:46.000Z</time>
      </trkpt>
      <trkpt lat="43.78377" lon="7.25151">
        <ele>548</ele>
        <time>2016-05-15T12:41:48.000Z</time>
      </trkpt>
      <trkpt lat="43.78374" lon="7.25152">
        <ele>547</ele>
        <time>2016-05-15T12:41:49.000Z</time>
      </trkpt>
      <trkpt lat="43.7837" lon="7.25154">
        <ele>547</ele>
        <time>2016-05-15T12:41:50.000Z</time>
      </trkpt>
      <trkpt lat="43.78362" lon="7.2516">
        <ele>546</ele>
        <time>2016-05-15T12:41:52.000Z</time>
      </trkpt>
      <trkpt lat="43.78345" lon="7.25172">
        <ele>545</ele>
        <time>2016-05-15T12:41:55.000Z</time>
      </trkpt>
      <trkpt lat="43.78338" lon="7.25176">
        <ele>545</ele>
        <time>2016-05-15T12:41:56.000Z</time>
      </trkpt>
      <trkpt lat="43.78317" lon="7.25191">
        <ele>542</ele>
        <time>2016-05-15T12:41:59.000Z</time>
      </trkpt>
      <trkpt lat="43.78299" lon="7.25203">
        <ele>541</ele>
        <time>2016-05-15T12:42:01.000Z</time>
      </trkpt>
      <trkpt lat="43.7829" lon="7.25209">
        <ele>541</ele>
        <time>2016-05-15T12:42:02.000Z</time>
      </trkpt>
      <trkpt lat="43.78273" lon="7.25221">
        <ele>541</ele>
        <time>2016-05-15T12:42:04.000Z</time>
      </trkpt>
      <trkpt lat="43.78266" lon="7.25226">
        <ele>541</ele>
        <time>2016-05-15T12:42:05.000Z</time>
      </trkpt>
      <trkpt lat="43.78259" lon="7.25232">
        <ele>541</ele>
        <time>2016-05-15T12:42:06.000Z</time>
      </trkpt>
      <trkpt lat="43.78251" lon="7.25237">
        <ele>541</ele>
        <time>2016-05-15T12:42:07.000Z</time>
      </trkpt>
      <trkpt lat="43.78243" lon="7.25242">
        <ele>540</ele>
        <time>2016-05-15T12:42:08.000Z</time>
      </trkpt>
      <trkpt lat="43.78229" lon="7.25251">
        <ele>538</ele>
        <time>2016-05-15T12:42:10.000Z</time>
      </trkpt>
      <trkpt lat="43.78223" lon="7.25255">
        <ele>538</ele>
        <time>2016-05-15T12:42:11.000Z</time>
      </trkpt>
      <trkpt lat="43.78217" lon="7.25259">
        <ele>537</ele>
        <time>2016-05-15T12:42:12.000Z</time>
      </trkpt>
      <trkpt lat="43.78207" lon="7.25269">
        <ele>536</ele>
        <time>2016-05-15T12:42:14.000Z</time>
      </trkpt>
      <trkpt lat="43.78204" lon="7.25276">
        <ele>536</ele>
        <time>2016-05-15T12:42:15.000Z</time>
      </trkpt>
      <trkpt lat="43.782" lon="7.25286">
        <ele>535</ele>
        <time>2016-05-15T12:42:17.000Z</time>
      </trkpt>
      <trkpt lat="43.78196" lon="7.25287">
        <ele>535</ele>
        <time>2016-05-15T12:42:18.000Z</time>
      </trkpt>
      <trkpt lat="43.78187" lon="7.25279">
        <ele>535</ele>
        <time>2016-05-15T12:42:21.000Z</time>
      </trkpt>
      <trkpt lat="43.78181" lon="7.25273">
        <ele>534</ele>
        <time>2016-05-15T12:42:24.000Z</time>
      </trkpt>
      <trkpt lat="43.78177" lon="7.25269">
        <ele>534</ele>
        <time>2016-05-15T12:42:26.000Z</time>
      </trkpt>
      <trkpt lat="43.78164" lon="7.25259">
        <ele>536</ele>
        <time>2016-05-15T12:42:33.000Z</time>
      </trkpt>
      <trkpt lat="43.78162" lon="7.25253">
        <ele>535</ele>
        <time>2016-05-15T12:42:36.000Z</time>
      </trkpt>
      <trkpt lat="43.7816" lon="7.25247">
        <ele>539</ele>
        <time>2016-05-15T12:42:39.000Z</time>
      </trkpt>
      <trkpt lat="43.7816" lon="7.25245">
        <ele>540</ele>
        <time>2016-05-15T12:42:40.000Z</time>
      </trkpt>
      <trkpt lat="43.7816" lon="7.2524">
        <ele>542</ele>
        <time>2016-05-15T12:42:43.000Z</time>
      </trkpt>
      <trkpt lat="43.7816" lon="7.25239">
        <ele>543</ele>
        <time>2016-05-15T12:42:46.000Z</time>
      </trkpt>
      <trkpt lat="43.7816" lon="7.25239">
        <ele>543</ele>
        <time>2016-05-15T12:42:47.000Z</time>
      </trkpt>
      <trkpt lat="43.78159" lon="7.25237">
        <ele>544</ele>
        <time>2016-05-15T12:42:52.000Z</time>
      </trkpt>
      <trkpt lat="43.78158" lon="7.25234">
        <ele>546</ele>
        <time>2016-05-15T12:42:58.000Z</time>
      </trkpt>
      <trkpt lat="43.78159" lon="7.25232">
        <ele>546</ele>
        <time>2016-05-15T12:43:04.000Z</time>
      </trkpt>
      <trkpt lat="43.78159" lon="7.25232">
        <ele>546</ele>
        <time>2016-05-15T12:43:10.000Z</time>
      </trkpt>
      <trkpt lat="43.78159" lon="7.25232">
        <ele>546</ele>
        <time>2016-05-15T12:43:16.000Z</time>
      </trkpt>
      <trkpt lat="43.78159" lon="7.2523">
        <ele>547</ele>
        <time>2016-05-15T12:43:31.000Z</time>
      </trkpt>
      <trkpt lat="43.7816" lon="7.2523">
        <ele>547</ele>
        <time>2016-05-15T12:43:40.000Z</time>
      </trkpt>
      <trkpt lat="43.7816" lon="7.25231">
        <ele>546</ele>
        <time>2016-05-15T12:43:46.000Z</time>
      </trkpt>
      <trkpt lat="43.78159" lon="7.25231">
        <ele>546</ele>
        <time>2016-05-15T12:43:57.000Z</time>
      </trkpt>
      <trkpt lat="43.78159" lon="7.25231">
        <ele>546</ele>
        <time>2016-05-15T12:44:07.000Z</time>
      </trkpt>
      <trkpt lat="43.78159" lon="7.25232">
        <ele>546</ele>
        <time>2016-05-15T12:44:19.000Z</time>
      </trkpt>
      <trkpt lat="43.78159" lon="7.25232">
        <ele>546</ele>
        <time>2016-05-15T12:44:20.000Z</time>
      </trkpt>
      <trkpt lat="43.78159" lon="7.2523">
        <ele>547</ele>
        <time>2016-05-15T12:44:34.000Z</time>
      </trkpt>
      <trkpt lat="43.78159" lon="7.2523">
        <ele>547</ele>
        <time>2016-05-15T12:44:47.000Z</time>
      </trkpt>
      <trkpt lat="43.78158" lon="7.2523">
        <ele>547</ele>
        <time>2016-05-15T12:44:55.000Z</time>
      </trkpt>
      <trkpt lat="43.78158" lon="7.25229">
        <ele>547</ele>
        <time>2016-05-15T12:45:04.000Z</time>
      </trkpt>
      <trkpt lat="43.78157" lon="7.25228">
        <ele>548</ele>
        <time>2016-05-15T12:45:22.000Z</time>
      </trkpt>
      <trkpt lat="43.78158" lon="7.25228">
        <ele>548</ele>
        <time>2016-05-15T12:45:37.000Z</time>
      </trkpt>
      <trkpt lat="43.7816" lon="7.25228">
        <ele>547</ele>
        <time>2016-05-15T12:45:53.000Z</time>
      </trkpt>
      <trkpt lat="43.78161" lon="7.25228">
        <ele>547</ele>
        <time>2016-05-15T12:46:04.000Z</time>
      </trkpt>
      <trkpt lat="43.78161" lon="7.25228">
        <ele>547</ele>
        <time>2016-05-15T12:46:12.000Z</time>
      </trkpt>
      <trkpt lat="43.78163" lon="7.25228">
        <ele>547</ele>
        <time>2016-05-15T12:46:26.000Z</time>
      </trkpt>
      <trkpt lat="43.78162" lon="7.25228">
        <ele>547</ele>
        <time>2016-05-15T12:46:43.000Z</time>
      </trkpt>
      <trkpt lat="43.78162" lon="7.25233">
        <ele>545</ele>
        <time>2016-05-15T12:46:50.000Z</time>
      </trkpt>
      <trkpt lat="43.78161" lon="7.25235">
        <ele>544</ele>
        <time>2016-05-15T12:46:55.000Z</time>
      </trkpt>
      <trkpt lat="43.78161" lon="7.25231">
        <ele>546</ele>
        <time>2016-05-15T12:46:59.000Z</time>
      </trkpt>
      <trkpt lat="43.78163" lon="7.25225">
        <ele>548</ele>
        <time>2016-05-15T12:47:01.000Z</time>
      </trkpt>
      <trkpt lat="43.78166" lon="7.25219">
        <ele>549</ele>
        <time>2016-05-15T12:47:03.000Z</time>
      </trkpt>
      <trkpt lat="43.78171" lon="7.2521">
        <ele>539</ele>
        <time>2016-05-15T12:47:05.000Z</time>
      </trkpt>
      <trkpt lat="43.78189" lon="7.25181">
        <ele>540</ele>
        <time>2016-05-15T12:47:09.000Z</time>
      </trkpt>
      <trkpt lat="43.78203" lon="7.25151">
        <ele>541</ele>
        <time>2016-05-15T12:47:12.000Z</time>
      </trkpt>
      <trkpt lat="43.78212" lon="7.25135">
        <ele>540</ele>
        <time>2016-05-15T12:47:14.000Z</time>
      </trkpt>
      <trkpt lat="43.78217" lon="7.2512">
        <ele>539</ele>
        <time>2016-05-15T12:47:16.000Z</time>
      </trkpt>
      <trkpt lat="43.78222" lon="7.25108">
        <ele>538</ele>
        <time>2016-05-15T12:47:18.000Z</time>
      </trkpt>
      <trkpt lat="43.78223" lon="7.25102">
        <ele>538</ele>
        <time>2016-05-15T12:47:19.000Z</time>
      </trkpt>
      <trkpt lat="43.78223" lon="7.25097">
        <ele>538</ele>
        <time>2016-05-15T12:47:20.000Z</time>
      </trkpt>
      <trkpt lat="43.78223" lon="7.25095">
        <ele>538</ele>
        <time>2016-05-15T12:47:21.000Z</time>
      </trkpt>
      <trkpt lat="43.78223" lon="7.25096">
        <ele>538</ele>
        <time>2016-05-15T12:47:23.000Z</time>
      </trkpt>
      <trkpt lat="43.78224" lon="7.25095">
        <ele>537</ele>
        <time>2016-05-15T12:47:25.000Z</time>
      </trkpt>
      <trkpt lat="43.78225" lon="7.25085">
        <ele>537</ele>
        <time>2016-05-15T12:47:34.000Z</time>
      </trkpt>
      <trkpt lat="43.78224" lon="7.25084">
        <ele>537</ele>
        <time>2016-05-15T12:47:35.000Z</time>
      </trkpt>
      <trkpt lat="43.78225" lon="7.25074">
        <ele>539</ele>
        <time>2016-05-15T12:47:43.000Z</time>
      </trkpt>
      <trkpt lat="43.78225" lon="7.25073">
        <ele>539</ele>
        <time>2016-05-15T12:47:44.000Z</time>
      </trkpt>
      <trkpt lat="43.78224" lon="7.25067">
        <ele>540</ele>
        <time>2016-05-15T12:47:50.000Z</time>
      </trkpt>
      <trkpt lat="43.78223" lon="7.25065">
        <ele>540</ele>
        <time>2016-05-15T12:47:52.000Z</time>
      </trkpt>
      <trkpt lat="43.78223" lon="7.25062">
        <ele>540</ele>
        <time>2016-05-15T12:47:54.000Z</time>
      </trkpt>
      <trkpt lat="43.78224" lon="7.25058">
        <ele>540</ele>
        <time>2016-05-15T12:47:58.000Z</time>
      </trkpt>
      <trkpt lat="43.78224" lon="7.25057">
        <ele>541</ele>
        <time>2016-05-15T12:47:59.000Z</time>
      </trkpt>
      <trkpt lat="43.78224" lon="7.25054">
        <ele>541</ele>
        <time>2016-05-15T12:48:02.000Z</time>
      </trkpt>
      <trkpt lat="43.78224" lon="7.25049">
        <ele>541</ele>
        <time>2016-05-15T12:48:06.000Z</time>
      </trkpt>
      <trkpt lat="43.78224" lon="7.25049">
        <ele>541</ele>
        <time>2016-05-15T12:48:08.000Z</time>
      </trkpt>
      <trkpt lat="43.78224" lon="7.25048">
        <ele>541</ele>
        <time>2016-05-15T12:48:12.000Z</time>
      </trkpt>
      <trkpt lat="43.78224" lon="7.2504">
        <ele>541</ele>
        <time>2016-05-15T12:48:18.000Z</time>
      </trkpt>
      <trkpt lat="43.78224" lon="7.25035">
        <ele>541</ele>
        <time>2016-05-15T12:48:22.000Z</time>
      </trkpt>
      <trkpt lat="43.78222" lon="7.25029">
        <ele>541</ele>
        <time>2016-05-15T12:48:26.000Z</time>
      </trkpt>
      <trkpt lat="43.78221" lon="7.25027">
        <ele>542</ele>
        <time>2016-05-15T12:48:28.000Z</time>
      </trkpt>
      <trkpt lat="43.78219" lon="7.25018">
        <ele>542</ele>
        <time>2016-05-15T12:48:34.000Z</time>
      </trkpt>
      <trkpt lat="43.78219" lon="7.25016">
        <ele>542</ele>
        <time>2016-05-15T12:48:36.000Z</time>
      </trkpt>
      <trkpt lat="43.78217" lon="7.25008">
        <ele>542</ele>
        <time>2016-05-15T12:48:42.000Z</time>
      </trkpt>
      <trkpt lat="43.78217" lon="7.25006">
        <ele>542</ele>
        <time>2016-05-15T12:48:43.000Z</time>
      </trkpt>
      <trkpt lat="43.78216" lon="7.25003">
        <ele>542</ele>
        <time>2016-05-15T12:48:46.000Z</time>
      </trkpt>
      <trkpt lat="43.78215" lon="7.24999">
        <ele>542</ele>
        <time>2016-05-15T12:48:49.000Z</time>
      </trkpt>
      <trkpt lat="43.78214" lon="7.24997">
        <ele>543</ele>
        <time>2016-05-15T12:48:51.000Z</time>
      </trkpt>
      <trkpt lat="43.78212" lon="7.24994">
        <ele>543</ele>
        <time>2016-05-15T12:48:54.000Z</time>
      </trkpt>
      <trkpt lat="43.7821" lon="7.24989">
        <ele>544</ele>
        <time>2016-05-15T12:48:59.000Z</time>
      </trkpt>
      <trkpt lat="43.7821" lon="7.24988">
        <ele>544</ele>
        <time>2016-05-15T12:49:00.000Z</time>
      </trkpt>
      <trkpt lat="43.7821" lon="7.24985">
        <ele>544</ele>
        <time>2016-05-15T12:49:02.000Z</time>
      </trkpt>
      <trkpt lat="43.78209" lon="7.24981">
        <ele>544</ele>
        <time>2016-05-15T12:49:05.000Z</time>
      </trkpt>
      <trkpt lat="43.78208" lon="7.24979">
        <ele>544</ele>
        <time>2016-05-15T12:49:07.000Z</time>
      </trkpt>
      <trkpt lat="43.78206" lon="7.24974">
        <ele>545</ele>
        <time>2016-05-15T12:49:12.000Z</time>
      </trkpt>
      <trkpt lat="43.78205" lon="7.2497">
        <ele>545</ele>
        <time>2016-05-15T12:49:15.000Z</time>
      </trkpt>
      <trkpt lat="43.78205" lon="7.24969">
        <ele>545</ele>
        <time>2016-05-15T12:49:16.000Z</time>
      </trkpt>
      <trkpt lat="43.78203" lon="7.24959">
        <ele>545</ele>
        <time>2016-05-15T12:49:24.000Z</time>
      </trkpt>
      <trkpt lat="43.78202" lon="7.24956">
        <ele>545</ele>
        <time>2016-05-15T12:49:26.000Z</time>
      </trkpt>
      <trkpt lat="43.782" lon="7.2495">
        <ele>545</ele>
        <time>2016-05-15T12:49:32.000Z</time>
      </trkpt>
      <trkpt lat="43.782" lon="7.24948">
        <ele>545</ele>
        <time>2016-05-15T12:49:34.000Z</time>
      </trkpt>
      <trkpt lat="43.78196" lon="7.24943">
        <ele>546</ele>
        <time>2016-05-15T12:49:39.000Z</time>
      </trkpt>
      <trkpt lat="43.78196" lon="7.24939">
        <ele>546</ele>
        <time>2016-05-15T12:49:42.000Z</time>
      </trkpt>
      <trkpt lat="43.78194" lon="7.24936">
        <ele>547</ele>
        <time>2016-05-15T12:49:46.000Z</time>
      </trkpt>
      <trkpt lat="43.78193" lon="7.24936">
        <ele>547</ele>
        <time>2016-05-15T12:49:47.000Z</time>
      </trkpt>
      <trkpt lat="43.78188" lon="7.24933">
        <ele>548</ele>
        <time>2016-05-15T12:49:54.000Z</time>
      </trkpt>
      <trkpt lat="43.78188" lon="7.24933">
        <ele>548</ele>
        <time>2016-05-15T12:49:55.000Z</time>
      </trkpt>
      <trkpt lat="43.78185" lon="7.2493">
        <ele>549</ele>
        <time>2016-05-15T12:50:00.000Z</time>
      </trkpt>
      <trkpt lat="43.78183" lon="7.24927">
        <ele>550</ele>
        <time>2016-05-15T12:50:03.000Z</time>
      </trkpt>
      <trkpt lat="43.78181" lon="7.24924">
        <ele>551</ele>
        <time>2016-05-15T12:50:06.000Z</time>
      </trkpt>
      <trkpt lat="43.78178" lon="7.24919">
        <ele>553</ele>
        <time>2016-05-15T12:50:11.000Z</time>
      </trkpt>
      <trkpt lat="43.78176" lon="7.24917">
        <ele>553</ele>
        <time>2016-05-15T12:50:13.000Z</time>
      </trkpt>
      <trkpt lat="43.78169" lon="7.24911">
        <ele>553</ele>
        <time>2016-05-15T12:50:21.000Z</time>
      </trkpt>
      <trkpt lat="43.78167" lon="7.24909">
        <ele>552</ele>
        <time>2016-05-15T12:50:24.000Z</time>
      </trkpt>
      <trkpt lat="43.78167" lon="7.24909">
        <ele>552</ele>
        <time>2016-05-15T12:50:28.000Z</time>
      </trkpt>
      <trkpt lat="43.78162" lon="7.24904">
        <ele>560</ele>
        <time>2016-05-15T12:50:33.000Z</time>
      </trkpt>
      <trkpt lat="43.78158" lon="7.24901">
        <ele>560</ele>
        <time>2016-05-15T12:50:37.000Z</time>
      </trkpt>
      <trkpt lat="43.78154" lon="7.24899">
        <ele>560</ele>
        <time>2016-05-15T12:50:40.000Z</time>
      </trkpt>
      <trkpt lat="43.78149" lon="7.24895">
        <ele>561</ele>
        <time>2016-05-15T12:50:44.000Z</time>
      </trkpt>
      <trkpt lat="43.78143" lon="7.24893">
        <ele>561</ele>
        <time>2016-05-15T12:50:49.000Z</time>
      </trkpt>
      <trkpt lat="43.7814" lon="7.24891">
        <ele>562</ele>
        <time>2016-05-15T12:50:51.000Z</time>
      </trkpt>
      <trkpt lat="43.78134" lon="7.24885">
        <ele>562</ele>
        <time>2016-05-15T12:50:57.000Z</time>
      </trkpt>
      <trkpt lat="43.78133" lon="7.24884">
        <ele>562</ele>
        <time>2016-05-15T12:50:58.000Z</time>
      </trkpt>
      <trkpt lat="43.78127" lon="7.24882">
        <ele>563</ele>
        <time>2016-05-15T12:51:03.000Z</time>
      </trkpt>
      <trkpt lat="43.78126" lon="7.24882">
        <ele>563</ele>
        <time>2016-05-15T12:51:05.000Z</time>
      </trkpt>
      <trkpt lat="43.78123" lon="7.24881">
        <ele>563</ele>
        <time>2016-05-15T12:51:09.000Z</time>
      </trkpt>
      <trkpt lat="43.78122" lon="7.2488">
        <ele>563</ele>
        <time>2016-05-15T12:51:11.000Z</time>
      </trkpt>
      <trkpt lat="43.78116" lon="7.24879">
        <ele>564</ele>
        <time>2016-05-15T12:51:18.000Z</time>
      </trkpt>
      <trkpt lat="43.78116" lon="7.24878">
        <ele>564</ele>
        <time>2016-05-15T12:51:19.000Z</time>
      </trkpt>
      <trkpt lat="43.7811" lon="7.24877">
        <ele>565</ele>
        <time>2016-05-15T12:51:26.000Z</time>
      </trkpt>
      <trkpt lat="43.78109" lon="7.24877">
        <ele>565</ele>
        <time>2016-05-15T12:51:27.000Z</time>
      </trkpt>
      <trkpt lat="43.78103" lon="7.24878">
        <ele>566</ele>
        <time>2016-05-15T12:51:35.000Z</time>
      </trkpt>
      <trkpt lat="43.78102" lon="7.24878">
        <ele>566</ele>
        <time>2016-05-15T12:51:36.000Z</time>
      </trkpt>
      <trkpt lat="43.78097" lon="7.24877">
        <ele>567</ele>
        <time>2016-05-15T12:51:43.000Z</time>
      </trkpt>
      <trkpt lat="43.78094" lon="7.24877">
        <ele>567</ele>
        <time>2016-05-15T12:51:49.000Z</time>
      </trkpt>
      <trkpt lat="43.78095" lon="7.24877">
        <ele>567</ele>
        <time>2016-05-15T12:51:50.000Z</time>
      </trkpt>
      <trkpt lat="43.78091" lon="7.24878">
        <ele>568</ele>
        <time>2016-05-15T12:51:56.000Z</time>
      </trkpt>
      <trkpt lat="43.78088" lon="7.2488">
        <ele>568</ele>
        <time>2016-05-15T12:52:01.000Z</time>
      </trkpt>
      <trkpt lat="43.78086" lon="7.24881">
        <ele>568</ele>
        <time>2016-05-15T12:52:04.000Z</time>
      </trkpt>
      <trkpt lat="43.78081" lon="7.24881">
        <ele>584</ele>
        <time>2016-05-15T12:52:11.000Z</time>
      </trkpt>
      <trkpt lat="43.7808" lon="7.24881">
        <ele>585</ele>
        <time>2016-05-15T12:52:12.000Z</time>
      </trkpt>
      <trkpt lat="43.78078" lon="7.2488">
        <ele>585</ele>
        <time>2016-05-15T12:52:17.000Z</time>
      </trkpt>
      <trkpt lat="43.78075" lon="7.2488">
        <ele>585</ele>
        <time>2016-05-15T12:52:20.000Z</time>
      </trkpt>
      <trkpt lat="43.78072" lon="7.24881">
        <ele>585</ele>
        <time>2016-05-15T12:52:25.000Z</time>
      </trkpt>
      <trkpt lat="43.78069" lon="7.24881">
        <ele>585</ele>
        <time>2016-05-15T12:52:29.000Z</time>
      </trkpt>
      <trkpt lat="43.78067" lon="7.24881">
        <ele>586</ele>
        <time>2016-05-15T12:52:32.000Z</time>
      </trkpt>
      <trkpt lat="43.78065" lon="7.24881">
        <ele>586</ele>
        <time>2016-05-15T12:52:37.000Z</time>
      </trkpt>
      <trkpt lat="43.78064" lon="7.24881">
        <ele>586</ele>
        <time>2016-05-15T12:52:39.000Z</time>
      </trkpt>
      <trkpt lat="43.7806" lon="7.24881">
        <ele>586</ele>
        <time>2016-05-15T12:52:44.000Z</time>
      </trkpt>
      <trkpt lat="43.78058" lon="7.2488">
        <ele>586</ele>
        <time>2016-05-15T12:52:46.000Z</time>
      </trkpt>
      <trkpt lat="43.78054" lon="7.24877">
        <ele>587</ele>
        <time>2016-05-15T12:52:51.000Z</time>
      </trkpt>
      <trkpt lat="43.7805" lon="7.24877">
        <ele>587</ele>
        <time>2016-05-15T12:52:58.000Z</time>
      </trkpt>
      <trkpt lat="43.78049" lon="7.24877">
        <ele>587</ele>
        <time>2016-05-15T12:52:59.000Z</time>
      </trkpt>
      <trkpt lat="43.78044" lon="7.24877">
        <ele>588</ele>
        <time>2016-05-15T12:53:06.000Z</time>
      </trkpt>
      <trkpt lat="43.78043" lon="7.24877">
        <ele>588</ele>
        <time>2016-05-15T12:53:08.000Z</time>
      </trkpt>
      <trkpt lat="43.78041" lon="7.24875">
        <ele>588</ele>
        <time>2016-05-15T12:53:12.000Z</time>
      </trkpt>
      <trkpt lat="43.78038" lon="7.24876">
        <ele>589</ele>
        <time>2016-05-15T12:53:17.000Z</time>
      </trkpt>
      <trkpt lat="43.78035" lon="7.24877">
        <ele>589</ele>
        <time>2016-05-15T12:53:22.000Z</time>
      </trkpt>
      <trkpt lat="43.78033" lon="7.24877">
        <ele>590</ele>
        <time>2016-05-15T12:53:25.000Z</time>
      </trkpt>
      <trkpt lat="43.7803" lon="7.24876">
        <ele>590</ele>
        <time>2016-05-15T12:53:30.000Z</time>
      </trkpt>
      <trkpt lat="43.78027" lon="7.24877">
        <ele>591</ele>
        <time>2016-05-15T12:53:35.000Z</time>
      </trkpt>
      <trkpt lat="43.78025" lon="7.24877">
        <ele>591</ele>
        <time>2016-05-15T12:53:37.000Z</time>
      </trkpt>
      <trkpt lat="43.78023" lon="7.24878">
        <ele>591</ele>
        <time>2016-05-15T12:53:41.000Z</time>
      </trkpt>
      <trkpt lat="43.78021" lon="7.24878">
        <ele>591</ele>
        <time>2016-05-15T12:53:43.000Z</time>
      </trkpt>
      <trkpt lat="43.78018" lon="7.24877">
        <ele>592</ele>
        <time>2016-05-15T12:53:47.000Z</time>
      </trkpt>
      <trkpt lat="43.78014" lon="7.24875">
        <ele>592</ele>
        <time>2016-05-15T12:53:51.000Z</time>
      </trkpt>
      <trkpt lat="43.78013" lon="7.24875">
        <ele>592</ele>
        <time>2016-05-15T12:53:52.000Z</time>
      </trkpt>
      <trkpt lat="43.78004" lon="7.24871">
        <ele>592</ele>
        <time>2016-05-15T12:54:00.000Z</time>
      </trkpt>
      <trkpt lat="43.77994" lon="7.2487">
        <ele>607</ele>
        <time>2016-05-15T12:54:07.000Z</time>
      </trkpt>
      <trkpt lat="43.7799" lon="7.24862">
        <ele>605</ele>
        <time>2016-05-15T12:54:14.000Z</time>
      </trkpt>
      <trkpt lat="43.77987" lon="7.24851">
        <ele>603</ele>
        <time>2016-05-15T12:54:22.000Z</time>
      </trkpt>
      <trkpt lat="43.77986" lon="7.24843">
        <ele>602</ele>
        <time>2016-05-15T12:54:27.000Z</time>
      </trkpt>
      <trkpt lat="43.77985" lon="7.24841">
        <ele>601</ele>
        <time>2016-05-15T12:54:29.000Z</time>
      </trkpt>
      <trkpt lat="43.77981" lon="7.2483">
        <ele>597</ele>
        <time>2016-05-15T12:54:37.000Z</time>
      </trkpt>
      <trkpt lat="43.7798" lon="7.24829">
        <ele>597</ele>
        <time>2016-05-15T12:54:39.000Z</time>
      </trkpt>
      <trkpt lat="43.77978" lon="7.24824">
        <ele>598</ele>
        <time>2016-05-15T12:54:45.000Z</time>
      </trkpt>
      <trkpt lat="43.77978" lon="7.24823">
        <ele>598</ele>
        <time>2016-05-15T12:54:47.000Z</time>
      </trkpt>
      <trkpt lat="43.77977" lon="7.24821">
        <ele>598</ele>
        <time>2016-05-15T12:54:49.000Z</time>
      </trkpt>
      <trkpt lat="43.77977" lon="7.24818">
        <ele>598</ele>
        <time>2016-05-15T12:54:55.000Z</time>
      </trkpt>
      <trkpt lat="43.77976" lon="7.24816">
        <ele>598</ele>
        <time>2016-05-15T12:54:58.000Z</time>
      </trkpt>
      <trkpt lat="43.77974" lon="7.24812">
        <ele>599</ele>
        <time>2016-05-15T12:55:03.000Z</time>
      </trkpt>
      <trkpt lat="43.77973" lon="7.24808">
        <ele>599</ele>
        <time>2016-05-15T12:55:07.000Z</time>
      </trkpt>
      <trkpt lat="43.77972" lon="7.24806">
        <ele>599</ele>
        <time>2016-05-15T12:55:10.000Z</time>
      </trkpt>
      <trkpt lat="43.77971" lon="7.24803">
        <ele>599</ele>
        <time>2016-05-15T12:55:14.000Z</time>
      </trkpt>
      <trkpt lat="43.77971" lon="7.24801">
        <ele>599</ele>
        <time>2016-05-15T12:55:17.000Z</time>
      </trkpt>
      <trkpt lat="43.77969" lon="7.24796">
        <ele>599</ele>
        <time>2016-05-15T12:55:22.000Z</time>
      </trkpt>
      <trkpt lat="43.77968" lon="7.24795">
        <ele>599</ele>
        <time>2016-05-15T12:55:26.000Z</time>
      </trkpt>
      <trkpt lat="43.77966" lon="7.24795">
        <ele>600</ele>
        <time>2016-05-15T12:55:32.000Z</time>
      </trkpt>
      <trkpt lat="43.77967" lon="7.24798">
        <ele>600</ele>
        <time>2016-05-15T12:55:42.000Z</time>
      </trkpt>
      <trkpt lat="43.77965" lon="7.24803">
        <ele>600</ele>
        <time>2016-05-15T12:55:49.000Z</time>
      </trkpt>
      <trkpt lat="43.77964" lon="7.24804">
        <ele>600</ele>
        <time>2016-05-15T12:55:50.000Z</time>
      </trkpt>
      <trkpt lat="43.77961" lon="7.24806">
        <ele>601</ele>
        <time>2016-05-15T12:55:57.000Z</time>
      </trkpt>
      <trkpt lat="43.77961" lon="7.24807">
        <ele>601</ele>
        <time>2016-05-15T12:55:58.000Z</time>
      </trkpt>
      <trkpt lat="43.77959" lon="7.2481">
        <ele>601</ele>
        <time>2016-05-15T12:56:02.000Z</time>
      </trkpt>
      <trkpt lat="43.77959" lon="7.2481">
        <ele>601</ele>
        <time>2016-05-15T12:56:03.000Z</time>
      </trkpt>
      <trkpt lat="43.77956" lon="7.24814">
        <ele>602</ele>
        <time>2016-05-15T12:56:08.000Z</time>
      </trkpt>
      <trkpt lat="43.77955" lon="7.24816">
        <ele>602</ele>
        <time>2016-05-15T12:56:10.000Z</time>
      </trkpt>
      <trkpt lat="43.77954" lon="7.24817">
        <ele>602</ele>
        <time>2016-05-15T12:56:12.000Z</time>
      </trkpt>
      <trkpt lat="43.77952" lon="7.24821">
        <ele>603</ele>
        <time>2016-05-15T12:56:17.000Z</time>
      </trkpt>
      <trkpt lat="43.7795" lon="7.24822">
        <ele>604</ele>
        <time>2016-05-15T12:56:21.000Z</time>
      </trkpt>
      <trkpt lat="43.77948" lon="7.2482">
        <ele>604</ele>
        <time>2016-05-15T12:56:25.000Z</time>
      </trkpt>
      <trkpt lat="43.77947" lon="7.2482">
        <ele>604</ele>
        <time>2016-05-15T12:56:28.000Z</time>
      </trkpt>
      <trkpt lat="43.77944" lon="7.2482">
        <ele>605</ele>
        <time>2016-05-15T12:56:32.000Z</time>
      </trkpt>
      <trkpt lat="43.77942" lon="7.24819">
        <ele>605</ele>
        <time>2016-05-15T12:56:36.000Z</time>
      </trkpt>
      <trkpt lat="43.77939" lon="7.24819">
        <ele>606</ele>
        <time>2016-05-15T12:56:41.000Z</time>
      </trkpt>
      <trkpt lat="43.77938" lon="7.24819">
        <ele>606</ele>
        <time>2016-05-15T12:56:43.000Z</time>
      </trkpt>
      <trkpt lat="43.77936" lon="7.24816">
        <ele>606</ele>
        <time>2016-05-15T12:56:47.000Z</time>
      </trkpt>
      <trkpt lat="43.77935" lon="7.24815">
        <ele>606</ele>
        <time>2016-05-15T12:56:49.000Z</time>
      </trkpt>
      <trkpt lat="43.77933" lon="7.24811">
        <ele>606</ele>
        <time>2016-05-15T12:56:55.000Z</time>
      </trkpt>
      <trkpt lat="43.77932" lon="7.24811">
        <ele>606</ele>
        <time>2016-05-15T12:56:58.000Z</time>
      </trkpt>
      <trkpt lat="43.77929" lon="7.24812">
        <ele>607</ele>
        <time>2016-05-15T12:57:05.000Z</time>
      </trkpt>
      <trkpt lat="43.77927" lon="7.24814">
        <ele>608</ele>
        <time>2016-05-15T12:57:08.000Z</time>
      </trkpt>
      <trkpt lat="43.77925" lon="7.24813">
        <ele>608</ele>
        <time>2016-05-15T12:57:12.000Z</time>
      </trkpt>
      <trkpt lat="43.77923" lon="7.24812">
        <ele>608</ele>
        <time>2016-05-15T12:57:16.000Z</time>
      </trkpt>
      <trkpt lat="43.77922" lon="7.24812">
        <ele>608</ele>
        <time>2016-05-15T12:57:17.000Z</time>
      </trkpt>
      <trkpt lat="43.77918" lon="7.24812">
        <ele>608</ele>
        <time>2016-05-15T12:57:24.000Z</time>
      </trkpt>
      <trkpt lat="43.77917" lon="7.24811">
        <ele>608</ele>
        <time>2016-05-15T12:57:26.000Z</time>
      </trkpt>
      <trkpt lat="43.77913" lon="7.24809">
        <ele>617</ele>
        <time>2016-05-15T12:57:31.000Z</time>
      </trkpt>
      <trkpt lat="43.77913" lon="7.24809">
        <ele>617</ele>
        <time>2016-05-15T12:57:32.000Z</time>
      </trkpt>
      <trkpt lat="43.7791" lon="7.24809">
        <ele>618</ele>
        <time>2016-05-15T12:57:36.000Z</time>
      </trkpt>
      <trkpt lat="43.77905" lon="7.24812">
        <ele>618</ele>
        <time>2016-05-15T12:57:42.000Z</time>
      </trkpt>
      <trkpt lat="43.77905" lon="7.24812">
        <ele>618</ele>
        <time>2016-05-15T12:57:43.000Z</time>
      </trkpt>
      <trkpt lat="43.77903" lon="7.24816">
        <ele>618</ele>
        <time>2016-05-15T12:57:50.000Z</time>
      </trkpt>
      <trkpt lat="43.77902" lon="7.24816">
        <ele>618</ele>
        <time>2016-05-15T12:57:51.000Z</time>
      </trkpt>
      <trkpt lat="43.77898" lon="7.2482">
        <ele>618</ele>
        <time>2016-05-15T12:57:59.000Z</time>
      </trkpt>
      <trkpt lat="43.77895" lon="7.24822">
        <ele>619</ele>
        <time>2016-05-15T12:58:05.000Z</time>
      </trkpt>
      <trkpt lat="43.77894" lon="7.24823">
        <ele>619</ele>
        <time>2016-05-15T12:58:08.000Z</time>
      </trkpt>
      <trkpt lat="43.77892" lon="7.24825">
        <ele>619</ele>
        <time>2016-05-15T12:58:12.000Z</time>
      </trkpt>
      <trkpt lat="43.77889" lon="7.24827">
        <ele>619</ele>
        <time>2016-05-15T12:58:17.000Z</time>
      </trkpt>
      <trkpt lat="43.77886" lon="7.24829">
        <ele>620</ele>
        <time>2016-05-15T12:58:24.000Z</time>
      </trkpt>
      <trkpt lat="43.77885" lon="7.24832">
        <ele>620</ele>
        <time>2016-05-15T12:58:27.000Z</time>
      </trkpt>
      <trkpt lat="43.77883" lon="7.24833">
        <ele>620</ele>
        <time>2016-05-15T12:58:30.000Z</time>
      </trkpt>
      <trkpt lat="43.77881" lon="7.24835">
        <ele>629</ele>
        <time>2016-05-15T12:58:35.000Z</time>
      </trkpt>
      <trkpt lat="43.77879" lon="7.24837">
        <ele>629</ele>
        <time>2016-05-15T12:58:39.000Z</time>
      </trkpt>
      <trkpt lat="43.77876" lon="7.24838">
        <ele>630</ele>
        <time>2016-05-15T12:58:44.000Z</time>
      </trkpt>
      <trkpt lat="43.77874" lon="7.24839">
        <ele>630</ele>
        <time>2016-05-15T12:58:48.000Z</time>
      </trkpt>
      <trkpt lat="43.77871" lon="7.2484">
        <ele>630</ele>
        <time>2016-05-15T12:58:53.000Z</time>
      </trkpt>
      <trkpt lat="43.77868" lon="7.24842">
        <ele>631</ele>
        <time>2016-05-15T12:58:57.000Z</time>
      </trkpt>
      <trkpt lat="43.77866" lon="7.24844">
        <ele>631</ele>
        <time>2016-05-15T12:59:01.000Z</time>
      </trkpt>
      <trkpt lat="43.77866" lon="7.24844">
        <ele>631</ele>
        <time>2016-05-15T12:59:02.000Z</time>
      </trkpt>
      <trkpt lat="43.77862" lon="7.24847">
        <ele>632</ele>
        <time>2016-05-15T12:59:08.000Z</time>
      </trkpt>
      <trkpt lat="43.7786" lon="7.24848">
        <ele>632</ele>
        <time>2016-05-15T12:59:11.000Z</time>
      </trkpt>
      <trkpt lat="43.77858" lon="7.2485">
        <ele>632</ele>
        <time>2016-05-15T12:59:16.000Z</time>
      </trkpt>
      <trkpt lat="43.77857" lon="7.24852">
        <ele>633</ele>
        <time>2016-05-15T12:59:19.000Z</time>
      </trkpt>
      <trkpt lat="43.77856" lon="7.24853">
        <ele>633</ele>
        <time>2016-05-15T12:59:21.000Z</time>
      </trkpt>
      <trkpt lat="43.77855" lon="7.24857">
        <ele>633</ele>
        <time>2016-05-15T12:59:27.000Z</time>
      </trkpt>
      <trkpt lat="43.77852" lon="7.24859">
        <ele>633</ele>
        <time>2016-05-15T12:59:31.000Z</time>
      </trkpt>
      <trkpt lat="43.7785" lon="7.2486">
        <ele>633</ele>
        <time>2016-05-15T12:59:34.000Z</time>
      </trkpt>
      <trkpt lat="43.77848" lon="7.24862">
        <ele>634</ele>
        <time>2016-05-15T12:59:38.000Z</time>
      </trkpt>
      <trkpt lat="43.77846" lon="7.24863">
        <ele>634</ele>
        <time>2016-05-15T12:59:42.000Z</time>
      </trkpt>
      <trkpt lat="43.77844" lon="7.24864">
        <ele>634</ele>
        <time>2016-05-15T12:59:45.000Z</time>
      </trkpt>
      <trkpt lat="43.7784" lon="7.24865">
        <ele>634</ele>
        <time>2016-05-15T12:59:50.000Z</time>
      </trkpt>
      <trkpt lat="43.77839" lon="7.24865">
        <ele>634</ele>
        <time>2016-05-15T12:59:52.000Z</time>
      </trkpt>
      <trkpt lat="43.77836" lon="7.24867">
        <ele>635</ele>
        <time>2016-05-15T12:59:58.000Z</time>
      </trkpt>
      <trkpt lat="43.77835" lon="7.24867">
        <ele>635</ele>
        <time>2016-05-15T12:59:59.000Z</time>
      </trkpt>
      <trkpt lat="43.7783" lon="7.2487">
        <ele>643</ele>
        <time>2016-05-15T13:00:07.000Z</time>
      </trkpt>
      <trkpt lat="43.77826" lon="7.24872">
        <ele>644</ele>
        <time>2016-05-15T13:00:14.000Z</time>
      </trkpt>
      <trkpt lat="43.77825" lon="7.24872">
        <ele>644</ele>
        <time>2016-05-15T13:00:15.000Z</time>
      </trkpt>
      <trkpt lat="43.77822" lon="7.24875">
        <ele>644</ele>
        <time>2016-05-15T13:00:21.000Z</time>
      </trkpt>
      <trkpt lat="43.77821" lon="7.24876">
        <ele>644</ele>
        <time>2016-05-15T13:00:23.000Z</time>
      </trkpt>
      <trkpt lat="43.77819" lon="7.24878">
        <ele>644</ele>
        <time>2016-05-15T13:00:28.000Z</time>
      </trkpt>
      <trkpt lat="43.77818" lon="7.2488">
        <ele>645</ele>
        <time>2016-05-15T13:00:32.000Z</time>
      </trkpt>
      <trkpt lat="43.77815" lon="7.24879">
        <ele>645</ele>
        <time>2016-05-15T13:00:36.000Z</time>
      </trkpt>
      <trkpt lat="43.77814" lon="7.24878">
        <ele>645</ele>
        <time>2016-05-15T13:00:38.000Z</time>
      </trkpt>
      <trkpt lat="43.77812" lon="7.24878">
        <ele>645</ele>
        <time>2016-05-15T13:00:43.000Z</time>
      </trkpt>
      <trkpt lat="43.77809" lon="7.24878">
        <ele>645</ele>
        <time>2016-05-15T13:00:46.000Z</time>
      </trkpt>
      <trkpt lat="43.77808" lon="7.24878">
        <ele>645</ele>
        <time>2016-05-15T13:00:47.000Z</time>
      </trkpt>
      <trkpt lat="43.77805" lon="7.24878">
        <ele>645</ele>
        <time>2016-05-15T13:00:53.000Z</time>
      </trkpt>
      <trkpt lat="43.77803" lon="7.24877">
        <ele>645</ele>
        <time>2016-05-15T13:00:56.000Z</time>
      </trkpt>
      <trkpt lat="43.77798" lon="7.24878">
        <ele>645</ele>
        <time>2016-05-15T13:01:02.000Z</time>
      </trkpt>
      <trkpt lat="43.77795" lon="7.24879">
        <ele>645</ele>
        <time>2016-05-15T13:01:05.000Z</time>
      </trkpt>
      <trkpt lat="43.77793" lon="7.24879">
        <ele>645</ele>
        <time>2016-05-15T13:01:07.000Z</time>
      </trkpt>
      <trkpt lat="43.77791" lon="7.24881">
        <ele>646</ele>
        <time>2016-05-15T13:01:10.000Z</time>
      </trkpt>
      <trkpt lat="43.7779" lon="7.24882">
        <ele>646</ele>
        <time>2016-05-15T13:01:11.000Z</time>
      </trkpt>
      <trkpt lat="43.77789" lon="7.24883">
        <ele>646</ele>
        <time>2016-05-15T13:01:13.000Z</time>
      </trkpt>
      <trkpt lat="43.77787" lon="7.24884">
        <ele>646</ele>
        <time>2016-05-15T13:01:16.000Z</time>
      </trkpt>
      <trkpt lat="43.77785" lon="7.24885">
        <ele>646</ele>
        <time>2016-05-15T13:01:18.000Z</time>
      </trkpt>
      <trkpt lat="43.77777" lon="7.24893">
        <ele>648</ele>
        <time>2016-05-15T13:01:24.000Z</time>
      </trkpt>
      <trkpt lat="43.7777" lon="7.249">
        <ele>650</ele>
        <time>2016-05-15T13:01:29.000Z</time>
      </trkpt>
      <trkpt lat="43.77768" lon="7.24901">
        <ele>651</ele>
        <time>2016-05-15T13:01:30.000Z</time>
      </trkpt>
      <trkpt lat="43.77766" lon="7.24901">
        <ele>651</ele>
        <time>2016-05-15T13:01:31.000Z</time>
      </trkpt>
      <trkpt lat="43.77752" lon="7.24905">
        <ele>654</ele>
        <time>2016-05-15T13:01:39.000Z</time>
      </trkpt>
      <trkpt lat="43.77745" lon="7.24907">
        <ele>656</ele>
        <time>2016-05-15T13:01:42.000Z</time>
      </trkpt>
      <trkpt lat="43.77733" lon="7.24911">
        <ele>654</ele>
        <time>2016-05-15T13:01:46.000Z</time>
      </trkpt>
      <trkpt lat="43.77706" lon="7.24923">
        <ele>667</ele>
        <time>2016-05-15T13:01:55.000Z</time>
      </trkpt>
      <trkpt lat="43.77686" lon="7.24921">
        <ele>665</ele>
        <time>2016-05-15T13:02:01.000Z</time>
      </trkpt>
      <trkpt lat="43.77666" lon="7.24909">
        <ele>656</ele>
        <time>2016-05-15T13:02:09.000Z</time>
      </trkpt>
      <trkpt lat="43.77657" lon="7.24908">
        <ele>655</ele>
        <time>2016-05-15T13:02:14.000Z</time>
      </trkpt>
      <trkpt lat="43.77654" lon="7.24909">
        <ele>654</ele>
        <time>2016-05-15T13:02:16.000Z</time>
      </trkpt>
      <trkpt lat="43.77652" lon="7.24911">
        <ele>654</ele>
        <time>2016-05-15T13:02:18.000Z</time>
      </trkpt>
      <trkpt lat="43.77643" lon="7.2491">
        <ele>653</ele>
        <time>2016-05-15T13:02:24.000Z</time>
      </trkpt>
      <trkpt lat="43.77635" lon="7.24909">
        <ele>653</ele>
        <time>2016-05-15T13:02:30.000Z</time>
      </trkpt>
      <trkpt lat="43.77634" lon="7.24909">
        <ele>653</ele>
        <time>2016-05-15T13:02:31.000Z</time>
      </trkpt>
      <trkpt lat="43.77626" lon="7.24911">
        <ele>653</ele>
        <time>2016-05-15T13:02:37.000Z</time>
      </trkpt>
      <trkpt lat="43.77624" lon="7.24911">
        <ele>653</ele>
        <time>2016-05-15T13:02:38.000Z</time>
      </trkpt>
      <trkpt lat="43.77618" lon="7.24911">
        <ele>653</ele>
        <time>2016-05-15T13:02:42.000Z</time>
      </trkpt>
      <trkpt lat="43.7761" lon="7.24911">
        <ele>654</ele>
        <time>2016-05-15T13:02:47.000Z</time>
      </trkpt>
      <trkpt lat="43.77595" lon="7.24914">
        <ele>657</ele>
        <time>2016-05-15T13:02:55.000Z</time>
      </trkpt>
      <trkpt lat="43.77575" lon="7.2492">
        <ele>664</ele>
        <time>2016-05-15T13:03:02.000Z</time>
      </trkpt>
      <trkpt lat="43.77569" lon="7.24921">
        <ele>665</ele>
        <time>2016-05-15T13:03:06.000Z</time>
      </trkpt>
      <trkpt lat="43.77568" lon="7.24921">
        <ele>665</ele>
        <time>2016-05-15T13:03:07.000Z</time>
      </trkpt>
      <trkpt lat="43.77569" lon="7.24921">
        <ele>665</ele>
        <time>2016-05-15T13:03:13.000Z</time>
      </trkpt>
      <trkpt lat="43.77566" lon="7.24924">
        <ele>666</ele>
        <time>2016-05-15T13:03:19.000Z</time>
      </trkpt>
      <trkpt lat="43.77564" lon="7.24924">
        <ele>666</ele>
        <time>2016-05-15T13:03:22.000Z</time>
      </trkpt>
      <trkpt lat="43.77562" lon="7.24925">
        <ele>666</ele>
        <time>2016-05-15T13:03:23.000Z</time>
      </trkpt>
      <trkpt lat="43.77551" lon="7.24928">
        <ele>667</ele>
        <time>2016-05-15T13:03:28.000Z</time>
      </trkpt>
      <trkpt lat="43.77539" lon="7.24931">
        <ele>667</ele>
        <time>2016-05-15T13:03:33.000Z</time>
      </trkpt>
      <trkpt lat="43.77537" lon="7.24931">
        <ele>667</ele>
        <time>2016-05-15T13:03:34.000Z</time>
      </trkpt>
      <trkpt lat="43.77529" lon="7.24933">
        <ele>667</ele>
        <time>2016-05-15T13:03:37.000Z</time>
      </trkpt>
      <trkpt lat="43.77524" lon="7.24934">
        <ele>666</ele>
        <time>2016-05-15T13:03:39.000Z</time>
      </trkpt>
      <trkpt lat="43.77507" lon="7.24938">
        <ele>665</ele>
        <time>2016-05-15T13:03:45.000Z</time>
      </trkpt>
      <trkpt lat="43.77487" lon="7.24941">
        <ele>665</ele>
        <time>2016-05-15T13:03:52.000Z</time>
      </trkpt>
      <trkpt lat="43.77469" lon="7.24945">
        <ele>667</ele>
        <time>2016-05-15T13:03:59.000Z</time>
      </trkpt>
      <trkpt lat="43.77462" lon="7.24946">
        <ele>667</ele>
        <time>2016-05-15T13:04:02.000Z</time>
      </trkpt>
      <trkpt lat="43.77455" lon="7.24945">
        <ele>667</ele>
        <time>2016-05-15T13:04:05.000Z</time>
      </trkpt>
      <trkpt lat="43.77449" lon="7.24942">
        <ele>666</ele>
        <time>2016-05-15T13:04:08.000Z</time>
      </trkpt>
      <trkpt lat="43.7744" lon="7.24942">
        <ele>666</ele>
        <time>2016-05-15T13:04:12.000Z</time>
      </trkpt>
      <trkpt lat="43.77427" lon="7.24945">
        <ele>666</ele>
        <time>2016-05-15T13:04:18.000Z</time>
      </trkpt>
      <trkpt lat="43.77425" lon="7.24945">
        <ele>666</ele>
        <time>2016-05-15T13:04:19.000Z</time>
      </trkpt>
      <trkpt lat="43.77417" lon="7.24948">
        <ele>667</ele>
        <time>2016-05-15T13:04:23.000Z</time>
      </trkpt>
      <trkpt lat="43.77412" lon="7.24949">
        <ele>668</ele>
        <time>2016-05-15T13:04:27.000Z</time>
      </trkpt>
      <trkpt lat="43.77408" lon="7.2495">
        <ele>668</ele>
        <time>2016-05-15T13:04:32.000Z</time>
      </trkpt>
      <trkpt lat="43.77404" lon="7.2495">
        <ele>668</ele>
        <time>2016-05-15T13:04:37.000Z</time>
      </trkpt>
      <trkpt lat="43.77403" lon="7.24949">
        <ele>668</ele>
        <time>2016-05-15T13:04:38.000Z</time>
      </trkpt>
      <trkpt lat="43.77402" lon="7.24949">
        <ele>668</ele>
        <time>2016-05-15T13:04:39.000Z</time>
      </trkpt>
      <trkpt lat="43.77394" lon="7.2495">
        <ele>669</ele>
        <time>2016-05-15T13:04:43.000Z</time>
      </trkpt>
      <trkpt lat="43.77392" lon="7.2495">
        <ele>669</ele>
        <time>2016-05-15T13:04:44.000Z</time>
      </trkpt>
      <trkpt lat="43.77381" lon="7.24949">
        <ele>669</ele>
        <time>2016-05-15T13:04:50.000Z</time>
      </trkpt>
      <trkpt lat="43.77381" lon="7.2495">
        <ele>669</ele>
        <time>2016-05-15T13:04:51.000Z</time>
      </trkpt>
      <trkpt lat="43.7738" lon="7.2495">
        <ele>669</ele>
        <time>2016-05-15T13:04:54.000Z</time>
      </trkpt>
      <trkpt lat="43.77377" lon="7.24951">
        <ele>670</ele>
        <time>2016-05-15T13:05:02.000Z</time>
      </trkpt>
      <trkpt lat="43.77371" lon="7.24953">
        <ele>670</ele>
        <time>2016-05-15T13:05:10.000Z</time>
      </trkpt>
      <trkpt lat="43.77367" lon="7.24954">
        <ele>670</ele>
        <time>2016-05-15T13:05:15.000Z</time>
      </trkpt>
      <trkpt lat="43.77363" lon="7.24956">
        <ele>671</ele>
        <time>2016-05-15T13:05:20.000Z</time>
      </trkpt>
      <trkpt lat="43.7736" lon="7.24957">
        <ele>671</ele>
        <time>2016-05-15T13:05:25.000Z</time>
      </trkpt>
      <trkpt lat="43.77358" lon="7.24958">
        <ele>671</ele>
        <time>2016-05-15T13:05:28.000Z</time>
      </trkpt>
      <trkpt lat="43.77354" lon="7.24959">
        <ele>671</ele>
        <time>2016-05-15T13:05:32.000Z</time>
      </trkpt>
      <trkpt lat="43.77351" lon="7.2496">
        <ele>671</ele>
        <time>2016-05-15T13:05:36.000Z</time>
      </trkpt>
      <trkpt lat="43.77345" lon="7.24961">
        <ele>672</ele>
        <time>2016-05-15T13:05:43.000Z</time>
      </trkpt>
      <trkpt lat="43.77344" lon="7.24962">
        <ele>672</ele>
        <time>2016-05-15T13:05:45.000Z</time>
      </trkpt>
      <trkpt lat="43.7734" lon="7.24964">
        <ele>672</ele>
        <time>2016-05-15T13:05:50.000Z</time>
      </trkpt>
      <trkpt lat="43.77338" lon="7.24964">
        <ele>673</ele>
        <time>2016-05-15T13:05:52.000Z</time>
      </trkpt>
      <trkpt lat="43.77335" lon="7.24963">
        <ele>672</ele>
        <time>2016-05-15T13:05:55.000Z</time>
      </trkpt>
      <trkpt lat="43.77334" lon="7.24963">
        <ele>672</ele>
        <time>2016-05-15T13:05:56.000Z</time>
      </trkpt>
      <trkpt lat="43.77329" lon="7.24964">
        <ele>673</ele>
        <time>2016-05-15T13:06:01.000Z</time>
      </trkpt>
      <trkpt lat="43.77327" lon="7.24965">
        <ele>673</ele>
        <time>2016-05-15T13:06:04.000Z</time>
      </trkpt>
      <trkpt lat="43.77318" lon="7.24967">
        <ele>674</ele>
        <time>2016-05-15T13:06:14.000Z</time>
      </trkpt>
      <trkpt lat="43.77317" lon="7.24967">
        <ele>673</ele>
        <time>2016-05-15T13:06:15.000Z</time>
      </trkpt>
      <trkpt lat="43.7731" lon="7.24969">
        <ele>674</ele>
        <time>2016-05-15T13:06:22.000Z</time>
      </trkpt>
      <trkpt lat="43.77309" lon="7.24969">
        <ele>674</ele>
        <time>2016-05-15T13:06:23.000Z</time>
      </trkpt>
      <trkpt lat="43.77301" lon="7.24972">
        <ele>674</ele>
        <time>2016-05-15T13:06:31.000Z</time>
      </trkpt>
      <trkpt lat="43.77297" lon="7.24973">
        <ele>674</ele>
        <time>2016-05-15T13:06:35.000Z</time>
      </trkpt>
      <trkpt lat="43.77293" lon="7.24973">
        <ele>674</ele>
        <time>2016-05-15T13:06:38.000Z</time>
      </trkpt>
      <trkpt lat="43.77288" lon="7.24974">
        <ele>674</ele>
        <time>2016-05-15T13:06:44.000Z</time>
      </trkpt>
      <trkpt lat="43.77286" lon="7.24974">
        <ele>674</ele>
        <time>2016-05-15T13:06:45.000Z</time>
      </trkpt>
      <trkpt lat="43.77275" lon="7.24974">
        <ele>675</ele>
        <time>2016-05-15T13:06:51.000Z</time>
      </trkpt>
      <trkpt lat="43.77253" lon="7.24977">
        <ele>677</ele>
        <time>2016-05-15T13:07:00.000Z</time>
      </trkpt>
      <trkpt lat="43.77249" lon="7.24978">
        <ele>676</ele>
        <time>2016-05-15T13:07:02.000Z</time>
      </trkpt>
      <trkpt lat="43.77237" lon="7.24981">
        <ele>676</ele>
        <time>2016-05-15T13:07:07.000Z</time>
      </trkpt>
      <trkpt lat="43.7722" lon="7.24987">
        <ele>675</ele>
        <time>2016-05-15T13:07:14.000Z</time>
      </trkpt>
      <trkpt lat="43.77212" lon="7.24988">
        <ele>675</ele>
        <time>2016-05-15T13:07:17.000Z</time>
      </trkpt>
      <trkpt lat="43.77202" lon="7.24989">
        <ele>675</ele>
        <time>2016-05-15T13:07:20.000Z</time>
      </trkpt>
      <trkpt lat="43.77179" lon="7.2499">
        <ele>678</ele>
        <time>2016-05-15T13:07:27.000Z</time>
      </trkpt>
      <trkpt lat="43.7716" lon="7.24993">
        <ele>680</ele>
        <time>2016-05-15T13:07:33.000Z</time>
      </trkpt>
      <trkpt lat="43.77139" lon="7.24993">
        <ele>675</ele>
        <time>2016-05-15T13:07:39.000Z</time>
      </trkpt>
      <trkpt lat="43.77119" lon="7.24993">
        <ele>674</ele>
        <time>2016-05-15T13:07:45.000Z</time>
      </trkpt>
      <trkpt lat="43.771" lon="7.24995">
        <ele>676</ele>
        <time>2016-05-15T13:07:51.000Z</time>
      </trkpt>
      <trkpt lat="43.77083" lon="7.24995">
        <ele>680</ele>
        <time>2016-05-15T13:07:56.000Z</time>
      </trkpt>
      <trkpt lat="43.77071" lon="7.24987">
        <ele>677</ele>
        <time>2016-05-15T13:08:00.000Z</time>
      </trkpt>
      <trkpt lat="43.7706" lon="7.24979">
        <ele>675</ele>
        <time>2016-05-15T13:08:04.000Z</time>
      </trkpt>
      <trkpt lat="43.77046" lon="7.24971">
        <ele>673</ele>
        <time>2016-05-15T13:08:10.000Z</time>
      </trkpt>
      <trkpt lat="43.77033" lon="7.24966">
        <ele>673</ele>
        <time>2016-05-15T13:08:15.000Z</time>
      </trkpt>
      <trkpt lat="43.77025" lon="7.2497">
        <ele>674</ele>
        <time>2016-05-15T13:08:20.000Z</time>
      </trkpt>
      <trkpt lat="43.77023" lon="7.24971">
        <ele>674</ele>
        <time>2016-05-15T13:08:22.000Z</time>
      </trkpt>
      <trkpt lat="43.7702" lon="7.24974">
        <ele>675</ele>
        <time>2016-05-15T13:08:24.000Z</time>
      </trkpt>
      <trkpt lat="43.77018" lon="7.24976">
        <ele>675</ele>
        <time>2016-05-15T13:08:29.000Z</time>
      </trkpt>
      <trkpt lat="43.77014" lon="7.24978">
        <ele>676</ele>
        <time>2016-05-15T13:08:35.000Z</time>
      </trkpt>
      <trkpt lat="43.77011" lon="7.2498">
        <ele>677</ele>
        <time>2016-05-15T13:08:37.000Z</time>
      </trkpt>
      <trkpt lat="43.77003" lon="7.24984">
        <ele>679</ele>
        <time>2016-05-15T13:08:41.000Z</time>
      </trkpt>
      <trkpt lat="43.76983" lon="7.24994">
        <ele>677</ele>
        <time>2016-05-15T13:08:49.000Z</time>
      </trkpt>
      <trkpt lat="43.7696" lon="7.25002">
        <ele>683</ele>
        <time>2016-05-15T13:08:55.000Z</time>
      </trkpt>
      <trkpt lat="43.76957" lon="7.25003">
        <ele>683</ele>
        <time>2016-05-15T13:08:56.000Z</time>
      </trkpt>
      <trkpt lat="43.76949" lon="7.25005">
        <ele>682</ele>
        <time>2016-05-15T13:08:59.000Z</time>
      </trkpt>
      <trkpt lat="43.76944" lon="7.25007">
        <ele>681</ele>
        <time>2016-05-15T13:09:01.000Z</time>
      </trkpt>
      <trkpt lat="43.76942" lon="7.25007">
        <ele>681</ele>
        <time>2016-05-15T13:09:02.000Z</time>
      </trkpt>
      <trkpt lat="43.76932" lon="7.2501">
        <ele>679</ele>
        <time>2016-05-15T13:09:05.000Z</time>
      </trkpt>
      <trkpt lat="43.76928" lon="7.25012">
        <ele>679</ele>
        <time>2016-05-15T13:09:06.000Z</time>
      </trkpt>
      <trkpt lat="43.7692" lon="7.25018">
        <ele>679</ele>
        <time>2016-05-15T13:09:08.000Z</time>
      </trkpt>
      <trkpt lat="43.76909" lon="7.25025">
        <ele>672</ele>
        <time>2016-05-15T13:09:11.000Z</time>
      </trkpt>
      <trkpt lat="43.76895" lon="7.25032">
        <ele>672</ele>
        <time>2016-05-15T13:09:14.000Z</time>
      </trkpt>
      <trkpt lat="43.76884" lon="7.25034">
        <ele>671</ele>
        <time>2016-05-15T13:09:16.000Z</time>
      </trkpt>
      <trkpt lat="43.76873" lon="7.25035">
        <ele>671</ele>
        <time>2016-05-15T13:09:18.000Z</time>
      </trkpt>
      <trkpt lat="43.76857" lon="7.25034">
        <ele>670</ele>
        <time>2016-05-15T13:09:21.000Z</time>
      </trkpt>
      <trkpt lat="43.7685" lon="7.25034">
        <ele>669</ele>
        <time>2016-05-15T13:09:23.000Z</time>
      </trkpt>
      <trkpt lat="43.76847" lon="7.25037">
        <ele>669</ele>
        <time>2016-05-15T13:09:25.000Z</time>
      </trkpt>
      <trkpt lat="43.76847" lon="7.25036">
        <ele>669</ele>
        <time>2016-05-15T13:09:27.000Z</time>
      </trkpt>
      <trkpt lat="43.76847" lon="7.25036">
        <ele>669</ele>
        <time>2016-05-15T13:09:29.000Z</time>
      </trkpt>
      <trkpt lat="43.76847" lon="7.25036">
        <ele>669</ele>
        <time>2016-05-15T13:09:30.000Z</time>
      </trkpt>
      <trkpt lat="43.76846" lon="7.25035">
        <ele>669</ele>
        <time>2016-05-15T13:09:38.000Z</time>
      </trkpt>
      <trkpt lat="43.76845" lon="7.25037">
        <ele>669</ele>
        <time>2016-05-15T13:09:41.000Z</time>
      </trkpt>
      <trkpt lat="43.7684" lon="7.2504">
        <ele>669</ele>
        <time>2016-05-15T13:09:43.000Z</time>
      </trkpt>
      <trkpt lat="43.76823" lon="7.25047">
        <ele>662</ele>
        <time>2016-05-15T13:09:47.000Z</time>
      </trkpt>
      <trkpt lat="43.76818" lon="7.25048">
        <ele>662</ele>
        <time>2016-05-15T13:09:48.000Z</time>
      </trkpt>
      <trkpt lat="43.76814" lon="7.25046">
        <ele>662</ele>
        <time>2016-05-15T13:09:49.000Z</time>
      </trkpt>
      <trkpt lat="43.76806" lon="7.2504">
        <ele>662</ele>
        <time>2016-05-15T13:09:51.000Z</time>
      </trkpt>
      <trkpt lat="43.76803" lon="7.25036">
        <ele>662</ele>
        <time>2016-05-15T13:09:52.000Z</time>
      </trkpt>
      <trkpt lat="43.76789" lon="7.2503">
        <ele>662</ele>
        <time>2016-05-15T13:09:56.000Z</time>
      </trkpt>
      <trkpt lat="43.76786" lon="7.25032">
        <ele>661</ele>
        <time>2016-05-15T13:09:57.000Z</time>
      </trkpt>
      <trkpt lat="43.76778" lon="7.25036">
        <ele>661</ele>
        <time>2016-05-15T13:09:59.000Z</time>
      </trkpt>
      <trkpt lat="43.76764" lon="7.25041">
        <ele>660</ele>
        <time>2016-05-15T13:10:02.000Z</time>
      </trkpt>
      <trkpt lat="43.76759" lon="7.25043">
        <ele>660</ele>
        <time>2016-05-15T13:10:03.000Z</time>
      </trkpt>
      <trkpt lat="43.76755" lon="7.25046">
        <ele>660</ele>
        <time>2016-05-15T13:10:04.000Z</time>
      </trkpt>
      <trkpt lat="43.7675" lon="7.25048">
        <ele>653</ele>
        <time>2016-05-15T13:10:05.000Z</time>
      </trkpt>
      <trkpt lat="43.7674" lon="7.25052">
        <ele>653</ele>
        <time>2016-05-15T13:10:08.000Z</time>
      </trkpt>
      <trkpt lat="43.76737" lon="7.25052">
        <ele>653</ele>
        <time>2016-05-15T13:10:09.000Z</time>
      </trkpt>
      <trkpt lat="43.76728" lon="7.25054">
        <ele>652</ele>
        <time>2016-05-15T13:10:12.000Z</time>
      </trkpt>
      <trkpt lat="43.76726" lon="7.25053">
        <ele>652</ele>
        <time>2016-05-15T13:10:13.000Z</time>
      </trkpt>
      <trkpt lat="43.76722" lon="7.25053">
        <ele>652</ele>
        <time>2016-05-15T13:10:15.000Z</time>
      </trkpt>
      <trkpt lat="43.76716" lon="7.25052">
        <ele>651</ele>
        <time>2016-05-15T13:10:17.000Z</time>
      </trkpt>
      <trkpt lat="43.76707" lon="7.25053">
        <ele>651</ele>
        <time>2016-05-15T13:10:20.000Z</time>
      </trkpt>
      <trkpt lat="43.767" lon="7.25052">
        <ele>650</ele>
        <time>2016-05-15T13:10:22.000Z</time>
      </trkpt>
      <trkpt lat="43.76693" lon="7.25048">
        <ele>650</ele>
        <time>2016-05-15T13:10:24.000Z</time>
      </trkpt>
      <trkpt lat="43.76684" lon="7.2505">
        <ele>649</ele>
        <time>2016-05-15T13:10:27.000Z</time>
      </trkpt>
      <trkpt lat="43.76678" lon="7.25066">
        <ele>648</ele>
        <time>2016-05-15T13:10:30.000Z</time>
      </trkpt>
      <trkpt lat="43.76676" lon="7.25072">
        <ele>648</ele>
        <time>2016-05-15T13:10:31.000Z</time>
      </trkpt>
      <trkpt lat="43.76672" lon="7.25083">
        <ele>647</ele>
        <time>2016-05-15T13:10:33.000Z</time>
      </trkpt>
      <trkpt lat="43.76666" lon="7.2509">
        <ele>644</ele>
        <time>2016-05-15T13:10:35.000Z</time>
      </trkpt>
      <trkpt lat="43.76662" lon="7.25091">
        <ele>643</ele>
        <time>2016-05-15T13:10:36.000Z</time>
      </trkpt>
      <trkpt lat="43.76652" lon="7.25093">
        <ele>641</ele>
        <time>2016-05-15T13:10:38.000Z</time>
      </trkpt>
      <trkpt lat="43.76641" lon="7.25095">
        <ele>640</ele>
        <time>2016-05-15T13:10:40.000Z</time>
      </trkpt>
      <trkpt lat="43.76637" lon="7.25095">
        <ele>639</ele>
        <time>2016-05-15T13:10:41.000Z</time>
      </trkpt>
      <trkpt lat="43.76629" lon="7.25095">
        <ele>639</ele>
        <time>2016-05-15T13:10:43.000Z</time>
      </trkpt>
      <trkpt lat="43.76625" lon="7.25096">
        <ele>638</ele>
        <time>2016-05-15T13:10:44.000Z</time>
      </trkpt>
      <trkpt lat="43.76615" lon="7.25098">
        <ele>638</ele>
        <time>2016-05-15T13:10:46.000Z</time>
      </trkpt>
      <trkpt lat="43.76605" lon="7.251">
        <ele>637</ele>
        <time>2016-05-15T13:10:48.000Z</time>
      </trkpt>
      <trkpt lat="43.76601" lon="7.25101">
        <ele>637</ele>
        <time>2016-05-15T13:10:49.000Z</time>
      </trkpt>
      <trkpt lat="43.76588" lon="7.25105">
        <ele>637</ele>
        <time>2016-05-15T13:10:53.000Z</time>
      </trkpt>
      <trkpt lat="43.76584" lon="7.25107">
        <ele>637</ele>
        <time>2016-05-15T13:10:54.000Z</time>
      </trkpt>
      <trkpt lat="43.76579" lon="7.25108">
        <ele>633</ele>
        <time>2016-05-15T13:10:55.000Z</time>
      </trkpt>
      <trkpt lat="43.7657" lon="7.25112">
        <ele>632</ele>
        <time>2016-05-15T13:10:57.000Z</time>
      </trkpt>
      <trkpt lat="43.76566" lon="7.25113">
        <ele>632</ele>
        <time>2016-05-15T13:10:58.000Z</time>
      </trkpt>
      <trkpt lat="43.76557" lon="7.2512">
        <ele>631</ele>
        <time>2016-05-15T13:11:00.000Z</time>
      </trkpt>
      <trkpt lat="43.76544" lon="7.25128">
        <ele>631</ele>
        <time>2016-05-15T13:11:03.000Z</time>
      </trkpt>
      <trkpt lat="43.76534" lon="7.25132">
        <ele>631</ele>
        <time>2016-05-15T13:11:05.000Z</time>
      </trkpt>
      <trkpt lat="43.76529" lon="7.25131">
        <ele>631</ele>
        <time>2016-05-15T13:11:06.000Z</time>
      </trkpt>
      <trkpt lat="43.76524" lon="7.25128">
        <ele>630</ele>
        <time>2016-05-15T13:11:07.000Z</time>
      </trkpt>
      <trkpt lat="43.76518" lon="7.25126">
        <ele>630</ele>
        <time>2016-05-15T13:11:08.000Z</time>
      </trkpt>
      <trkpt lat="43.76513" lon="7.25123">
        <ele>630</ele>
        <time>2016-05-15T13:11:09.000Z</time>
      </trkpt>
      <trkpt lat="43.76504" lon="7.25119">
        <ele>629</ele>
        <time>2016-05-15T13:11:11.000Z</time>
      </trkpt>
      <trkpt lat="43.76499" lon="7.25118">
        <ele>624</ele>
        <time>2016-05-15T13:11:12.000Z</time>
      </trkpt>
      <trkpt lat="43.76496" lon="7.25115">
        <ele>623</ele>
        <time>2016-05-15T13:11:13.000Z</time>
      </trkpt>
      <trkpt lat="43.76488" lon="7.25112">
        <ele>623</ele>
        <time>2016-05-15T13:11:15.000Z</time>
      </trkpt>
      <trkpt lat="43.76481" lon="7.25112">
        <ele>622</ele>
        <time>2016-05-15T13:11:17.000Z</time>
      </trkpt>
      <trkpt lat="43.76478" lon="7.25111">
        <ele>622</ele>
        <time>2016-05-15T13:11:18.000Z</time>
      </trkpt>
      <trkpt lat="43.76474" lon="7.25114">
        <ele>622</ele>
        <time>2016-05-15T13:11:20.000Z</time>
      </trkpt>
      <trkpt lat="43.76471" lon="7.25115">
        <ele>622</ele>
        <time>2016-05-15T13:11:21.000Z</time>
      </trkpt>
      <trkpt lat="43.76462" lon="7.25115">
        <ele>621</ele>
        <time>2016-05-15T13:11:24.000Z</time>
      </trkpt>
      <trkpt lat="43.76458" lon="7.25115">
        <ele>621</ele>
        <time>2016-05-15T13:11:25.000Z</time>
      </trkpt>
      <trkpt lat="43.76447" lon="7.2512">
        <ele>621</ele>
        <time>2016-05-15T13:11:28.000Z</time>
      </trkpt>
      <trkpt lat="43.76444" lon="7.2512">
        <ele>620</ele>
        <time>2016-05-15T13:11:29.000Z</time>
      </trkpt>
      <trkpt lat="43.76432" lon="7.25126">
        <ele>620</ele>
        <time>2016-05-15T13:11:33.000Z</time>
      </trkpt>
      <trkpt lat="43.76426" lon="7.25128">
        <ele>621</ele>
        <time>2016-05-15T13:11:35.000Z</time>
      </trkpt>
      <trkpt lat="43.7642" lon="7.25129">
        <ele>621</ele>
        <time>2016-05-15T13:11:37.000Z</time>
      </trkpt>
      <trkpt lat="43.76412" lon="7.25132">
        <ele>610</ele>
        <time>2016-05-15T13:11:40.000Z</time>
      </trkpt>
      <trkpt lat="43.7641" lon="7.25134">
        <ele>610</ele>
        <time>2016-05-15T13:11:41.000Z</time>
      </trkpt>
      <trkpt lat="43.76407" lon="7.25135">
        <ele>610</ele>
        <time>2016-05-15T13:11:42.000Z</time>
      </trkpt>
      <trkpt lat="43.76393" lon="7.25145">
        <ele>610</ele>
        <time>2016-05-15T13:11:47.000Z</time>
      </trkpt>
      <trkpt lat="43.7639" lon="7.25149">
        <ele>610</ele>
        <time>2016-05-15T13:11:48.000Z</time>
      </trkpt>
      <trkpt lat="43.76383" lon="7.25156">
        <ele>610</ele>
        <time>2016-05-15T13:11:50.000Z</time>
      </trkpt>
      <trkpt lat="43.76376" lon="7.25163">
        <ele>609</ele>
        <time>2016-05-15T13:11:52.000Z</time>
      </trkpt>
      <trkpt lat="43.76374" lon="7.25167">
        <ele>618</ele>
        <time>2016-05-15T13:11:53.000Z</time>
      </trkpt>
      <trkpt lat="43.76365" lon="7.25174">
        <ele>616</ele>
        <time>2016-05-15T13:11:56.000Z</time>
      </trkpt>
      <trkpt lat="43.7636" lon="7.25183">
        <ele>616</ele>
        <time>2016-05-15T13:11:58.000Z</time>
      </trkpt>
      <trkpt lat="43.76358" lon="7.25188">
        <ele>616</ele>
        <time>2016-05-15T13:11:59.000Z</time>
      </trkpt>
      <trkpt lat="43.76355" lon="7.25193">
        <ele>616</ele>
        <time>2016-05-15T13:12:00.000Z</time>
      </trkpt>
      <trkpt lat="43.76352" lon="7.25196">
        <ele>616</ele>
        <time>2016-05-15T13:12:01.000Z</time>
      </trkpt>
      <trkpt lat="43.76347" lon="7.25199">
        <ele>616</ele>
        <time>2016-05-15T13:12:02.000Z</time>
      </trkpt>
      <trkpt lat="43.7634" lon="7.25203">
        <ele>616</ele>
        <time>2016-05-15T13:12:04.000Z</time>
      </trkpt>
      <trkpt lat="43.76327" lon="7.252">
        <ele>606</ele>
        <time>2016-05-15T13:12:08.000Z</time>
      </trkpt>
      <trkpt lat="43.76319" lon="7.25198">
        <ele>605</ele>
        <time>2016-05-15T13:12:10.000Z</time>
      </trkpt>
      <trkpt lat="43.76314" lon="7.25198">
        <ele>605</ele>
        <time>2016-05-15T13:12:11.000Z</time>
      </trkpt>
      <trkpt lat="43.76309" lon="7.252">
        <ele>605</ele>
        <time>2016-05-15T13:12:12.000Z</time>
      </trkpt>
      <trkpt lat="43.76304" lon="7.25201">
        <ele>605</ele>
        <time>2016-05-15T13:12:13.000Z</time>
      </trkpt>
      <trkpt lat="43.76299" lon="7.25201">
        <ele>604</ele>
        <time>2016-05-15T13:12:14.000Z</time>
      </trkpt>
      <trkpt lat="43.76294" lon="7.25203">
        <ele>604</ele>
        <time>2016-05-15T13:12:15.000Z</time>
      </trkpt>
      <trkpt lat="43.76286" lon="7.25205">
        <ele>604</ele>
        <time>2016-05-15T13:12:17.000Z</time>
      </trkpt>
      <trkpt lat="43.76277" lon="7.25205">
        <ele>603</ele>
        <time>2016-05-15T13:12:19.000Z</time>
      </trkpt>
      <trkpt lat="43.76268" lon="7.25205">
        <ele>602</ele>
        <time>2016-05-15T13:12:21.000Z</time>
      </trkpt>
      <trkpt lat="43.7626" lon="7.25206">
        <ele>602</ele>
        <time>2016-05-15T13:12:23.000Z</time>
      </trkpt>
      <trkpt lat="43.76247" lon="7.2521">
        <ele>593</ele>
        <time>2016-05-15T13:12:26.000Z</time>
      </trkpt>
      <trkpt lat="43.7624" lon="7.2521">
        <ele>592</ele>
        <time>2016-05-15T13:12:28.000Z</time>
      </trkpt>
      <trkpt lat="43.76238" lon="7.25211">
        <ele>592</ele>
        <time>2016-05-15T13:12:29.000Z</time>
      </trkpt>
      <trkpt lat="43.76226" lon="7.25211">
        <ele>591</ele>
        <time>2016-05-15T13:12:33.000Z</time>
      </trkpt>
      <trkpt lat="43.76223" lon="7.25211">
        <ele>591</ele>
        <time>2016-05-15T13:12:34.000Z</time>
      </trkpt>
      <trkpt lat="43.76211" lon="7.25214">
        <ele>590</ele>
        <time>2016-05-15T13:12:37.000Z</time>
      </trkpt>
      <trkpt lat="43.76207" lon="7.25216">
        <ele>590</ele>
        <time>2016-05-15T13:12:38.000Z</time>
      </trkpt>
      <trkpt lat="43.76193" lon="7.25227">
        <ele>590</ele>
        <time>2016-05-15T13:12:43.000Z</time>
      </trkpt>
      <trkpt lat="43.76191" lon="7.25227">
        <ele>590</ele>
        <time>2016-05-15T13:12:44.000Z</time>
      </trkpt>
      <trkpt lat="43.7619" lon="7.25227">
        <ele>590</ele>
        <time>2016-05-15T13:12:45.000Z</time>
      </trkpt>
      <trkpt lat="43.76189" lon="7.25227">
        <ele>590</ele>
        <time>2016-05-15T13:12:47.000Z</time>
      </trkpt>
      <trkpt lat="43.76187" lon="7.25227">
        <ele>589</ele>
        <time>2016-05-15T13:12:48.000Z</time>
      </trkpt>
      <trkpt lat="43.76186" lon="7.25228">
        <ele>590</ele>
        <time>2016-05-15T13:12:50.000Z</time>
      </trkpt>
      <trkpt lat="43.76182" lon="7.25229">
        <ele>590</ele>
        <time>2016-05-15T13:12:52.000Z</time>
      </trkpt>
      <trkpt lat="43.76166" lon="7.25238">
        <ele>583</ele>
        <time>2016-05-15T13:12:57.000Z</time>
      </trkpt>
      <trkpt lat="43.76154" lon="7.25245">
        <ele>582</ele>
        <time>2016-05-15T13:13:01.000Z</time>
      </trkpt>
      <trkpt lat="43.76149" lon="7.25249">
        <ele>580</ele>
        <time>2016-05-15T13:13:03.000Z</time>
      </trkpt>
      <trkpt lat="43.7614" lon="7.25251">
        <ele>588</ele>
        <time>2016-05-15T13:13:07.000Z</time>
      </trkpt>
      <trkpt lat="43.76138" lon="7.25252">
        <ele>588</ele>
        <time>2016-05-15T13:13:08.000Z</time>
      </trkpt>
      <trkpt lat="43.76127" lon="7.25261">
        <ele>586</ele>
        <time>2016-05-15T13:13:12.000Z</time>
      </trkpt>
      <trkpt lat="43.76121" lon="7.25263">
        <ele>585</ele>
        <time>2016-05-15T13:13:14.000Z</time>
      </trkpt>
      <trkpt lat="43.76113" lon="7.25268">
        <ele>584</ele>
        <time>2016-05-15T13:13:16.000Z</time>
      </trkpt>
      <trkpt lat="43.7611" lon="7.2527">
        <ele>583</ele>
        <time>2016-05-15T13:13:17.000Z</time>
      </trkpt>
      <trkpt lat="43.76099" lon="7.2528">
        <ele>583</ele>
        <time>2016-05-15T13:13:21.000Z</time>
      </trkpt>
      <trkpt lat="43.76097" lon="7.25282">
        <ele>583</ele>
        <time>2016-05-15T13:13:22.000Z</time>
      </trkpt>
      <trkpt lat="43.76095" lon="7.25284">
        <ele>583</ele>
        <time>2016-05-15T13:13:23.000Z</time>
      </trkpt>
      <trkpt lat="43.76088" lon="7.25284">
        <ele>583</ele>
        <time>2016-05-15T13:13:26.000Z</time>
      </trkpt>
      <trkpt lat="43.7608" lon="7.25286">
        <ele>569</ele>
        <time>2016-05-15T13:13:29.000Z</time>
      </trkpt>
      <trkpt lat="43.76071" lon="7.2529">
        <ele>569</ele>
        <time>2016-05-15T13:13:31.000Z</time>
      </trkpt>
      <trkpt lat="43.76062" lon="7.25293">
        <ele>569</ele>
        <time>2016-05-15T13:13:33.000Z</time>
      </trkpt>
      <trkpt lat="43.76053" lon="7.25298">
        <ele>568</ele>
        <time>2016-05-15T13:13:35.000Z</time>
      </trkpt>
      <trkpt lat="43.76046" lon="7.25303">
        <ele>568</ele>
        <time>2016-05-15T13:13:37.000Z</time>
      </trkpt>
      <trkpt lat="43.76039" lon="7.25308">
        <ele>567</ele>
        <time>2016-05-15T13:13:40.000Z</time>
      </trkpt>
      <trkpt lat="43.76036" lon="7.25308">
        <ele>567</ele>
        <time>2016-05-15T13:13:41.000Z</time>
      </trkpt>
      <trkpt lat="43.76024" lon="7.25309">
        <ele>566</ele>
        <time>2016-05-15T13:13:44.000Z</time>
      </trkpt>
      <trkpt lat="43.76019" lon="7.25312">
        <ele>566</ele>
        <time>2016-05-15T13:13:45.000Z</time>
      </trkpt>
      <trkpt lat="43.76012" lon="7.25317">
        <ele>565</ele>
        <time>2016-05-15T13:13:47.000Z</time>
      </trkpt>
      <trkpt lat="43.76009" lon="7.25319">
        <ele>566</ele>
        <time>2016-05-15T13:13:48.000Z</time>
      </trkpt>
      <trkpt lat="43.76006" lon="7.25321">
        <ele>566</ele>
        <time>2016-05-15T13:13:49.000Z</time>
      </trkpt>
      <trkpt lat="43.76003" lon="7.25323">
        <ele>566</ele>
        <time>2016-05-15T13:13:50.000Z</time>
      </trkpt>
      <trkpt lat="43.76001" lon="7.25325">
        <ele>566</ele>
        <time>2016-05-15T13:13:51.000Z</time>
      </trkpt>
      <trkpt lat="43.75999" lon="7.25324">
        <ele>559</ele>
        <time>2016-05-15T13:13:52.000Z</time>
      </trkpt>
      <trkpt lat="43.75999" lon="7.25324">
        <ele>559</ele>
        <time>2016-05-15T13:13:53.000Z</time>
      </trkpt>
      <trkpt lat="43.75998" lon="7.25325">
        <ele>560</ele>
        <time>2016-05-15T13:13:54.000Z</time>
      </trkpt>
      <trkpt lat="43.75996" lon="7.25326">
        <ele>560</ele>
        <time>2016-05-15T13:13:55.000Z</time>
      </trkpt>
      <trkpt lat="43.7599" lon="7.25333">
        <ele>559</ele>
        <time>2016-05-15T13:13:58.000Z</time>
      </trkpt>
      <trkpt lat="43.75986" lon="7.25336">
        <ele>565</ele>
        <time>2016-05-15T13:14:00.000Z</time>
      </trkpt>
      <trkpt lat="43.75976" lon="7.25342">
        <ele>565</ele>
        <time>2016-05-15T13:14:04.000Z</time>
      </trkpt>
      <trkpt lat="43.75969" lon="7.25345">
        <ele>564</ele>
        <time>2016-05-15T13:14:06.000Z</time>
      </trkpt>
      <trkpt lat="43.75957" lon="7.25352">
        <ele>563</ele>
        <time>2016-05-15T13:14:09.000Z</time>
      </trkpt>
      <trkpt lat="43.75952" lon="7.25355">
        <ele>562</ele>
        <time>2016-05-15T13:14:10.000Z</time>
      </trkpt>
      <trkpt lat="43.75942" lon="7.25362">
        <ele>562</ele>
        <time>2016-05-15T13:14:12.000Z</time>
      </trkpt>
      <trkpt lat="43.75937" lon="7.25366">
        <ele>562</ele>
        <time>2016-05-15T13:14:13.000Z</time>
      </trkpt>
      <trkpt lat="43.75933" lon="7.25368">
        <ele>562</ele>
        <time>2016-05-15T13:14:14.000Z</time>
      </trkpt>
      <trkpt lat="43.75923" lon="7.25375">
        <ele>562</ele>
        <time>2016-05-15T13:14:16.000Z</time>
      </trkpt>
      <trkpt lat="43.7592" lon="7.25377">
        <ele>563</ele>
        <time>2016-05-15T13:14:17.000Z</time>
      </trkpt>
      <trkpt lat="43.75918" lon="7.25381">
        <ele>563</ele>
        <time>2016-05-15T13:14:18.000Z</time>
      </trkpt>
      <trkpt lat="43.7591" lon="7.25385">
        <ele>552</ele>
        <time>2016-05-15T13:14:21.000Z</time>
      </trkpt>
      <trkpt lat="43.75908" lon="7.25387">
        <ele>552</ele>
        <time>2016-05-15T13:14:22.000Z</time>
      </trkpt>
      <trkpt lat="43.75898" lon="7.25393">
        <ele>552</ele>
        <time>2016-05-15T13:14:25.000Z</time>
      </trkpt>
      <trkpt lat="43.75893" lon="7.25399">
        <ele>553</ele>
        <time>2016-05-15T13:14:27.000Z</time>
      </trkpt>
      <trkpt lat="43.75888" lon="7.25404">
        <ele>552</ele>
        <time>2016-05-15T13:14:29.000Z</time>
      </trkpt>
      <trkpt lat="43.75883" lon="7.25408">
        <ele>552</ele>
        <time>2016-05-15T13:14:31.000Z</time>
      </trkpt>
      <trkpt lat="43.75871" lon="7.2542">
        <ele>560</ele>
        <time>2016-05-15T13:14:35.000Z</time>
      </trkpt>
      <trkpt lat="43.75865" lon="7.25426">
        <ele>559</ele>
        <time>2016-05-15T13:14:39.000Z</time>
      </trkpt>
      <trkpt lat="43.75864" lon="7.25426">
        <ele>559</ele>
        <time>2016-05-15T13:14:46.000Z</time>
      </trkpt>
      <trkpt lat="43.7586" lon="7.25428">
        <ele>559</ele>
        <time>2016-05-15T13:14:50.000Z</time>
      </trkpt>
      <trkpt lat="43.75858" lon="7.25428">
        <ele>558</ele>
        <time>2016-05-15T13:14:52.000Z</time>
      </trkpt>
      <trkpt lat="43.75858" lon="7.25428">
        <ele>558</ele>
        <time>2016-05-15T13:14:53.000Z</time>
      </trkpt>
      <trkpt lat="43.75853" lon="7.25429">
        <ele>557</ele>
        <time>2016-05-15T13:15:00.000Z</time>
      </trkpt>
      <trkpt lat="43.75853" lon="7.25429">
        <ele>557</ele>
        <time>2016-05-15T13:15:01.000Z</time>
      </trkpt>
      <trkpt lat="43.75848" lon="7.2543">
        <ele>556</ele>
        <time>2016-05-15T13:15:04.000Z</time>
      </trkpt>
      <trkpt lat="43.75847" lon="7.25431">
        <ele>556</ele>
        <time>2016-05-15T13:15:05.000Z</time>
      </trkpt>
      <trkpt lat="43.75836" lon="7.25434">
        <ele>555</ele>
        <time>2016-05-15T13:15:09.000Z</time>
      </trkpt>
      <trkpt lat="43.75827" lon="7.25439">
        <ele>546</ele>
        <time>2016-05-15T13:15:11.000Z</time>
      </trkpt>
      <trkpt lat="43.75823" lon="7.25443">
        <ele>546</ele>
        <time>2016-05-15T13:15:12.000Z</time>
      </trkpt>
      <trkpt lat="43.75819" lon="7.25447">
        <ele>546</ele>
        <time>2016-05-15T13:15:13.000Z</time>
      </trkpt>
      <trkpt lat="43.75814" lon="7.2545">
        <ele>545</ele>
        <time>2016-05-15T13:15:15.000Z</time>
      </trkpt>
      <trkpt lat="43.75812" lon="7.2545">
        <ele>545</ele>
        <time>2016-05-15T13:15:16.000Z</time>
      </trkpt>
      <trkpt lat="43.75808" lon="7.25452">
        <ele>545</ele>
        <time>2016-05-15T13:15:17.000Z</time>
      </trkpt>
      <trkpt lat="43.75798" lon="7.25457">
        <ele>544</ele>
        <time>2016-05-15T13:15:19.000Z</time>
      </trkpt>
      <trkpt lat="43.75793" lon="7.25461">
        <ele>544</ele>
        <time>2016-05-15T13:15:20.000Z</time>
      </trkpt>
      <trkpt lat="43.75788" lon="7.25466">
        <ele>543</ele>
        <time>2016-05-15T13:15:22.000Z</time>
      </trkpt>
      <trkpt lat="43.75785" lon="7.25466">
        <ele>543</ele>
        <time>2016-05-15T13:15:23.000Z</time>
      </trkpt>
      <trkpt lat="43.75783" lon="7.25468">
        <ele>543</ele>
        <time>2016-05-15T13:15:24.000Z</time>
      </trkpt>
      <trkpt lat="43.7578" lon="7.2547">
        <ele>543</ele>
        <time>2016-05-15T13:15:25.000Z</time>
      </trkpt>
      <trkpt lat="43.75777" lon="7.25473">
        <ele>543</ele>
        <time>2016-05-15T13:15:26.000Z</time>
      </trkpt>
      <trkpt lat="43.75774" lon="7.25476">
        <ele>543</ele>
        <time>2016-05-15T13:15:27.000Z</time>
      </trkpt>
      <trkpt lat="43.75762" lon="7.25486">
        <ele>542</ele>
        <time>2016-05-15T13:15:30.000Z</time>
      </trkpt>
      <trkpt lat="43.75754" lon="7.25492">
        <ele>542</ele>
        <time>2016-05-15T13:15:32.000Z</time>
      </trkpt>
      <trkpt lat="43.75745" lon="7.25498">
        <ele>537</ele>
        <time>2016-05-15T13:15:34.000Z</time>
      </trkpt>
      <trkpt lat="43.75735" lon="7.25498">
        <ele>532</ele>
        <time>2016-05-15T13:15:37.000Z</time>
      </trkpt>
      <trkpt lat="43.75731" lon="7.255">
        <ele>531</ele>
        <time>2016-05-15T13:15:39.000Z</time>
      </trkpt>
      <trkpt lat="43.75727" lon="7.25503">
        <ele>539</ele>
        <time>2016-05-15T13:15:41.000Z</time>
      </trkpt>
      <trkpt lat="43.75713" lon="7.2551">
        <ele>537</ele>
        <time>2016-05-15T13:15:45.000Z</time>
      </trkpt>
      <trkpt lat="43.75709" lon="7.25513">
        <ele>537</ele>
        <time>2016-05-15T13:15:46.000Z</time>
      </trkpt>
      <trkpt lat="43.757" lon="7.25518">
        <ele>536</ele>
        <time>2016-05-15T13:15:49.000Z</time>
      </trkpt>
      <trkpt lat="43.75697" lon="7.25517">
        <ele>535</ele>
        <time>2016-05-15T13:15:50.000Z</time>
      </trkpt>
      <trkpt lat="43.75687" lon="7.2552">
        <ele>534</ele>
        <time>2016-05-15T13:15:53.000Z</time>
      </trkpt>
      <trkpt lat="43.75683" lon="7.25523">
        <ele>534</ele>
        <time>2016-05-15T13:15:54.000Z</time>
      </trkpt>
      <trkpt lat="43.75679" lon="7.25526">
        <ele>534</ele>
        <time>2016-05-15T13:15:55.000Z</time>
      </trkpt>
      <trkpt lat="43.75667" lon="7.25534">
        <ele>535</ele>
        <time>2016-05-15T13:15:58.000Z</time>
      </trkpt>
      <trkpt lat="43.7566" lon="7.25537">
        <ele>524</ele>
        <time>2016-05-15T13:16:00.000Z</time>
      </trkpt>
      <trkpt lat="43.75657" lon="7.25538">
        <ele>524</ele>
        <time>2016-05-15T13:16:01.000Z</time>
      </trkpt>
      <trkpt lat="43.75641" lon="7.25543">
        <ele>523</ele>
        <time>2016-05-15T13:16:06.000Z</time>
      </trkpt>
      <trkpt lat="43.7564" lon="7.25545">
        <ele>523</ele>
        <time>2016-05-15T13:16:07.000Z</time>
      </trkpt>
      <trkpt lat="43.75638" lon="7.25548">
        <ele>523</ele>
        <time>2016-05-15T13:16:08.000Z</time>
      </trkpt>
      <trkpt lat="43.75632" lon="7.25552">
        <ele>523</ele>
        <time>2016-05-15T13:16:10.000Z</time>
      </trkpt>
      <trkpt lat="43.75625" lon="7.25557">
        <ele>523</ele>
        <time>2016-05-15T13:16:12.000Z</time>
      </trkpt>
      <trkpt lat="43.75617" lon="7.25562">
        <ele>522</ele>
        <time>2016-05-15T13:16:14.000Z</time>
      </trkpt>
      <trkpt lat="43.75603" lon="7.2557">
        <ele>521</ele>
        <time>2016-05-15T13:16:18.000Z</time>
      </trkpt>
      <trkpt lat="43.75595" lon="7.25572">
        <ele>520</ele>
        <time>2016-05-15T13:16:20.000Z</time>
      </trkpt>
      <trkpt lat="43.75588" lon="7.25575">
        <ele>520</ele>
        <time>2016-05-15T13:16:22.000Z</time>
      </trkpt>
      <trkpt lat="43.75585" lon="7.25575">
        <ele>520</ele>
        <time>2016-05-15T13:16:23.000Z</time>
      </trkpt>
      <trkpt lat="43.7558" lon="7.25576">
        <ele>514</ele>
        <time>2016-05-15T13:16:24.000Z</time>
      </trkpt>
      <trkpt lat="43.75575" lon="7.25579">
        <ele>514</ele>
        <time>2016-05-15T13:16:25.000Z</time>
      </trkpt>
      <trkpt lat="43.75567" lon="7.25585">
        <ele>515</ele>
        <time>2016-05-15T13:16:27.000Z</time>
      </trkpt>
      <trkpt lat="43.75558" lon="7.2559">
        <ele>513</ele>
        <time>2016-05-15T13:16:30.000Z</time>
      </trkpt>
      <trkpt lat="43.75556" lon="7.25594">
        <ele>512</ele>
        <time>2016-05-15T13:16:31.000Z</time>
      </trkpt>
      <trkpt lat="43.75553" lon="7.25596">
        <ele>512</ele>
        <time>2016-05-15T13:16:32.000Z</time>
      </trkpt>
      <trkpt lat="43.75547" lon="7.25604">
        <ele>510</ele>
        <time>2016-05-15T13:16:34.000Z</time>
      </trkpt>
      <trkpt lat="43.75544" lon="7.25609">
        <ele>510</ele>
        <time>2016-05-15T13:16:35.000Z</time>
      </trkpt>
      <trkpt lat="43.75538" lon="7.25621">
        <ele>509</ele>
        <time>2016-05-15T13:16:37.000Z</time>
      </trkpt>
      <trkpt lat="43.75531" lon="7.25637">
        <ele>509</ele>
        <time>2016-05-15T13:16:40.000Z</time>
      </trkpt>
      <trkpt lat="43.75529" lon="7.25651">
        <ele>509</ele>
        <time>2016-05-15T13:16:43.000Z</time>
      </trkpt>
      <trkpt lat="43.7553" lon="7.25657">
        <ele>509</ele>
        <time>2016-05-15T13:16:44.000Z</time>
      </trkpt>
      <trkpt lat="43.75529" lon="7.25663">
        <ele>508</ele>
        <time>2016-05-15T13:16:45.000Z</time>
      </trkpt>
      <trkpt lat="43.75529" lon="7.2567">
        <ele>508</ele>
        <time>2016-05-15T13:16:46.000Z</time>
      </trkpt>
      <trkpt lat="43.75528" lon="7.25677">
        <ele>508</ele>
        <time>2016-05-15T13:16:47.000Z</time>
      </trkpt>
      <trkpt lat="43.75527" lon="7.25692">
        <ele>508</ele>
        <time>2016-05-15T13:16:49.000Z</time>
      </trkpt>
      <trkpt lat="43.75526" lon="7.25698">
        <ele>508</ele>
        <time>2016-05-15T13:16:50.000Z</time>
      </trkpt>
      <trkpt lat="43.75523" lon="7.25708">
        <ele>508</ele>
        <time>2016-05-15T13:16:52.000Z</time>
      </trkpt>
      <trkpt lat="43.75522" lon="7.2571">
        <ele>508</ele>
        <time>2016-05-15T13:16:53.000Z</time>
      </trkpt>
      <trkpt lat="43.7552" lon="7.25713">
        <ele>508</ele>
        <time>2016-05-15T13:16:54.000Z</time>
      </trkpt>
      <trkpt lat="43.75518" lon="7.25715">
        <ele>507</ele>
        <time>2016-05-15T13:16:55.000Z</time>
      </trkpt>
      <trkpt lat="43.75515" lon="7.25716">
        <ele>507</ele>
        <time>2016-05-15T13:16:56.000Z</time>
      </trkpt>
      <trkpt lat="43.75512" lon="7.25718">
        <ele>507</ele>
        <time>2016-05-15T13:16:57.000Z</time>
      </trkpt>
      <trkpt lat="43.75508" lon="7.25719">
        <ele>507</ele>
        <time>2016-05-15T13:16:59.000Z</time>
      </trkpt>
      <trkpt lat="43.75502" lon="7.25723">
        <ele>506</ele>
        <time>2016-05-15T13:17:02.000Z</time>
      </trkpt>
      <trkpt lat="43.75496" lon="7.25733">
        <ele>498</ele>
        <time>2016-05-15T13:17:04.000Z</time>
      </trkpt>
      <trkpt lat="43.75493" lon="7.25739">
        <ele>498</ele>
        <time>2016-05-15T13:17:05.000Z</time>
      </trkpt>
      <trkpt lat="43.75491" lon="7.25748">
        <ele>499</ele>
        <time>2016-05-15T13:17:06.000Z</time>
      </trkpt>
      <trkpt lat="43.75489" lon="7.25763">
        <ele>499</ele>
        <time>2016-05-15T13:17:08.000Z</time>
      </trkpt>
      <trkpt lat="43.75487" lon="7.2577">
        <ele>499</ele>
        <time>2016-05-15T13:17:09.000Z</time>
      </trkpt>
      <trkpt lat="43.75485" lon="7.25777">
        <ele>499</ele>
        <time>2016-05-15T13:17:10.000Z</time>
      </trkpt>
      <trkpt lat="43.75482" lon="7.25782">
        <ele>498</ele>
        <time>2016-05-15T13:17:11.000Z</time>
      </trkpt>
      <trkpt lat="43.75474" lon="7.25785">
        <ele>498</ele>
        <time>2016-05-15T13:17:13.000Z</time>
      </trkpt>
      <trkpt lat="43.75462" lon="7.25791">
        <ele>498</ele>
        <time>2016-05-15T13:17:16.000Z</time>
      </trkpt>
      <trkpt lat="43.75459" lon="7.25794">
        <ele>498</ele>
        <time>2016-05-15T13:17:17.000Z</time>
      </trkpt>
      <trkpt lat="43.75443" lon="7.25802">
        <ele>498</ele>
        <time>2016-05-15T13:17:22.000Z</time>
      </trkpt>
      <trkpt lat="43.75439" lon="7.25803">
        <ele>498</ele>
        <time>2016-05-15T13:17:23.000Z</time>
      </trkpt>
      <trkpt lat="43.75428" lon="7.25801">
        <ele>497</ele>
        <time>2016-05-15T13:17:27.000Z</time>
      </trkpt>
      <trkpt lat="43.7542" lon="7.25804">
        <ele>498</ele>
        <time>2016-05-15T13:17:30.000Z</time>
      </trkpt>
      <trkpt lat="43.75418" lon="7.25805">
        <ele>498</ele>
        <time>2016-05-15T13:17:31.000Z</time>
      </trkpt>
      <trkpt lat="43.75405" lon="7.25808">
        <ele>496</ele>
        <time>2016-05-15T13:17:36.000Z</time>
      </trkpt>
      <trkpt lat="43.754" lon="7.25805">
        <ele>495</ele>
        <time>2016-05-15T13:17:39.000Z</time>
      </trkpt>
      <trkpt lat="43.75396" lon="7.25802">
        <ele>495</ele>
        <time>2016-05-15T13:17:41.000Z</time>
      </trkpt>
      <trkpt lat="43.75382" lon="7.258">
        <ele>495</ele>
        <time>2016-05-15T13:17:47.000Z</time>
      </trkpt>
      <trkpt lat="43.75379" lon="7.25799">
        <ele>495</ele>
        <time>2016-05-15T13:17:48.000Z</time>
      </trkpt>
      <trkpt lat="43.75372" lon="7.2579">
        <ele>494</ele>
        <time>2016-05-15T13:17:52.000Z</time>
      </trkpt>
      <trkpt lat="43.75368" lon="7.25785">
        <ele>494</ele>
        <time>2016-05-15T13:17:55.000Z</time>
      </trkpt>
      <trkpt lat="43.75365" lon="7.25786">
        <ele>494</ele>
        <time>2016-05-15T13:17:56.000Z</time>
      </trkpt>
      <trkpt lat="43.75354" lon="7.25784">
        <ele>494</ele>
        <time>2016-05-15T13:17:59.000Z</time>
      </trkpt>
      <trkpt lat="43.7535" lon="7.25785">
        <ele>494</ele>
        <time>2016-05-15T13:18:00.000Z</time>
      </trkpt>
      <trkpt lat="43.75341" lon="7.2579">
        <ele>494</ele>
        <time>2016-05-15T13:18:02.000Z</time>
      </trkpt>
      <trkpt lat="43.75334" lon="7.258">
        <ele>494</ele>
        <time>2016-05-15T13:18:04.000Z</time>
      </trkpt>
      <trkpt lat="43.75329" lon="7.25811">
        <ele>491</ele>
        <time>2016-05-15T13:18:06.000Z</time>
      </trkpt>
      <trkpt lat="43.75326" lon="7.25814">
        <ele>491</ele>
        <time>2016-05-15T13:18:07.000Z</time>
      </trkpt>
      <trkpt lat="43.75322" lon="7.25816">
        <ele>491</ele>
        <time>2016-05-15T13:18:08.000Z</time>
      </trkpt>
      <trkpt lat="43.75315" lon="7.25816">
        <ele>491</ele>
        <time>2016-05-15T13:18:10.000Z</time>
      </trkpt>
      <trkpt lat="43.75307" lon="7.25821">
        <ele>490</ele>
        <time>2016-05-15T13:18:12.000Z</time>
      </trkpt>
      <trkpt lat="43.75304" lon="7.25824">
        <ele>490</ele>
        <time>2016-05-15T13:18:13.000Z</time>
      </trkpt>
      <trkpt lat="43.75294" lon="7.25829">
        <ele>489</ele>
        <time>2016-05-15T13:18:17.000Z</time>
      </trkpt>
      <trkpt lat="43.75283" lon="7.25836">
        <ele>493</ele>
        <time>2016-05-15T13:18:22.000Z</time>
      </trkpt>
      <trkpt lat="43.75281" lon="7.25836">
        <ele>493</ele>
        <time>2016-05-15T13:18:23.000Z</time>
      </trkpt>
      <trkpt lat="43.75269" lon="7.25839">
        <ele>492</ele>
        <time>2016-05-15T13:18:27.000Z</time>
      </trkpt>
      <trkpt lat="43.75265" lon="7.25846">
        <ele>492</ele>
        <time>2016-05-15T13:18:31.000Z</time>
      </trkpt>
      <trkpt lat="43.75264" lon="7.25847">
        <ele>492</ele>
        <time>2016-05-15T13:18:32.000Z</time>
      </trkpt>
      <trkpt lat="43.75258" lon="7.25853">
        <ele>492</ele>
        <time>2016-05-15T13:18:35.000Z</time>
      </trkpt>
      <trkpt lat="43.75247" lon="7.25855">
        <ele>487</ele>
        <time>2016-05-15T13:18:39.000Z</time>
      </trkpt>
      <trkpt lat="43.75231" lon="7.25855">
        <ele>487</ele>
        <time>2016-05-15T13:18:43.000Z</time>
      </trkpt>
      <trkpt lat="43.75227" lon="7.25856">
        <ele>487</ele>
        <time>2016-05-15T13:18:44.000Z</time>
      </trkpt>
      <trkpt lat="43.75212" lon="7.25861">
        <ele>486</ele>
        <time>2016-05-15T13:18:47.000Z</time>
      </trkpt>
      <trkpt lat="43.75207" lon="7.25863">
        <ele>486</ele>
        <time>2016-05-15T13:18:48.000Z</time>
      </trkpt>
      <trkpt lat="43.75203" lon="7.25867">
        <ele>486</ele>
        <time>2016-05-15T13:18:49.000Z</time>
      </trkpt>
      <trkpt lat="43.75198" lon="7.25869">
        <ele>486</ele>
        <time>2016-05-15T13:18:50.000Z</time>
      </trkpt>
      <trkpt lat="43.75186" lon="7.25871">
        <ele>486</ele>
        <time>2016-05-15T13:18:53.000Z</time>
      </trkpt>
      <trkpt lat="43.75171" lon="7.25875">
        <ele>485</ele>
        <time>2016-05-15T13:18:57.000Z</time>
      </trkpt>
      <trkpt lat="43.75164" lon="7.25874">
        <ele>480</ele>
        <time>2016-05-15T13:18:59.000Z</time>
      </trkpt>
      <trkpt lat="43.75153" lon="7.25873">
        <ele>480</ele>
        <time>2016-05-15T13:19:02.000Z</time>
      </trkpt>
      <trkpt lat="43.75144" lon="7.25874">
        <ele>480</ele>
        <time>2016-05-15T13:19:04.000Z</time>
      </trkpt>
      <trkpt lat="43.75132" lon="7.25871">
        <ele>479</ele>
        <time>2016-05-15T13:19:07.000Z</time>
      </trkpt>
      <trkpt lat="43.75127" lon="7.25873">
        <ele>479</ele>
        <time>2016-05-15T13:19:08.000Z</time>
      </trkpt>
      <trkpt lat="43.75123" lon="7.25875">
        <ele>479</ele>
        <time>2016-05-15T13:19:09.000Z</time>
      </trkpt>
      <trkpt lat="43.75114" lon="7.25873">
        <ele>478</ele>
        <time>2016-05-15T13:19:11.000Z</time>
      </trkpt>
      <trkpt lat="43.7511" lon="7.25874">
        <ele>478</ele>
        <time>2016-05-15T13:19:12.000Z</time>
      </trkpt>
      <trkpt lat="43.75106" lon="7.25875">
        <ele>478</ele>
        <time>2016-05-15T13:19:13.000Z</time>
      </trkpt>
      <trkpt lat="43.75102" lon="7.25875">
        <ele>478</ele>
        <time>2016-05-15T13:19:14.000Z</time>
      </trkpt>
      <trkpt lat="43.75088" lon="7.25872">
        <ele>477</ele>
        <time>2016-05-15T13:19:18.000Z</time>
      </trkpt>
      <trkpt lat="43.75079" lon="7.25865">
        <ele>473</ele>
        <time>2016-05-15T13:19:20.000Z</time>
      </trkpt>
      <trkpt lat="43.75071" lon="7.2586">
        <ele>473</ele>
        <time>2016-05-15T13:19:22.000Z</time>
      </trkpt>
      <trkpt lat="43.75067" lon="7.25861">
        <ele>473</ele>
        <time>2016-05-15T13:19:23.000Z</time>
      </trkpt>
      <trkpt lat="43.75054" lon="7.2586">
        <ele>473</ele>
        <time>2016-05-15T13:19:26.000Z</time>
      </trkpt>
      <trkpt lat="43.75045" lon="7.25859">
        <ele>473</ele>
        <time>2016-05-15T13:19:28.000Z</time>
      </trkpt>
      <trkpt lat="43.75036" lon="7.25858">
        <ele>473</ele>
        <time>2016-05-15T13:19:30.000Z</time>
      </trkpt>
      <trkpt lat="43.75031" lon="7.25858">
        <ele>472</ele>
        <time>2016-05-15T13:19:31.000Z</time>
      </trkpt>
      <trkpt lat="43.75018" lon="7.25855">
        <ele>472</ele>
        <time>2016-05-15T13:19:35.000Z</time>
      </trkpt>
      <trkpt lat="43.75013" lon="7.25854">
        <ele>471</ele>
        <time>2016-05-15T13:19:36.000Z</time>
      </trkpt>
      <trkpt lat="43.74998" lon="7.25852">
        <ele>469</ele>
        <time>2016-05-15T13:19:40.000Z</time>
      </trkpt>
      <trkpt lat="43.7499" lon="7.25853">
        <ele>469</ele>
        <time>2016-05-15T13:19:42.000Z</time>
      </trkpt>
      <trkpt lat="43.74986" lon="7.25854">
        <ele>469</ele>
        <time>2016-05-15T13:19:43.000Z</time>
      </trkpt>
      <trkpt lat="43.74979" lon="7.25857">
        <ele>469</ele>
        <time>2016-05-15T13:19:45.000Z</time>
      </trkpt>
      <trkpt lat="43.74974" lon="7.25854">
        <ele>469</ele>
        <time>2016-05-15T13:19:47.000Z</time>
      </trkpt>
      <trkpt lat="43.74972" lon="7.25851">
        <ele>469</ele>
        <time>2016-05-15T13:19:48.000Z</time>
      </trkpt>
      <trkpt lat="43.74964" lon="7.25842">
        <ele>469</ele>
        <time>2016-05-15T13:19:51.000Z</time>
      </trkpt>
      <trkpt lat="43.74956" lon="7.2584">
        <ele>469</ele>
        <time>2016-05-15T13:19:53.000Z</time>
      </trkpt>
      <trkpt lat="43.74937" lon="7.25837">
        <ele>468</ele>
        <time>2016-05-15T13:19:57.000Z</time>
      </trkpt>
      <trkpt lat="43.74929" lon="7.25837">
        <ele>467</ele>
        <time>2016-05-15T13:19:59.000Z</time>
      </trkpt>
      <trkpt lat="43.74916" lon="7.25839">
        <ele>466</ele>
        <time>2016-05-15T13:20:03.000Z</time>
      </trkpt>
      <trkpt lat="43.74901" lon="7.25843">
        <ele>467</ele>
        <time>2016-05-15T13:20:09.000Z</time>
      </trkpt>
      <trkpt lat="43.74882" lon="7.25842">
        <ele>467</ele>
        <time>2016-05-15T13:20:15.000Z</time>
      </trkpt>
      <trkpt lat="43.74867" lon="7.25841">
        <ele>467</ele>
        <time>2016-05-15T13:20:19.000Z</time>
      </trkpt>
      <trkpt lat="43.74858" lon="7.25842">
        <ele>467</ele>
        <time>2016-05-15T13:20:21.000Z</time>
      </trkpt>
      <trkpt lat="43.74843" lon="7.25843">
        <ele>467</ele>
        <time>2016-05-15T13:20:25.000Z</time>
      </trkpt>
      <trkpt lat="43.74821" lon="7.25842">
        <ele>465</ele>
        <time>2016-05-15T13:20:31.000Z</time>
      </trkpt>
      <trkpt lat="43.74803" lon="7.2584">
        <ele>464</ele>
        <time>2016-05-15T13:20:37.000Z</time>
      </trkpt>
      <trkpt lat="43.74788" lon="7.25843">
        <ele>463</ele>
        <time>2016-05-15T13:20:42.000Z</time>
      </trkpt>
      <trkpt lat="43.74784" lon="7.25844">
        <ele>463</ele>
        <time>2016-05-15T13:20:43.000Z</time>
      </trkpt>
      <trkpt lat="43.74776" lon="7.25846">
        <ele>463</ele>
        <time>2016-05-15T13:20:45.000Z</time>
      </trkpt>
      <trkpt lat="43.74772" lon="7.25847">
        <ele>462</ele>
        <time>2016-05-15T13:20:46.000Z</time>
      </trkpt>
      <trkpt lat="43.74768" lon="7.25846">
        <ele>462</ele>
        <time>2016-05-15T13:20:48.000Z</time>
      </trkpt>
      <trkpt lat="43.74762" lon="7.25849">
        <ele>462</ele>
        <time>2016-05-15T13:20:50.000Z</time>
      </trkpt>
      <trkpt lat="43.74756" lon="7.25855">
        <ele>462</ele>
        <time>2016-05-15T13:20:52.000Z</time>
      </trkpt>
      <trkpt lat="43.7474" lon="7.25864">
        <ele>455</ele>
        <time>2016-05-15T13:20:57.000Z</time>
      </trkpt>
      <trkpt lat="43.7473" lon="7.25872">
        <ele>454</ele>
        <time>2016-05-15T13:21:00.000Z</time>
      </trkpt>
      <trkpt lat="43.74724" lon="7.25874">
        <ele>453</ele>
        <time>2016-05-15T13:21:02.000Z</time>
      </trkpt>
      <trkpt lat="43.74721" lon="7.25875">
        <ele>453</ele>
        <time>2016-05-15T13:21:03.000Z</time>
      </trkpt>
      <trkpt lat="43.74716" lon="7.25879">
        <ele>452</ele>
        <time>2016-05-15T13:21:05.000Z</time>
      </trkpt>
      <trkpt lat="43.74713" lon="7.25884">
        <ele>452</ele>
        <time>2016-05-15T13:21:07.000Z</time>
      </trkpt>
      <trkpt lat="43.74713" lon="7.25886">
        <ele>452</ele>
        <time>2016-05-15T13:21:08.000Z</time>
      </trkpt>
      <trkpt lat="43.74713" lon="7.25891">
        <ele>452</ele>
        <time>2016-05-15T13:21:10.000Z</time>
      </trkpt>
      <trkpt lat="43.74711" lon="7.25892">
        <ele>452</ele>
        <time>2016-05-15T13:21:11.000Z</time>
      </trkpt>
      <trkpt lat="43.74709" lon="7.25891">
        <ele>451</ele>
        <time>2016-05-15T13:21:12.000Z</time>
      </trkpt>
      <trkpt lat="43.74702" lon="7.25889">
        <ele>451</ele>
        <time>2016-05-15T13:21:14.000Z</time>
      </trkpt>
      <trkpt lat="43.74697" lon="7.25888">
        <ele>450</ele>
        <time>2016-05-15T13:21:17.000Z</time>
      </trkpt>
      <trkpt lat="43.74694" lon="7.25889">
        <ele>450</ele>
        <time>2016-05-15T13:21:20.000Z</time>
      </trkpt>
      <trkpt lat="43.74694" lon="7.25889">
        <ele>450</ele>
        <time>2016-05-15T13:21:21.000Z</time>
      </trkpt>
      <trkpt lat="43.74696" lon="7.25889">
        <ele>450</ele>
        <time>2016-05-15T13:21:22.000Z</time>
      </trkpt>
      <trkpt lat="43.74695" lon="7.25889">
        <ele>450</ele>
        <time>2016-05-15T13:21:23.000Z</time>
      </trkpt>
      <trkpt lat="43.74695" lon="7.25888">
        <ele>450</ele>
        <time>2016-05-15T13:21:24.000Z</time>
      </trkpt>
      <trkpt lat="43.74694" lon="7.25888">
        <ele>450</ele>
        <time>2016-05-15T13:21:27.000Z</time>
      </trkpt>
      <trkpt lat="43.74693" lon="7.25889">
        <ele>450</ele>
        <time>2016-05-15T13:21:29.000Z</time>
      </trkpt>
      <trkpt lat="43.74689" lon="7.25893">
        <ele>449</ele>
        <time>2016-05-15T13:21:36.000Z</time>
      </trkpt>
      <trkpt lat="43.74688" lon="7.25894">
        <ele>449</ele>
        <time>2016-05-15T13:21:38.000Z</time>
      </trkpt>
      <trkpt lat="43.74685" lon="7.25891">
        <ele>449</ele>
        <time>2016-05-15T13:21:43.000Z</time>
      </trkpt>
      <trkpt lat="43.74685" lon="7.2589">
        <ele>449</ele>
        <time>2016-05-15T13:21:47.000Z</time>
      </trkpt>
      <trkpt lat="43.74684" lon="7.25888">
        <ele>449</ele>
        <time>2016-05-15T13:21:49.000Z</time>
      </trkpt>
      <trkpt lat="43.74685" lon="7.25886">
        <ele>449</ele>
        <time>2016-05-15T13:21:50.000Z</time>
      </trkpt>
      <trkpt lat="43.74685" lon="7.25875">
        <ele>449</ele>
        <time>2016-05-15T13:21:53.000Z</time>
      </trkpt>
      <trkpt lat="43.74683" lon="7.25872">
        <ele>449</ele>
        <time>2016-05-15T13:21:54.000Z</time>
      </trkpt>
      <trkpt lat="43.74675" lon="7.25867">
        <ele>449</ele>
        <time>2016-05-15T13:21:56.000Z</time>
      </trkpt>
      <trkpt lat="43.74672" lon="7.25864">
        <ele>449</ele>
        <time>2016-05-15T13:21:57.000Z</time>
      </trkpt>
      <trkpt lat="43.74657" lon="7.2585">
        <ele>441</ele>
        <time>2016-05-15T13:22:02.000Z</time>
      </trkpt>
      <trkpt lat="43.74653" lon="7.2585">
        <ele>440</ele>
        <time>2016-05-15T13:22:04.000Z</time>
      </trkpt>
      <trkpt lat="43.74651" lon="7.25852">
        <ele>440</ele>
        <time>2016-05-15T13:22:05.000Z</time>
      </trkpt>
      <trkpt lat="43.7465" lon="7.25853">
        <ele>440</ele>
        <time>2016-05-15T13:22:06.000Z</time>
      </trkpt>
      <trkpt lat="43.74636" lon="7.25862">
        <ele>438</ele>
        <time>2016-05-15T13:22:10.000Z</time>
      </trkpt>
      <trkpt lat="43.74632" lon="7.25864">
        <ele>438</ele>
        <time>2016-05-15T13:22:11.000Z</time>
      </trkpt>
      <trkpt lat="43.74619" lon="7.25872">
        <ele>437</ele>
        <time>2016-05-15T13:22:15.000Z</time>
      </trkpt>
      <trkpt lat="43.74604" lon="7.25877">
        <ele>436</ele>
        <time>2016-05-15T13:22:20.000Z</time>
      </trkpt>
      <trkpt lat="43.74602" lon="7.25876">
        <ele>436</ele>
        <time>2016-05-15T13:22:21.000Z</time>
      </trkpt>
      <trkpt lat="43.74595" lon="7.25874">
        <ele>435</ele>
        <time>2016-05-15T13:22:24.000Z</time>
      </trkpt>
      <trkpt lat="43.74591" lon="7.25873">
        <ele>435</ele>
        <time>2016-05-15T13:22:26.000Z</time>
      </trkpt>
      <trkpt lat="43.74589" lon="7.25873">
        <ele>435</ele>
        <time>2016-05-15T13:22:27.000Z</time>
      </trkpt>
      <trkpt lat="43.74586" lon="7.25872">
        <ele>435</ele>
        <time>2016-05-15T13:22:28.000Z</time>
      </trkpt>
      <trkpt lat="43.74582" lon="7.2587">
        <ele>424</ele>
        <time>2016-05-15T13:22:30.000Z</time>
      </trkpt>
      <trkpt lat="43.74581" lon="7.25871">
        <ele>424</ele>
        <time>2016-05-15T13:22:31.000Z</time>
      </trkpt>
      <trkpt lat="43.74581" lon="7.25873">
        <ele>424</ele>
        <time>2016-05-15T13:22:32.000Z</time>
      </trkpt>
      <trkpt lat="43.74575" lon="7.25872">
        <ele>423</ele>
        <time>2016-05-15T13:22:35.000Z</time>
      </trkpt>
      <trkpt lat="43.74573" lon="7.25872">
        <ele>423</ele>
        <time>2016-05-15T13:22:36.000Z</time>
      </trkpt>
      <trkpt lat="43.74565" lon="7.2587">
        <ele>422</ele>
        <time>2016-05-15T13:22:39.000Z</time>
      </trkpt>
      <trkpt lat="43.74562" lon="7.25871">
        <ele>422</ele>
        <time>2016-05-15T13:22:40.000Z</time>
      </trkpt>
      <trkpt lat="43.74559" lon="7.25869">
        <ele>422</ele>
        <time>2016-05-15T13:22:41.000Z</time>
      </trkpt>
      <trkpt lat="43.74556" lon="7.25868">
        <ele>421</ele>
        <time>2016-05-15T13:22:42.000Z</time>
      </trkpt>
      <trkpt lat="43.74553" lon="7.25873">
        <ele>421</ele>
        <time>2016-05-15T13:22:44.000Z</time>
      </trkpt>
      <trkpt lat="43.74553" lon="7.25882">
        <ele>421</ele>
        <time>2016-05-15T13:22:46.000Z</time>
      </trkpt>
      <trkpt lat="43.74552" lon="7.25888">
        <ele>421</ele>
        <time>2016-05-15T13:22:48.000Z</time>
      </trkpt>
      <trkpt lat="43.74551" lon="7.25891">
        <ele>420</ele>
        <time>2016-05-15T13:22:49.000Z</time>
      </trkpt>
      <trkpt lat="43.74551" lon="7.25897">
        <ele>420</ele>
        <time>2016-05-15T13:22:51.000Z</time>
      </trkpt>
      <trkpt lat="43.74552" lon="7.25902">
        <ele>421</ele>
        <time>2016-05-15T13:22:52.000Z</time>
      </trkpt>
      <trkpt lat="43.74552" lon="7.25906">
        <ele>421</ele>
        <time>2016-05-15T13:22:53.000Z</time>
      </trkpt>
      <trkpt lat="43.74553" lon="7.2591">
        <ele>421</ele>
        <time>2016-05-15T13:22:54.000Z</time>
      </trkpt>
      <trkpt lat="43.74554" lon="7.25916">
        <ele>421</ele>
        <time>2016-05-15T13:22:56.000Z</time>
      </trkpt>
      <trkpt lat="43.74552" lon="7.25917">
        <ele>415</ele>
        <time>2016-05-15T13:22:57.000Z</time>
      </trkpt>
      <trkpt lat="43.7455" lon="7.25917">
        <ele>414</ele>
        <time>2016-05-15T13:22:59.000Z</time>
      </trkpt>
      <trkpt lat="43.74548" lon="7.25921">
        <ele>413</ele>
        <time>2016-05-15T13:23:01.000Z</time>
      </trkpt>
      <trkpt lat="43.74549" lon="7.25924">
        <ele>413</ele>
        <time>2016-05-15T13:23:03.000Z</time>
      </trkpt>
      <trkpt lat="43.74547" lon="7.25927">
        <ele>413</ele>
        <time>2016-05-15T13:23:05.000Z</time>
      </trkpt>
      <trkpt lat="43.7454" lon="7.25931">
        <ele>411</ele>
        <time>2016-05-15T13:23:08.000Z</time>
      </trkpt>
      <trkpt lat="43.74538" lon="7.25932">
        <ele>410</ele>
        <time>2016-05-15T13:23:09.000Z</time>
      </trkpt>
      <trkpt lat="43.74533" lon="7.25936">
        <ele>409</ele>
        <time>2016-05-15T13:23:11.000Z</time>
      </trkpt>
      <trkpt lat="43.74531" lon="7.2594">
        <ele>409</ele>
        <time>2016-05-15T13:23:13.000Z</time>
      </trkpt>
      <trkpt lat="43.74532" lon="7.25942">
        <ele>409</ele>
        <time>2016-05-15T13:23:14.000Z</time>
      </trkpt>
      <trkpt lat="43.7453" lon="7.25944">
        <ele>408</ele>
        <time>2016-05-15T13:23:15.000Z</time>
      </trkpt>
      <trkpt lat="43.74526" lon="7.25945">
        <ele>408</ele>
        <time>2016-05-15T13:23:17.000Z</time>
      </trkpt>
      <trkpt lat="43.74523" lon="7.25946">
        <ele>407</ele>
        <time>2016-05-15T13:23:18.000Z</time>
      </trkpt>
      <trkpt lat="43.74521" lon="7.25946">
        <ele>407</ele>
        <time>2016-05-15T13:23:19.000Z</time>
      </trkpt>
      <trkpt lat="43.74516" lon="7.25947">
        <ele>406</ele>
        <time>2016-05-15T13:23:21.000Z</time>
      </trkpt>
      <trkpt lat="43.74512" lon="7.25947">
        <ele>406</ele>
        <time>2016-05-15T13:23:23.000Z</time>
      </trkpt>
      <trkpt lat="43.74509" lon="7.25951">
        <ele>406</ele>
        <time>2016-05-15T13:23:25.000Z</time>
      </trkpt>
      <trkpt lat="43.74505" lon="7.25951">
        <ele>405</ele>
        <time>2016-05-15T13:23:27.000Z</time>
      </trkpt>
      <trkpt lat="43.74501" lon="7.25952">
        <ele>405</ele>
        <time>2016-05-15T13:23:29.000Z</time>
      </trkpt>
      <trkpt lat="43.74497" lon="7.25951">
        <ele>391</ele>
        <time>2016-05-15T13:23:31.000Z</time>
      </trkpt>
      <trkpt lat="43.74493" lon="7.25952">
        <ele>390</ele>
        <time>2016-05-15T13:23:33.000Z</time>
      </trkpt>
      <trkpt lat="43.74492" lon="7.25952">
        <ele>390</ele>
        <time>2016-05-15T13:23:35.000Z</time>
      </trkpt>
      <trkpt lat="43.7449" lon="7.25953">
        <ele>390</ele>
        <time>2016-05-15T13:23:37.000Z</time>
      </trkpt>
      <trkpt lat="43.74488" lon="7.25956">
        <ele>389</ele>
        <time>2016-05-15T13:23:39.000Z</time>
      </trkpt>
      <trkpt lat="43.74483" lon="7.25957">
        <ele>388</ele>
        <time>2016-05-15T13:23:41.000Z</time>
      </trkpt>
      <trkpt lat="43.7448" lon="7.25958">
        <ele>388</ele>
        <time>2016-05-15T13:23:43.000Z</time>
      </trkpt>
      <trkpt lat="43.74475" lon="7.25961">
        <ele>387</ele>
        <time>2016-05-15T13:23:45.000Z</time>
      </trkpt>
      <trkpt lat="43.74474" lon="7.25963">
        <ele>387</ele>
        <time>2016-05-15T13:23:46.000Z</time>
      </trkpt>
      <trkpt lat="43.74472" lon="7.25964">
        <ele>386</ele>
        <time>2016-05-15T13:23:47.000Z</time>
      </trkpt>
      <trkpt lat="43.74469" lon="7.25966">
        <ele>386</ele>
        <time>2016-05-15T13:23:49.000Z</time>
      </trkpt>
      <trkpt lat="43.74468" lon="7.25965">
        <ele>386</ele>
        <time>2016-05-15T13:23:50.000Z</time>
      </trkpt>
      <trkpt lat="43.74466" lon="7.25966">
        <ele>385</ele>
        <time>2016-05-15T13:23:51.000Z</time>
      </trkpt>
      <trkpt lat="43.74461" lon="7.25968">
        <ele>385</ele>
        <time>2016-05-15T13:23:53.000Z</time>
      </trkpt>
      <trkpt lat="43.74455" lon="7.25968">
        <ele>384</ele>
        <time>2016-05-15T13:23:55.000Z</time>
      </trkpt>
      <trkpt lat="43.7445" lon="7.25966">
        <ele>383</ele>
        <time>2016-05-15T13:23:57.000Z</time>
      </trkpt>
      <trkpt lat="43.74447" lon="7.25964">
        <ele>383</ele>
        <time>2016-05-15T13:23:59.000Z</time>
      </trkpt>
      <trkpt lat="43.74449" lon="7.25965">
        <ele>383</ele>
        <time>2016-05-15T13:24:00.000Z</time>
      </trkpt>
      <trkpt lat="43.74447" lon="7.25965">
        <ele>383</ele>
        <time>2016-05-15T13:24:02.000Z</time>
      </trkpt>
      <trkpt lat="43.7445" lon="7.25971">
        <ele>383</ele>
        <time>2016-05-15T13:24:07.000Z</time>
      </trkpt>
      <trkpt lat="43.74458" lon="7.25979">
        <ele>383</ele>
        <time>2016-05-15T13:24:11.000Z</time>
      </trkpt>
      <trkpt lat="43.74465" lon="7.25995">
        <ele>384</ele>
        <time>2016-05-15T13:24:15.000Z</time>
      </trkpt>
      <trkpt lat="43.74467" lon="7.26001">
        <ele>375</ele>
        <time>2016-05-15T13:24:17.000Z</time>
      </trkpt>
      <trkpt lat="43.74468" lon="7.26011">
        <ele>375</ele>
        <time>2016-05-15T13:24:19.000Z</time>
      </trkpt>
      <trkpt lat="43.74474" lon="7.26026">
        <ele>374</ele>
        <time>2016-05-15T13:24:22.000Z</time>
      </trkpt>
      <trkpt lat="43.74475" lon="7.26036">
        <ele>373</ele>
        <time>2016-05-15T13:24:24.000Z</time>
      </trkpt>
      <trkpt lat="43.74477" lon="7.26042">
        <ele>372</ele>
        <time>2016-05-15T13:24:25.000Z</time>
      </trkpt>
      <trkpt lat="43.74478" lon="7.26047">
        <ele>372</ele>
        <time>2016-05-15T13:24:26.000Z</time>
      </trkpt>
      <trkpt lat="43.7448" lon="7.26053">
        <ele>371</ele>
        <time>2016-05-15T13:24:27.000Z</time>
      </trkpt>
      <trkpt lat="43.74485" lon="7.26064">
        <ele>371</ele>
        <time>2016-05-15T13:24:29.000Z</time>
      </trkpt>
      <trkpt lat="43.74488" lon="7.2607">
        <ele>370</ele>
        <time>2016-05-15T13:24:30.000Z</time>
      </trkpt>
      <trkpt lat="43.74491" lon="7.26075">
        <ele>370</ele>
        <time>2016-05-15T13:24:31.000Z</time>
      </trkpt>
      <trkpt lat="43.74495" lon="7.26079">
        <ele>369</ele>
        <time>2016-05-15T13:24:32.000Z</time>
      </trkpt>
      <trkpt lat="43.74498" lon="7.26082">
        <ele>369</ele>
        <time>2016-05-15T13:24:33.000Z</time>
      </trkpt>
      <trkpt lat="43.74505" lon="7.26091">
        <ele>368</ele>
        <time>2016-05-15T13:24:35.000Z</time>
      </trkpt>
      <trkpt lat="43.74509" lon="7.26098">
        <ele>367</ele>
        <time>2016-05-15T13:24:36.000Z</time>
      </trkpt>
      <trkpt lat="43.74518" lon="7.26109">
        <ele>366</ele>
        <time>2016-05-15T13:24:38.000Z</time>
      </trkpt>
      <trkpt lat="43.74523" lon="7.26113">
        <ele>365</ele>
        <time>2016-05-15T13:24:39.000Z</time>
      </trkpt>
      <trkpt lat="43.74533" lon="7.26124">
        <ele>364</ele>
        <time>2016-05-15T13:24:41.000Z</time>
      </trkpt>
      <trkpt lat="43.74545" lon="7.26137">
        <ele>363</ele>
        <time>2016-05-15T13:24:43.000Z</time>
      </trkpt>
      <trkpt lat="43.74549" lon="7.26142">
        <ele>362</ele>
        <time>2016-05-15T13:24:44.000Z</time>
      </trkpt>
      <trkpt lat="43.74553" lon="7.26148">
        <ele>362</ele>
        <time>2016-05-15T13:24:45.000Z</time>
      </trkpt>
      <trkpt lat="43.74555" lon="7.26153">
        <ele>361</ele>
        <time>2016-05-15T13:24:46.000Z</time>
      </trkpt>
      <trkpt lat="43.74557" lon="7.26156">
        <ele>361</ele>
        <time>2016-05-15T13:24:47.000Z</time>
      </trkpt>
      <trkpt lat="43.74558" lon="7.26158">
        <ele>360</ele>
        <time>2016-05-15T13:24:48.000Z</time>
      </trkpt>
      <trkpt lat="43.74559" lon="7.2616">
        <ele>360</ele>
        <time>2016-05-15T13:24:49.000Z</time>
      </trkpt>
      <trkpt lat="43.74562" lon="7.26163">
        <ele>360</ele>
        <time>2016-05-15T13:24:51.000Z</time>
      </trkpt>
      <trkpt lat="43.74566" lon="7.26167">
        <ele>350</ele>
        <time>2016-05-15T13:24:53.000Z</time>
      </trkpt>
      <trkpt lat="43.74566" lon="7.26169">
        <ele>350</ele>
        <time>2016-05-15T13:24:54.000Z</time>
      </trkpt>
      <trkpt lat="43.74566" lon="7.26171">
        <ele>349</ele>
        <time>2016-05-15T13:24:55.000Z</time>
      </trkpt>
      <trkpt lat="43.74567" lon="7.26173">
        <ele>349</ele>
        <time>2016-05-15T13:24:56.000Z</time>
      </trkpt>
      <trkpt lat="43.74566" lon="7.26175">
        <ele>349</ele>
        <time>2016-05-15T13:24:57.000Z</time>
      </trkpt>
      <trkpt lat="43.74565" lon="7.26176">
        <ele>349</ele>
        <time>2016-05-15T13:24:58.000Z</time>
      </trkpt>
      <trkpt lat="43.74563" lon="7.26176">
        <ele>349</ele>
        <time>2016-05-15T13:25:00.000Z</time>
      </trkpt>
      <trkpt lat="43.74563" lon="7.26178">
        <ele>348</ele>
        <time>2016-05-15T13:25:01.000Z</time>
      </trkpt>
      <trkpt lat="43.74565" lon="7.2618">
        <ele>348</ele>
        <time>2016-05-15T13:25:04.000Z</time>
      </trkpt>
      <trkpt lat="43.74565" lon="7.26181">
        <ele>348</ele>
        <time>2016-05-15T13:25:05.000Z</time>
      </trkpt>
      <trkpt lat="43.74563" lon="7.26182">
        <ele>348</ele>
        <time>2016-05-15T13:25:08.000Z</time>
      </trkpt>
      <trkpt lat="43.74562" lon="7.26183">
        <ele>348</ele>
        <time>2016-05-15T13:25:09.000Z</time>
      </trkpt>
      <trkpt lat="43.74561" lon="7.26185">
        <ele>347</ele>
        <time>2016-05-15T13:25:10.000Z</time>
      </trkpt>
      <trkpt lat="43.74557" lon="7.26189">
        <ele>347</ele>
        <time>2016-05-15T13:25:13.000Z</time>
      </trkpt>
      <trkpt lat="43.74554" lon="7.26197">
        <ele>346</ele>
        <time>2016-05-15T13:25:16.000Z</time>
      </trkpt>
      <trkpt lat="43.74554" lon="7.262">
        <ele>345</ele>
        <time>2016-05-15T13:25:17.000Z</time>
      </trkpt>
      <trkpt lat="43.74551" lon="7.26203">
        <ele>345</ele>
        <time>2016-05-15T13:25:19.000Z</time>
      </trkpt>
      <trkpt lat="43.74547" lon="7.26204">
        <ele>345</ele>
        <time>2016-05-15T13:25:21.000Z</time>
      </trkpt>
      <trkpt lat="43.74544" lon="7.26211">
        <ele>344</ele>
        <time>2016-05-15T13:25:24.000Z</time>
      </trkpt>
      <trkpt lat="43.74545" lon="7.26214">
        <ele>344</ele>
        <time>2016-05-15T13:25:25.000Z</time>
      </trkpt>
      <trkpt lat="43.74546" lon="7.26216">
        <ele>343</ele>
        <time>2016-05-15T13:25:26.000Z</time>
      </trkpt>
      <trkpt lat="43.74545" lon="7.26222">
        <ele>343</ele>
        <time>2016-05-15T13:25:28.000Z</time>
      </trkpt>
      <trkpt lat="43.74547" lon="7.26229">
        <ele>342</ele>
        <time>2016-05-15T13:25:30.000Z</time>
      </trkpt>
      <trkpt lat="43.74551" lon="7.26233">
        <ele>342</ele>
        <time>2016-05-15T13:25:32.000Z</time>
      </trkpt>
      <trkpt lat="43.74554" lon="7.26234">
        <ele>342</ele>
        <time>2016-05-15T13:25:33.000Z</time>
      </trkpt>
      <trkpt lat="43.74556" lon="7.26234">
        <ele>342</ele>
        <time>2016-05-15T13:25:34.000Z</time>
      </trkpt>
      <trkpt lat="43.74558" lon="7.26237">
        <ele>341</ele>
        <time>2016-05-15T13:25:36.000Z</time>
      </trkpt>
      <trkpt lat="43.74559" lon="7.26239">
        <ele>341</ele>
        <time>2016-05-15T13:25:37.000Z</time>
      </trkpt>
      <trkpt lat="43.7456" lon="7.26236">
        <ele>341</ele>
        <time>2016-05-15T13:25:39.000Z</time>
      </trkpt>
      <trkpt lat="43.74561" lon="7.26236">
        <ele>341</ele>
        <time>2016-05-15T13:25:40.000Z</time>
      </trkpt>
      <trkpt lat="43.74568" lon="7.26239">
        <ele>341</ele>
        <time>2016-05-15T13:25:42.000Z</time>
      </trkpt>
      <trkpt lat="43.74577" lon="7.26247">
        <ele>339</ele>
        <time>2016-05-15T13:25:44.000Z</time>
      </trkpt>
      <trkpt lat="43.74579" lon="7.26262">
        <ele>331</ele>
        <time>2016-05-15T13:25:47.000Z</time>
      </trkpt>
      <trkpt lat="43.74579" lon="7.2627">
        <ele>329</ele>
        <time>2016-05-15T13:25:48.000Z</time>
      </trkpt>
      <trkpt lat="43.74581" lon="7.26275">
        <ele>328</ele>
        <time>2016-05-15T13:25:49.000Z</time>
      </trkpt>
      <trkpt lat="43.74587" lon="7.26284">
        <ele>327</ele>
        <time>2016-05-15T13:25:51.000Z</time>
      </trkpt>
      <trkpt lat="43.74598" lon="7.26288">
        <ele>327</ele>
        <time>2016-05-15T13:25:54.000Z</time>
      </trkpt>
      <trkpt lat="43.74603" lon="7.26288">
        <ele>327</ele>
        <time>2016-05-15T13:25:55.000Z</time>
      </trkpt>
      <trkpt lat="43.74617" lon="7.26286">
        <ele>327</ele>
        <time>2016-05-15T13:25:58.000Z</time>
      </trkpt>
      <trkpt lat="43.74633" lon="7.26286">
        <ele>327</ele>
        <time>2016-05-15T13:26:01.000Z</time>
      </trkpt>
      <trkpt lat="43.74638" lon="7.26284">
        <ele>328</ele>
        <time>2016-05-15T13:26:02.000Z</time>
      </trkpt>
      <trkpt lat="43.74643" lon="7.26285">
        <ele>328</ele>
        <time>2016-05-15T13:26:03.000Z</time>
      </trkpt>
      <trkpt lat="43.74646" lon="7.2629">
        <ele>327</ele>
        <time>2016-05-15T13:26:04.000Z</time>
      </trkpt>
      <trkpt lat="43.74641" lon="7.26303">
        <ele>325</ele>
        <time>2016-05-15T13:26:06.000Z</time>
      </trkpt>
      <trkpt lat="43.74627" lon="7.26306">
        <ele>324</ele>
        <time>2016-05-15T13:26:08.000Z</time>
      </trkpt>
      <trkpt lat="43.74617" lon="7.26314">
        <ele>323</ele>
        <time>2016-05-15T13:26:10.000Z</time>
      </trkpt>
      <trkpt lat="43.74617" lon="7.2632">
        <ele>322</ele>
        <time>2016-05-15T13:26:11.000Z</time>
      </trkpt>
      <trkpt lat="43.7462" lon="7.26325">
        <ele>322</ele>
        <time>2016-05-15T13:26:12.000Z</time>
      </trkpt>
      <trkpt lat="43.74626" lon="7.26327">
        <ele>322</ele>
        <time>2016-05-15T13:26:13.000Z</time>
      </trkpt>
      <trkpt lat="43.74637" lon="7.26327">
        <ele>322</ele>
        <time>2016-05-15T13:26:15.000Z</time>
      </trkpt>
      <trkpt lat="43.74641" lon="7.26328">
        <ele>322</ele>
        <time>2016-05-15T13:26:16.000Z</time>
      </trkpt>
      <trkpt lat="43.74644" lon="7.2633">
        <ele>322</ele>
        <time>2016-05-15T13:26:17.000Z</time>
      </trkpt>
      <trkpt lat="43.74646" lon="7.26336">
        <ele>311</ele>
        <time>2016-05-15T13:26:19.000Z</time>
      </trkpt>
    </trkseg>
  </trk>
</gpx>